<?xml version="1.0" encoding="UTF-8" standalone="no" ?>
<gpx xmlns="http://www.topografix.com/GPX/1/1" xmlns:xsi="http://www.w3.org/2001/XMLSchema-instance" xsi:schemaLocation="http://www.topografix.com/GPX/1/1 http://www.topografix.com/GPX/1/1/gpx.xsd" version="1.1" creator="VisuGPX - https://www.visugpx.com">
  <metadata>
    <name>81 vtt castres sidobre 48km 1200d+</name>
  </metadata>
  <trk>
    <name><![CDATA[vtt sidobre 48km 1200d+]]></name>
    <extensions>
      <line xmlns="http://www.topografix.com/GPX/gpx_style/0/2">
        <color>0000FF</color>
        <width>4</width>
      </line>
    </extensions>
    <trkseg>
      <trkpt lat="43.62891" lon="2.26933">
        <ele>189.1</ele>
      </trkpt>
      <trkpt lat="43.62891" lon="2.26933">
        <ele>189.1</ele>
      </trkpt>
      <trkpt lat="43.62891" lon="2.26933">
        <ele>189.1</ele>
      </trkpt>
      <trkpt lat="43.62891" lon="2.26933">
        <ele>189.1</ele>
      </trkpt>
      <trkpt lat="43.62891" lon="2.26933">
        <ele>189.1</ele>
      </trkpt>
      <trkpt lat="43.62891" lon="2.26932">
        <ele>189.1</ele>
      </trkpt>
      <trkpt lat="43.62835" lon="2.26942">
        <ele>188.6</ele>
      </trkpt>
      <trkpt lat="43.62845" lon="2.27062">
        <ele>190.1</ele>
      </trkpt>
      <trkpt lat="43.62849" lon="2.27068">
        <ele>190.2</ele>
      </trkpt>
      <trkpt lat="43.62854" lon="2.2712">
        <ele>190.7</ele>
      </trkpt>
      <trkpt lat="43.62862" lon="2.27195">
        <ele>191.2</ele>
      </trkpt>
      <trkpt lat="43.62862" lon="2.27195">
        <ele>191.2</ele>
      </trkpt>
      <trkpt lat="43.62864" lon="2.27223">
        <ele>191.1</ele>
      </trkpt>
      <trkpt lat="43.62873" lon="2.27257">
        <ele>191.1</ele>
      </trkpt>
      <trkpt lat="43.62871" lon="2.27272">
        <ele>191.4</ele>
      </trkpt>
      <trkpt lat="43.62862" lon="2.27282">
        <ele>191.5</ele>
      </trkpt>
      <trkpt lat="43.62848" lon="2.27287">
        <ele>191.5</ele>
      </trkpt>
      <trkpt lat="43.62846" lon="2.27304">
        <ele>191.7</ele>
      </trkpt>
      <trkpt lat="43.62845" lon="2.27316">
        <ele>191.9</ele>
      </trkpt>
      <trkpt lat="43.62844" lon="2.27323">
        <ele>192</ele>
      </trkpt>
      <trkpt lat="43.62844" lon="2.27323">
        <ele>190.8</ele>
      </trkpt>
      <trkpt lat="43.62826" lon="2.27318">
        <ele>191</ele>
      </trkpt>
      <trkpt lat="43.62796" lon="2.27309">
        <ele>191</ele>
      </trkpt>
      <trkpt lat="43.62763" lon="2.27416">
        <ele>192.5</ele>
      </trkpt>
      <trkpt lat="43.6276" lon="2.27423">
        <ele>192.9</ele>
      </trkpt>
      <trkpt lat="43.62737" lon="2.27408">
        <ele>192.7</ele>
      </trkpt>
      <trkpt lat="43.62734" lon="2.27407">
        <ele>189.337962</ele>
        <time>2021-10-18T11:44:45.000Z</time>
      </trkpt>
      <trkpt lat="43.62731" lon="2.27405">
        <ele>189.337592</ele>
        <time>2021-10-18T11:44:46.000Z</time>
      </trkpt>
      <trkpt lat="43.62727" lon="2.27404">
        <ele>189.337216</ele>
        <time>2021-10-18T11:44:47.000Z</time>
      </trkpt>
      <trkpt lat="43.62724" lon="2.27402">
        <ele>189.33685</ele>
        <time>2021-10-18T11:44:48.000Z</time>
      </trkpt>
      <trkpt lat="43.62721" lon="2.274">
        <ele>189.336468</ele>
        <time>2021-10-18T11:44:49.000Z</time>
      </trkpt>
      <trkpt lat="43.62718" lon="2.27398">
        <ele>189.336088</ele>
        <time>2021-10-18T11:44:50.000Z</time>
      </trkpt>
      <trkpt lat="43.62715" lon="2.27396">
        <ele>189.335668</ele>
        <time>2021-10-18T11:44:51.000Z</time>
      </trkpt>
      <trkpt lat="43.62711" lon="2.27394">
        <ele>189.335259</ele>
        <time>2021-10-18T11:44:52.000Z</time>
      </trkpt>
      <trkpt lat="43.62708" lon="2.27391">
        <ele>189.334842</ele>
        <time>2021-10-18T11:44:53.000Z</time>
      </trkpt>
      <trkpt lat="43.62704" lon="2.2739">
        <ele>189.334434</ele>
        <time>2021-10-18T11:44:54.000Z</time>
      </trkpt>
      <trkpt lat="43.62701" lon="2.27389">
        <ele>189.334039</ele>
        <time>2021-10-18T11:44:55.000Z</time>
      </trkpt>
      <trkpt lat="43.62697" lon="2.27389">
        <ele>189.333629</ele>
        <time>2021-10-18T11:44:56.000Z</time>
      </trkpt>
      <trkpt lat="43.62694" lon="2.2739">
        <ele>189.333254</ele>
        <time>2021-10-18T11:44:57.000Z</time>
      </trkpt>
      <trkpt lat="43.62691" lon="2.27392">
        <ele>189.332881</ele>
        <time>2021-10-18T11:44:58.000Z</time>
      </trkpt>
      <trkpt lat="43.62688" lon="2.27394">
        <ele>189.332484</ele>
        <time>2021-10-18T11:44:59.000Z</time>
      </trkpt>
      <trkpt lat="43.62685" lon="2.27398">
        <ele>189.332112</ele>
        <time>2021-10-18T11:45:00.000Z</time>
      </trkpt>
      <trkpt lat="43.62683" lon="2.27401">
        <ele>189.331739</ele>
        <time>2021-10-18T11:45:01.000Z</time>
      </trkpt>
      <trkpt lat="43.62681" lon="2.27404">
        <ele>189.331394</ele>
        <time>2021-10-18T11:45:02.000Z</time>
      </trkpt>
      <trkpt lat="43.62679" lon="2.27408">
        <ele>189.331014</ele>
        <time>2021-10-18T11:45:03.000Z</time>
      </trkpt>
      <trkpt lat="43.62677" lon="2.27412">
        <ele>189.330623</ele>
        <time>2021-10-18T11:45:04.000Z</time>
      </trkpt>
      <trkpt lat="43.62674" lon="2.27415">
        <ele>189.330245</ele>
        <time>2021-10-18T11:45:05.000Z</time>
      </trkpt>
      <trkpt lat="43.62672" lon="2.27419">
        <ele>189.329868</ele>
        <time>2021-10-18T11:45:06.000Z</time>
      </trkpt>
      <trkpt lat="43.6267" lon="2.27423">
        <ele>189.32949</ele>
        <time>2021-10-18T11:45:07.000Z</time>
      </trkpt>
      <trkpt lat="43.62668" lon="2.27426">
        <ele>189.329119</ele>
        <time>2021-10-18T11:45:08.000Z</time>
      </trkpt>
      <trkpt lat="43.62666" lon="2.2743">
        <ele>189.328735</ele>
        <time>2021-10-18T11:45:09.000Z</time>
      </trkpt>
      <trkpt lat="43.62664" lon="2.27434">
        <ele>189.328371</ele>
        <time>2021-10-18T11:45:10.000Z</time>
      </trkpt>
      <trkpt lat="43.62662" lon="2.27437">
        <ele>189.327973</ele>
        <time>2021-10-18T11:45:11.000Z</time>
      </trkpt>
      <trkpt lat="43.62659" lon="2.27441">
        <ele>189.327576</ele>
        <time>2021-10-18T11:45:12.000Z</time>
      </trkpt>
      <trkpt lat="43.62657" lon="2.27445">
        <ele>189.327171</ele>
        <time>2021-10-18T11:45:13.000Z</time>
      </trkpt>
      <trkpt lat="43.62654" lon="2.27449">
        <ele>189.326735</ele>
        <time>2021-10-18T11:45:14.000Z</time>
      </trkpt>
      <trkpt lat="43.62652" lon="2.27454">
        <ele>189.326273</ele>
        <time>2021-10-18T11:45:15.000Z</time>
      </trkpt>
      <trkpt lat="43.62649" lon="2.27459">
        <ele>189.325785</ele>
        <time>2021-10-18T11:45:16.000Z</time>
      </trkpt>
      <trkpt lat="43.62646" lon="2.27464">
        <ele>189.325238</ele>
        <time>2021-10-18T11:45:17.000Z</time>
      </trkpt>
      <trkpt lat="43.62643" lon="2.27469">
        <ele>189.324717</ele>
        <time>2021-10-18T11:45:18.000Z</time>
      </trkpt>
      <trkpt lat="43.6264" lon="2.27474">
        <ele>189.33609</ele>
        <time>2021-10-18T11:45:19.000Z</time>
      </trkpt>
      <trkpt lat="43.62637" lon="2.27479">
        <ele>189.349224</ele>
        <time>2021-10-18T11:45:20.000Z</time>
      </trkpt>
      <trkpt lat="43.62634" lon="2.27484">
        <ele>189.362049</ele>
        <time>2021-10-18T11:45:21.000Z</time>
      </trkpt>
      <trkpt lat="43.62632" lon="2.27488">
        <ele>189.373693</ele>
        <time>2021-10-18T11:45:22.000Z</time>
      </trkpt>
      <trkpt lat="43.6263" lon="2.27493">
        <ele>189.384177</ele>
        <time>2021-10-18T11:45:23.000Z</time>
      </trkpt>
      <trkpt lat="43.62627" lon="2.27497">
        <ele>189.394998</ele>
        <time>2021-10-18T11:45:24.000Z</time>
      </trkpt>
      <trkpt lat="43.62625" lon="2.27501">
        <ele>189.405811</ele>
        <time>2021-10-18T11:45:25.000Z</time>
      </trkpt>
      <trkpt lat="43.62622" lon="2.27505">
        <ele>189.416834</ele>
        <time>2021-10-18T11:45:26.000Z</time>
      </trkpt>
      <trkpt lat="43.6262" lon="2.27509">
        <ele>189.427485</ele>
        <time>2021-10-18T11:45:27.000Z</time>
      </trkpt>
      <trkpt lat="43.62618" lon="2.27513">
        <ele>189.437348</ele>
        <time>2021-10-18T11:45:28.000Z</time>
      </trkpt>
      <trkpt lat="43.62615" lon="2.27517">
        <ele>189.447521</ele>
        <time>2021-10-18T11:45:29.000Z</time>
      </trkpt>
      <trkpt lat="43.62613" lon="2.27521">
        <ele>189.457852</ele>
        <time>2021-10-18T11:45:30.000Z</time>
      </trkpt>
      <trkpt lat="43.62611" lon="2.27525">
        <ele>189.46752</ele>
        <time>2021-10-18T11:45:31.000Z</time>
      </trkpt>
      <trkpt lat="43.62609" lon="2.27529">
        <ele>189.477021</ele>
        <time>2021-10-18T11:45:32.000Z</time>
      </trkpt>
      <trkpt lat="43.62607" lon="2.27532">
        <ele>189.485869</ele>
        <time>2021-10-18T11:45:33.000Z</time>
      </trkpt>
      <trkpt lat="43.62605" lon="2.27536">
        <ele>189.494887</ele>
        <time>2021-10-18T11:45:34.000Z</time>
      </trkpt>
      <trkpt lat="43.62603" lon="2.27539">
        <ele>189.50457</ele>
        <time>2021-10-18T11:45:35.000Z</time>
      </trkpt>
      <trkpt lat="43.62601" lon="2.27543">
        <ele>189.51391</ele>
        <time>2021-10-18T11:45:36.000Z</time>
      </trkpt>
      <trkpt lat="43.62599" lon="2.27547">
        <ele>189.524445</ele>
        <time>2021-10-18T11:45:37.000Z</time>
      </trkpt>
      <trkpt lat="43.62596" lon="2.27551">
        <ele>189.534797</ele>
        <time>2021-10-18T11:45:38.000Z</time>
      </trkpt>
      <trkpt lat="43.62594" lon="2.27555">
        <ele>189.543831</ele>
        <time>2021-10-18T11:45:39.000Z</time>
      </trkpt>
      <trkpt lat="43.62592" lon="2.27558">
        <ele>189.553499</ele>
        <time>2021-10-18T11:45:40.000Z</time>
      </trkpt>
      <trkpt lat="43.6259" lon="2.27563">
        <ele>189.563657</ele>
        <time>2021-10-18T11:45:41.000Z</time>
      </trkpt>
      <trkpt lat="43.62588" lon="2.27567">
        <ele>189.573978</ele>
        <time>2021-10-18T11:45:42.000Z</time>
      </trkpt>
      <trkpt lat="43.62586" lon="2.27571">
        <ele>189.584299</ele>
        <time>2021-10-18T11:45:43.000Z</time>
      </trkpt>
      <trkpt lat="43.62584" lon="2.27574">
        <ele>189.593473</ele>
        <time>2021-10-18T11:45:44.000Z</time>
      </trkpt>
      <trkpt lat="43.62582" lon="2.27578">
        <ele>189.602483</ele>
        <time>2021-10-18T11:45:45.000Z</time>
      </trkpt>
      <trkpt lat="43.62581" lon="2.27582">
        <ele>189.611059</ele>
        <time>2021-10-18T11:45:46.000Z</time>
      </trkpt>
      <trkpt lat="43.62579" lon="2.27586">
        <ele>189.620125</ele>
        <time>2021-10-18T11:45:47.000Z</time>
      </trkpt>
      <trkpt lat="43.62577" lon="2.2759">
        <ele>189.629957</ele>
        <time>2021-10-18T11:45:48.000Z</time>
      </trkpt>
      <trkpt lat="43.62575" lon="2.27594">
        <ele>189.640287</ele>
        <time>2021-10-18T11:45:49.000Z</time>
      </trkpt>
      <trkpt lat="43.62572" lon="2.27598">
        <ele>189.650938</ele>
        <time>2021-10-18T11:45:50.000Z</time>
      </trkpt>
      <trkpt lat="43.6257" lon="2.27602">
        <ele>189.661589</ele>
        <time>2021-10-18T11:45:51.000Z</time>
      </trkpt>
      <trkpt lat="43.62568" lon="2.27606">
        <ele>189.672078</ele>
        <time>2021-10-18T11:45:52.000Z</time>
      </trkpt>
      <trkpt lat="43.62566" lon="2.2761">
        <ele>189.682238</ele>
        <time>2021-10-18T11:45:53.000Z</time>
      </trkpt>
      <trkpt lat="43.62563" lon="2.27614">
        <ele>189.691921</ele>
        <time>2021-10-18T11:45:54.000Z</time>
      </trkpt>
      <trkpt lat="43.62561" lon="2.27618">
        <ele>189.701423</ele>
        <time>2021-10-18T11:45:55.000Z</time>
      </trkpt>
      <trkpt lat="43.62559" lon="2.27622">
        <ele>189.712244</ele>
        <time>2021-10-18T11:45:56.000Z</time>
      </trkpt>
      <trkpt lat="43.62556" lon="2.27626">
        <ele>189.724221</ele>
        <time>2021-10-18T11:45:57.000Z</time>
      </trkpt>
      <trkpt lat="43.62554" lon="2.27631">
        <ele>189.736024</ele>
        <time>2021-10-18T11:45:58.000Z</time>
      </trkpt>
      <trkpt lat="43.62551" lon="2.27636">
        <ele>189.747826</ele>
        <time>2021-10-18T11:45:59.000Z</time>
      </trkpt>
      <trkpt lat="43.62549" lon="2.2764">
        <ele>189.758316</ele>
        <time>2021-10-18T11:46:00.000Z</time>
      </trkpt>
      <trkpt lat="43.62547" lon="2.27644">
        <ele>189.768316</ele>
        <time>2021-10-18T11:46:01.000Z</time>
      </trkpt>
      <trkpt lat="43.62545" lon="2.27648">
        <ele>189.777981</ele>
        <time>2021-10-18T11:46:02.000Z</time>
      </trkpt>
      <trkpt lat="43.62542" lon="2.27651">
        <ele>189.787356</ele>
        <time>2021-10-18T11:46:03.000Z</time>
      </trkpt>
      <trkpt lat="43.62541" lon="2.27654">
        <ele>189.795061</ele>
        <time>2021-10-18T11:46:04.000Z</time>
      </trkpt>
      <trkpt lat="43.62539" lon="2.27657">
        <ele>189.801451</ele>
        <time>2021-10-18T11:46:05.000Z</time>
      </trkpt>
      <trkpt lat="43.62538" lon="2.27659">
        <ele>189.808334</ele>
        <time>2021-10-18T11:46:06.000Z</time>
      </trkpt>
      <trkpt lat="43.62536" lon="2.27662">
        <ele>189.816732</ele>
        <time>2021-10-18T11:46:07.000Z</time>
      </trkpt>
      <trkpt lat="43.62534" lon="2.27666">
        <ele>189.824769</ele>
        <time>2021-10-18T11:46:08.000Z</time>
      </trkpt>
      <trkpt lat="43.62532" lon="2.27669">
        <ele>189.825713</ele>
        <time>2021-10-18T11:46:09.000Z</time>
      </trkpt>
      <trkpt lat="43.6253" lon="2.27672">
        <ele>189.823371</ele>
        <time>2021-10-18T11:46:10.000Z</time>
      </trkpt>
      <trkpt lat="43.62529" lon="2.27674">
        <ele>189.821449</ele>
        <time>2021-10-18T11:46:11.000Z</time>
      </trkpt>
      <trkpt lat="43.62528" lon="2.27677">
        <ele>189.819692</ele>
        <time>2021-10-18T11:46:12.000Z</time>
      </trkpt>
      <trkpt lat="43.62527" lon="2.27681">
        <ele>189.817688</ele>
        <time>2021-10-18T11:46:13.000Z</time>
      </trkpt>
      <trkpt lat="43.62526" lon="2.27684">
        <ele>189.815471</ele>
        <time>2021-10-18T11:46:14.000Z</time>
      </trkpt>
      <trkpt lat="43.62525" lon="2.27689">
        <ele>189.81304</ele>
        <time>2021-10-18T11:46:15.000Z</time>
      </trkpt>
      <trkpt lat="43.62525" lon="2.27693">
        <ele>189.810703</ele>
        <time>2021-10-18T11:46:16.000Z</time>
      </trkpt>
      <trkpt lat="43.62524" lon="2.27697">
        <ele>189.808355</ele>
        <time>2021-10-18T11:46:17.000Z</time>
      </trkpt>
      <trkpt lat="43.62523" lon="2.27701">
        <ele>189.806013</ele>
        <time>2021-10-18T11:46:18.000Z</time>
      </trkpt>
      <trkpt lat="43.62522" lon="2.27705">
        <ele>189.804009</ele>
        <time>2021-10-18T11:46:19.000Z</time>
      </trkpt>
      <trkpt lat="43.62522" lon="2.27708">
        <ele>189.802141</ele>
        <time>2021-10-18T11:46:20.000Z</time>
      </trkpt>
      <trkpt lat="43.6252" lon="2.27712">
        <ele>189.799672</ele>
        <time>2021-10-18T11:46:21.000Z</time>
      </trkpt>
      <trkpt lat="43.62519" lon="2.27716">
        <ele>189.796857</ele>
        <time>2021-10-18T11:46:22.000Z</time>
      </trkpt>
      <trkpt lat="43.62517" lon="2.27721">
        <ele>189.793776</ele>
        <time>2021-10-18T11:46:23.000Z</time>
      </trkpt>
      <trkpt lat="43.62515" lon="2.27727">
        <ele>189.790716</ele>
        <time>2021-10-18T11:46:24.000Z</time>
      </trkpt>
      <trkpt lat="43.62514" lon="2.27732">
        <ele>189.787547</ele>
        <time>2021-10-18T11:46:25.000Z</time>
      </trkpt>
      <trkpt lat="43.62513" lon="2.27738">
        <ele>189.784355</ele>
        <time>2021-10-18T11:46:26.000Z</time>
      </trkpt>
      <trkpt lat="43.62511" lon="2.27743">
        <ele>189.780874</ele>
        <time>2021-10-18T11:46:27.000Z</time>
      </trkpt>
      <trkpt lat="43.6251" lon="2.27749">
        <ele>189.777632</ele>
        <time>2021-10-18T11:46:28.000Z</time>
      </trkpt>
      <trkpt lat="43.62508" lon="2.27755">
        <ele>189.774234</ele>
        <time>2021-10-18T11:46:29.000Z</time>
      </trkpt>
      <trkpt lat="43.62507" lon="2.27761">
        <ele>189.770874</ele>
        <time>2021-10-18T11:46:30.000Z</time>
      </trkpt>
      <trkpt lat="43.62506" lon="2.27766">
        <ele>189.767501</ele>
        <time>2021-10-18T11:46:31.000Z</time>
      </trkpt>
      <trkpt lat="43.62504" lon="2.27772">
        <ele>189.763969</ele>
        <time>2021-10-18T11:46:32.000Z</time>
      </trkpt>
      <trkpt lat="43.62502" lon="2.27778">
        <ele>189.760623</ele>
        <time>2021-10-18T11:46:33.000Z</time>
      </trkpt>
      <trkpt lat="43.62501" lon="2.27784">
        <ele>189.75733</ele>
        <time>2021-10-18T11:46:34.000Z</time>
      </trkpt>
      <trkpt lat="43.62499" lon="2.27789">
        <ele>189.75406</ele>
        <time>2021-10-18T11:46:35.000Z</time>
      </trkpt>
      <trkpt lat="43.62498" lon="2.27795">
        <ele>189.75092</ele>
        <time>2021-10-18T11:46:36.000Z</time>
      </trkpt>
      <trkpt lat="43.62497" lon="2.278">
        <ele>189.747826</ele>
        <time>2021-10-18T11:46:37.000Z</time>
      </trkpt>
      <trkpt lat="43.62496" lon="2.27806">
        <ele>189.744551</ele>
        <time>2021-10-18T11:46:38.000Z</time>
      </trkpt>
      <trkpt lat="43.62495" lon="2.27812">
        <ele>189.741224</ele>
        <time>2021-10-18T11:46:39.000Z</time>
      </trkpt>
      <trkpt lat="43.62493" lon="2.27817">
        <ele>189.737774</ele>
        <time>2021-10-18T11:46:40.000Z</time>
      </trkpt>
      <trkpt lat="43.62492" lon="2.27823">
        <ele>189.73448</ele>
        <time>2021-10-18T11:46:41.000Z</time>
      </trkpt>
      <trkpt lat="43.62491" lon="2.27829">
        <ele>189.731259</ele>
        <time>2021-10-18T11:46:42.000Z</time>
      </trkpt>
      <trkpt lat="43.62489" lon="2.27834">
        <ele>189.727861</ele>
        <time>2021-10-18T11:46:43.000Z</time>
      </trkpt>
      <trkpt lat="43.62488" lon="2.2784">
        <ele>189.724567</ele>
        <time>2021-10-18T11:46:44.000Z</time>
      </trkpt>
      <trkpt lat="43.62486" lon="2.27846">
        <ele>189.721323</ele>
        <time>2021-10-18T11:46:45.000Z</time>
      </trkpt>
      <trkpt lat="43.62484" lon="2.27851">
        <ele>189.717993</ele>
        <time>2021-10-18T11:46:46.000Z</time>
      </trkpt>
      <trkpt lat="43.62483" lon="2.27856">
        <ele>189.714905</ele>
        <time>2021-10-18T11:46:47.000Z</time>
      </trkpt>
      <trkpt lat="43.62481" lon="2.27862">
        <ele>189.711738</ele>
        <time>2021-10-18T11:46:48.000Z</time>
      </trkpt>
      <trkpt lat="43.6248" lon="2.27867">
        <ele>189.708286</ele>
        <time>2021-10-18T11:46:49.000Z</time>
      </trkpt>
      <trkpt lat="43.62478" lon="2.27874">
        <ele>189.70451</ele>
        <time>2021-10-18T11:46:50.000Z</time>
      </trkpt>
      <trkpt lat="43.62476" lon="2.2788">
        <ele>189.700614</ele>
        <time>2021-10-18T11:46:51.000Z</time>
      </trkpt>
      <trkpt lat="43.62474" lon="2.27887">
        <ele>189.696747</ele>
        <time>2021-10-18T11:46:52.000Z</time>
      </trkpt>
      <trkpt lat="43.62472" lon="2.27893">
        <ele>189.692931</ele>
        <time>2021-10-18T11:46:53.000Z</time>
      </trkpt>
      <trkpt lat="43.6247" lon="2.27899">
        <ele>189.691087</ele>
        <time>2021-10-18T11:46:54.000Z</time>
      </trkpt>
      <trkpt lat="43.62468" lon="2.27905">
        <ele>189.695038</ele>
        <time>2021-10-18T11:46:55.000Z</time>
      </trkpt>
      <trkpt lat="43.62466" lon="2.27911">
        <ele>189.69897</ele>
        <time>2021-10-18T11:46:56.000Z</time>
      </trkpt>
      <trkpt lat="43.62465" lon="2.27917">
        <ele>189.702646</ele>
        <time>2021-10-18T11:46:57.000Z</time>
      </trkpt>
      <trkpt lat="43.62463" lon="2.27923">
        <ele>189.706369</ele>
        <time>2021-10-18T11:46:58.000Z</time>
      </trkpt>
      <trkpt lat="43.62462" lon="2.27928">
        <ele>189.709976</ele>
        <time>2021-10-18T11:46:59.000Z</time>
      </trkpt>
      <trkpt lat="43.6246" lon="2.27934">
        <ele>189.713533</ele>
        <time>2021-10-18T11:47:00.000Z</time>
      </trkpt>
      <trkpt lat="43.62459" lon="2.27939">
        <ele>189.717142</ele>
        <time>2021-10-18T11:47:01.000Z</time>
      </trkpt>
      <trkpt lat="43.62457" lon="2.27945">
        <ele>189.720692</ele>
        <time>2021-10-18T11:47:02.000Z</time>
      </trkpt>
      <trkpt lat="43.62456" lon="2.2795">
        <ele>189.72419</ele>
        <time>2021-10-18T11:47:03.000Z</time>
      </trkpt>
      <trkpt lat="43.62455" lon="2.27956">
        <ele>189.727913</ele>
        <time>2021-10-18T11:47:04.000Z</time>
      </trkpt>
      <trkpt lat="43.62453" lon="2.27962">
        <ele>189.731693</ele>
        <time>2021-10-18T11:47:05.000Z</time>
      </trkpt>
      <trkpt lat="43.62451" lon="2.27968">
        <ele>189.735536</ele>
        <time>2021-10-18T11:47:06.000Z</time>
      </trkpt>
      <trkpt lat="43.6245" lon="2.27973">
        <ele>189.739202</ele>
        <time>2021-10-18T11:47:07.000Z</time>
      </trkpt>
      <trkpt lat="43.62448" lon="2.27979">
        <ele>189.743114</ele>
        <time>2021-10-18T11:47:08.000Z</time>
      </trkpt>
      <trkpt lat="43.62445" lon="2.27985">
        <ele>189.747155</ele>
        <time>2021-10-18T11:47:09.000Z</time>
      </trkpt>
      <trkpt lat="43.62444" lon="2.27991">
        <ele>189.751087</ele>
        <time>2021-10-18T11:47:10.000Z</time>
      </trkpt>
      <trkpt lat="43.62442" lon="2.27996">
        <ele>189.75489</ele>
        <time>2021-10-18T11:47:11.000Z</time>
      </trkpt>
      <trkpt lat="43.62439" lon="2.28002">
        <ele>189.758864</ele>
        <time>2021-10-18T11:47:12.000Z</time>
      </trkpt>
      <trkpt lat="43.62437" lon="2.28008">
        <ele>189.762732</ele>
        <time>2021-10-18T11:47:13.000Z</time>
      </trkpt>
      <trkpt lat="43.62435" lon="2.28013">
        <ele>189.766652</ele>
        <time>2021-10-18T11:47:14.000Z</time>
      </trkpt>
      <trkpt lat="43.62432" lon="2.28018">
        <ele>189.770415</ele>
        <time>2021-10-18T11:47:15.000Z</time>
      </trkpt>
      <trkpt lat="43.6243" lon="2.28024">
        <ele>189.774389</ele>
        <time>2021-10-18T11:47:16.000Z</time>
      </trkpt>
      <trkpt lat="43.62428" lon="2.28029">
        <ele>189.778152</ele>
        <time>2021-10-18T11:47:17.000Z</time>
      </trkpt>
      <trkpt lat="43.62425" lon="2.28035">
        <ele>189.782051</ele>
        <time>2021-10-18T11:47:18.000Z</time>
      </trkpt>
      <trkpt lat="43.62423" lon="2.2804">
        <ele>189.785806</ele>
        <time>2021-10-18T11:47:19.000Z</time>
      </trkpt>
      <trkpt lat="43.6242" lon="2.28045">
        <ele>189.789803</ele>
        <time>2021-10-18T11:47:20.000Z</time>
      </trkpt>
      <trkpt lat="43.62417" lon="2.28051">
        <ele>189.793749</ele>
        <time>2021-10-18T11:47:21.000Z</time>
      </trkpt>
      <trkpt lat="43.62415" lon="2.28056">
        <ele>189.797548</ele>
        <time>2021-10-18T11:47:22.000Z</time>
      </trkpt>
      <trkpt lat="43.62412" lon="2.28061">
        <ele>189.801445</ele>
        <time>2021-10-18T11:47:23.000Z</time>
      </trkpt>
      <trkpt lat="43.62409" lon="2.28066">
        <ele>189.805243</ele>
        <time>2021-10-18T11:47:24.000Z</time>
      </trkpt>
      <trkpt lat="43.62407" lon="2.28071">
        <ele>189.809093</ele>
        <time>2021-10-18T11:47:25.000Z</time>
      </trkpt>
      <trkpt lat="43.62404" lon="2.28076">
        <ele>189.813047</ele>
        <time>2021-10-18T11:47:26.000Z</time>
      </trkpt>
      <trkpt lat="43.62401" lon="2.28081">
        <ele>189.816944</ele>
        <time>2021-10-18T11:47:27.000Z</time>
      </trkpt>
      <trkpt lat="43.62398" lon="2.28086">
        <ele>189.820993</ele>
        <time>2021-10-18T11:47:28.000Z</time>
      </trkpt>
      <trkpt lat="43.62395" lon="2.28091">
        <ele>189.824743</ele>
        <time>2021-10-18T11:47:29.000Z</time>
      </trkpt>
      <trkpt lat="43.62393" lon="2.28096">
        <ele>189.828542</ele>
        <time>2021-10-18T11:47:30.000Z</time>
      </trkpt>
      <trkpt lat="43.6239" lon="2.28102">
        <ele>189.832253</ele>
        <time>2021-10-18T11:47:31.000Z</time>
      </trkpt>
      <trkpt lat="43.62388" lon="2.28107">
        <ele>189.835868</ele>
        <time>2021-10-18T11:47:32.000Z</time>
      </trkpt>
      <trkpt lat="43.62386" lon="2.28112">
        <ele>189.839483</ele>
        <time>2021-10-18T11:47:33.000Z</time>
      </trkpt>
      <trkpt lat="43.62384" lon="2.28117">
        <ele>189.849682</ele>
        <time>2021-10-18T11:47:34.000Z</time>
      </trkpt>
      <trkpt lat="43.62382" lon="2.28123">
        <ele>189.867757</ele>
        <time>2021-10-18T11:47:35.000Z</time>
      </trkpt>
      <trkpt lat="43.62381" lon="2.28128">
        <ele>189.885506</ele>
        <time>2021-10-18T11:47:36.000Z</time>
      </trkpt>
      <trkpt lat="43.62379" lon="2.28134">
        <ele>189.904473</ele>
        <time>2021-10-18T11:47:37.000Z</time>
      </trkpt>
      <trkpt lat="43.62377" lon="2.28139">
        <ele>189.922452</ele>
        <time>2021-10-18T11:47:38.000Z</time>
      </trkpt>
      <trkpt lat="43.62375" lon="2.28145">
        <ele>189.941243</ele>
        <time>2021-10-18T11:47:39.000Z</time>
      </trkpt>
      <trkpt lat="43.62373" lon="2.28151">
        <ele>189.960033</ele>
        <time>2021-10-18T11:47:40.000Z</time>
      </trkpt>
      <trkpt lat="43.62371" lon="2.28156">
        <ele>189.979097</ele>
        <time>2021-10-18T11:47:41.000Z</time>
      </trkpt>
      <trkpt lat="43.62369" lon="2.28162">
        <ele>189.998707</ele>
        <time>2021-10-18T11:47:42.000Z</time>
      </trkpt>
      <trkpt lat="43.62367" lon="2.28168">
        <ele>190.017944</ele>
        <time>2021-10-18T11:47:43.000Z</time>
      </trkpt>
      <trkpt lat="43.62365" lon="2.28174">
        <ele>190.0363</ele>
        <time>2021-10-18T11:47:44.000Z</time>
      </trkpt>
      <trkpt lat="43.62364" lon="2.28179">
        <ele>190.05418</ele>
        <time>2021-10-18T11:47:45.000Z</time>
      </trkpt>
      <trkpt lat="43.62362" lon="2.28185">
        <ele>190.073471</ele>
        <time>2021-10-18T11:47:46.000Z</time>
      </trkpt>
      <trkpt lat="43.62361" lon="2.28191">
        <ele>190.092004</ele>
        <time>2021-10-18T11:47:47.000Z</time>
      </trkpt>
      <trkpt lat="43.6236" lon="2.28197">
        <ele>190.110538</ele>
        <time>2021-10-18T11:47:48.000Z</time>
      </trkpt>
      <trkpt lat="43.62359" lon="2.28204">
        <ele>190.130625</ele>
        <time>2021-10-18T11:47:49.000Z</time>
      </trkpt>
      <trkpt lat="43.62357" lon="2.2821">
        <ele>190.150132</ele>
        <time>2021-10-18T11:47:50.000Z</time>
      </trkpt>
      <trkpt lat="43.62356" lon="2.28217">
        <ele>190.169737</ele>
        <time>2021-10-18T11:47:51.000Z</time>
      </trkpt>
      <trkpt lat="43.62356" lon="2.28223">
        <ele>190.190071</ele>
        <time>2021-10-18T11:47:52.000Z</time>
      </trkpt>
      <trkpt lat="43.62355" lon="2.2823">
        <ele>190.211813</ele>
        <time>2021-10-18T11:47:53.000Z</time>
      </trkpt>
      <trkpt lat="43.62354" lon="2.28237">
        <ele>190.232442</ele>
        <time>2021-10-18T11:47:54.000Z</time>
      </trkpt>
      <trkpt lat="43.62353" lon="2.28244">
        <ele>190.253071</ele>
        <time>2021-10-18T11:47:55.000Z</time>
      </trkpt>
      <trkpt lat="43.62352" lon="2.2825">
        <ele>190.273059</ele>
        <time>2021-10-18T11:47:56.000Z</time>
      </trkpt>
      <trkpt lat="43.62351" lon="2.28257">
        <ele>190.293393</ele>
        <time>2021-10-18T11:47:57.000Z</time>
      </trkpt>
      <trkpt lat="43.6235" lon="2.28264">
        <ele>190.312841</ele>
        <time>2021-10-18T11:47:58.000Z</time>
      </trkpt>
      <trkpt lat="43.62349" lon="2.2827">
        <ele>190.332247</ele>
        <time>2021-10-18T11:47:59.000Z</time>
      </trkpt>
      <trkpt lat="43.62348" lon="2.28276">
        <ele>190.352333</ele>
        <time>2021-10-18T11:48:00.000Z</time>
      </trkpt>
      <trkpt lat="43.62347" lon="2.28283">
        <ele>190.372031</ele>
        <time>2021-10-18T11:48:01.000Z</time>
      </trkpt>
      <trkpt lat="43.62346" lon="2.28289">
        <ele>190.390959</ele>
        <time>2021-10-18T11:48:02.000Z</time>
      </trkpt>
      <trkpt lat="43.62345" lon="2.28295">
        <ele>190.410074</ele>
        <time>2021-10-18T11:48:03.000Z</time>
      </trkpt>
      <trkpt lat="43.62343" lon="2.28301">
        <ele>190.429002</ele>
        <time>2021-10-18T11:48:04.000Z</time>
      </trkpt>
      <trkpt lat="43.62342" lon="2.28307">
        <ele>190.448408</ele>
        <time>2021-10-18T11:48:05.000Z</time>
      </trkpt>
      <trkpt lat="43.62341" lon="2.28314">
        <ele>190.467814</ele>
        <time>2021-10-18T11:48:06.000Z</time>
      </trkpt>
      <trkpt lat="43.6234" lon="2.2832">
        <ele>190.486454</ele>
        <time>2021-10-18T11:48:07.000Z</time>
      </trkpt>
      <trkpt lat="43.62339" lon="2.28326">
        <ele>190.504697</ele>
        <time>2021-10-18T11:48:08.000Z</time>
      </trkpt>
      <trkpt lat="43.62338" lon="2.28332">
        <ele>190.523165</ele>
        <time>2021-10-18T11:48:09.000Z</time>
      </trkpt>
      <trkpt lat="43.62336" lon="2.28337">
        <ele>190.541044</ele>
        <time>2021-10-18T11:48:10.000Z</time>
      </trkpt>
      <trkpt lat="43.62335" lon="2.28343">
        <ele>190.558364</ele>
        <time>2021-10-18T11:48:11.000Z</time>
      </trkpt>
      <trkpt lat="43.62333" lon="2.28347">
        <ele>190.57446</ele>
        <time>2021-10-18T11:48:12.000Z</time>
      </trkpt>
      <trkpt lat="43.62331" lon="2.28352">
        <ele>190.611197</ele>
        <time>2021-10-18T11:48:13.000Z</time>
      </trkpt>
      <trkpt lat="43.6233" lon="2.28356">
        <ele>190.691002</ele>
        <time>2021-10-18T11:48:14.000Z</time>
      </trkpt>
      <trkpt lat="43.62328" lon="2.2836">
        <ele>190.766008</ele>
        <time>2021-10-18T11:48:15.000Z</time>
      </trkpt>
      <trkpt lat="43.62326" lon="2.28362">
        <ele>190.833027</ele>
        <time>2021-10-18T11:48:16.000Z</time>
      </trkpt>
      <trkpt lat="43.62324" lon="2.28365">
        <ele>190.901718</ele>
        <time>2021-10-18T11:48:17.000Z</time>
      </trkpt>
      <trkpt lat="43.62322" lon="2.28368">
        <ele>190.981714</ele>
        <time>2021-10-18T11:48:18.000Z</time>
      </trkpt>
      <trkpt lat="43.62319" lon="2.28372">
        <ele>191.071101</ele>
        <time>2021-10-18T11:48:19.000Z</time>
      </trkpt>
      <trkpt lat="43.62317" lon="2.28376">
        <ele>191.166285</ele>
        <time>2021-10-18T11:48:20.000Z</time>
      </trkpt>
      <trkpt lat="43.62314" lon="2.2838">
        <ele>191.254129</ele>
        <time>2021-10-18T11:48:21.000Z</time>
      </trkpt>
      <trkpt lat="43.62312" lon="2.28384">
        <ele>191.340627</ele>
        <time>2021-10-18T11:48:22.000Z</time>
      </trkpt>
      <trkpt lat="43.6231" lon="2.28388">
        <ele>191.431596</ele>
        <time>2021-10-18T11:48:23.000Z</time>
      </trkpt>
      <trkpt lat="43.62308" lon="2.28393">
        <ele>191.522568</ele>
        <time>2021-10-18T11:48:24.000Z</time>
      </trkpt>
      <trkpt lat="43.62306" lon="2.28397">
        <ele>191.614318</ele>
        <time>2021-10-18T11:48:25.000Z</time>
      </trkpt>
      <trkpt lat="43.62305" lon="2.28402">
        <ele>191.70627</ele>
        <time>2021-10-18T11:48:26.000Z</time>
      </trkpt>
      <trkpt lat="43.62306" lon="2.28408">
        <ele>191.797204</ele>
        <time>2021-10-18T11:48:27.000Z</time>
      </trkpt>
      <trkpt lat="43.62307" lon="2.28412">
        <ele>191.884427</ele>
        <time>2021-10-18T11:48:28.000Z</time>
      </trkpt>
      <trkpt lat="43.62308" lon="2.28416">
        <ele>191.960955</ele>
        <time>2021-10-18T11:48:29.000Z</time>
      </trkpt>
      <trkpt lat="43.62311" lon="2.28419">
        <ele>192.032428</ele>
        <time>2021-10-18T11:48:30.000Z</time>
      </trkpt>
      <trkpt lat="43.62314" lon="2.2842">
        <ele>192.109638</ele>
        <time>2021-10-18T11:48:31.000Z</time>
      </trkpt>
      <trkpt lat="43.62317" lon="2.2842">
        <ele>192.184928</ele>
        <time>2021-10-18T11:48:32.000Z</time>
      </trkpt>
      <trkpt lat="43.6232" lon="2.28421">
        <ele>192.255429</ele>
        <time>2021-10-18T11:48:33.000Z</time>
      </trkpt>
      <trkpt lat="43.62323" lon="2.28422">
        <ele>192.32615</ele>
        <time>2021-10-18T11:48:34.000Z</time>
      </trkpt>
      <trkpt lat="43.62326" lon="2.28424">
        <ele>192.405962</ele>
        <time>2021-10-18T11:48:35.000Z</time>
      </trkpt>
      <trkpt lat="43.62328" lon="2.28427">
        <ele>192.48145</ele>
        <time>2021-10-18T11:48:36.000Z</time>
      </trkpt>
      <trkpt lat="43.6233" lon="2.2843">
        <ele>192.563137</ele>
        <time>2021-10-18T11:48:37.000Z</time>
      </trkpt>
      <trkpt lat="43.62332" lon="2.28433">
        <ele>192.633082</ele>
        <time>2021-10-18T11:48:38.000Z</time>
      </trkpt>
      <trkpt lat="43.62334" lon="2.28436">
        <ele>192.702292</ele>
        <time>2021-10-18T11:48:39.000Z</time>
      </trkpt>
      <trkpt lat="43.62335" lon="2.2844">
        <ele>192.771261</ele>
        <time>2021-10-18T11:48:40.000Z</time>
      </trkpt>
      <trkpt lat="43.62335" lon="2.28444">
        <ele>192.845413</ele>
        <time>2021-10-18T11:48:41.000Z</time>
      </trkpt>
      <trkpt lat="43.62336" lon="2.28448">
        <ele>192.916747</ele>
        <time>2021-10-18T11:48:42.000Z</time>
      </trkpt>
      <trkpt lat="43.62336" lon="2.28452">
        <ele>192.981538</ele>
        <time>2021-10-18T11:48:43.000Z</time>
      </trkpt>
      <trkpt lat="43.62335" lon="2.28456">
        <ele>193.047299</ele>
        <time>2021-10-18T11:48:44.000Z</time>
      </trkpt>
      <trkpt lat="43.62334" lon="2.28459">
        <ele>193.118085</ele>
        <time>2021-10-18T11:48:45.000Z</time>
      </trkpt>
      <trkpt lat="43.62333" lon="2.28464">
        <ele>193.196249</ele>
        <time>2021-10-18T11:48:46.000Z</time>
      </trkpt>
      <trkpt lat="43.62331" lon="2.28468">
        <ele>193.278032</ele>
        <time>2021-10-18T11:48:47.000Z</time>
      </trkpt>
      <trkpt lat="43.6233" lon="2.28472">
        <ele>193.361386</ele>
        <time>2021-10-18T11:48:48.000Z</time>
      </trkpt>
      <trkpt lat="43.62329" lon="2.28477">
        <ele>193.446917</ele>
        <time>2021-10-18T11:48:49.000Z</time>
      </trkpt>
      <trkpt lat="43.62327" lon="2.28481">
        <ele>193.53315</ele>
        <time>2021-10-18T11:48:50.000Z</time>
      </trkpt>
      <trkpt lat="43.62326" lon="2.28486">
        <ele>193.616139</ele>
        <time>2021-10-18T11:48:51.000Z</time>
      </trkpt>
      <trkpt lat="43.62325" lon="2.2849">
        <ele>193.695983</ele>
        <time>2021-10-18T11:48:52.000Z</time>
      </trkpt>
      <trkpt lat="43.62324" lon="2.28494">
        <ele>193.775623</ele>
        <time>2021-10-18T11:48:53.000Z</time>
      </trkpt>
      <trkpt lat="43.62323" lon="2.28499">
        <ele>193.857825</ele>
        <time>2021-10-18T11:48:54.000Z</time>
      </trkpt>
      <trkpt lat="43.62322" lon="2.28503">
        <ele>193.939053</ele>
        <time>2021-10-18T11:48:55.000Z</time>
      </trkpt>
      <trkpt lat="43.62321" lon="2.28508">
        <ele>194.026083</ele>
        <time>2021-10-18T11:48:56.000Z</time>
      </trkpt>
      <trkpt lat="43.6232" lon="2.28513">
        <ele>194.114004</ele>
        <time>2021-10-18T11:48:57.000Z</time>
      </trkpt>
      <trkpt lat="43.62319" lon="2.28518">
        <ele>194.203499</ele>
        <time>2021-10-18T11:48:58.000Z</time>
      </trkpt>
      <trkpt lat="43.62318" lon="2.28522">
        <ele>194.286488</ele>
        <time>2021-10-18T11:48:59.000Z</time>
      </trkpt>
      <trkpt lat="43.62317" lon="2.28526">
        <ele>194.366333</ele>
        <time>2021-10-18T11:49:00.000Z</time>
      </trkpt>
      <trkpt lat="43.62316" lon="2.28531">
        <ele>194.454253</ele>
        <time>2021-10-18T11:49:01.000Z</time>
      </trkpt>
      <trkpt lat="43.62314" lon="2.28536">
        <ele>194.54551</ele>
        <time>2021-10-18T11:49:02.000Z</time>
      </trkpt>
      <trkpt lat="43.62314" lon="2.28542">
        <ele>194.641763</ele>
        <time>2021-10-18T11:49:03.000Z</time>
      </trkpt>
      <trkpt lat="43.62313" lon="2.28547">
        <ele>194.744777</ele>
        <time>2021-10-18T11:49:04.000Z</time>
      </trkpt>
      <trkpt lat="43.62312" lon="2.28553">
        <ele>194.845736</ele>
        <time>2021-10-18T11:49:05.000Z</time>
      </trkpt>
      <trkpt lat="43.62311" lon="2.28559">
        <ele>194.939871</ele>
        <time>2021-10-18T11:49:06.000Z</time>
      </trkpt>
      <trkpt lat="43.6231" lon="2.28564">
        <ele>195.013622</ele>
        <time>2021-10-18T11:49:07.000Z</time>
      </trkpt>
      <trkpt lat="43.62309" lon="2.2857">
        <ele>195.083326</ele>
        <time>2021-10-18T11:49:08.000Z</time>
      </trkpt>
      <trkpt lat="43.62308" lon="2.28575">
        <ele>195.152199</ele>
        <time>2021-10-18T11:49:09.000Z</time>
      </trkpt>
      <trkpt lat="43.62308" lon="2.2858">
        <ele>195.216916</ele>
        <time>2021-10-18T11:49:10.000Z</time>
      </trkpt>
      <trkpt lat="43.62307" lon="2.28585">
        <ele>195.284573</ele>
        <time>2021-10-18T11:49:11.000Z</time>
      </trkpt>
      <trkpt lat="43.62306" lon="2.2859">
        <ele>195.348044</ele>
        <time>2021-10-18T11:49:12.000Z</time>
      </trkpt>
      <trkpt lat="43.62306" lon="2.28595">
        <ele>195.412436</ele>
        <time>2021-10-18T11:49:13.000Z</time>
      </trkpt>
      <trkpt lat="43.62305" lon="2.28601">
        <ele>195.47771</ele>
        <time>2021-10-18T11:49:14.000Z</time>
      </trkpt>
      <trkpt lat="43.62304" lon="2.28606">
        <ele>195.544559</ele>
        <time>2021-10-18T11:49:15.000Z</time>
      </trkpt>
      <trkpt lat="43.62303" lon="2.28611">
        <ele>195.60895</ele>
        <time>2021-10-18T11:49:16.000Z</time>
      </trkpt>
      <trkpt lat="43.62302" lon="2.28616">
        <ele>195.678282</ele>
        <time>2021-10-18T11:49:17.000Z</time>
      </trkpt>
      <trkpt lat="43.62302" lon="2.28621">
        <ele>195.744792</ele>
        <time>2021-10-18T11:49:18.000Z</time>
      </trkpt>
      <trkpt lat="43.62301" lon="2.28626">
        <ele>195.811641</ele>
        <time>2021-10-18T11:49:19.000Z</time>
      </trkpt>
      <trkpt lat="43.623" lon="2.28631">
        <ele>195.87643</ele>
        <time>2021-10-18T11:49:20.000Z</time>
      </trkpt>
      <trkpt lat="43.62299" lon="2.28637">
        <ele>195.943347</ele>
        <time>2021-10-18T11:49:21.000Z</time>
      </trkpt>
      <trkpt lat="43.62298" lon="2.28642">
        <ele>196.013438</ele>
        <time>2021-10-18T11:49:22.000Z</time>
      </trkpt>
      <trkpt lat="43.62297" lon="2.28647">
        <ele>196.083119</ele>
        <time>2021-10-18T11:49:23.000Z</time>
      </trkpt>
      <trkpt lat="43.62296" lon="2.28653">
        <ele>196.15366</ele>
        <time>2021-10-18T11:49:24.000Z</time>
      </trkpt>
      <trkpt lat="43.62295" lon="2.28658">
        <ele>196.225412</ele>
        <time>2021-10-18T11:49:25.000Z</time>
      </trkpt>
      <trkpt lat="43.62294" lon="2.28664">
        <ele>196.295093</ele>
        <time>2021-10-18T11:49:26.000Z</time>
      </trkpt>
      <trkpt lat="43.62292" lon="2.28669">
        <ele>196.36722</ele>
        <time>2021-10-18T11:49:27.000Z</time>
      </trkpt>
      <trkpt lat="43.62292" lon="2.28674">
        <ele>196.430385</ele>
        <time>2021-10-18T11:49:28.000Z</time>
      </trkpt>
      <trkpt lat="43.62291" lon="2.28679">
        <ele>196.491098</ele>
        <time>2021-10-18T11:49:29.000Z</time>
      </trkpt>
      <trkpt lat="43.6229" lon="2.28683">
        <ele>196.55441</ele>
        <time>2021-10-18T11:49:30.000Z</time>
      </trkpt>
      <trkpt lat="43.62289" lon="2.28689">
        <ele>196.621327</ele>
        <time>2021-10-18T11:49:31.000Z</time>
      </trkpt>
      <trkpt lat="43.62288" lon="2.28694">
        <ele>196.686947</ele>
        <time>2021-10-18T11:49:32.000Z</time>
      </trkpt>
      <trkpt lat="43.62287" lon="2.28699">
        <ele>196.75192</ele>
        <time>2021-10-18T11:49:33.000Z</time>
      </trkpt>
      <trkpt lat="43.62287" lon="2.28704">
        <ele>196.817884</ele>
        <time>2021-10-18T11:49:34.000Z</time>
      </trkpt>
      <trkpt lat="43.62286" lon="2.28709">
        <ele>196.885341</ele>
        <time>2021-10-18T11:49:35.000Z</time>
      </trkpt>
      <trkpt lat="43.62286" lon="2.28714">
        <ele>196.948239</ele>
        <time>2021-10-18T11:49:36.000Z</time>
      </trkpt>
      <trkpt lat="43.62286" lon="2.28719">
        <ele>197.002755</ele>
        <time>2021-10-18T11:49:37.000Z</time>
      </trkpt>
      <trkpt lat="43.62285" lon="2.28722">
        <ele>197.048323</ele>
        <time>2021-10-18T11:49:38.000Z</time>
      </trkpt>
      <trkpt lat="43.62285" lon="2.28726">
        <ele>197.097396</ele>
        <time>2021-10-18T11:49:39.000Z</time>
      </trkpt>
      <trkpt lat="43.62285" lon="2.2873">
        <ele>197.14907</ele>
        <time>2021-10-18T11:49:40.000Z</time>
      </trkpt>
      <trkpt lat="43.62285" lon="2.28735">
        <ele>197.204426</ele>
        <time>2021-10-18T11:49:41.000Z</time>
      </trkpt>
      <trkpt lat="43.62285" lon="2.28739">
        <ele>197.26</ele>
        <time>2021-10-18T11:49:42.000Z</time>
      </trkpt>
      <trkpt lat="43.62284" lon="2.28743">
        <ele>197.3141</ele>
        <time>2021-10-18T11:49:43.000Z</time>
      </trkpt>
      <trkpt lat="43.62284" lon="2.28748">
        <ele>197.368616</ele>
        <time>2021-10-18T11:49:44.000Z</time>
      </trkpt>
      <trkpt lat="43.62284" lon="2.28752">
        <ele>197.423133</ele>
        <time>2021-10-18T11:49:45.000Z</time>
      </trkpt>
      <trkpt lat="43.62283" lon="2.28756">
        <ele>197.477649</ele>
        <time>2021-10-18T11:49:46.000Z</time>
      </trkpt>
      <trkpt lat="43.62283" lon="2.28761">
        <ele>197.534299</ele>
        <time>2021-10-18T11:49:47.000Z</time>
      </trkpt>
      <trkpt lat="43.62282" lon="2.28764">
        <ele>197.583831</ele>
        <time>2021-10-18T11:49:48.000Z</time>
      </trkpt>
      <trkpt lat="43.62282" lon="2.28769">
        <ele>197.6371</ele>
        <time>2021-10-18T11:49:49.000Z</time>
      </trkpt>
      <trkpt lat="43.62281" lon="2.28773">
        <ele>197.690369</ele>
        <time>2021-10-18T11:49:50.000Z</time>
      </trkpt>
      <trkpt lat="43.62281" lon="2.28777">
        <ele>197.74344</ele>
        <time>2021-10-18T11:49:51.000Z</time>
      </trkpt>
      <trkpt lat="43.62281" lon="2.28781">
        <ele>197.799204</ele>
        <time>2021-10-18T11:49:52.000Z</time>
      </trkpt>
      <trkpt lat="43.6228" lon="2.28786">
        <ele>197.851227</ele>
        <time>2021-10-18T11:49:53.000Z</time>
      </trkpt>
      <trkpt lat="43.6228" lon="2.28789">
        <ele>197.89827</ele>
        <time>2021-10-18T11:49:54.000Z</time>
      </trkpt>
      <trkpt lat="43.62279" lon="2.28793">
        <ele>197.947178</ele>
        <time>2021-10-18T11:49:55.000Z</time>
      </trkpt>
      <trkpt lat="43.62278" lon="2.28797">
        <ele>198.003048</ele>
        <time>2021-10-18T11:49:56.000Z</time>
      </trkpt>
      <trkpt lat="43.62277" lon="2.28801">
        <ele>198.048476</ele>
        <time>2021-10-18T11:49:57.000Z</time>
      </trkpt>
      <trkpt lat="43.62276" lon="2.28805">
        <ele>198.045651</ele>
        <time>2021-10-18T11:49:58.000Z</time>
      </trkpt>
      <trkpt lat="43.62275" lon="2.28808">
        <ele>198.042994</ele>
        <time>2021-10-18T11:49:59.000Z</time>
      </trkpt>
      <trkpt lat="43.62274" lon="2.28811">
        <ele>198.040483</ele>
        <time>2021-10-18T11:50:00.000Z</time>
      </trkpt>
      <trkpt lat="43.62272" lon="2.28815">
        <ele>198.037618</ele>
        <time>2021-10-18T11:50:01.000Z</time>
      </trkpt>
      <trkpt lat="43.6227" lon="2.28819">
        <ele>198.033884</ele>
        <time>2021-10-18T11:50:02.000Z</time>
      </trkpt>
      <trkpt lat="43.62267" lon="2.28823">
        <ele>198.030256</ele>
        <time>2021-10-18T11:50:03.000Z</time>
      </trkpt>
      <trkpt lat="43.62265" lon="2.28826">
        <ele>198.027204</ele>
        <time>2021-10-18T11:50:04.000Z</time>
      </trkpt>
      <trkpt lat="43.62263" lon="2.2883">
        <ele>198.024079</ele>
        <time>2021-10-18T11:50:05.000Z</time>
      </trkpt>
      <trkpt lat="43.62261" lon="2.28834">
        <ele>198.020514</ele>
        <time>2021-10-18T11:50:06.000Z</time>
      </trkpt>
      <trkpt lat="43.62258" lon="2.28838">
        <ele>198.016549</ele>
        <time>2021-10-18T11:50:07.000Z</time>
      </trkpt>
      <trkpt lat="43.62255" lon="2.28843">
        <ele>198.011952</ele>
        <time>2021-10-18T11:50:08.000Z</time>
      </trkpt>
      <trkpt lat="43.62252" lon="2.28848">
        <ele>198.007471</ele>
        <time>2021-10-18T11:50:09.000Z</time>
      </trkpt>
      <trkpt lat="43.6225" lon="2.28853">
        <ele>198.003553</ele>
        <time>2021-10-18T11:50:10.000Z</time>
      </trkpt>
      <trkpt lat="43.62248" lon="2.28858">
        <ele>197.999526</ele>
        <time>2021-10-18T11:50:11.000Z</time>
      </trkpt>
      <trkpt lat="43.62246" lon="2.28863">
        <ele>197.995432</ele>
        <time>2021-10-18T11:50:12.000Z</time>
      </trkpt>
      <trkpt lat="43.62245" lon="2.28869">
        <ele>197.990908</ele>
        <time>2021-10-18T11:50:13.000Z</time>
      </trkpt>
      <trkpt lat="43.62244" lon="2.28876">
        <ele>197.986178</ele>
        <time>2021-10-18T11:50:14.000Z</time>
      </trkpt>
      <trkpt lat="43.62243" lon="2.28883">
        <ele>197.981168</ele>
        <time>2021-10-18T11:50:15.000Z</time>
      </trkpt>
      <trkpt lat="43.62242" lon="2.2889">
        <ele>197.97611</ele>
        <time>2021-10-18T11:50:16.000Z</time>
      </trkpt>
      <trkpt lat="43.6224" lon="2.28897">
        <ele>197.970828</ele>
        <time>2021-10-18T11:50:17.000Z</time>
      </trkpt>
      <trkpt lat="43.62239" lon="2.28904">
        <ele>197.965994</ele>
        <time>2021-10-18T11:50:18.000Z</time>
      </trkpt>
      <trkpt lat="43.62239" lon="2.28911">
        <ele>197.961486</ele>
        <time>2021-10-18T11:50:19.000Z</time>
      </trkpt>
      <trkpt lat="43.62238" lon="2.28917">
        <ele>197.957366</ele>
        <time>2021-10-18T11:50:20.000Z</time>
      </trkpt>
      <trkpt lat="43.62238" lon="2.28923">
        <ele>197.952904</ele>
        <time>2021-10-18T11:50:21.000Z</time>
      </trkpt>
      <trkpt lat="43.62237" lon="2.2893">
        <ele>197.948164</ele>
        <time>2021-10-18T11:50:22.000Z</time>
      </trkpt>
      <trkpt lat="43.62236" lon="2.28936">
        <ele>197.943649</ele>
        <time>2021-10-18T11:50:23.000Z</time>
      </trkpt>
      <trkpt lat="43.62235" lon="2.28942">
        <ele>197.939487</ele>
        <time>2021-10-18T11:50:24.000Z</time>
      </trkpt>
      <trkpt lat="43.62233" lon="2.28947">
        <ele>197.935162</ele>
        <time>2021-10-18T11:50:25.000Z</time>
      </trkpt>
      <trkpt lat="43.62232" lon="2.28953">
        <ele>197.931065</ele>
        <time>2021-10-18T11:50:26.000Z</time>
      </trkpt>
      <trkpt lat="43.6223" lon="2.28959">
        <ele>197.92682</ele>
        <time>2021-10-18T11:50:27.000Z</time>
      </trkpt>
      <trkpt lat="43.62228" lon="2.28964">
        <ele>197.922742</ele>
        <time>2021-10-18T11:50:28.000Z</time>
      </trkpt>
      <trkpt lat="43.62227" lon="2.28969">
        <ele>197.918807</ele>
        <time>2021-10-18T11:50:29.000Z</time>
      </trkpt>
      <trkpt lat="43.62225" lon="2.28974">
        <ele>197.915432</ele>
        <time>2021-10-18T11:50:30.000Z</time>
      </trkpt>
      <trkpt lat="43.62224" lon="2.28978">
        <ele>197.912386</ele>
        <time>2021-10-18T11:50:31.000Z</time>
      </trkpt>
      <trkpt lat="43.62222" lon="2.28982">
        <ele>197.909111</ele>
        <time>2021-10-18T11:50:32.000Z</time>
      </trkpt>
      <trkpt lat="43.6222" lon="2.28985">
        <ele>197.90606</ele>
        <time>2021-10-18T11:50:33.000Z</time>
      </trkpt>
      <trkpt lat="43.62218" lon="2.28988">
        <ele>197.902898</ele>
        <time>2021-10-18T11:50:34.000Z</time>
      </trkpt>
      <trkpt lat="43.62215" lon="2.28991">
        <ele>197.899887</ele>
        <time>2021-10-18T11:50:35.000Z</time>
      </trkpt>
      <trkpt lat="43.62213" lon="2.28992">
        <ele>197.897352</ele>
        <time>2021-10-18T11:50:36.000Z</time>
      </trkpt>
      <trkpt lat="43.6221" lon="2.28993">
        <ele>197.894736</ele>
        <time>2021-10-18T11:50:37.000Z</time>
      </trkpt>
      <trkpt lat="43.62208" lon="2.28994">
        <ele>197.892563</ele>
        <time>2021-10-18T11:50:38.000Z</time>
      </trkpt>
      <trkpt lat="43.62206" lon="2.28994">
        <ele>197.890723</ele>
        <time>2021-10-18T11:50:39.000Z</time>
      </trkpt>
      <trkpt lat="43.62204" lon="2.28994">
        <ele>197.888986</ele>
        <time>2021-10-18T11:50:40.000Z</time>
      </trkpt>
      <trkpt lat="43.62203" lon="2.28994">
        <ele>197.887639</ele>
        <time>2021-10-18T11:50:41.000Z</time>
      </trkpt>
      <trkpt lat="43.622" lon="2.28993">
        <ele>197.884559</ele>
        <time>2021-10-18T11:50:51.000Z</time>
      </trkpt>
      <trkpt lat="43.62199" lon="2.28992">
        <ele>197.882918</ele>
        <time>2021-10-18T11:50:52.000Z</time>
      </trkpt>
      <trkpt lat="43.62198" lon="2.28989">
        <ele>197.880717</ele>
        <time>2021-10-18T11:50:53.000Z</time>
      </trkpt>
      <trkpt lat="43.62196" lon="2.28985">
        <ele>197.877884</ele>
        <time>2021-10-18T11:50:54.000Z</time>
      </trkpt>
      <trkpt lat="43.62195" lon="2.28981">
        <ele>197.8704</ele>
        <time>2021-10-18T11:50:55.000Z</time>
      </trkpt>
      <trkpt lat="43.62193" lon="2.28977">
        <ele>197.85235</ele>
        <time>2021-10-18T11:50:56.000Z</time>
      </trkpt>
      <trkpt lat="43.62191" lon="2.28971">
        <ele>197.831657</ele>
        <time>2021-10-18T11:50:57.000Z</time>
      </trkpt>
      <trkpt lat="43.62189" lon="2.28966">
        <ele>197.811427</ele>
        <time>2021-10-18T11:50:58.000Z</time>
      </trkpt>
      <trkpt lat="43.62186" lon="2.28961">
        <ele>197.790438</ele>
        <time>2021-10-18T11:50:59.000Z</time>
      </trkpt>
      <trkpt lat="43.62185" lon="2.28956">
        <ele>197.770426</ele>
        <time>2021-10-18T11:51:00.000Z</time>
      </trkpt>
      <trkpt lat="43.62183" lon="2.2895">
        <ele>197.749587</ele>
        <time>2021-10-18T11:51:01.000Z</time>
      </trkpt>
      <trkpt lat="43.6218" lon="2.28945">
        <ele>197.728597</ele>
        <time>2021-10-18T11:51:02.000Z</time>
      </trkpt>
      <trkpt lat="43.62178" lon="2.28939">
        <ele>197.707349</ele>
        <time>2021-10-18T11:51:03.000Z</time>
      </trkpt>
      <trkpt lat="43.62176" lon="2.28933">
        <ele>197.684762</ele>
        <time>2021-10-18T11:51:04.000Z</time>
      </trkpt>
      <trkpt lat="43.62174" lon="2.28927">
        <ele>197.661865</ele>
        <time>2021-10-18T11:51:05.000Z</time>
      </trkpt>
      <trkpt lat="43.62172" lon="2.28922">
        <ele>197.63968</ele>
        <time>2021-10-18T11:51:06.000Z</time>
      </trkpt>
      <trkpt lat="43.6217" lon="2.28916">
        <ele>197.618121</ele>
        <time>2021-10-18T11:51:07.000Z</time>
      </trkpt>
      <trkpt lat="43.62168" lon="2.2891">
        <ele>197.595739</ele>
        <time>2021-10-18T11:51:08.000Z</time>
      </trkpt>
      <trkpt lat="43.62166" lon="2.28904">
        <ele>197.573319</ele>
        <time>2021-10-18T11:51:09.000Z</time>
      </trkpt>
      <trkpt lat="43.62164" lon="2.28899">
        <ele>197.553</ele>
        <time>2021-10-18T11:51:10.000Z</time>
      </trkpt>
      <trkpt lat="43.62162" lon="2.28893">
        <ele>197.530581</ele>
        <time>2021-10-18T11:51:11.000Z</time>
      </trkpt>
      <trkpt lat="43.6216" lon="2.28888">
        <ele>197.509021</ele>
        <time>2021-10-18T11:51:12.000Z</time>
      </trkpt>
      <trkpt lat="43.62158" lon="2.28882">
        <ele>197.485914</ele>
        <time>2021-10-18T11:51:13.000Z</time>
      </trkpt>
      <trkpt lat="43.62156" lon="2.28876">
        <ele>197.463018</ele>
        <time>2021-10-18T11:51:14.000Z</time>
      </trkpt>
      <trkpt lat="43.62153" lon="2.28869">
        <ele>197.438698</ele>
        <time>2021-10-18T11:51:15.000Z</time>
      </trkpt>
      <trkpt lat="43.62151" lon="2.28863">
        <ele>197.415068</ele>
        <time>2021-10-18T11:51:16.000Z</time>
      </trkpt>
      <trkpt lat="43.62149" lon="2.28857">
        <ele>197.391961</ele>
        <time>2021-10-18T11:51:17.000Z</time>
      </trkpt>
      <trkpt lat="43.62147" lon="2.28851">
        <ele>197.369579</ele>
        <time>2021-10-18T11:51:18.000Z</time>
      </trkpt>
      <trkpt lat="43.62145" lon="2.28846">
        <ele>197.347606</ele>
        <time>2021-10-18T11:51:19.000Z</time>
      </trkpt>
      <trkpt lat="43.62143" lon="2.2884">
        <ele>197.32596</ele>
        <time>2021-10-18T11:51:20.000Z</time>
      </trkpt>
      <trkpt lat="43.62141" lon="2.28834">
        <ele>197.304088</ele>
        <time>2021-10-18T11:51:21.000Z</time>
      </trkpt>
      <trkpt lat="43.62139" lon="2.28828">
        <ele>197.282217</ele>
        <time>2021-10-18T11:51:22.000Z</time>
      </trkpt>
      <trkpt lat="43.62137" lon="2.28822">
        <ele>197.259834</ele>
        <time>2021-10-18T11:51:23.000Z</time>
      </trkpt>
      <trkpt lat="43.62135" lon="2.28816">
        <ele>197.236938</ele>
        <time>2021-10-18T11:51:24.000Z</time>
      </trkpt>
      <trkpt lat="43.62133" lon="2.2881">
        <ele>197.214647</ele>
        <time>2021-10-18T11:51:25.000Z</time>
      </trkpt>
      <trkpt lat="43.62132" lon="2.28804">
        <ele>197.192147</ele>
        <time>2021-10-18T11:51:26.000Z</time>
      </trkpt>
      <trkpt lat="43.6213" lon="2.28798">
        <ele>197.169333</ele>
        <time>2021-10-18T11:51:27.000Z</time>
      </trkpt>
      <trkpt lat="43.62128" lon="2.28792">
        <ele>197.146013</ele>
        <time>2021-10-18T11:51:28.000Z</time>
      </trkpt>
      <trkpt lat="43.62126" lon="2.28786">
        <ele>197.124016</ele>
        <time>2021-10-18T11:51:29.000Z</time>
      </trkpt>
      <trkpt lat="43.62124" lon="2.2878">
        <ele>197.103012</ele>
        <time>2021-10-18T11:51:30.000Z</time>
      </trkpt>
      <trkpt lat="43.62122" lon="2.28775">
        <ele>197.081141</ele>
        <time>2021-10-18T11:51:31.000Z</time>
      </trkpt>
      <trkpt lat="43.62121" lon="2.28769">
        <ele>197.05946</ele>
        <time>2021-10-18T11:51:32.000Z</time>
      </trkpt>
      <trkpt lat="43.62119" lon="2.28763">
        <ele>197.03828</ele>
        <time>2021-10-18T11:51:33.000Z</time>
      </trkpt>
      <trkpt lat="43.62117" lon="2.28757">
        <ele>197.027457</ele>
        <time>2021-10-18T11:51:34.000Z</time>
      </trkpt>
      <trkpt lat="43.62116" lon="2.28752">
        <ele>197.046634</ele>
        <time>2021-10-18T11:51:35.000Z</time>
      </trkpt>
      <trkpt lat="43.62114" lon="2.28747">
        <ele>197.065963</ele>
        <time>2021-10-18T11:51:36.000Z</time>
      </trkpt>
      <trkpt lat="43.62113" lon="2.28741">
        <ele>197.084035</ele>
        <time>2021-10-18T11:51:37.000Z</time>
      </trkpt>
      <trkpt lat="43.62111" lon="2.28736">
        <ele>197.103213</ele>
        <time>2021-10-18T11:51:38.000Z</time>
      </trkpt>
      <trkpt lat="43.6211" lon="2.28731">
        <ele>197.122071</ele>
        <time>2021-10-18T11:51:39.000Z</time>
      </trkpt>
      <trkpt lat="43.62108" lon="2.28726">
        <ele>197.141617</ele>
        <time>2021-10-18T11:51:40.000Z</time>
      </trkpt>
      <trkpt lat="43.62106" lon="2.28721">
        <ele>197.161555</ele>
        <time>2021-10-18T11:51:41.000Z</time>
      </trkpt>
      <trkpt lat="43.62102" lon="2.28717">
        <ele>197.181129</ele>
        <time>2021-10-18T11:51:42.000Z</time>
      </trkpt>
      <trkpt lat="43.62098" lon="2.28716">
        <ele>197.201695</ele>
        <time>2021-10-18T11:51:43.000Z</time>
      </trkpt>
      <trkpt lat="43.62094" lon="2.28717">
        <ele>197.221021</ele>
        <time>2021-10-18T11:51:44.000Z</time>
      </trkpt>
      <trkpt lat="43.6209" lon="2.28719">
        <ele>197.2416</ele>
        <time>2021-10-18T11:51:45.000Z</time>
      </trkpt>
      <trkpt lat="43.62087" lon="2.28723">
        <ele>197.260453</ele>
        <time>2021-10-18T11:51:46.000Z</time>
      </trkpt>
      <trkpt lat="43.62084" lon="2.28727">
        <ele>197.27977</ele>
        <time>2021-10-18T11:51:47.000Z</time>
      </trkpt>
      <trkpt lat="43.62081" lon="2.28732">
        <ele>197.299438</ele>
        <time>2021-10-18T11:51:48.000Z</time>
      </trkpt>
      <trkpt lat="43.62079" lon="2.28737">
        <ele>197.319156</ele>
        <time>2021-10-18T11:51:49.000Z</time>
      </trkpt>
      <trkpt lat="43.62077" lon="2.28742">
        <ele>197.338884</ele>
        <time>2021-10-18T11:51:50.000Z</time>
      </trkpt>
      <trkpt lat="43.62076" lon="2.28748">
        <ele>197.359801</ele>
        <time>2021-10-18T11:51:51.000Z</time>
      </trkpt>
      <trkpt lat="43.62074" lon="2.28754">
        <ele>197.381367</ele>
        <time>2021-10-18T11:51:52.000Z</time>
      </trkpt>
      <trkpt lat="43.62073" lon="2.2876">
        <ele>197.40332</ele>
        <time>2021-10-18T11:51:53.000Z</time>
      </trkpt>
      <trkpt lat="43.62072" lon="2.28766">
        <ele>197.42567</ele>
        <time>2021-10-18T11:51:54.000Z</time>
      </trkpt>
      <trkpt lat="43.62071" lon="2.28773">
        <ele>197.447734</ele>
        <time>2021-10-18T11:51:55.000Z</time>
      </trkpt>
      <trkpt lat="43.6207" lon="2.28779">
        <ele>197.468958</ele>
        <time>2021-10-18T11:51:56.000Z</time>
      </trkpt>
      <trkpt lat="43.62069" lon="2.28786">
        <ele>197.491177</ele>
        <time>2021-10-18T11:51:57.000Z</time>
      </trkpt>
      <trkpt lat="43.62068" lon="2.28792">
        <ele>197.514001</ele>
        <time>2021-10-18T11:51:58.000Z</time>
      </trkpt>
      <trkpt lat="43.62067" lon="2.28799">
        <ele>197.536634</ele>
        <time>2021-10-18T11:51:59.000Z</time>
      </trkpt>
      <trkpt lat="43.62066" lon="2.28805">
        <ele>197.558369</ele>
        <time>2021-10-18T11:52:00.000Z</time>
      </trkpt>
      <trkpt lat="43.62065" lon="2.28811">
        <ele>197.580009</ele>
        <time>2021-10-18T11:52:01.000Z</time>
      </trkpt>
      <trkpt lat="43.62064" lon="2.28817">
        <ele>197.601194</ele>
        <time>2021-10-18T11:52:02.000Z</time>
      </trkpt>
      <trkpt lat="43.62063" lon="2.28824">
        <ele>197.623034</ele>
        <time>2021-10-18T11:52:03.000Z</time>
      </trkpt>
      <trkpt lat="43.62062" lon="2.2883">
        <ele>197.645586</ele>
        <time>2021-10-18T11:52:04.000Z</time>
      </trkpt>
      <trkpt lat="43.62061" lon="2.28837">
        <ele>197.668845</ele>
        <time>2021-10-18T11:52:05.000Z</time>
      </trkpt>
      <trkpt lat="43.6206" lon="2.28844">
        <ele>197.692326</ele>
        <time>2021-10-18T11:52:06.000Z</time>
      </trkpt>
      <trkpt lat="43.62059" lon="2.28851">
        <ele>197.715807</ele>
        <time>2021-10-18T11:52:07.000Z</time>
      </trkpt>
      <trkpt lat="43.62058" lon="2.28857">
        <ele>197.738027</ele>
        <time>2021-10-18T11:52:08.000Z</time>
      </trkpt>
      <trkpt lat="43.62057" lon="2.28864">
        <ele>197.760194</ele>
        <time>2021-10-18T11:52:09.000Z</time>
      </trkpt>
      <trkpt lat="43.62056" lon="2.2887">
        <ele>197.781086</ele>
        <time>2021-10-18T11:52:10.000Z</time>
      </trkpt>
      <trkpt lat="43.62055" lon="2.28876">
        <ele>197.802598</ele>
        <time>2021-10-18T11:52:11.000Z</time>
      </trkpt>
      <trkpt lat="43.62054" lon="2.28882">
        <ele>197.824078</ele>
        <time>2021-10-18T11:52:12.000Z</time>
      </trkpt>
      <trkpt lat="43.62053" lon="2.28889">
        <ele>197.846711</ele>
        <time>2021-10-18T11:52:13.000Z</time>
      </trkpt>
      <trkpt lat="43.62052" lon="2.28895">
        <ele>197.839989</ele>
        <time>2021-10-18T11:52:14.000Z</time>
      </trkpt>
      <trkpt lat="43.62051" lon="2.28901">
        <ele>197.795405</ele>
        <time>2021-10-18T11:52:15.000Z</time>
      </trkpt>
      <trkpt lat="43.6205" lon="2.28908">
        <ele>197.75208</ele>
        <time>2021-10-18T11:52:16.000Z</time>
      </trkpt>
      <trkpt lat="43.62049" lon="2.28914">
        <ele>197.708165</ele>
        <time>2021-10-18T11:52:17.000Z</time>
      </trkpt>
      <trkpt lat="43.62049" lon="2.2892">
        <ele>197.663637</ele>
        <time>2021-10-18T11:52:18.000Z</time>
      </trkpt>
      <trkpt lat="43.62048" lon="2.28927">
        <ele>197.616758</ele>
        <time>2021-10-18T11:52:19.000Z</time>
      </trkpt>
      <trkpt lat="43.62047" lon="2.28934">
        <ele>197.567939</ele>
        <time>2021-10-18T11:52:20.000Z</time>
      </trkpt>
      <trkpt lat="43.62045" lon="2.28941">
        <ele>197.519333</ele>
        <time>2021-10-18T11:52:21.000Z</time>
      </trkpt>
      <trkpt lat="43.62044" lon="2.28948">
        <ele>197.469383</ele>
        <time>2021-10-18T11:52:22.000Z</time>
      </trkpt>
      <trkpt lat="43.62043" lon="2.28955">
        <ele>197.419895</ele>
        <time>2021-10-18T11:52:23.000Z</time>
      </trkpt>
      <trkpt lat="43.62042" lon="2.28962">
        <ele>197.371484</ele>
        <time>2021-10-18T11:52:24.000Z</time>
      </trkpt>
      <trkpt lat="43.62041" lon="2.28969">
        <ele>197.322574</ele>
        <time>2021-10-18T11:52:25.000Z</time>
      </trkpt>
      <trkpt lat="43.6204" lon="2.28976">
        <ele>197.271278</ele>
        <time>2021-10-18T11:52:26.000Z</time>
      </trkpt>
      <trkpt lat="43.62039" lon="2.28983">
        <ele>197.22112</ele>
        <time>2021-10-18T11:52:27.000Z</time>
      </trkpt>
      <trkpt lat="43.62038" lon="2.2899">
        <ele>197.170962</ele>
        <time>2021-10-18T11:52:28.000Z</time>
      </trkpt>
      <trkpt lat="43.62036" lon="2.28997">
        <ele>197.119419</ele>
        <time>2021-10-18T11:52:29.000Z</time>
      </trkpt>
      <trkpt lat="43.62035" lon="2.29005">
        <ele>197.068122</ele>
        <time>2021-10-18T11:52:30.000Z</time>
      </trkpt>
      <trkpt lat="43.62034" lon="2.29012">
        <ele>197.018172</ele>
        <time>2021-10-18T11:52:31.000Z</time>
      </trkpt>
      <trkpt lat="43.62033" lon="2.29019">
        <ele>196.967548</ele>
        <time>2021-10-18T11:52:32.000Z</time>
      </trkpt>
      <trkpt lat="43.62031" lon="2.29026">
        <ele>196.915795</ele>
        <time>2021-10-18T11:52:33.000Z</time>
      </trkpt>
      <trkpt lat="43.62029" lon="2.29033">
        <ele>196.864252</ele>
        <time>2021-10-18T11:52:34.000Z</time>
      </trkpt>
      <trkpt lat="43.62028" lon="2.29041">
        <ele>196.811386</ele>
        <time>2021-10-18T11:52:35.000Z</time>
      </trkpt>
      <trkpt lat="43.62026" lon="2.29048">
        <ele>196.76023</ele>
        <time>2021-10-18T11:52:36.000Z</time>
      </trkpt>
      <trkpt lat="43.62024" lon="2.29055">
        <ele>196.706862</ele>
        <time>2021-10-18T11:52:37.000Z</time>
      </trkpt>
      <trkpt lat="43.62022" lon="2.29062">
        <ele>196.652522</ele>
        <time>2021-10-18T11:52:38.000Z</time>
      </trkpt>
      <trkpt lat="43.6202" lon="2.29069">
        <ele>196.601092</ele>
        <time>2021-10-18T11:52:39.000Z</time>
      </trkpt>
      <trkpt lat="43.62019" lon="2.29077">
        <ele>196.549339</ele>
        <time>2021-10-18T11:52:40.000Z</time>
      </trkpt>
      <trkpt lat="43.62017" lon="2.29084">
        <ele>196.497796</ele>
        <time>2021-10-18T11:52:41.000Z</time>
      </trkpt>
      <trkpt lat="43.62016" lon="2.29091">
        <ele>196.445592</ele>
        <time>2021-10-18T11:52:42.000Z</time>
      </trkpt>
      <trkpt lat="43.62014" lon="2.29098">
        <ele>196.394049</ele>
        <time>2021-10-18T11:52:43.000Z</time>
      </trkpt>
      <trkpt lat="43.62013" lon="2.29105">
        <ele>196.344098</ele>
        <time>2021-10-18T11:52:44.000Z</time>
      </trkpt>
      <trkpt lat="43.62012" lon="2.29113">
        <ele>196.292128</ele>
        <time>2021-10-18T11:52:45.000Z</time>
      </trkpt>
      <trkpt lat="43.62011" lon="2.2912">
        <ele>196.242695</ele>
        <time>2021-10-18T11:52:46.000Z</time>
      </trkpt>
      <trkpt lat="43.6201" lon="2.29127">
        <ele>196.193417</ele>
        <time>2021-10-18T11:52:47.000Z</time>
      </trkpt>
      <trkpt lat="43.62009" lon="2.29134">
        <ele>196.163678</ele>
        <time>2021-10-18T11:52:48.000Z</time>
      </trkpt>
      <trkpt lat="43.62008" lon="2.29141">
        <ele>196.261587</ele>
        <time>2021-10-18T11:52:49.000Z</time>
      </trkpt>
      <trkpt lat="43.62007" lon="2.29148">
        <ele>196.357102</ele>
        <time>2021-10-18T11:52:50.000Z</time>
      </trkpt>
      <trkpt lat="43.62006" lon="2.29155">
        <ele>196.452342</ele>
        <time>2021-10-18T11:52:51.000Z</time>
      </trkpt>
      <trkpt lat="43.62005" lon="2.29161">
        <ele>196.545159</ele>
        <time>2021-10-18T11:52:52.000Z</time>
      </trkpt>
      <trkpt lat="43.62005" lon="2.29168">
        <ele>196.639326</ele>
        <time>2021-10-18T11:52:53.000Z</time>
      </trkpt>
      <trkpt lat="43.62004" lon="2.29175">
        <ele>196.735899</ele>
        <time>2021-10-18T11:52:54.000Z</time>
      </trkpt>
      <trkpt lat="43.62002" lon="2.29182">
        <ele>196.833808</ele>
        <time>2021-10-18T11:52:55.000Z</time>
      </trkpt>
      <trkpt lat="43.62002" lon="2.29189">
        <ele>196.926952</ele>
        <time>2021-10-18T11:52:56.000Z</time>
      </trkpt>
      <trkpt lat="43.62" lon="2.29195">
        <ele>197.019967</ele>
        <time>2021-10-18T11:52:57.000Z</time>
      </trkpt>
      <trkpt lat="43.61999" lon="2.29202">
        <ele>197.10874</ele>
        <time>2021-10-18T11:52:58.000Z</time>
      </trkpt>
      <trkpt lat="43.61998" lon="2.29208">
        <ele>197.195657</ele>
        <time>2021-10-18T11:52:59.000Z</time>
      </trkpt>
      <trkpt lat="43.61996" lon="2.29214">
        <ele>197.283715</ele>
        <time>2021-10-18T11:53:00.000Z</time>
      </trkpt>
      <trkpt lat="43.61995" lon="2.2922">
        <ele>197.369189</ele>
        <time>2021-10-18T11:53:01.000Z</time>
      </trkpt>
      <trkpt lat="43.61993" lon="2.29225">
        <ele>197.451479</ele>
        <time>2021-10-18T11:53:02.000Z</time>
      </trkpt>
      <trkpt lat="43.61991" lon="2.29231">
        <ele>197.538994</ele>
        <time>2021-10-18T11:53:03.000Z</time>
      </trkpt>
      <trkpt lat="43.6199" lon="2.29237">
        <ele>197.618821</ele>
        <time>2021-10-18T11:53:04.000Z</time>
      </trkpt>
      <trkpt lat="43.61989" lon="2.29242">
        <ele>197.699157</ele>
        <time>2021-10-18T11:53:05.000Z</time>
      </trkpt>
      <trkpt lat="43.61987" lon="2.29248">
        <ele>197.776941</ele>
        <time>2021-10-18T11:53:06.000Z</time>
      </trkpt>
      <trkpt lat="43.61986" lon="2.29253">
        <ele>197.854057</ele>
        <time>2021-10-18T11:53:07.000Z</time>
      </trkpt>
      <trkpt lat="43.61985" lon="2.29258">
        <ele>197.928468</ele>
        <time>2021-10-18T11:53:08.000Z</time>
      </trkpt>
      <trkpt lat="43.61984" lon="2.29264">
        <ele>198.005678</ele>
        <time>2021-10-18T11:53:09.000Z</time>
      </trkpt>
      <trkpt lat="43.61982" lon="2.29269">
        <ele>198.086014</ele>
        <time>2021-10-18T11:53:10.000Z</time>
      </trkpt>
      <trkpt lat="43.61981" lon="2.29275">
        <ele>198.164416</ele>
        <time>2021-10-18T11:53:11.000Z</time>
      </trkpt>
      <trkpt lat="43.61979" lon="2.2928">
        <ele>198.240905</ele>
        <time>2021-10-18T11:53:12.000Z</time>
      </trkpt>
      <trkpt lat="43.61978" lon="2.29286">
        <ele>198.323805</ele>
        <time>2021-10-18T11:53:13.000Z</time>
      </trkpt>
      <trkpt lat="43.61976" lon="2.29291">
        <ele>198.404141</ele>
        <time>2021-10-18T11:53:14.000Z</time>
      </trkpt>
      <trkpt lat="43.61975" lon="2.29297">
        <ele>198.488981</ele>
        <time>2021-10-18T11:53:15.000Z</time>
      </trkpt>
      <trkpt lat="43.61973" lon="2.29303">
        <ele>198.57255</ele>
        <time>2021-10-18T11:53:16.000Z</time>
      </trkpt>
      <trkpt lat="43.61972" lon="2.29308">
        <ele>198.653183</ele>
        <time>2021-10-18T11:53:17.000Z</time>
      </trkpt>
      <trkpt lat="43.61971" lon="2.29314">
        <ele>198.733567</ele>
        <time>2021-10-18T11:53:18.000Z</time>
      </trkpt>
      <trkpt lat="43.61969" lon="2.29319">
        <ele>198.812626</ele>
        <time>2021-10-18T11:53:19.000Z</time>
      </trkpt>
      <trkpt lat="43.61968" lon="2.29325">
        <ele>198.8949</ele>
        <time>2021-10-18T11:53:20.000Z</time>
      </trkpt>
      <trkpt lat="43.61967" lon="2.2933">
        <ele>198.964487</ele>
        <time>2021-10-18T11:53:21.000Z</time>
      </trkpt>
      <trkpt lat="43.61967" lon="2.29334">
        <ele>199.021036</ele>
        <time>2021-10-18T11:53:22.000Z</time>
      </trkpt>
      <trkpt lat="43.61966" lon="2.29338">
        <ele>199.074876</ele>
        <time>2021-10-18T11:53:23.000Z</time>
      </trkpt>
      <trkpt lat="43.61966" lon="2.29342">
        <ele>199.13278</ele>
        <time>2021-10-18T11:53:24.000Z</time>
      </trkpt>
      <trkpt lat="43.61965" lon="2.29347">
        <ele>199.198369</ele>
        <time>2021-10-18T11:53:25.000Z</time>
      </trkpt>
      <trkpt lat="43.61965" lon="2.29352">
        <ele>199.266008</ele>
        <time>2021-10-18T11:53:26.000Z</time>
      </trkpt>
      <trkpt lat="43.61964" lon="2.29357">
        <ele>199.332589</ele>
        <time>2021-10-18T11:53:27.000Z</time>
      </trkpt>
      <trkpt lat="43.61964" lon="2.29361">
        <ele>199.394358</ele>
        <time>2021-10-18T11:53:28.000Z</time>
      </trkpt>
      <trkpt lat="43.61964" lon="2.29366">
        <ele>199.457263</ele>
        <time>2021-10-18T11:53:29.000Z</time>
      </trkpt>
      <trkpt lat="43.61963" lon="2.29371">
        <ele>199.528566</ele>
        <time>2021-10-18T11:53:30.000Z</time>
      </trkpt>
      <trkpt lat="43.61963" lon="2.29376">
        <ele>199.729429</ele>
        <time>2021-10-18T11:53:31.000Z</time>
      </trkpt>
      <trkpt lat="43.61962" lon="2.29381">
        <ele>199.956029</ele>
        <time>2021-10-18T11:53:32.000Z</time>
      </trkpt>
      <trkpt lat="43.61962" lon="2.29386">
        <ele>200.176212</ele>
        <time>2021-10-18T11:53:33.000Z</time>
      </trkpt>
      <trkpt lat="43.61961" lon="2.29391">
        <ele>200.389721</ele>
        <time>2021-10-18T11:53:34.000Z</time>
      </trkpt>
      <trkpt lat="43.61961" lon="2.29396">
        <ele>200.603231</ele>
        <time>2021-10-18T11:53:35.000Z</time>
      </trkpt>
      <trkpt lat="43.6196" lon="2.29401">
        <ele>200.826471</ele>
        <time>2021-10-18T11:53:36.000Z</time>
      </trkpt>
      <trkpt lat="43.6196" lon="2.29406">
        <ele>201.053482</ele>
        <time>2021-10-18T11:53:37.000Z</time>
      </trkpt>
      <trkpt lat="43.6196" lon="2.29411">
        <ele>201.29944</ele>
        <time>2021-10-18T11:53:38.000Z</time>
      </trkpt>
      <trkpt lat="43.61959" lon="2.29417">
        <ele>201.544859</ele>
        <time>2021-10-18T11:53:39.000Z</time>
      </trkpt>
      <trkpt lat="43.61959" lon="2.29422">
        <ele>201.7681</ele>
        <time>2021-10-18T11:53:40.000Z</time>
      </trkpt>
      <trkpt lat="43.61959" lon="2.29426">
        <ele>201.977229</ele>
        <time>2021-10-18T11:53:41.000Z</time>
      </trkpt>
      <trkpt lat="43.61959" lon="2.29431">
        <ele>202.186358</ele>
        <time>2021-10-18T11:53:42.000Z</time>
      </trkpt>
      <trkpt lat="43.61959" lon="2.29436">
        <ele>202.408921</ele>
        <time>2021-10-18T11:53:43.000Z</time>
      </trkpt>
      <trkpt lat="43.61959" lon="2.29441">
        <ele>202.650452</ele>
        <time>2021-10-18T11:53:44.000Z</time>
      </trkpt>
      <trkpt lat="43.61958" lon="2.29447">
        <ele>202.914125</ele>
        <time>2021-10-18T11:53:45.000Z</time>
      </trkpt>
      <trkpt lat="43.61958" lon="2.29453">
        <ele>203.155656</ele>
        <time>2021-10-18T11:53:46.000Z</time>
      </trkpt>
      <trkpt lat="43.61958" lon="2.29457">
        <ele>203.347873</ele>
        <time>2021-10-18T11:53:47.000Z</time>
      </trkpt>
      <trkpt lat="43.61957" lon="2.29461">
        <ele>203.540091</ele>
        <time>2021-10-18T11:53:48.000Z</time>
      </trkpt>
      <trkpt lat="43.61957" lon="2.29465">
        <ele>203.722626</ele>
        <time>2021-10-18T11:53:49.000Z</time>
      </trkpt>
      <trkpt lat="43.61957" lon="2.2947">
        <ele>203.919273</ele>
        <time>2021-10-18T11:53:50.000Z</time>
      </trkpt>
      <trkpt lat="43.61957" lon="2.29474">
        <ele>204.106155</ele>
        <time>2021-10-18T11:53:51.000Z</time>
      </trkpt>
      <trkpt lat="43.61957" lon="2.29479">
        <ele>204.306479</ele>
        <time>2021-10-18T11:53:52.000Z</time>
      </trkpt>
      <trkpt lat="43.61956" lon="2.29483">
        <ele>204.503127</ele>
        <time>2021-10-18T11:53:53.000Z</time>
      </trkpt>
      <trkpt lat="43.61956" lon="2.29487">
        <ele>204.699293</ele>
        <time>2021-10-18T11:53:54.000Z</time>
      </trkpt>
      <trkpt lat="43.61956" lon="2.29492">
        <ele>204.911649</ele>
        <time>2021-10-18T11:53:55.000Z</time>
      </trkpt>
      <trkpt lat="43.61956" lon="2.29497">
        <ele>205.120778</ele>
        <time>2021-10-18T11:53:56.000Z</time>
      </trkpt>
      <trkpt lat="43.61955" lon="2.29501">
        <ele>205.312996</ele>
        <time>2021-10-18T11:53:57.000Z</time>
      </trkpt>
      <trkpt lat="43.61955" lon="2.29505">
        <ele>205.477744</ele>
        <time>2021-10-18T11:53:58.000Z</time>
      </trkpt>
      <trkpt lat="43.61956" lon="2.29508">
        <ele>205.616228</ele>
        <time>2021-10-18T11:53:59.000Z</time>
      </trkpt>
      <trkpt lat="43.61956" lon="2.29511">
        <ele>205.74142</ele>
        <time>2021-10-18T11:54:00.000Z</time>
      </trkpt>
      <trkpt lat="43.61957" lon="2.29514">
        <ele>205.879509</ele>
        <time>2021-10-18T11:54:01.000Z</time>
      </trkpt>
      <trkpt lat="43.61957" lon="2.29517">
        <ele>206.019758</ele>
        <time>2021-10-18T11:54:02.000Z</time>
      </trkpt>
      <trkpt lat="43.61958" lon="2.2952">
        <ele>206.154512</ele>
        <time>2021-10-18T11:54:03.000Z</time>
      </trkpt>
      <trkpt lat="43.61958" lon="2.29522">
        <ele>206.276057</ele>
        <time>2021-10-18T11:54:04.000Z</time>
      </trkpt>
      <trkpt lat="43.61958" lon="2.29525">
        <ele>206.382846</ele>
        <time>2021-10-18T11:54:05.000Z</time>
      </trkpt>
      <trkpt lat="43.61958" lon="2.29526">
        <ele>206.463174</ele>
        <time>2021-10-18T11:54:06.000Z</time>
      </trkpt>
      <trkpt lat="43.61958" lon="2.29528">
        <ele>206.536716</ele>
        <time>2021-10-18T11:54:07.000Z</time>
      </trkpt>
      <trkpt lat="43.61957" lon="2.2953">
        <ele>206.618903</ele>
        <time>2021-10-18T11:54:08.000Z</time>
      </trkpt>
      <trkpt lat="43.61957" lon="2.29532">
        <ele>206.698995</ele>
        <time>2021-10-18T11:54:09.000Z</time>
      </trkpt>
      <trkpt lat="43.61957" lon="2.29533">
        <ele>206.774638</ele>
        <time>2021-10-18T11:54:10.000Z</time>
      </trkpt>
      <trkpt lat="43.61957" lon="2.29535">
        <ele>206.836932</ele>
        <time>2021-10-18T11:54:11.000Z</time>
      </trkpt>
      <trkpt lat="43.61957" lon="2.29536">
        <ele>206.90839</ele>
        <time>2021-10-18T11:54:12.000Z</time>
      </trkpt>
      <trkpt lat="43.61957" lon="2.29538">
        <ele>206.996564</ele>
        <time>2021-10-18T11:54:13.000Z</time>
      </trkpt>
      <trkpt lat="43.61955" lon="2.2954">
        <ele>207.091568</ele>
        <time>2021-10-18T11:54:14.000Z</time>
      </trkpt>
      <trkpt lat="43.61954" lon="2.2954">
        <ele>207.164258</ele>
        <time>2021-10-18T11:54:15.000Z</time>
      </trkpt>
      <trkpt lat="43.61954" lon="2.2954">
        <ele>207.208193</ele>
        <time>2021-10-18T11:54:16.000Z</time>
      </trkpt>
      <trkpt lat="43.61953" lon="2.29539">
        <ele>207.270088</ele>
        <time>2021-10-18T11:54:17.000Z</time>
      </trkpt>
      <trkpt lat="43.61953" lon="2.29538">
        <ele>207.337058</ele>
        <time>2021-10-18T11:54:18.000Z</time>
      </trkpt>
      <trkpt lat="43.61952" lon="2.29536">
        <ele>207.420839</ele>
        <time>2021-10-18T11:54:19.000Z</time>
      </trkpt>
      <trkpt lat="43.61952" lon="2.29534">
        <ele>207.516081</ele>
        <time>2021-10-18T11:54:20.000Z</time>
      </trkpt>
      <trkpt lat="43.61952" lon="2.29532">
        <ele>207.614165</ele>
        <time>2021-10-18T11:54:21.000Z</time>
      </trkpt>
      <trkpt lat="43.61952" lon="2.2953">
        <ele>207.702209</ele>
        <time>2021-10-18T11:54:22.000Z</time>
      </trkpt>
      <trkpt lat="43.61953" lon="2.29528">
        <ele>207.787994</ele>
        <time>2021-10-18T11:54:23.000Z</time>
      </trkpt>
      <trkpt lat="43.61954" lon="2.29527">
        <ele>207.854309</ele>
        <time>2021-10-18T11:54:24.000Z</time>
      </trkpt>
      <trkpt lat="43.61955" lon="2.29527">
        <ele>207.923224</ele>
        <time>2021-10-18T11:54:25.000Z</time>
      </trkpt>
      <trkpt lat="43.61955" lon="2.29529">
        <ele>208.002633</ele>
        <time>2021-10-18T11:54:26.000Z</time>
      </trkpt>
      <trkpt lat="43.61956" lon="2.29531">
        <ele>208.101292</ele>
        <time>2021-10-18T11:54:27.000Z</time>
      </trkpt>
      <trkpt lat="43.61956" lon="2.29534">
        <ele>208.221587</ele>
        <time>2021-10-18T11:54:28.000Z</time>
      </trkpt>
      <trkpt lat="43.61955" lon="2.29537">
        <ele>208.361837</ele>
        <time>2021-10-18T11:54:29.000Z</time>
      </trkpt>
      <trkpt lat="43.61954" lon="2.29539">
        <ele>208.494483</ele>
        <time>2021-10-18T11:54:30.000Z</time>
      </trkpt>
      <trkpt lat="43.61953" lon="2.29542">
        <ele>208.617697</ele>
        <time>2021-10-18T11:54:31.000Z</time>
      </trkpt>
      <trkpt lat="43.61952" lon="2.29543">
        <ele>208.744664</ele>
        <time>2021-10-18T11:54:32.000Z</time>
      </trkpt>
      <trkpt lat="43.6195" lon="2.29544">
        <ele>208.84782</ele>
        <time>2021-10-18T11:54:33.000Z</time>
      </trkpt>
      <trkpt lat="43.61948" lon="2.29544">
        <ele>208.965361</ele>
        <time>2021-10-18T11:54:34.000Z</time>
      </trkpt>
      <trkpt lat="43.61947" lon="2.29544">
        <ele>209.057663</ele>
        <time>2021-10-18T11:54:35.000Z</time>
      </trkpt>
      <trkpt lat="43.61945" lon="2.29544">
        <ele>209.137566</ele>
        <time>2021-10-18T11:54:36.000Z</time>
      </trkpt>
      <trkpt lat="43.61944" lon="2.29545">
        <ele>209.198988</ele>
        <time>2021-10-18T11:54:37.000Z</time>
      </trkpt>
      <trkpt lat="43.61943" lon="2.29545">
        <ele>209.273428</ele>
        <time>2021-10-18T11:54:38.000Z</time>
      </trkpt>
      <trkpt lat="43.61943" lon="2.29546">
        <ele>209.321699</ele>
        <time>2021-10-18T11:54:39.000Z</time>
      </trkpt>
      <trkpt lat="43.61942" lon="2.29547">
        <ele>209.357213</ele>
        <time>2021-10-18T11:54:40.000Z</time>
      </trkpt>
      <trkpt lat="43.61942" lon="2.29547">
        <ele>209.400282</ele>
        <time>2021-10-18T11:54:41.000Z</time>
      </trkpt>
      <trkpt lat="43.61942" lon="2.29547">
        <ele>209.400282</ele>
        <time>2021-10-18T11:54:42.000Z</time>
      </trkpt>
      <trkpt lat="43.61942" lon="2.29547">
        <ele>209.400282</ele>
        <time>2021-10-18T11:54:43.000Z</time>
      </trkpt>
      <trkpt lat="43.61942" lon="2.29547">
        <ele>209.400282</ele>
        <time>2021-10-18T11:54:45.000Z</time>
      </trkpt>
      <trkpt lat="43.61942" lon="2.29547">
        <ele>209.400282</ele>
        <time>2021-10-18T11:54:48.000Z</time>
      </trkpt>
      <trkpt lat="43.61939" lon="2.29547">
        <ele>209.548062</ele>
        <time>2021-10-18T11:54:53.000Z</time>
      </trkpt>
      <trkpt lat="43.61938" lon="2.29547">
        <ele>209.597233</ele>
        <time>2021-10-18T11:54:54.000Z</time>
      </trkpt>
      <trkpt lat="43.61938" lon="2.29548">
        <ele>209.642281</ele>
        <time>2021-10-18T11:54:55.000Z</time>
      </trkpt>
      <trkpt lat="43.61937" lon="2.29548">
        <ele>209.666866</ele>
        <time>2021-10-18T11:54:56.000Z</time>
      </trkpt>
      <trkpt lat="43.61937" lon="2.29548">
        <ele>209.693012</ele>
        <time>2021-10-18T11:54:57.000Z</time>
      </trkpt>
      <trkpt lat="43.61936" lon="2.29548">
        <ele>209.72989</ele>
        <time>2021-10-18T11:54:58.000Z</time>
      </trkpt>
      <trkpt lat="43.61936" lon="2.29548">
        <ele>209.737478</ele>
        <time>2021-10-18T11:54:59.000Z</time>
      </trkpt>
      <trkpt lat="43.61936" lon="2.29547">
        <ele>209.763625</ele>
        <time>2021-10-18T11:55:00.000Z</time>
      </trkpt>
      <trkpt lat="43.61934" lon="2.29549">
        <ele>209.915383</ele>
        <time>2021-10-18T11:55:05.000Z</time>
      </trkpt>
      <trkpt lat="43.61933" lon="2.2955">
        <ele>209.966017</ele>
        <time>2021-10-18T11:55:06.000Z</time>
      </trkpt>
      <trkpt lat="43.61932" lon="2.2955">
        <ele>210.011065</ele>
        <time>2021-10-18T11:55:07.000Z</time>
      </trkpt>
      <trkpt lat="43.61932" lon="2.2955">
        <ele>210.042117</ele>
        <time>2021-10-18T11:55:08.000Z</time>
      </trkpt>
      <trkpt lat="43.61931" lon="2.2955">
        <ele>210.085142</ele>
        <time>2021-10-18T11:55:09.000Z</time>
      </trkpt>
      <trkpt lat="43.61931" lon="2.2955">
        <ele>210.113117</ele>
        <time>2021-10-18T11:55:10.000Z</time>
      </trkpt>
      <trkpt lat="43.6193" lon="2.2955">
        <ele>210.162489</ele>
        <time>2021-10-18T11:55:11.000Z</time>
      </trkpt>
      <trkpt lat="43.61929" lon="2.2955">
        <ele>210.205513</ele>
        <time>2021-10-18T11:55:12.000Z</time>
      </trkpt>
      <trkpt lat="43.61923" lon="2.29549">
        <ele>210.583621</ele>
        <time>2021-10-18T11:55:22.000Z</time>
      </trkpt>
      <trkpt lat="43.61922" lon="2.29549">
        <ele>210.662408</ele>
        <time>2021-10-18T11:55:23.000Z</time>
      </trkpt>
      <trkpt lat="43.61922" lon="2.2955">
        <ele>210.733248</ele>
        <time>2021-10-18T11:55:24.000Z</time>
      </trkpt>
      <trkpt lat="43.61921" lon="2.29549">
        <ele>210.816169</ele>
        <time>2021-10-18T11:55:25.000Z</time>
      </trkpt>
      <trkpt lat="43.6192" lon="2.29551">
        <ele>211.041425</ele>
        <time>2021-10-18T11:55:40.000Z</time>
      </trkpt>
      <trkpt lat="43.61918" lon="2.2955">
        <ele>211.237256</ele>
        <time>2021-10-18T11:55:41.000Z</time>
      </trkpt>
      <trkpt lat="43.61917" lon="2.29549">
        <ele>211.446558</ele>
        <time>2021-10-18T11:55:42.000Z</time>
      </trkpt>
      <trkpt lat="43.61916" lon="2.29548">
        <ele>211.644736</ele>
        <time>2021-10-18T11:55:43.000Z</time>
      </trkpt>
      <trkpt lat="43.61915" lon="2.29547">
        <ele>211.810875</ele>
        <time>2021-10-18T11:55:44.000Z</time>
      </trkpt>
      <trkpt lat="43.61913" lon="2.29546">
        <ele>211.992192</ele>
        <time>2021-10-18T11:55:45.000Z</time>
      </trkpt>
      <trkpt lat="43.61912" lon="2.29546">
        <ele>212.187117</ele>
        <time>2021-10-18T11:55:46.000Z</time>
      </trkpt>
      <trkpt lat="43.6191" lon="2.29547">
        <ele>212.398415</ele>
        <time>2021-10-18T11:55:47.000Z</time>
      </trkpt>
      <trkpt lat="43.61908" lon="2.29547">
        <ele>212.645499</ele>
        <time>2021-10-18T11:55:48.000Z</time>
      </trkpt>
      <trkpt lat="43.61907" lon="2.29547">
        <ele>212.85342</ele>
        <time>2021-10-18T11:55:49.000Z</time>
      </trkpt>
      <trkpt lat="43.61906" lon="2.29547">
        <ele>212.892405</ele>
        <time>2021-10-18T11:55:50.000Z</time>
      </trkpt>
      <trkpt lat="43.61906" lon="2.29547">
        <ele>212.945229</ele>
        <time>2021-10-18T11:55:51.000Z</time>
      </trkpt>
      <trkpt lat="43.61906" lon="2.29547">
        <ele>212.985333</ele>
        <time>2021-10-18T11:55:52.000Z</time>
      </trkpt>
      <trkpt lat="43.61906" lon="2.29547">
        <ele>212.985333</ele>
        <time>2021-10-18T11:55:54.000Z</time>
      </trkpt>
      <trkpt lat="43.61904" lon="2.29547">
        <ele>213.258391</ele>
        <time>2021-10-18T11:55:56.000Z</time>
      </trkpt>
      <trkpt lat="43.61903" lon="2.29547">
        <ele>213.366114</ele>
        <time>2021-10-18T11:55:57.000Z</time>
      </trkpt>
      <trkpt lat="43.61902" lon="2.29548">
        <ele>213.45269</ele>
        <time>2021-10-18T11:55:58.000Z</time>
      </trkpt>
      <trkpt lat="43.61902" lon="2.29548">
        <ele>213.500818</ele>
        <time>2021-10-18T11:55:59.000Z</time>
      </trkpt>
      <trkpt lat="43.61902" lon="2.29548">
        <ele>213.513813</ele>
        <time>2021-10-18T11:56:00.000Z</time>
      </trkpt>
      <trkpt lat="43.61902" lon="2.29547">
        <ele>213.557101</ele>
        <time>2021-10-18T11:56:01.000Z</time>
      </trkpt>
      <trkpt lat="43.619" lon="2.29548">
        <ele>213.750465</ele>
        <time>2021-10-18T11:56:08.000Z</time>
      </trkpt>
      <trkpt lat="43.619" lon="2.29549">
        <ele>213.868528</ele>
        <time>2021-10-18T11:56:09.000Z</time>
      </trkpt>
      <trkpt lat="43.61899" lon="2.2955">
        <ele>213.998783</ele>
        <time>2021-10-18T11:56:10.000Z</time>
      </trkpt>
      <trkpt lat="43.61898" lon="2.29552">
        <ele>214.15225</ele>
        <time>2021-10-18T11:56:11.000Z</time>
      </trkpt>
      <trkpt lat="43.61897" lon="2.29553">
        <ele>214.381124</ele>
        <time>2021-10-18T11:56:12.000Z</time>
      </trkpt>
      <trkpt lat="43.61896" lon="2.29555">
        <ele>214.602665</ele>
        <time>2021-10-18T11:56:13.000Z</time>
      </trkpt>
      <trkpt lat="43.61895" lon="2.29558">
        <ele>214.896036</ele>
        <time>2021-10-18T11:56:14.000Z</time>
      </trkpt>
      <trkpt lat="43.61893" lon="2.29559">
        <ele>215.14458</ele>
        <time>2021-10-18T11:56:15.000Z</time>
      </trkpt>
      <trkpt lat="43.61892" lon="2.29561">
        <ele>215.373247</ele>
        <time>2021-10-18T11:56:16.000Z</time>
      </trkpt>
      <trkpt lat="43.61892" lon="2.29564">
        <ele>215.625417</ele>
        <time>2021-10-18T11:56:17.000Z</time>
      </trkpt>
      <trkpt lat="43.61891" lon="2.29566">
        <ele>215.869419</ele>
        <time>2021-10-18T11:56:18.000Z</time>
      </trkpt>
      <trkpt lat="43.6189" lon="2.29569">
        <ele>216.099003</ele>
        <time>2021-10-18T11:56:19.000Z</time>
      </trkpt>
      <trkpt lat="43.61889" lon="2.29571">
        <ele>216.343386</ele>
        <time>2021-10-18T11:56:20.000Z</time>
      </trkpt>
      <trkpt lat="43.61888" lon="2.29573">
        <ele>216.61319</ele>
        <time>2021-10-18T11:56:21.000Z</time>
      </trkpt>
      <trkpt lat="43.61888" lon="2.29576">
        <ele>216.8845</ele>
        <time>2021-10-18T11:56:22.000Z</time>
      </trkpt>
      <trkpt lat="43.61887" lon="2.29579">
        <ele>217.172088</ele>
        <time>2021-10-18T11:56:23.000Z</time>
      </trkpt>
      <trkpt lat="43.61886" lon="2.29582">
        <ele>217.460299</ele>
        <time>2021-10-18T11:56:24.000Z</time>
      </trkpt>
      <trkpt lat="43.61885" lon="2.29584">
        <ele>217.727529</ele>
        <time>2021-10-18T11:56:25.000Z</time>
      </trkpt>
      <trkpt lat="43.61884" lon="2.29586">
        <ele>217.963824</ele>
        <time>2021-10-18T11:56:26.000Z</time>
      </trkpt>
      <trkpt lat="43.61884" lon="2.29588">
        <ele>218.15025</ele>
        <time>2021-10-18T11:56:27.000Z</time>
      </trkpt>
      <trkpt lat="43.61883" lon="2.2959">
        <ele>218.3364</ele>
        <time>2021-10-18T11:56:28.000Z</time>
      </trkpt>
      <trkpt lat="43.61883" lon="2.29591">
        <ele>218.474889</ele>
        <time>2021-10-18T11:56:29.000Z</time>
      </trkpt>
      <trkpt lat="43.61882" lon="2.29593">
        <ele>218.619929</ele>
        <time>2021-10-18T11:56:30.000Z</time>
      </trkpt>
      <trkpt lat="43.61882" lon="2.29594">
        <ele>218.751636</ele>
        <time>2021-10-18T11:56:31.000Z</time>
      </trkpt>
      <trkpt lat="43.61882" lon="2.29595">
        <ele>218.876667</ele>
        <time>2021-10-18T11:56:32.000Z</time>
      </trkpt>
      <trkpt lat="43.61881" lon="2.29596">
        <ele>218.983394</ele>
        <time>2021-10-18T11:56:33.000Z</time>
      </trkpt>
      <trkpt lat="43.61881" lon="2.29597">
        <ele>219.080995</ele>
        <time>2021-10-18T11:56:34.000Z</time>
      </trkpt>
      <trkpt lat="43.61881" lon="2.29598">
        <ele>219.210565</ele>
        <time>2021-10-18T11:56:35.000Z</time>
      </trkpt>
      <trkpt lat="43.6188" lon="2.296">
        <ele>219.344812</ele>
        <time>2021-10-18T11:56:36.000Z</time>
      </trkpt>
      <trkpt lat="43.6188" lon="2.29601">
        <ele>219.459913</ele>
        <time>2021-10-18T11:56:37.000Z</time>
      </trkpt>
      <trkpt lat="43.61879" lon="2.29602">
        <ele>219.590168</ele>
        <time>2021-10-18T11:56:38.000Z</time>
      </trkpt>
      <trkpt lat="43.61878" lon="2.29603">
        <ele>219.757961</ele>
        <time>2021-10-18T11:56:39.000Z</time>
      </trkpt>
      <trkpt lat="43.61878" lon="2.29605">
        <ele>219.933836</ele>
        <time>2021-10-18T11:56:40.000Z</time>
      </trkpt>
      <trkpt lat="43.61877" lon="2.29606">
        <ele>220.04442</ele>
        <time>2021-10-18T11:56:41.000Z</time>
      </trkpt>
      <trkpt lat="43.61877" lon="2.29607">
        <ele>220.168705</ele>
        <time>2021-10-18T11:56:42.000Z</time>
      </trkpt>
      <trkpt lat="43.61877" lon="2.29609">
        <ele>220.34133</ele>
        <time>2021-10-18T11:56:43.000Z</time>
      </trkpt>
      <trkpt lat="43.61876" lon="2.29611">
        <ele>220.540034</ele>
        <time>2021-10-18T11:56:44.000Z</time>
      </trkpt>
      <trkpt lat="43.61875" lon="2.29613">
        <ele>220.740595</ele>
        <time>2021-10-18T11:56:45.000Z</time>
      </trkpt>
      <trkpt lat="43.61874" lon="2.29615">
        <ele>220.949584</ele>
        <time>2021-10-18T11:56:46.000Z</time>
      </trkpt>
      <trkpt lat="43.61874" lon="2.29616">
        <ele>221.077948</ele>
        <time>2021-10-18T11:56:47.000Z</time>
      </trkpt>
      <trkpt lat="43.61874" lon="2.29617">
        <ele>221.181432</ele>
        <time>2021-10-18T11:56:48.000Z</time>
      </trkpt>
      <trkpt lat="43.61874" lon="2.29619">
        <ele>221.343461</ele>
        <time>2021-10-18T11:56:49.000Z</time>
      </trkpt>
      <trkpt lat="43.61873" lon="2.29621">
        <ele>221.578181</ele>
        <time>2021-10-18T11:56:50.000Z</time>
      </trkpt>
      <trkpt lat="43.61872" lon="2.29622">
        <ele>221.761463</ele>
        <time>2021-10-18T11:56:51.000Z</time>
      </trkpt>
      <trkpt lat="43.61871" lon="2.29624">
        <ele>221.974917</ele>
        <time>2021-10-18T11:56:52.000Z</time>
      </trkpt>
      <trkpt lat="43.6187" lon="2.29626">
        <ele>222.181697</ele>
        <time>2021-10-18T11:56:53.000Z</time>
      </trkpt>
      <trkpt lat="43.6187" lon="2.29628">
        <ele>222.407774</ele>
        <time>2021-10-18T11:56:54.000Z</time>
      </trkpt>
      <trkpt lat="43.61869" lon="2.2963">
        <ele>222.593925</ele>
        <time>2021-10-18T11:56:55.000Z</time>
      </trkpt>
      <trkpt lat="43.61869" lon="2.29632">
        <ele>222.767693</ele>
        <time>2021-10-18T11:56:56.000Z</time>
      </trkpt>
      <trkpt lat="43.61869" lon="2.29634">
        <ele>222.953844</ele>
        <time>2021-10-18T11:56:57.000Z</time>
      </trkpt>
      <trkpt lat="43.61868" lon="2.29636">
        <ele>223.11309</ele>
        <time>2021-10-18T11:56:58.000Z</time>
      </trkpt>
      <trkpt lat="43.61868" lon="2.29637">
        <ele>223.263474</ele>
        <time>2021-10-18T11:56:59.000Z</time>
      </trkpt>
      <trkpt lat="43.61867" lon="2.29639">
        <ele>223.447465</ele>
        <time>2021-10-18T11:57:00.000Z</time>
      </trkpt>
      <trkpt lat="43.61867" lon="2.2964">
        <ele>223.580353</ele>
        <time>2021-10-18T11:57:01.000Z</time>
      </trkpt>
      <trkpt lat="43.61866" lon="2.29642">
        <ele>223.730738</ele>
        <time>2021-10-18T11:57:02.000Z</time>
      </trkpt>
      <trkpt lat="43.61866" lon="2.29643">
        <ele>223.895352</ele>
        <time>2021-10-18T11:57:03.000Z</time>
      </trkpt>
      <trkpt lat="43.61866" lon="2.29645">
        <ele>224.075978</ele>
        <time>2021-10-18T11:57:04.000Z</time>
      </trkpt>
      <trkpt lat="43.61865" lon="2.29647">
        <ele>224.297147</ele>
        <time>2021-10-18T11:57:05.000Z</time>
      </trkpt>
      <trkpt lat="43.61865" lon="2.29649">
        <ele>224.489371</ele>
        <time>2021-10-18T11:57:06.000Z</time>
      </trkpt>
      <trkpt lat="43.61863" lon="2.29651">
        <ele>224.724622</ele>
        <time>2021-10-18T11:57:07.000Z</time>
      </trkpt>
      <trkpt lat="43.61862" lon="2.29652">
        <ele>224.965266</ele>
        <time>2021-10-18T11:57:08.000Z</time>
      </trkpt>
      <trkpt lat="43.6186" lon="2.29653">
        <ele>225.159637</ele>
        <time>2021-10-18T11:57:09.000Z</time>
      </trkpt>
      <trkpt lat="43.61859" lon="2.29655">
        <ele>225.36722</ele>
        <time>2021-10-18T11:57:10.000Z</time>
      </trkpt>
      <trkpt lat="43.61859" lon="2.29656">
        <ele>225.527735</ele>
        <time>2021-10-18T11:57:11.000Z</time>
      </trkpt>
      <trkpt lat="43.61857" lon="2.29658">
        <ele>225.72025</ele>
        <time>2021-10-18T11:57:12.000Z</time>
      </trkpt>
      <trkpt lat="43.61856" lon="2.29659">
        <ele>225.955501</ele>
        <time>2021-10-18T11:57:13.000Z</time>
      </trkpt>
      <trkpt lat="43.61855" lon="2.2966">
        <ele>226.117048</ele>
        <time>2021-10-18T11:57:14.000Z</time>
      </trkpt>
      <trkpt lat="43.61853" lon="2.29661">
        <ele>226.31516</ele>
        <time>2021-10-18T11:57:15.000Z</time>
      </trkpt>
      <trkpt lat="43.61852" lon="2.29662">
        <ele>226.539761</ele>
        <time>2021-10-18T11:57:16.000Z</time>
      </trkpt>
      <trkpt lat="43.61851" lon="2.29664">
        <ele>226.740627</ele>
        <time>2021-10-18T11:57:17.000Z</time>
      </trkpt>
      <trkpt lat="43.6185" lon="2.29665">
        <ele>226.938805</ele>
        <time>2021-10-18T11:57:18.000Z</time>
      </trkpt>
      <trkpt lat="43.61849" lon="2.29666">
        <ele>227.12693</ele>
        <time>2021-10-18T11:57:19.000Z</time>
      </trkpt>
      <trkpt lat="43.61847" lon="2.29668">
        <ele>227.330114</ele>
        <time>2021-10-18T11:57:20.000Z</time>
      </trkpt>
      <trkpt lat="43.61846" lon="2.29669">
        <ele>227.528293</ele>
        <time>2021-10-18T11:57:21.000Z</time>
      </trkpt>
      <trkpt lat="43.61846" lon="2.2967">
        <ele>227.692241</ele>
        <time>2021-10-18T11:57:22.000Z</time>
      </trkpt>
      <trkpt lat="43.61845" lon="2.29672">
        <ele>227.899022</ele>
        <time>2021-10-18T11:57:23.000Z</time>
      </trkpt>
      <trkpt lat="43.61844" lon="2.29674">
        <ele>228.097727</ele>
        <time>2021-10-18T11:57:24.000Z</time>
      </trkpt>
      <trkpt lat="43.61843" lon="2.29676">
        <ele>228.326602</ele>
        <time>2021-10-18T11:57:25.000Z</time>
      </trkpt>
      <trkpt lat="43.61842" lon="2.29678">
        <ele>228.487825</ele>
        <time>2021-10-18T11:57:26.000Z</time>
      </trkpt>
      <trkpt lat="43.61842" lon="2.29679">
        <ele>228.643182</ele>
        <time>2021-10-18T11:57:27.000Z</time>
      </trkpt>
      <trkpt lat="43.61841" lon="2.29681">
        <ele>228.833932</ele>
        <time>2021-10-18T11:57:28.000Z</time>
      </trkpt>
      <trkpt lat="43.6184" lon="2.29682">
        <ele>229.009807</ele>
        <time>2021-10-18T11:57:29.000Z</time>
      </trkpt>
      <trkpt lat="43.6184" lon="2.29684">
        <ele>229.177702</ele>
        <time>2021-10-18T11:57:30.000Z</time>
      </trkpt>
      <trkpt lat="43.61839" lon="2.29685">
        <ele>229.324565</ele>
        <time>2021-10-18T11:57:31.000Z</time>
      </trkpt>
      <trkpt lat="43.61838" lon="2.29687">
        <ele>229.51679</ele>
        <time>2021-10-18T11:57:32.000Z</time>
      </trkpt>
      <trkpt lat="43.61838" lon="2.29689">
        <ele>229.76536</ele>
        <time>2021-10-18T11:57:33.000Z</time>
      </trkpt>
      <trkpt lat="43.61837" lon="2.29691">
        <ele>229.964065</ele>
        <time>2021-10-18T11:57:34.000Z</time>
      </trkpt>
      <trkpt lat="43.61836" lon="2.29693">
        <ele>230.19294</ele>
        <time>2021-10-18T11:57:35.000Z</time>
      </trkpt>
      <trkpt lat="43.61835" lon="2.29695">
        <ele>230.368816</ele>
        <time>2021-10-18T11:57:36.000Z</time>
      </trkpt>
      <trkpt lat="43.61835" lon="2.29696">
        <ele>230.51041</ele>
        <time>2021-10-18T11:57:37.000Z</time>
      </trkpt>
      <trkpt lat="43.61834" lon="2.29697">
        <ele>230.620995</ele>
        <time>2021-10-18T11:57:38.000Z</time>
      </trkpt>
      <trkpt lat="43.61834" lon="2.29698">
        <ele>230.74528</ele>
        <time>2021-10-18T11:57:39.000Z</time>
      </trkpt>
      <trkpt lat="43.61833" lon="2.297">
        <ele>230.935471</ele>
        <time>2021-10-18T11:57:40.000Z</time>
      </trkpt>
      <trkpt lat="43.61833" lon="2.29702">
        <ele>231.127696</ele>
        <time>2021-10-18T11:57:41.000Z</time>
      </trkpt>
      <trkpt lat="43.61832" lon="2.29704">
        <ele>231.304834</ele>
        <time>2021-10-18T11:57:42.000Z</time>
      </trkpt>
      <trkpt lat="43.61832" lon="2.29706">
        <ele>231.511615</ele>
        <time>2021-10-18T11:57:43.000Z</time>
      </trkpt>
      <trkpt lat="43.61831" lon="2.29708">
        <ele>231.70384</ele>
        <time>2021-10-18T11:57:44.000Z</time>
      </trkpt>
      <trkpt lat="43.6183" lon="2.2971">
        <ele>231.902898</ele>
        <time>2021-10-18T11:57:45.000Z</time>
      </trkpt>
      <trkpt lat="43.6183" lon="2.29711">
        <ele>232.084275</ele>
        <time>2021-10-18T11:57:46.000Z</time>
      </trkpt>
      <trkpt lat="43.6183" lon="2.29713">
        <ele>232.244734</ele>
        <time>2021-10-18T11:57:47.000Z</time>
      </trkpt>
      <trkpt lat="43.61829" lon="2.29715">
        <ele>232.403981</ele>
        <time>2021-10-18T11:57:48.000Z</time>
      </trkpt>
      <trkpt lat="43.61829" lon="2.29717">
        <ele>232.590133</ele>
        <time>2021-10-18T11:57:49.000Z</time>
      </trkpt>
      <trkpt lat="43.61829" lon="2.29718">
        <ele>232.767271</ele>
        <time>2021-10-18T11:57:50.000Z</time>
      </trkpt>
      <trkpt lat="43.61828" lon="2.29721">
        <ele>232.971558</ele>
        <time>2021-10-18T11:57:51.000Z</time>
      </trkpt>
      <trkpt lat="43.61828" lon="2.29723">
        <ele>233.215562</ele>
        <time>2021-10-18T11:57:52.000Z</time>
      </trkpt>
      <trkpt lat="43.61827" lon="2.29726">
        <ele>233.484269</ele>
        <time>2021-10-18T11:57:53.000Z</time>
      </trkpt>
      <trkpt lat="43.61826" lon="2.29728">
        <ele>233.697667</ele>
        <time>2021-10-18T11:57:54.000Z</time>
      </trkpt>
      <trkpt lat="43.61825" lon="2.2973">
        <ele>233.954813</ele>
        <time>2021-10-18T11:57:55.000Z</time>
      </trkpt>
      <trkpt lat="43.61825" lon="2.29732">
        <ele>234.079988</ele>
        <time>2021-10-18T11:57:56.000Z</time>
      </trkpt>
      <trkpt lat="43.61824" lon="2.29734">
        <ele>234.187253</ele>
        <time>2021-10-18T11:57:57.000Z</time>
      </trkpt>
      <trkpt lat="43.61823" lon="2.29736">
        <ele>234.318891</ele>
        <time>2021-10-18T11:57:58.000Z</time>
      </trkpt>
      <trkpt lat="43.61822" lon="2.29738">
        <ele>234.44392</ele>
        <time>2021-10-18T11:57:59.000Z</time>
      </trkpt>
      <trkpt lat="43.61821" lon="2.29741">
        <ele>234.596255</ele>
        <time>2021-10-18T11:58:00.000Z</time>
      </trkpt>
      <trkpt lat="43.6182" lon="2.29743">
        <ele>234.745774</ele>
        <time>2021-10-18T11:58:01.000Z</time>
      </trkpt>
      <trkpt lat="43.61819" lon="2.29746">
        <ele>234.884588</ele>
        <time>2021-10-18T11:58:02.000Z</time>
      </trkpt>
      <trkpt lat="43.61818" lon="2.29749">
        <ele>235.02806</ele>
        <time>2021-10-18T11:58:03.000Z</time>
      </trkpt>
      <trkpt lat="43.61817" lon="2.29751">
        <ele>235.154769</ele>
        <time>2021-10-18T11:58:04.000Z</time>
      </trkpt>
      <trkpt lat="43.61817" lon="2.29753">
        <ele>235.283101</ele>
        <time>2021-10-18T11:58:05.000Z</time>
      </trkpt>
      <trkpt lat="43.61815" lon="2.29755">
        <ele>235.418885</ele>
        <time>2021-10-18T11:58:06.000Z</time>
      </trkpt>
      <trkpt lat="43.61814" lon="2.29757">
        <ele>235.554754</ele>
        <time>2021-10-18T11:58:07.000Z</time>
      </trkpt>
      <trkpt lat="43.61813" lon="2.29759">
        <ele>235.670065</ele>
        <time>2021-10-18T11:58:08.000Z</time>
      </trkpt>
      <trkpt lat="43.61813" lon="2.29761">
        <ele>235.763253</ele>
        <time>2021-10-18T11:58:09.000Z</time>
      </trkpt>
      <trkpt lat="43.61812" lon="2.29763">
        <ele>235.880664</ele>
        <time>2021-10-18T11:58:10.000Z</time>
      </trkpt>
      <trkpt lat="43.61812" lon="2.29765">
        <ele>235.983334</ele>
        <time>2021-10-18T11:58:11.000Z</time>
      </trkpt>
      <trkpt lat="43.61811" lon="2.29767">
        <ele>236.102962</ele>
        <time>2021-10-18T11:58:12.000Z</time>
      </trkpt>
      <trkpt lat="43.6181" lon="2.29768">
        <ele>236.201714</ele>
        <time>2021-10-18T11:58:13.000Z</time>
      </trkpt>
      <trkpt lat="43.61809" lon="2.2977">
        <ele>236.300467</ele>
        <time>2021-10-18T11:58:14.000Z</time>
      </trkpt>
      <trkpt lat="43.61808" lon="2.29772">
        <ele>236.419764</ele>
        <time>2021-10-18T11:58:15.000Z</time>
      </trkpt>
      <trkpt lat="43.61807" lon="2.29774">
        <ele>236.536868</ele>
        <time>2021-10-18T11:58:16.000Z</time>
      </trkpt>
      <trkpt lat="43.61806" lon="2.29776">
        <ele>236.668788</ele>
        <time>2021-10-18T11:58:17.000Z</time>
      </trkpt>
      <trkpt lat="43.61805" lon="2.29778">
        <ele>236.813046</ele>
        <time>2021-10-18T11:58:18.000Z</time>
      </trkpt>
      <trkpt lat="43.61804" lon="2.29781">
        <ele>236.952936</ele>
        <time>2021-10-18T11:58:19.000Z</time>
      </trkpt>
      <trkpt lat="43.61803" lon="2.29783">
        <ele>237.080494</ele>
        <time>2021-10-18T11:58:20.000Z</time>
      </trkpt>
      <trkpt lat="43.61802" lon="2.29785">
        <ele>237.216363</ele>
        <time>2021-10-18T11:58:21.000Z</time>
      </trkpt>
      <trkpt lat="43.61801" lon="2.29787">
        <ele>237.352148</ele>
        <time>2021-10-18T11:58:22.000Z</time>
      </trkpt>
      <trkpt lat="43.61799" lon="2.29789">
        <ele>237.504483</ele>
        <time>2021-10-18T11:58:23.000Z</time>
      </trkpt>
      <trkpt lat="43.61798" lon="2.29792">
        <ele>237.63726</ele>
        <time>2021-10-18T11:58:24.000Z</time>
      </trkpt>
      <trkpt lat="43.61798" lon="2.29794">
        <ele>237.751915</ele>
        <time>2021-10-18T11:58:25.000Z</time>
      </trkpt>
      <trkpt lat="43.61797" lon="2.29796">
        <ele>237.875356</ele>
        <time>2021-10-18T11:58:26.000Z</time>
      </trkpt>
      <trkpt lat="43.61796" lon="2.29798">
        <ele>237.990667</ele>
        <time>2021-10-18T11:58:27.000Z</time>
      </trkpt>
      <trkpt lat="43.61795" lon="2.29799">
        <ele>238.101909</ele>
        <time>2021-10-18T11:58:28.000Z</time>
      </trkpt>
      <trkpt lat="43.61794" lon="2.29801">
        <ele>238.208866</ele>
        <time>2021-10-18T11:58:29.000Z</time>
      </trkpt>
      <trkpt lat="43.61793" lon="2.29803">
        <ele>238.332307</ele>
        <time>2021-10-18T11:58:30.000Z</time>
      </trkpt>
      <trkpt lat="43.61792" lon="2.29805">
        <ele>238.448351</ele>
        <time>2021-10-18T11:58:31.000Z</time>
      </trkpt>
      <trkpt lat="43.61791" lon="2.29807">
        <ele>238.563663</ele>
        <time>2021-10-18T11:58:32.000Z</time>
      </trkpt>
      <trkpt lat="43.6179" lon="2.29809">
        <ele>238.691221</ele>
        <time>2021-10-18T11:58:33.000Z</time>
      </trkpt>
      <trkpt lat="43.61789" lon="2.29811">
        <ele>238.827006</ele>
        <time>2021-10-18T11:58:34.000Z</time>
      </trkpt>
      <trkpt lat="43.61788" lon="2.29813">
        <ele>238.958644</ele>
        <time>2021-10-18T11:58:35.000Z</time>
      </trkpt>
      <trkpt lat="43.61787" lon="2.29815">
        <ele>239.06591</ele>
        <time>2021-10-18T11:58:36.000Z</time>
      </trkpt>
      <trkpt lat="43.61786" lon="2.29817">
        <ele>239.177535</ele>
        <time>2021-10-18T11:58:37.000Z</time>
      </trkpt>
      <trkpt lat="43.61785" lon="2.29819">
        <ele>239.309456</ele>
        <time>2021-10-18T11:58:38.000Z</time>
      </trkpt>
      <trkpt lat="43.61784" lon="2.29821">
        <ele>239.452225</ele>
        <time>2021-10-18T11:58:39.000Z</time>
      </trkpt>
      <trkpt lat="43.61783" lon="2.29823">
        <ele>239.563467</ele>
        <time>2021-10-18T11:58:40.000Z</time>
      </trkpt>
      <trkpt lat="43.61782" lon="2.29824">
        <ele>239.66222</ele>
        <time>2021-10-18T11:58:41.000Z</time>
      </trkpt>
      <trkpt lat="43.61781" lon="2.29826">
        <ele>239.76116</ele>
        <time>2021-10-18T11:58:42.000Z</time>
      </trkpt>
      <trkpt lat="43.6178" lon="2.29827">
        <ele>239.876954</ele>
        <time>2021-10-18T11:58:43.000Z</time>
      </trkpt>
      <trkpt lat="43.61779" lon="2.29829">
        <ele>239.988196</ele>
        <time>2021-10-18T11:58:44.000Z</time>
      </trkpt>
      <trkpt lat="43.61778" lon="2.29831">
        <ele>240.081385</ele>
        <time>2021-10-18T11:58:45.000Z</time>
      </trkpt>
      <trkpt lat="43.61777" lon="2.29833">
        <ele>240.213305</ele>
        <time>2021-10-18T11:58:46.000Z</time>
      </trkpt>
      <trkpt lat="43.61776" lon="2.29835">
        <ele>240.349174</ele>
        <time>2021-10-18T11:58:47.000Z</time>
      </trkpt>
      <trkpt lat="43.61775" lon="2.29836">
        <ele>240.467513</ele>
        <time>2021-10-18T11:58:48.000Z</time>
      </trkpt>
      <trkpt lat="43.61774" lon="2.29837">
        <ele>240.562777</ele>
        <time>2021-10-18T11:58:49.000Z</time>
      </trkpt>
      <trkpt lat="43.61773" lon="2.29839">
        <ele>240.653356</ele>
        <time>2021-10-18T11:58:50.000Z</time>
      </trkpt>
      <trkpt lat="43.61772" lon="2.2984">
        <ele>240.756329</ele>
        <time>2021-10-18T11:58:51.000Z</time>
      </trkpt>
      <trkpt lat="43.61771" lon="2.29842">
        <ele>240.875957</ele>
        <time>2021-10-18T11:58:52.000Z</time>
      </trkpt>
      <trkpt lat="43.6177" lon="2.29844">
        <ele>240.978859</ele>
        <time>2021-10-18T11:58:53.000Z</time>
      </trkpt>
      <trkpt lat="43.61769" lon="2.29845">
        <ele>241.097685</ele>
        <time>2021-10-18T11:58:54.000Z</time>
      </trkpt>
      <trkpt lat="43.61768" lon="2.29847">
        <ele>241.19277</ele>
        <time>2021-10-18T11:58:55.000Z</time>
      </trkpt>
      <trkpt lat="43.61767" lon="2.29848">
        <ele>241.308564</ele>
        <time>2021-10-18T11:58:56.000Z</time>
      </trkpt>
      <trkpt lat="43.61765" lon="2.2985">
        <ele>241.436616</ele>
        <time>2021-10-18T11:58:57.000Z</time>
      </trkpt>
      <trkpt lat="43.61764" lon="2.29853">
        <ele>241.57661</ele>
        <time>2021-10-18T11:58:58.000Z</time>
      </trkpt>
      <trkpt lat="43.61763" lon="2.29855">
        <ele>241.708248</ele>
        <time>2021-10-18T11:58:59.000Z</time>
      </trkpt>
      <trkpt lat="43.61762" lon="2.29857">
        <ele>241.824292</ele>
        <time>2021-10-18T11:59:00.000Z</time>
      </trkpt>
      <trkpt lat="43.61761" lon="2.29859">
        <ele>241.968272</ele>
        <time>2021-10-18T11:59:01.000Z</time>
      </trkpt>
      <trkpt lat="43.6176" lon="2.29861">
        <ele>242.108266</ele>
        <time>2021-10-18T11:59:02.000Z</time>
      </trkpt>
      <trkpt lat="43.61759" lon="2.29864">
        <ele>242.256396</ele>
        <time>2021-10-18T11:59:03.000Z</time>
      </trkpt>
      <trkpt lat="43.61758" lon="2.29866">
        <ele>242.404525</ele>
        <time>2021-10-18T11:59:04.000Z</time>
      </trkpt>
      <trkpt lat="43.61756" lon="2.29868">
        <ele>242.561739</ele>
        <time>2021-10-18T11:59:05.000Z</time>
      </trkpt>
      <trkpt lat="43.61755" lon="2.29871">
        <ele>242.702371</ele>
        <time>2021-10-18T11:59:06.000Z</time>
      </trkpt>
      <trkpt lat="43.61754" lon="2.29873">
        <ele>242.822885</ele>
        <time>2021-10-18T11:59:07.000Z</time>
      </trkpt>
      <trkpt lat="43.61754" lon="2.29875">
        <ele>242.949594</ele>
        <time>2021-10-18T11:59:08.000Z</time>
      </trkpt>
      <trkpt lat="43.61753" lon="2.29878">
        <ele>243.082372</ele>
        <time>2021-10-18T11:59:09.000Z</time>
      </trkpt>
      <trkpt lat="43.61752" lon="2.2988">
        <ele>243.226631</ele>
        <time>2021-10-18T11:59:10.000Z</time>
      </trkpt>
      <trkpt lat="43.61751" lon="2.29882">
        <ele>243.378967</ele>
        <time>2021-10-18T11:59:11.000Z</time>
      </trkpt>
      <trkpt lat="43.6175" lon="2.29885">
        <ele>243.515221</ele>
        <time>2021-10-18T11:59:12.000Z</time>
      </trkpt>
      <trkpt lat="43.61749" lon="2.29887">
        <ele>243.640252</ele>
        <time>2021-10-18T11:59:13.000Z</time>
      </trkpt>
      <trkpt lat="43.61748" lon="2.29889">
        <ele>243.766961</ele>
        <time>2021-10-18T11:59:14.000Z</time>
      </trkpt>
      <trkpt lat="43.61748" lon="2.29891">
        <ele>243.867451</ele>
        <time>2021-10-18T11:59:15.000Z</time>
      </trkpt>
      <trkpt lat="43.61747" lon="2.29893">
        <ele>243.987966</ele>
        <time>2021-10-18T11:59:16.000Z</time>
      </trkpt>
      <trkpt lat="43.61746" lon="2.29895">
        <ele>244.10848</ele>
        <time>2021-10-18T11:59:17.000Z</time>
      </trkpt>
      <trkpt lat="43.61745" lon="2.29897">
        <ele>244.220106</ele>
        <time>2021-10-18T11:59:18.000Z</time>
      </trkpt>
      <trkpt lat="43.61744" lon="2.299">
        <ele>244.364365</ele>
        <time>2021-10-18T11:59:19.000Z</time>
      </trkpt>
      <trkpt lat="43.61743" lon="2.29902">
        <ele>244.50318</ele>
        <time>2021-10-18T11:59:20.000Z</time>
      </trkpt>
      <trkpt lat="43.61742" lon="2.29904">
        <ele>244.626733</ele>
        <time>2021-10-18T11:59:21.000Z</time>
      </trkpt>
      <trkpt lat="43.61742" lon="2.29906">
        <ele>244.739552</ele>
        <time>2021-10-18T11:59:22.000Z</time>
      </trkpt>
      <trkpt lat="43.61741" lon="2.29908">
        <ele>244.864583</ele>
        <time>2021-10-18T11:59:23.000Z</time>
      </trkpt>
      <trkpt lat="43.6174" lon="2.2991">
        <ele>244.98852</ele>
        <time>2021-10-18T11:59:24.000Z</time>
      </trkpt>
      <trkpt lat="43.61739" lon="2.29912">
        <ele>245.116173</ele>
        <time>2021-10-18T11:59:25.000Z</time>
      </trkpt>
      <trkpt lat="43.61738" lon="2.29914">
        <ele>245.235768</ele>
        <time>2021-10-18T11:59:26.000Z</time>
      </trkpt>
      <trkpt lat="43.61737" lon="2.29917">
        <ele>245.388705</ele>
        <time>2021-10-18T11:59:27.000Z</time>
      </trkpt>
      <trkpt lat="43.61736" lon="2.2992">
        <ele>245.541643</ele>
        <time>2021-10-18T11:59:28.000Z</time>
      </trkpt>
      <trkpt lat="43.61735" lon="2.29922">
        <ele>245.662158</ele>
        <time>2021-10-18T11:59:29.000Z</time>
      </trkpt>
      <trkpt lat="43.61734" lon="2.29924">
        <ele>245.806417</ele>
        <time>2021-10-18T11:59:30.000Z</time>
      </trkpt>
      <trkpt lat="43.61733" lon="2.29927">
        <ele>245.952066</ele>
        <time>2021-10-18T11:59:31.000Z</time>
      </trkpt>
      <trkpt lat="43.61732" lon="2.2993">
        <ele>246.107316</ele>
        <time>2021-10-18T11:59:32.000Z</time>
      </trkpt>
      <trkpt lat="43.61732" lon="2.29933">
        <ele>246.276226</ele>
        <time>2021-10-18T11:59:33.000Z</time>
      </trkpt>
      <trkpt lat="43.61732" lon="2.29937">
        <ele>246.46934</ele>
        <time>2021-10-18T11:59:34.000Z</time>
      </trkpt>
      <trkpt lat="43.61733" lon="2.29941">
        <ele>246.63049</ele>
        <time>2021-10-18T11:59:35.000Z</time>
      </trkpt>
      <trkpt lat="43.61733" lon="2.29944">
        <ele>246.717202</ele>
        <time>2021-10-18T11:59:36.000Z</time>
      </trkpt>
      <trkpt lat="43.61732" lon="2.29947">
        <ele>246.801436</ele>
        <time>2021-10-18T11:59:37.000Z</time>
      </trkpt>
      <trkpt lat="43.61732" lon="2.29951">
        <ele>246.884926</ele>
        <time>2021-10-18T11:59:38.000Z</time>
      </trkpt>
      <trkpt lat="43.61731" lon="2.29954">
        <ele>246.965312</ele>
        <time>2021-10-18T11:59:39.000Z</time>
      </trkpt>
      <trkpt lat="43.6173" lon="2.29956">
        <ele>247.039714</ele>
        <time>2021-10-18T11:59:40.000Z</time>
      </trkpt>
      <trkpt lat="43.6173" lon="2.29959">
        <ele>247.114117</ele>
        <time>2021-10-18T11:59:41.000Z</time>
      </trkpt>
      <trkpt lat="43.61729" lon="2.29962">
        <ele>247.193131</ele>
        <time>2021-10-18T11:59:42.000Z</time>
      </trkpt>
      <trkpt lat="43.61728" lon="2.29965">
        <ele>247.271262</ele>
        <time>2021-10-18T11:59:43.000Z</time>
      </trkpt>
      <trkpt lat="43.61727" lon="2.29968">
        <ele>247.354081</ele>
        <time>2021-10-18T11:59:44.000Z</time>
      </trkpt>
      <trkpt lat="43.61726" lon="2.2997">
        <ele>247.422689</ele>
        <time>2021-10-18T11:59:45.000Z</time>
      </trkpt>
      <trkpt lat="43.61725" lon="2.29973">
        <ele>247.494738</ele>
        <time>2021-10-18T11:59:46.000Z</time>
      </trkpt>
      <trkpt lat="43.61724" lon="2.29976">
        <ele>247.579926</ele>
        <time>2021-10-18T11:59:47.000Z</time>
      </trkpt>
      <trkpt lat="43.61723" lon="2.29978">
        <ele>247.65894</ele>
        <time>2021-10-18T11:59:48.000Z</time>
      </trkpt>
      <trkpt lat="43.61722" lon="2.29982">
        <ele>247.752522</ele>
        <time>2021-10-18T11:59:49.000Z</time>
      </trkpt>
      <trkpt lat="43.6172" lon="2.29984">
        <ele>247.839306</ele>
        <time>2021-10-18T11:59:50.000Z</time>
      </trkpt>
      <trkpt lat="43.61719" lon="2.29987">
        <ele>247.926718</ele>
        <time>2021-10-18T11:59:51.000Z</time>
      </trkpt>
      <trkpt lat="43.61718" lon="2.29991">
        <ele>248.023942</ele>
        <time>2021-10-18T11:59:52.000Z</time>
      </trkpt>
      <trkpt lat="43.61717" lon="2.29993">
        <ele>248.100441</ele>
        <time>2021-10-18T11:59:53.000Z</time>
      </trkpt>
      <trkpt lat="43.61715" lon="2.29996">
        <ele>248.18514</ele>
        <time>2021-10-18T11:59:54.000Z</time>
      </trkpt>
      <trkpt lat="43.61714" lon="2.29998">
        <ele>248.259527</ele>
        <time>2021-10-18T11:59:55.000Z</time>
      </trkpt>
      <trkpt lat="43.61713" lon="2.30001">
        <ele>248.344715</ele>
        <time>2021-10-18T11:59:56.000Z</time>
      </trkpt>
      <trkpt lat="43.61711" lon="2.30004">
        <ele>248.435612</ele>
        <time>2021-10-18T11:59:57.000Z</time>
      </trkpt>
      <trkpt lat="43.6171" lon="2.30007">
        <ele>248.517533</ele>
        <time>2021-10-18T11:59:58.000Z</time>
      </trkpt>
      <trkpt lat="43.61709" lon="2.3001">
        <ele>248.59488</ele>
        <time>2021-10-18T11:59:59.000Z</time>
      </trkpt>
      <trkpt lat="43.61708" lon="2.30012">
        <ele>248.685777</ele>
        <time>2021-10-18T12:00:00.000Z</time>
      </trkpt>
      <trkpt lat="43.61706" lon="2.30015">
        <ele>248.768586</ele>
        <time>2021-10-18T12:00:01.000Z</time>
      </trkpt>
      <trkpt lat="43.61705" lon="2.30018">
        <ele>248.855383</ele>
        <time>2021-10-18T12:00:02.000Z</time>
      </trkpt>
      <trkpt lat="43.61703" lon="2.30021">
        <ele>248.950413</ele>
        <time>2021-10-18T12:00:03.000Z</time>
      </trkpt>
      <trkpt lat="43.61701" lon="2.30024">
        <ele>249.051761</ele>
        <time>2021-10-18T12:00:04.000Z</time>
      </trkpt>
      <trkpt lat="43.617" lon="2.30027">
        <ele>249.139173</ele>
        <time>2021-10-18T12:00:05.000Z</time>
      </trkpt>
      <trkpt lat="43.61699" lon="2.3003">
        <ele>249.23007</ele>
        <time>2021-10-18T12:00:06.000Z</time>
      </trkpt>
      <trkpt lat="43.61697" lon="2.30032">
        <ele>249.310677</ele>
        <time>2021-10-18T12:00:07.000Z</time>
      </trkpt>
      <trkpt lat="43.61696" lon="2.30035">
        <ele>249.38508</ele>
        <time>2021-10-18T12:00:08.000Z</time>
      </trkpt>
      <trkpt lat="43.61695" lon="2.30038">
        <ele>249.47207</ele>
        <time>2021-10-18T12:00:09.000Z</time>
      </trkpt>
      <trkpt lat="43.61694" lon="2.30041">
        <ele>249.565252</ele>
        <time>2021-10-18T12:00:10.000Z</time>
      </trkpt>
      <trkpt lat="43.61693" lon="2.30044">
        <ele>249.648236</ele>
        <time>2021-10-18T12:00:11.000Z</time>
      </trkpt>
      <trkpt lat="43.61691" lon="2.30046">
        <ele>249.725038</ele>
        <time>2021-10-18T12:00:12.000Z</time>
      </trkpt>
      <trkpt lat="43.6169" lon="2.30049">
        <ele>249.79534</ele>
        <time>2021-10-18T12:00:13.000Z</time>
      </trkpt>
      <trkpt lat="43.6169" lon="2.30051">
        <ele>249.856627</ele>
        <time>2021-10-18T12:00:14.000Z</time>
      </trkpt>
      <trkpt lat="43.61689" lon="2.30053">
        <ele>249.917146</ele>
        <time>2021-10-18T12:00:15.000Z</time>
      </trkpt>
      <trkpt lat="43.61688" lon="2.30055">
        <ele>249.979384</ele>
        <time>2021-10-18T12:00:16.000Z</time>
      </trkpt>
      <trkpt lat="43.61687" lon="2.30057">
        <ele>250.059991</ele>
        <time>2021-10-18T12:00:17.000Z</time>
      </trkpt>
      <trkpt lat="43.61686" lon="2.3006">
        <ele>250.125068</ele>
        <time>2021-10-18T12:00:18.000Z</time>
      </trkpt>
      <trkpt lat="43.61685" lon="2.30062">
        <ele>250.197372</ele>
        <time>2021-10-18T12:00:19.000Z</time>
      </trkpt>
      <trkpt lat="43.61683" lon="2.30064">
        <ele>250.267673</ele>
        <time>2021-10-18T12:00:20.000Z</time>
      </trkpt>
      <trkpt lat="43.61682" lon="2.30067">
        <ele>250.346174</ele>
        <time>2021-10-18T12:00:21.000Z</time>
      </trkpt>
      <trkpt lat="43.6168" lon="2.30069">
        <ele>250.436096</ele>
        <time>2021-10-18T12:00:22.000Z</time>
      </trkpt>
      <trkpt lat="43.61679" lon="2.30072">
        <ele>250.514597</ele>
        <time>2021-10-18T12:00:23.000Z</time>
      </trkpt>
      <trkpt lat="43.61677" lon="2.30075">
        <ele>250.613968</ele>
        <time>2021-10-18T12:00:24.000Z</time>
      </trkpt>
      <trkpt lat="43.61676" lon="2.30078">
        <ele>250.700766</ele>
        <time>2021-10-18T12:00:25.000Z</time>
      </trkpt>
      <trkpt lat="43.61674" lon="2.3008">
        <ele>250.783973</ele>
        <time>2021-10-18T12:00:26.000Z</time>
      </trkpt>
      <trkpt lat="43.61673" lon="2.30083">
        <ele>250.868672</ele>
        <time>2021-10-18T12:00:27.000Z</time>
      </trkpt>
      <trkpt lat="43.61672" lon="2.30085">
        <ele>250.937095</ele>
        <time>2021-10-18T12:00:28.000Z</time>
      </trkpt>
      <trkpt lat="43.61671" lon="2.30087">
        <ele>250.997615</ele>
        <time>2021-10-18T12:00:29.000Z</time>
      </trkpt>
      <trkpt lat="43.6167" lon="2.30089">
        <ele>251.066038</ele>
        <time>2021-10-18T12:00:30.000Z</time>
      </trkpt>
      <trkpt lat="43.61668" lon="2.30092">
        <ele>251.148102</ele>
        <time>2021-10-18T12:00:31.000Z</time>
      </trkpt>
      <trkpt lat="43.61666" lon="2.30094">
        <ele>251.246619</ele>
        <time>2021-10-18T12:00:32.000Z</time>
      </trkpt>
      <trkpt lat="43.61665" lon="2.30097">
        <ele>251.327205</ele>
        <time>2021-10-18T12:00:33.000Z</time>
      </trkpt>
      <trkpt lat="43.61663" lon="2.301">
        <ele>251.426576</ele>
        <time>2021-10-18T12:00:34.000Z</time>
      </trkpt>
      <trkpt lat="43.61662" lon="2.30103">
        <ele>251.513374</ele>
        <time>2021-10-18T12:00:35.000Z</time>
      </trkpt>
      <trkpt lat="43.6166" lon="2.30105">
        <ele>251.592012</ele>
        <time>2021-10-18T12:00:36.000Z</time>
      </trkpt>
      <trkpt lat="43.61659" lon="2.30108">
        <ele>251.672874</ele>
        <time>2021-10-18T12:00:37.000Z</time>
      </trkpt>
      <trkpt lat="43.61657" lon="2.3011">
        <ele>251.753736</ele>
        <time>2021-10-18T12:00:38.000Z</time>
      </trkpt>
      <trkpt lat="43.61656" lon="2.30112">
        <ele>251.835086</ele>
        <time>2021-10-18T12:00:39.000Z</time>
      </trkpt>
      <trkpt lat="43.61654" lon="2.30115">
        <ele>251.92392</ele>
        <time>2021-10-18T12:00:40.000Z</time>
      </trkpt>
      <trkpt lat="43.61653" lon="2.30118">
        <ele>252.008753</ele>
        <time>2021-10-18T12:00:41.000Z</time>
      </trkpt>
      <trkpt lat="43.61652" lon="2.30121">
        <ele>252.08838</ele>
        <time>2021-10-18T12:00:42.000Z</time>
      </trkpt>
      <trkpt lat="43.61651" lon="2.30124">
        <ele>252.175371</ele>
        <time>2021-10-18T12:00:43.000Z</time>
      </trkpt>
      <trkpt lat="43.6165" lon="2.30126">
        <ele>252.241621</ele>
        <time>2021-10-18T12:00:44.000Z</time>
      </trkpt>
      <trkpt lat="43.61648" lon="2.30128">
        <ele>252.32443</ele>
        <time>2021-10-18T12:00:45.000Z</time>
      </trkpt>
      <trkpt lat="43.61647" lon="2.30131">
        <ele>252.415459</ele>
        <time>2021-10-18T12:00:46.000Z</time>
      </trkpt>
      <trkpt lat="43.61646" lon="2.30134">
        <ele>252.509042</ele>
        <time>2021-10-18T12:00:47.000Z</time>
      </trkpt>
      <trkpt lat="43.61644" lon="2.30137">
        <ele>252.597938</ele>
        <time>2021-10-18T12:00:48.000Z</time>
      </trkpt>
      <trkpt lat="43.61643" lon="2.3014">
        <ele>252.66824</ele>
        <time>2021-10-18T12:00:49.000Z</time>
      </trkpt>
      <trkpt lat="43.61642" lon="2.30142">
        <ele>252.74904</ele>
        <time>2021-10-18T12:00:50.000Z</time>
      </trkpt>
      <trkpt lat="43.61641" lon="2.30145">
        <ele>252.832025</ele>
        <time>2021-10-18T12:00:51.000Z</time>
      </trkpt>
      <trkpt lat="43.61639" lon="2.30148">
        <ele>252.916814</ele>
        <time>2021-10-18T12:00:52.000Z</time>
      </trkpt>
      <trkpt lat="43.61638" lon="2.3015">
        <ele>252.974382</ele>
        <time>2021-10-18T12:00:53.000Z</time>
      </trkpt>
      <trkpt lat="43.61637" lon="2.30152">
        <ele>253.029431</ele>
        <time>2021-10-18T12:00:54.000Z</time>
      </trkpt>
      <trkpt lat="43.61636" lon="2.30154">
        <ele>253.07805</ele>
        <time>2021-10-18T12:00:55.000Z</time>
      </trkpt>
      <trkpt lat="43.61635" lon="2.30156">
        <ele>253.126625</ele>
        <time>2021-10-18T12:00:56.000Z</time>
      </trkpt>
      <trkpt lat="43.61634" lon="2.30158">
        <ele>253.175395</ele>
        <time>2021-10-18T12:00:57.000Z</time>
      </trkpt>
      <trkpt lat="43.61633" lon="2.30161">
        <ele>253.23386</ele>
        <time>2021-10-18T12:00:58.000Z</time>
      </trkpt>
      <trkpt lat="43.61632" lon="2.30163">
        <ele>253.284603</ele>
        <time>2021-10-18T12:00:59.000Z</time>
      </trkpt>
      <trkpt lat="43.61632" lon="2.30165">
        <ele>253.328782</ele>
        <time>2021-10-18T12:01:00.000Z</time>
      </trkpt>
      <trkpt lat="43.61631" lon="2.30167">
        <ele>253.379282</ele>
        <time>2021-10-18T12:01:01.000Z</time>
      </trkpt>
      <trkpt lat="43.61629" lon="2.3017">
        <ele>253.438238</ele>
        <time>2021-10-18T12:01:02.000Z</time>
      </trkpt>
      <trkpt lat="43.61628" lon="2.30172">
        <ele>253.501386</ele>
        <time>2021-10-18T12:01:03.000Z</time>
      </trkpt>
      <trkpt lat="43.61626" lon="2.30175">
        <ele>253.57808</ele>
        <time>2021-10-18T12:01:04.000Z</time>
      </trkpt>
      <trkpt lat="43.61624" lon="2.30177">
        <ele>253.643281</ele>
        <time>2021-10-18T12:01:05.000Z</time>
      </trkpt>
      <trkpt lat="43.61624" lon="2.3018">
        <ele>253.695531</ele>
        <time>2021-10-18T12:01:06.000Z</time>
      </trkpt>
      <trkpt lat="43.61622" lon="2.30182">
        <ele>253.755713</ele>
        <time>2021-10-18T12:01:07.000Z</time>
      </trkpt>
      <trkpt lat="43.61622" lon="2.30185">
        <ele>253.806708</ele>
        <time>2021-10-18T12:01:08.000Z</time>
      </trkpt>
      <trkpt lat="43.6162" lon="2.30187">
        <ele>253.861756</ele>
        <time>2021-10-18T12:01:09.000Z</time>
      </trkpt>
      <trkpt lat="43.61619" lon="2.30189">
        <ele>253.926957</ele>
        <time>2021-10-18T12:01:10.000Z</time>
      </trkpt>
      <trkpt lat="43.61617" lon="2.30192">
        <ele>254.012965</ele>
        <time>2021-10-18T12:01:11.000Z</time>
      </trkpt>
      <trkpt lat="43.61615" lon="2.30196">
        <ele>254.092382</ele>
        <time>2021-10-18T12:01:12.000Z</time>
      </trkpt>
      <trkpt lat="43.61614" lon="2.30198">
        <ele>254.158822</ele>
        <time>2021-10-18T12:01:13.000Z</time>
      </trkpt>
      <trkpt lat="43.61612" lon="2.30201">
        <ele>254.228552</ele>
        <time>2021-10-18T12:01:14.000Z</time>
      </trkpt>
      <trkpt lat="43.6161" lon="2.30203">
        <ele>254.298567</ele>
        <time>2021-10-18T12:01:15.000Z</time>
      </trkpt>
      <trkpt lat="43.61609" lon="2.30206">
        <ele>254.361715</ele>
        <time>2021-10-18T12:01:16.000Z</time>
      </trkpt>
      <trkpt lat="43.61608" lon="2.30209">
        <ele>254.426471</ele>
        <time>2021-10-18T12:01:17.000Z</time>
      </trkpt>
      <trkpt lat="43.61606" lon="2.30211">
        <ele>254.48169</ele>
        <time>2021-10-18T12:01:18.000Z</time>
      </trkpt>
      <trkpt lat="43.61605" lon="2.30213">
        <ele>254.540227</ele>
        <time>2021-10-18T12:01:19.000Z</time>
      </trkpt>
      <trkpt lat="43.61604" lon="2.30215">
        <ele>254.598692</ele>
        <time>2021-10-18T12:01:20.000Z</time>
      </trkpt>
      <trkpt lat="43.61603" lon="2.30218">
        <ele>254.65546</ele>
        <time>2021-10-18T12:01:21.000Z</time>
      </trkpt>
      <trkpt lat="43.61602" lon="2.3022">
        <ele>254.710549</ele>
        <time>2021-10-18T12:01:22.000Z</time>
      </trkpt>
      <trkpt lat="43.616" lon="2.30223">
        <ele>254.790592</ele>
        <time>2021-10-18T12:01:23.000Z</time>
      </trkpt>
      <trkpt lat="43.61598" lon="2.30225">
        <ele>254.848882</ele>
        <time>2021-10-18T12:01:24.000Z</time>
      </trkpt>
      <trkpt lat="43.61597" lon="2.30228">
        <ele>254.909492</ele>
        <time>2021-10-18T12:01:25.000Z</time>
      </trkpt>
      <trkpt lat="43.61596" lon="2.30231">
        <ele>254.96529</ele>
        <time>2021-10-18T12:01:26.000Z</time>
      </trkpt>
      <trkpt lat="43.61595" lon="2.30233">
        <ele>255.024128</ele>
        <time>2021-10-18T12:01:27.000Z</time>
      </trkpt>
      <trkpt lat="43.61595" lon="2.30236">
        <ele>255.078144</ele>
        <time>2021-10-18T12:01:28.000Z</time>
      </trkpt>
      <trkpt lat="43.61593" lon="2.30238">
        <ele>255.14006</ele>
        <time>2021-10-18T12:01:29.000Z</time>
      </trkpt>
      <trkpt lat="43.61592" lon="2.30241">
        <ele>255.211391</ele>
        <time>2021-10-18T12:01:30.000Z</time>
      </trkpt>
      <trkpt lat="43.6159" lon="2.30244">
        <ele>255.286225</ele>
        <time>2021-10-18T12:01:31.000Z</time>
      </trkpt>
      <trkpt lat="43.61589" lon="2.30247">
        <ele>255.34782</ele>
        <time>2021-10-18T12:01:32.000Z</time>
      </trkpt>
      <trkpt lat="43.61588" lon="2.30249">
        <ele>255.407723</ele>
        <time>2021-10-18T12:01:33.000Z</time>
      </trkpt>
      <trkpt lat="43.61586" lon="2.30252">
        <ele>255.492208</ele>
        <time>2021-10-18T12:01:34.000Z</time>
      </trkpt>
      <trkpt lat="43.61584" lon="2.30255">
        <ele>255.567042</ele>
        <time>2021-10-18T12:01:35.000Z</time>
      </trkpt>
      <trkpt lat="43.61582" lon="2.30257">
        <ele>255.627095</ele>
        <time>2021-10-18T12:01:36.000Z</time>
      </trkpt>
      <trkpt lat="43.61581" lon="2.3026">
        <ele>255.683752</ele>
        <time>2021-10-18T12:01:37.000Z</time>
      </trkpt>
      <trkpt lat="43.61579" lon="2.30262">
        <ele>255.752297</ele>
        <time>2021-10-18T12:01:38.000Z</time>
      </trkpt>
      <trkpt lat="43.61577" lon="2.30265">
        <ele>255.839621</ele>
        <time>2021-10-18T12:01:39.000Z</time>
      </trkpt>
      <trkpt lat="43.61575" lon="2.30268">
        <ele>255.918817</ele>
        <time>2021-10-18T12:01:40.000Z</time>
      </trkpt>
      <trkpt lat="43.61574" lon="2.3027">
        <ele>255.982133</ele>
        <time>2021-10-18T12:01:41.000Z</time>
      </trkpt>
      <trkpt lat="43.61572" lon="2.30274">
        <ele>256.056854</ele>
        <time>2021-10-18T12:01:42.000Z</time>
      </trkpt>
      <trkpt lat="43.61571" lon="2.30276">
        <ele>256.12333</ele>
        <time>2021-10-18T12:01:43.000Z</time>
      </trkpt>
      <trkpt lat="43.61569" lon="2.3028">
        <ele>256.207816</ele>
        <time>2021-10-18T12:01:44.000Z</time>
      </trkpt>
      <trkpt lat="43.61567" lon="2.30283">
        <ele>256.285684</ele>
        <time>2021-10-18T12:01:45.000Z</time>
      </trkpt>
      <trkpt lat="43.61566" lon="2.30285">
        <ele>256.352369</ele>
        <time>2021-10-18T12:01:46.000Z</time>
      </trkpt>
      <trkpt lat="43.61564" lon="2.30288">
        <ele>256.427203</ele>
        <time>2021-10-18T12:01:47.000Z</time>
      </trkpt>
      <trkpt lat="43.61562" lon="2.30291">
        <ele>256.495219</ele>
        <time>2021-10-18T12:01:48.000Z</time>
      </trkpt>
      <trkpt lat="43.61561" lon="2.30293">
        <ele>256.560109</ele>
        <time>2021-10-18T12:01:49.000Z</time>
      </trkpt>
      <trkpt lat="43.61559" lon="2.30296">
        <ele>256.631397</ele>
        <time>2021-10-18T12:01:50.000Z</time>
      </trkpt>
      <trkpt lat="43.61558" lon="2.30299">
        <ele>256.702728</ele>
        <time>2021-10-18T12:01:51.000Z</time>
      </trkpt>
      <trkpt lat="43.61557" lon="2.30301">
        <ele>256.759495</ele>
        <time>2021-10-18T12:01:52.000Z</time>
      </trkpt>
      <trkpt lat="43.61556" lon="2.30304">
        <ele>256.810491</ele>
        <time>2021-10-18T12:01:53.000Z</time>
      </trkpt>
      <trkpt lat="43.61555" lon="2.30306">
        <ele>256.872112</ele>
        <time>2021-10-18T12:01:54.000Z</time>
      </trkpt>
      <trkpt lat="43.61554" lon="2.30309">
        <ele>256.932058</ele>
        <time>2021-10-18T12:01:55.000Z</time>
      </trkpt>
      <trkpt lat="43.61552" lon="2.30312">
        <ele>257.00167</ele>
        <time>2021-10-18T12:01:56.000Z</time>
      </trkpt>
      <trkpt lat="43.61551" lon="2.30314">
        <ele>257.072898</ele>
        <time>2021-10-18T12:01:57.000Z</time>
      </trkpt>
      <trkpt lat="43.61549" lon="2.30317">
        <ele>257.139339</ele>
        <time>2021-10-18T12:01:58.000Z</time>
      </trkpt>
      <trkpt lat="43.61548" lon="2.30319">
        <ele>257.195997</ele>
        <time>2021-10-18T12:01:59.000Z</time>
      </trkpt>
      <trkpt lat="43.61546" lon="2.30322">
        <ele>257.264192</ele>
        <time>2021-10-18T12:02:00.000Z</time>
      </trkpt>
      <trkpt lat="43.61545" lon="2.30325">
        <ele>257.335523</ele>
        <time>2021-10-18T12:02:01.000Z</time>
      </trkpt>
      <trkpt lat="43.61544" lon="2.30328">
        <ele>257.402278</ele>
        <time>2021-10-18T12:02:02.000Z</time>
      </trkpt>
      <trkpt lat="43.61542" lon="2.3033">
        <ele>257.465427</ele>
        <time>2021-10-18T12:02:03.000Z</time>
      </trkpt>
      <trkpt lat="43.61542" lon="2.30333">
        <ele>257.514198</ele>
        <time>2021-10-18T12:02:04.000Z</time>
      </trkpt>
      <trkpt lat="43.6154" lon="2.30335">
        <ele>257.577514</ele>
        <time>2021-10-18T12:02:05.000Z</time>
      </trkpt>
      <trkpt lat="43.61539" lon="2.30338">
        <ele>257.640662</ele>
        <time>2021-10-18T12:02:06.000Z</time>
      </trkpt>
      <trkpt lat="43.61537" lon="2.30341">
        <ele>257.72032</ele>
        <time>2021-10-18T12:02:07.000Z</time>
      </trkpt>
      <trkpt lat="43.61535" lon="2.30344">
        <ele>257.799737</ele>
        <time>2021-10-18T12:02:08.000Z</time>
      </trkpt>
      <trkpt lat="43.61534" lon="2.30347">
        <ele>257.871026</ele>
        <time>2021-10-18T12:02:09.000Z</time>
      </trkpt>
      <trkpt lat="43.61532" lon="2.3035">
        <ele>257.987093</ele>
        <time>2021-10-18T12:02:10.000Z</time>
      </trkpt>
      <trkpt lat="43.61531" lon="2.30353">
        <ele>258.100297</ele>
        <time>2021-10-18T12:02:11.000Z</time>
      </trkpt>
      <trkpt lat="43.6153" lon="2.30356">
        <ele>258.177555</ele>
        <time>2021-10-18T12:02:12.000Z</time>
      </trkpt>
      <trkpt lat="43.61528" lon="2.30358">
        <ele>258.275731</ele>
        <time>2021-10-18T12:02:13.000Z</time>
      </trkpt>
      <trkpt lat="43.61527" lon="2.30362">
        <ele>258.391153</ele>
        <time>2021-10-18T12:02:14.000Z</time>
      </trkpt>
      <trkpt lat="43.61525" lon="2.30364">
        <ele>258.496795</ele>
        <time>2021-10-18T12:02:15.000Z</time>
      </trkpt>
      <trkpt lat="43.61524" lon="2.30367">
        <ele>258.599342</ele>
        <time>2021-10-18T12:02:16.000Z</time>
      </trkpt>
      <trkpt lat="43.61522" lon="2.30369">
        <ele>258.690841</ele>
        <time>2021-10-18T12:02:17.000Z</time>
      </trkpt>
      <trkpt lat="43.61521" lon="2.30371">
        <ele>258.779152</ele>
        <time>2021-10-18T12:02:18.000Z</time>
      </trkpt>
      <trkpt lat="43.61519" lon="2.30374">
        <ele>258.87981</ele>
        <time>2021-10-18T12:02:19.000Z</time>
      </trkpt>
      <trkpt lat="43.61518" lon="2.30376">
        <ele>258.973536</ele>
        <time>2021-10-18T12:02:20.000Z</time>
      </trkpt>
      <trkpt lat="43.61517" lon="2.30378">
        <ele>259.049639</ele>
        <time>2021-10-18T12:02:21.000Z</time>
      </trkpt>
      <trkpt lat="43.61516" lon="2.3038">
        <ele>259.120938</ele>
        <time>2021-10-18T12:02:22.000Z</time>
      </trkpt>
      <trkpt lat="43.61514" lon="2.30382">
        <ele>259.208127</ele>
        <time>2021-10-18T12:02:23.000Z</time>
      </trkpt>
      <trkpt lat="43.61513" lon="2.30384">
        <ele>259.281786</ele>
        <time>2021-10-18T12:02:24.000Z</time>
      </trkpt>
      <trkpt lat="43.61512" lon="2.30386">
        <ele>259.363165</ele>
        <time>2021-10-18T12:02:25.000Z</time>
      </trkpt>
      <trkpt lat="43.61511" lon="2.30388">
        <ele>259.454664</ele>
        <time>2021-10-18T12:02:26.000Z</time>
      </trkpt>
      <trkpt lat="43.61509" lon="2.30391">
        <ele>259.552771</ele>
        <time>2021-10-18T12:02:27.000Z</time>
      </trkpt>
      <trkpt lat="43.61508" lon="2.30394">
        <ele>259.64246</ele>
        <time>2021-10-18T12:02:28.000Z</time>
      </trkpt>
      <trkpt lat="43.61508" lon="2.30397">
        <ele>259.737991</ele>
        <time>2021-10-18T12:02:29.000Z</time>
      </trkpt>
      <trkpt lat="43.61506" lon="2.30399">
        <ele>259.831348</ele>
        <time>2021-10-18T12:02:30.000Z</time>
      </trkpt>
      <trkpt lat="43.61505" lon="2.30401">
        <ele>259.927923</ele>
        <time>2021-10-18T12:02:31.000Z</time>
      </trkpt>
      <trkpt lat="43.61503" lon="2.30404">
        <ele>260.03255</ele>
        <time>2021-10-18T12:02:32.000Z</time>
      </trkpt>
      <trkpt lat="43.61501" lon="2.30406">
        <ele>260.130859</ele>
        <time>2021-10-18T12:02:33.000Z</time>
      </trkpt>
      <trkpt lat="43.615" lon="2.30408">
        <ele>260.217292</ele>
        <time>2021-10-18T12:02:34.000Z</time>
      </trkpt>
      <trkpt lat="43.61499" lon="2.30411">
        <ele>260.301133</ele>
        <time>2021-10-18T12:02:35.000Z</time>
      </trkpt>
      <trkpt lat="43.61498" lon="2.30413">
        <ele>260.391886</ele>
        <time>2021-10-18T12:02:36.000Z</time>
      </trkpt>
      <trkpt lat="43.61497" lon="2.30416">
        <ele>260.473721</ele>
        <time>2021-10-18T12:02:37.000Z</time>
      </trkpt>
      <trkpt lat="43.61496" lon="2.30418">
        <ele>260.554952</ele>
        <time>2021-10-18T12:02:38.000Z</time>
      </trkpt>
      <trkpt lat="43.61495" lon="2.3042">
        <ele>260.630493</ele>
        <time>2021-10-18T12:02:39.000Z</time>
      </trkpt>
      <trkpt lat="43.61495" lon="2.30423">
        <ele>260.711944</ele>
        <time>2021-10-18T12:02:40.000Z</time>
      </trkpt>
      <trkpt lat="43.61493" lon="2.30426">
        <ele>260.820413</ele>
        <time>2021-10-18T12:02:41.000Z</time>
      </trkpt>
      <trkpt lat="43.61492" lon="2.30429">
        <ele>260.935682</ele>
        <time>2021-10-18T12:02:42.000Z</time>
      </trkpt>
      <trkpt lat="43.6149" lon="2.30432">
        <ele>261.05831</ele>
        <time>2021-10-18T12:02:43.000Z</time>
      </trkpt>
      <trkpt lat="43.61489" lon="2.30435">
        <ele>261.152114</ele>
        <time>2021-10-18T12:02:44.000Z</time>
      </trkpt>
      <trkpt lat="43.61488" lon="2.30437">
        <ele>261.228623</ele>
        <time>2021-10-18T12:02:45.000Z</time>
      </trkpt>
      <trkpt lat="43.61487" lon="2.3044">
        <ele>261.324317</ele>
        <time>2021-10-18T12:02:46.000Z</time>
      </trkpt>
      <trkpt lat="43.61486" lon="2.30442">
        <ele>261.401576</ele>
        <time>2021-10-18T12:02:47.000Z</time>
      </trkpt>
      <trkpt lat="43.61485" lon="2.30444">
        <ele>261.487412</ele>
        <time>2021-10-18T12:02:48.000Z</time>
      </trkpt>
      <trkpt lat="43.61483" lon="2.30447">
        <ele>261.58077</ele>
        <time>2021-10-18T12:02:49.000Z</time>
      </trkpt>
      <trkpt lat="43.61482" lon="2.3045">
        <ele>261.701021</ele>
        <time>2021-10-18T12:02:50.000Z</time>
      </trkpt>
      <trkpt lat="43.6148" lon="2.30453">
        <ele>261.818992</ele>
        <time>2021-10-18T12:02:51.000Z</time>
      </trkpt>
      <trkpt lat="43.61479" lon="2.30456">
        <ele>261.929381</ele>
        <time>2021-10-18T12:02:52.000Z</time>
      </trkpt>
      <trkpt lat="43.61477" lon="2.30459">
        <ele>262.034916</ele>
        <time>2021-10-18T12:02:53.000Z</time>
      </trkpt>
      <trkpt lat="43.61475" lon="2.30463">
        <ele>262.170231</ele>
        <time>2021-10-18T12:02:54.000Z</time>
      </trkpt>
      <trkpt lat="43.61474" lon="2.30465">
        <ele>262.275766</ele>
        <time>2021-10-18T12:02:55.000Z</time>
      </trkpt>
      <trkpt lat="43.61472" lon="2.30468">
        <ele>262.369124</ele>
        <time>2021-10-18T12:02:56.000Z</time>
      </trkpt>
      <trkpt lat="43.61471" lon="2.3047">
        <ele>262.461428</ele>
        <time>2021-10-18T12:02:57.000Z</time>
      </trkpt>
      <trkpt lat="43.61469" lon="2.30472">
        <ele>262.547861</ele>
        <time>2021-10-18T12:02:58.000Z</time>
      </trkpt>
      <trkpt lat="43.61468" lon="2.30475">
        <ele>262.633698</ele>
        <time>2021-10-18T12:02:59.000Z</time>
      </trkpt>
      <trkpt lat="43.61467" lon="2.30477">
        <ele>262.734727</ele>
        <time>2021-10-18T12:03:00.000Z</time>
      </trkpt>
      <trkpt lat="43.61465" lon="2.3048">
        <ele>262.850383</ele>
        <time>2021-10-18T12:03:01.000Z</time>
      </trkpt>
      <trkpt lat="43.61463" lon="2.30483">
        <ele>262.956025</ele>
        <time>2021-10-18T12:03:02.000Z</time>
      </trkpt>
      <trkpt lat="43.61462" lon="2.30485">
        <ele>263.054335</ele>
        <time>2021-10-18T12:03:03.000Z</time>
      </trkpt>
      <trkpt lat="43.6146" lon="2.30488">
        <ele>263.15003</ele>
        <time>2021-10-18T12:03:04.000Z</time>
      </trkpt>
      <trkpt lat="43.6146" lon="2.30489">
        <ele>263.211894</ele>
        <time>2021-10-18T12:03:05.000Z</time>
      </trkpt>
      <trkpt lat="43.61459" lon="2.30491">
        <ele>263.274656</ele>
        <time>2021-10-18T12:03:06.000Z</time>
      </trkpt>
      <trkpt lat="43.61458" lon="2.30494">
        <ele>263.360637</ele>
        <time>2021-10-18T12:03:07.000Z</time>
      </trkpt>
      <trkpt lat="43.61457" lon="2.30496">
        <ele>263.427897</ele>
        <time>2021-10-18T12:03:08.000Z</time>
      </trkpt>
      <trkpt lat="43.61456" lon="2.30498">
        <ele>263.504774</ele>
        <time>2021-10-18T12:03:09.000Z</time>
      </trkpt>
      <trkpt lat="43.61455" lon="2.305">
        <ele>263.595593</ele>
        <time>2021-10-18T12:03:10.000Z</time>
      </trkpt>
      <trkpt lat="43.61454" lon="2.30503">
        <ele>263.684277</ele>
        <time>2021-10-18T12:03:11.000Z</time>
      </trkpt>
      <trkpt lat="43.61453" lon="2.30505">
        <ele>263.762928</ele>
        <time>2021-10-18T12:03:12.000Z</time>
      </trkpt>
      <trkpt lat="43.61451" lon="2.30507">
        <ele>263.869001</ele>
        <time>2021-10-18T12:03:13.000Z</time>
      </trkpt>
      <trkpt lat="43.6145" lon="2.3051">
        <ele>263.95982</ele>
        <time>2021-10-18T12:03:14.000Z</time>
      </trkpt>
      <trkpt lat="43.61448" lon="2.30513">
        <ele>264.06048</ele>
        <time>2021-10-18T12:03:15.000Z</time>
      </trkpt>
      <trkpt lat="43.61447" lon="2.30515">
        <ele>264.154284</ele>
        <time>2021-10-18T12:03:16.000Z</time>
      </trkpt>
      <trkpt lat="43.61446" lon="2.30518">
        <ele>264.252802</ele>
        <time>2021-10-18T12:03:17.000Z</time>
      </trkpt>
      <trkpt lat="43.61445" lon="2.3052">
        <ele>264.341113</ele>
        <time>2021-10-18T12:03:18.000Z</time>
      </trkpt>
      <trkpt lat="43.61444" lon="2.30522">
        <ele>264.417105</ele>
        <time>2021-10-18T12:03:19.000Z</time>
      </trkpt>
      <trkpt lat="43.61442" lon="2.30524">
        <ele>264.483911</ele>
        <time>2021-10-18T12:03:20.000Z</time>
      </trkpt>
      <trkpt lat="43.61442" lon="2.30525">
        <ele>264.531119</ele>
        <time>2021-10-18T12:03:21.000Z</time>
      </trkpt>
      <trkpt lat="43.6144" lon="2.30526">
        <ele>264.601959</ele>
        <time>2021-10-18T12:03:22.000Z</time>
      </trkpt>
      <trkpt lat="43.61439" lon="2.30528">
        <ele>264.688393</ele>
        <time>2021-10-18T12:03:23.000Z</time>
      </trkpt>
      <trkpt lat="43.61438" lon="2.3053">
        <ele>264.769773</ele>
        <time>2021-10-18T12:03:24.000Z</time>
      </trkpt>
      <trkpt lat="43.61436" lon="2.30532">
        <ele>264.858015</ele>
        <time>2021-10-18T12:03:25.000Z</time>
      </trkpt>
      <trkpt lat="43.61434" lon="2.30534">
        <ele>264.952689</ele>
        <time>2021-10-18T12:03:26.000Z</time>
      </trkpt>
      <trkpt lat="43.61432" lon="2.30536">
        <ele>265.055237</ele>
        <time>2021-10-18T12:03:27.000Z</time>
      </trkpt>
      <trkpt lat="43.6143" lon="2.30539">
        <ele>265.174329</ele>
        <time>2021-10-18T12:03:28.000Z</time>
      </trkpt>
      <trkpt lat="43.61428" lon="2.30542">
        <ele>265.290271</ele>
        <time>2021-10-18T12:03:29.000Z</time>
      </trkpt>
      <trkpt lat="43.61426" lon="2.30544">
        <ele>265.421481</ele>
        <time>2021-10-18T12:03:30.000Z</time>
      </trkpt>
      <trkpt lat="43.61423" lon="2.30546">
        <ele>265.604838</ele>
        <time>2021-10-18T12:03:31.000Z</time>
      </trkpt>
      <trkpt lat="43.6142" lon="2.30547">
        <ele>265.7524</ele>
        <time>2021-10-18T12:03:32.000Z</time>
      </trkpt>
      <trkpt lat="43.61418" lon="2.30549">
        <ele>265.886135</ele>
        <time>2021-10-18T12:03:33.000Z</time>
      </trkpt>
      <trkpt lat="43.61417" lon="2.3055">
        <ele>265.99114</ele>
        <time>2021-10-18T12:03:34.000Z</time>
      </trkpt>
      <trkpt lat="43.61415" lon="2.30552">
        <ele>266.10787</ele>
        <time>2021-10-18T12:03:35.000Z</time>
      </trkpt>
      <trkpt lat="43.61413" lon="2.30555">
        <ele>266.262074</ele>
        <time>2021-10-18T12:03:36.000Z</time>
      </trkpt>
      <trkpt lat="43.61411" lon="2.30557">
        <ele>266.409289</ele>
        <time>2021-10-18T12:03:37.000Z</time>
      </trkpt>
      <trkpt lat="43.61409" lon="2.30559">
        <ele>266.570701</ele>
        <time>2021-10-18T12:03:38.000Z</time>
      </trkpt>
      <trkpt lat="43.61407" lon="2.30561">
        <ele>266.705832</ele>
        <time>2021-10-18T12:03:39.000Z</time>
      </trkpt>
      <trkpt lat="43.61405" lon="2.30562">
        <ele>266.815219</ele>
        <time>2021-10-18T12:03:40.000Z</time>
      </trkpt>
      <trkpt lat="43.61403" lon="2.30564">
        <ele>266.943276</ele>
        <time>2021-10-18T12:03:41.000Z</time>
      </trkpt>
      <trkpt lat="43.61401" lon="2.30566">
        <ele>267.069154</ele>
        <time>2021-10-18T12:03:42.000Z</time>
      </trkpt>
      <trkpt lat="43.614" lon="2.30567">
        <ele>267.184054</ele>
        <time>2021-10-18T12:03:43.000Z</time>
      </trkpt>
      <trkpt lat="43.61398" lon="2.30568">
        <ele>267.284225</ele>
        <time>2021-10-18T12:03:44.000Z</time>
      </trkpt>
      <trkpt lat="43.61397" lon="2.3057">
        <ele>267.393984</ele>
        <time>2021-10-18T12:03:45.000Z</time>
      </trkpt>
      <trkpt lat="43.61395" lon="2.30572">
        <ele>267.501048</ele>
        <time>2021-10-18T12:03:46.000Z</time>
      </trkpt>
      <trkpt lat="43.61393" lon="2.30574">
        <ele>267.650033</ele>
        <time>2021-10-18T12:03:47.000Z</time>
      </trkpt>
      <trkpt lat="43.61391" lon="2.30576">
        <ele>267.764221</ele>
        <time>2021-10-18T12:03:48.000Z</time>
      </trkpt>
      <trkpt lat="43.6139" lon="2.30577">
        <ele>267.886036</ele>
        <time>2021-10-18T12:03:49.000Z</time>
      </trkpt>
      <trkpt lat="43.61388" lon="2.30578">
        <ele>267.997995</ele>
        <time>2021-10-18T12:03:50.000Z</time>
      </trkpt>
      <trkpt lat="43.61387" lon="2.3058">
        <ele>268.093816</ele>
        <time>2021-10-18T12:03:51.000Z</time>
      </trkpt>
      <trkpt lat="43.61385" lon="2.30582">
        <ele>268.203575</ele>
        <time>2021-10-18T12:03:52.000Z</time>
      </trkpt>
      <trkpt lat="43.61384" lon="2.30584">
        <ele>268.317509</ele>
        <time>2021-10-18T12:03:53.000Z</time>
      </trkpt>
      <trkpt lat="43.61382" lon="2.30585">
        <ele>268.410757</ele>
        <time>2021-10-18T12:03:54.000Z</time>
      </trkpt>
      <trkpt lat="43.61381" lon="2.30586">
        <ele>268.504974</ele>
        <time>2021-10-18T12:03:55.000Z</time>
      </trkpt>
      <trkpt lat="43.61379" lon="2.30587">
        <ele>268.602745</ele>
        <time>2021-10-18T12:03:56.000Z</time>
      </trkpt>
      <trkpt lat="43.61378" lon="2.30589">
        <ele>268.71094</ele>
        <time>2021-10-18T12:03:57.000Z</time>
      </trkpt>
      <trkpt lat="43.61376" lon="2.30591">
        <ele>268.848593</ele>
        <time>2021-10-18T12:03:58.000Z</time>
      </trkpt>
      <trkpt lat="43.61374" lon="2.30593">
        <ele>268.981875</ele>
        <time>2021-10-18T12:03:59.000Z</time>
      </trkpt>
      <trkpt lat="43.61373" lon="2.30595">
        <ele>269.097004</ele>
        <time>2021-10-18T12:04:00.000Z</time>
      </trkpt>
      <trkpt lat="43.61371" lon="2.30597">
        <ele>269.212133</ele>
        <time>2021-10-18T12:04:01.000Z</time>
      </trkpt>
      <trkpt lat="43.6137" lon="2.30599">
        <ele>269.335837</ele>
        <time>2021-10-18T12:04:02.000Z</time>
      </trkpt>
      <trkpt lat="43.61368" lon="2.30601">
        <ele>269.454754</ele>
        <time>2021-10-18T12:04:03.000Z</time>
      </trkpt>
      <trkpt lat="43.61366" lon="2.30602">
        <ele>269.561895</ele>
        <time>2021-10-18T12:04:04.000Z</time>
      </trkpt>
      <trkpt lat="43.61365" lon="2.30603">
        <ele>269.676006</ele>
        <time>2021-10-18T12:04:05.000Z</time>
      </trkpt>
      <trkpt lat="43.61363" lon="2.30605">
        <ele>269.752827</ele>
        <time>2021-10-18T12:04:06.000Z</time>
      </trkpt>
      <trkpt lat="43.61363" lon="2.30606">
        <ele>269.813861</ele>
        <time>2021-10-18T12:04:07.000Z</time>
      </trkpt>
      <trkpt lat="43.61362" lon="2.30607">
        <ele>269.898474</ele>
        <time>2021-10-18T12:04:08.000Z</time>
      </trkpt>
      <trkpt lat="43.6136" lon="2.30609">
        <ele>269.99185</ele>
        <time>2021-10-18T12:04:09.000Z</time>
      </trkpt>
      <trkpt lat="43.61359" lon="2.30611">
        <ele>270.098915</ele>
        <time>2021-10-18T12:04:10.000Z</time>
      </trkpt>
      <trkpt lat="43.61358" lon="2.30612">
        <ele>270.199126</ele>
        <time>2021-10-18T12:04:11.000Z</time>
      </trkpt>
      <trkpt lat="43.61356" lon="2.30614">
        <ele>270.319942</ele>
        <time>2021-10-18T12:04:12.000Z</time>
      </trkpt>
      <trkpt lat="43.61355" lon="2.30617">
        <ele>270.459324</ele>
        <time>2021-10-18T12:04:13.000Z</time>
      </trkpt>
      <trkpt lat="43.61354" lon="2.3062">
        <ele>270.576298</ele>
        <time>2021-10-18T12:04:14.000Z</time>
      </trkpt>
      <trkpt lat="43.61353" lon="2.30622">
        <ele>270.666315</ele>
        <time>2021-10-18T12:04:15.000Z</time>
      </trkpt>
      <trkpt lat="43.61352" lon="2.30624">
        <ele>270.769804</ele>
        <time>2021-10-18T12:04:16.000Z</time>
      </trkpt>
      <trkpt lat="43.61351" lon="2.30626">
        <ele>270.883738</ele>
        <time>2021-10-18T12:04:17.000Z</time>
      </trkpt>
      <trkpt lat="43.6135" lon="2.30628">
        <ele>270.990803</ele>
        <time>2021-10-18T12:04:18.000Z</time>
      </trkpt>
      <trkpt lat="43.61348" lon="2.3063">
        <ele>271.104736</ele>
        <time>2021-10-18T12:04:19.000Z</time>
      </trkpt>
      <trkpt lat="43.61347" lon="2.30631">
        <ele>271.201206</ele>
        <time>2021-10-18T12:04:20.000Z</time>
      </trkpt>
      <trkpt lat="43.61346" lon="2.30634">
        <ele>271.295889</ele>
        <time>2021-10-18T12:04:21.000Z</time>
      </trkpt>
      <trkpt lat="43.61346" lon="2.30636">
        <ele>271.398069</ele>
        <time>2021-10-18T12:04:22.000Z</time>
      </trkpt>
      <trkpt lat="43.61345" lon="2.30638">
        <ele>271.482964</ele>
        <time>2021-10-18T12:04:23.000Z</time>
      </trkpt>
      <trkpt lat="43.61344" lon="2.3064">
        <ele>271.590038</ele>
        <time>2021-10-18T12:04:24.000Z</time>
      </trkpt>
      <trkpt lat="43.61344" lon="2.30642">
        <ele>271.674932</ele>
        <time>2021-10-18T12:04:25.000Z</time>
      </trkpt>
      <trkpt lat="43.61342" lon="2.30644">
        <ele>271.78809</ele>
        <time>2021-10-18T12:04:26.000Z</time>
      </trkpt>
      <trkpt lat="43.6134" lon="2.30647">
        <ele>271.943454</ele>
        <time>2021-10-18T12:04:27.000Z</time>
      </trkpt>
      <trkpt lat="43.61338" lon="2.3065">
        <ele>272.130208</ele>
        <time>2021-10-18T12:04:28.000Z</time>
      </trkpt>
      <trkpt lat="43.61336" lon="2.30653">
        <ele>272.287376</ele>
        <time>2021-10-18T12:04:29.000Z</time>
      </trkpt>
      <trkpt lat="43.61334" lon="2.30655">
        <ele>272.433022</ele>
        <time>2021-10-18T12:04:30.000Z</time>
      </trkpt>
      <trkpt lat="43.61332" lon="2.30657">
        <ele>272.566305</ele>
        <time>2021-10-18T12:04:31.000Z</time>
      </trkpt>
      <trkpt lat="43.61331" lon="2.30659">
        <ele>272.692625</ele>
        <time>2021-10-18T12:04:32.000Z</time>
      </trkpt>
      <trkpt lat="43.61329" lon="2.30661">
        <ele>272.830278</ele>
        <time>2021-10-18T12:04:33.000Z</time>
      </trkpt>
      <trkpt lat="43.61327" lon="2.30663">
        <ele>272.960956</ele>
        <time>2021-10-18T12:04:34.000Z</time>
      </trkpt>
      <trkpt lat="43.61326" lon="2.30666">
        <ele>273.103609</ele>
        <time>2021-10-18T12:04:35.000Z</time>
      </trkpt>
      <trkpt lat="43.61324" lon="2.30669">
        <ele>273.24336</ele>
        <time>2021-10-18T12:04:36.000Z</time>
      </trkpt>
      <trkpt lat="43.61322" lon="2.30671">
        <ele>273.394655</ele>
        <time>2021-10-18T12:04:37.000Z</time>
      </trkpt>
      <trkpt lat="43.6132" lon="2.30674">
        <ele>273.540301</ele>
        <time>2021-10-18T12:04:38.000Z</time>
      </trkpt>
      <trkpt lat="43.61319" lon="2.30676">
        <ele>273.667079</ele>
        <time>2021-10-18T12:04:39.000Z</time>
      </trkpt>
      <trkpt lat="43.61317" lon="2.30678">
        <ele>273.787037</ele>
        <time>2021-10-18T12:04:40.000Z</time>
      </trkpt>
      <trkpt lat="43.61316" lon="2.30681">
        <ele>273.899847</ele>
        <time>2021-10-18T12:04:41.000Z</time>
      </trkpt>
      <trkpt lat="43.61315" lon="2.30683">
        <ele>274.029697</ele>
        <time>2021-10-18T12:04:42.000Z</time>
      </trkpt>
      <trkpt lat="43.61313" lon="2.30686">
        <ele>274.155977</ele>
        <time>2021-10-18T12:04:43.000Z</time>
      </trkpt>
      <trkpt lat="43.61312" lon="2.30688">
        <ele>274.276794</ele>
        <time>2021-10-18T12:04:44.000Z</time>
      </trkpt>
      <trkpt lat="43.6131" lon="2.3069">
        <ele>274.406644</ele>
        <time>2021-10-18T12:04:45.000Z</time>
      </trkpt>
      <trkpt lat="43.61309" lon="2.30692">
        <ele>274.51621</ele>
        <time>2021-10-18T12:04:46.000Z</time>
      </trkpt>
      <trkpt lat="43.61308" lon="2.30694">
        <ele>274.634147</ele>
        <time>2021-10-18T12:04:47.000Z</time>
      </trkpt>
      <trkpt lat="43.61306" lon="2.30696">
        <ele>274.753506</ele>
        <time>2021-10-18T12:04:48.000Z</time>
      </trkpt>
      <trkpt lat="43.61305" lon="2.30698">
        <ele>274.871443</ele>
        <time>2021-10-18T12:04:49.000Z</time>
      </trkpt>
      <trkpt lat="43.61303" lon="2.307">
        <ele>274.995208</ele>
        <time>2021-10-18T12:04:50.000Z</time>
      </trkpt>
      <trkpt lat="43.61301" lon="2.30703">
        <ele>275.129821</ele>
        <time>2021-10-18T12:04:51.000Z</time>
      </trkpt>
      <trkpt lat="43.61299" lon="2.30705">
        <ele>275.281427</ele>
        <time>2021-10-18T12:04:52.000Z</time>
      </trkpt>
      <trkpt lat="43.61298" lon="2.30707">
        <ele>275.406282</ele>
        <time>2021-10-18T12:04:53.000Z</time>
      </trkpt>
      <trkpt lat="43.61296" lon="2.3071">
        <ele>275.545664</ele>
        <time>2021-10-18T12:04:54.000Z</time>
      </trkpt>
      <trkpt lat="43.61295" lon="2.30712">
        <ele>275.710446</ele>
        <time>2021-10-18T12:04:55.000Z</time>
      </trkpt>
      <trkpt lat="43.61293" lon="2.30715">
        <ele>275.873149</ele>
        <time>2021-10-18T12:04:56.000Z</time>
      </trkpt>
      <trkpt lat="43.61292" lon="2.30716">
        <ele>276.029899</ele>
        <time>2021-10-18T12:04:57.000Z</time>
      </trkpt>
      <trkpt lat="43.6129" lon="2.30718">
        <ele>276.19047</ele>
        <time>2021-10-18T12:04:58.000Z</time>
      </trkpt>
      <trkpt lat="43.61289" lon="2.30721">
        <ele>276.36046</ele>
        <time>2021-10-18T12:04:59.000Z</time>
      </trkpt>
      <trkpt lat="43.61287" lon="2.30723">
        <ele>276.519638</ele>
        <time>2021-10-18T12:05:00.000Z</time>
      </trkpt>
      <trkpt lat="43.61286" lon="2.30725">
        <ele>276.66023</ele>
        <time>2021-10-18T12:05:01.000Z</time>
      </trkpt>
      <trkpt lat="43.61285" lon="2.30727">
        <ele>276.834108</ele>
        <time>2021-10-18T12:05:02.000Z</time>
      </trkpt>
      <trkpt lat="43.61283" lon="2.30729">
        <ele>276.985271</ele>
        <time>2021-10-18T12:05:03.000Z</time>
      </trkpt>
      <trkpt lat="43.61282" lon="2.30731">
        <ele>277.135143</ele>
        <time>2021-10-18T12:05:04.000Z</time>
      </trkpt>
      <trkpt lat="43.6128" lon="2.30733">
        <ele>277.327828</ele>
        <time>2021-10-18T12:05:05.000Z</time>
      </trkpt>
      <trkpt lat="43.61279" lon="2.30735">
        <ele>277.497819</ele>
        <time>2021-10-18T12:05:06.000Z</time>
      </trkpt>
      <trkpt lat="43.61277" lon="2.30738">
        <ele>277.699923</ele>
        <time>2021-10-18T12:05:07.000Z</time>
      </trkpt>
      <trkpt lat="43.61275" lon="2.3074">
        <ele>277.902026</ele>
        <time>2021-10-18T12:05:08.000Z</time>
      </trkpt>
      <trkpt lat="43.61273" lon="2.30743">
        <ele>278.092299</ele>
        <time>2021-10-18T12:05:09.000Z</time>
      </trkpt>
      <trkpt lat="43.61271" lon="2.30746">
        <ele>278.314552</ele>
        <time>2021-10-18T12:05:10.000Z</time>
      </trkpt>
      <trkpt lat="43.61269" lon="2.30749">
        <ele>278.536134</ele>
        <time>2021-10-18T12:05:11.000Z</time>
      </trkpt>
      <trkpt lat="43.61268" lon="2.30751">
        <ele>278.722193</ele>
        <time>2021-10-18T12:05:12.000Z</time>
      </trkpt>
      <trkpt lat="43.61266" lon="2.30754">
        <ele>278.926242</ele>
        <time>2021-10-18T12:05:13.000Z</time>
      </trkpt>
      <trkpt lat="43.61264" lon="2.30756">
        <ele>279.132654</ele>
        <time>2021-10-18T12:05:14.000Z</time>
      </trkpt>
      <trkpt lat="43.61262" lon="2.30758">
        <ele>279.336703</ele>
        <time>2021-10-18T12:05:15.000Z</time>
      </trkpt>
      <trkpt lat="43.6126" lon="2.30761">
        <ele>279.531282</ele>
        <time>2021-10-18T12:05:16.000Z</time>
      </trkpt>
      <trkpt lat="43.61258" lon="2.30763">
        <ele>279.723968</ele>
        <time>2021-10-18T12:05:17.000Z</time>
      </trkpt>
      <trkpt lat="43.61256" lon="2.30765">
        <ele>279.901825</ele>
        <time>2021-10-18T12:05:18.000Z</time>
      </trkpt>
      <trkpt lat="43.61254" lon="2.30768">
        <ele>280.105873</ele>
        <time>2021-10-18T12:05:19.000Z</time>
      </trkpt>
      <trkpt lat="43.61253" lon="2.3077">
        <ele>280.307977</ele>
        <time>2021-10-18T12:05:20.000Z</time>
      </trkpt>
      <trkpt lat="43.61251" lon="2.30773">
        <ele>280.504577</ele>
        <time>2021-10-18T12:05:21.000Z</time>
      </trkpt>
      <trkpt lat="43.61249" lon="2.30776">
        <ele>280.709236</ele>
        <time>2021-10-18T12:05:22.000Z</time>
      </trkpt>
      <trkpt lat="43.61247" lon="2.30778">
        <ele>280.900483</ele>
        <time>2021-10-18T12:05:23.000Z</time>
      </trkpt>
      <trkpt lat="43.61245" lon="2.3078">
        <ele>281.091433</ele>
        <time>2021-10-18T12:05:24.000Z</time>
      </trkpt>
      <trkpt lat="43.61243" lon="2.30782">
        <ele>281.288347</ele>
        <time>2021-10-18T12:05:25.000Z</time>
      </trkpt>
      <trkpt lat="43.61241" lon="2.30785">
        <ele>281.501869</ele>
        <time>2021-10-18T12:05:26.000Z</time>
      </trkpt>
      <trkpt lat="43.6124" lon="2.30787">
        <ele>281.677523</ele>
        <time>2021-10-18T12:05:27.000Z</time>
      </trkpt>
      <trkpt lat="43.61238" lon="2.30789">
        <ele>281.85899</ele>
        <time>2021-10-18T12:05:28.000Z</time>
      </trkpt>
      <trkpt lat="43.61236" lon="2.30791">
        <ele>282.028981</ele>
        <time>2021-10-18T12:05:29.000Z</time>
      </trkpt>
      <trkpt lat="43.61234" lon="2.30793">
        <ele>282.216397</ele>
        <time>2021-10-18T12:05:30.000Z</time>
      </trkpt>
      <trkpt lat="43.61232" lon="2.30795">
        <ele>282.387547</ele>
        <time>2021-10-18T12:05:31.000Z</time>
      </trkpt>
      <trkpt lat="43.61231" lon="2.30797">
        <ele>282.550057</ele>
        <time>2021-10-18T12:05:32.000Z</time>
      </trkpt>
      <trkpt lat="43.61229" lon="2.30799">
        <ele>282.727977</ele>
        <time>2021-10-18T12:05:33.000Z</time>
      </trkpt>
      <trkpt lat="43.61227" lon="2.30801">
        <ele>282.907397</ele>
        <time>2021-10-18T12:05:34.000Z</time>
      </trkpt>
      <trkpt lat="43.61225" lon="2.30804">
        <ele>283.101977</ele>
        <time>2021-10-18T12:05:35.000Z</time>
      </trkpt>
      <trkpt lat="43.61224" lon="2.30806">
        <ele>283.287091</ele>
        <time>2021-10-18T12:05:36.000Z</time>
      </trkpt>
      <trkpt lat="43.61222" lon="2.30808">
        <ele>283.464948</ele>
        <time>2021-10-18T12:05:37.000Z</time>
      </trkpt>
      <trkpt lat="43.6122" lon="2.30811">
        <ele>283.670939</ele>
        <time>2021-10-18T12:05:38.000Z</time>
      </trkpt>
      <trkpt lat="43.61218" lon="2.30813">
        <ele>283.867539</ele>
        <time>2021-10-18T12:05:39.000Z</time>
      </trkpt>
      <trkpt lat="43.61217" lon="2.30816">
        <ele>284.058787</ele>
        <time>2021-10-18T12:05:40.000Z</time>
      </trkpt>
      <trkpt lat="43.61214" lon="2.30818">
        <ele>284.291263</ele>
        <time>2021-10-18T12:05:41.000Z</time>
      </trkpt>
      <trkpt lat="43.61213" lon="2.30821">
        <ele>284.491855</ele>
        <time>2021-10-18T12:05:42.000Z</time>
      </trkpt>
      <trkpt lat="43.61211" lon="2.30823">
        <ele>284.680712</ele>
        <time>2021-10-18T12:05:43.000Z</time>
      </trkpt>
      <trkpt lat="43.61209" lon="2.30826">
        <ele>284.871959</ele>
        <time>2021-10-18T12:05:44.000Z</time>
      </trkpt>
      <trkpt lat="43.61207" lon="2.30828">
        <ele>285.053427</ele>
        <time>2021-10-18T12:05:45.000Z</time>
      </trkpt>
      <trkpt lat="43.61206" lon="2.3083">
        <ele>285.212358</ele>
        <time>2021-10-18T12:05:46.000Z</time>
      </trkpt>
      <trkpt lat="43.61204" lon="2.30831">
        <ele>285.389804</ele>
        <time>2021-10-18T12:05:47.000Z</time>
      </trkpt>
      <trkpt lat="43.61202" lon="2.30833">
        <ele>285.56725</ele>
        <time>2021-10-18T12:05:48.000Z</time>
      </trkpt>
      <trkpt lat="43.612" lon="2.30835">
        <ele>285.757418</ele>
        <time>2021-10-18T12:05:49.000Z</time>
      </trkpt>
      <trkpt lat="43.61198" lon="2.30838">
        <ele>285.973331</ele>
        <time>2021-10-18T12:05:50.000Z</time>
      </trkpt>
      <trkpt lat="43.61196" lon="2.3084">
        <ele>286.173767</ele>
        <time>2021-10-18T12:05:51.000Z</time>
      </trkpt>
      <trkpt lat="43.61193" lon="2.30843">
        <ele>286.406244</ele>
        <time>2021-10-18T12:05:52.000Z</time>
      </trkpt>
      <trkpt lat="43.61191" lon="2.30846">
        <ele>286.640463</ele>
        <time>2021-10-18T12:05:53.000Z</time>
      </trkpt>
      <trkpt lat="43.61189" lon="2.30848">
        <ele>286.858552</ele>
        <time>2021-10-18T12:05:54.000Z</time>
      </trkpt>
      <trkpt lat="43.61187" lon="2.30851">
        <ele>287.080807</ele>
        <time>2021-10-18T12:05:55.000Z</time>
      </trkpt>
      <trkpt lat="43.61185" lon="2.30854">
        <ele>287.308207</ele>
        <time>2021-10-18T12:05:56.000Z</time>
      </trkpt>
      <trkpt lat="43.61183" lon="2.30858">
        <ele>287.55026</ele>
        <time>2021-10-18T12:05:57.000Z</time>
      </trkpt>
      <trkpt lat="43.61181" lon="2.30861">
        <ele>287.790234</ele>
        <time>2021-10-18T12:05:58.000Z</time>
      </trkpt>
      <trkpt lat="43.61179" lon="2.30864">
        <ele>288.048689</ele>
        <time>2021-10-18T12:05:59.000Z</time>
      </trkpt>
      <trkpt lat="43.61177" lon="2.30868">
        <ele>288.292621</ele>
        <time>2021-10-18T12:06:00.000Z</time>
      </trkpt>
      <trkpt lat="43.61175" lon="2.30871">
        <ele>288.514877</ele>
        <time>2021-10-18T12:06:01.000Z</time>
      </trkpt>
      <trkpt lat="43.61173" lon="2.30874">
        <ele>288.730268</ele>
        <time>2021-10-18T12:06:02.000Z</time>
      </trkpt>
      <trkpt lat="43.61171" lon="2.30877">
        <ele>288.968372</ele>
        <time>2021-10-18T12:06:03.000Z</time>
      </trkpt>
      <trkpt lat="43.61169" lon="2.3088">
        <ele>289.190628</ele>
        <time>2021-10-18T12:06:04.000Z</time>
      </trkpt>
      <trkpt lat="43.61167" lon="2.30882">
        <ele>289.403626</ele>
        <time>2021-10-18T12:06:05.000Z</time>
      </trkpt>
      <trkpt lat="43.61166" lon="2.30885">
        <ele>289.511648</ele>
        <time>2021-10-18T12:06:06.000Z</time>
      </trkpt>
      <trkpt lat="43.61164" lon="2.30888">
        <ele>289.593897</ele>
        <time>2021-10-18T12:06:07.000Z</time>
      </trkpt>
      <trkpt lat="43.61163" lon="2.30891">
        <ele>289.685555</ele>
        <time>2021-10-18T12:06:08.000Z</time>
      </trkpt>
      <trkpt lat="43.61161" lon="2.30894">
        <ele>289.771322</ele>
        <time>2021-10-18T12:06:09.000Z</time>
      </trkpt>
      <trkpt lat="43.61159" lon="2.30897">
        <ele>289.860942</ele>
        <time>2021-10-18T12:06:10.000Z</time>
      </trkpt>
      <trkpt lat="43.61158" lon="2.309">
        <ele>289.954706</ele>
        <time>2021-10-18T12:06:11.000Z</time>
      </trkpt>
      <trkpt lat="43.61156" lon="2.30903">
        <ele>290.046713</ele>
        <time>2021-10-18T12:06:12.000Z</time>
      </trkpt>
      <trkpt lat="43.61154" lon="2.30906">
        <ele>290.136572</ele>
        <time>2021-10-18T12:06:13.000Z</time>
      </trkpt>
      <trkpt lat="43.61152" lon="2.30909">
        <ele>290.22234</ele>
        <time>2021-10-18T12:06:14.000Z</time>
      </trkpt>
      <trkpt lat="43.61151" lon="2.30912">
        <ele>290.309994</ele>
        <time>2021-10-18T12:06:15.000Z</time>
      </trkpt>
      <trkpt lat="43.61149" lon="2.30915">
        <ele>290.399853</ele>
        <time>2021-10-18T12:06:16.000Z</time>
      </trkpt>
      <trkpt lat="43.61147" lon="2.30918">
        <ele>290.481933</ele>
        <time>2021-10-18T12:06:17.000Z</time>
      </trkpt>
      <trkpt lat="43.61146" lon="2.3092">
        <ele>290.558314</ele>
        <time>2021-10-18T12:06:18.000Z</time>
      </trkpt>
      <trkpt lat="43.61144" lon="2.30923">
        <ele>290.634696</ele>
        <time>2021-10-18T12:06:19.000Z</time>
      </trkpt>
      <trkpt lat="43.61143" lon="2.30926">
        <ele>290.716636</ele>
        <time>2021-10-18T12:06:20.000Z</time>
      </trkpt>
      <trkpt lat="43.61141" lon="2.30928">
        <ele>290.796696</ele>
        <time>2021-10-18T12:06:21.000Z</time>
      </trkpt>
      <trkpt lat="43.6114" lon="2.30931">
        <ele>290.869578</ele>
        <time>2021-10-18T12:06:22.000Z</time>
      </trkpt>
      <trkpt lat="43.61139" lon="2.30934">
        <ele>290.946123</ele>
        <time>2021-10-18T12:06:23.000Z</time>
      </trkpt>
      <trkpt lat="43.61138" lon="2.30937">
        <ele>291.02314</ele>
        <time>2021-10-18T12:06:24.000Z</time>
      </trkpt>
      <trkpt lat="43.61137" lon="2.3094">
        <ele>291.103768</ele>
        <time>2021-10-18T12:06:25.000Z</time>
      </trkpt>
      <trkpt lat="43.61136" lon="2.30943">
        <ele>291.179333</ele>
        <time>2021-10-18T12:06:26.000Z</time>
      </trkpt>
      <trkpt lat="43.61135" lon="2.30945">
        <ele>291.247128</ele>
        <time>2021-10-18T12:06:27.000Z</time>
      </trkpt>
      <trkpt lat="43.61134" lon="2.30948">
        <ele>291.313949</ele>
        <time>2021-10-18T12:06:28.000Z</time>
      </trkpt>
      <trkpt lat="43.61132" lon="2.3095">
        <ele>291.388281</ele>
        <time>2021-10-18T12:06:29.000Z</time>
      </trkpt>
      <trkpt lat="43.61131" lon="2.30953">
        <ele>291.474049</ele>
        <time>2021-10-18T12:06:30.000Z</time>
      </trkpt>
      <trkpt lat="43.61129" lon="2.30956">
        <ele>291.559817</ele>
        <time>2021-10-18T12:06:31.000Z</time>
      </trkpt>
      <trkpt lat="43.61128" lon="2.30959">
        <ele>291.649376</ele>
        <time>2021-10-18T12:06:32.000Z</time>
      </trkpt>
      <trkpt lat="43.61126" lon="2.30963">
        <ele>291.748462</ele>
        <time>2021-10-18T12:06:33.000Z</time>
      </trkpt>
      <trkpt lat="43.61125" lon="2.30966">
        <ele>291.846174</ele>
        <time>2021-10-18T12:06:34.000Z</time>
      </trkpt>
      <trkpt lat="43.61123" lon="2.3097">
        <ele>291.953001</ele>
        <time>2021-10-18T12:06:35.000Z</time>
      </trkpt>
      <trkpt lat="43.61121" lon="2.30974">
        <ele>292.071147</ele>
        <time>2021-10-18T12:06:36.000Z</time>
      </trkpt>
      <trkpt lat="43.61119" lon="2.30979">
        <ele>292.183433</ele>
        <time>2021-10-18T12:06:37.000Z</time>
      </trkpt>
      <trkpt lat="43.61118" lon="2.30983">
        <ele>292.299264</ele>
        <time>2021-10-18T12:06:38.000Z</time>
      </trkpt>
      <trkpt lat="43.61116" lon="2.30988">
        <ele>292.424346</ele>
        <time>2021-10-18T12:06:39.000Z</time>
      </trkpt>
      <trkpt lat="43.61114" lon="2.30992">
        <ele>292.547943</ele>
        <time>2021-10-18T12:06:40.000Z</time>
      </trkpt>
      <trkpt lat="43.61112" lon="2.30997">
        <ele>292.666832</ele>
        <time>2021-10-18T12:06:41.000Z</time>
      </trkpt>
      <trkpt lat="43.61111" lon="2.31001">
        <ele>292.789011</ele>
        <time>2021-10-18T12:06:42.000Z</time>
      </trkpt>
      <trkpt lat="43.61109" lon="2.31006">
        <ele>292.912608</ele>
        <time>2021-10-18T12:06:43.000Z</time>
      </trkpt>
      <trkpt lat="43.61108" lon="2.31011">
        <ele>293.027633</ele>
        <time>2021-10-18T12:06:44.000Z</time>
      </trkpt>
      <trkpt lat="43.61106" lon="2.31015">
        <ele>293.141366</ele>
        <time>2021-10-18T12:06:45.000Z</time>
      </trkpt>
      <trkpt lat="43.61105" lon="2.31019">
        <ele>293.253652</ele>
        <time>2021-10-18T12:06:46.000Z</time>
      </trkpt>
      <trkpt lat="43.61103" lon="2.31023">
        <ele>293.352524</ele>
        <time>2021-10-18T12:06:47.000Z</time>
      </trkpt>
      <trkpt lat="43.61103" lon="2.31026">
        <ele>293.428918</ele>
        <time>2021-10-18T12:06:48.000Z</time>
      </trkpt>
      <trkpt lat="43.61102" lon="2.3103">
        <ele>293.507558</ele>
        <time>2021-10-18T12:06:49.000Z</time>
      </trkpt>
      <trkpt lat="43.61102" lon="2.31033">
        <ele>293.591483</ele>
        <time>2021-10-18T12:06:50.000Z</time>
      </trkpt>
      <trkpt lat="43.61101" lon="2.31036">
        <ele>293.675586</ele>
        <time>2021-10-18T12:06:51.000Z</time>
      </trkpt>
      <trkpt lat="43.611" lon="2.3104">
        <ele>293.765346</ele>
        <time>2021-10-18T12:06:52.000Z</time>
      </trkpt>
      <trkpt lat="43.61099" lon="2.31044">
        <ele>293.855311</ele>
        <time>2021-10-18T12:06:53.000Z</time>
      </trkpt>
      <trkpt lat="43.61098" lon="2.31048">
        <ele>293.949836</ele>
        <time>2021-10-18T12:06:54.000Z</time>
      </trkpt>
      <trkpt lat="43.61098" lon="2.31051">
        <ele>294.031454</ele>
        <time>2021-10-18T12:06:55.000Z</time>
      </trkpt>
      <trkpt lat="43.61097" lon="2.31054">
        <ele>294.107846</ele>
        <time>2021-10-18T12:06:56.000Z</time>
      </trkpt>
      <trkpt lat="43.61097" lon="2.31058">
        <ele>294.190759</ele>
        <time>2021-10-18T12:06:57.000Z</time>
      </trkpt>
      <trkpt lat="43.61097" lon="2.31061">
        <ele>294.274116</ele>
        <time>2021-10-18T12:06:58.000Z</time>
      </trkpt>
      <trkpt lat="43.61096" lon="2.31065">
        <ele>294.364451</ele>
        <time>2021-10-18T12:06:59.000Z</time>
      </trkpt>
      <trkpt lat="43.61096" lon="2.31068">
        <ele>294.448376</ele>
        <time>2021-10-18T12:07:00.000Z</time>
      </trkpt>
      <trkpt lat="43.61095" lon="2.31072">
        <ele>294.53299</ele>
        <time>2021-10-18T12:07:01.000Z</time>
      </trkpt>
      <trkpt lat="43.61095" lon="2.31075">
        <ele>294.616347</ele>
        <time>2021-10-18T12:07:02.000Z</time>
      </trkpt>
      <trkpt lat="43.61094" lon="2.31078">
        <ele>294.690423</ele>
        <time>2021-10-18T12:07:03.000Z</time>
      </trkpt>
      <trkpt lat="43.61094" lon="2.31082">
        <ele>294.773336</ele>
        <time>2021-10-18T12:07:04.000Z</time>
      </trkpt>
      <trkpt lat="43.61094" lon="2.31086">
        <ele>294.860379</ele>
        <time>2021-10-18T12:07:05.000Z</time>
      </trkpt>
      <trkpt lat="43.61094" lon="2.31089">
        <ele>294.947664</ele>
        <time>2021-10-18T12:07:06.000Z</time>
      </trkpt>
      <trkpt lat="43.61093" lon="2.31093">
        <ele>295.04146</ele>
        <time>2021-10-18T12:07:07.000Z</time>
      </trkpt>
      <trkpt lat="43.61093" lon="2.31097">
        <ele>295.122037</ele>
        <time>2021-10-18T12:07:08.000Z</time>
      </trkpt>
      <trkpt lat="43.61093" lon="2.311">
        <ele>295.199737</ele>
        <time>2021-10-18T12:07:09.000Z</time>
      </trkpt>
      <trkpt lat="43.61092" lon="2.31103">
        <ele>295.27845</ele>
        <time>2021-10-18T12:07:10.000Z</time>
      </trkpt>
      <trkpt lat="43.61092" lon="2.31107">
        <ele>295.402797</ele>
        <time>2021-10-18T12:07:11.000Z</time>
      </trkpt>
      <trkpt lat="43.61091" lon="2.31111">
        <ele>295.53803</ele>
        <time>2021-10-18T12:07:12.000Z</time>
      </trkpt>
      <trkpt lat="43.6109" lon="2.31114">
        <ele>295.652557</ele>
        <time>2021-10-18T12:07:13.000Z</time>
      </trkpt>
      <trkpt lat="43.61089" lon="2.31117">
        <ele>295.791136</ele>
        <time>2021-10-18T12:07:14.000Z</time>
      </trkpt>
      <trkpt lat="43.61088" lon="2.31121">
        <ele>295.93675</ele>
        <time>2021-10-18T12:07:15.000Z</time>
      </trkpt>
      <trkpt lat="43.61086" lon="2.31125">
        <ele>296.099006</ele>
        <time>2021-10-18T12:07:16.000Z</time>
      </trkpt>
      <trkpt lat="43.61085" lon="2.3113">
        <ele>296.261262</ele>
        <time>2021-10-18T12:07:17.000Z</time>
      </trkpt>
      <trkpt lat="43.61083" lon="2.31134">
        <ele>296.420418</ele>
        <time>2021-10-18T12:07:18.000Z</time>
      </trkpt>
      <trkpt lat="43.61082" lon="2.31138">
        <ele>296.584847</ele>
        <time>2021-10-18T12:07:19.000Z</time>
      </trkpt>
      <trkpt lat="43.6108" lon="2.31142">
        <ele>296.7348</ele>
        <time>2021-10-18T12:07:20.000Z</time>
      </trkpt>
      <trkpt lat="43.61079" lon="2.31146">
        <ele>296.884753</ele>
        <time>2021-10-18T12:07:21.000Z</time>
      </trkpt>
      <trkpt lat="43.61077" lon="2.31149">
        <ele>297.037757</ele>
        <time>2021-10-18T12:07:22.000Z</time>
      </trkpt>
      <trkpt lat="43.61076" lon="2.31153">
        <ele>297.184109</ele>
        <time>2021-10-18T12:07:23.000Z</time>
      </trkpt>
      <trkpt lat="43.61074" lon="2.31157">
        <ele>297.322648</ele>
        <time>2021-10-18T12:07:24.000Z</time>
      </trkpt>
      <trkpt lat="43.61073" lon="2.3116">
        <ele>297.463114</ele>
        <time>2021-10-18T12:07:25.000Z</time>
      </trkpt>
      <trkpt lat="43.61072" lon="2.31164">
        <ele>297.619186</ele>
        <time>2021-10-18T12:07:26.000Z</time>
      </trkpt>
      <trkpt lat="43.6107" lon="2.31168">
        <ele>297.759653</ele>
        <time>2021-10-18T12:07:27.000Z</time>
      </trkpt>
      <trkpt lat="43.61069" lon="2.31172">
        <ele>297.917373</ele>
        <time>2021-10-18T12:07:28.000Z</time>
      </trkpt>
      <trkpt lat="43.61067" lon="2.31176">
        <ele>298.077614</ele>
        <time>2021-10-18T12:07:29.000Z</time>
      </trkpt>
      <trkpt lat="43.61065" lon="2.3118">
        <ele>298.23677</ele>
        <time>2021-10-18T12:07:30.000Z</time>
      </trkpt>
      <trkpt lat="43.61064" lon="2.31184">
        <ele>298.387589</ele>
        <time>2021-10-18T12:07:31.000Z</time>
      </trkpt>
      <trkpt lat="43.61063" lon="2.31187">
        <ele>298.524901</ele>
        <time>2021-10-18T12:07:32.000Z</time>
      </trkpt>
      <trkpt lat="43.61061" lon="2.31191">
        <ele>298.671821</ele>
        <time>2021-10-18T12:07:33.000Z</time>
      </trkpt>
      <trkpt lat="43.6106" lon="2.31195">
        <ele>298.815457</ele>
        <time>2021-10-18T12:07:34.000Z</time>
      </trkpt>
      <trkpt lat="43.61058" lon="2.31199">
        <ele>298.967758</ele>
        <time>2021-10-18T12:07:35.000Z</time>
      </trkpt>
      <trkpt lat="43.61057" lon="2.31202">
        <ele>299.117711</ele>
        <time>2021-10-18T12:07:36.000Z</time>
      </trkpt>
      <trkpt lat="43.61056" lon="2.31206">
        <ele>299.259293</ele>
        <time>2021-10-18T12:07:37.000Z</time>
      </trkpt>
      <trkpt lat="43.61054" lon="2.3121">
        <ele>299.39976</ele>
        <time>2021-10-18T12:07:38.000Z</time>
      </trkpt>
      <trkpt lat="43.61053" lon="2.31213">
        <ele>299.54668</ele>
        <time>2021-10-18T12:07:39.000Z</time>
      </trkpt>
      <trkpt lat="43.61052" lon="2.31217">
        <ele>299.688471</ele>
        <time>2021-10-18T12:07:40.000Z</time>
      </trkpt>
      <trkpt lat="43.6105" lon="2.31221">
        <ele>299.830961</ele>
        <time>2021-10-18T12:07:41.000Z</time>
      </trkpt>
      <trkpt lat="43.61049" lon="2.31225">
        <ele>299.972542</ele>
        <time>2021-10-18T12:07:42.000Z</time>
      </trkpt>
      <trkpt lat="43.61048" lon="2.31228">
        <ele>300.104738</ele>
        <time>2021-10-18T12:07:43.000Z</time>
      </trkpt>
      <trkpt lat="43.61047" lon="2.31232">
        <ele>300.244119</ele>
        <time>2021-10-18T12:07:44.000Z</time>
      </trkpt>
      <trkpt lat="43.61045" lon="2.31235">
        <ele>300.379636</ele>
        <time>2021-10-18T12:07:45.000Z</time>
      </trkpt>
      <trkpt lat="43.61044" lon="2.31238">
        <ele>300.504494</ele>
        <time>2021-10-18T12:07:46.000Z</time>
      </trkpt>
      <trkpt lat="43.61043" lon="2.31241">
        <ele>300.636571</ele>
        <time>2021-10-18T12:07:47.000Z</time>
      </trkpt>
      <trkpt lat="43.61041" lon="2.31245">
        <ele>300.759302</ele>
        <time>2021-10-18T12:07:48.000Z</time>
      </trkpt>
      <trkpt lat="43.6104" lon="2.31248">
        <ele>300.886432</ele>
        <time>2021-10-18T12:07:49.000Z</time>
      </trkpt>
      <trkpt lat="43.61039" lon="2.31251">
        <ele>301.027347</ele>
        <time>2021-10-18T12:07:50.000Z</time>
      </trkpt>
      <trkpt lat="43.61037" lon="2.31255">
        <ele>301.162864</ele>
        <time>2021-10-18T12:07:51.000Z</time>
      </trkpt>
      <trkpt lat="43.61036" lon="2.31258">
        <ele>301.300177</ele>
        <time>2021-10-18T12:07:52.000Z</time>
      </trkpt>
      <trkpt lat="43.61035" lon="2.31262">
        <ele>301.426046</ele>
        <time>2021-10-18T12:07:53.000Z</time>
      </trkpt>
      <trkpt lat="43.61034" lon="2.31265">
        <ele>301.547838</ele>
        <time>2021-10-18T12:07:54.000Z</time>
      </trkpt>
      <trkpt lat="43.61033" lon="2.31268">
        <ele>301.664348</ele>
        <time>2021-10-18T12:07:55.000Z</time>
      </trkpt>
      <trkpt lat="43.61032" lon="2.31271">
        <ele>301.787079</ele>
        <time>2021-10-18T12:07:56.000Z</time>
      </trkpt>
      <trkpt lat="43.6103" lon="2.31274">
        <ele>301.911937</ele>
        <time>2021-10-18T12:07:57.000Z</time>
      </trkpt>
      <trkpt lat="43.61029" lon="2.31277">
        <ele>302.036796</ele>
        <time>2021-10-18T12:07:58.000Z</time>
      </trkpt>
      <trkpt lat="43.61028" lon="2.31281">
        <ele>302.168873</ele>
        <time>2021-10-18T12:07:59.000Z</time>
      </trkpt>
      <trkpt lat="43.61026" lon="2.31284">
        <ele>302.300774</ele>
        <time>2021-10-18T12:08:00.000Z</time>
      </trkpt>
      <trkpt lat="43.61025" lon="2.31287">
        <ele>302.435773</ele>
        <time>2021-10-18T12:08:01.000Z</time>
      </trkpt>
      <trkpt lat="43.61023" lon="2.31291">
        <ele>302.580416</ele>
        <time>2021-10-18T12:08:02.000Z</time>
      </trkpt>
      <trkpt lat="43.61022" lon="2.31295">
        <ele>302.729172</ele>
        <time>2021-10-18T12:08:03.000Z</time>
      </trkpt>
      <trkpt lat="43.6102" lon="2.31298">
        <ele>302.867117</ele>
        <time>2021-10-18T12:08:04.000Z</time>
      </trkpt>
      <trkpt lat="43.61019" lon="2.31301">
        <ele>302.999194</ele>
        <time>2021-10-18T12:08:05.000Z</time>
      </trkpt>
      <trkpt lat="43.61017" lon="2.31304">
        <ele>303.128377</ele>
        <time>2021-10-18T12:08:06.000Z</time>
      </trkpt>
      <trkpt lat="43.61016" lon="2.31307">
        <ele>303.260454</ele>
        <time>2021-10-18T12:08:07.000Z</time>
      </trkpt>
      <trkpt lat="43.61015" lon="2.31311">
        <ele>303.382247</ele>
        <time>2021-10-18T12:08:08.000Z</time>
      </trkpt>
      <trkpt lat="43.61013" lon="2.31313">
        <ele>303.503009</ele>
        <time>2021-10-18T12:08:09.000Z</time>
      </trkpt>
      <trkpt lat="43.61012" lon="2.31316">
        <ele>303.621184</ele>
        <time>2021-10-18T12:08:10.000Z</time>
      </trkpt>
      <trkpt lat="43.6101" lon="2.31319">
        <ele>303.744666</ele>
        <time>2021-10-18T12:08:11.000Z</time>
      </trkpt>
      <trkpt lat="43.61009" lon="2.31322">
        <ele>303.876656</ele>
        <time>2021-10-18T12:08:12.000Z</time>
      </trkpt>
      <trkpt lat="43.61006" lon="2.31325">
        <ele>304.047989</ele>
        <time>2021-10-18T12:08:13.000Z</time>
      </trkpt>
      <trkpt lat="43.61004" lon="2.31328">
        <ele>304.212296</ele>
        <time>2021-10-18T12:08:14.000Z</time>
      </trkpt>
      <trkpt lat="43.61002" lon="2.31331">
        <ele>304.367822</ele>
        <time>2021-10-18T12:08:15.000Z</time>
      </trkpt>
      <trkpt lat="43.61001" lon="2.31334">
        <ele>304.525652</ele>
        <time>2021-10-18T12:08:16.000Z</time>
      </trkpt>
      <trkpt lat="43.60999" lon="2.31337">
        <ele>304.675045</ele>
        <time>2021-10-18T12:08:17.000Z</time>
      </trkpt>
      <trkpt lat="43.60998" lon="2.31341">
        <ele>304.823723</ele>
        <time>2021-10-18T12:08:18.000Z</time>
      </trkpt>
      <trkpt lat="43.60997" lon="2.31344">
        <ele>304.960016</ele>
        <time>2021-10-18T12:08:19.000Z</time>
      </trkpt>
      <trkpt lat="43.60996" lon="2.31347">
        <ele>305.103321</ele>
        <time>2021-10-18T12:08:20.000Z</time>
      </trkpt>
      <trkpt lat="43.60994" lon="2.3135">
        <ele>305.261254</ele>
        <time>2021-10-18T12:08:21.000Z</time>
      </trkpt>
      <trkpt lat="43.60992" lon="2.31354">
        <ele>305.43521</ele>
        <time>2021-10-18T12:08:22.000Z</time>
      </trkpt>
      <trkpt lat="43.6099" lon="2.31357">
        <ele>305.602701</ele>
        <time>2021-10-18T12:08:23.000Z</time>
      </trkpt>
      <trkpt lat="43.60989" lon="2.31361">
        <ele>305.770299</ele>
        <time>2021-10-18T12:08:24.000Z</time>
      </trkpt>
      <trkpt lat="43.60987" lon="2.31364">
        <ele>305.944254</ele>
        <time>2021-10-18T12:08:25.000Z</time>
      </trkpt>
      <trkpt lat="43.60985" lon="2.31367">
        <ele>306.108553</ele>
        <time>2021-10-18T12:08:26.000Z</time>
      </trkpt>
      <trkpt lat="43.60983" lon="2.31371">
        <ele>306.263497</ele>
        <time>2021-10-18T12:08:27.000Z</time>
      </trkpt>
      <trkpt lat="43.60982" lon="2.31374">
        <ele>306.415592</ele>
        <time>2021-10-18T12:08:28.000Z</time>
      </trkpt>
      <trkpt lat="43.60981" lon="2.31377">
        <ele>306.551885</ele>
        <time>2021-10-18T12:08:29.000Z</time>
      </trkpt>
      <trkpt lat="43.6098" lon="2.3138">
        <ele>306.696352</ele>
        <time>2021-10-18T12:08:30.000Z</time>
      </trkpt>
      <trkpt lat="43.60978" lon="2.31384">
        <ele>306.852779</ele>
        <time>2021-10-18T12:08:31.000Z</time>
      </trkpt>
      <trkpt lat="43.60977" lon="2.31387">
        <ele>307.004168</ele>
        <time>2021-10-18T12:08:32.000Z</time>
      </trkpt>
      <trkpt lat="43.60975" lon="2.3139">
        <ele>307.171829</ele>
        <time>2021-10-18T12:08:33.000Z</time>
      </trkpt>
      <trkpt lat="43.60973" lon="2.31394">
        <ele>307.34603</ele>
        <time>2021-10-18T12:08:34.000Z</time>
      </trkpt>
      <trkpt lat="43.60971" lon="2.31397">
        <ele>307.528177</ele>
        <time>2021-10-18T12:08:35.000Z</time>
      </trkpt>
      <trkpt lat="43.60968" lon="2.314">
        <ele>307.70748</ele>
        <time>2021-10-18T12:08:36.000Z</time>
      </trkpt>
      <trkpt lat="43.60966" lon="2.31403">
        <ele>307.873415</ele>
        <time>2021-10-18T12:08:37.000Z</time>
      </trkpt>
      <trkpt lat="43.60965" lon="2.31406">
        <ele>308.015141</ele>
        <time>2021-10-18T12:08:38.000Z</time>
      </trkpt>
      <trkpt lat="43.60963" lon="2.31409">
        <ele>308.16331</ele>
        <time>2021-10-18T12:08:39.000Z</time>
      </trkpt>
      <trkpt lat="43.60961" lon="2.31412">
        <ele>308.317952</ele>
        <time>2021-10-18T12:08:40.000Z</time>
      </trkpt>
      <trkpt lat="43.6096" lon="2.31415">
        <ele>308.456557</ele>
        <time>2021-10-18T12:08:41.000Z</time>
      </trkpt>
      <trkpt lat="43.60958" lon="2.31418">
        <ele>308.602507</ele>
        <time>2021-10-18T12:08:42.000Z</time>
      </trkpt>
      <trkpt lat="43.60957" lon="2.3142">
        <ele>308.731621</ele>
        <time>2021-10-18T12:08:43.000Z</time>
      </trkpt>
      <trkpt lat="43.60955" lon="2.31423">
        <ele>308.860734</ele>
        <time>2021-10-18T12:08:44.000Z</time>
      </trkpt>
      <trkpt lat="43.60954" lon="2.31425">
        <ele>308.989848</ele>
        <time>2021-10-18T12:08:45.000Z</time>
      </trkpt>
      <trkpt lat="43.60953" lon="2.31428">
        <ele>309.106181</ele>
        <time>2021-10-18T12:08:46.000Z</time>
      </trkpt>
      <trkpt lat="43.60951" lon="2.3143">
        <ele>309.215714</ele>
        <time>2021-10-18T12:08:47.000Z</time>
      </trkpt>
      <trkpt lat="43.6095" lon="2.31432">
        <ele>309.30938</ele>
        <time>2021-10-18T12:08:48.000Z</time>
      </trkpt>
      <trkpt lat="43.60949" lon="2.31434">
        <ele>309.415764</ele>
        <time>2021-10-18T12:08:49.000Z</time>
      </trkpt>
      <trkpt lat="43.60947" lon="2.31436">
        <ele>309.5426</ele>
        <time>2021-10-18T12:08:50.000Z</time>
      </trkpt>
      <trkpt lat="43.60946" lon="2.31438">
        <ele>309.668677</ele>
        <time>2021-10-18T12:08:51.000Z</time>
      </trkpt>
      <trkpt lat="43.60944" lon="2.31441">
        <ele>309.788847</ele>
        <time>2021-10-18T12:08:52.000Z</time>
      </trkpt>
      <trkpt lat="43.60943" lon="2.31443">
        <ele>309.917961</ele>
        <time>2021-10-18T12:08:53.000Z</time>
      </trkpt>
      <trkpt lat="43.60941" lon="2.31445">
        <ele>310.044797</ele>
        <time>2021-10-18T12:08:54.000Z</time>
      </trkpt>
      <trkpt lat="43.6094" lon="2.31448">
        <ele>310.167891</ele>
        <time>2021-10-18T12:08:55.000Z</time>
      </trkpt>
      <trkpt lat="43.60938" lon="2.3145">
        <ele>310.293572</ele>
        <time>2021-10-18T12:08:56.000Z</time>
      </trkpt>
      <trkpt lat="43.60937" lon="2.31453">
        <ele>310.409556</ele>
        <time>2021-10-18T12:08:57.000Z</time>
      </trkpt>
      <trkpt lat="43.60936" lon="2.31455">
        <ele>310.528834</ele>
        <time>2021-10-18T12:08:58.000Z</time>
      </trkpt>
      <trkpt lat="43.60935" lon="2.31458">
        <ele>310.654515</ele>
        <time>2021-10-18T12:08:59.000Z</time>
      </trkpt>
      <trkpt lat="43.60933" lon="2.3146">
        <ele>310.777074</ele>
        <time>2021-10-18T12:09:00.000Z</time>
      </trkpt>
      <trkpt lat="43.60931" lon="2.31462">
        <ele>310.909086</ele>
        <time>2021-10-18T12:09:01.000Z</time>
      </trkpt>
      <trkpt lat="43.6093" lon="2.31465">
        <ele>311.035163</ele>
        <time>2021-10-18T12:09:02.000Z</time>
      </trkpt>
      <trkpt lat="43.60928" lon="2.31467">
        <ele>311.170497</ele>
        <time>2021-10-18T12:09:03.000Z</time>
      </trkpt>
      <trkpt lat="43.60927" lon="2.3147">
        <ele>311.312222</ele>
        <time>2021-10-18T12:09:04.000Z</time>
      </trkpt>
      <trkpt lat="43.60926" lon="2.31473">
        <ele>311.451255</ele>
        <time>2021-10-18T12:09:05.000Z</time>
      </trkpt>
      <trkpt lat="43.60924" lon="2.31476">
        <ele>311.602747</ele>
        <time>2021-10-18T12:09:06.000Z</time>
      </trkpt>
      <trkpt lat="43.60923" lon="2.31479">
        <ele>311.745207</ele>
        <time>2021-10-18T12:09:07.000Z</time>
      </trkpt>
      <trkpt lat="43.60921" lon="2.31483">
        <ele>311.909774</ele>
        <time>2021-10-18T12:09:08.000Z</time>
      </trkpt>
      <trkpt lat="43.60919" lon="2.31486">
        <ele>312.054754</ele>
        <time>2021-10-18T12:09:09.000Z</time>
      </trkpt>
      <trkpt lat="43.60918" lon="2.31488">
        <ele>312.196481</ele>
        <time>2021-10-18T12:09:10.000Z</time>
      </trkpt>
      <trkpt lat="43.60916" lon="2.31491">
        <ele>312.325595</ele>
        <time>2021-10-18T12:09:11.000Z</time>
      </trkpt>
      <trkpt lat="43.60915" lon="2.31494">
        <ele>312.454984</ele>
        <time>2021-10-18T12:09:12.000Z</time>
      </trkpt>
      <trkpt lat="43.60914" lon="2.31497">
        <ele>312.599965</ele>
        <time>2021-10-18T12:09:13.000Z</time>
      </trkpt>
      <trkpt lat="43.60912" lon="2.315">
        <ele>312.73528</ele>
        <time>2021-10-18T12:09:14.000Z</time>
      </trkpt>
      <trkpt lat="43.60911" lon="2.31503">
        <ele>312.874313</ele>
        <time>2021-10-18T12:09:15.000Z</time>
      </trkpt>
      <trkpt lat="43.60909" lon="2.31505">
        <ele>313.012919</ele>
        <time>2021-10-18T12:09:16.000Z</time>
      </trkpt>
      <trkpt lat="43.60908" lon="2.31508">
        <ele>313.129252</ele>
        <time>2021-10-18T12:09:17.000Z</time>
      </trkpt>
      <trkpt lat="43.60907" lon="2.31511">
        <ele>313.252452</ele>
        <time>2021-10-18T12:09:18.000Z</time>
      </trkpt>
      <trkpt lat="43.60906" lon="2.31514">
        <ele>313.387077</ele>
        <time>2021-10-18T12:09:19.000Z</time>
      </trkpt>
      <trkpt lat="43.60906" lon="2.31517">
        <ele>313.531472</ele>
        <time>2021-10-18T12:09:20.000Z</time>
      </trkpt>
      <trkpt lat="43.60905" lon="2.31521">
        <ele>313.671703</ele>
        <time>2021-10-18T12:09:21.000Z</time>
      </trkpt>
      <trkpt lat="43.60904" lon="2.31524">
        <ele>313.776607</ele>
        <time>2021-10-18T12:09:22.000Z</time>
      </trkpt>
      <trkpt lat="43.60903" lon="2.31527">
        <ele>313.800433</ele>
        <time>2021-10-18T12:09:23.000Z</time>
      </trkpt>
      <trkpt lat="43.60902" lon="2.31529">
        <ele>313.823165</ele>
        <time>2021-10-18T12:09:24.000Z</time>
      </trkpt>
      <trkpt lat="43.60901" lon="2.31532">
        <ele>313.846292</ele>
        <time>2021-10-18T12:09:25.000Z</time>
      </trkpt>
      <trkpt lat="43.609" lon="2.31536">
        <ele>313.87527</ele>
        <time>2021-10-18T12:09:26.000Z</time>
      </trkpt>
      <trkpt lat="43.60899" lon="2.3154">
        <ele>313.908975</ele>
        <time>2021-10-18T12:09:27.000Z</time>
      </trkpt>
      <trkpt lat="43.60897" lon="2.31544">
        <ele>313.942681</ele>
        <time>2021-10-18T12:09:28.000Z</time>
      </trkpt>
      <trkpt lat="43.60896" lon="2.31548">
        <ele>313.97528</ele>
        <time>2021-10-18T12:09:29.000Z</time>
      </trkpt>
      <trkpt lat="43.60895" lon="2.31551">
        <ele>313.999953</ele>
        <time>2021-10-18T12:09:30.000Z</time>
      </trkpt>
      <trkpt lat="43.60894" lon="2.31554">
        <ele>314.020008</ele>
        <time>2021-10-18T12:09:31.000Z</time>
      </trkpt>
      <trkpt lat="43.60893" lon="2.31556">
        <ele>314.041743</ele>
        <time>2021-10-18T12:09:32.000Z</time>
      </trkpt>
      <trkpt lat="43.60892" lon="2.31559">
        <ele>314.06383</ele>
        <time>2021-10-18T12:09:33.000Z</time>
      </trkpt>
      <trkpt lat="43.60892" lon="2.31562">
        <ele>314.0866</ele>
        <time>2021-10-18T12:09:34.000Z</time>
      </trkpt>
      <trkpt lat="43.60891" lon="2.31565">
        <ele>314.110058</ele>
        <time>2021-10-18T12:09:35.000Z</time>
      </trkpt>
      <trkpt lat="43.6089" lon="2.31568">
        <ele>314.132789</ele>
        <time>2021-10-18T12:09:36.000Z</time>
      </trkpt>
      <trkpt lat="43.60889" lon="2.3157">
        <ele>314.151774</ele>
        <time>2021-10-18T12:09:37.000Z</time>
      </trkpt>
      <trkpt lat="43.60888" lon="2.31573">
        <ele>314.170759</ele>
        <time>2021-10-18T12:09:38.000Z</time>
      </trkpt>
      <trkpt lat="43.60888" lon="2.31575">
        <ele>314.190498</ele>
        <time>2021-10-18T12:09:39.000Z</time>
      </trkpt>
      <trkpt lat="43.60887" lon="2.31578">
        <ele>314.213334</ele>
        <time>2021-10-18T12:09:40.000Z</time>
      </trkpt>
      <trkpt lat="43.60887" lon="2.31581">
        <ele>314.235208</ele>
        <time>2021-10-18T12:09:41.000Z</time>
      </trkpt>
      <trkpt lat="43.60886" lon="2.31583">
        <ele>314.25439</ele>
        <time>2021-10-18T12:09:42.000Z</time>
      </trkpt>
      <trkpt lat="43.60885" lon="2.31586">
        <ele>314.274601</ele>
        <time>2021-10-18T12:09:43.000Z</time>
      </trkpt>
      <trkpt lat="43.60883" lon="2.31588">
        <ele>314.298392</ele>
        <time>2021-10-18T12:09:44.000Z</time>
      </trkpt>
      <trkpt lat="43.60883" lon="2.31592">
        <ele>314.326452</ele>
        <time>2021-10-18T12:09:45.000Z</time>
      </trkpt>
      <trkpt lat="43.60882" lon="2.31596">
        <ele>314.35608</ele>
        <time>2021-10-18T12:09:46.000Z</time>
      </trkpt>
      <trkpt lat="43.60882" lon="2.316">
        <ele>314.388211</ele>
        <time>2021-10-18T12:09:47.000Z</time>
      </trkpt>
      <trkpt lat="43.60881" lon="2.31605">
        <ele>314.420652</ele>
        <time>2021-10-18T12:09:48.000Z</time>
      </trkpt>
      <trkpt lat="43.6088" lon="2.31608">
        <ele>314.446883</ele>
        <time>2021-10-18T12:09:49.000Z</time>
      </trkpt>
      <trkpt lat="43.60879" lon="2.31611">
        <ele>314.46897</ele>
        <time>2021-10-18T12:09:50.000Z</time>
      </trkpt>
      <trkpt lat="43.60878" lon="2.31613">
        <ele>314.4876</ele>
        <time>2021-10-18T12:09:51.000Z</time>
      </trkpt>
      <trkpt lat="43.60878" lon="2.31616">
        <ele>314.509025</ele>
        <time>2021-10-18T12:09:52.000Z</time>
      </trkpt>
      <trkpt lat="43.60877" lon="2.31619">
        <ele>314.534214</ele>
        <time>2021-10-18T12:09:53.000Z</time>
      </trkpt>
      <trkpt lat="43.60876" lon="2.31622">
        <ele>314.558041</ele>
        <time>2021-10-18T12:09:54.000Z</time>
      </trkpt>
      <trkpt lat="43.60876" lon="2.31626">
        <ele>314.582592</ele>
        <time>2021-10-18T12:09:55.000Z</time>
      </trkpt>
      <trkpt lat="43.60876" lon="2.3163">
        <ele>314.61222</ele>
        <time>2021-10-18T12:09:56.000Z</time>
      </trkpt>
      <trkpt lat="43.60875" lon="2.31633">
        <ele>314.640395</ele>
        <time>2021-10-18T12:09:57.000Z</time>
      </trkpt>
      <trkpt lat="43.60875" lon="2.31637">
        <ele>314.669297</ele>
        <time>2021-10-18T12:09:58.000Z</time>
      </trkpt>
      <trkpt lat="43.60874" lon="2.31641">
        <ele>314.698334</ele>
        <time>2021-10-18T12:09:59.000Z</time>
      </trkpt>
      <trkpt lat="43.60873" lon="2.31645">
        <ele>314.727104</ele>
        <time>2021-10-18T12:10:00.000Z</time>
      </trkpt>
      <trkpt lat="43.60873" lon="2.31649">
        <ele>314.755279</ele>
        <time>2021-10-18T12:10:01.000Z</time>
      </trkpt>
      <trkpt lat="43.60873" lon="2.31653">
        <ele>314.78709</ele>
        <time>2021-10-18T12:10:02.000Z</time>
      </trkpt>
      <trkpt lat="43.60872" lon="2.31658">
        <ele>314.821579</ele>
        <time>2021-10-18T12:10:03.000Z</time>
      </trkpt>
      <trkpt lat="43.60871" lon="2.31663">
        <ele>314.858043</ele>
        <time>2021-10-18T12:10:04.000Z</time>
      </trkpt>
      <trkpt lat="43.6087" lon="2.31667">
        <ele>314.894692</ele>
        <time>2021-10-18T12:10:05.000Z</time>
      </trkpt>
      <trkpt lat="43.60869" lon="2.31672">
        <ele>314.931548</ele>
        <time>2021-10-18T12:10:06.000Z</time>
      </trkpt>
      <trkpt lat="43.60869" lon="2.31677">
        <ele>314.966756</ele>
        <time>2021-10-18T12:10:07.000Z</time>
      </trkpt>
      <trkpt lat="43.60868" lon="2.31681">
        <ele>315.000755</ele>
        <time>2021-10-18T12:10:08.000Z</time>
      </trkpt>
      <trkpt lat="43.60867" lon="2.31686">
        <ele>315.035467</ele>
        <time>2021-10-18T12:10:09.000Z</time>
      </trkpt>
      <trkpt lat="43.60866" lon="2.31691">
        <ele>315.071394</ele>
        <time>2021-10-18T12:10:10.000Z</time>
      </trkpt>
      <trkpt lat="43.60866" lon="2.31696">
        <ele>315.108966</ele>
        <time>2021-10-18T12:10:11.000Z</time>
      </trkpt>
      <trkpt lat="43.60865" lon="2.317">
        <ele>315.142253</ele>
        <time>2021-10-18T12:10:12.000Z</time>
      </trkpt>
      <trkpt lat="43.60864" lon="2.31705">
        <ele>315.17554</ele>
        <time>2021-10-18T12:10:13.000Z</time>
      </trkpt>
      <trkpt lat="43.60863" lon="2.31708">
        <ele>315.205207</ele>
        <time>2021-10-18T12:10:14.000Z</time>
      </trkpt>
      <trkpt lat="43.60863" lon="2.31712">
        <ele>315.230339</ele>
        <time>2021-10-18T12:10:15.000Z</time>
      </trkpt>
      <trkpt lat="43.60863" lon="2.31715">
        <ele>315.253107</ele>
        <time>2021-10-18T12:10:16.000Z</time>
      </trkpt>
      <trkpt lat="43.60862" lon="2.31718">
        <ele>315.277406</ele>
        <time>2021-10-18T12:10:17.000Z</time>
      </trkpt>
      <trkpt lat="43.60862" lon="2.31722">
        <ele>315.305306</ele>
        <time>2021-10-18T12:10:18.000Z</time>
      </trkpt>
      <trkpt lat="43.60862" lon="2.31726">
        <ele>315.331895</ele>
        <time>2021-10-18T12:10:19.000Z</time>
      </trkpt>
      <trkpt lat="43.60862" lon="2.31729">
        <ele>315.35833</ele>
        <time>2021-10-18T12:10:20.000Z</time>
      </trkpt>
      <trkpt lat="43.60861" lon="2.31733">
        <ele>315.385947</ele>
        <time>2021-10-18T12:10:21.000Z</time>
      </trkpt>
      <trkpt lat="43.60861" lon="2.31737">
        <ele>315.413768</ele>
        <time>2021-10-18T12:10:22.000Z</time>
      </trkpt>
      <trkpt lat="43.60861" lon="2.31741">
        <ele>315.444602</ele>
        <time>2021-10-18T12:10:23.000Z</time>
      </trkpt>
      <trkpt lat="43.6086" lon="2.31745">
        <ele>315.474957</ele>
        <time>2021-10-18T12:10:24.000Z</time>
      </trkpt>
      <trkpt lat="43.6086" lon="2.31749">
        <ele>315.505866</ele>
        <time>2021-10-18T12:10:25.000Z</time>
      </trkpt>
      <trkpt lat="43.60859" lon="2.31753">
        <ele>315.536949</ele>
        <time>2021-10-18T12:10:26.000Z</time>
      </trkpt>
      <trkpt lat="43.60859" lon="2.31757">
        <ele>315.567915</ele>
        <time>2021-10-18T12:10:27.000Z</time>
      </trkpt>
      <trkpt lat="43.60859" lon="2.31762">
        <ele>315.619184</ele>
        <time>2021-10-18T12:10:28.000Z</time>
      </trkpt>
      <trkpt lat="43.60859" lon="2.31766">
        <ele>315.749516</ele>
        <time>2021-10-18T12:10:29.000Z</time>
      </trkpt>
      <trkpt lat="43.60859" lon="2.3177">
        <ele>315.873213</ele>
        <time>2021-10-18T12:10:30.000Z</time>
      </trkpt>
      <trkpt lat="43.60859" lon="2.31774">
        <ele>315.993893</ele>
        <time>2021-10-18T12:10:31.000Z</time>
      </trkpt>
      <trkpt lat="43.60859" lon="2.31778">
        <ele>316.111556</ele>
        <time>2021-10-18T12:10:32.000Z</time>
      </trkpt>
      <trkpt lat="43.60859" lon="2.31782">
        <ele>316.226278</ele>
        <time>2021-10-18T12:10:33.000Z</time>
      </trkpt>
      <trkpt lat="43.60859" lon="2.31786">
        <ele>316.345115</ele>
        <time>2021-10-18T12:10:34.000Z</time>
      </trkpt>
      <trkpt lat="43.60859" lon="2.3179">
        <ele>316.466441</ele>
        <time>2021-10-18T12:10:35.000Z</time>
      </trkpt>
      <trkpt lat="43.60859" lon="2.31794">
        <ele>316.581162</ele>
        <time>2021-10-18T12:10:36.000Z</time>
      </trkpt>
      <trkpt lat="43.6086" lon="2.31798">
        <ele>316.699487</ele>
        <time>2021-10-18T12:10:37.000Z</time>
      </trkpt>
      <trkpt lat="43.6086" lon="2.31801">
        <ele>316.814209</ele>
        <time>2021-10-18T12:10:38.000Z</time>
      </trkpt>
      <trkpt lat="43.6086" lon="2.31805">
        <ele>316.921111</ele>
        <time>2021-10-18T12:10:39.000Z</time>
      </trkpt>
      <trkpt lat="43.60861" lon="2.31808">
        <ele>317.027443</ele>
        <time>2021-10-18T12:10:40.000Z</time>
      </trkpt>
      <trkpt lat="43.60861" lon="2.31812">
        <ele>317.134346</ele>
        <time>2021-10-18T12:10:41.000Z</time>
      </trkpt>
      <trkpt lat="43.60861" lon="2.31815">
        <ele>317.238269</ele>
        <time>2021-10-18T12:10:42.000Z</time>
      </trkpt>
      <trkpt lat="43.60862" lon="2.31819">
        <ele>317.342941</ele>
        <time>2021-10-18T12:10:43.000Z</time>
      </trkpt>
      <trkpt lat="43.60862" lon="2.31822">
        <ele>317.43684</ele>
        <time>2021-10-18T12:10:44.000Z</time>
      </trkpt>
      <trkpt lat="43.60862" lon="2.31825">
        <ele>317.524333</ele>
        <time>2021-10-18T12:10:45.000Z</time>
      </trkpt>
      <trkpt lat="43.60862" lon="2.31827">
        <ele>317.605792</ele>
        <time>2021-10-18T12:10:46.000Z</time>
      </trkpt>
      <trkpt lat="43.60862" lon="2.31829">
        <ele>317.669149</ele>
        <time>2021-10-18T12:10:47.000Z</time>
      </trkpt>
      <trkpt lat="43.60862" lon="2.31832">
        <ele>317.738665</ele>
        <time>2021-10-18T12:10:48.000Z</time>
      </trkpt>
      <trkpt lat="43.60862" lon="2.31834">
        <ele>317.818858</ele>
        <time>2021-10-18T12:10:49.000Z</time>
      </trkpt>
      <trkpt lat="43.60861" lon="2.31838">
        <ele>317.92353</ele>
        <time>2021-10-18T12:10:50.000Z</time>
      </trkpt>
      <trkpt lat="43.60861" lon="2.31842">
        <ele>318.05164</ele>
        <time>2021-10-18T12:10:51.000Z</time>
      </trkpt>
      <trkpt lat="43.6086" lon="2.31846">
        <ele>318.183758</ele>
        <time>2021-10-18T12:10:52.000Z</time>
      </trkpt>
      <trkpt lat="43.6086" lon="2.3185">
        <ele>318.317093</ele>
        <time>2021-10-18T12:10:53.000Z</time>
      </trkpt>
      <trkpt lat="43.6086" lon="2.31855">
        <ele>318.444081</ele>
        <time>2021-10-18T12:10:54.000Z</time>
      </trkpt>
      <trkpt lat="43.60859" lon="2.31859">
        <ele>318.578026</ele>
        <time>2021-10-18T12:10:55.000Z</time>
      </trkpt>
      <trkpt lat="43.60858" lon="2.31863">
        <ele>318.708654</ele>
        <time>2021-10-18T12:10:56.000Z</time>
      </trkpt>
      <trkpt lat="43.60856" lon="2.31867">
        <ele>318.826541</ele>
        <time>2021-10-18T12:10:57.000Z</time>
      </trkpt>
      <trkpt lat="43.60855" lon="2.3187">
        <ele>318.950618</ele>
        <time>2021-10-18T12:10:58.000Z</time>
      </trkpt>
      <trkpt lat="43.60854" lon="2.31874">
        <ele>319.075929</ele>
        <time>2021-10-18T12:10:59.000Z</time>
      </trkpt>
      <trkpt lat="43.60852" lon="2.31877">
        <ele>319.186157</ele>
        <time>2021-10-18T12:11:00.000Z</time>
      </trkpt>
      <trkpt lat="43.60851" lon="2.3188">
        <ele>319.294238</ele>
        <time>2021-10-18T12:11:01.000Z</time>
      </trkpt>
      <trkpt lat="43.6085" lon="2.31883">
        <ele>319.396898</ele>
        <time>2021-10-18T12:11:02.000Z</time>
      </trkpt>
      <trkpt lat="43.60848" lon="2.31886">
        <ele>319.492479</ele>
        <time>2021-10-18T12:11:03.000Z</time>
      </trkpt>
      <trkpt lat="43.60847" lon="2.31889">
        <ele>319.604892</ele>
        <time>2021-10-18T12:11:04.000Z</time>
      </trkpt>
      <trkpt lat="43.60845" lon="2.31891">
        <ele>319.705243</ele>
        <time>2021-10-18T12:11:05.000Z</time>
      </trkpt>
      <trkpt lat="43.60845" lon="2.31894">
        <ele>319.789476</ele>
        <time>2021-10-18T12:11:06.000Z</time>
      </trkpt>
      <trkpt lat="43.60843" lon="2.31897">
        <ele>319.885057</ele>
        <time>2021-10-18T12:11:07.000Z</time>
      </trkpt>
      <trkpt lat="43.60842" lon="2.31899">
        <ele>319.990141</ele>
        <time>2021-10-18T12:11:08.000Z</time>
      </trkpt>
      <trkpt lat="43.6084" lon="2.31902">
        <ele>320.097665</ele>
        <time>2021-10-18T12:11:09.000Z</time>
      </trkpt>
      <trkpt lat="43.60839" lon="2.31905">
        <ele>320.191133</ele>
        <time>2021-10-18T12:11:10.000Z</time>
      </trkpt>
      <trkpt lat="43.60838" lon="2.31908">
        <ele>320.289298</ele>
        <time>2021-10-18T12:11:11.000Z</time>
      </trkpt>
      <trkpt lat="43.60837" lon="2.31911">
        <ele>320.395352</ele>
        <time>2021-10-18T12:11:12.000Z</time>
      </trkpt>
      <trkpt lat="43.60835" lon="2.31914">
        <ele>320.498012</ele>
        <time>2021-10-18T12:11:13.000Z</time>
      </trkpt>
      <trkpt lat="43.60834" lon="2.31917">
        <ele>320.603493</ele>
        <time>2021-10-18T12:11:14.000Z</time>
      </trkpt>
      <trkpt lat="43.60833" lon="2.3192">
        <ele>320.72413</ele>
        <time>2021-10-18T12:11:15.000Z</time>
      </trkpt>
      <trkpt lat="43.60832" lon="2.31924">
        <ele>320.840965</ele>
        <time>2021-10-18T12:11:16.000Z</time>
      </trkpt>
      <trkpt lat="43.6083" lon="2.31927">
        <ele>320.970987</ele>
        <time>2021-10-18T12:11:17.000Z</time>
      </trkpt>
      <trkpt lat="43.60829" lon="2.31931">
        <ele>321.088993</ele>
        <time>2021-10-18T12:11:18.000Z</time>
      </trkpt>
      <trkpt lat="43.60827" lon="2.31934">
        <ele>321.195864</ele>
        <time>2021-10-18T12:11:19.000Z</time>
      </trkpt>
      <trkpt lat="43.60826" lon="2.31937">
        <ele>321.303945</ele>
        <time>2021-10-18T12:11:20.000Z</time>
      </trkpt>
      <trkpt lat="43.60825" lon="2.31941">
        <ele>321.426652</ele>
        <time>2021-10-18T12:11:21.000Z</time>
      </trkpt>
      <trkpt lat="43.60823" lon="2.31944">
        <ele>321.544205</ele>
        <time>2021-10-18T12:11:22.000Z</time>
      </trkpt>
      <trkpt lat="43.60822" lon="2.31947">
        <ele>321.664325</ele>
        <time>2021-10-18T12:11:23.000Z</time>
      </trkpt>
      <trkpt lat="43.6082" lon="2.31951">
        <ele>321.796532</ele>
        <time>2021-10-18T12:11:24.000Z</time>
      </trkpt>
      <trkpt lat="43.60818" lon="2.31955">
        <ele>321.931018</ele>
        <time>2021-10-18T12:11:25.000Z</time>
      </trkpt>
      <trkpt lat="43.60817" lon="2.31958">
        <ele>322.063639</ele>
        <time>2021-10-18T12:11:26.000Z</time>
      </trkpt>
      <trkpt lat="43.60815" lon="2.31962">
        <ele>322.205457</ele>
        <time>2021-10-18T12:11:27.000Z</time>
      </trkpt>
      <trkpt lat="43.60813" lon="2.31966">
        <ele>322.344782</ele>
        <time>2021-10-18T12:11:28.000Z</time>
      </trkpt>
      <trkpt lat="43.60811" lon="2.3197">
        <ele>322.481635</ele>
        <time>2021-10-18T12:11:29.000Z</time>
      </trkpt>
      <trkpt lat="43.60809" lon="2.31974">
        <ele>322.618635</ele>
        <time>2021-10-18T12:11:30.000Z</time>
      </trkpt>
      <trkpt lat="43.60807" lon="2.31977">
        <ele>322.751257</ele>
        <time>2021-10-18T12:11:31.000Z</time>
      </trkpt>
      <trkpt lat="43.60806" lon="2.31981">
        <ele>322.885661</ele>
        <time>2021-10-18T12:11:32.000Z</time>
      </trkpt>
      <trkpt lat="43.60804" lon="2.31985">
        <ele>323.02256</ele>
        <time>2021-10-18T12:11:33.000Z</time>
      </trkpt>
      <trkpt lat="43.60802" lon="2.31988">
        <ele>323.077897</ele>
        <time>2021-10-18T12:11:34.000Z</time>
      </trkpt>
      <trkpt lat="43.608" lon="2.31991">
        <ele>323.058111</ele>
        <time>2021-10-18T12:11:35.000Z</time>
      </trkpt>
      <trkpt lat="43.60799" lon="2.31995">
        <ele>323.038326</ele>
        <time>2021-10-18T12:11:36.000Z</time>
      </trkpt>
      <trkpt lat="43.60797" lon="2.31998">
        <ele>323.018159</ele>
        <time>2021-10-18T12:11:37.000Z</time>
      </trkpt>
      <trkpt lat="43.60796" lon="2.32001">
        <ele>322.998373</ele>
        <time>2021-10-18T12:11:38.000Z</time>
      </trkpt>
      <trkpt lat="43.60794" lon="2.32005">
        <ele>322.976923</ele>
        <time>2021-10-18T12:11:39.000Z</time>
      </trkpt>
      <trkpt lat="43.60792" lon="2.32009">
        <ele>322.953477</ele>
        <time>2021-10-18T12:11:40.000Z</time>
      </trkpt>
      <trkpt lat="43.6079" lon="2.32013">
        <ele>322.92797</ele>
        <time>2021-10-18T12:11:41.000Z</time>
      </trkpt>
      <trkpt lat="43.60788" lon="2.32017">
        <ele>322.902468</ele>
        <time>2021-10-18T12:11:42.000Z</time>
      </trkpt>
      <trkpt lat="43.60785" lon="2.32021">
        <ele>322.873666</ele>
        <time>2021-10-18T12:11:43.000Z</time>
      </trkpt>
      <trkpt lat="43.60783" lon="2.32026">
        <ele>322.843203</ele>
        <time>2021-10-18T12:11:44.000Z</time>
      </trkpt>
      <trkpt lat="43.60781" lon="2.32031">
        <ele>322.813975</ele>
        <time>2021-10-18T12:11:45.000Z</time>
      </trkpt>
      <trkpt lat="43.60778" lon="2.32036">
        <ele>322.78311</ele>
        <time>2021-10-18T12:11:46.000Z</time>
      </trkpt>
      <trkpt lat="43.60775" lon="2.32041">
        <ele>322.751843</ele>
        <time>2021-10-18T12:11:47.000Z</time>
      </trkpt>
      <trkpt lat="43.60773" lon="2.32045">
        <ele>322.721808</ele>
        <time>2021-10-18T12:11:48.000Z</time>
      </trkpt>
      <trkpt lat="43.6077" lon="2.3205">
        <ele>322.692969</ele>
        <time>2021-10-18T12:11:49.000Z</time>
      </trkpt>
      <trkpt lat="43.60768" lon="2.32054">
        <ele>322.667055</ele>
        <time>2021-10-18T12:11:50.000Z</time>
      </trkpt>
      <trkpt lat="43.60766" lon="2.32058">
        <ele>322.643605</ele>
        <time>2021-10-18T12:11:51.000Z</time>
      </trkpt>
      <trkpt lat="43.60764" lon="2.32061">
        <ele>322.62097</ele>
        <time>2021-10-18T12:11:52.000Z</time>
      </trkpt>
      <trkpt lat="43.60763" lon="2.32065">
        <ele>322.601763</ele>
        <time>2021-10-18T12:11:53.000Z</time>
      </trkpt>
      <trkpt lat="43.60761" lon="2.32068">
        <ele>322.58283</ele>
        <time>2021-10-18T12:11:54.000Z</time>
      </trkpt>
      <trkpt lat="43.6076" lon="2.32071">
        <ele>322.562662</ele>
        <time>2021-10-18T12:11:55.000Z</time>
      </trkpt>
      <trkpt lat="43.60758" lon="2.32074">
        <ele>322.543649</ele>
        <time>2021-10-18T12:11:56.000Z</time>
      </trkpt>
      <trkpt lat="43.60756" lon="2.32077">
        <ele>322.523902</ele>
        <time>2021-10-18T12:11:57.000Z</time>
      </trkpt>
      <trkpt lat="43.60754" lon="2.3208">
        <ele>322.502493</ele>
        <time>2021-10-18T12:11:58.000Z</time>
      </trkpt>
      <trkpt lat="43.60753" lon="2.32084">
        <ele>322.481105</ele>
        <time>2021-10-18T12:11:59.000Z</time>
      </trkpt>
      <trkpt lat="43.60751" lon="2.32087">
        <ele>322.461319</ele>
        <time>2021-10-18T12:12:00.000Z</time>
      </trkpt>
      <trkpt lat="43.6075" lon="2.3209">
        <ele>322.441962</ele>
        <time>2021-10-18T12:12:01.000Z</time>
      </trkpt>
      <trkpt lat="43.60748" lon="2.32094">
        <ele>322.42321</ele>
        <time>2021-10-18T12:12:02.000Z</time>
      </trkpt>
      <trkpt lat="43.60747" lon="2.32097">
        <ele>322.402992</ele>
        <time>2021-10-18T12:12:03.000Z</time>
      </trkpt>
      <trkpt lat="43.60745" lon="2.321">
        <ele>322.383635</ele>
        <time>2021-10-18T12:12:04.000Z</time>
      </trkpt>
      <trkpt lat="43.60744" lon="2.32103">
        <ele>322.364701</ele>
        <time>2021-10-18T12:12:05.000Z</time>
      </trkpt>
      <trkpt lat="43.60743" lon="2.32106">
        <ele>322.346851</ele>
        <time>2021-10-18T12:12:06.000Z</time>
      </trkpt>
      <trkpt lat="43.60741" lon="2.32109">
        <ele>322.329152</ele>
        <time>2021-10-18T12:12:07.000Z</time>
      </trkpt>
      <trkpt lat="43.6074" lon="2.32112">
        <ele>322.312528</ele>
        <time>2021-10-18T12:12:08.000Z</time>
      </trkpt>
      <trkpt lat="43.60739" lon="2.32116">
        <ele>322.294621</ele>
        <time>2021-10-18T12:12:09.000Z</time>
      </trkpt>
      <trkpt lat="43.60738" lon="2.32119">
        <ele>322.275414</ele>
        <time>2021-10-18T12:12:10.000Z</time>
      </trkpt>
      <trkpt lat="43.60737" lon="2.32123">
        <ele>322.254663</ele>
        <time>2021-10-18T12:12:11.000Z</time>
      </trkpt>
      <trkpt lat="43.60735" lon="2.32126">
        <ele>322.234235</ele>
        <time>2021-10-18T12:12:12.000Z</time>
      </trkpt>
      <trkpt lat="43.60734" lon="2.32129">
        <ele>322.214813</ele>
        <time>2021-10-18T12:12:13.000Z</time>
      </trkpt>
      <trkpt lat="43.60733" lon="2.32133">
        <ele>322.196365</ele>
        <time>2021-10-18T12:12:14.000Z</time>
      </trkpt>
      <trkpt lat="43.60732" lon="2.32136">
        <ele>322.179741</ele>
        <time>2021-10-18T12:12:15.000Z</time>
      </trkpt>
      <trkpt lat="43.60731" lon="2.32138">
        <ele>322.164926</ele>
        <time>2021-10-18T12:12:16.000Z</time>
      </trkpt>
      <trkpt lat="43.6073" lon="2.32142">
        <ele>322.146627</ele>
        <time>2021-10-18T12:12:17.000Z</time>
      </trkpt>
      <trkpt lat="43.60729" lon="2.32145">
        <ele>322.126962</ele>
        <time>2021-10-18T12:12:18.000Z</time>
      </trkpt>
      <trkpt lat="43.60727" lon="2.32148">
        <ele>322.107604</ele>
        <time>2021-10-18T12:12:19.000Z</time>
      </trkpt>
      <trkpt lat="43.60726" lon="2.32151">
        <ele>322.090834</ele>
        <time>2021-10-18T12:12:20.000Z</time>
      </trkpt>
      <trkpt lat="43.60725" lon="2.32154">
        <ele>322.075277</ele>
        <time>2021-10-18T12:12:21.000Z</time>
      </trkpt>
      <trkpt lat="43.60724" lon="2.32157">
        <ele>322.058653</ele>
        <time>2021-10-18T12:12:22.000Z</time>
      </trkpt>
      <trkpt lat="43.60723" lon="2.3216">
        <ele>322.041577</ele>
        <time>2021-10-18T12:12:23.000Z</time>
      </trkpt>
      <trkpt lat="43.60722" lon="2.32163">
        <ele>322.024615</ele>
        <time>2021-10-18T12:12:24.000Z</time>
      </trkpt>
      <trkpt lat="43.60721" lon="2.32166">
        <ele>322.008439</ele>
        <time>2021-10-18T12:12:25.000Z</time>
      </trkpt>
      <trkpt lat="43.60719" lon="2.32168">
        <ele>321.991549</ele>
        <time>2021-10-18T12:12:26.000Z</time>
      </trkpt>
      <trkpt lat="43.60718" lon="2.32171">
        <ele>321.973425</ele>
        <time>2021-10-18T12:12:27.000Z</time>
      </trkpt>
      <trkpt lat="43.60717" lon="2.32174">
        <ele>321.957337</ele>
        <time>2021-10-18T12:12:28.000Z</time>
      </trkpt>
      <trkpt lat="43.60715" lon="2.32177">
        <ele>321.938417</ele>
        <time>2021-10-18T12:12:29.000Z</time>
      </trkpt>
      <trkpt lat="43.60714" lon="2.3218">
        <ele>321.920717</ele>
        <time>2021-10-18T12:12:30.000Z</time>
      </trkpt>
      <trkpt lat="43.60713" lon="2.32183">
        <ele>321.904093</ele>
        <time>2021-10-18T12:12:31.000Z</time>
      </trkpt>
      <trkpt lat="43.60711" lon="2.32186">
        <ele>321.88546</ele>
        <time>2021-10-18T12:12:32.000Z</time>
      </trkpt>
      <trkpt lat="43.6071" lon="2.32189">
        <ele>321.865675</ele>
        <time>2021-10-18T12:12:33.000Z</time>
      </trkpt>
      <trkpt lat="43.60708" lon="2.32193">
        <ele>321.846741</ele>
        <time>2021-10-18T12:12:34.000Z</time>
      </trkpt>
      <trkpt lat="43.60707" lon="2.32195">
        <ele>321.828227</ele>
        <time>2021-10-18T12:12:35.000Z</time>
      </trkpt>
      <trkpt lat="43.60705" lon="2.32199">
        <ele>321.884893</ele>
        <time>2021-10-18T12:12:36.000Z</time>
      </trkpt>
      <trkpt lat="43.60703" lon="2.32202">
        <ele>321.94941</ele>
        <time>2021-10-18T12:12:37.000Z</time>
      </trkpt>
      <trkpt lat="43.60702" lon="2.32205">
        <ele>322.009095</ele>
        <time>2021-10-18T12:12:38.000Z</time>
      </trkpt>
      <trkpt lat="43.607" lon="2.32208">
        <ele>322.06617</ele>
        <time>2021-10-18T12:12:39.000Z</time>
      </trkpt>
      <trkpt lat="43.60699" lon="2.32212">
        <ele>322.125739</ele>
        <time>2021-10-18T12:12:40.000Z</time>
      </trkpt>
      <trkpt lat="43.60697" lon="2.32215">
        <ele>322.190257</ele>
        <time>2021-10-18T12:12:41.000Z</time>
      </trkpt>
      <trkpt lat="43.60695" lon="2.32219">
        <ele>322.255213</ele>
        <time>2021-10-18T12:12:42.000Z</time>
      </trkpt>
      <trkpt lat="43.60694" lon="2.32222">
        <ele>322.319918</ele>
        <time>2021-10-18T12:12:43.000Z</time>
      </trkpt>
      <trkpt lat="43.60692" lon="2.32226">
        <ele>322.384436</ele>
        <time>2021-10-18T12:12:44.000Z</time>
      </trkpt>
      <trkpt lat="43.6069" lon="2.32229">
        <ele>322.442751</ele>
        <time>2021-10-18T12:12:45.000Z</time>
      </trkpt>
      <trkpt lat="43.60689" lon="2.32232">
        <ele>322.499864</ele>
        <time>2021-10-18T12:12:46.000Z</time>
      </trkpt>
      <trkpt lat="43.60687" lon="2.32235">
        <ele>322.559433</ele>
        <time>2021-10-18T12:12:47.000Z</time>
      </trkpt>
      <trkpt lat="43.60685" lon="2.32238">
        <ele>322.622721</ele>
        <time>2021-10-18T12:12:48.000Z</time>
      </trkpt>
      <trkpt lat="43.60684" lon="2.32242">
        <ele>322.682406</ele>
        <time>2021-10-18T12:12:49.000Z</time>
      </trkpt>
      <trkpt lat="43.60682" lon="2.32245">
        <ele>322.741975</ele>
        <time>2021-10-18T12:12:50.000Z</time>
      </trkpt>
      <trkpt lat="43.60681" lon="2.32248">
        <ele>322.797941</ele>
        <time>2021-10-18T12:12:51.000Z</time>
      </trkpt>
      <trkpt lat="43.6068" lon="2.32251">
        <ele>322.847782</ele>
        <time>2021-10-18T12:12:52.000Z</time>
      </trkpt>
      <trkpt lat="43.60678" lon="2.32254">
        <ele>322.899912</ele>
        <time>2021-10-18T12:12:53.000Z</time>
      </trkpt>
      <trkpt lat="43.60677" lon="2.32257">
        <ele>322.950502</ele>
        <time>2021-10-18T12:12:54.000Z</time>
      </trkpt>
      <trkpt lat="43.60676" lon="2.3226">
        <ele>323.001663</ele>
        <time>2021-10-18T12:12:55.000Z</time>
      </trkpt>
      <trkpt lat="43.60675" lon="2.32263">
        <ele>323.057313</ele>
        <time>2021-10-18T12:12:56.000Z</time>
      </trkpt>
      <trkpt lat="43.60674" lon="2.32266">
        <ele>323.113879</ele>
        <time>2021-10-18T12:12:57.000Z</time>
      </trkpt>
      <trkpt lat="43.60673" lon="2.3227">
        <ele>323.170924</ele>
        <time>2021-10-18T12:12:58.000Z</time>
      </trkpt>
      <trkpt lat="43.60672" lon="2.32273">
        <ele>323.230778</ele>
        <time>2021-10-18T12:12:59.000Z</time>
      </trkpt>
      <trkpt lat="43.60671" lon="2.32277">
        <ele>323.291398</ele>
        <time>2021-10-18T12:13:00.000Z</time>
      </trkpt>
      <trkpt lat="43.6067" lon="2.32281">
        <ele>323.350718</ele>
        <time>2021-10-18T12:13:01.000Z</time>
      </trkpt>
      <trkpt lat="43.60669" lon="2.32284">
        <ele>323.405517</ele>
        <time>2021-10-18T12:13:02.000Z</time>
      </trkpt>
      <trkpt lat="43.60668" lon="2.32287">
        <ele>323.456678</ele>
        <time>2021-10-18T12:13:03.000Z</time>
      </trkpt>
      <trkpt lat="43.60667" lon="2.3229">
        <ele>323.507269</ele>
        <time>2021-10-18T12:13:04.000Z</time>
      </trkpt>
      <trkpt lat="43.60666" lon="2.32293">
        <ele>323.559126</ele>
        <time>2021-10-18T12:13:05.000Z</time>
      </trkpt>
      <trkpt lat="43.60665" lon="2.32296">
        <ele>323.609539</ele>
        <time>2021-10-18T12:13:06.000Z</time>
      </trkpt>
      <trkpt lat="43.60664" lon="2.323">
        <ele>323.666106</ele>
        <time>2021-10-18T12:13:07.000Z</time>
      </trkpt>
      <trkpt lat="43.60663" lon="2.32303">
        <ele>323.727374</ele>
        <time>2021-10-18T12:13:08.000Z</time>
      </trkpt>
      <trkpt lat="43.60662" lon="2.32307">
        <ele>323.79242</ele>
        <time>2021-10-18T12:13:09.000Z</time>
      </trkpt>
      <trkpt lat="43.60661" lon="2.32311">
        <ele>323.857331</ele>
        <time>2021-10-18T12:13:10.000Z</time>
      </trkpt>
      <trkpt lat="43.6066" lon="2.32315">
        <ele>323.917828</ele>
        <time>2021-10-18T12:13:11.000Z</time>
      </trkpt>
      <trkpt lat="43.60659" lon="2.32319">
        <ele>323.97992</ele>
        <time>2021-10-18T12:13:12.000Z</time>
      </trkpt>
      <trkpt lat="43.60658" lon="2.32323">
        <ele>324.04054</ele>
        <time>2021-10-18T12:13:13.000Z</time>
      </trkpt>
      <trkpt lat="43.60657" lon="2.32326">
        <ele>324.101809</ele>
        <time>2021-10-18T12:13:14.000Z</time>
      </trkpt>
      <trkpt lat="43.60657" lon="2.3233">
        <ele>324.164846</ele>
        <time>2021-10-18T12:13:15.000Z</time>
      </trkpt>
      <trkpt lat="43.60656" lon="2.32334">
        <ele>324.22901</ele>
        <time>2021-10-18T12:13:16.000Z</time>
      </trkpt>
      <trkpt lat="43.60655" lon="2.32338">
        <ele>324.291698</ele>
        <time>2021-10-18T12:13:17.000Z</time>
      </trkpt>
      <trkpt lat="43.60654" lon="2.32342">
        <ele>324.355266</ele>
        <time>2021-10-18T12:13:18.000Z</time>
      </trkpt>
      <trkpt lat="43.60653" lon="2.32346">
        <ele>324.420809</ele>
        <time>2021-10-18T12:13:19.000Z</time>
      </trkpt>
      <trkpt lat="43.60652" lon="2.3235">
        <ele>324.482358</ele>
        <time>2021-10-18T12:13:20.000Z</time>
      </trkpt>
      <trkpt lat="43.60651" lon="2.32354">
        <ele>324.544451</ele>
        <time>2021-10-18T12:13:21.000Z</time>
      </trkpt>
      <trkpt lat="43.6065" lon="2.32358">
        <ele>324.609496</ele>
        <time>2021-10-18T12:13:22.000Z</time>
      </trkpt>
      <trkpt lat="43.60649" lon="2.32362">
        <ele>324.67504</ele>
        <time>2021-10-18T12:13:23.000Z</time>
      </trkpt>
      <trkpt lat="43.60649" lon="2.32366">
        <ele>324.739567</ele>
        <time>2021-10-18T12:13:24.000Z</time>
      </trkpt>
      <trkpt lat="43.60648" lon="2.3237">
        <ele>324.806662</ele>
        <time>2021-10-18T12:13:25.000Z</time>
      </trkpt>
      <trkpt lat="43.60647" lon="2.32374">
        <ele>324.87364</ele>
        <time>2021-10-18T12:13:26.000Z</time>
      </trkpt>
      <trkpt lat="43.60646" lon="2.32378">
        <ele>324.933217</ele>
        <time>2021-10-18T12:13:27.000Z</time>
      </trkpt>
      <trkpt lat="43.60646" lon="2.32382">
        <ele>324.987865</ele>
        <time>2021-10-18T12:13:28.000Z</time>
      </trkpt>
      <trkpt lat="43.60645" lon="2.32385">
        <ele>325.045549</ele>
        <time>2021-10-18T12:13:29.000Z</time>
      </trkpt>
      <trkpt lat="43.60644" lon="2.32389">
        <ele>325.103631</ele>
        <time>2021-10-18T12:13:30.000Z</time>
      </trkpt>
      <trkpt lat="43.60644" lon="2.32393">
        <ele>325.164301</ele>
        <time>2021-10-18T12:13:31.000Z</time>
      </trkpt>
      <trkpt lat="43.60643" lon="2.32397">
        <ele>325.222383</ele>
        <time>2021-10-18T12:13:32.000Z</time>
      </trkpt>
      <trkpt lat="43.60643" lon="2.324">
        <ele>325.277691</ele>
        <time>2021-10-18T12:13:33.000Z</time>
      </trkpt>
      <trkpt lat="43.60642" lon="2.32404">
        <ele>325.334791</ele>
        <time>2021-10-18T12:13:34.000Z</time>
      </trkpt>
      <trkpt lat="43.60642" lon="2.32407">
        <ele>325.389887</ele>
        <time>2021-10-18T12:13:35.000Z</time>
      </trkpt>
      <trkpt lat="43.60641" lon="2.32411">
        <ele>325.442012</ele>
        <time>2021-10-18T12:13:36.000Z</time>
      </trkpt>
      <trkpt lat="43.60641" lon="2.32414">
        <ele>325.497522</ele>
        <time>2021-10-18T12:13:37.000Z</time>
      </trkpt>
      <trkpt lat="43.60641" lon="2.32418">
        <ele>325.55424</ele>
        <time>2021-10-18T12:13:38.000Z</time>
      </trkpt>
      <trkpt lat="43.60641" lon="2.32422">
        <ele>325.608517</ele>
        <time>2021-10-18T12:13:39.000Z</time>
      </trkpt>
      <trkpt lat="43.6064" lon="2.32425">
        <ele>325.760696</ele>
        <time>2021-10-18T12:13:40.000Z</time>
      </trkpt>
      <trkpt lat="43.6064" lon="2.32428">
        <ele>325.974909</ele>
        <time>2021-10-18T12:13:41.000Z</time>
      </trkpt>
      <trkpt lat="43.6064" lon="2.32432">
        <ele>326.190411</ele>
        <time>2021-10-18T12:13:42.000Z</time>
      </trkpt>
      <trkpt lat="43.60639" lon="2.32435">
        <ele>326.411016</ele>
        <time>2021-10-18T12:13:43.000Z</time>
      </trkpt>
      <trkpt lat="43.60639" lon="2.32438">
        <ele>326.630182</ele>
        <time>2021-10-18T12:13:44.000Z</time>
      </trkpt>
      <trkpt lat="43.60639" lon="2.32442">
        <ele>326.831621</ele>
        <time>2021-10-18T12:13:45.000Z</time>
      </trkpt>
      <trkpt lat="43.60639" lon="2.32445">
        <ele>327.024843</ele>
        <time>2021-10-18T12:13:46.000Z</time>
      </trkpt>
      <trkpt lat="43.60639" lon="2.32448">
        <ele>327.224704</ele>
        <time>2021-10-18T12:13:47.000Z</time>
      </trkpt>
      <trkpt lat="43.60639" lon="2.32451">
        <ele>327.438917</ele>
        <time>2021-10-18T12:13:48.000Z</time>
      </trkpt>
      <trkpt lat="43.60639" lon="2.32454">
        <ele>327.657903</ele>
        <time>2021-10-18T12:13:49.000Z</time>
      </trkpt>
      <trkpt lat="43.60639" lon="2.32458">
        <ele>327.883504</ele>
        <time>2021-10-18T12:13:50.000Z</time>
      </trkpt>
      <trkpt lat="43.6064" lon="2.32461">
        <ele>328.105361</ele>
        <time>2021-10-18T12:13:51.000Z</time>
      </trkpt>
      <trkpt lat="43.6064" lon="2.32464">
        <ele>328.313185</ele>
        <time>2021-10-18T12:13:52.000Z</time>
      </trkpt>
      <trkpt lat="43.6064" lon="2.32468">
        <ele>328.515994</ele>
        <time>2021-10-18T12:13:53.000Z</time>
      </trkpt>
      <trkpt lat="43.60641" lon="2.32471">
        <ele>328.712465</ele>
        <time>2021-10-18T12:13:54.000Z</time>
      </trkpt>
      <trkpt lat="43.60641" lon="2.32473">
        <ele>328.902605</ele>
        <time>2021-10-18T12:13:55.000Z</time>
      </trkpt>
      <trkpt lat="43.60642" lon="2.32476">
        <ele>329.092745</ele>
        <time>2021-10-18T12:13:56.000Z</time>
      </trkpt>
      <trkpt lat="43.60642" lon="2.32479">
        <ele>329.301891</ele>
        <time>2021-10-18T12:13:57.000Z</time>
      </trkpt>
      <trkpt lat="43.60643" lon="2.32482">
        <ele>329.498362</ele>
        <time>2021-10-18T12:13:58.000Z</time>
      </trkpt>
      <trkpt lat="43.60643" lon="2.32485">
        <ele>329.696637</ele>
        <time>2021-10-18T12:13:59.000Z</time>
      </trkpt>
      <trkpt lat="43.60644" lon="2.32488">
        <ele>329.893523</ele>
        <time>2021-10-18T12:14:00.000Z</time>
      </trkpt>
      <trkpt lat="43.60644" lon="2.32491">
        <ele>330.071025</ele>
        <time>2021-10-18T12:14:01.000Z</time>
      </trkpt>
      <trkpt lat="43.60645" lon="2.32494">
        <ele>330.268336</ele>
        <time>2021-10-18T12:14:02.000Z</time>
      </trkpt>
      <trkpt lat="43.60646" lon="2.32497">
        <ele>330.473509</ele>
        <time>2021-10-18T12:14:03.000Z</time>
      </trkpt>
      <trkpt lat="43.60648" lon="2.32499">
        <ele>330.666693</ele>
        <time>2021-10-18T12:14:04.000Z</time>
      </trkpt>
      <trkpt lat="43.60649" lon="2.32502">
        <ele>330.85631</ele>
        <time>2021-10-18T12:14:05.000Z</time>
      </trkpt>
      <trkpt lat="43.60649" lon="2.32504">
        <ele>331.036131</ele>
        <time>2021-10-18T12:14:06.000Z</time>
      </trkpt>
      <trkpt lat="43.60651" lon="2.32507">
        <ele>331.213664</ele>
        <time>2021-10-18T12:14:07.000Z</time>
      </trkpt>
      <trkpt lat="43.60652" lon="2.32509">
        <ele>331.391611</ele>
        <time>2021-10-18T12:14:08.000Z</time>
      </trkpt>
      <trkpt lat="43.60653" lon="2.3251">
        <ele>331.56421</ele>
        <time>2021-10-18T12:14:09.000Z</time>
      </trkpt>
      <trkpt lat="43.60655" lon="2.32512">
        <ele>331.740965</ele>
        <time>2021-10-18T12:14:10.000Z</time>
      </trkpt>
      <trkpt lat="43.60656" lon="2.32514">
        <ele>331.91772</ele>
        <time>2021-10-18T12:14:11.000Z</time>
      </trkpt>
      <trkpt lat="43.60658" lon="2.32516">
        <ele>332.086306</ele>
        <time>2021-10-18T12:14:12.000Z</time>
      </trkpt>
      <trkpt lat="43.60659" lon="2.32517">
        <ele>332.215085</ele>
        <time>2021-10-18T12:14:13.000Z</time>
      </trkpt>
      <trkpt lat="43.6066" lon="2.32518">
        <ele>332.348142</ele>
        <time>2021-10-18T12:14:14.000Z</time>
      </trkpt>
      <trkpt lat="43.60661" lon="2.3252">
        <ele>332.468131</ele>
        <time>2021-10-18T12:14:15.000Z</time>
      </trkpt>
      <trkpt lat="43.60662" lon="2.32521">
        <ele>332.607858</ele>
        <time>2021-10-18T12:14:16.000Z</time>
      </trkpt>
      <trkpt lat="43.60664" lon="2.32523">
        <ele>332.776445</ele>
        <time>2021-10-18T12:14:17.000Z</time>
      </trkpt>
      <trkpt lat="43.60665" lon="2.32524">
        <ele>332.905224</ele>
        <time>2021-10-18T12:14:18.000Z</time>
      </trkpt>
      <trkpt lat="43.60666" lon="2.32526">
        <ele>333.042727</ele>
        <time>2021-10-18T12:14:19.000Z</time>
      </trkpt>
      <trkpt lat="43.60667" lon="2.32527">
        <ele>333.162715</ele>
        <time>2021-10-18T12:14:20.000Z</time>
      </trkpt>
      <trkpt lat="43.60668" lon="2.32529">
        <ele>333.314418</ele>
        <time>2021-10-18T12:14:21.000Z</time>
      </trkpt>
      <trkpt lat="43.60668" lon="2.32531">
        <ele>333.461581</ele>
        <time>2021-10-18T12:14:22.000Z</time>
      </trkpt>
      <trkpt lat="43.60669" lon="2.32533">
        <ele>333.595086</ele>
        <time>2021-10-18T12:14:23.000Z</time>
      </trkpt>
      <trkpt lat="43.6067" lon="2.32534">
        <ele>333.713266</ele>
        <time>2021-10-18T12:14:24.000Z</time>
      </trkpt>
      <trkpt lat="43.6067" lon="2.32536">
        <ele>333.854825</ele>
        <time>2021-10-18T12:14:25.000Z</time>
      </trkpt>
      <trkpt lat="43.60671" lon="2.32538">
        <ele>333.994257</ele>
        <time>2021-10-18T12:14:26.000Z</time>
      </trkpt>
      <trkpt lat="43.60672" lon="2.3254">
        <ele>334.127762</ele>
        <time>2021-10-18T12:14:27.000Z</time>
      </trkpt>
      <trkpt lat="43.60673" lon="2.32542">
        <ele>334.290146</ele>
        <time>2021-10-18T12:14:28.000Z</time>
      </trkpt>
      <trkpt lat="43.60674" lon="2.32544">
        <ele>334.443056</ele>
        <time>2021-10-18T12:14:29.000Z</time>
      </trkpt>
      <trkpt lat="43.60675" lon="2.32545">
        <ele>334.604694</ele>
        <time>2021-10-18T12:14:30.000Z</time>
      </trkpt>
      <trkpt lat="43.60677" lon="2.32547">
        <ele>334.744422</ele>
        <time>2021-10-18T12:14:31.000Z</time>
      </trkpt>
      <trkpt lat="43.60678" lon="2.32548">
        <ele>334.877478</ele>
        <time>2021-10-18T12:14:32.000Z</time>
      </trkpt>
      <trkpt lat="43.60679" lon="2.3255">
        <ele>335.014981</ele>
        <time>2021-10-18T12:14:33.000Z</time>
      </trkpt>
      <trkpt lat="43.6068" lon="2.32551">
        <ele>335.161821</ele>
        <time>2021-10-18T12:14:34.000Z</time>
      </trkpt>
      <trkpt lat="43.60681" lon="2.32553">
        <ele>335.292405</ele>
        <time>2021-10-18T12:14:35.000Z</time>
      </trkpt>
      <trkpt lat="43.60681" lon="2.32555">
        <ele>335.408456</ele>
        <time>2021-10-18T12:14:36.000Z</time>
      </trkpt>
      <trkpt lat="43.60682" lon="2.32556">
        <ele>335.530262</ele>
        <time>2021-10-18T12:14:37.000Z</time>
      </trkpt>
      <trkpt lat="43.60683" lon="2.32558">
        <ele>335.681965</ele>
        <time>2021-10-18T12:14:38.000Z</time>
      </trkpt>
      <trkpt lat="43.60684" lon="2.32559">
        <ele>335.787022</ele>
        <time>2021-10-18T12:14:39.000Z</time>
      </trkpt>
      <trkpt lat="43.60685" lon="2.32561">
        <ele>335.922683</ele>
        <time>2021-10-18T12:14:40.000Z</time>
      </trkpt>
      <trkpt lat="43.60686" lon="2.32562">
        <ele>336.069522</ele>
        <time>2021-10-18T12:14:41.000Z</time>
      </trkpt>
      <trkpt lat="43.60687" lon="2.32564">
        <ele>336.211624</ele>
        <time>2021-10-18T12:14:42.000Z</time>
      </trkpt>
      <trkpt lat="43.60688" lon="2.32565">
        <ele>336.354389</ele>
        <time>2021-10-18T12:14:43.000Z</time>
      </trkpt>
      <trkpt lat="43.6069" lon="2.32567">
        <ele>336.500952</ele>
        <time>2021-10-18T12:14:44.000Z</time>
      </trkpt>
      <trkpt lat="43.60691" lon="2.32568">
        <ele>336.636612</ele>
        <time>2021-10-18T12:14:45.000Z</time>
      </trkpt>
      <trkpt lat="43.60692" lon="2.32569">
        <ele>336.765391</ele>
        <time>2021-10-18T12:14:46.000Z</time>
      </trkpt>
      <trkpt lat="43.60693" lon="2.32571">
        <ele>336.905118</ele>
        <time>2021-10-18T12:14:47.000Z</time>
      </trkpt>
      <trkpt lat="43.60695" lon="2.32572">
        <ele>337.066154</ele>
        <time>2021-10-18T12:14:48.000Z</time>
      </trkpt>
      <trkpt lat="43.60696" lon="2.32573">
        <ele>337.210121</ele>
        <time>2021-10-18T12:14:49.000Z</time>
      </trkpt>
      <trkpt lat="43.60697" lon="2.32575">
        <ele>337.380261</ele>
        <time>2021-10-18T12:14:50.000Z</time>
      </trkpt>
      <trkpt lat="43.60699" lon="2.32577">
        <ele>337.558208</ele>
        <time>2021-10-18T12:14:51.000Z</time>
      </trkpt>
      <trkpt lat="43.607" lon="2.32579">
        <ele>337.731309</ele>
        <time>2021-10-18T12:14:52.000Z</time>
      </trkpt>
      <trkpt lat="43.60701" lon="2.32581">
        <ele>337.861892</ele>
        <time>2021-10-18T12:14:53.000Z</time>
      </trkpt>
      <trkpt lat="43.60702" lon="2.32583">
        <ele>337.992384</ele>
        <time>2021-10-18T12:14:54.000Z</time>
      </trkpt>
      <trkpt lat="43.60703" lon="2.32585">
        <ele>338.173428</ele>
        <time>2021-10-18T12:14:55.000Z</time>
      </trkpt>
      <trkpt lat="43.60704" lon="2.32586">
        <ele>338.335811</ele>
        <time>2021-10-18T12:14:56.000Z</time>
      </trkpt>
      <trkpt lat="43.60706" lon="2.32588">
        <ele>338.50163</ele>
        <time>2021-10-18T12:14:57.000Z</time>
      </trkpt>
      <trkpt lat="43.60707" lon="2.3259">
        <ele>338.665372</ele>
        <time>2021-10-18T12:14:58.000Z</time>
      </trkpt>
      <trkpt lat="43.60708" lon="2.32592">
        <ele>338.820261</ele>
        <time>2021-10-18T12:14:59.000Z</time>
      </trkpt>
      <trkpt lat="43.60709" lon="2.32593">
        <ele>338.930143</ele>
        <time>2021-10-18T12:15:00.000Z</time>
      </trkpt>
      <trkpt lat="43.6071" lon="2.32594">
        <ele>339.0352</ele>
        <time>2021-10-18T12:15:01.000Z</time>
      </trkpt>
      <trkpt lat="43.60711" lon="2.32595">
        <ele>339.168256</ele>
        <time>2021-10-18T12:15:02.000Z</time>
      </trkpt>
      <trkpt lat="43.60712" lon="2.32597">
        <ele>339.26867</ele>
        <time>2021-10-18T12:15:03.000Z</time>
      </trkpt>
      <trkpt lat="43.60713" lon="2.32598">
        <ele>339.423559</ele>
        <time>2021-10-18T12:15:04.000Z</time>
      </trkpt>
      <trkpt lat="43.60715" lon="2.326">
        <ele>339.604603</ele>
        <time>2021-10-18T12:15:05.000Z</time>
      </trkpt>
      <trkpt lat="43.60716" lon="2.32601">
        <ele>339.758349</ele>
        <time>2021-10-18T12:15:06.000Z</time>
      </trkpt>
      <trkpt lat="43.60717" lon="2.32603">
        <ele>339.915935</ele>
        <time>2021-10-18T12:15:07.000Z</time>
      </trkpt>
      <trkpt lat="43.60718" lon="2.32605">
        <ele>340.062774</ele>
        <time>2021-10-18T12:15:08.000Z</time>
      </trkpt>
      <trkpt lat="43.6072" lon="2.32607">
        <ele>340.225157</ele>
        <time>2021-10-18T12:15:09.000Z</time>
      </trkpt>
      <trkpt lat="43.60721" lon="2.32609">
        <ele>340.397351</ele>
        <time>2021-10-18T12:15:10.000Z</time>
      </trkpt>
      <trkpt lat="43.60722" lon="2.32611">
        <ele>340.56965</ele>
        <time>2021-10-18T12:15:11.000Z</time>
      </trkpt>
      <trkpt lat="43.60723" lon="2.32613">
        <ele>340.750693</ele>
        <time>2021-10-18T12:15:12.000Z</time>
      </trkpt>
      <trkpt lat="43.60725" lon="2.32615">
        <ele>340.888196</ele>
        <time>2021-10-18T12:15:13.000Z</time>
      </trkpt>
      <trkpt lat="43.60726" lon="2.32616">
        <ele>341.050578</ele>
        <time>2021-10-18T12:15:14.000Z</time>
      </trkpt>
      <trkpt lat="43.60727" lon="2.32619">
        <ele>341.246915</ele>
        <time>2021-10-18T12:15:15.000Z</time>
      </trkpt>
      <trkpt lat="43.60729" lon="2.3262">
        <ele>341.421507</ele>
        <time>2021-10-18T12:15:16.000Z</time>
      </trkpt>
      <trkpt lat="43.6073" lon="2.32622">
        <ele>341.579093</ele>
        <time>2021-10-18T12:15:17.000Z</time>
      </trkpt>
      <trkpt lat="43.60732" lon="2.32624">
        <ele>341.819109</ele>
        <time>2021-10-18T12:15:18.000Z</time>
      </trkpt>
      <trkpt lat="43.60733" lon="2.32627">
        <ele>342.069833</ele>
        <time>2021-10-18T12:15:19.000Z</time>
      </trkpt>
      <trkpt lat="43.60734" lon="2.32629">
        <ele>342.28114</ele>
        <time>2021-10-18T12:15:20.000Z</time>
      </trkpt>
      <trkpt lat="43.60735" lon="2.32631">
        <ele>342.486706</ele>
        <time>2021-10-18T12:15:21.000Z</time>
      </trkpt>
      <trkpt lat="43.60736" lon="2.32633">
        <ele>342.682069</ele>
        <time>2021-10-18T12:15:22.000Z</time>
      </trkpt>
      <trkpt lat="43.60736" lon="2.32635">
        <ele>342.867951</ele>
        <time>2021-10-18T12:15:23.000Z</time>
      </trkpt>
      <trkpt lat="43.60737" lon="2.32638">
        <ele>343.063445</ele>
        <time>2021-10-18T12:15:24.000Z</time>
      </trkpt>
      <trkpt lat="43.60738" lon="2.3264">
        <ele>343.293268</ele>
        <time>2021-10-18T12:15:25.000Z</time>
      </trkpt>
      <trkpt lat="43.60739" lon="2.32643">
        <ele>343.515626</ele>
        <time>2021-10-18T12:15:26.000Z</time>
      </trkpt>
      <trkpt lat="43.60739" lon="2.32645">
        <ele>343.71451</ele>
        <time>2021-10-18T12:15:27.000Z</time>
      </trkpt>
      <trkpt lat="43.6074" lon="2.32647">
        <ele>343.899043</ele>
        <time>2021-10-18T12:15:28.000Z</time>
      </trkpt>
      <trkpt lat="43.6074" lon="2.3265">
        <ele>344.107331</ele>
        <time>2021-10-18T12:15:29.000Z</time>
      </trkpt>
      <trkpt lat="43.6074" lon="2.32652">
        <ele>344.307683</ele>
        <time>2021-10-18T12:15:30.000Z</time>
      </trkpt>
      <trkpt lat="43.60741" lon="2.32654">
        <ele>344.450031</ele>
        <time>2021-10-18T12:15:31.000Z</time>
      </trkpt>
      <trkpt lat="43.60741" lon="2.32655">
        <ele>344.590145</ele>
        <time>2021-10-18T12:15:32.000Z</time>
      </trkpt>
      <trkpt lat="43.60742" lon="2.32658">
        <ele>344.801002</ele>
        <time>2021-10-18T12:15:33.000Z</time>
      </trkpt>
      <trkpt lat="43.60743" lon="2.3266">
        <ele>344.986883</ele>
        <time>2021-10-18T12:15:34.000Z</time>
      </trkpt>
      <trkpt lat="43.60744" lon="2.32662">
        <ele>345.182377</ele>
        <time>2021-10-18T12:15:35.000Z</time>
      </trkpt>
      <trkpt lat="43.60744" lon="2.32664">
        <ele>345.377871</ele>
        <time>2021-10-18T12:15:36.000Z</time>
      </trkpt>
      <trkpt lat="43.60745" lon="2.32666">
        <ele>345.570304</ele>
        <time>2021-10-18T12:15:37.000Z</time>
      </trkpt>
      <trkpt lat="43.60745" lon="2.32668">
        <ele>345.744438</ele>
        <time>2021-10-18T12:15:38.000Z</time>
      </trkpt>
      <trkpt lat="43.60745" lon="2.32671">
        <ele>345.92897</ele>
        <time>2021-10-18T12:15:39.000Z</time>
      </trkpt>
      <trkpt lat="43.60746" lon="2.32673">
        <ele>346.135126</ele>
        <time>2021-10-18T12:15:40.000Z</time>
      </trkpt>
      <trkpt lat="43.60746" lon="2.32676">
        <ele>346.395698</ele>
        <time>2021-10-18T12:15:41.000Z</time>
      </trkpt>
      <trkpt lat="43.60746" lon="2.3268">
        <ele>346.669976</ele>
        <time>2021-10-18T12:15:42.000Z</time>
      </trkpt>
      <trkpt lat="43.60747" lon="2.32682">
        <ele>346.903284</ele>
        <time>2021-10-18T12:15:43.000Z</time>
      </trkpt>
      <trkpt lat="43.60748" lon="2.32685">
        <ele>347.167456</ele>
        <time>2021-10-18T12:15:44.000Z</time>
      </trkpt>
      <trkpt lat="43.60748" lon="2.32688">
        <ele>347.399635</ele>
        <time>2021-10-18T12:15:45.000Z</time>
      </trkpt>
      <trkpt lat="43.60748" lon="2.32691">
        <ele>347.615874</ele>
        <time>2021-10-18T12:15:46.000Z</time>
      </trkpt>
      <trkpt lat="43.60749" lon="2.32693">
        <ele>347.808307</ele>
        <time>2021-10-18T12:15:47.000Z</time>
      </trkpt>
      <trkpt lat="43.60749" lon="2.32695">
        <ele>347.992839</ele>
        <time>2021-10-18T12:15:48.000Z</time>
      </trkpt>
      <trkpt lat="43.6075" lon="2.32697">
        <ele>348.191362</ele>
        <time>2021-10-18T12:15:49.000Z</time>
      </trkpt>
      <trkpt lat="43.60751" lon="2.32699">
        <ele>348.376069</ele>
        <time>2021-10-18T12:15:50.000Z</time>
      </trkpt>
      <trkpt lat="43.60752" lon="2.32702">
        <ele>348.579236</ele>
        <time>2021-10-18T12:15:51.000Z</time>
      </trkpt>
      <trkpt lat="43.60752" lon="2.32704">
        <ele>348.804902</ele>
        <time>2021-10-18T12:15:52.000Z</time>
      </trkpt>
      <trkpt lat="43.60753" lon="2.32707">
        <ele>348.997334</ele>
        <time>2021-10-18T12:15:53.000Z</time>
      </trkpt>
      <trkpt lat="43.60753" lon="2.32708">
        <ele>349.155537</ele>
        <time>2021-10-18T12:15:54.000Z</time>
      </trkpt>
      <trkpt lat="43.60753" lon="2.3271">
        <ele>349.293836</ele>
        <time>2021-10-18T12:15:55.000Z</time>
      </trkpt>
      <trkpt lat="43.60753" lon="2.32712">
        <ele>349.432591</ele>
        <time>2021-10-18T12:15:56.000Z</time>
      </trkpt>
      <trkpt lat="43.60753" lon="2.32714">
        <ele>349.596841</ele>
        <time>2021-10-18T12:15:57.000Z</time>
      </trkpt>
      <trkpt lat="43.60753" lon="2.32716">
        <ele>349.81308</ele>
        <time>2021-10-18T12:15:58.000Z</time>
      </trkpt>
      <trkpt lat="43.60752" lon="2.32719">
        <ele>349.997612</ele>
        <time>2021-10-18T12:15:59.000Z</time>
      </trkpt>
      <trkpt lat="43.60752" lon="2.32721">
        <ele>350.158583</ele>
        <time>2021-10-18T12:16:00.000Z</time>
      </trkpt>
      <trkpt lat="43.60752" lon="2.32723">
        <ele>350.343115</ele>
        <time>2021-10-18T12:16:01.000Z</time>
      </trkpt>
      <trkpt lat="43.60751" lon="2.32725">
        <ele>350.543393</ele>
        <time>2021-10-18T12:16:02.000Z</time>
      </trkpt>
      <trkpt lat="43.6075" lon="2.32727">
        <ele>350.761644</ele>
        <time>2021-10-18T12:16:03.000Z</time>
      </trkpt>
      <trkpt lat="43.60748" lon="2.32729">
        <ele>350.993868</ele>
        <time>2021-10-18T12:16:04.000Z</time>
      </trkpt>
      <trkpt lat="43.60747" lon="2.32731">
        <ele>351.19819</ele>
        <time>2021-10-18T12:16:05.000Z</time>
      </trkpt>
      <trkpt lat="43.60747" lon="2.32733">
        <ele>351.371618</ele>
        <time>2021-10-18T12:16:06.000Z</time>
      </trkpt>
      <trkpt lat="43.60746" lon="2.32735">
        <ele>351.577183</ele>
        <time>2021-10-18T12:16:07.000Z</time>
      </trkpt>
      <trkpt lat="43.60745" lon="2.32738">
        <ele>351.797061</ele>
        <time>2021-10-18T12:16:08.000Z</time>
      </trkpt>
      <trkpt lat="43.60744" lon="2.3274">
        <ele>351.997413</ele>
        <time>2021-10-18T12:16:09.000Z</time>
      </trkpt>
      <trkpt lat="43.60744" lon="2.32743">
        <ele>352.187536</ele>
        <time>2021-10-18T12:16:10.000Z</time>
      </trkpt>
      <trkpt lat="43.60744" lon="2.32745">
        <ele>352.358746</ele>
        <time>2021-10-18T12:16:11.000Z</time>
      </trkpt>
      <trkpt lat="43.60745" lon="2.32746">
        <ele>352.493204</ele>
        <time>2021-10-18T12:16:12.000Z</time>
      </trkpt>
      <trkpt lat="43.60745" lon="2.32748">
        <ele>352.640069</ele>
        <time>2021-10-18T12:16:13.000Z</time>
      </trkpt>
      <trkpt lat="43.60745" lon="2.3275">
        <ele>352.798272</ele>
        <time>2021-10-18T12:16:14.000Z</time>
      </trkpt>
      <trkpt lat="43.60745" lon="2.32751">
        <ele>352.920301</ele>
        <time>2021-10-18T12:16:15.000Z</time>
      </trkpt>
      <trkpt lat="43.60745" lon="2.32753">
        <ele>353.062649</ele>
        <time>2021-10-18T12:16:16.000Z</time>
      </trkpt>
      <trkpt lat="43.60745" lon="2.32755">
        <ele>353.233859</ele>
        <time>2021-10-18T12:16:17.000Z</time>
      </trkpt>
      <trkpt lat="43.60746" lon="2.32757">
        <ele>353.402657</ele>
        <time>2021-10-18T12:16:18.000Z</time>
      </trkpt>
      <trkpt lat="43.60746" lon="2.32759">
        <ele>353.555833</ele>
        <time>2021-10-18T12:16:19.000Z</time>
      </trkpt>
      <trkpt lat="43.60746" lon="2.32761">
        <ele>353.721993</ele>
        <time>2021-10-18T12:16:20.000Z</time>
      </trkpt>
      <trkpt lat="43.60747" lon="2.32764">
        <ele>353.925685</ele>
        <time>2021-10-18T12:16:21.000Z</time>
      </trkpt>
      <trkpt lat="43.60747" lon="2.32766">
        <ele>354.138392</ele>
        <time>2021-10-18T12:16:22.000Z</time>
      </trkpt>
      <trkpt lat="43.60746" lon="2.32769">
        <ele>354.362595</ele>
        <time>2021-10-18T12:16:23.000Z</time>
      </trkpt>
      <trkpt lat="43.60746" lon="2.32772">
        <ele>354.592359</ele>
        <time>2021-10-18T12:16:24.000Z</time>
      </trkpt>
      <trkpt lat="43.60745" lon="2.32774">
        <ele>354.858693</ele>
        <time>2021-10-18T12:16:25.000Z</time>
      </trkpt>
      <trkpt lat="43.60744" lon="2.32777">
        <ele>355.112683</ele>
        <time>2021-10-18T12:16:26.000Z</time>
      </trkpt>
      <trkpt lat="43.60743" lon="2.3278">
        <ele>355.31585</ele>
        <time>2021-10-18T12:16:27.000Z</time>
      </trkpt>
      <trkpt lat="43.60742" lon="2.32782">
        <ele>355.560293</ele>
        <time>2021-10-18T12:16:28.000Z</time>
      </trkpt>
      <trkpt lat="43.6074" lon="2.32784">
        <ele>355.84416</ele>
        <time>2021-10-18T12:16:29.000Z</time>
      </trkpt>
      <trkpt lat="43.60738" lon="2.32786">
        <ele>356.117576</ele>
        <time>2021-10-18T12:16:30.000Z</time>
      </trkpt>
      <trkpt lat="43.60736" lon="2.32788">
        <ele>356.381132</ele>
        <time>2021-10-18T12:16:31.000Z</time>
      </trkpt>
      <trkpt lat="43.60734" lon="2.3279">
        <ele>356.644688</ele>
        <time>2021-10-18T12:16:32.000Z</time>
      </trkpt>
      <trkpt lat="43.60732" lon="2.32792">
        <ele>356.908244</ele>
        <time>2021-10-18T12:16:33.000Z</time>
      </trkpt>
      <trkpt lat="43.6073" lon="2.32794">
        <ele>357.1718</ele>
        <time>2021-10-18T12:16:34.000Z</time>
      </trkpt>
      <trkpt lat="43.60729" lon="2.32796">
        <ele>357.417509</ele>
        <time>2021-10-18T12:16:35.000Z</time>
      </trkpt>
      <trkpt lat="43.60727" lon="2.32798">
        <ele>357.635143</ele>
        <time>2021-10-18T12:16:36.000Z</time>
      </trkpt>
      <trkpt lat="43.60726" lon="2.328">
        <ele>357.860408</ele>
        <time>2021-10-18T12:16:37.000Z</time>
      </trkpt>
      <trkpt lat="43.60726" lon="2.32802">
        <ele>358.051976</ele>
        <time>2021-10-18T12:16:38.000Z</time>
      </trkpt>
      <trkpt lat="43.60724" lon="2.32804">
        <ele>358.243594</ele>
        <time>2021-10-18T12:16:39.000Z</time>
      </trkpt>
      <trkpt lat="43.60723" lon="2.32806">
        <ele>358.461227</ele>
        <time>2021-10-18T12:16:40.000Z</time>
      </trkpt>
      <trkpt lat="43.60722" lon="2.32809">
        <ele>358.68547</ele>
        <time>2021-10-18T12:16:41.000Z</time>
      </trkpt>
      <trkpt lat="43.60721" lon="2.3281">
        <ele>358.898133</ele>
        <time>2021-10-18T12:16:42.000Z</time>
      </trkpt>
      <trkpt lat="43.60719" lon="2.32812">
        <ele>359.116144</ele>
        <time>2021-10-18T12:16:43.000Z</time>
      </trkpt>
      <trkpt lat="43.60718" lon="2.32814">
        <ele>359.353226</ele>
        <time>2021-10-18T12:16:44.000Z</time>
      </trkpt>
      <trkpt lat="43.60716" lon="2.32816">
        <ele>359.623285</ele>
        <time>2021-10-18T12:16:45.000Z</time>
      </trkpt>
      <trkpt lat="43.60714" lon="2.32818">
        <ele>359.86912</ele>
        <time>2021-10-18T12:16:46.000Z</time>
      </trkpt>
      <trkpt lat="43.60713" lon="2.32821">
        <ele>360.133858</ele>
        <time>2021-10-18T12:16:47.000Z</time>
      </trkpt>
      <trkpt lat="43.60711" lon="2.32822">
        <ele>360.406594</ele>
        <time>2021-10-18T12:16:48.000Z</time>
      </trkpt>
      <trkpt lat="43.60709" lon="2.32824">
        <ele>360.652304</ele>
        <time>2021-10-18T12:16:49.000Z</time>
      </trkpt>
      <trkpt lat="43.60707" lon="2.32827">
        <ele>360.94715</ele>
        <time>2021-10-18T12:16:50.000Z</time>
      </trkpt>
      <trkpt lat="43.60705" lon="2.32829">
        <ele>361.225723</ele>
        <time>2021-10-18T12:16:51.000Z</time>
      </trkpt>
      <trkpt lat="43.60703" lon="2.32831">
        <ele>361.484592</ele>
        <time>2021-10-18T12:16:52.000Z</time>
      </trkpt>
      <trkpt lat="43.60701" lon="2.32832">
        <ele>361.726546</ele>
        <time>2021-10-18T12:16:53.000Z</time>
      </trkpt>
      <trkpt lat="43.60699" lon="2.32834">
        <ele>361.884102</ele>
        <time>2021-10-18T12:16:54.000Z</time>
      </trkpt>
      <trkpt lat="43.60697" lon="2.32835">
        <ele>361.971689</ele>
        <time>2021-10-18T12:16:55.000Z</time>
      </trkpt>
      <trkpt lat="43.60695" lon="2.32837">
        <ele>362.047094</ele>
        <time>2021-10-18T12:16:56.000Z</time>
      </trkpt>
      <trkpt lat="43.60694" lon="2.32839">
        <ele>362.127439</ele>
        <time>2021-10-18T12:16:57.000Z</time>
      </trkpt>
      <trkpt lat="43.60692" lon="2.32841">
        <ele>362.204255</ele>
        <time>2021-10-18T12:16:58.000Z</time>
      </trkpt>
      <trkpt lat="43.6069" lon="2.32843">
        <ele>362.278587</ele>
        <time>2021-10-18T12:16:59.000Z</time>
      </trkpt>
      <trkpt lat="43.60688" lon="2.32845">
        <ele>362.361591</ele>
        <time>2021-10-18T12:17:00.000Z</time>
      </trkpt>
      <trkpt lat="43.60687" lon="2.32846">
        <ele>362.431177</ele>
        <time>2021-10-18T12:17:01.000Z</time>
      </trkpt>
      <trkpt lat="43.60685" lon="2.32848">
        <ele>362.506582</ele>
        <time>2021-10-18T12:17:02.000Z</time>
      </trkpt>
      <trkpt lat="43.60683" lon="2.32849">
        <ele>362.577646</ele>
        <time>2021-10-18T12:17:03.000Z</time>
      </trkpt>
      <trkpt lat="43.60681" lon="2.32851">
        <ele>362.657394</ele>
        <time>2021-10-18T12:17:04.000Z</time>
      </trkpt>
      <trkpt lat="43.6068" lon="2.32853">
        <ele>362.7328</ele>
        <time>2021-10-18T12:17:05.000Z</time>
      </trkpt>
      <trkpt lat="43.60678" lon="2.32854">
        <ele>362.800921</ele>
        <time>2021-10-18T12:17:06.000Z</time>
      </trkpt>
      <trkpt lat="43.60676" lon="2.32856">
        <ele>362.885013</ele>
        <time>2021-10-18T12:17:07.000Z</time>
      </trkpt>
      <trkpt lat="43.60674" lon="2.32858">
        <ele>362.97509</ele>
        <time>2021-10-18T12:17:08.000Z</time>
      </trkpt>
      <trkpt lat="43.60672" lon="2.32859">
        <ele>363.055261</ele>
        <time>2021-10-18T12:17:09.000Z</time>
      </trkpt>
      <trkpt lat="43.6067" lon="2.32861">
        <ele>363.141688</ele>
        <time>2021-10-18T12:17:10.000Z</time>
      </trkpt>
      <trkpt lat="43.60668" lon="2.32863">
        <ele>363.222852</ele>
        <time>2021-10-18T12:17:11.000Z</time>
      </trkpt>
      <trkpt lat="43.60665" lon="2.32865">
        <ele>363.318595</ele>
        <time>2021-10-18T12:17:12.000Z</time>
      </trkpt>
      <trkpt lat="43.60664" lon="2.32866">
        <ele>363.396986</ele>
        <time>2021-10-18T12:17:13.000Z</time>
      </trkpt>
      <trkpt lat="43.60661" lon="2.32868">
        <ele>363.491394</ele>
        <time>2021-10-18T12:17:14.000Z</time>
      </trkpt>
      <trkpt lat="43.60659" lon="2.3287">
        <ele>363.580198</ele>
        <time>2021-10-18T12:17:15.000Z</time>
      </trkpt>
      <trkpt lat="43.60657" lon="2.32872">
        <ele>363.66429</ele>
        <time>2021-10-18T12:17:16.000Z</time>
      </trkpt>
      <trkpt lat="43.60655" lon="2.32874">
        <ele>363.760033</ele>
        <time>2021-10-18T12:17:17.000Z</time>
      </trkpt>
      <trkpt lat="43.60653" lon="2.32875">
        <ele>363.841196</ele>
        <time>2021-10-18T12:17:18.000Z</time>
      </trkpt>
      <trkpt lat="43.60651" lon="2.32878">
        <ele>363.935404</ele>
        <time>2021-10-18T12:17:19.000Z</time>
      </trkpt>
      <trkpt lat="43.60649" lon="2.3288">
        <ele>364.023906</ele>
        <time>2021-10-18T12:17:20.000Z</time>
      </trkpt>
      <trkpt lat="43.60647" lon="2.32881">
        <ele>364.110971</ele>
        <time>2021-10-18T12:17:21.000Z</time>
      </trkpt>
      <trkpt lat="43.60645" lon="2.32883">
        <ele>364.188009</ele>
        <time>2021-10-18T12:17:22.000Z</time>
      </trkpt>
      <trkpt lat="43.60643" lon="2.32886">
        <ele>364.275351</ele>
        <time>2021-10-18T12:17:23.000Z</time>
      </trkpt>
      <trkpt lat="43.60641" lon="2.32888">
        <ele>364.356732</ele>
        <time>2021-10-18T12:17:24.000Z</time>
      </trkpt>
      <trkpt lat="43.60639" lon="2.3289">
        <ele>364.449513</ele>
        <time>2021-10-18T12:17:25.000Z</time>
      </trkpt>
      <trkpt lat="43.60637" lon="2.32892">
        <ele>364.548254</ele>
        <time>2021-10-18T12:17:26.000Z</time>
      </trkpt>
      <trkpt lat="43.60634" lon="2.32894">
        <ele>364.644274</ele>
        <time>2021-10-18T12:17:27.000Z</time>
      </trkpt>
      <trkpt lat="43.60632" lon="2.32896">
        <ele>364.738688</ele>
        <time>2021-10-18T12:17:28.000Z</time>
      </trkpt>
      <trkpt lat="43.6063" lon="2.32899">
        <ele>364.832021</ele>
        <time>2021-10-18T12:17:29.000Z</time>
      </trkpt>
      <trkpt lat="43.60628" lon="2.32901">
        <ele>364.932382</ele>
        <time>2021-10-18T12:17:30.000Z</time>
      </trkpt>
      <trkpt lat="43.60626" lon="2.32904">
        <ele>365.030903</ele>
        <time>2021-10-18T12:17:31.000Z</time>
      </trkpt>
      <trkpt lat="43.60624" lon="2.32907">
        <ele>365.13458</ele>
        <time>2021-10-18T12:17:32.000Z</time>
      </trkpt>
      <trkpt lat="43.60622" lon="2.32909">
        <ele>365.234901</ele>
        <time>2021-10-18T12:17:33.000Z</time>
      </trkpt>
      <trkpt lat="43.6062" lon="2.32912">
        <ele>365.340289</ele>
        <time>2021-10-18T12:17:34.000Z</time>
      </trkpt>
      <trkpt lat="43.60618" lon="2.32915">
        <ele>365.433902</ele>
        <time>2021-10-18T12:17:35.000Z</time>
      </trkpt>
      <trkpt lat="43.60616" lon="2.32918">
        <ele>365.524883</ele>
        <time>2021-10-18T12:17:36.000Z</time>
      </trkpt>
      <trkpt lat="43.60614" lon="2.3292">
        <ele>365.623405</ele>
        <time>2021-10-18T12:17:37.000Z</time>
      </trkpt>
      <trkpt lat="43.60613" lon="2.32923">
        <ele>365.717018</ele>
        <time>2021-10-18T12:17:38.000Z</time>
      </trkpt>
      <trkpt lat="43.60611" lon="2.32926">
        <ele>365.810014</ele>
        <time>2021-10-18T12:17:39.000Z</time>
      </trkpt>
      <trkpt lat="43.60609" lon="2.32929">
        <ele>365.911676</ele>
        <time>2021-10-18T12:17:40.000Z</time>
      </trkpt>
      <trkpt lat="43.60607" lon="2.32932">
        <ele>366.01706</ele>
        <time>2021-10-18T12:17:41.000Z</time>
      </trkpt>
      <trkpt lat="43.60606" lon="2.32935">
        <ele>366.114293</ele>
        <time>2021-10-18T12:17:42.000Z</time>
      </trkpt>
      <trkpt lat="43.60604" lon="2.32939">
        <ele>366.217723</ele>
        <time>2021-10-18T12:17:43.000Z</time>
      </trkpt>
      <trkpt lat="43.60603" lon="2.32942">
        <ele>366.314956</ele>
        <time>2021-10-18T12:17:44.000Z</time>
      </trkpt>
      <trkpt lat="43.60601" lon="2.32945">
        <ele>366.414341</ele>
        <time>2021-10-18T12:17:45.000Z</time>
      </trkpt>
      <trkpt lat="43.606" lon="2.32949">
        <ele>366.519919</ele>
        <time>2021-10-18T12:17:46.000Z</time>
      </trkpt>
      <trkpt lat="43.60598" lon="2.32952">
        <ele>366.623659</ele>
        <time>2021-10-18T12:17:47.000Z</time>
      </trkpt>
      <trkpt lat="43.60597" lon="2.32956">
        <ele>366.719484</ele>
        <time>2021-10-18T12:17:48.000Z</time>
      </trkpt>
      <trkpt lat="43.60596" lon="2.32959">
        <ele>366.804675</ele>
        <time>2021-10-18T12:17:49.000Z</time>
      </trkpt>
      <trkpt lat="43.60595" lon="2.32962">
        <ele>366.88431</ele>
        <time>2021-10-18T12:17:50.000Z</time>
      </trkpt>
      <trkpt lat="43.60594" lon="2.32964">
        <ele>366.962283</ele>
        <time>2021-10-18T12:17:51.000Z</time>
      </trkpt>
      <trkpt lat="43.60594" lon="2.32967">
        <ele>367.04167</ele>
        <time>2021-10-18T12:17:52.000Z</time>
      </trkpt>
      <trkpt lat="43.60593" lon="2.32971">
        <ele>367.13057</ele>
        <time>2021-10-18T12:17:53.000Z</time>
      </trkpt>
      <trkpt lat="43.60592" lon="2.32974">
        <ele>367.215761</ele>
        <time>2021-10-18T12:17:54.000Z</time>
      </trkpt>
      <trkpt lat="43.60591" lon="2.32977">
        <ele>367.307009</ele>
        <time>2021-10-18T12:17:55.000Z</time>
      </trkpt>
      <trkpt lat="43.6059" lon="2.3298">
        <ele>367.390953</ele>
        <time>2021-10-18T12:17:56.000Z</time>
      </trkpt>
      <trkpt lat="43.60589" lon="2.32983">
        <ele>367.470111</ele>
        <time>2021-10-18T12:17:57.000Z</time>
      </trkpt>
      <trkpt lat="43.60588" lon="2.32986">
        <ele>367.548084</ele>
        <time>2021-10-18T12:17:58.000Z</time>
      </trkpt>
      <trkpt lat="43.60588" lon="2.32989">
        <ele>367.62963</ele>
        <time>2021-10-18T12:17:59.000Z</time>
      </trkpt>
      <trkpt lat="43.60587" lon="2.32992">
        <ele>367.715981</ele>
        <time>2021-10-18T12:18:00.000Z</time>
      </trkpt>
      <trkpt lat="43.60586" lon="2.32995">
        <ele>367.796377</ele>
        <time>2021-10-18T12:18:01.000Z</time>
      </trkpt>
      <trkpt lat="43.60585" lon="2.32998">
        <ele>367.877924</ele>
        <time>2021-10-18T12:18:02.000Z</time>
      </trkpt>
      <trkpt lat="43.60584" lon="2.33001">
        <ele>367.964275</ele>
        <time>2021-10-18T12:18:03.000Z</time>
      </trkpt>
      <trkpt lat="43.60583" lon="2.33005">
        <ele>368.059263</ele>
        <time>2021-10-18T12:18:04.000Z</time>
      </trkpt>
      <trkpt lat="43.60583" lon="2.33008">
        <ele>368.150451</ele>
        <time>2021-10-18T12:18:05.000Z</time>
      </trkpt>
      <trkpt lat="43.60582" lon="2.33012">
        <ele>368.179037</ele>
        <time>2021-10-18T12:18:06.000Z</time>
      </trkpt>
      <trkpt lat="43.60581" lon="2.33015">
        <ele>368.184578</ele>
        <time>2021-10-18T12:18:07.000Z</time>
      </trkpt>
      <trkpt lat="43.6058" lon="2.33018">
        <ele>368.189843</ele>
        <time>2021-10-18T12:18:08.000Z</time>
      </trkpt>
      <trkpt lat="43.60579" lon="2.33022">
        <ele>368.195175</ele>
        <time>2021-10-18T12:18:09.000Z</time>
      </trkpt>
      <trkpt lat="43.60578" lon="2.33025">
        <ele>368.200644</ele>
        <time>2021-10-18T12:18:10.000Z</time>
      </trkpt>
      <trkpt lat="43.60578" lon="2.33029">
        <ele>368.20561</ele>
        <time>2021-10-18T12:18:11.000Z</time>
      </trkpt>
      <trkpt lat="43.60577" lon="2.33032">
        <ele>368.210803</ele>
        <time>2021-10-18T12:18:12.000Z</time>
      </trkpt>
      <trkpt lat="43.60576" lon="2.33035">
        <ele>368.215667</ele>
        <time>2021-10-18T12:18:13.000Z</time>
      </trkpt>
      <trkpt lat="43.60575" lon="2.33038">
        <ele>368.220652</ele>
        <time>2021-10-18T12:18:14.000Z</time>
      </trkpt>
      <trkpt lat="43.60574" lon="2.33042">
        <ele>368.225984</ele>
        <time>2021-10-18T12:18:15.000Z</time>
      </trkpt>
      <trkpt lat="43.60573" lon="2.33045">
        <ele>368.231744</ele>
        <time>2021-10-18T12:18:16.000Z</time>
      </trkpt>
      <trkpt lat="43.60572" lon="2.33048">
        <ele>368.236667</ele>
        <time>2021-10-18T12:18:17.000Z</time>
      </trkpt>
      <trkpt lat="43.60571" lon="2.33051">
        <ele>368.241792</ele>
        <time>2021-10-18T12:18:18.000Z</time>
      </trkpt>
      <trkpt lat="43.6057" lon="2.33055">
        <ele>368.246917</ele>
        <time>2021-10-18T12:18:19.000Z</time>
      </trkpt>
      <trkpt lat="43.60569" lon="2.33058">
        <ele>368.252267</ele>
        <time>2021-10-18T12:18:20.000Z</time>
      </trkpt>
      <trkpt lat="43.60568" lon="2.33062">
        <ele>368.257672</ele>
        <time>2021-10-18T12:18:21.000Z</time>
      </trkpt>
      <trkpt lat="43.60568" lon="2.33065">
        <ele>368.262797</ele>
        <time>2021-10-18T12:18:22.000Z</time>
      </trkpt>
      <trkpt lat="43.60566" lon="2.33068">
        <ele>368.267974</ele>
        <time>2021-10-18T12:18:23.000Z</time>
      </trkpt>
      <trkpt lat="43.60565" lon="2.33071">
        <ele>368.273242</ele>
        <time>2021-10-18T12:18:24.000Z</time>
      </trkpt>
      <trkpt lat="43.60565" lon="2.33074">
        <ele>368.278228</ele>
        <time>2021-10-18T12:18:25.000Z</time>
      </trkpt>
      <trkpt lat="43.60564" lon="2.33078">
        <ele>368.283434</ele>
        <time>2021-10-18T12:18:26.000Z</time>
      </trkpt>
      <trkpt lat="43.60563" lon="2.33081">
        <ele>368.288839</ele>
        <time>2021-10-18T12:18:27.000Z</time>
      </trkpt>
      <trkpt lat="43.60562" lon="2.33085">
        <ele>368.294244</ele>
        <time>2021-10-18T12:18:28.000Z</time>
      </trkpt>
      <trkpt lat="43.60561" lon="2.33088">
        <ele>368.299947</ele>
        <time>2021-10-18T12:18:29.000Z</time>
      </trkpt>
      <trkpt lat="43.6056" lon="2.33092">
        <ele>368.305625</ele>
        <time>2021-10-18T12:18:30.000Z</time>
      </trkpt>
      <trkpt lat="43.60559" lon="2.33095">
        <ele>368.311031</ele>
        <time>2021-10-18T12:18:31.000Z</time>
      </trkpt>
      <trkpt lat="43.60559" lon="2.33099">
        <ele>368.316236</ele>
        <time>2021-10-18T12:18:32.000Z</time>
      </trkpt>
      <trkpt lat="43.60558" lon="2.33103">
        <ele>368.322064</ele>
        <time>2021-10-18T12:18:33.000Z</time>
      </trkpt>
      <trkpt lat="43.60557" lon="2.33106">
        <ele>368.327673</ele>
        <time>2021-10-18T12:18:34.000Z</time>
      </trkpt>
      <trkpt lat="43.60556" lon="2.3311">
        <ele>368.333214</ele>
        <time>2021-10-18T12:18:35.000Z</time>
      </trkpt>
      <trkpt lat="43.60555" lon="2.33113">
        <ele>368.338901</ele>
        <time>2021-10-18T12:18:36.000Z</time>
      </trkpt>
      <trkpt lat="43.60554" lon="2.33117">
        <ele>368.34451</ele>
        <time>2021-10-18T12:18:37.000Z</time>
      </trkpt>
      <trkpt lat="43.60553" lon="2.33121">
        <ele>368.350188</ele>
        <time>2021-10-18T12:18:38.000Z</time>
      </trkpt>
      <trkpt lat="43.60552" lon="2.33124">
        <ele>368.355594</ele>
        <time>2021-10-18T12:18:39.000Z</time>
      </trkpt>
      <trkpt lat="43.60552" lon="2.33128">
        <ele>368.360941</ele>
        <time>2021-10-18T12:18:40.000Z</time>
      </trkpt>
      <trkpt lat="43.60551" lon="2.33131">
        <ele>368.365723</ele>
        <time>2021-10-18T12:18:41.000Z</time>
      </trkpt>
      <trkpt lat="43.60551" lon="2.33134">
        <ele>368.370544</ele>
        <time>2021-10-18T12:18:42.000Z</time>
      </trkpt>
      <trkpt lat="43.6055" lon="2.33138">
        <ele>368.37609</ele>
        <time>2021-10-18T12:18:43.000Z</time>
      </trkpt>
      <trkpt lat="43.60549" lon="2.33141">
        <ele>368.381777</ele>
        <time>2021-10-18T12:18:44.000Z</time>
      </trkpt>
      <trkpt lat="43.60548" lon="2.33145">
        <ele>368.387804</ele>
        <time>2021-10-18T12:18:45.000Z</time>
      </trkpt>
      <trkpt lat="43.60547" lon="2.33148">
        <ele>368.39301</ele>
        <time>2021-10-18T12:18:46.000Z</time>
      </trkpt>
      <trkpt lat="43.60546" lon="2.33152">
        <ele>368.398275</ele>
        <time>2021-10-18T12:18:47.000Z</time>
      </trkpt>
      <trkpt lat="43.60546" lon="2.33155">
        <ele>368.403622</ele>
        <time>2021-10-18T12:18:48.000Z</time>
      </trkpt>
      <trkpt lat="43.60545" lon="2.33159">
        <ele>368.40902</ele>
        <time>2021-10-18T12:18:49.000Z</time>
      </trkpt>
      <trkpt lat="43.60544" lon="2.33163">
        <ele>368.415184</ele>
        <time>2021-10-18T12:18:50.000Z</time>
      </trkpt>
      <trkpt lat="43.60543" lon="2.33167">
        <ele>368.421388</ele>
        <time>2021-10-18T12:18:51.000Z</time>
      </trkpt>
      <trkpt lat="43.60542" lon="2.33171">
        <ele>368.428263</ele>
        <time>2021-10-18T12:18:52.000Z</time>
      </trkpt>
      <trkpt lat="43.60541" lon="2.33176">
        <ele>368.435538</ele>
        <time>2021-10-18T12:18:53.000Z</time>
      </trkpt>
      <trkpt lat="43.6054" lon="2.33181">
        <ele>368.443375</ele>
        <time>2021-10-18T12:18:54.000Z</time>
      </trkpt>
      <trkpt lat="43.60539" lon="2.33186">
        <ele>368.451204</ele>
        <time>2021-10-18T12:18:55.000Z</time>
      </trkpt>
      <trkpt lat="43.60538" lon="2.33192">
        <ele>368.459241</ele>
        <time>2021-10-18T12:18:56.000Z</time>
      </trkpt>
      <trkpt lat="43.60537" lon="2.33197">
        <ele>368.467165</ele>
        <time>2021-10-18T12:18:57.000Z</time>
      </trkpt>
      <trkpt lat="43.60536" lon="2.33202">
        <ele>368.475182</ele>
        <time>2021-10-18T12:18:58.000Z</time>
      </trkpt>
      <trkpt lat="43.60535" lon="2.33208">
        <ele>368.483443</ele>
        <time>2021-10-18T12:18:59.000Z</time>
      </trkpt>
      <trkpt lat="43.60534" lon="2.33213">
        <ele>368.491422</ele>
        <time>2021-10-18T12:19:00.000Z</time>
      </trkpt>
      <trkpt lat="43.60533" lon="2.33218">
        <ele>368.499828</ele>
        <time>2021-10-18T12:19:01.000Z</time>
      </trkpt>
      <trkpt lat="43.60532" lon="2.33224">
        <ele>368.508089</ele>
        <time>2021-10-18T12:19:02.000Z</time>
      </trkpt>
      <trkpt lat="43.60531" lon="2.33229">
        <ele>368.515918</ele>
        <time>2021-10-18T12:19:03.000Z</time>
      </trkpt>
      <trkpt lat="43.60531" lon="2.33234">
        <ele>368.523997</ele>
        <time>2021-10-18T12:19:04.000Z</time>
      </trkpt>
      <trkpt lat="43.6053" lon="2.3324">
        <ele>368.532259</ele>
        <time>2021-10-18T12:19:05.000Z</time>
      </trkpt>
      <trkpt lat="43.60529" lon="2.33245">
        <ele>368.540483</ele>
        <time>2021-10-18T12:19:06.000Z</time>
      </trkpt>
      <trkpt lat="43.60529" lon="2.33251">
        <ele>368.47466</ele>
        <time>2021-10-18T12:19:07.000Z</time>
      </trkpt>
      <trkpt lat="43.60528" lon="2.33257">
        <ele>368.40805</ele>
        <time>2021-10-18T12:19:08.000Z</time>
      </trkpt>
      <trkpt lat="43.60528" lon="2.33262">
        <ele>368.345763</ele>
        <time>2021-10-18T12:19:09.000Z</time>
      </trkpt>
      <trkpt lat="43.60527" lon="2.33267">
        <ele>368.281061</ele>
        <time>2021-10-18T12:19:10.000Z</time>
      </trkpt>
      <trkpt lat="43.60527" lon="2.33272">
        <ele>368.217567</ele>
        <time>2021-10-18T12:19:11.000Z</time>
      </trkpt>
      <trkpt lat="43.60527" lon="2.33277">
        <ele>368.155551</ele>
        <time>2021-10-18T12:19:12.000Z</time>
      </trkpt>
      <trkpt lat="43.60527" lon="2.33282">
        <ele>368.093626</ele>
        <time>2021-10-18T12:19:13.000Z</time>
      </trkpt>
      <trkpt lat="43.60527" lon="2.33287">
        <ele>368.034106</ele>
        <time>2021-10-18T12:19:14.000Z</time>
      </trkpt>
      <trkpt lat="43.60526" lon="2.33292">
        <ele>367.980445</ele>
        <time>2021-10-18T12:19:15.000Z</time>
      </trkpt>
      <trkpt lat="43.60526" lon="2.33296">
        <ele>367.930662</ele>
        <time>2021-10-18T12:19:16.000Z</time>
      </trkpt>
      <trkpt lat="43.60526" lon="2.333">
        <ele>367.875997</ele>
        <time>2021-10-18T12:19:17.000Z</time>
      </trkpt>
      <trkpt lat="43.60527" lon="2.33305">
        <ele>367.816288</ele>
        <time>2021-10-18T12:19:18.000Z</time>
      </trkpt>
      <trkpt lat="43.60527" lon="2.33311">
        <ele>367.748982</ele>
        <time>2021-10-18T12:19:19.000Z</time>
      </trkpt>
      <trkpt lat="43.60528" lon="2.33316">
        <ele>367.685245</ele>
        <time>2021-10-18T12:19:20.000Z</time>
      </trkpt>
      <trkpt lat="43.60529" lon="2.3332">
        <ele>367.629871</ele>
        <time>2021-10-18T12:19:21.000Z</time>
      </trkpt>
      <trkpt lat="43.6053" lon="2.33324">
        <ele>367.576781</ele>
        <time>2021-10-18T12:19:22.000Z</time>
      </trkpt>
      <trkpt lat="43.60531" lon="2.33328">
        <ele>367.530743</ele>
        <time>2021-10-18T12:19:23.000Z</time>
      </trkpt>
      <trkpt lat="43.60531" lon="2.33332">
        <ele>367.485041</ele>
        <time>2021-10-18T12:19:24.000Z</time>
      </trkpt>
      <trkpt lat="43.60532" lon="2.33335">
        <ele>367.435824</ele>
        <time>2021-10-18T12:19:25.000Z</time>
      </trkpt>
      <trkpt lat="43.60533" lon="2.33339">
        <ele>367.388938</ele>
        <time>2021-10-18T12:19:26.000Z</time>
      </trkpt>
      <trkpt lat="43.60534" lon="2.33343">
        <ele>367.343721</ele>
        <time>2021-10-18T12:19:27.000Z</time>
      </trkpt>
      <trkpt lat="43.60535" lon="2.33346">
        <ele>367.297287</ele>
        <time>2021-10-18T12:19:28.000Z</time>
      </trkpt>
      <trkpt lat="43.60536" lon="2.3335">
        <ele>367.249678</ele>
        <time>2021-10-18T12:19:29.000Z</time>
      </trkpt>
      <trkpt lat="43.60536" lon="2.33354">
        <ele>367.205455</ele>
        <time>2021-10-18T12:19:30.000Z</time>
      </trkpt>
      <trkpt lat="43.60536" lon="2.33357">
        <ele>367.158559</ele>
        <time>2021-10-18T12:19:31.000Z</time>
      </trkpt>
      <trkpt lat="43.60537" lon="2.33361">
        <ele>367.113299</ele>
        <time>2021-10-18T12:19:32.000Z</time>
      </trkpt>
      <trkpt lat="43.60538" lon="2.33365">
        <ele>367.068735</ele>
        <time>2021-10-18T12:19:33.000Z</time>
      </trkpt>
      <trkpt lat="43.60539" lon="2.33368">
        <ele>367.023011</ele>
        <time>2021-10-18T12:19:34.000Z</time>
      </trkpt>
      <trkpt lat="43.60539" lon="2.33371">
        <ele>366.981258</ele>
        <time>2021-10-18T12:19:35.000Z</time>
      </trkpt>
      <trkpt lat="43.6054" lon="2.33375">
        <ele>366.940669</ele>
        <time>2021-10-18T12:19:36.000Z</time>
      </trkpt>
      <trkpt lat="43.60541" lon="2.33378">
        <ele>366.895245</ele>
        <time>2021-10-18T12:19:37.000Z</time>
      </trkpt>
      <trkpt lat="43.60541" lon="2.33382">
        <ele>366.849822</ele>
        <time>2021-10-18T12:19:38.000Z</time>
      </trkpt>
      <trkpt lat="43.60541" lon="2.33385">
        <ele>366.808233</ele>
        <time>2021-10-18T12:19:39.000Z</time>
      </trkpt>
      <trkpt lat="43.60542" lon="2.33389">
        <ele>366.76401</ele>
        <time>2021-10-18T12:19:40.000Z</time>
      </trkpt>
      <trkpt lat="43.60542" lon="2.33393">
        <ele>366.717385</ele>
        <time>2021-10-18T12:19:41.000Z</time>
      </trkpt>
      <trkpt lat="43.60543" lon="2.33397">
        <ele>366.666902</ele>
        <time>2021-10-18T12:19:42.000Z</time>
      </trkpt>
      <trkpt lat="43.60543" lon="2.33401">
        <ele>366.616935</ele>
        <time>2021-10-18T12:19:43.000Z</time>
      </trkpt>
      <trkpt lat="43.60544" lon="2.33405">
        <ele>366.564605</ele>
        <time>2021-10-18T12:19:44.000Z</time>
      </trkpt>
      <trkpt lat="43.60544" lon="2.3341">
        <ele>366.506924</ele>
        <time>2021-10-18T12:19:45.000Z</time>
      </trkpt>
      <trkpt lat="43.60545" lon="2.33415">
        <ele>366.44509</ele>
        <time>2021-10-18T12:19:46.000Z</time>
      </trkpt>
      <trkpt lat="43.60545" lon="2.3342">
        <ele>366.380649</ele>
        <time>2021-10-18T12:19:47.000Z</time>
      </trkpt>
      <trkpt lat="43.60545" lon="2.33426">
        <ele>366.311419</ele>
        <time>2021-10-18T12:19:48.000Z</time>
      </trkpt>
      <trkpt lat="43.60546" lon="2.33432">
        <ele>366.239292</ele>
        <time>2021-10-18T12:19:49.000Z</time>
      </trkpt>
      <trkpt lat="43.60547" lon="2.33438">
        <ele>366.16402</ele>
        <time>2021-10-18T12:19:50.000Z</time>
      </trkpt>
      <trkpt lat="43.60547" lon="2.33444">
        <ele>366.090228</ele>
        <time>2021-10-18T12:19:51.000Z</time>
      </trkpt>
      <trkpt lat="43.60548" lon="2.3345">
        <ele>366.013568</ele>
        <time>2021-10-18T12:19:52.000Z</time>
      </trkpt>
      <trkpt lat="43.60548" lon="2.33456">
        <ele>365.940024</ele>
        <time>2021-10-18T12:19:53.000Z</time>
      </trkpt>
      <trkpt lat="43.60549" lon="2.33462">
        <ele>365.866449</ele>
        <time>2021-10-18T12:19:54.000Z</time>
      </trkpt>
      <trkpt lat="43.6055" lon="2.33468">
        <ele>365.792079</ele>
        <time>2021-10-18T12:19:55.000Z</time>
      </trkpt>
      <trkpt lat="43.60551" lon="2.33474">
        <ele>365.716808</ele>
        <time>2021-10-18T12:19:56.000Z</time>
      </trkpt>
      <trkpt lat="43.60551" lon="2.3348">
        <ele>365.641817</ele>
        <time>2021-10-18T12:19:57.000Z</time>
      </trkpt>
      <trkpt lat="43.60552" lon="2.33486">
        <ele>365.568791</ele>
        <time>2021-10-18T12:19:58.000Z</time>
      </trkpt>
      <trkpt lat="43.60552" lon="2.33492">
        <ele>365.572064</ele>
        <time>2021-10-18T12:19:59.000Z</time>
      </trkpt>
      <trkpt lat="43.60553" lon="2.33499">
        <ele>365.688424</ele>
        <time>2021-10-18T12:20:00.000Z</time>
      </trkpt>
      <trkpt lat="43.60553" lon="2.33505">
        <ele>365.809339</ele>
        <time>2021-10-18T12:20:01.000Z</time>
      </trkpt>
      <trkpt lat="43.60553" lon="2.33512">
        <ele>365.93586</ele>
        <time>2021-10-18T12:20:02.000Z</time>
      </trkpt>
      <trkpt lat="43.60552" lon="2.33518">
        <ele>366.05721</ele>
        <time>2021-10-18T12:20:03.000Z</time>
      </trkpt>
      <trkpt lat="43.60552" lon="2.33525">
        <ele>366.182269</ele>
        <time>2021-10-18T12:20:04.000Z</time>
      </trkpt>
      <trkpt lat="43.60551" lon="2.33532">
        <ele>366.308194</ele>
        <time>2021-10-18T12:20:05.000Z</time>
      </trkpt>
      <trkpt lat="43.60551" lon="2.33538">
        <ele>366.427691</ele>
        <time>2021-10-18T12:20:06.000Z</time>
      </trkpt>
      <trkpt lat="43.6055" lon="2.33544">
        <ele>366.54189</ele>
        <time>2021-10-18T12:20:07.000Z</time>
      </trkpt>
      <trkpt lat="43.60549" lon="2.3355">
        <ele>366.654943</ele>
        <time>2021-10-18T12:20:08.000Z</time>
      </trkpt>
      <trkpt lat="43.60549" lon="2.33556">
        <ele>366.769833</ele>
        <time>2021-10-18T12:20:09.000Z</time>
      </trkpt>
      <trkpt lat="43.60548" lon="2.33562">
        <ele>366.880066</ele>
        <time>2021-10-18T12:20:10.000Z</time>
      </trkpt>
      <trkpt lat="43.60548" lon="2.33568">
        <ele>366.986379</ele>
        <time>2021-10-18T12:20:11.000Z</time>
      </trkpt>
      <trkpt lat="43.60548" lon="2.33574">
        <ele>367.092412</ele>
        <time>2021-10-18T12:20:12.000Z</time>
      </trkpt>
      <trkpt lat="43.60548" lon="2.33579">
        <ele>367.198476</ele>
        <time>2021-10-18T12:20:13.000Z</time>
      </trkpt>
      <trkpt lat="43.60549" lon="2.33585">
        <ele>367.297602</ele>
        <time>2021-10-18T12:20:14.000Z</time>
      </trkpt>
      <trkpt lat="43.60549" lon="2.33589">
        <ele>367.383787</ele>
        <time>2021-10-18T12:20:15.000Z</time>
      </trkpt>
      <trkpt lat="43.60549" lon="2.33593">
        <ele>367.45706</ele>
        <time>2021-10-18T12:20:16.000Z</time>
      </trkpt>
      <trkpt lat="43.6055" lon="2.33597">
        <ele>367.524225</ele>
        <time>2021-10-18T12:20:17.000Z</time>
      </trkpt>
      <trkpt lat="43.60549" lon="2.33601">
        <ele>367.593484</ele>
        <time>2021-10-18T12:20:18.000Z</time>
      </trkpt>
      <trkpt lat="43.60549" lon="2.33604">
        <ele>367.66236</ele>
        <time>2021-10-18T12:20:19.000Z</time>
      </trkpt>
      <trkpt lat="43.60549" lon="2.33608">
        <ele>367.726437</ele>
        <time>2021-10-18T12:20:20.000Z</time>
      </trkpt>
      <trkpt lat="43.60548" lon="2.33611">
        <ele>367.785012</ele>
        <time>2021-10-18T12:20:21.000Z</time>
      </trkpt>
      <trkpt lat="43.60548" lon="2.33614">
        <ele>367.843192</ele>
        <time>2021-10-18T12:20:22.000Z</time>
      </trkpt>
      <trkpt lat="43.60548" lon="2.33617">
        <ele>367.902941</ele>
        <time>2021-10-18T12:20:23.000Z</time>
      </trkpt>
      <trkpt lat="43.60547" lon="2.3362">
        <ele>367.960837</ele>
        <time>2021-10-18T12:20:24.000Z</time>
      </trkpt>
      <trkpt lat="43.60547" lon="2.33623">
        <ele>368.009084</ele>
        <time>2021-10-18T12:20:25.000Z</time>
      </trkpt>
      <trkpt lat="43.60546" lon="2.33625">
        <ele>368.054478</ele>
        <time>2021-10-18T12:20:26.000Z</time>
      </trkpt>
      <trkpt lat="43.60545" lon="2.33627">
        <ele>368.101198</ele>
        <time>2021-10-18T12:20:27.000Z</time>
      </trkpt>
      <trkpt lat="43.60544" lon="2.33629">
        <ele>368.149413</ele>
        <time>2021-10-18T12:20:28.000Z</time>
      </trkpt>
      <trkpt lat="43.60543" lon="2.33631">
        <ele>368.194114</ele>
        <time>2021-10-18T12:20:29.000Z</time>
      </trkpt>
      <trkpt lat="43.60542" lon="2.33634">
        <ele>368.246666</ele>
        <time>2021-10-18T12:20:30.000Z</time>
      </trkpt>
      <trkpt lat="43.60542" lon="2.33636">
        <ele>368.299204</ele>
        <time>2021-10-18T12:20:31.000Z</time>
      </trkpt>
      <trkpt lat="43.60541" lon="2.33639">
        <ele>368.345017</ele>
        <time>2021-10-18T12:20:32.000Z</time>
      </trkpt>
      <trkpt lat="43.60541" lon="2.33641">
        <ele>368.385411</ele>
        <time>2021-10-18T12:20:33.000Z</time>
      </trkpt>
      <trkpt lat="43.6054" lon="2.33643">
        <ele>368.428885</ele>
        <time>2021-10-18T12:20:34.000Z</time>
      </trkpt>
      <trkpt lat="43.6054" lon="2.33646">
        <ele>368.479111</ele>
        <time>2021-10-18T12:20:35.000Z</time>
      </trkpt>
      <trkpt lat="43.6054" lon="2.33648">
        <ele>368.525616</ele>
        <time>2021-10-18T12:20:36.000Z</time>
      </trkpt>
      <trkpt lat="43.6054" lon="2.33651">
        <ele>368.570336</ele>
        <time>2021-10-18T12:20:37.000Z</time>
      </trkpt>
      <trkpt lat="43.6054" lon="2.33653">
        <ele>368.61381</ele>
        <time>2021-10-18T12:20:38.000Z</time>
      </trkpt>
      <trkpt lat="43.6054" lon="2.33655">
        <ele>368.651367</ele>
        <time>2021-10-18T12:20:39.000Z</time>
      </trkpt>
      <trkpt lat="43.60539" lon="2.33656">
        <ele>368.683245</ele>
        <time>2021-10-18T12:20:40.000Z</time>
      </trkpt>
      <trkpt lat="43.60539" lon="2.33658">
        <ele>368.716497</ele>
        <time>2021-10-18T12:20:41.000Z</time>
      </trkpt>
      <trkpt lat="43.60539" lon="2.3366">
        <ele>368.749046</ele>
        <time>2021-10-18T12:20:42.000Z</time>
      </trkpt>
      <trkpt lat="43.60538" lon="2.33662">
        <ele>368.788195</ele>
        <time>2021-10-18T12:20:43.000Z</time>
      </trkpt>
      <trkpt lat="43.60538" lon="2.33664">
        <ele>368.834008</ele>
        <time>2021-10-18T12:20:44.000Z</time>
      </trkpt>
      <trkpt lat="43.60538" lon="2.33667">
        <ele>368.876204</ele>
        <time>2021-10-18T12:20:45.000Z</time>
      </trkpt>
      <trkpt lat="43.60537" lon="2.33668">
        <ele>368.912379</ele>
        <time>2021-10-18T12:20:46.000Z</time>
      </trkpt>
      <trkpt lat="43.60537" lon="2.33671">
        <ele>368.951443</ele>
        <time>2021-10-18T12:20:47.000Z</time>
      </trkpt>
      <trkpt lat="43.60537" lon="2.33673">
        <ele>368.988737</ele>
        <time>2021-10-18T12:20:48.000Z</time>
      </trkpt>
      <trkpt lat="43.60537" lon="2.33675">
        <ele>369.028554</ele>
        <time>2021-10-18T12:20:49.000Z</time>
      </trkpt>
      <trkpt lat="43.60536" lon="2.33677">
        <ele>369.066161</ele>
        <time>2021-10-18T12:20:50.000Z</time>
      </trkpt>
      <trkpt lat="43.60536" lon="2.33678">
        <ele>369.10472</ele>
        <time>2021-10-18T12:20:51.000Z</time>
      </trkpt>
      <trkpt lat="43.60536" lon="2.3368">
        <ele>369.142013</ele>
        <time>2021-10-18T12:20:52.000Z</time>
      </trkpt>
      <trkpt lat="43.60535" lon="2.33683">
        <ele>369.19328</ele>
        <time>2021-10-18T12:20:53.000Z</time>
      </trkpt>
      <trkpt lat="43.60535" lon="2.33685">
        <ele>369.236754</ele>
        <time>2021-10-18T12:20:54.000Z</time>
      </trkpt>
      <trkpt lat="43.60535" lon="2.33688">
        <ele>369.280228</ele>
        <time>2021-10-18T12:20:55.000Z</time>
      </trkpt>
      <trkpt lat="43.60535" lon="2.3369">
        <ele>369.32332</ele>
        <time>2021-10-18T12:20:56.000Z</time>
      </trkpt>
      <trkpt lat="43.60534" lon="2.33692">
        <ele>369.362976</ele>
        <time>2021-10-18T12:20:57.000Z</time>
      </trkpt>
      <trkpt lat="43.60533" lon="2.33694">
        <ele>369.402336</ele>
        <time>2021-10-18T12:20:58.000Z</time>
      </trkpt>
      <trkpt lat="43.60533" lon="2.33696">
        <ele>369.447038</ele>
        <time>2021-10-18T12:20:59.000Z</time>
      </trkpt>
      <trkpt lat="43.60532" lon="2.33698">
        <ele>369.488361</ele>
        <time>2021-10-18T12:21:00.000Z</time>
      </trkpt>
      <trkpt lat="43.60532" lon="2.337">
        <ele>369.526958</ele>
        <time>2021-10-18T12:21:01.000Z</time>
      </trkpt>
      <trkpt lat="43.60531" lon="2.33702">
        <ele>369.567352</ele>
        <time>2021-10-18T12:21:02.000Z</time>
      </trkpt>
      <trkpt lat="43.60531" lon="2.33704">
        <ele>369.609548</ele>
        <time>2021-10-18T12:21:03.000Z</time>
      </trkpt>
      <trkpt lat="43.6053" lon="2.33706">
        <ele>369.650239</ele>
        <time>2021-10-18T12:21:04.000Z</time>
      </trkpt>
      <trkpt lat="43.60529" lon="2.33708">
        <ele>369.694054</ele>
        <time>2021-10-18T12:21:05.000Z</time>
      </trkpt>
      <trkpt lat="43.60528" lon="2.3371">
        <ele>369.746789</ele>
        <time>2021-10-18T12:21:06.000Z</time>
      </trkpt>
      <trkpt lat="43.60526" lon="2.33713">
        <ele>369.796522</ele>
        <time>2021-10-18T12:21:07.000Z</time>
      </trkpt>
      <trkpt lat="43.60525" lon="2.33715">
        <ele>369.843242</ele>
        <time>2021-10-18T12:21:08.000Z</time>
      </trkpt>
      <trkpt lat="43.60525" lon="2.33716">
        <ele>369.879622</ele>
        <time>2021-10-18T12:21:09.000Z</time>
      </trkpt>
      <trkpt lat="43.60524" lon="2.33718">
        <ele>369.915792</ele>
        <time>2021-10-18T12:21:10.000Z</time>
      </trkpt>
      <trkpt lat="43.60523" lon="2.33719">
        <ele>369.950447</ele>
        <time>2021-10-18T12:21:11.000Z</time>
      </trkpt>
      <trkpt lat="43.60522" lon="2.33722">
        <ele>369.996858</ele>
        <time>2021-10-18T12:21:12.000Z</time>
      </trkpt>
      <trkpt lat="43.60521" lon="2.33724">
        <ele>370.047135</ele>
        <time>2021-10-18T12:21:13.000Z</time>
      </trkpt>
      <trkpt lat="43.6052" lon="2.33726">
        <ele>370.09535</ele>
        <time>2021-10-18T12:21:14.000Z</time>
      </trkpt>
      <trkpt lat="43.60519" lon="2.33728">
        <ele>370.139044</ele>
        <time>2021-10-18T12:21:15.000Z</time>
      </trkpt>
      <trkpt lat="43.60519" lon="2.3373">
        <ele>370.226943</ele>
        <time>2021-10-18T12:21:16.000Z</time>
      </trkpt>
      <trkpt lat="43.60518" lon="2.33732">
        <ele>370.365102</ele>
        <time>2021-10-18T12:21:17.000Z</time>
      </trkpt>
      <trkpt lat="43.60517" lon="2.33734">
        <ele>370.532707</ele>
        <time>2021-10-18T12:21:18.000Z</time>
      </trkpt>
      <trkpt lat="43.60515" lon="2.33735">
        <ele>370.689369</ele>
        <time>2021-10-18T12:21:19.000Z</time>
      </trkpt>
      <trkpt lat="43.60515" lon="2.33736">
        <ele>370.750962</ele>
        <time>2021-10-18T12:21:20.000Z</time>
      </trkpt>
      <trkpt lat="43.60514" lon="2.33736">
        <ele>370.804587</ele>
        <time>2021-10-18T12:21:21.000Z</time>
      </trkpt>
      <trkpt lat="43.60514" lon="2.33736">
        <ele>370.804587</ele>
        <time>2021-10-18T12:21:22.000Z</time>
      </trkpt>
      <trkpt lat="43.60511" lon="2.3374">
        <ele>371.156486</ele>
        <time>2021-10-18T12:21:28.000Z</time>
      </trkpt>
      <trkpt lat="43.60511" lon="2.33742">
        <ele>371.240734</ele>
        <time>2021-10-18T12:21:29.000Z</time>
      </trkpt>
      <trkpt lat="43.6051" lon="2.33743">
        <ele>371.354488</ele>
        <time>2021-10-18T12:21:30.000Z</time>
      </trkpt>
      <trkpt lat="43.60509" lon="2.33745">
        <ele>371.478818</ele>
        <time>2021-10-18T12:21:31.000Z</time>
      </trkpt>
      <trkpt lat="43.60509" lon="2.33746">
        <ele>371.583096</ele>
        <time>2021-10-18T12:21:32.000Z</time>
      </trkpt>
      <trkpt lat="43.60508" lon="2.33748">
        <ele>371.731981</ele>
        <time>2021-10-18T12:21:33.000Z</time>
      </trkpt>
      <trkpt lat="43.60506" lon="2.3375">
        <ele>371.901254</ele>
        <time>2021-10-18T12:21:34.000Z</time>
      </trkpt>
      <trkpt lat="43.60505" lon="2.33752">
        <ele>372.055955</ele>
        <time>2021-10-18T12:21:35.000Z</time>
      </trkpt>
      <trkpt lat="43.60504" lon="2.33754">
        <ele>372.220907</ele>
        <time>2021-10-18T12:21:36.000Z</time>
      </trkpt>
      <trkpt lat="43.60502" lon="2.33756">
        <ele>372.355163</ele>
        <time>2021-10-18T12:21:37.000Z</time>
      </trkpt>
      <trkpt lat="43.60501" lon="2.33757">
        <ele>372.480872</ele>
        <time>2021-10-18T12:21:38.000Z</time>
      </trkpt>
      <trkpt lat="43.60501" lon="2.33759">
        <ele>372.59919</ele>
        <time>2021-10-18T12:21:39.000Z</time>
      </trkpt>
      <trkpt lat="43.60499" lon="2.3376">
        <ele>372.759936</ele>
        <time>2021-10-18T12:21:40.000Z</time>
      </trkpt>
      <trkpt lat="43.60497" lon="2.33762">
        <ele>372.954083</ele>
        <time>2021-10-18T12:21:41.000Z</time>
      </trkpt>
      <trkpt lat="43.60496" lon="2.33764">
        <ele>373.11336</ele>
        <time>2021-10-18T12:21:42.000Z</time>
      </trkpt>
      <trkpt lat="43.60494" lon="2.33765">
        <ele>373.259037</ele>
        <time>2021-10-18T12:21:43.000Z</time>
      </trkpt>
      <trkpt lat="43.60493" lon="2.33766">
        <ele>373.409235</ele>
        <time>2021-10-18T12:21:44.000Z</time>
      </trkpt>
      <trkpt lat="43.60491" lon="2.33768">
        <ele>373.558056</ele>
        <time>2021-10-18T12:21:45.000Z</time>
      </trkpt>
      <trkpt lat="43.6049" lon="2.33769">
        <ele>373.710199</ele>
        <time>2021-10-18T12:21:46.000Z</time>
      </trkpt>
      <trkpt lat="43.60488" lon="2.3377">
        <ele>373.850173</ele>
        <time>2021-10-18T12:21:47.000Z</time>
      </trkpt>
      <trkpt lat="43.60487" lon="2.33771">
        <ele>373.998994</ele>
        <time>2021-10-18T12:21:48.000Z</time>
      </trkpt>
      <trkpt lat="43.60486" lon="2.33773">
        <ele>374.128904</ele>
        <time>2021-10-18T12:21:49.000Z</time>
      </trkpt>
      <trkpt lat="43.60484" lon="2.33774">
        <ele>374.269079</ele>
        <time>2021-10-18T12:21:50.000Z</time>
      </trkpt>
      <trkpt lat="43.60483" lon="2.33776">
        <ele>374.417108</ele>
        <time>2021-10-18T12:21:51.000Z</time>
      </trkpt>
      <trkpt lat="43.60482" lon="2.33778">
        <ele>374.561576</ele>
        <time>2021-10-18T12:21:52.000Z</time>
      </trkpt>
      <trkpt lat="43.60481" lon="2.33779">
        <ele>374.710483</ele>
        <time>2021-10-18T12:21:53.000Z</time>
      </trkpt>
      <trkpt lat="43.6048" lon="2.33781">
        <ele>374.833858</ele>
        <time>2021-10-18T12:21:54.000Z</time>
      </trkpt>
      <trkpt lat="43.60479" lon="2.33783">
        <ele>374.974032</ele>
        <time>2021-10-18T12:21:55.000Z</time>
      </trkpt>
      <trkpt lat="43.60478" lon="2.33784">
        <ele>375.087954</ele>
        <time>2021-10-18T12:21:56.000Z</time>
      </trkpt>
      <trkpt lat="43.60478" lon="2.33786">
        <ele>375.174788</ele>
        <time>2021-10-18T12:21:57.000Z</time>
      </trkpt>
      <trkpt lat="43.60477" lon="2.33787">
        <ele>375.286118</ele>
        <time>2021-10-18T12:21:58.000Z</time>
      </trkpt>
      <trkpt lat="43.60476" lon="2.33788">
        <ele>375.385114</ele>
        <time>2021-10-18T12:21:59.000Z</time>
      </trkpt>
      <trkpt lat="43.60475" lon="2.3379">
        <ele>375.528441</ele>
        <time>2021-10-18T12:22:00.000Z</time>
      </trkpt>
      <trkpt lat="43.60474" lon="2.33792">
        <ele>375.686496</ele>
        <time>2021-10-18T12:22:01.000Z</time>
      </trkpt>
      <trkpt lat="43.60472" lon="2.33794">
        <ele>375.879417</ele>
        <time>2021-10-18T12:22:02.000Z</time>
      </trkpt>
      <trkpt lat="43.60471" lon="2.33796">
        <ele>376.032835</ele>
        <time>2021-10-18T12:22:03.000Z</time>
      </trkpt>
      <trkpt lat="43.6047" lon="2.33798">
        <ele>376.203883</ele>
        <time>2021-10-18T12:22:04.000Z</time>
      </trkpt>
      <trkpt lat="43.60469" lon="2.338">
        <ele>376.34194</ele>
        <time>2021-10-18T12:22:05.000Z</time>
      </trkpt>
      <trkpt lat="43.60468" lon="2.33802">
        <ele>376.471663</ele>
        <time>2021-10-18T12:22:06.000Z</time>
      </trkpt>
      <trkpt lat="43.60467" lon="2.33804">
        <ele>376.597924</ele>
        <time>2021-10-18T12:22:07.000Z</time>
      </trkpt>
      <trkpt lat="43.60467" lon="2.33806">
        <ele>376.738602</ele>
        <time>2021-10-18T12:22:08.000Z</time>
      </trkpt>
      <trkpt lat="43.60466" lon="2.33808">
        <ele>376.847375</ele>
        <time>2021-10-18T12:22:09.000Z</time>
      </trkpt>
      <trkpt lat="43.60466" lon="2.33809">
        <ele>376.959773</ele>
        <time>2021-10-18T12:22:10.000Z</time>
      </trkpt>
      <trkpt lat="43.60466" lon="2.33811">
        <ele>377.081766</ele>
        <time>2021-10-18T12:22:11.000Z</time>
      </trkpt>
      <trkpt lat="43.60466" lon="2.33813">
        <ele>377.202172</ele>
        <time>2021-10-18T12:22:12.000Z</time>
      </trkpt>
      <trkpt lat="43.60465" lon="2.33815">
        <ele>377.322579</ele>
        <time>2021-10-18T12:22:13.000Z</time>
      </trkpt>
      <trkpt lat="43.60464" lon="2.33817">
        <ele>377.466973</ele>
        <time>2021-10-18T12:22:14.000Z</time>
      </trkpt>
      <trkpt lat="43.60464" lon="2.33819">
        <ele>377.591304</ele>
        <time>2021-10-18T12:22:15.000Z</time>
      </trkpt>
      <trkpt lat="43.60463" lon="2.33821">
        <ele>377.729334</ele>
        <time>2021-10-18T12:22:16.000Z</time>
      </trkpt>
      <trkpt lat="43.60463" lon="2.33824">
        <ele>377.883538</ele>
        <time>2021-10-18T12:22:17.000Z</time>
      </trkpt>
      <trkpt lat="43.60463" lon="2.33826">
        <ele>377.995936</ele>
        <time>2021-10-18T12:22:18.000Z</time>
      </trkpt>
      <trkpt lat="43.60462" lon="2.33827">
        <ele>378.082771</ele>
        <time>2021-10-18T12:22:19.000Z</time>
      </trkpt>
      <trkpt lat="43.60462" lon="2.33829">
        <ele>378.226061</ele>
        <time>2021-10-18T12:22:20.000Z</time>
      </trkpt>
      <trkpt lat="43.60461" lon="2.33831">
        <ele>378.374555</ele>
        <time>2021-10-18T12:22:21.000Z</time>
      </trkpt>
      <trkpt lat="43.6046" lon="2.33834">
        <ele>378.542259</ele>
        <time>2021-10-18T12:22:22.000Z</time>
      </trkpt>
      <trkpt lat="43.6046" lon="2.33836">
        <ele>378.692122</ele>
        <time>2021-10-18T12:22:23.000Z</time>
      </trkpt>
      <trkpt lat="43.60459" lon="2.33838">
        <ele>378.830152</ele>
        <time>2021-10-18T12:22:24.000Z</time>
      </trkpt>
      <trkpt lat="43.60459" lon="2.3384">
        <ele>378.950559</ele>
        <time>2021-10-18T12:22:25.000Z</time>
      </trkpt>
      <trkpt lat="43.60459" lon="2.33842">
        <ele>379.062956</ele>
        <time>2021-10-18T12:22:26.000Z</time>
      </trkpt>
      <trkpt lat="43.60458" lon="2.33844">
        <ele>379.20327</ele>
        <time>2021-10-18T12:22:27.000Z</time>
      </trkpt>
      <trkpt lat="43.60457" lon="2.33847">
        <ele>379.380793</ele>
        <time>2021-10-18T12:22:28.000Z</time>
      </trkpt>
      <trkpt lat="43.60457" lon="2.33849">
        <ele>379.521472</ele>
        <time>2021-10-18T12:22:29.000Z</time>
      </trkpt>
      <trkpt lat="43.60456" lon="2.33851">
        <ele>379.665867</ele>
        <time>2021-10-18T12:22:30.000Z</time>
      </trkpt>
      <trkpt lat="43.60455" lon="2.33853">
        <ele>379.806545</ele>
        <time>2021-10-18T12:22:31.000Z</time>
      </trkpt>
      <trkpt lat="43.60455" lon="2.33855">
        <ele>379.932806</ele>
        <time>2021-10-18T12:22:32.000Z</time>
      </trkpt>
      <trkpt lat="43.60454" lon="2.33858">
        <ele>380.10732</ele>
        <time>2021-10-18T12:22:33.000Z</time>
      </trkpt>
      <trkpt lat="43.60454" lon="2.33861">
        <ele>380.29465</ele>
        <time>2021-10-18T12:22:34.000Z</time>
      </trkpt>
      <trkpt lat="43.60453" lon="2.33864">
        <ele>380.474905</ele>
        <time>2021-10-18T12:22:35.000Z</time>
      </trkpt>
      <trkpt lat="43.60453" lon="2.33867">
        <ele>380.664293</ele>
        <time>2021-10-18T12:22:36.000Z</time>
      </trkpt>
      <trkpt lat="43.60453" lon="2.3387">
        <ele>380.822732</ele>
        <time>2021-10-18T12:22:37.000Z</time>
      </trkpt>
      <trkpt lat="43.60452" lon="2.33872">
        <ele>380.972595</ele>
        <time>2021-10-18T12:22:38.000Z</time>
      </trkpt>
      <trkpt lat="43.60452" lon="2.33874">
        <ele>381.118727</ele>
        <time>2021-10-18T12:22:39.000Z</time>
      </trkpt>
      <trkpt lat="43.60451" lon="2.33876">
        <ele>381.259405</ele>
        <time>2021-10-18T12:22:40.000Z</time>
      </trkpt>
      <trkpt lat="43.60451" lon="2.33878">
        <ele>381.371803</ele>
        <time>2021-10-18T12:22:41.000Z</time>
      </trkpt>
      <trkpt lat="43.6045" lon="2.3388">
        <ele>381.502056</ele>
        <time>2021-10-18T12:22:42.000Z</time>
      </trkpt>
      <trkpt lat="43.6045" lon="2.33883">
        <ele>381.648101</ele>
        <time>2021-10-18T12:22:43.000Z</time>
      </trkpt>
      <trkpt lat="43.6045" lon="2.33885">
        <ele>381.781976</ele>
        <time>2021-10-18T12:22:44.000Z</time>
      </trkpt>
      <trkpt lat="43.6045" lon="2.33887">
        <ele>381.90397</ele>
        <time>2021-10-18T12:22:45.000Z</time>
      </trkpt>
      <trkpt lat="43.6045" lon="2.33889">
        <ele>382.034222</ele>
        <time>2021-10-18T12:22:46.000Z</time>
      </trkpt>
      <trkpt lat="43.6045" lon="2.33891">
        <ele>382.16836</ele>
        <time>2021-10-18T12:22:47.000Z</time>
      </trkpt>
      <trkpt lat="43.6045" lon="2.33893">
        <ele>382.300497</ele>
        <time>2021-10-18T12:22:48.000Z</time>
      </trkpt>
      <trkpt lat="43.60449" lon="2.33896">
        <ele>382.448702</ele>
        <time>2021-10-18T12:22:49.000Z</time>
      </trkpt>
      <trkpt lat="43.60449" lon="2.33898">
        <ele>382.594747</ele>
        <time>2021-10-18T12:22:50.000Z</time>
      </trkpt>
      <trkpt lat="43.60449" lon="2.339">
        <ele>382.734959</ele>
        <time>2021-10-18T12:22:51.000Z</time>
      </trkpt>
      <trkpt lat="43.60449" lon="2.33903">
        <ele>382.889165</ele>
        <time>2021-10-18T12:22:52.000Z</time>
      </trkpt>
      <trkpt lat="43.60449" lon="2.33905">
        <ele>383.023039</ele>
        <time>2021-10-18T12:22:53.000Z</time>
      </trkpt>
      <trkpt lat="43.60449" lon="2.33907">
        <ele>383.169084</ele>
        <time>2021-10-18T12:22:54.000Z</time>
      </trkpt>
      <trkpt lat="43.60449" lon="2.3391">
        <ele>383.3336</ele>
        <time>2021-10-18T12:22:55.000Z</time>
      </trkpt>
      <trkpt lat="43.60448" lon="2.33913">
        <ele>383.487805</ele>
        <time>2021-10-18T12:22:56.000Z</time>
      </trkpt>
      <trkpt lat="43.60448" lon="2.33915">
        <ele>383.64201</ele>
        <time>2021-10-18T12:22:57.000Z</time>
      </trkpt>
      <trkpt lat="43.60448" lon="2.33918">
        <ele>383.806311</ele>
        <time>2021-10-18T12:22:58.000Z</time>
      </trkpt>
      <trkpt lat="43.60448" lon="2.33921">
        <ele>383.970827</ele>
        <time>2021-10-18T12:22:59.000Z</time>
      </trkpt>
      <trkpt lat="43.60449" lon="2.33924">
        <ele>384.173215</ele>
        <time>2021-10-18T12:23:00.000Z</time>
      </trkpt>
      <trkpt lat="43.60449" lon="2.33927">
        <ele>384.345456</ele>
        <time>2021-10-18T12:23:01.000Z</time>
      </trkpt>
      <trkpt lat="43.60449" lon="2.3393">
        <ele>384.521928</ele>
        <time>2021-10-18T12:23:02.000Z</time>
      </trkpt>
      <trkpt lat="43.60449" lon="2.33932">
        <ele>384.698599</ele>
        <time>2021-10-18T12:23:03.000Z</time>
      </trkpt>
      <trkpt lat="43.60449" lon="2.33936">
        <ele>384.894951</ele>
        <time>2021-10-18T12:23:04.000Z</time>
      </trkpt>
      <trkpt lat="43.60449" lon="2.33939">
        <ele>385.095939</ele>
        <time>2021-10-18T12:23:05.000Z</time>
      </trkpt>
      <trkpt lat="43.6045" lon="2.33943">
        <ele>385.317633</ele>
        <time>2021-10-18T12:23:06.000Z</time>
      </trkpt>
      <trkpt lat="43.6045" lon="2.33946">
        <ele>385.515458</ele>
        <time>2021-10-18T12:23:07.000Z</time>
      </trkpt>
      <trkpt lat="43.6045" lon="2.33949">
        <ele>385.699951</ele>
        <time>2021-10-18T12:23:08.000Z</time>
      </trkpt>
      <trkpt lat="43.6045" lon="2.33952">
        <ele>385.882709</ele>
        <time>2021-10-18T12:23:09.000Z</time>
      </trkpt>
      <trkpt lat="43.6045" lon="2.33955">
        <ele>386.071746</ele>
        <time>2021-10-18T12:23:10.000Z</time>
      </trkpt>
      <trkpt lat="43.6045" lon="2.33958">
        <ele>386.238153</ele>
        <time>2021-10-18T12:23:11.000Z</time>
      </trkpt>
      <trkpt lat="43.6045" lon="2.3396">
        <ele>386.402636</ele>
        <time>2021-10-18T12:23:12.000Z</time>
      </trkpt>
      <trkpt lat="43.6045" lon="2.33963">
        <ele>386.567118</ele>
        <time>2021-10-18T12:23:13.000Z</time>
      </trkpt>
      <trkpt lat="43.6045" lon="2.33965">
        <ele>386.713566</ele>
        <time>2021-10-18T12:23:14.000Z</time>
      </trkpt>
      <trkpt lat="43.6045" lon="2.33968">
        <ele>386.885997</ele>
        <time>2021-10-18T12:23:15.000Z</time>
      </trkpt>
      <trkpt lat="43.60451" lon="2.33971">
        <ele>387.085426</ele>
        <time>2021-10-18T12:23:16.000Z</time>
      </trkpt>
      <trkpt lat="43.60452" lon="2.33974">
        <ele>387.251665</ele>
        <time>2021-10-18T12:23:17.000Z</time>
      </trkpt>
      <trkpt lat="43.60452" lon="2.33976">
        <ele>387.36132</ele>
        <time>2021-10-18T12:23:18.000Z</time>
      </trkpt>
      <trkpt lat="43.60452" lon="2.33978">
        <ele>387.472258</ele>
        <time>2021-10-18T12:23:19.000Z</time>
      </trkpt>
      <trkpt lat="43.60452" lon="2.3398">
        <ele>387.621188</ele>
        <time>2021-10-18T12:23:20.000Z</time>
      </trkpt>
      <trkpt lat="43.60452" lon="2.33983">
        <ele>387.798054</ele>
        <time>2021-10-18T12:23:21.000Z</time>
      </trkpt>
      <trkpt lat="43.60453" lon="2.33986">
        <ele>387.970485</ele>
        <time>2021-10-18T12:23:22.000Z</time>
      </trkpt>
      <trkpt lat="43.60453" lon="2.33988">
        <ele>388.144347</ele>
        <time>2021-10-18T12:23:23.000Z</time>
      </trkpt>
      <trkpt lat="43.60454" lon="2.33991">
        <ele>388.294376</ele>
        <time>2021-10-18T12:23:24.000Z</time>
      </trkpt>
      <trkpt lat="43.60454" lon="2.33993">
        <ele>388.432559</ele>
        <time>2021-10-18T12:23:25.000Z</time>
      </trkpt>
      <trkpt lat="43.60454" lon="2.33995">
        <ele>388.58853</ele>
        <time>2021-10-18T12:23:26.000Z</time>
      </trkpt>
      <trkpt lat="43.60455" lon="2.33998">
        <ele>388.736899</ele>
        <time>2021-10-18T12:23:27.000Z</time>
      </trkpt>
      <trkpt lat="43.60455" lon="2.34">
        <ele>388.892871</ele>
        <time>2021-10-18T12:23:28.000Z</time>
      </trkpt>
      <trkpt lat="43.60455" lon="2.34003">
        <ele>389.0429</ele>
        <time>2021-10-18T12:23:29.000Z</time>
      </trkpt>
      <trkpt lat="43.60456" lon="2.34005">
        <ele>389.192929</ele>
        <time>2021-10-18T12:23:30.000Z</time>
      </trkpt>
      <trkpt lat="43.60456" lon="2.34007">
        <ele>389.317354</ele>
        <time>2021-10-18T12:23:31.000Z</time>
      </trkpt>
      <trkpt lat="43.60456" lon="2.34009">
        <ele>389.433101</ele>
        <time>2021-10-18T12:23:32.000Z</time>
      </trkpt>
      <trkpt lat="43.60456" lon="2.34011">
        <ele>389.567123</ele>
        <time>2021-10-18T12:23:33.000Z</time>
      </trkpt>
      <trkpt lat="43.60456" lon="2.34014">
        <ele>389.719653</ele>
        <time>2021-10-18T12:23:34.000Z</time>
      </trkpt>
      <trkpt lat="43.60457" lon="2.34017">
        <ele>389.893515</ele>
        <time>2021-10-18T12:23:35.000Z</time>
      </trkpt>
      <trkpt lat="43.60457" lon="2.34019">
        <ele>390.047891</ele>
        <time>2021-10-18T12:23:36.000Z</time>
      </trkpt>
      <trkpt lat="43.60457" lon="2.34021">
        <ele>390.188257</ele>
        <time>2021-10-18T12:23:37.000Z</time>
      </trkpt>
      <trkpt lat="43.60458" lon="2.34023">
        <ele>390.312725</ele>
        <time>2021-10-18T12:23:38.000Z</time>
      </trkpt>
      <trkpt lat="43.60458" lon="2.34025">
        <ele>390.445007</ele>
        <time>2021-10-18T12:23:39.000Z</time>
      </trkpt>
      <trkpt lat="43.60459" lon="2.34028">
        <ele>390.612896</ele>
        <time>2021-10-18T12:23:40.000Z</time>
      </trkpt>
      <trkpt lat="43.60459" lon="2.34031">
        <ele>390.816539</ele>
        <time>2021-10-18T12:23:41.000Z</time>
      </trkpt>
      <trkpt lat="43.6046" lon="2.34034">
        <ele>390.986315</ele>
        <time>2021-10-18T12:23:42.000Z</time>
      </trkpt>
      <trkpt lat="43.6046" lon="2.34036">
        <ele>391.155298</ele>
        <time>2021-10-18T12:23:43.000Z</time>
      </trkpt>
      <trkpt lat="43.60461" lon="2.34039">
        <ele>391.315687</ele>
        <time>2021-10-18T12:23:44.000Z</time>
      </trkpt>
      <trkpt lat="43.60461" lon="2.34042">
        <ele>391.486468</ele>
        <time>2021-10-18T12:23:45.000Z</time>
      </trkpt>
      <trkpt lat="43.60461" lon="2.34045">
        <ele>391.669998</ele>
        <time>2021-10-18T12:23:46.000Z</time>
      </trkpt>
      <trkpt lat="43.60461" lon="2.34048">
        <ele>391.840572</ele>
        <time>2021-10-18T12:23:47.000Z</time>
      </trkpt>
      <trkpt lat="43.60461" lon="2.3405">
        <ele>391.993102</ele>
        <time>2021-10-18T12:23:48.000Z</time>
      </trkpt>
      <trkpt lat="43.60462" lon="2.34053">
        <ele>392.151103</ele>
        <time>2021-10-18T12:23:49.000Z</time>
      </trkpt>
      <trkpt lat="43.60462" lon="2.34055">
        <ele>392.31439</ele>
        <time>2021-10-18T12:23:50.000Z</time>
      </trkpt>
      <trkpt lat="43.60463" lon="2.34058">
        <ele>392.482279</ele>
        <time>2021-10-18T12:23:51.000Z</time>
      </trkpt>
      <trkpt lat="43.60463" lon="2.3406">
        <ele>392.642667</ele>
        <time>2021-10-18T12:23:52.000Z</time>
      </trkpt>
      <trkpt lat="43.60463" lon="2.34063">
        <ele>392.82251</ele>
        <time>2021-10-18T12:23:53.000Z</time>
      </trkpt>
      <trkpt lat="43.60464" lon="2.34066">
        <ele>392.990399</ele>
        <time>2021-10-18T12:23:54.000Z</time>
      </trkpt>
      <trkpt lat="43.60464" lon="2.34069">
        <ele>393.152324</ele>
        <time>2021-10-18T12:23:55.000Z</time>
      </trkpt>
      <trkpt lat="43.60465" lon="2.34071">
        <ele>393.318731</ele>
        <time>2021-10-18T12:23:56.000Z</time>
      </trkpt>
      <trkpt lat="43.60465" lon="2.34074">
        <ele>393.477344</ele>
        <time>2021-10-18T12:23:57.000Z</time>
      </trkpt>
      <trkpt lat="43.60465" lon="2.34076">
        <ele>393.631719</ele>
        <time>2021-10-18T12:23:58.000Z</time>
      </trkpt>
      <trkpt lat="43.60465" lon="2.34079">
        <ele>393.780088</ele>
        <time>2021-10-18T12:23:59.000Z</time>
      </trkpt>
      <trkpt lat="43.60465" lon="2.34082">
        <ele>393.944569</ele>
        <time>2021-10-18T12:24:00.000Z</time>
      </trkpt>
      <trkpt lat="43.60465" lon="2.34084">
        <ele>394.102959</ele>
        <time>2021-10-18T12:24:01.000Z</time>
      </trkpt>
      <trkpt lat="43.60465" lon="2.34086">
        <ele>394.243326</ele>
        <time>2021-10-18T12:24:02.000Z</time>
      </trkpt>
      <trkpt lat="43.60466" lon="2.34089">
        <ele>394.373722</ele>
        <time>2021-10-18T12:24:03.000Z</time>
      </trkpt>
      <trkpt lat="43.60466" lon="2.34091">
        <ele>394.538204</ele>
        <time>2021-10-18T12:24:04.000Z</time>
      </trkpt>
      <trkpt lat="43.60466" lon="2.34094">
        <ele>394.708777</ele>
        <time>2021-10-18T12:24:05.000Z</time>
      </trkpt>
      <trkpt lat="43.60466" lon="2.34097">
        <ele>394.885643</ele>
        <time>2021-10-18T12:24:06.000Z</time>
      </trkpt>
      <trkpt lat="43.60465" lon="2.341">
        <ele>395.058074</ele>
        <time>2021-10-18T12:24:07.000Z</time>
      </trkpt>
      <trkpt lat="43.60465" lon="2.34102">
        <ele>395.216464</ele>
        <time>2021-10-18T12:24:08.000Z</time>
      </trkpt>
      <trkpt lat="43.60465" lon="2.34104">
        <ele>395.338302</ele>
        <time>2021-10-18T12:24:09.000Z</time>
      </trkpt>
      <trkpt lat="43.60465" lon="2.34107">
        <ele>395.49869</ele>
        <time>2021-10-18T12:24:10.000Z</time>
      </trkpt>
      <trkpt lat="43.60465" lon="2.3411">
        <ele>395.663387</ele>
        <time>2021-10-18T12:24:11.000Z</time>
      </trkpt>
      <trkpt lat="43.60465" lon="2.34112">
        <ele>395.817762</ele>
        <time>2021-10-18T12:24:12.000Z</time>
      </trkpt>
      <trkpt lat="43.60464" lon="2.34115">
        <ele>395.983102</ele>
        <time>2021-10-18T12:24:13.000Z</time>
      </trkpt>
      <trkpt lat="43.60464" lon="2.34117">
        <ele>396.143548</ele>
        <time>2021-10-18T12:24:14.000Z</time>
      </trkpt>
      <trkpt lat="43.60464" lon="2.3412">
        <ele>396.27757</ele>
        <time>2021-10-18T12:24:15.000Z</time>
      </trkpt>
      <trkpt lat="43.60464" lon="2.34122">
        <ele>396.417936</ele>
        <time>2021-10-18T12:24:16.000Z</time>
      </trkpt>
      <trkpt lat="43.60463" lon="2.34125">
        <ele>396.597779</ele>
        <time>2021-10-18T12:24:17.000Z</time>
      </trkpt>
      <trkpt lat="43.60463" lon="2.34128">
        <ele>396.770209</ele>
        <time>2021-10-18T12:24:18.000Z</time>
      </trkpt>
      <trkpt lat="43.60463" lon="2.3413">
        <ele>396.950052</ele>
        <time>2021-10-18T12:24:19.000Z</time>
      </trkpt>
      <trkpt lat="43.60462" lon="2.34133">
        <ele>397.117941</ele>
        <time>2021-10-18T12:24:20.000Z</time>
      </trkpt>
      <trkpt lat="43.60462" lon="2.34136">
        <ele>397.303771</ele>
        <time>2021-10-18T12:24:21.000Z</time>
      </trkpt>
      <trkpt lat="43.60461" lon="2.34139">
        <ele>397.465696</ele>
        <time>2021-10-18T12:24:22.000Z</time>
      </trkpt>
      <trkpt lat="43.60461" lon="2.34141">
        <ele>397.609795</ele>
        <time>2021-10-18T12:24:23.000Z</time>
      </trkpt>
      <trkpt lat="43.6046" lon="2.34143">
        <ele>397.761782</ele>
        <time>2021-10-18T12:24:24.000Z</time>
      </trkpt>
      <trkpt lat="43.6046" lon="2.34146">
        <ele>397.911811</ele>
        <time>2021-10-18T12:24:25.000Z</time>
      </trkpt>
      <trkpt lat="43.60459" lon="2.34148">
        <ele>398.049993</ele>
        <time>2021-10-18T12:24:26.000Z</time>
      </trkpt>
      <trkpt lat="43.60459" lon="2.3415">
        <ele>398.207994</ele>
        <time>2021-10-18T12:24:27.000Z</time>
      </trkpt>
      <trkpt lat="43.60458" lon="2.34153">
        <ele>398.395822</ele>
        <time>2021-10-18T12:24:28.000Z</time>
      </trkpt>
      <trkpt lat="43.60457" lon="2.34156">
        <ele>398.600674</ele>
        <time>2021-10-18T12:24:29.000Z</time>
      </trkpt>
      <trkpt lat="43.60456" lon="2.34159">
        <ele>398.816466</ele>
        <time>2021-10-18T12:24:30.000Z</time>
      </trkpt>
      <trkpt lat="43.60455" lon="2.34162">
        <ele>398.999838</ele>
        <time>2021-10-18T12:24:31.000Z</time>
      </trkpt>
      <trkpt lat="43.60454" lon="2.34165">
        <ele>399.208626</ele>
        <time>2021-10-18T12:24:32.000Z</time>
      </trkpt>
      <trkpt lat="43.60453" lon="2.34169">
        <ele>399.443518</ele>
        <time>2021-10-18T12:24:33.000Z</time>
      </trkpt>
      <trkpt lat="43.60452" lon="2.34172">
        <ele>399.655519</ele>
        <time>2021-10-18T12:24:34.000Z</time>
      </trkpt>
      <trkpt lat="43.60451" lon="2.34175">
        <ele>399.841741</ele>
        <time>2021-10-18T12:24:35.000Z</time>
      </trkpt>
      <trkpt lat="43.60451" lon="2.34178">
        <ele>400.008149</ele>
        <time>2021-10-18T12:24:36.000Z</time>
      </trkpt>
      <trkpt lat="43.6045" lon="2.34181">
        <ele>400.224006</ele>
        <time>2021-10-18T12:24:37.000Z</time>
      </trkpt>
      <trkpt lat="43.6045" lon="2.34185">
        <ele>400.460275</ele>
        <time>2021-10-18T12:24:38.000Z</time>
      </trkpt>
      <trkpt lat="43.6045" lon="2.34189">
        <ele>400.676391</ele>
        <time>2021-10-18T12:24:39.000Z</time>
      </trkpt>
      <trkpt lat="43.60449" lon="2.34192">
        <ele>400.874261</ele>
        <time>2021-10-18T12:24:40.000Z</time>
      </trkpt>
      <trkpt lat="43.60449" lon="2.34196">
        <ele>401.082384</ele>
        <time>2021-10-18T12:24:41.000Z</time>
      </trkpt>
      <trkpt lat="43.6045" lon="2.34199">
        <ele>401.256426</ele>
        <time>2021-10-18T12:24:42.000Z</time>
      </trkpt>
      <trkpt lat="43.60449" lon="2.34202">
        <ele>401.454295</ele>
        <time>2021-10-18T12:24:43.000Z</time>
      </trkpt>
      <trkpt lat="43.60449" lon="2.34206">
        <ele>401.662266</ele>
        <time>2021-10-18T12:24:44.000Z</time>
      </trkpt>
      <trkpt lat="43.60449" lon="2.34209">
        <ele>401.876162</ele>
        <time>2021-10-18T12:24:45.000Z</time>
      </trkpt>
      <trkpt lat="43.60449" lon="2.34213">
        <ele>402.074032</ele>
        <time>2021-10-18T12:24:46.000Z</time>
      </trkpt>
      <trkpt lat="43.60449" lon="2.34217">
        <ele>402.299333</ele>
        <time>2021-10-18T12:24:47.000Z</time>
      </trkpt>
      <trkpt lat="43.60449" lon="2.34221">
        <ele>402.577086</ele>
        <time>2021-10-18T12:24:48.000Z</time>
      </trkpt>
      <trkpt lat="43.60448" lon="2.34226">
        <ele>402.863526</ele>
        <time>2021-10-18T12:24:49.000Z</time>
      </trkpt>
      <trkpt lat="43.60448" lon="2.34231">
        <ele>403.111935</ele>
        <time>2021-10-18T12:24:50.000Z</time>
      </trkpt>
      <trkpt lat="43.60448" lon="2.34235">
        <ele>403.360345</ele>
        <time>2021-10-18T12:24:51.000Z</time>
      </trkpt>
      <trkpt lat="43.60448" lon="2.34239">
        <ele>403.591973</ele>
        <time>2021-10-18T12:24:52.000Z</time>
      </trkpt>
      <trkpt lat="43.60449" lon="2.34243">
        <ele>403.833617</ele>
        <time>2021-10-18T12:24:53.000Z</time>
      </trkpt>
      <trkpt lat="43.60449" lon="2.34247">
        <ele>404.072613</ele>
        <time>2021-10-18T12:24:54.000Z</time>
      </trkpt>
      <trkpt lat="43.6045" lon="2.34251">
        <ele>404.286021</ele>
        <time>2021-10-18T12:24:55.000Z</time>
      </trkpt>
      <trkpt lat="43.60451" lon="2.34254">
        <ele>404.506438</ele>
        <time>2021-10-18T12:24:56.000Z</time>
      </trkpt>
      <trkpt lat="43.60452" lon="2.34257">
        <ele>404.719766</ele>
        <time>2021-10-18T12:24:57.000Z</time>
      </trkpt>
      <trkpt lat="43.60453" lon="2.34261">
        <ele>404.948713</ele>
        <time>2021-10-18T12:24:58.000Z</time>
      </trkpt>
      <trkpt lat="43.60455" lon="2.34264">
        <ele>405.1738</ele>
        <time>2021-10-18T12:24:59.000Z</time>
      </trkpt>
      <trkpt lat="43.60456" lon="2.34267">
        <ele>405.371793</ele>
        <time>2021-10-18T12:25:00.000Z</time>
      </trkpt>
      <trkpt lat="43.60457" lon="2.3427">
        <ele>405.549832</ele>
        <time>2021-10-18T12:25:01.000Z</time>
      </trkpt>
      <trkpt lat="43.60458" lon="2.34272">
        <ele>405.718319</ele>
        <time>2021-10-18T12:25:02.000Z</time>
      </trkpt>
      <trkpt lat="43.6046" lon="2.34275">
        <ele>405.91987</ele>
        <time>2021-10-18T12:25:03.000Z</time>
      </trkpt>
      <trkpt lat="43.60461" lon="2.34277">
        <ele>406.107047</ele>
        <time>2021-10-18T12:25:04.000Z</time>
      </trkpt>
      <trkpt lat="43.60463" lon="2.3428">
        <ele>406.270814</ele>
        <time>2021-10-18T12:25:05.000Z</time>
      </trkpt>
      <trkpt lat="43.60464" lon="2.34282">
        <ele>406.425355</ele>
        <time>2021-10-18T12:25:06.000Z</time>
      </trkpt>
      <trkpt lat="43.60465" lon="2.34284">
        <ele>406.598932</ele>
        <time>2021-10-18T12:25:07.000Z</time>
      </trkpt>
      <trkpt lat="43.60466" lon="2.34287">
        <ele>406.772205</ele>
        <time>2021-10-18T12:25:08.000Z</time>
      </trkpt>
      <trkpt lat="43.60467" lon="2.3429">
        <ele>406.96133</ele>
        <time>2021-10-18T12:25:09.000Z</time>
      </trkpt>
      <trkpt lat="43.60469" lon="2.34292">
        <ele>407.149292</ele>
        <time>2021-10-18T12:25:10.000Z</time>
      </trkpt>
      <trkpt lat="43.6047" lon="2.34295">
        <ele>407.340081</ele>
        <time>2021-10-18T12:25:11.000Z</time>
      </trkpt>
      <trkpt lat="43.6047" lon="2.34299">
        <ele>407.542245</ele>
        <time>2021-10-18T12:25:12.000Z</time>
      </trkpt>
      <trkpt lat="43.60471" lon="2.34302">
        <ele>407.74585</ele>
        <time>2021-10-18T12:25:13.000Z</time>
      </trkpt>
      <trkpt lat="43.60471" lon="2.34305">
        <ele>407.91974</ele>
        <time>2021-10-18T12:25:14.000Z</time>
      </trkpt>
      <trkpt lat="43.60471" lon="2.34308">
        <ele>408.099003</ele>
        <time>2021-10-18T12:25:15.000Z</time>
      </trkpt>
      <trkpt lat="43.60472" lon="2.34312">
        <ele>408.322122</ele>
        <time>2021-10-18T12:25:16.000Z</time>
      </trkpt>
      <trkpt lat="43.60473" lon="2.34316">
        <ele>408.567424</ele>
        <time>2021-10-18T12:25:17.000Z</time>
      </trkpt>
      <trkpt lat="43.60473" lon="2.3432">
        <ele>408.822033</ele>
        <time>2021-10-18T12:25:18.000Z</time>
      </trkpt>
      <trkpt lat="43.60474" lon="2.34325">
        <ele>409.100949</ele>
        <time>2021-10-18T12:25:19.000Z</time>
      </trkpt>
      <trkpt lat="43.60475" lon="2.3433">
        <ele>409.378149</ele>
        <time>2021-10-18T12:25:20.000Z</time>
      </trkpt>
      <trkpt lat="43.60475" lon="2.34334">
        <ele>409.62287</ele>
        <time>2021-10-18T12:25:21.000Z</time>
      </trkpt>
      <trkpt lat="43.60476" lon="2.34338">
        <ele>409.875902</ele>
        <time>2021-10-18T12:25:22.000Z</time>
      </trkpt>
      <trkpt lat="43.60477" lon="2.34342">
        <ele>410.123083</ele>
        <time>2021-10-18T12:25:23.000Z</time>
      </trkpt>
      <trkpt lat="43.60478" lon="2.34346">
        <ele>410.342124</ele>
        <time>2021-10-18T12:25:24.000Z</time>
      </trkpt>
      <trkpt lat="43.60478" lon="2.3435">
        <ele>410.581118</ele>
        <time>2021-10-18T12:25:25.000Z</time>
      </trkpt>
      <trkpt lat="43.60479" lon="2.34354">
        <ele>410.794525</ele>
        <time>2021-10-18T12:25:26.000Z</time>
      </trkpt>
      <trkpt lat="43.6048" lon="2.34357">
        <ele>410.985314</ele>
        <time>2021-10-18T12:25:27.000Z</time>
      </trkpt>
      <trkpt lat="43.60481" lon="2.3436">
        <ele>411.167397</ele>
        <time>2021-10-18T12:25:28.000Z</time>
      </trkpt>
      <trkpt lat="43.60481" lon="2.34363">
        <ele>411.349303</ele>
        <time>2021-10-18T12:25:29.000Z</time>
      </trkpt>
      <trkpt lat="43.60481" lon="2.34366">
        <ele>411.519846</ele>
        <time>2021-10-18T12:25:30.000Z</time>
      </trkpt>
      <trkpt lat="43.60482" lon="2.34368">
        <ele>411.677649</ele>
        <time>2021-10-18T12:25:31.000Z</time>
      </trkpt>
      <trkpt lat="43.60482" lon="2.34371">
        <ele>411.82748</ele>
        <time>2021-10-18T12:25:32.000Z</time>
      </trkpt>
      <trkpt lat="43.60483" lon="2.34373">
        <ele>411.961032</ele>
        <time>2021-10-18T12:25:33.000Z</time>
      </trkpt>
      <trkpt lat="43.60483" lon="2.34375">
        <ele>412.103303</ele>
        <time>2021-10-18T12:25:34.000Z</time>
      </trkpt>
      <trkpt lat="43.60484" lon="2.34378">
        <ele>412.279525</ele>
        <time>2021-10-18T12:25:35.000Z</time>
      </trkpt>
      <trkpt lat="43.60485" lon="2.34381">
        <ele>412.456499</ele>
        <time>2021-10-18T12:25:36.000Z</time>
      </trkpt>
      <trkpt lat="43.60486" lon="2.34383">
        <ele>412.615733</ele>
        <time>2021-10-18T12:25:37.000Z</time>
      </trkpt>
      <trkpt lat="43.60487" lon="2.34386">
        <ele>412.784728</ele>
        <time>2021-10-18T12:25:38.000Z</time>
      </trkpt>
      <trkpt lat="43.60488" lon="2.34389">
        <ele>412.961702</ele>
        <time>2021-10-18T12:25:39.000Z</time>
      </trkpt>
      <trkpt lat="43.60489" lon="2.34391">
        <ele>413.158297</ele>
        <time>2021-10-18T12:25:40.000Z</time>
      </trkpt>
      <trkpt lat="43.6049" lon="2.34394">
        <ele>413.347421</ele>
        <time>2021-10-18T12:25:41.000Z</time>
      </trkpt>
      <trkpt lat="43.60491" lon="2.34397">
        <ele>413.552055</ele>
        <time>2021-10-18T12:25:42.000Z</time>
      </trkpt>
      <trkpt lat="43.60492" lon="2.344">
        <ele>413.723178</ele>
        <time>2021-10-18T12:25:43.000Z</time>
      </trkpt>
      <trkpt lat="43.60493" lon="2.34402">
        <ele>413.865395</ele>
        <time>2021-10-18T12:25:44.000Z</time>
      </trkpt>
      <trkpt lat="43.60494" lon="2.34405">
        <ele>414.02024</ele>
        <time>2021-10-18T12:25:45.000Z</time>
      </trkpt>
      <trkpt lat="43.60494" lon="2.34407">
        <ele>414.155247</ele>
        <time>2021-10-18T12:25:46.000Z</time>
      </trkpt>
      <trkpt lat="43.60494" lon="2.34409">
        <ele>414.288452</ele>
        <time>2021-10-18T12:25:47.000Z</time>
      </trkpt>
      <trkpt lat="43.60495" lon="2.34411">
        <ele>414.396073</ele>
        <time>2021-10-18T12:25:48.000Z</time>
      </trkpt>
      <trkpt lat="43.60496" lon="2.34413">
        <ele>414.504065</ele>
        <time>2021-10-18T12:25:49.000Z</time>
      </trkpt>
      <trkpt lat="43.60497" lon="2.34415">
        <ele>414.651468</ele>
        <time>2021-10-18T12:25:50.000Z</time>
      </trkpt>
      <trkpt lat="43.60497" lon="2.34418">
        <ele>414.805846</ele>
        <time>2021-10-18T12:25:51.000Z</time>
      </trkpt>
      <trkpt lat="43.60498" lon="2.3442">
        <ele>414.945908</ele>
        <time>2021-10-18T12:25:52.000Z</time>
      </trkpt>
      <trkpt lat="43.60498" lon="2.34423">
        <ele>415.089674</ele>
        <time>2021-10-18T12:25:53.000Z</time>
      </trkpt>
      <trkpt lat="43.60498" lon="2.34426">
        <ele>415.23344</ele>
        <time>2021-10-18T12:25:54.000Z</time>
      </trkpt>
      <trkpt lat="43.60499" lon="2.34429">
        <ele>415.371521</ele>
        <time>2021-10-18T12:25:55.000Z</time>
      </trkpt>
      <trkpt lat="43.60499" lon="2.34431">
        <ele>415.505657</ele>
        <time>2021-10-18T12:25:56.000Z</time>
      </trkpt>
      <trkpt lat="43.605" lon="2.34434">
        <ele>415.653674</ele>
        <time>2021-10-18T12:25:57.000Z</time>
      </trkpt>
      <trkpt lat="43.60501" lon="2.34438">
        <ele>415.814332</ele>
        <time>2021-10-18T12:25:58.000Z</time>
      </trkpt>
      <trkpt lat="43.60501" lon="2.34441">
        <ele>415.980472</ele>
        <time>2021-10-18T12:25:59.000Z</time>
      </trkpt>
      <trkpt lat="43.60502" lon="2.34444">
        <ele>416.135156</ele>
        <time>2021-10-18T12:26:00.000Z</time>
      </trkpt>
      <trkpt lat="43.60502" lon="2.34446">
        <ele>416.269212</ele>
        <time>2021-10-18T12:26:01.000Z</time>
      </trkpt>
      <trkpt lat="43.60503" lon="2.34449">
        <ele>416.399658</ele>
        <time>2021-10-18T12:26:02.000Z</time>
      </trkpt>
      <trkpt lat="43.60503" lon="2.34452">
        <ele>416.528866</ele>
        <time>2021-10-18T12:26:03.000Z</time>
      </trkpt>
      <trkpt lat="43.60503" lon="2.34454">
        <ele>416.641741</ele>
        <time>2021-10-18T12:26:04.000Z</time>
      </trkpt>
      <trkpt lat="43.60503" lon="2.34456">
        <ele>416.764619</ele>
        <time>2021-10-18T12:26:05.000Z</time>
      </trkpt>
      <trkpt lat="43.60503" lon="2.34459">
        <ele>416.885481</ele>
        <time>2021-10-18T12:26:06.000Z</time>
      </trkpt>
      <trkpt lat="43.60502" lon="2.34461">
        <ele>416.982587</ele>
        <time>2021-10-18T12:26:07.000Z</time>
      </trkpt>
      <trkpt lat="43.60501" lon="2.34463">
        <ele>417.096042</ele>
        <time>2021-10-18T12:26:08.000Z</time>
      </trkpt>
      <trkpt lat="43.60501" lon="2.34465">
        <ele>417.202608</ele>
        <time>2021-10-18T12:26:09.000Z</time>
      </trkpt>
      <trkpt lat="43.60501" lon="2.34467">
        <ele>417.316294</ele>
        <time>2021-10-18T12:26:10.000Z</time>
      </trkpt>
      <trkpt lat="43.60501" lon="2.3447">
        <ele>417.434854</ele>
        <time>2021-10-18T12:26:11.000Z</time>
      </trkpt>
      <trkpt lat="43.60501" lon="2.34472">
        <ele>417.54142</ele>
        <time>2021-10-18T12:26:12.000Z</time>
      </trkpt>
      <trkpt lat="43.605" lon="2.34474">
        <ele>417.652739</ele>
        <time>2021-10-18T12:26:13.000Z</time>
      </trkpt>
      <trkpt lat="43.605" lon="2.34477">
        <ele>417.799039</ele>
        <time>2021-10-18T12:26:14.000Z</time>
      </trkpt>
      <trkpt lat="43.60499" lon="2.3448">
        <ele>417.990799</ele>
        <time>2021-10-18T12:26:15.000Z</time>
      </trkpt>
      <trkpt lat="43.60498" lon="2.34484">
        <ele>418.153022</ele>
        <time>2021-10-18T12:26:16.000Z</time>
      </trkpt>
      <trkpt lat="43.60498" lon="2.34487">
        <ele>418.302726</ele>
        <time>2021-10-18T12:26:17.000Z</time>
      </trkpt>
      <trkpt lat="43.60497" lon="2.3449">
        <ele>418.46108</ele>
        <time>2021-10-18T12:26:18.000Z</time>
      </trkpt>
      <trkpt lat="43.60497" lon="2.34493">
        <ele>418.593759</ele>
        <time>2021-10-18T12:26:19.000Z</time>
      </trkpt>
      <trkpt lat="43.60498" lon="2.34495">
        <ele>418.705078</ele>
        <time>2021-10-18T12:26:20.000Z</time>
      </trkpt>
      <trkpt lat="43.60499" lon="2.34497">
        <ele>418.827518</ele>
        <time>2021-10-18T12:26:21.000Z</time>
      </trkpt>
      <trkpt lat="43.60499" lon="2.34499">
        <ele>418.946079</ele>
        <time>2021-10-18T12:26:22.000Z</time>
      </trkpt>
      <trkpt lat="43.60499" lon="2.34502">
        <ele>419.064639</ele>
        <time>2021-10-18T12:26:23.000Z</time>
      </trkpt>
      <trkpt lat="43.60499" lon="2.34504">
        <ele>419.157042</ele>
        <time>2021-10-18T12:26:24.000Z</time>
      </trkpt>
      <trkpt lat="43.60499" lon="2.34506">
        <ele>419.252478</ele>
        <time>2021-10-18T12:26:25.000Z</time>
      </trkpt>
      <trkpt lat="43.60499" lon="2.34508">
        <ele>419.375356</ele>
        <time>2021-10-18T12:26:26.000Z</time>
      </trkpt>
      <trkpt lat="43.605" lon="2.34511">
        <ele>419.498793</ele>
        <time>2021-10-18T12:26:27.000Z</time>
      </trkpt>
      <trkpt lat="43.60499" lon="2.34513">
        <ele>419.631471</ele>
        <time>2021-10-18T12:26:28.000Z</time>
      </trkpt>
      <trkpt lat="43.605" lon="2.34516">
        <ele>419.753911</ele>
        <time>2021-10-18T12:26:29.000Z</time>
      </trkpt>
      <trkpt lat="43.60501" lon="2.34518">
        <ele>419.867367</ele>
        <time>2021-10-18T12:26:30.000Z</time>
      </trkpt>
      <trkpt lat="43.60501" lon="2.34519">
        <ele>419.950437</ele>
        <time>2021-10-18T12:26:31.000Z</time>
      </trkpt>
      <trkpt lat="43.60502" lon="2.34521">
        <ele>420.040486</ele>
        <time>2021-10-18T12:26:32.000Z</time>
      </trkpt>
      <trkpt lat="43.60502" lon="2.34523">
        <ele>420.149502</ele>
        <time>2021-10-18T12:26:33.000Z</time>
      </trkpt>
      <trkpt lat="43.60503" lon="2.34525">
        <ele>420.286519</ele>
        <time>2021-10-18T12:26:34.000Z</time>
      </trkpt>
      <trkpt lat="43.60504" lon="2.34528">
        <ele>420.417725</ele>
        <time>2021-10-18T12:26:35.000Z</time>
      </trkpt>
      <trkpt lat="43.60505" lon="2.3453">
        <ele>420.541073</ele>
        <time>2021-10-18T12:26:36.000Z</time>
      </trkpt>
      <trkpt lat="43.60506" lon="2.34532">
        <ele>420.646119</ele>
        <time>2021-10-18T12:26:37.000Z</time>
      </trkpt>
      <trkpt lat="43.60506" lon="2.34534">
        <ele>420.773717</ele>
        <time>2021-10-18T12:26:38.000Z</time>
      </trkpt>
      <trkpt lat="43.60506" lon="2.34537">
        <ele>420.892277</ele>
        <time>2021-10-18T12:26:39.000Z</time>
      </trkpt>
      <trkpt lat="43.60505" lon="2.34539">
        <ele>421.012035</ele>
        <time>2021-10-18T12:26:40.000Z</time>
      </trkpt>
      <trkpt lat="43.60504" lon="2.3454">
        <ele>421.116806</ele>
        <time>2021-10-18T12:26:41.000Z</time>
      </trkpt>
      <trkpt lat="43.60502" lon="2.34542">
        <ele>421.228535</ele>
        <time>2021-10-18T12:26:42.000Z</time>
      </trkpt>
      <trkpt lat="43.605" lon="2.34544">
        <ele>421.382084</ele>
        <time>2021-10-18T12:26:43.000Z</time>
      </trkpt>
      <trkpt lat="43.60499" lon="2.34545">
        <ele>421.518903</ele>
        <time>2021-10-18T12:26:44.000Z</time>
      </trkpt>
      <trkpt lat="43.60497" lon="2.34547">
        <ele>421.660214</ele>
        <time>2021-10-18T12:26:45.000Z</time>
      </trkpt>
      <trkpt lat="43.60496" lon="2.34549">
        <ele>421.786029</ele>
        <time>2021-10-18T12:26:46.000Z</time>
      </trkpt>
      <trkpt lat="43.60494" lon="2.34549">
        <ele>421.918124</ele>
        <time>2021-10-18T12:26:47.000Z</time>
      </trkpt>
      <trkpt lat="43.60492" lon="2.34549">
        <ele>422.053761</ele>
        <time>2021-10-18T12:26:48.000Z</time>
      </trkpt>
      <trkpt lat="43.6049" lon="2.3455">
        <ele>422.199102</ele>
        <time>2021-10-18T12:26:49.000Z</time>
      </trkpt>
      <trkpt lat="43.60488" lon="2.34551">
        <ele>422.29845</ele>
        <time>2021-10-18T12:26:50.000Z</time>
      </trkpt>
      <trkpt lat="43.60487" lon="2.34551">
        <ele>422.362528</ele>
        <time>2021-10-18T12:26:51.000Z</time>
      </trkpt>
      <trkpt lat="43.60486" lon="2.34551">
        <ele>422.471077</ele>
        <time>2021-10-18T12:26:52.000Z</time>
      </trkpt>
      <trkpt lat="43.60484" lon="2.3455">
        <ele>422.607213</ele>
        <time>2021-10-18T12:26:53.000Z</time>
      </trkpt>
      <trkpt lat="43.60482" lon="2.34549">
        <ele>422.733952</ele>
        <time>2021-10-18T12:26:54.000Z</time>
      </trkpt>
      <trkpt lat="43.60481" lon="2.34549">
        <ele>422.843385</ele>
        <time>2021-10-18T12:26:55.000Z</time>
      </trkpt>
      <trkpt lat="43.60479" lon="2.34549">
        <ele>422.952268</ele>
        <time>2021-10-18T12:26:56.000Z</time>
      </trkpt>
      <trkpt lat="43.60477" lon="2.34549">
        <ele>423.075147</ele>
        <time>2021-10-18T12:26:57.000Z</time>
      </trkpt>
      <trkpt lat="43.60476" lon="2.34548">
        <ele>423.177281</ele>
        <time>2021-10-18T12:26:58.000Z</time>
      </trkpt>
      <trkpt lat="43.60474" lon="2.34548">
        <ele>423.285831</ele>
        <time>2021-10-18T12:26:59.000Z</time>
      </trkpt>
      <trkpt lat="43.60472" lon="2.34548">
        <ele>423.421734</ele>
        <time>2021-10-18T12:27:00.000Z</time>
      </trkpt>
      <trkpt lat="43.6047" lon="2.34548">
        <ele>423.558697</ele>
        <time>2021-10-18T12:27:01.000Z</time>
      </trkpt>
      <trkpt lat="43.60468" lon="2.34548">
        <ele>423.708526</ele>
        <time>2021-10-18T12:27:02.000Z</time>
      </trkpt>
      <trkpt lat="43.60466" lon="2.34548">
        <ele>423.864407</ele>
        <time>2021-10-18T12:27:03.000Z</time>
      </trkpt>
      <trkpt lat="43.60464" lon="2.34548">
        <ele>423.987286</ele>
        <time>2021-10-18T12:27:04.000Z</time>
      </trkpt>
      <trkpt lat="43.60462" lon="2.34549">
        <ele>424.121909</ele>
        <time>2021-10-18T12:27:05.000Z</time>
      </trkpt>
      <trkpt lat="43.6046" lon="2.3455">
        <ele>424.239397</ele>
        <time>2021-10-18T12:27:06.000Z</time>
      </trkpt>
      <trkpt lat="43.60459" lon="2.34551">
        <ele>424.359419</ele>
        <time>2021-10-18T12:27:07.000Z</time>
      </trkpt>
      <trkpt lat="43.60457" lon="2.34552">
        <ele>424.468585</ele>
        <time>2021-10-18T12:27:08.000Z</time>
      </trkpt>
      <trkpt lat="43.60457" lon="2.34554">
        <ele>424.544242</ele>
        <time>2021-10-18T12:27:09.000Z</time>
      </trkpt>
      <trkpt lat="43.60456" lon="2.34555">
        <ele>424.627313</ele>
        <time>2021-10-18T12:27:10.000Z</time>
      </trkpt>
      <trkpt lat="43.60456" lon="2.34557">
        <ele>424.695258</ele>
        <time>2021-10-18T12:27:11.000Z</time>
      </trkpt>
      <trkpt lat="43.60455" lon="2.34557">
        <ele>424.7622</ele>
        <time>2021-10-18T12:27:12.000Z</time>
      </trkpt>
      <trkpt lat="43.60455" lon="2.34559">
        <ele>424.837857</ele>
        <time>2021-10-18T12:27:13.000Z</time>
      </trkpt>
      <trkpt lat="43.60454" lon="2.3456">
        <ele>424.901596</ele>
        <time>2021-10-18T12:27:14.000Z</time>
      </trkpt>
      <trkpt lat="43.60453" lon="2.34561">
        <ele>424.985323</ele>
        <time>2021-10-18T12:27:15.000Z</time>
      </trkpt>
      <trkpt lat="43.60453" lon="2.34563">
        <ele>425.070845</ele>
        <time>2021-10-18T12:27:16.000Z</time>
      </trkpt>
      <trkpt lat="43.60453" lon="2.34564">
        <ele>425.155369</ele>
        <time>2021-10-18T12:27:17.000Z</time>
      </trkpt>
      <trkpt lat="43.60452" lon="2.34566">
        <ele>425.264387</ele>
        <time>2021-10-18T12:27:18.000Z</time>
      </trkpt>
      <trkpt lat="43.60451" lon="2.34568">
        <ele>425.363599</ele>
        <time>2021-10-18T12:27:19.000Z</time>
      </trkpt>
      <trkpt lat="43.60451" lon="2.34571">
        <ele>425.497521</ele>
        <time>2021-10-18T12:27:20.000Z</time>
      </trkpt>
      <trkpt lat="43.6045" lon="2.34573">
        <ele>425.627968</ele>
        <time>2021-10-18T12:27:21.000Z</time>
      </trkpt>
      <trkpt lat="43.6045" lon="2.34576">
        <ele>425.744054</ele>
        <time>2021-10-18T12:27:22.000Z</time>
      </trkpt>
      <trkpt lat="43.6045" lon="2.34578">
        <ele>425.86014</ele>
        <time>2021-10-18T12:27:23.000Z</time>
      </trkpt>
      <trkpt lat="43.60449" lon="2.3458">
        <ele>425.966707</ele>
        <time>2021-10-18T12:27:24.000Z</time>
      </trkpt>
      <trkpt lat="43.60449" lon="2.34582">
        <ele>426.052579</ele>
        <time>2021-10-18T12:27:25.000Z</time>
      </trkpt>
      <trkpt lat="43.60449" lon="2.34584">
        <ele>426.136284</ele>
        <time>2021-10-18T12:27:26.000Z</time>
      </trkpt>
      <trkpt lat="43.60448" lon="2.34586">
        <ele>426.241331</ele>
        <time>2021-10-18T12:27:27.000Z</time>
      </trkpt>
      <trkpt lat="43.60448" lon="2.34588">
        <ele>426.350148</ele>
        <time>2021-10-18T12:27:28.000Z</time>
      </trkpt>
      <trkpt lat="43.60449" lon="2.3459">
        <ele>426.455195</ele>
        <time>2021-10-18T12:27:29.000Z</time>
      </trkpt>
      <trkpt lat="43.60449" lon="2.34592">
        <ele>426.577886</ele>
        <time>2021-10-18T12:27:30.000Z</time>
      </trkpt>
      <trkpt lat="43.60449" lon="2.34595">
        <ele>426.690763</ele>
        <time>2021-10-18T12:27:31.000Z</time>
      </trkpt>
      <trkpt lat="43.60449" lon="2.34597">
        <ele>426.800629</ele>
        <time>2021-10-18T12:27:32.000Z</time>
      </trkpt>
      <trkpt lat="43.60449" lon="2.34599">
        <ele>426.90881</ele>
        <time>2021-10-18T12:27:33.000Z</time>
      </trkpt>
      <trkpt lat="43.60448" lon="2.34601">
        <ele>426.999738</ele>
        <time>2021-10-18T12:27:34.000Z</time>
      </trkpt>
      <trkpt lat="43.60448" lon="2.34603">
        <ele>427.095187</ele>
        <time>2021-10-18T12:27:35.000Z</time>
      </trkpt>
      <trkpt lat="43.60448" lon="2.34605">
        <ele>427.190637</ele>
        <time>2021-10-18T12:27:36.000Z</time>
      </trkpt>
      <trkpt lat="43.60447" lon="2.34607">
        <ele>427.290529</ele>
        <time>2021-10-18T12:27:37.000Z</time>
      </trkpt>
      <trkpt lat="43.60447" lon="2.3461">
        <ele>427.408309</ele>
        <time>2021-10-18T12:27:38.000Z</time>
      </trkpt>
      <trkpt lat="43.60447" lon="2.34612">
        <ele>427.528588</ele>
        <time>2021-10-18T12:27:39.000Z</time>
      </trkpt>
      <trkpt lat="43.60447" lon="2.34615">
        <ele>427.638994</ele>
        <time>2021-10-18T12:27:40.000Z</time>
      </trkpt>
      <trkpt lat="43.60447" lon="2.34616">
        <ele>427.721223</ele>
        <time>2021-10-18T12:27:41.000Z</time>
      </trkpt>
      <trkpt lat="43.60447" lon="2.34618">
        <ele>427.79281</ele>
        <time>2021-10-18T12:27:42.000Z</time>
      </trkpt>
      <trkpt lat="43.60447" lon="2.3462">
        <ele>427.880215</ele>
        <time>2021-10-18T12:27:43.000Z</time>
      </trkpt>
      <trkpt lat="43.60447" lon="2.34622">
        <ele>427.96785</ele>
        <time>2021-10-18T12:27:44.000Z</time>
      </trkpt>
      <trkpt lat="43.60447" lon="2.34624">
        <ele>428.076665</ele>
        <time>2021-10-18T12:27:45.000Z</time>
      </trkpt>
      <trkpt lat="43.60447" lon="2.34626">
        <ele>428.170623</ele>
        <time>2021-10-18T12:27:46.000Z</time>
      </trkpt>
      <trkpt lat="43.60446" lon="2.34628">
        <ele>428.276696</ele>
        <time>2021-10-18T12:27:47.000Z</time>
      </trkpt>
      <trkpt lat="43.60445" lon="2.3463">
        <ele>428.374763</ele>
        <time>2021-10-18T12:27:48.000Z</time>
      </trkpt>
      <trkpt lat="43.60445" lon="2.34632">
        <ele>428.47911</ele>
        <time>2021-10-18T12:27:49.000Z</time>
      </trkpt>
      <trkpt lat="43.60445" lon="2.34635">
        <ele>428.587925</ele>
        <time>2021-10-18T12:27:50.000Z</time>
      </trkpt>
      <trkpt lat="43.60444" lon="2.34637">
        <ele>428.687816</ele>
        <time>2021-10-18T12:27:51.000Z</time>
      </trkpt>
      <trkpt lat="43.60443" lon="2.34639">
        <ele>428.79614</ele>
        <time>2021-10-18T12:27:52.000Z</time>
      </trkpt>
      <trkpt lat="43.60442" lon="2.34641">
        <ele>428.934118</ele>
        <time>2021-10-18T12:27:53.000Z</time>
      </trkpt>
      <trkpt lat="43.60441" lon="2.34644">
        <ele>429.102911</ele>
        <time>2021-10-18T12:27:54.000Z</time>
      </trkpt>
      <trkpt lat="43.6044" lon="2.34647">
        <ele>429.254839</ele>
        <time>2021-10-18T12:27:55.000Z</time>
      </trkpt>
      <trkpt lat="43.60438" lon="2.34651">
        <ele>429.426829</ele>
        <time>2021-10-18T12:27:56.000Z</time>
      </trkpt>
      <trkpt lat="43.60437" lon="2.34653">
        <ele>429.573371</ele>
        <time>2021-10-18T12:27:57.000Z</time>
      </trkpt>
      <trkpt lat="43.60436" lon="2.34656">
        <ele>429.699107</ele>
        <time>2021-10-18T12:27:58.000Z</time>
      </trkpt>
      <trkpt lat="43.60435" lon="2.34659">
        <ele>429.853799</ele>
        <time>2021-10-18T12:27:59.000Z</time>
      </trkpt>
      <trkpt lat="43.60435" lon="2.34662">
        <ele>429.994423</ele>
        <time>2021-10-18T12:28:00.000Z</time>
      </trkpt>
      <trkpt lat="43.60434" lon="2.34664">
        <ele>430.097407</ele>
        <time>2021-10-18T12:28:01.000Z</time>
      </trkpt>
      <trkpt lat="43.60434" lon="2.34666">
        <ele>430.185043</ele>
        <time>2021-10-18T12:28:02.000Z</time>
      </trkpt>
      <trkpt lat="43.60434" lon="2.34668">
        <ele>430.287231</ele>
        <time>2021-10-18T12:28:03.000Z</time>
      </trkpt>
      <trkpt lat="43.60433" lon="2.3467">
        <ele>430.390216</ele>
        <time>2021-10-18T12:28:04.000Z</time>
      </trkpt>
      <trkpt lat="43.60433" lon="2.34672">
        <ele>430.491621</ele>
        <time>2021-10-18T12:28:05.000Z</time>
      </trkpt>
      <trkpt lat="43.60433" lon="2.34674">
        <ele>430.591512</ele>
        <time>2021-10-18T12:28:06.000Z</time>
      </trkpt>
      <trkpt lat="43.60432" lon="2.34676">
        <ele>430.68998</ele>
        <time>2021-10-18T12:28:07.000Z</time>
      </trkpt>
      <trkpt lat="43.60432" lon="2.34679">
        <ele>430.795976</ele>
        <time>2021-10-18T12:28:08.000Z</time>
      </trkpt>
      <trkpt lat="43.60432" lon="2.34681">
        <ele>430.898961</ele>
        <time>2021-10-18T12:28:09.000Z</time>
      </trkpt>
      <trkpt lat="43.60431" lon="2.34683">
        <ele>431.013732</ele>
        <time>2021-10-18T12:28:10.000Z</time>
      </trkpt>
      <trkpt lat="43.6043" lon="2.34686">
        <ele>431.147954</ele>
        <time>2021-10-18T12:28:11.000Z</time>
      </trkpt>
      <trkpt lat="43.60429" lon="2.34688">
        <ele>431.254304</ele>
        <time>2021-10-18T12:28:12.000Z</time>
      </trkpt>
      <trkpt lat="43.60429" lon="2.3469">
        <ele>431.366343</ele>
        <time>2021-10-18T12:28:13.000Z</time>
      </trkpt>
      <trkpt lat="43.60429" lon="2.34692">
        <ele>431.467549</ele>
        <time>2021-10-18T12:28:14.000Z</time>
      </trkpt>
      <trkpt lat="43.60429" lon="2.34694">
        <ele>431.566016</ele>
        <time>2021-10-18T12:28:15.000Z</time>
      </trkpt>
      <trkpt lat="43.60428" lon="2.34697">
        <ele>431.694451</ele>
        <time>2021-10-18T12:28:16.000Z</time>
      </trkpt>
      <trkpt lat="43.60427" lon="2.34699">
        <ele>431.789901</ele>
        <time>2021-10-18T12:28:17.000Z</time>
      </trkpt>
      <trkpt lat="43.60427" lon="2.34701">
        <ele>431.880925</ele>
        <time>2021-10-18T12:28:18.000Z</time>
      </trkpt>
      <trkpt lat="43.60427" lon="2.34703">
        <ele>431.98974</ele>
        <time>2021-10-18T12:28:19.000Z</time>
      </trkpt>
      <trkpt lat="43.60426" lon="2.34705">
        <ele>432.100211</ele>
        <time>2021-10-18T12:28:20.000Z</time>
      </trkpt>
      <trkpt lat="43.60426" lon="2.34707">
        <ele>432.1998</ele>
        <time>2021-10-18T12:28:21.000Z</time>
      </trkpt>
      <trkpt lat="43.60425" lon="2.3471">
        <ele>432.310271</ele>
        <time>2021-10-18T12:28:22.000Z</time>
      </trkpt>
      <trkpt lat="43.60424" lon="2.34712">
        <ele>432.440228</ele>
        <time>2021-10-18T12:28:23.000Z</time>
      </trkpt>
      <trkpt lat="43.60423" lon="2.34715">
        <ele>432.574431</ele>
        <time>2021-10-18T12:28:24.000Z</time>
      </trkpt>
      <trkpt lat="43.60422" lon="2.34718">
        <ele>432.724107</ele>
        <time>2021-10-18T12:28:25.000Z</time>
      </trkpt>
      <trkpt lat="43.60421" lon="2.3472">
        <ele>432.8665</ele>
        <time>2021-10-18T12:28:26.000Z</time>
      </trkpt>
      <trkpt lat="43.6042" lon="2.34722">
        <ele>432.982036</ele>
        <time>2021-10-18T12:28:27.000Z</time>
      </trkpt>
      <trkpt lat="43.60418" lon="2.34724">
        <ele>433.105098</ele>
        <time>2021-10-18T12:28:28.000Z</time>
      </trkpt>
      <trkpt lat="43.60418" lon="2.34726">
        <ele>433.201975</ele>
        <time>2021-10-18T12:28:29.000Z</time>
      </trkpt>
      <trkpt lat="43.60417" lon="2.34728">
        <ele>433.288974</ele>
        <time>2021-10-18T12:28:30.000Z</time>
      </trkpt>
      <trkpt lat="43.60416" lon="2.3473">
        <ele>433.412387</ele>
        <time>2021-10-18T12:28:31.000Z</time>
      </trkpt>
      <trkpt lat="43.60415" lon="2.34732">
        <ele>433.509545</ele>
        <time>2021-10-18T12:28:32.000Z</time>
      </trkpt>
      <trkpt lat="43.60414" lon="2.34733">
        <ele>433.606703</ele>
        <time>2021-10-18T12:28:33.000Z</time>
      </trkpt>
      <trkpt lat="43.60413" lon="2.34736">
        <ele>433.737113</ele>
        <time>2021-10-18T12:28:34.000Z</time>
      </trkpt>
      <trkpt lat="43.60412" lon="2.34738">
        <ele>433.860101</ele>
        <time>2021-10-18T12:28:35.000Z</time>
      </trkpt>
      <trkpt lat="43.60411" lon="2.34741">
        <ele>433.990058</ele>
        <time>2021-10-18T12:28:36.000Z</time>
      </trkpt>
      <trkpt lat="43.6041" lon="2.34744">
        <ele>434.147722</ele>
        <time>2021-10-18T12:28:37.000Z</time>
      </trkpt>
      <trkpt lat="43.60409" lon="2.34746">
        <ele>434.286248</ele>
        <time>2021-10-18T12:28:38.000Z</time>
      </trkpt>
      <trkpt lat="43.60408" lon="2.34749">
        <ele>434.428764</ele>
        <time>2021-10-18T12:28:39.000Z</time>
      </trkpt>
      <trkpt lat="43.60407" lon="2.34752">
        <ele>434.562967</ele>
        <time>2021-10-18T12:28:40.000Z</time>
      </trkpt>
      <trkpt lat="43.60406" lon="2.34754">
        <ele>434.71357</ele>
        <time>2021-10-18T12:28:41.000Z</time>
      </trkpt>
      <trkpt lat="43.60405" lon="2.34758">
        <ele>434.871493</ele>
        <time>2021-10-18T12:28:42.000Z</time>
      </trkpt>
      <trkpt lat="43.60404" lon="2.34761">
        <ele>435.039563</ele>
        <time>2021-10-18T12:28:43.000Z</time>
      </trkpt>
      <trkpt lat="43.60403" lon="2.34763">
        <ele>435.171491</ele>
        <time>2021-10-18T12:28:44.000Z</time>
      </trkpt>
      <trkpt lat="43.60402" lon="2.34765">
        <ele>435.27108</ele>
        <time>2021-10-18T12:28:45.000Z</time>
      </trkpt>
      <trkpt lat="43.60402" lon="2.34767">
        <ele>435.358716</ele>
        <time>2021-10-18T12:28:46.000Z</time>
      </trkpt>
      <trkpt lat="43.60402" lon="2.34769">
        <ele>435.457184</ele>
        <time>2021-10-18T12:28:47.000Z</time>
      </trkpt>
      <trkpt lat="43.60402" lon="2.34771">
        <ele>435.544589</ele>
        <time>2021-10-18T12:28:48.000Z</time>
      </trkpt>
      <trkpt lat="43.60402" lon="2.34774">
        <ele>435.650586</ele>
        <time>2021-10-18T12:28:49.000Z</time>
      </trkpt>
      <trkpt lat="43.60401" lon="2.34776">
        <ele>435.777367</ele>
        <time>2021-10-18T12:28:50.000Z</time>
      </trkpt>
      <trkpt lat="43.60401" lon="2.34779">
        <ele>435.911378</ele>
        <time>2021-10-18T12:28:51.000Z</time>
      </trkpt>
      <trkpt lat="43.60401" lon="2.34782">
        <ele>436.058724</ele>
        <time>2021-10-18T12:28:52.000Z</time>
      </trkpt>
      <trkpt lat="43.60401" lon="2.34786">
        <ele>436.208111</ele>
        <time>2021-10-18T12:28:53.000Z</time>
      </trkpt>
      <trkpt lat="43.604" lon="2.34788">
        <ele>436.339401</ele>
        <time>2021-10-18T12:28:54.000Z</time>
      </trkpt>
      <trkpt lat="43.604" lon="2.34791">
        <ele>436.475208</ele>
        <time>2021-10-18T12:28:55.000Z</time>
      </trkpt>
      <trkpt lat="43.604" lon="2.34795">
        <ele>436.629129</ele>
        <time>2021-10-18T12:28:56.000Z</time>
      </trkpt>
      <trkpt lat="43.60399" lon="2.34798">
        <ele>436.782909</ele>
        <time>2021-10-18T12:28:57.000Z</time>
      </trkpt>
      <trkpt lat="43.60399" lon="2.34801">
        <ele>436.926785</ele>
        <time>2021-10-18T12:28:58.000Z</time>
      </trkpt>
      <trkpt lat="43.60398" lon="2.34804">
        <ele>437.078727</ele>
        <time>2021-10-18T12:28:59.000Z</time>
      </trkpt>
      <trkpt lat="43.60398" lon="2.34808">
        <ele>437.256401</ele>
        <time>2021-10-18T12:29:00.000Z</time>
      </trkpt>
      <trkpt lat="43.60397" lon="2.34813">
        <ele>437.471419</ele>
        <time>2021-10-18T12:29:01.000Z</time>
      </trkpt>
      <trkpt lat="43.60397" lon="2.34817">
        <ele>437.65083</ele>
        <time>2021-10-18T12:29:02.000Z</time>
      </trkpt>
      <trkpt lat="43.60397" lon="2.3482">
        <ele>437.798039</ele>
        <time>2021-10-18T12:29:03.000Z</time>
      </trkpt>
      <trkpt lat="43.60397" lon="2.34823">
        <ele>437.940648</ele>
        <time>2021-10-18T12:29:04.000Z</time>
      </trkpt>
      <trkpt lat="43.60397" lon="2.34826">
        <ele>438.087994</ele>
        <time>2021-10-18T12:29:05.000Z</time>
      </trkpt>
      <trkpt lat="43.60397" lon="2.34829">
        <ele>438.231168</ele>
        <time>2021-10-18T12:29:06.000Z</time>
      </trkpt>
      <trkpt lat="43.60397" lon="2.34832">
        <ele>438.382491</ele>
        <time>2021-10-18T12:29:07.000Z</time>
      </trkpt>
      <trkpt lat="43.60397" lon="2.34836">
        <ele>438.573013</ele>
        <time>2021-10-18T12:29:08.000Z</time>
      </trkpt>
      <trkpt lat="43.60396" lon="2.34839">
        <ele>438.758077</ele>
        <time>2021-10-18T12:29:09.000Z</time>
      </trkpt>
      <trkpt lat="43.60396" lon="2.34842">
        <ele>438.925583</ele>
        <time>2021-10-18T12:29:10.000Z</time>
      </trkpt>
      <trkpt lat="43.60396" lon="2.34845">
        <ele>439.086165</ele>
        <time>2021-10-18T12:29:11.000Z</time>
      </trkpt>
      <trkpt lat="43.60395" lon="2.34848">
        <ele>439.248194</ele>
        <time>2021-10-18T12:29:12.000Z</time>
      </trkpt>
      <trkpt lat="43.60395" lon="2.34851">
        <ele>439.414126</ele>
        <time>2021-10-18T12:29:13.000Z</time>
      </trkpt>
      <trkpt lat="43.60395" lon="2.34854">
        <ele>439.585588</ele>
        <time>2021-10-18T12:29:14.000Z</time>
      </trkpt>
      <trkpt lat="43.60395" lon="2.34857">
        <ele>439.768113</ele>
        <time>2021-10-18T12:29:15.000Z</time>
      </trkpt>
      <trkpt lat="43.60395" lon="2.3486">
        <ele>439.945107</ele>
        <time>2021-10-18T12:29:16.000Z</time>
      </trkpt>
      <trkpt lat="43.60395" lon="2.34863">
        <ele>440.111038</ele>
        <time>2021-10-18T12:29:17.000Z</time>
      </trkpt>
      <trkpt lat="43.60395" lon="2.34867">
        <ele>440.304625</ele>
        <time>2021-10-18T12:29:18.000Z</time>
      </trkpt>
      <trkpt lat="43.60395" lon="2.34871">
        <ele>440.509274</ele>
        <time>2021-10-18T12:29:19.000Z</time>
      </trkpt>
      <trkpt lat="43.60395" lon="2.34874">
        <ele>440.714065</ele>
        <time>2021-10-18T12:29:20.000Z</time>
      </trkpt>
      <trkpt lat="43.60395" lon="2.34878">
        <ele>440.897228</ele>
        <time>2021-10-18T12:29:21.000Z</time>
      </trkpt>
      <trkpt lat="43.60395" lon="2.34881">
        <ele>441.074222</ele>
        <time>2021-10-18T12:29:22.000Z</time>
      </trkpt>
      <trkpt lat="43.60395" lon="2.34885">
        <ele>441.27887</ele>
        <time>2021-10-18T12:29:23.000Z</time>
      </trkpt>
      <trkpt lat="43.60396" lon="2.34888">
        <ele>441.469392</ele>
        <time>2021-10-18T12:29:24.000Z</time>
      </trkpt>
      <trkpt lat="43.60396" lon="2.34891">
        <ele>441.642379</ele>
        <time>2021-10-18T12:29:25.000Z</time>
      </trkpt>
      <trkpt lat="43.60396" lon="2.34894">
        <ele>441.814012</ele>
        <time>2021-10-18T12:29:26.000Z</time>
      </trkpt>
      <trkpt lat="43.60396" lon="2.34898">
        <ele>442.004533</ele>
        <time>2021-10-18T12:29:27.000Z</time>
      </trkpt>
      <trkpt lat="43.60397" lon="2.34901">
        <ele>442.19398</ele>
        <time>2021-10-18T12:29:28.000Z</time>
      </trkpt>
      <trkpt lat="43.60397" lon="2.34905">
        <ele>442.409691</ele>
        <time>2021-10-18T12:29:29.000Z</time>
      </trkpt>
      <trkpt lat="43.60397" lon="2.34909">
        <ele>442.625537</ele>
        <time>2021-10-18T12:29:30.000Z</time>
      </trkpt>
      <trkpt lat="43.60397" lon="2.34912">
        <ele>442.831464</ele>
        <time>2021-10-18T12:29:31.000Z</time>
      </trkpt>
      <trkpt lat="43.60397" lon="2.34916">
        <ele>443.038381</ele>
        <time>2021-10-18T12:29:32.000Z</time>
      </trkpt>
      <trkpt lat="43.60398" lon="2.3492">
        <ele>443.25077</ele>
        <time>2021-10-18T12:29:33.000Z</time>
      </trkpt>
      <trkpt lat="43.60398" lon="2.34924">
        <ele>443.464392</ele>
        <time>2021-10-18T12:29:34.000Z</time>
      </trkpt>
      <trkpt lat="43.60399" lon="2.34927">
        <ele>443.677969</ele>
        <time>2021-10-18T12:29:35.000Z</time>
      </trkpt>
      <trkpt lat="43.604" lon="2.34931">
        <ele>443.87301</ele>
        <time>2021-10-18T12:29:36.000Z</time>
      </trkpt>
      <trkpt lat="43.60402" lon="2.34933">
        <ele>444.030641</ele>
        <time>2021-10-18T12:29:37.000Z</time>
      </trkpt>
      <trkpt lat="43.60404" lon="2.34933">
        <ele>444.17838</ele>
        <time>2021-10-18T12:29:38.000Z</time>
      </trkpt>
      <trkpt lat="43.60405" lon="2.34932">
        <ele>444.32421</ele>
        <time>2021-10-18T12:29:39.000Z</time>
      </trkpt>
      <trkpt lat="43.60406" lon="2.34929">
        <ele>444.486012</ele>
        <time>2021-10-18T12:29:40.000Z</time>
      </trkpt>
      <trkpt lat="43.60407" lon="2.34926">
        <ele>444.660344</ele>
        <time>2021-10-18T12:29:41.000Z</time>
      </trkpt>
      <trkpt lat="43.60407" lon="2.34923">
        <ele>444.845408</ele>
        <time>2021-10-18T12:29:42.000Z</time>
      </trkpt>
      <trkpt lat="43.60408" lon="2.34919">
        <ele>445.055126</ele>
        <time>2021-10-18T12:29:43.000Z</time>
      </trkpt>
      <trkpt lat="43.60408" lon="2.34916">
        <ele>445.260343</ele>
        <time>2021-10-18T12:29:44.000Z</time>
      </trkpt>
      <trkpt lat="43.60409" lon="2.34912">
        <ele>445.463345</ele>
        <time>2021-10-18T12:29:45.000Z</time>
      </trkpt>
      <trkpt lat="43.6041" lon="2.34909">
        <ele>445.671628</ele>
        <time>2021-10-18T12:29:46.000Z</time>
      </trkpt>
      <trkpt lat="43.60411" lon="2.34905">
        <ele>445.906004</ele>
        <time>2021-10-18T12:29:47.000Z</time>
      </trkpt>
      <trkpt lat="43.60412" lon="2.34901">
        <ele>446.147841</ele>
        <time>2021-10-18T12:29:48.000Z</time>
      </trkpt>
      <trkpt lat="43.60413" lon="2.34896">
        <ele>446.400477</ele>
        <time>2021-10-18T12:29:49.000Z</time>
      </trkpt>
      <trkpt lat="43.60415" lon="2.34892">
        <ele>446.674387</ele>
        <time>2021-10-18T12:29:50.000Z</time>
      </trkpt>
      <trkpt lat="43.60417" lon="2.34888">
        <ele>446.93898</ele>
        <time>2021-10-18T12:29:51.000Z</time>
      </trkpt>
      <trkpt lat="43.60419" lon="2.34884">
        <ele>447.199</ele>
        <time>2021-10-18T12:29:52.000Z</time>
      </trkpt>
      <trkpt lat="43.60421" lon="2.3488">
        <ele>447.472271</ele>
        <time>2021-10-18T12:29:53.000Z</time>
      </trkpt>
      <trkpt lat="43.60423" lon="2.34877">
        <ele>447.727686</ele>
        <time>2021-10-18T12:29:54.000Z</time>
      </trkpt>
      <trkpt lat="43.60425" lon="2.34873">
        <ele>447.987672</ele>
        <time>2021-10-18T12:29:55.000Z</time>
      </trkpt>
      <trkpt lat="43.60427" lon="2.34869">
        <ele>448.234064</ele>
        <time>2021-10-18T12:29:56.000Z</time>
      </trkpt>
      <trkpt lat="43.60429" lon="2.34865">
        <ele>448.477192</ele>
        <time>2021-10-18T12:29:57.000Z</time>
      </trkpt>
      <trkpt lat="43.60431" lon="2.34861">
        <ele>448.732992</ele>
        <time>2021-10-18T12:29:58.000Z</time>
      </trkpt>
      <trkpt lat="43.60432" lon="2.34858">
        <ele>448.96753</ele>
        <time>2021-10-18T12:29:59.000Z</time>
      </trkpt>
      <trkpt lat="43.60434" lon="2.34854">
        <ele>449.200632</ele>
        <time>2021-10-18T12:30:00.000Z</time>
      </trkpt>
      <trkpt lat="43.60436" lon="2.34851">
        <ele>449.43679</ele>
        <time>2021-10-18T12:30:01.000Z</time>
      </trkpt>
      <trkpt lat="43.60438" lon="2.34849">
        <ele>449.622211</ele>
        <time>2021-10-18T12:30:02.000Z</time>
      </trkpt>
      <trkpt lat="43.6044" lon="2.34849">
        <ele>449.799279</ele>
        <time>2021-10-18T12:30:03.000Z</time>
      </trkpt>
      <trkpt lat="43.60442" lon="2.34851">
        <ele>449.982475</ele>
        <time>2021-10-18T12:30:04.000Z</time>
      </trkpt>
      <trkpt lat="43.60444" lon="2.34853">
        <ele>450.166443</ele>
        <time>2021-10-18T12:30:05.000Z</time>
      </trkpt>
      <trkpt lat="43.60444" lon="2.34857">
        <ele>450.360179</ele>
        <time>2021-10-18T12:30:06.000Z</time>
      </trkpt>
      <trkpt lat="43.60443" lon="2.34861">
        <ele>450.591853</ele>
        <time>2021-10-18T12:30:07.000Z</time>
      </trkpt>
      <trkpt lat="43.60442" lon="2.34865">
        <ele>450.828511</ele>
        <time>2021-10-18T12:30:08.000Z</time>
      </trkpt>
      <trkpt lat="43.60441" lon="2.34869">
        <ele>451.0678</ele>
        <time>2021-10-18T12:30:09.000Z</time>
      </trkpt>
      <trkpt lat="43.6044" lon="2.34873">
        <ele>451.279224</ele>
        <time>2021-10-18T12:30:10.000Z</time>
      </trkpt>
      <trkpt lat="43.6044" lon="2.34876">
        <ele>451.47834</ele>
        <time>2021-10-18T12:30:11.000Z</time>
      </trkpt>
      <trkpt lat="43.6044" lon="2.3488">
        <ele>451.688519</ele>
        <time>2021-10-18T12:30:12.000Z</time>
      </trkpt>
      <trkpt lat="43.6044" lon="2.34884">
        <ele>451.927454</ele>
        <time>2021-10-18T12:30:13.000Z</time>
      </trkpt>
      <trkpt lat="43.6044" lon="2.34889">
        <ele>452.169136</ele>
        <time>2021-10-18T12:30:14.000Z</time>
      </trkpt>
      <trkpt lat="43.60441" lon="2.34893">
        <ele>452.387008</ele>
        <time>2021-10-18T12:30:15.000Z</time>
      </trkpt>
      <trkpt lat="43.60441" lon="2.34897">
        <ele>452.593346</ele>
        <time>2021-10-18T12:30:16.000Z</time>
      </trkpt>
      <trkpt lat="43.60442" lon="2.349">
        <ele>452.789861</ele>
        <time>2021-10-18T12:30:17.000Z</time>
      </trkpt>
      <trkpt lat="43.60442" lon="2.34904">
        <ele>453.006839</ele>
        <time>2021-10-18T12:30:18.000Z</time>
      </trkpt>
      <trkpt lat="43.60442" lon="2.34908">
        <ele>453.228058</ele>
        <time>2021-10-18T12:30:19.000Z</time>
      </trkpt>
      <trkpt lat="43.60442" lon="2.34912">
        <ele>453.44401</ele>
        <time>2021-10-18T12:30:20.000Z</time>
      </trkpt>
      <trkpt lat="43.60442" lon="2.34916">
        <ele>453.655622</ele>
        <time>2021-10-18T12:30:21.000Z</time>
      </trkpt>
      <trkpt lat="43.60443" lon="2.3492">
        <ele>453.869322</ele>
        <time>2021-10-18T12:30:22.000Z</time>
      </trkpt>
      <trkpt lat="43.60444" lon="2.34924">
        <ele>454.101862</ele>
        <time>2021-10-18T12:30:23.000Z</time>
      </trkpt>
      <trkpt lat="43.60444" lon="2.34928">
        <ele>454.319733</ele>
        <time>2021-10-18T12:30:24.000Z</time>
      </trkpt>
      <trkpt lat="43.60444" lon="2.34932">
        <ele>454.526921</ele>
        <time>2021-10-18T12:30:25.000Z</time>
      </trkpt>
      <trkpt lat="43.60445" lon="2.34936">
        <ele>454.724951</ele>
        <time>2021-10-18T12:30:26.000Z</time>
      </trkpt>
      <trkpt lat="43.60446" lon="2.34939">
        <ele>454.922981</ele>
        <time>2021-10-18T12:30:27.000Z</time>
      </trkpt>
      <trkpt lat="43.60447" lon="2.34942">
        <ele>455.125679</ele>
        <time>2021-10-18T12:30:28.000Z</time>
      </trkpt>
      <trkpt lat="43.60449" lon="2.34945">
        <ele>455.30978</ele>
        <time>2021-10-18T12:30:29.000Z</time>
      </trkpt>
      <trkpt lat="43.60451" lon="2.34946">
        <ele>455.467777</ele>
        <time>2021-10-18T12:30:30.000Z</time>
      </trkpt>
      <trkpt lat="43.60453" lon="2.34946">
        <ele>455.609762</ele>
        <time>2021-10-18T12:30:31.000Z</time>
      </trkpt>
      <trkpt lat="43.60454" lon="2.34945">
        <ele>455.760081</ele>
        <time>2021-10-18T12:30:32.000Z</time>
      </trkpt>
      <trkpt lat="43.60455" lon="2.34942">
        <ele>455.907554</ele>
        <time>2021-10-18T12:30:33.000Z</time>
      </trkpt>
      <trkpt lat="43.60456" lon="2.34939">
        <ele>456.092476</ele>
        <time>2021-10-18T12:30:34.000Z</time>
      </trkpt>
      <trkpt lat="43.60458" lon="2.34936">
        <ele>456.288489</ele>
        <time>2021-10-18T12:30:35.000Z</time>
      </trkpt>
      <trkpt lat="43.60459" lon="2.34932">
        <ele>456.499315</ele>
        <time>2021-10-18T12:30:36.000Z</time>
      </trkpt>
      <trkpt lat="43.6046" lon="2.34929">
        <ele>456.698559</ele>
        <time>2021-10-18T12:30:37.000Z</time>
      </trkpt>
      <trkpt lat="43.60461" lon="2.34926">
        <ele>456.887197</ele>
        <time>2021-10-18T12:30:38.000Z</time>
      </trkpt>
      <trkpt lat="43.60463" lon="2.34923">
        <ele>457.106331</ele>
        <time>2021-10-18T12:30:39.000Z</time>
      </trkpt>
      <trkpt lat="43.60465" lon="2.3492">
        <ele>457.317344</ele>
        <time>2021-10-18T12:30:40.000Z</time>
      </trkpt>
      <trkpt lat="43.60467" lon="2.34917">
        <ele>457.533426</ele>
        <time>2021-10-18T12:30:41.000Z</time>
      </trkpt>
      <trkpt lat="43.60469" lon="2.34914">
        <ele>457.756353</ele>
        <time>2021-10-18T12:30:42.000Z</time>
      </trkpt>
      <trkpt lat="43.60471" lon="2.34912">
        <ele>457.948216</ele>
        <time>2021-10-18T12:30:43.000Z</time>
      </trkpt>
      <trkpt lat="43.60473" lon="2.3491">
        <ele>458.135424</ele>
        <time>2021-10-18T12:30:44.000Z</time>
      </trkpt>
      <trkpt lat="43.60475" lon="2.34907">
        <ele>458.351183</ele>
        <time>2021-10-18T12:30:45.000Z</time>
      </trkpt>
      <trkpt lat="43.60477" lon="2.34904">
        <ele>458.554323</ele>
        <time>2021-10-18T12:30:46.000Z</time>
      </trkpt>
      <trkpt lat="43.60479" lon="2.34902">
        <ele>458.739075</ele>
        <time>2021-10-18T12:30:47.000Z</time>
      </trkpt>
      <trkpt lat="43.60481" lon="2.349">
        <ele>458.933005</ele>
        <time>2021-10-18T12:30:48.000Z</time>
      </trkpt>
      <trkpt lat="43.60483" lon="2.34897">
        <ele>459.147805</ele>
        <time>2021-10-18T12:30:49.000Z</time>
      </trkpt>
      <trkpt lat="43.60486" lon="2.34895">
        <ele>459.362605</ele>
        <time>2021-10-18T12:30:50.000Z</time>
      </trkpt>
      <trkpt lat="43.60488" lon="2.34893">
        <ele>459.605358</ele>
        <time>2021-10-18T12:30:51.000Z</time>
      </trkpt>
      <trkpt lat="43.60491" lon="2.34891">
        <ele>459.817984</ele>
        <time>2021-10-18T12:30:52.000Z</time>
      </trkpt>
      <trkpt lat="43.60493" lon="2.34889">
        <ele>460.020507</ele>
        <time>2021-10-18T12:30:53.000Z</time>
      </trkpt>
      <trkpt lat="43.60495" lon="2.34887">
        <ele>460.201839</ele>
        <time>2021-10-18T12:30:54.000Z</time>
      </trkpt>
      <trkpt lat="43.60497" lon="2.34885">
        <ele>460.38272</ele>
        <time>2021-10-18T12:30:55.000Z</time>
      </trkpt>
      <trkpt lat="43.60499" lon="2.34883">
        <ele>460.573257</ele>
        <time>2021-10-18T12:30:56.000Z</time>
      </trkpt>
      <trkpt lat="43.60502" lon="2.34881">
        <ele>460.778705</ele>
        <time>2021-10-18T12:30:57.000Z</time>
      </trkpt>
      <trkpt lat="43.60504" lon="2.34879">
        <ele>460.981097</ele>
        <time>2021-10-18T12:30:58.000Z</time>
      </trkpt>
      <trkpt lat="43.60506" lon="2.34876">
        <ele>461.17518</ele>
        <time>2021-10-18T12:30:59.000Z</time>
      </trkpt>
      <trkpt lat="43.60507" lon="2.34874">
        <ele>461.310689</ele>
        <time>2021-10-18T12:31:00.000Z</time>
      </trkpt>
      <trkpt lat="43.60508" lon="2.34872">
        <ele>461.44672</ele>
        <time>2021-10-18T12:31:01.000Z</time>
      </trkpt>
      <trkpt lat="43.6051" lon="2.3487">
        <ele>461.606338</ele>
        <time>2021-10-18T12:31:02.000Z</time>
      </trkpt>
      <trkpt lat="43.60512" lon="2.34869">
        <ele>461.778561</ele>
        <time>2021-10-18T12:31:03.000Z</time>
      </trkpt>
      <trkpt lat="43.60514" lon="2.34868">
        <ele>461.937346</ele>
        <time>2021-10-18T12:31:04.000Z</time>
      </trkpt>
      <trkpt lat="43.60515" lon="2.34869">
        <ele>462.04222</ele>
        <time>2021-10-18T12:31:05.000Z</time>
      </trkpt>
      <trkpt lat="43.60516" lon="2.34869">
        <ele>462.123461</ele>
        <time>2021-10-18T12:31:06.000Z</time>
      </trkpt>
      <trkpt lat="43.60517" lon="2.3487">
        <ele>462.179909</ele>
        <time>2021-10-18T12:31:07.000Z</time>
      </trkpt>
      <trkpt lat="43.60517" lon="2.34869">
        <ele>462.207508</ele>
        <time>2021-10-18T12:31:08.000Z</time>
      </trkpt>
      <trkpt lat="43.60517" lon="2.34869">
        <ele>462.22909</ele>
        <time>2021-10-18T12:31:09.000Z</time>
      </trkpt>
      <trkpt lat="43.60519" lon="2.34868">
        <ele>462.358257</ele>
        <time>2021-10-18T12:31:16.000Z</time>
      </trkpt>
      <trkpt lat="43.60519" lon="2.34867">
        <ele>462.401422</ele>
        <time>2021-10-18T12:31:17.000Z</time>
      </trkpt>
      <trkpt lat="43.60519" lon="2.34866">
        <ele>462.449981</ele>
        <time>2021-10-18T12:31:18.000Z</time>
      </trkpt>
      <trkpt lat="43.60519" lon="2.34866">
        <ele>462.463095</ele>
        <time>2021-10-18T12:31:19.000Z</time>
      </trkpt>
      <trkpt lat="43.60518" lon="2.34866">
        <ele>462.522705</ele>
        <time>2021-10-18T12:31:20.000Z</time>
      </trkpt>
      <trkpt lat="43.60517" lon="2.34866">
        <ele>462.570252</ele>
        <time>2021-10-18T12:31:21.000Z</time>
      </trkpt>
      <trkpt lat="43.60517" lon="2.34866">
        <ele>462.579452</ele>
        <time>2021-10-18T12:31:22.000Z</time>
      </trkpt>
      <trkpt lat="43.60517" lon="2.34866">
        <ele>462.61625</ele>
        <time>2021-10-18T12:31:23.000Z</time>
      </trkpt>
      <trkpt lat="43.60516" lon="2.34867">
        <ele>462.680648</ele>
        <time>2021-10-18T12:31:24.000Z</time>
      </trkpt>
      <trkpt lat="43.60516" lon="2.34868">
        <ele>462.716286</ele>
        <time>2021-10-18T12:31:25.000Z</time>
      </trkpt>
      <trkpt lat="43.60516" lon="2.34868">
        <ele>462.746575</ele>
        <time>2021-10-18T12:31:26.000Z</time>
      </trkpt>
      <trkpt lat="43.60517" lon="2.34866">
        <ele>462.833985</ele>
        <time>2021-10-18T12:31:27.000Z</time>
      </trkpt>
      <trkpt lat="43.60518" lon="2.34865">
        <ele>462.92578</ele>
        <time>2021-10-18T12:31:28.000Z</time>
      </trkpt>
      <trkpt lat="43.60519" lon="2.34866">
        <ele>463.019176</ele>
        <time>2021-10-18T12:31:29.000Z</time>
      </trkpt>
      <trkpt lat="43.60519" lon="2.34869">
        <ele>463.218494</ele>
        <time>2021-10-18T12:31:30.000Z</time>
      </trkpt>
      <trkpt lat="43.60518" lon="2.34872">
        <ele>463.385648</ele>
        <time>2021-10-18T12:31:31.000Z</time>
      </trkpt>
      <trkpt lat="43.60521" lon="2.34873">
        <ele>463.579776</ele>
        <time>2021-10-18T12:31:32.000Z</time>
      </trkpt>
      <trkpt lat="43.60522" lon="2.34874">
        <ele>463.69959</ele>
        <time>2021-10-18T12:31:33.000Z</time>
      </trkpt>
      <trkpt lat="43.60522" lon="2.34874">
        <ele>463.725818</ele>
        <time>2021-10-18T12:31:34.000Z</time>
      </trkpt>
      <trkpt lat="43.60523" lon="2.34874">
        <ele>463.784343</ele>
        <time>2021-10-18T12:31:35.000Z</time>
      </trkpt>
      <trkpt lat="43.60524" lon="2.34879">
        <ele>464.069717</ele>
        <time>2021-10-18T12:31:44.000Z</time>
      </trkpt>
      <trkpt lat="43.60523" lon="2.34881">
        <ele>464.173309</ele>
        <time>2021-10-18T12:31:45.000Z</time>
      </trkpt>
      <trkpt lat="43.60523" lon="2.34883">
        <ele>464.290114</ele>
        <time>2021-10-18T12:31:46.000Z</time>
      </trkpt>
      <trkpt lat="43.60522" lon="2.34885">
        <ele>464.409388</ele>
        <time>2021-10-18T12:31:47.000Z</time>
      </trkpt>
      <trkpt lat="43.60522" lon="2.34887">
        <ele>464.554009</ele>
        <time>2021-10-18T12:31:48.000Z</time>
      </trkpt>
      <trkpt lat="43.60521" lon="2.3489">
        <ele>464.707995</ele>
        <time>2021-10-18T12:31:49.000Z</time>
      </trkpt>
      <trkpt lat="43.60521" lon="2.34893">
        <ele>464.846137</ele>
        <time>2021-10-18T12:31:50.000Z</time>
      </trkpt>
      <trkpt lat="43.60521" lon="2.34895">
        <ele>464.977545</ele>
        <time>2021-10-18T12:31:51.000Z</time>
      </trkpt>
      <trkpt lat="43.6052" lon="2.34898">
        <ele>465.118617</ele>
        <time>2021-10-18T12:31:52.000Z</time>
      </trkpt>
      <trkpt lat="43.60521" lon="2.349">
        <ele>465.255345</ele>
        <time>2021-10-18T12:31:53.000Z</time>
      </trkpt>
      <trkpt lat="43.60521" lon="2.34903">
        <ele>465.408064</ele>
        <time>2021-10-18T12:31:54.000Z</time>
      </trkpt>
      <trkpt lat="43.60521" lon="2.34906">
        <ele>465.538353</ele>
        <time>2021-10-18T12:31:55.000Z</time>
      </trkpt>
      <trkpt lat="43.60521" lon="2.34909">
        <ele>465.626826</ele>
        <time>2021-10-18T12:31:56.000Z</time>
      </trkpt>
      <trkpt lat="43.60521" lon="2.34913">
        <ele>465.715382</ele>
        <time>2021-10-18T12:31:57.000Z</time>
      </trkpt>
      <trkpt lat="43.60521" lon="2.34916">
        <ele>465.799114</ele>
        <time>2021-10-18T12:31:58.000Z</time>
      </trkpt>
      <trkpt lat="43.60522" lon="2.34918">
        <ele>465.874153</ele>
        <time>2021-10-18T12:31:59.000Z</time>
      </trkpt>
      <trkpt lat="43.60522" lon="2.34921">
        <ele>465.953443</ele>
        <time>2021-10-18T12:32:00.000Z</time>
      </trkpt>
      <trkpt lat="43.60523" lon="2.34924">
        <ele>466.0317</ele>
        <time>2021-10-18T12:32:01.000Z</time>
      </trkpt>
      <trkpt lat="43.60523" lon="2.34927">
        <ele>466.111879</ele>
        <time>2021-10-18T12:32:02.000Z</time>
      </trkpt>
      <trkpt lat="43.60522" lon="2.34929">
        <ele>466.178344</ele>
        <time>2021-10-18T12:32:03.000Z</time>
      </trkpt>
      <trkpt lat="43.60522" lon="2.34931">
        <ele>466.243743</ele>
        <time>2021-10-18T12:32:04.000Z</time>
      </trkpt>
      <trkpt lat="43.60522" lon="2.34934">
        <ele>466.328081</ele>
        <time>2021-10-18T12:32:05.000Z</time>
      </trkpt>
      <trkpt lat="43.60521" lon="2.34938">
        <ele>466.42278</ele>
        <time>2021-10-18T12:32:06.000Z</time>
      </trkpt>
      <trkpt lat="43.60521" lon="2.34941">
        <ele>466.525078</ele>
        <time>2021-10-18T12:32:07.000Z</time>
      </trkpt>
      <trkpt lat="43.60521" lon="2.34945">
        <ele>466.627446</ele>
        <time>2021-10-18T12:32:08.000Z</time>
      </trkpt>
      <trkpt lat="43.60521" lon="2.34948">
        <ele>466.714505</ele>
        <time>2021-10-18T12:32:09.000Z</time>
      </trkpt>
      <trkpt lat="43.60521" lon="2.34951">
        <ele>466.795499</ele>
        <time>2021-10-18T12:32:10.000Z</time>
      </trkpt>
      <trkpt lat="43.6052" lon="2.34954">
        <ele>466.871022</ele>
        <time>2021-10-18T12:32:11.000Z</time>
      </trkpt>
      <trkpt lat="43.6052" lon="2.34956">
        <ele>466.937377</ele>
        <time>2021-10-18T12:32:12.000Z</time>
      </trkpt>
      <trkpt lat="43.6052" lon="2.34959">
        <ele>467.006603</ele>
        <time>2021-10-18T12:32:13.000Z</time>
      </trkpt>
      <trkpt lat="43.6052" lon="2.34961">
        <ele>467.068497</ele>
        <time>2021-10-18T12:32:14.000Z</time>
      </trkpt>
      <trkpt lat="43.6052" lon="2.34963">
        <ele>467.137723</ele>
        <time>2021-10-18T12:32:15.000Z</time>
      </trkpt>
      <trkpt lat="43.6052" lon="2.34966">
        <ele>467.210514</ele>
        <time>2021-10-18T12:32:16.000Z</time>
      </trkpt>
      <trkpt lat="43.6052" lon="2.34968">
        <ele>467.274219</ele>
        <time>2021-10-18T12:32:17.000Z</time>
      </trkpt>
      <trkpt lat="43.60521" lon="2.3497">
        <ele>467.330689</ele>
        <time>2021-10-18T12:32:18.000Z</time>
      </trkpt>
      <trkpt lat="43.60521" lon="2.34973">
        <ele>467.393403</ele>
        <time>2021-10-18T12:32:19.000Z</time>
      </trkpt>
      <trkpt lat="43.60521" lon="2.34975">
        <ele>467.469599</ele>
        <time>2021-10-18T12:32:20.000Z</time>
      </trkpt>
      <trkpt lat="43.60522" lon="2.34978">
        <ele>467.547856</ele>
        <time>2021-10-18T12:32:21.000Z</time>
      </trkpt>
      <trkpt lat="43.60522" lon="2.34981">
        <ele>467.625365</ele>
        <time>2021-10-18T12:32:22.000Z</time>
      </trkpt>
      <trkpt lat="43.60521" lon="2.34984">
        <ele>467.703622</ele>
        <time>2021-10-18T12:32:23.000Z</time>
      </trkpt>
      <trkpt lat="43.60521" lon="2.34986">
        <ele>467.775608</ele>
        <time>2021-10-18T12:32:24.000Z</time>
      </trkpt>
      <trkpt lat="43.60522" lon="2.34989">
        <ele>467.854515</ele>
        <time>2021-10-18T12:32:25.000Z</time>
      </trkpt>
      <trkpt lat="43.60522" lon="2.34992">
        <ele>467.930038</ele>
        <time>2021-10-18T12:32:26.000Z</time>
      </trkpt>
      <trkpt lat="43.60522" lon="2.34995">
        <ele>468.015747</ele>
        <time>2021-10-18T12:32:27.000Z</time>
      </trkpt>
      <trkpt lat="43.60522" lon="2.34998">
        <ele>468.101456</ele>
        <time>2021-10-18T12:32:28.000Z</time>
      </trkpt>
      <trkpt lat="43.60522" lon="2.35001">
        <ele>468.190012</ele>
        <time>2021-10-18T12:32:29.000Z</time>
      </trkpt>
      <trkpt lat="43.60522" lon="2.35004">
        <ele>468.281966</ele>
        <time>2021-10-18T12:32:30.000Z</time>
      </trkpt>
      <trkpt lat="43.60522" lon="2.35007">
        <ele>468.362145</ele>
        <time>2021-10-18T12:32:31.000Z</time>
      </trkpt>
      <trkpt lat="43.60522" lon="2.3501">
        <ele>468.436795</ele>
        <time>2021-10-18T12:32:32.000Z</time>
      </trkpt>
      <trkpt lat="43.60522" lon="2.35012">
        <ele>468.497621</ele>
        <time>2021-10-18T12:32:33.000Z</time>
      </trkpt>
      <trkpt lat="43.60522" lon="2.35015">
        <ele>468.561326</ele>
        <time>2021-10-18T12:32:34.000Z</time>
      </trkpt>
      <trkpt lat="43.60521" lon="2.35017">
        <ele>468.639583</ele>
        <time>2021-10-18T12:32:35.000Z</time>
      </trkpt>
      <trkpt lat="43.60521" lon="2.3502">
        <ele>468.717091</ele>
        <time>2021-10-18T12:32:36.000Z</time>
      </trkpt>
      <trkpt lat="43.60521" lon="2.35023">
        <ele>468.787879</ele>
        <time>2021-10-18T12:32:37.000Z</time>
      </trkpt>
      <trkpt lat="43.60521" lon="2.35025">
        <ele>468.86067</ele>
        <time>2021-10-18T12:32:38.000Z</time>
      </trkpt>
      <trkpt lat="43.6052" lon="2.35028">
        <ele>468.936866</ele>
        <time>2021-10-18T12:32:39.000Z</time>
      </trkpt>
      <trkpt lat="43.6052" lon="2.3503">
        <ele>469.007653</ele>
        <time>2021-10-18T12:32:40.000Z</time>
      </trkpt>
      <trkpt lat="43.60519" lon="2.35033">
        <ele>469.083849</ele>
        <time>2021-10-18T12:32:41.000Z</time>
      </trkpt>
      <trkpt lat="43.60519" lon="2.35036">
        <ele>469.176357</ele>
        <time>2021-10-18T12:32:42.000Z</time>
      </trkpt>
      <trkpt lat="43.60519" lon="2.3504">
        <ele>469.265569</ele>
        <time>2021-10-18T12:32:43.000Z</time>
      </trkpt>
      <trkpt lat="43.60518" lon="2.35043">
        <ele>469.352628</ele>
        <time>2021-10-18T12:32:44.000Z</time>
      </trkpt>
      <trkpt lat="43.60518" lon="2.35046">
        <ele>469.434249</ele>
        <time>2021-10-18T12:32:45.000Z</time>
      </trkpt>
      <trkpt lat="43.60517" lon="2.35048">
        <ele>469.505957</ele>
        <time>2021-10-18T12:32:46.000Z</time>
      </trkpt>
      <trkpt lat="43.60517" lon="2.35051">
        <ele>469.602173</ele>
        <time>2021-10-18T12:32:47.000Z</time>
      </trkpt>
      <trkpt lat="43.60515" lon="2.35055">
        <ele>469.705133</ele>
        <time>2021-10-18T12:32:48.000Z</time>
      </trkpt>
      <trkpt lat="43.60515" lon="2.35058">
        <ele>469.796122</ele>
        <time>2021-10-18T12:32:49.000Z</time>
      </trkpt>
      <trkpt lat="43.60514" lon="2.35061">
        <ele>469.886636</ele>
        <time>2021-10-18T12:32:50.000Z</time>
      </trkpt>
      <trkpt lat="43.60513" lon="2.35063">
        <ele>469.964741</ele>
        <time>2021-10-18T12:32:51.000Z</time>
      </trkpt>
      <trkpt lat="43.60512" lon="2.35066">
        <ele>470.038849</ele>
        <time>2021-10-18T12:32:52.000Z</time>
      </trkpt>
      <trkpt lat="43.60511" lon="2.35069">
        <ele>470.116954</ele>
        <time>2021-10-18T12:32:53.000Z</time>
      </trkpt>
      <trkpt lat="43.60511" lon="2.35071">
        <ele>470.196245</ele>
        <time>2021-10-18T12:32:54.000Z</time>
      </trkpt>
      <trkpt lat="43.6051" lon="2.35074">
        <ele>470.276902</ele>
        <time>2021-10-18T12:32:55.000Z</time>
      </trkpt>
      <trkpt lat="43.60509" lon="2.35077">
        <ele>470.364135</ele>
        <time>2021-10-18T12:32:56.000Z</time>
      </trkpt>
      <trkpt lat="43.60508" lon="2.35079">
        <ele>470.445531</ele>
        <time>2021-10-18T12:32:57.000Z</time>
      </trkpt>
      <trkpt lat="43.60507" lon="2.35082">
        <ele>470.5211</ele>
        <time>2021-10-18T12:32:58.000Z</time>
      </trkpt>
      <trkpt lat="43.60506" lon="2.35085">
        <ele>470.597793</ele>
        <time>2021-10-18T12:32:59.000Z</time>
      </trkpt>
      <trkpt lat="43.60506" lon="2.35087">
        <ele>470.665858</ele>
        <time>2021-10-18T12:33:00.000Z</time>
      </trkpt>
      <trkpt lat="43.60505" lon="2.35088">
        <ele>470.714038</ele>
        <time>2021-10-18T12:33:01.000Z</time>
      </trkpt>
      <trkpt lat="43.60504" lon="2.35092">
        <ele>470.81448</ele>
        <time>2021-10-18T12:33:02.000Z</time>
      </trkpt>
      <trkpt lat="43.60503" lon="2.35095">
        <ele>470.909238</ele>
        <time>2021-10-18T12:33:03.000Z</time>
      </trkpt>
      <trkpt lat="43.60502" lon="2.35098">
        <ele>471.000549</ele>
        <time>2021-10-18T12:33:04.000Z</time>
      </trkpt>
      <trkpt lat="43.60501" lon="2.35101">
        <ele>471.091538</ele>
        <time>2021-10-18T12:33:05.000Z</time>
      </trkpt>
      <trkpt lat="43.605" lon="2.35104">
        <ele>471.173437</ele>
        <time>2021-10-18T12:33:06.000Z</time>
      </trkpt>
      <trkpt lat="43.60499" lon="2.35107">
        <ele>471.263218</ele>
        <time>2021-10-18T12:33:07.000Z</time>
      </trkpt>
      <trkpt lat="43.60498" lon="2.3511">
        <ele>471.359579</ele>
        <time>2021-10-18T12:33:08.000Z</time>
      </trkpt>
      <trkpt lat="43.60497" lon="2.35113">
        <ele>471.44936</ele>
        <time>2021-10-18T12:33:09.000Z</time>
      </trkpt>
      <trkpt lat="43.60496" lon="2.35116">
        <ele>471.542332</ele>
        <time>2021-10-18T12:33:10.000Z</time>
      </trkpt>
      <trkpt lat="43.60496" lon="2.35119">
        <ele>471.625555</ele>
        <time>2021-10-18T12:33:11.000Z</time>
      </trkpt>
      <trkpt lat="43.60494" lon="2.35121">
        <ele>471.716069</ele>
        <time>2021-10-18T12:33:12.000Z</time>
      </trkpt>
      <trkpt lat="43.60494" lon="2.35125">
        <ele>471.808492</ele>
        <time>2021-10-18T12:33:13.000Z</time>
      </trkpt>
      <trkpt lat="43.60493" lon="2.35128">
        <ele>471.904708</ele>
        <time>2021-10-18T12:33:14.000Z</time>
      </trkpt>
      <trkpt lat="43.60492" lon="2.35131">
        <ele>472.00355</ele>
        <time>2021-10-18T12:33:15.000Z</time>
      </trkpt>
      <trkpt lat="43.60491" lon="2.35135">
        <ele>472.097149</ele>
        <time>2021-10-18T12:33:16.000Z</time>
      </trkpt>
      <trkpt lat="43.6049" lon="2.35137">
        <ele>472.187663</ele>
        <time>2021-10-18T12:33:17.000Z</time>
      </trkpt>
      <trkpt lat="43.6049" lon="2.3514">
        <ele>472.264356</ele>
        <time>2021-10-18T12:33:18.000Z</time>
      </trkpt>
      <trkpt lat="43.60489" lon="2.35143">
        <ele>472.345089</ele>
        <time>2021-10-18T12:33:19.000Z</time>
      </trkpt>
      <trkpt lat="43.60489" lon="2.35146">
        <ele>472.474164</ele>
        <time>2021-10-18T12:33:20.000Z</time>
      </trkpt>
      <trkpt lat="43.60488" lon="2.35149">
        <ele>472.614224</ele>
        <time>2021-10-18T12:33:21.000Z</time>
      </trkpt>
      <trkpt lat="43.60488" lon="2.35152">
        <ele>472.749908</ele>
        <time>2021-10-18T12:33:22.000Z</time>
      </trkpt>
      <trkpt lat="43.60488" lon="2.35155">
        <ele>472.85824</ele>
        <time>2021-10-18T12:33:23.000Z</time>
      </trkpt>
      <trkpt lat="43.60487" lon="2.35157">
        <ele>472.957816</ele>
        <time>2021-10-18T12:33:24.000Z</time>
      </trkpt>
      <trkpt lat="43.60487" lon="2.35159">
        <ele>473.064745</ele>
        <time>2021-10-18T12:33:25.000Z</time>
      </trkpt>
      <trkpt lat="43.60487" lon="2.35162">
        <ele>473.177462</ele>
        <time>2021-10-18T12:33:26.000Z</time>
      </trkpt>
      <trkpt lat="43.60487" lon="2.35164">
        <ele>473.288663</ele>
        <time>2021-10-18T12:33:27.000Z</time>
      </trkpt>
      <trkpt lat="43.60487" lon="2.35167">
        <ele>473.404311</ele>
        <time>2021-10-18T12:33:28.000Z</time>
      </trkpt>
      <trkpt lat="43.60487" lon="2.35169">
        <ele>473.515512</ele>
        <time>2021-10-18T12:33:29.000Z</time>
      </trkpt>
      <trkpt lat="43.60487" lon="2.35172">
        <ele>473.622441</ele>
        <time>2021-10-18T12:33:30.000Z</time>
      </trkpt>
      <trkpt lat="43.60487" lon="2.35174">
        <ele>473.730773</ele>
        <time>2021-10-18T12:33:31.000Z</time>
      </trkpt>
      <trkpt lat="43.60486" lon="2.35177">
        <ele>473.864778</ele>
        <time>2021-10-18T12:33:32.000Z</time>
      </trkpt>
      <trkpt lat="43.60486" lon="2.3518">
        <ele>473.994661</ele>
        <time>2021-10-18T12:33:33.000Z</time>
      </trkpt>
      <trkpt lat="43.60486" lon="2.35183">
        <ele>474.128102</ele>
        <time>2021-10-18T12:33:34.000Z</time>
      </trkpt>
      <trkpt lat="43.60486" lon="2.35186">
        <ele>474.274887</ele>
        <time>2021-10-18T12:33:35.000Z</time>
      </trkpt>
      <trkpt lat="43.60486" lon="2.35189">
        <ele>474.408327</ele>
        <time>2021-10-18T12:33:36.000Z</time>
      </trkpt>
      <trkpt lat="43.60485" lon="2.35192">
        <ele>474.530912</ele>
        <time>2021-10-18T12:33:37.000Z</time>
      </trkpt>
      <trkpt lat="43.60485" lon="2.35194">
        <ele>474.643629</ele>
        <time>2021-10-18T12:33:38.000Z</time>
      </trkpt>
      <trkpt lat="43.60485" lon="2.35197">
        <ele>474.763882</ele>
        <time>2021-10-18T12:33:39.000Z</time>
      </trkpt>
      <trkpt lat="43.60485" lon="2.35199">
        <ele>474.873426</ele>
        <time>2021-10-18T12:33:40.000Z</time>
      </trkpt>
      <trkpt lat="43.60484" lon="2.35201">
        <ele>474.959924</ele>
        <time>2021-10-18T12:33:41.000Z</time>
      </trkpt>
      <trkpt lat="43.60484" lon="2.35203">
        <ele>475.035541</ele>
        <time>2021-10-18T12:33:42.000Z</time>
      </trkpt>
      <trkpt lat="43.60484" lon="2.35205">
        <ele>475.129151</ele>
        <time>2021-10-18T12:33:43.000Z</time>
      </trkpt>
      <trkpt lat="43.60484" lon="2.35207">
        <ele>475.234365</ele>
        <time>2021-10-18T12:33:44.000Z</time>
      </trkpt>
      <trkpt lat="43.60484" lon="2.3521">
        <ele>475.342696</ele>
        <time>2021-10-18T12:33:45.000Z</time>
      </trkpt>
      <trkpt lat="43.60483" lon="2.35212">
        <ele>475.460926</ele>
        <time>2021-10-18T12:33:46.000Z</time>
      </trkpt>
      <trkpt lat="43.60483" lon="2.35214">
        <ele>475.548938</ele>
        <time>2021-10-18T12:33:47.000Z</time>
      </trkpt>
      <trkpt lat="43.60482" lon="2.35217">
        <ele>475.654152</ele>
        <time>2021-10-18T12:33:48.000Z</time>
      </trkpt>
      <trkpt lat="43.60482" lon="2.35219">
        <ele>475.768035</ele>
        <time>2021-10-18T12:33:49.000Z</time>
      </trkpt>
      <trkpt lat="43.60482" lon="2.35221">
        <ele>475.867612</ele>
        <time>2021-10-18T12:33:50.000Z</time>
      </trkpt>
      <trkpt lat="43.60482" lon="2.35223">
        <ele>475.96102</ele>
        <time>2021-10-18T12:33:51.000Z</time>
      </trkpt>
      <trkpt lat="43.60482" lon="2.35226">
        <ele>476.054429</ele>
        <time>2021-10-18T12:33:52.000Z</time>
      </trkpt>
      <trkpt lat="43.60482" lon="2.35228">
        <ele>476.152285</ele>
        <time>2021-10-18T12:33:53.000Z</time>
      </trkpt>
      <trkpt lat="43.60482" lon="2.3523">
        <ele>476.259214</ele>
        <time>2021-10-18T12:33:54.000Z</time>
      </trkpt>
      <trkpt lat="43.60481" lon="2.35232">
        <ele>476.350095</ele>
        <time>2021-10-18T12:33:55.000Z</time>
      </trkpt>
      <trkpt lat="43.6048" lon="2.35234">
        <ele>476.459638</ele>
        <time>2021-10-18T12:33:56.000Z</time>
      </trkpt>
      <trkpt lat="43.6048" lon="2.35237">
        <ele>476.585539</ele>
        <time>2021-10-18T12:33:57.000Z</time>
      </trkpt>
      <trkpt lat="43.6048" lon="2.3524">
        <ele>476.705636</ele>
        <time>2021-10-18T12:33:58.000Z</time>
      </trkpt>
      <trkpt lat="43.6048" lon="2.35242">
        <ele>476.821285</ele>
        <time>2021-10-18T12:33:59.000Z</time>
      </trkpt>
      <trkpt lat="43.6048" lon="2.35244">
        <ele>476.910245</ele>
        <time>2021-10-18T12:34:00.000Z</time>
      </trkpt>
      <trkpt lat="43.6048" lon="2.35246">
        <ele>476.981414</ele>
        <time>2021-10-18T12:34:01.000Z</time>
      </trkpt>
      <trkpt lat="43.6048" lon="2.35249">
        <ele>477.097062</ele>
        <time>2021-10-18T12:34:02.000Z</time>
      </trkpt>
      <trkpt lat="43.6048" lon="2.35251">
        <ele>477.203991</ele>
        <time>2021-10-18T12:34:03.000Z</time>
      </trkpt>
      <trkpt lat="43.6048" lon="2.35253">
        <ele>477.2992</ele>
        <time>2021-10-18T12:34:04.000Z</time>
      </trkpt>
      <trkpt lat="43.6048" lon="2.35255">
        <ele>477.392811</ele>
        <time>2021-10-18T12:34:05.000Z</time>
      </trkpt>
      <trkpt lat="43.60479" lon="2.35257">
        <ele>477.482616</ele>
        <time>2021-10-18T12:34:06.000Z</time>
      </trkpt>
      <trkpt lat="43.60479" lon="2.35259">
        <ele>477.576024</ele>
        <time>2021-10-18T12:34:07.000Z</time>
      </trkpt>
      <trkpt lat="43.60479" lon="2.35261">
        <ele>477.664985</ele>
        <time>2021-10-18T12:34:08.000Z</time>
      </trkpt>
      <trkpt lat="43.60479" lon="2.35263">
        <ele>477.753945</ele>
        <time>2021-10-18T12:34:09.000Z</time>
      </trkpt>
      <trkpt lat="43.6048" lon="2.35265">
        <ele>477.849154</ele>
        <time>2021-10-18T12:34:10.000Z</time>
      </trkpt>
      <trkpt lat="43.6048" lon="2.35267">
        <ele>477.929219</ele>
        <time>2021-10-18T12:34:11.000Z</time>
      </trkpt>
      <trkpt lat="43.6048" lon="2.3527">
        <ele>478.044868</ele>
        <time>2021-10-18T12:34:12.000Z</time>
      </trkpt>
      <trkpt lat="43.6048" lon="2.35272">
        <ele>478.147356</ele>
        <time>2021-10-18T12:34:13.000Z</time>
      </trkpt>
      <trkpt lat="43.60479" lon="2.35275">
        <ele>478.259234</ele>
        <time>2021-10-18T12:34:14.000Z</time>
      </trkpt>
      <trkpt lat="43.60479" lon="2.35277">
        <ele>478.352642</ele>
        <time>2021-10-18T12:34:15.000Z</time>
      </trkpt>
      <trkpt lat="43.60479" lon="2.35279">
        <ele>478.450499</ele>
        <time>2021-10-18T12:34:16.000Z</time>
      </trkpt>
      <trkpt lat="43.60479" lon="2.35281">
        <ele>478.539459</ele>
        <time>2021-10-18T12:34:17.000Z</time>
      </trkpt>
      <trkpt lat="43.6048" lon="2.35283">
        <ele>478.612975</ele>
        <time>2021-10-18T12:34:18.000Z</time>
      </trkpt>
      <trkpt lat="43.6048" lon="2.35284">
        <ele>478.697487</ele>
        <time>2021-10-18T12:34:19.000Z</time>
      </trkpt>
      <trkpt lat="43.6048" lon="2.35286">
        <ele>478.786448</ele>
        <time>2021-10-18T12:34:20.000Z</time>
      </trkpt>
      <trkpt lat="43.6048" lon="2.35289">
        <ele>478.893377</ele>
        <time>2021-10-18T12:34:21.000Z</time>
      </trkpt>
      <trkpt lat="43.6048" lon="2.35291">
        <ele>479.006094</ele>
        <time>2021-10-18T12:34:22.000Z</time>
      </trkpt>
      <trkpt lat="43.6048" lon="2.35294">
        <ele>479.117465</ele>
        <time>2021-10-18T12:34:23.000Z</time>
      </trkpt>
      <trkpt lat="43.60481" lon="2.35296">
        <ele>479.212674</ele>
        <time>2021-10-18T12:34:24.000Z</time>
      </trkpt>
      <trkpt lat="43.60481" lon="2.35298">
        <ele>479.301846</ele>
        <time>2021-10-18T12:34:25.000Z</time>
      </trkpt>
      <trkpt lat="43.60481" lon="2.353">
        <ele>479.408662</ele>
        <time>2021-10-18T12:34:26.000Z</time>
      </trkpt>
      <trkpt lat="43.60482" lon="2.35303">
        <ele>479.515477</ele>
        <time>2021-10-18T12:34:27.000Z</time>
      </trkpt>
      <trkpt lat="43.60482" lon="2.35305">
        <ele>479.613334</ele>
        <time>2021-10-18T12:34:28.000Z</time>
      </trkpt>
      <trkpt lat="43.60482" lon="2.35308">
        <ele>479.746916</ele>
        <time>2021-10-18T12:34:29.000Z</time>
      </trkpt>
      <trkpt lat="43.60482" lon="2.35311">
        <ele>479.873861</ele>
        <time>2021-10-18T12:34:30.000Z</time>
      </trkpt>
      <trkpt lat="43.60483" lon="2.35313">
        <ele>479.992091</ele>
        <time>2021-10-18T12:34:31.000Z</time>
      </trkpt>
      <trkpt lat="43.60483" lon="2.35316">
        <ele>480.105974</ele>
        <time>2021-10-18T12:34:32.000Z</time>
      </trkpt>
      <trkpt lat="43.60483" lon="2.35318">
        <ele>480.206868</ele>
        <time>2021-10-18T12:34:33.000Z</time>
      </trkpt>
      <trkpt lat="43.60484" lon="2.3532">
        <ele>480.302077</ele>
        <time>2021-10-18T12:34:34.000Z</time>
      </trkpt>
      <trkpt lat="43.60484" lon="2.35323">
        <ele>480.424661</ele>
        <time>2021-10-18T12:34:35.000Z</time>
      </trkpt>
      <trkpt lat="43.60484" lon="2.35325">
        <ele>480.528612</ele>
        <time>2021-10-18T12:34:36.000Z</time>
      </trkpt>
      <trkpt lat="43.60484" lon="2.35327">
        <ele>480.639983</ele>
        <time>2021-10-18T12:34:37.000Z</time>
      </trkpt>
      <trkpt lat="43.60485" lon="2.3533">
        <ele>480.772581</ele>
        <time>2021-10-18T12:34:38.000Z</time>
      </trkpt>
      <trkpt lat="43.60486" lon="2.35333">
        <ele>480.893961</ele>
        <time>2021-10-18T12:34:39.000Z</time>
      </trkpt>
      <trkpt lat="43.60486" lon="2.35335">
        <ele>481.000776</ele>
        <time>2021-10-18T12:34:40.000Z</time>
      </trkpt>
      <trkpt lat="43.60487" lon="2.35338">
        <ele>481.11175</ele>
        <time>2021-10-18T12:34:41.000Z</time>
      </trkpt>
      <trkpt lat="43.60487" lon="2.3534">
        <ele>481.231407</ele>
        <time>2021-10-18T12:34:42.000Z</time>
      </trkpt>
      <trkpt lat="43.60488" lon="2.35343">
        <ele>481.355369</ele>
        <time>2021-10-18T12:34:43.000Z</time>
      </trkpt>
      <trkpt lat="43.60488" lon="2.35345">
        <ele>481.462121</ele>
        <time>2021-10-18T12:34:44.000Z</time>
      </trkpt>
      <trkpt lat="43.60488" lon="2.35348">
        <ele>481.573492</ele>
        <time>2021-10-18T12:34:45.000Z</time>
      </trkpt>
      <trkpt lat="43.60488" lon="2.3535">
        <ele>481.683035</ele>
        <time>2021-10-18T12:34:46.000Z</time>
      </trkpt>
      <trkpt lat="43.60489" lon="2.35352">
        <ele>481.775327</ele>
        <time>2021-10-18T12:34:47.000Z</time>
      </trkpt>
      <trkpt lat="43.60489" lon="2.35355">
        <ele>481.893556</ele>
        <time>2021-10-18T12:34:48.000Z</time>
      </trkpt>
      <trkpt lat="43.6049" lon="2.35358">
        <ele>482.033754</ele>
        <time>2021-10-18T12:34:49.000Z</time>
      </trkpt>
      <trkpt lat="43.6049" lon="2.3536">
        <ele>482.154007</ele>
        <time>2021-10-18T12:34:50.000Z</time>
      </trkpt>
      <trkpt lat="43.60489" lon="2.35363">
        <ele>482.275509</ele>
        <time>2021-10-18T12:34:51.000Z</time>
      </trkpt>
      <trkpt lat="43.60489" lon="2.35366">
        <ele>482.38688</ele>
        <time>2021-10-18T12:34:52.000Z</time>
      </trkpt>
      <trkpt lat="43.60489" lon="2.35368">
        <ele>482.487774</ele>
        <time>2021-10-18T12:34:53.000Z</time>
      </trkpt>
      <trkpt lat="43.60489" lon="2.3537">
        <ele>482.590813</ele>
        <time>2021-10-18T12:34:54.000Z</time>
      </trkpt>
      <trkpt lat="43.60489" lon="2.35373">
        <ele>482.706177</ele>
        <time>2021-10-18T12:34:55.000Z</time>
      </trkpt>
      <trkpt lat="43.6049" lon="2.35375">
        <ele>482.814918</ele>
        <time>2021-10-18T12:34:56.000Z</time>
      </trkpt>
      <trkpt lat="43.6049" lon="2.35378">
        <ele>482.937502</ele>
        <time>2021-10-18T12:34:57.000Z</time>
      </trkpt>
      <trkpt lat="43.60491" lon="2.35381">
        <ele>483.087466</ele>
        <time>2021-10-18T12:34:58.000Z</time>
      </trkpt>
      <trkpt lat="43.60491" lon="2.35384">
        <ele>483.219224</ele>
        <time>2021-10-18T12:34:59.000Z</time>
      </trkpt>
      <trkpt lat="43.60492" lon="2.35386">
        <ele>483.31581</ele>
        <time>2021-10-18T12:35:00.000Z</time>
      </trkpt>
      <trkpt lat="43.60493" lon="2.35388">
        <ele>483.413107</ele>
        <time>2021-10-18T12:35:01.000Z</time>
      </trkpt>
      <trkpt lat="43.60494" lon="2.3539">
        <ele>483.426862</ele>
        <time>2021-10-18T12:35:02.000Z</time>
      </trkpt>
      <trkpt lat="43.60494" lon="2.35393">
        <ele>483.439313</ele>
        <time>2021-10-18T12:35:03.000Z</time>
      </trkpt>
      <trkpt lat="43.60495" lon="2.35395">
        <ele>483.4506</ele>
        <time>2021-10-18T12:35:04.000Z</time>
      </trkpt>
      <trkpt lat="43.60495" lon="2.35398">
        <ele>483.461355</ele>
        <time>2021-10-18T12:35:05.000Z</time>
      </trkpt>
      <trkpt lat="43.60495" lon="2.35401">
        <ele>483.472124</ele>
        <time>2021-10-18T12:35:06.000Z</time>
      </trkpt>
      <trkpt lat="43.60496" lon="2.35403">
        <ele>483.482852</ele>
        <time>2021-10-18T12:35:07.000Z</time>
      </trkpt>
      <trkpt lat="43.60496" lon="2.35406">
        <ele>483.494139</ele>
        <time>2021-10-18T12:35:08.000Z</time>
      </trkpt>
      <trkpt lat="43.60497" lon="2.35408">
        <ele>483.503283</ele>
        <time>2021-10-18T12:35:09.000Z</time>
      </trkpt>
      <trkpt lat="43.60497" lon="2.3541">
        <ele>483.512101</ele>
        <time>2021-10-18T12:35:10.000Z</time>
      </trkpt>
      <trkpt lat="43.60498" lon="2.35412">
        <ele>483.521885</ele>
        <time>2021-10-18T12:35:11.000Z</time>
      </trkpt>
      <trkpt lat="43.60498" lon="2.35414">
        <ele>483.530236</ele>
        <time>2021-10-18T12:35:12.000Z</time>
      </trkpt>
      <trkpt lat="43.60498" lon="2.35417">
        <ele>483.540592</ele>
        <time>2021-10-18T12:35:13.000Z</time>
      </trkpt>
      <trkpt lat="43.60499" lon="2.35419">
        <ele>483.551992</ele>
        <time>2021-10-18T12:35:14.000Z</time>
      </trkpt>
      <trkpt lat="43.60499" lon="2.35422">
        <ele>483.564928</ele>
        <time>2021-10-18T12:35:15.000Z</time>
      </trkpt>
      <trkpt lat="43.60499" lon="2.35425">
        <ele>483.575285</ele>
        <time>2021-10-18T12:35:16.000Z</time>
      </trkpt>
      <trkpt lat="43.60499" lon="2.35427">
        <ele>483.586279</ele>
        <time>2021-10-18T12:35:17.000Z</time>
      </trkpt>
      <trkpt lat="43.605" lon="2.35431">
        <ele>483.599626</ele>
        <time>2021-10-18T12:35:18.000Z</time>
      </trkpt>
      <trkpt lat="43.605" lon="2.35434">
        <ele>483.612448</ele>
        <time>2021-10-18T12:35:19.000Z</time>
      </trkpt>
      <trkpt lat="43.605" lon="2.35437">
        <ele>483.624457</ele>
        <time>2021-10-18T12:35:20.000Z</time>
      </trkpt>
      <trkpt lat="43.605" lon="2.35439">
        <ele>483.634644</ele>
        <time>2021-10-18T12:35:21.000Z</time>
      </trkpt>
      <trkpt lat="43.60501" lon="2.35441">
        <ele>483.645346</ele>
        <time>2021-10-18T12:35:22.000Z</time>
      </trkpt>
      <trkpt lat="43.60501" lon="2.35444">
        <ele>483.657557</ele>
        <time>2021-10-18T12:35:23.000Z</time>
      </trkpt>
      <trkpt lat="43.60502" lon="2.35447">
        <ele>483.669486</ele>
        <time>2021-10-18T12:35:24.000Z</time>
      </trkpt>
      <trkpt lat="43.60502" lon="2.3545">
        <ele>483.68213</ele>
        <time>2021-10-18T12:35:25.000Z</time>
      </trkpt>
      <trkpt lat="43.60503" lon="2.35453">
        <ele>483.693417</ele>
        <time>2021-10-18T12:35:26.000Z</time>
      </trkpt>
      <trkpt lat="43.60503" lon="2.35455">
        <ele>483.704585</ele>
        <time>2021-10-18T12:35:27.000Z</time>
      </trkpt>
      <trkpt lat="43.60503" lon="2.35458">
        <ele>483.715768</ele>
        <time>2021-10-18T12:35:28.000Z</time>
      </trkpt>
      <trkpt lat="43.60504" lon="2.35461">
        <ele>483.728905</ele>
        <time>2021-10-18T12:35:29.000Z</time>
      </trkpt>
      <trkpt lat="43.60504" lon="2.35464">
        <ele>483.742577</ele>
        <time>2021-10-18T12:35:30.000Z</time>
      </trkpt>
      <trkpt lat="43.60504" lon="2.35467">
        <ele>483.754572</ele>
        <time>2021-10-18T12:35:31.000Z</time>
      </trkpt>
      <trkpt lat="43.60505" lon="2.3547">
        <ele>483.768004</ele>
        <time>2021-10-18T12:35:32.000Z</time>
      </trkpt>
      <trkpt lat="43.60505" lon="2.35473">
        <ele>483.780738</ele>
        <time>2021-10-18T12:35:33.000Z</time>
      </trkpt>
      <trkpt lat="43.60506" lon="2.35476">
        <ele>483.791057</ele>
        <time>2021-10-18T12:35:34.000Z</time>
      </trkpt>
      <trkpt lat="43.60506" lon="2.35478">
        <ele>483.799101</ele>
        <time>2021-10-18T12:35:35.000Z</time>
      </trkpt>
      <trkpt lat="43.60507" lon="2.3548">
        <ele>483.808639</ele>
        <time>2021-10-18T12:35:36.000Z</time>
      </trkpt>
      <trkpt lat="43.60507" lon="2.35482">
        <ele>483.820324</ele>
        <time>2021-10-18T12:35:37.000Z</time>
      </trkpt>
      <trkpt lat="43.60508" lon="2.35485">
        <ele>483.831026</ele>
        <time>2021-10-18T12:35:38.000Z</time>
      </trkpt>
      <trkpt lat="43.60508" lon="2.35488">
        <ele>483.842733</ele>
        <time>2021-10-18T12:35:39.000Z</time>
      </trkpt>
      <trkpt lat="43.60509" lon="2.35491">
        <ele>483.855607</ele>
        <time>2021-10-18T12:35:40.000Z</time>
      </trkpt>
      <trkpt lat="43.6051" lon="2.35494">
        <ele>483.87117</ele>
        <time>2021-10-18T12:35:41.000Z</time>
      </trkpt>
      <trkpt lat="43.6051" lon="2.35498">
        <ele>483.887053</ele>
        <time>2021-10-18T12:35:42.000Z</time>
      </trkpt>
      <trkpt lat="43.60511" lon="2.35502">
        <ele>483.902737</ele>
        <time>2021-10-18T12:35:43.000Z</time>
      </trkpt>
      <trkpt lat="43.60511" lon="2.35505">
        <ele>483.915985</ele>
        <time>2021-10-18T12:35:44.000Z</time>
      </trkpt>
      <trkpt lat="43.60512" lon="2.35508">
        <ele>483.931147</ele>
        <time>2021-10-18T12:35:45.000Z</time>
      </trkpt>
      <trkpt lat="43.60512" lon="2.35512">
        <ele>483.948044</ele>
        <time>2021-10-18T12:35:46.000Z</time>
      </trkpt>
      <trkpt lat="43.60513" lon="2.35516">
        <ele>483.963206</ele>
        <time>2021-10-18T12:35:47.000Z</time>
      </trkpt>
      <trkpt lat="43.60513" lon="2.35519">
        <ele>483.976637</ele>
        <time>2021-10-18T12:35:48.000Z</time>
      </trkpt>
      <trkpt lat="43.60514" lon="2.35523">
        <ele>483.990885</ele>
        <time>2021-10-18T12:35:49.000Z</time>
      </trkpt>
      <trkpt lat="43.60514" lon="2.35526">
        <ele>484.004317</ele>
        <time>2021-10-18T12:35:50.000Z</time>
      </trkpt>
      <trkpt lat="43.60515" lon="2.35529">
        <ele>484.016934</ele>
        <time>2021-10-18T12:35:51.000Z</time>
      </trkpt>
      <trkpt lat="43.60515" lon="2.35532">
        <ele>484.031158</ele>
        <time>2021-10-18T12:35:52.000Z</time>
      </trkpt>
      <trkpt lat="43.60516" lon="2.35536">
        <ele>484.045814</ele>
        <time>2021-10-18T12:35:53.000Z</time>
      </trkpt>
      <trkpt lat="43.60516" lon="2.35539">
        <ele>484.059653</ele>
        <time>2021-10-18T12:35:54.000Z</time>
      </trkpt>
      <trkpt lat="43.60517" lon="2.35542">
        <ele>484.074816</ele>
        <time>2021-10-18T12:35:55.000Z</time>
      </trkpt>
      <trkpt lat="43.60518" lon="2.35546">
        <ele>484.089232</ele>
        <time>2021-10-18T12:35:56.000Z</time>
      </trkpt>
      <trkpt lat="43.60518" lon="2.35549">
        <ele>484.102368</ele>
        <time>2021-10-18T12:35:57.000Z</time>
      </trkpt>
      <trkpt lat="43.60519" lon="2.35552">
        <ele>484.118052</ele>
        <time>2021-10-18T12:35:58.000Z</time>
      </trkpt>
      <trkpt lat="43.60519" lon="2.35556">
        <ele>484.134543</ele>
        <time>2021-10-18T12:35:59.000Z</time>
      </trkpt>
      <trkpt lat="43.6052" lon="2.3556">
        <ele>484.150106</ele>
        <time>2021-10-18T12:36:00.000Z</time>
      </trkpt>
      <trkpt lat="43.60521" lon="2.35563">
        <ele>484.164692</ele>
        <time>2021-10-18T12:36:01.000Z</time>
      </trkpt>
      <trkpt lat="43.60522" lon="2.35567">
        <ele>484.181085</ele>
        <time>2021-10-18T12:36:02.000Z</time>
      </trkpt>
      <trkpt lat="43.60523" lon="2.35571">
        <ele>484.197809</ele>
        <time>2021-10-18T12:36:03.000Z</time>
      </trkpt>
      <trkpt lat="43.60524" lon="2.35575">
        <ele>484.216172</ele>
        <time>2021-10-18T12:36:04.000Z</time>
      </trkpt>
      <trkpt lat="43.60525" lon="2.35579">
        <ele>484.234806</ele>
        <time>2021-10-18T12:36:05.000Z</time>
      </trkpt>
      <trkpt lat="43.60526" lon="2.35584">
        <ele>484.254915</ele>
        <time>2021-10-18T12:36:06.000Z</time>
      </trkpt>
      <trkpt lat="43.60527" lon="2.35589">
        <ele>484.275024</ele>
        <time>2021-10-18T12:36:07.000Z</time>
      </trkpt>
      <trkpt lat="43.60527" lon="2.35594">
        <ele>484.297621</ele>
        <time>2021-10-18T12:36:08.000Z</time>
      </trkpt>
      <trkpt lat="43.60529" lon="2.35599">
        <ele>484.319016</ele>
        <time>2021-10-18T12:36:09.000Z</time>
      </trkpt>
      <trkpt lat="43.60529" lon="2.35604">
        <ele>484.339125</ele>
        <time>2021-10-18T12:36:10.000Z</time>
      </trkpt>
      <trkpt lat="43.6053" lon="2.35608">
        <ele>484.357238</ele>
        <time>2021-10-18T12:36:11.000Z</time>
      </trkpt>
      <trkpt lat="43.60531" lon="2.35612">
        <ele>484.373574</ele>
        <time>2021-10-18T12:36:12.000Z</time>
      </trkpt>
      <trkpt lat="43.60532" lon="2.35616">
        <ele>484.390739</ele>
        <time>2021-10-18T12:36:13.000Z</time>
      </trkpt>
      <trkpt lat="43.60533" lon="2.3562">
        <ele>484.410307</ele>
        <time>2021-10-18T12:36:14.000Z</time>
      </trkpt>
      <trkpt lat="43.60534" lon="2.35625">
        <ele>484.431921</ele>
        <time>2021-10-18T12:36:15.000Z</time>
      </trkpt>
      <trkpt lat="43.60535" lon="2.35629">
        <ele>484.4517</ele>
        <time>2021-10-18T12:36:16.000Z</time>
      </trkpt>
      <trkpt lat="43.60535" lon="2.35633">
        <ele>484.475333</ele>
        <time>2021-10-18T12:36:17.000Z</time>
      </trkpt>
      <trkpt lat="43.60536" lon="2.35638">
        <ele>484.501239</ele>
        <time>2021-10-18T12:36:18.000Z</time>
      </trkpt>
      <trkpt lat="43.60537" lon="2.35642">
        <ele>484.524141</ele>
        <time>2021-10-18T12:36:19.000Z</time>
      </trkpt>
      <trkpt lat="43.60538" lon="2.35646">
        <ele>484.54783</ele>
        <time>2021-10-18T12:36:20.000Z</time>
      </trkpt>
      <trkpt lat="43.60539" lon="2.3565">
        <ele>484.572436</ele>
        <time>2021-10-18T12:36:21.000Z</time>
      </trkpt>
      <trkpt lat="43.60539" lon="2.35654">
        <ele>484.592705</ele>
        <time>2021-10-18T12:36:22.000Z</time>
      </trkpt>
      <trkpt lat="43.6054" lon="2.35657">
        <ele>484.611843</ele>
        <time>2021-10-18T12:36:23.000Z</time>
      </trkpt>
      <trkpt lat="43.6054" lon="2.35661">
        <ele>484.633338</ele>
        <time>2021-10-18T12:36:24.000Z</time>
      </trkpt>
      <trkpt lat="43.60541" lon="2.35664">
        <ele>484.65301</ele>
        <time>2021-10-18T12:36:25.000Z</time>
      </trkpt>
      <trkpt lat="43.60541" lon="2.35668">
        <ele>484.67273</ele>
        <time>2021-10-18T12:36:26.000Z</time>
      </trkpt>
      <trkpt lat="43.60542" lon="2.35672">
        <ele>484.695633</ele>
        <time>2021-10-18T12:36:27.000Z</time>
      </trkpt>
      <trkpt lat="43.60542" lon="2.35676">
        <ele>484.717004</ele>
        <time>2021-10-18T12:36:28.000Z</time>
      </trkpt>
      <trkpt lat="43.60543" lon="2.3568">
        <ele>484.739594</ele>
        <time>2021-10-18T12:36:29.000Z</time>
      </trkpt>
      <trkpt lat="43.60544" lon="2.35683">
        <ele>484.760696</ele>
        <time>2021-10-18T12:36:30.000Z</time>
      </trkpt>
      <trkpt lat="43.60544" lon="2.35686">
        <ele>484.778372</ele>
        <time>2021-10-18T12:36:31.000Z</time>
      </trkpt>
      <trkpt lat="43.60545" lon="2.3569">
        <ele>484.796688</ele>
        <time>2021-10-18T12:36:32.000Z</time>
      </trkpt>
      <trkpt lat="43.60545" lon="2.35693">
        <ele>484.814546</ele>
        <time>2021-10-18T12:36:33.000Z</time>
      </trkpt>
      <trkpt lat="43.60546" lon="2.35696">
        <ele>484.83331</ele>
        <time>2021-10-18T12:36:34.000Z</time>
      </trkpt>
      <trkpt lat="43.60547" lon="2.35699">
        <ele>484.850851</ele>
        <time>2021-10-18T12:36:35.000Z</time>
      </trkpt>
      <trkpt lat="43.60547" lon="2.35702">
        <ele>484.869473</ele>
        <time>2021-10-18T12:36:36.000Z</time>
      </trkpt>
      <trkpt lat="43.60547" lon="2.35705">
        <ele>484.886997</ele>
        <time>2021-10-18T12:36:37.000Z</time>
      </trkpt>
      <trkpt lat="43.60548" lon="2.35708">
        <ele>484.904318</ele>
        <time>2021-10-18T12:36:38.000Z</time>
      </trkpt>
      <trkpt lat="43.60548" lon="2.35712">
        <ele>484.923256</ele>
        <time>2021-10-18T12:36:39.000Z</time>
      </trkpt>
      <trkpt lat="43.60549" lon="2.35715">
        <ele>484.943111</ele>
        <time>2021-10-18T12:36:40.000Z</time>
      </trkpt>
      <trkpt lat="43.60549" lon="2.35719">
        <ele>484.964213</ele>
        <time>2021-10-18T12:36:41.000Z</time>
      </trkpt>
      <trkpt lat="43.60549" lon="2.35723">
        <ele>484.984819</ele>
        <time>2021-10-18T12:36:42.000Z</time>
      </trkpt>
      <trkpt lat="43.6055" lon="2.35726">
        <ele>485.004358</ele>
        <time>2021-10-18T12:36:43.000Z</time>
      </trkpt>
      <trkpt lat="43.6055" lon="2.3573">
        <ele>485.023343</ele>
        <time>2021-10-18T12:36:44.000Z</time>
      </trkpt>
      <trkpt lat="43.6055" lon="2.35733">
        <ele>485.040885</ele>
        <time>2021-10-18T12:36:45.000Z</time>
      </trkpt>
      <trkpt lat="43.60551" lon="2.35736">
        <ele>485.059506</ele>
        <time>2021-10-18T12:36:46.000Z</time>
      </trkpt>
      <trkpt lat="43.60551" lon="2.35739">
        <ele>485.075936</ele>
        <time>2021-10-18T12:36:47.000Z</time>
      </trkpt>
      <trkpt lat="43.60552" lon="2.35742">
        <ele>485.093794</ele>
        <time>2021-10-18T12:36:48.000Z</time>
      </trkpt>
      <trkpt lat="43.60552" lon="2.35745">
        <ele>485.112732</ele>
        <time>2021-10-18T12:36:49.000Z</time>
      </trkpt>
      <trkpt lat="43.60552" lon="2.35748">
        <ele>485.130951</ele>
        <time>2021-10-18T12:36:50.000Z</time>
      </trkpt>
      <trkpt lat="43.60553" lon="2.35752">
        <ele>485.152234</ele>
        <time>2021-10-18T12:36:51.000Z</time>
      </trkpt>
      <trkpt lat="43.60554" lon="2.35755">
        <ele>485.170856</ele>
        <time>2021-10-18T12:36:52.000Z</time>
      </trkpt>
      <trkpt lat="43.60554" lon="2.35758">
        <ele>485.18771</ele>
        <time>2021-10-18T12:36:53.000Z</time>
      </trkpt>
      <trkpt lat="43.60554" lon="2.35762">
        <ele>485.206474</ele>
        <time>2021-10-18T12:36:54.000Z</time>
      </trkpt>
      <trkpt lat="43.60555" lon="2.35765">
        <ele>485.225842</ele>
        <time>2021-10-18T12:36:55.000Z</time>
      </trkpt>
      <trkpt lat="43.60556" lon="2.35768">
        <ele>485.244979</ele>
        <time>2021-10-18T12:36:56.000Z</time>
      </trkpt>
      <trkpt lat="43.60557" lon="2.35772">
        <ele>485.264875</ele>
        <time>2021-10-18T12:36:57.000Z</time>
      </trkpt>
      <trkpt lat="43.60557" lon="2.35775">
        <ele>485.283191</ele>
        <time>2021-10-18T12:36:58.000Z</time>
      </trkpt>
      <trkpt lat="43.60558" lon="2.35778">
        <ele>485.302127</ele>
        <time>2021-10-18T12:36:59.000Z</time>
      </trkpt>
      <trkpt lat="43.60559" lon="2.35781">
        <ele>485.321063</ele>
        <time>2021-10-18T12:37:00.000Z</time>
      </trkpt>
      <trkpt lat="43.6056" lon="2.35785">
        <ele>485.340168</ele>
        <time>2021-10-18T12:37:01.000Z</time>
      </trkpt>
      <trkpt lat="43.6056" lon="2.35788">
        <ele>485.360438</ele>
        <time>2021-10-18T12:37:02.000Z</time>
      </trkpt>
      <trkpt lat="43.6056" lon="2.35792">
        <ele>485.380839</ele>
        <time>2021-10-18T12:37:03.000Z</time>
      </trkpt>
      <trkpt lat="43.60561" lon="2.35795">
        <ele>485.401265</ele>
        <time>2021-10-18T12:37:04.000Z</time>
      </trkpt>
      <trkpt lat="43.60562" lon="2.35799">
        <ele>485.419869</ele>
        <time>2021-10-18T12:37:05.000Z</time>
      </trkpt>
      <trkpt lat="43.60563" lon="2.35802">
        <ele>485.439494</ele>
        <time>2021-10-18T12:37:06.000Z</time>
      </trkpt>
      <trkpt lat="43.60564" lon="2.35805">
        <ele>485.459403</ele>
        <time>2021-10-18T12:37:07.000Z</time>
      </trkpt>
      <trkpt lat="43.60565" lon="2.35808">
        <ele>485.477719</ele>
        <time>2021-10-18T12:37:08.000Z</time>
      </trkpt>
      <trkpt lat="43.60565" lon="2.35812">
        <ele>485.497615</ele>
        <time>2021-10-18T12:37:09.000Z</time>
      </trkpt>
      <trkpt lat="43.60566" lon="2.35815">
        <ele>485.517287</ele>
        <time>2021-10-18T12:37:10.000Z</time>
      </trkpt>
      <trkpt lat="43.60567" lon="2.35818">
        <ele>485.536655</ele>
        <time>2021-10-18T12:37:11.000Z</time>
      </trkpt>
      <trkpt lat="43.60568" lon="2.35821">
        <ele>485.552891</ele>
        <time>2021-10-18T12:37:12.000Z</time>
      </trkpt>
      <trkpt lat="43.60568" lon="2.35824">
        <ele>485.568329</ele>
        <time>2021-10-18T12:37:13.000Z</time>
      </trkpt>
      <trkpt lat="43.60569" lon="2.35826">
        <ele>485.584565</ele>
        <time>2021-10-18T12:37:14.000Z</time>
      </trkpt>
      <trkpt lat="43.6057" lon="2.35829">
        <ele>485.600002</ele>
        <time>2021-10-18T12:37:15.000Z</time>
      </trkpt>
      <trkpt lat="43.60571" lon="2.35832">
        <ele>485.616755</ele>
        <time>2021-10-18T12:37:16.000Z</time>
      </trkpt>
      <trkpt lat="43.60572" lon="2.35835">
        <ele>485.634827</ele>
        <time>2021-10-18T12:37:17.000Z</time>
      </trkpt>
      <trkpt lat="43.60573" lon="2.35838">
        <ele>485.653932</ele>
        <time>2021-10-18T12:37:18.000Z</time>
      </trkpt>
      <trkpt lat="43.60573" lon="2.35841">
        <ele>485.670945</ele>
        <time>2021-10-18T12:37:19.000Z</time>
      </trkpt>
      <trkpt lat="43.60575" lon="2.35844">
        <ele>485.690402</ele>
        <time>2021-10-18T12:37:20.000Z</time>
      </trkpt>
      <trkpt lat="43.60575" lon="2.35847">
        <ele>485.707962</ele>
        <time>2021-10-18T12:37:21.000Z</time>
      </trkpt>
      <trkpt lat="43.60577" lon="2.35849">
        <ele>485.724243</ele>
        <time>2021-10-18T12:37:22.000Z</time>
      </trkpt>
      <trkpt lat="43.60578" lon="2.35852">
        <ele>485.740935</ele>
        <time>2021-10-18T12:37:23.000Z</time>
      </trkpt>
      <trkpt lat="43.60579" lon="2.35854">
        <ele>485.757694</ele>
        <time>2021-10-18T12:37:24.000Z</time>
      </trkpt>
      <trkpt lat="43.6058" lon="2.35857">
        <ele>485.774936</ele>
        <time>2021-10-18T12:37:25.000Z</time>
      </trkpt>
      <trkpt lat="43.60581" lon="2.3586">
        <ele>485.793918</ele>
        <time>2021-10-18T12:37:26.000Z</time>
      </trkpt>
      <trkpt lat="43.60583" lon="2.35863">
        <ele>485.813315</ele>
        <time>2021-10-18T12:37:27.000Z</time>
      </trkpt>
      <trkpt lat="43.60584" lon="2.35866">
        <ele>485.859317</ele>
        <time>2021-10-18T12:37:28.000Z</time>
      </trkpt>
      <trkpt lat="43.60585" lon="2.35868">
        <ele>485.963184</ele>
        <time>2021-10-18T12:37:29.000Z</time>
      </trkpt>
      <trkpt lat="43.60586" lon="2.35871">
        <ele>486.070044</ele>
        <time>2021-10-18T12:37:30.000Z</time>
      </trkpt>
      <trkpt lat="43.60587" lon="2.35873">
        <ele>486.167487</ele>
        <time>2021-10-18T12:37:31.000Z</time>
      </trkpt>
      <trkpt lat="43.60588" lon="2.35876">
        <ele>486.273837</ele>
        <time>2021-10-18T12:37:32.000Z</time>
      </trkpt>
      <trkpt lat="43.60589" lon="2.35878">
        <ele>486.374438</ele>
        <time>2021-10-18T12:37:33.000Z</time>
      </trkpt>
      <trkpt lat="43.60591" lon="2.35881">
        <ele>486.483793</ele>
        <time>2021-10-18T12:37:34.000Z</time>
      </trkpt>
      <trkpt lat="43.60592" lon="2.35884">
        <ele>486.606825</ele>
        <time>2021-10-18T12:37:35.000Z</time>
      </trkpt>
      <trkpt lat="43.60594" lon="2.35887">
        <ele>486.729753</ele>
        <time>2021-10-18T12:37:36.000Z</time>
      </trkpt>
      <trkpt lat="43.60595" lon="2.3589">
        <ele>486.858358</ele>
        <time>2021-10-18T12:37:37.000Z</time>
      </trkpt>
      <trkpt lat="43.60597" lon="2.35893">
        <ele>486.986963</ele>
        <time>2021-10-18T12:37:38.000Z</time>
      </trkpt>
      <trkpt lat="43.60598" lon="2.35896">
        <ele>487.11272</ele>
        <time>2021-10-18T12:37:39.000Z</time>
      </trkpt>
      <trkpt lat="43.606" lon="2.35899">
        <ele>487.238471</ele>
        <time>2021-10-18T12:37:40.000Z</time>
      </trkpt>
      <trkpt lat="43.60601" lon="2.35902">
        <ele>487.372866</ele>
        <time>2021-10-18T12:37:41.000Z</time>
      </trkpt>
      <trkpt lat="43.60603" lon="2.35905">
        <ele>487.504177</ele>
        <time>2021-10-18T12:37:42.000Z</time>
      </trkpt>
      <trkpt lat="43.60605" lon="2.35908">
        <ele>487.641238</ele>
        <time>2021-10-18T12:37:43.000Z</time>
      </trkpt>
      <trkpt lat="43.60606" lon="2.35911">
        <ele>487.772724</ele>
        <time>2021-10-18T12:37:44.000Z</time>
      </trkpt>
      <trkpt lat="43.60608" lon="2.35915">
        <ele>487.906298</ele>
        <time>2021-10-18T12:37:45.000Z</time>
      </trkpt>
      <trkpt lat="43.60609" lon="2.35918">
        <ele>488.043627</ele>
        <time>2021-10-18T12:37:46.000Z</time>
      </trkpt>
      <trkpt lat="43.60611" lon="2.35922">
        <ele>488.183913</ele>
        <time>2021-10-18T12:37:47.000Z</time>
      </trkpt>
      <trkpt lat="43.60612" lon="2.35925">
        <ele>488.310493</ele>
        <time>2021-10-18T12:37:48.000Z</time>
      </trkpt>
      <trkpt lat="43.60612" lon="2.35928">
        <ele>488.424009</ele>
        <time>2021-10-18T12:37:49.000Z</time>
      </trkpt>
      <trkpt lat="43.60613" lon="2.35932">
        <ele>488.544045</ele>
        <time>2021-10-18T12:37:50.000Z</time>
      </trkpt>
      <trkpt lat="43.60614" lon="2.35935">
        <ele>488.672494</ele>
        <time>2021-10-18T12:37:51.000Z</time>
      </trkpt>
      <trkpt lat="43.60615" lon="2.35938">
        <ele>488.782767</ele>
        <time>2021-10-18T12:37:52.000Z</time>
      </trkpt>
      <trkpt lat="43.60616" lon="2.35941">
        <ele>488.889116</ele>
        <time>2021-10-18T12:37:53.000Z</time>
      </trkpt>
      <trkpt lat="43.60617" lon="2.35943">
        <ele>488.993722</ele>
        <time>2021-10-18T12:37:54.000Z</time>
      </trkpt>
      <trkpt lat="43.60618" lon="2.35946">
        <ele>489.100765</ele>
        <time>2021-10-18T12:37:55.000Z</time>
      </trkpt>
      <trkpt lat="43.60619" lon="2.35949">
        <ele>489.211037</ele>
        <time>2021-10-18T12:37:56.000Z</time>
      </trkpt>
      <trkpt lat="43.60619" lon="2.35953">
        <ele>489.331745</ele>
        <time>2021-10-18T12:37:57.000Z</time>
      </trkpt>
      <trkpt lat="43.6062" lon="2.35956">
        <ele>489.454797</ele>
        <time>2021-10-18T12:37:58.000Z</time>
      </trkpt>
      <trkpt lat="43.60621" lon="2.35959">
        <ele>489.57672</ele>
        <time>2021-10-18T12:37:59.000Z</time>
      </trkpt>
      <trkpt lat="43.60621" lon="2.35962">
        <ele>489.682904</ele>
        <time>2021-10-18T12:38:00.000Z</time>
      </trkpt>
      <trkpt lat="43.60622" lon="2.35965">
        <ele>489.78573</ele>
        <time>2021-10-18T12:38:01.000Z</time>
      </trkpt>
      <trkpt lat="43.60622" lon="2.35968">
        <ele>489.882309</ele>
        <time>2021-10-18T12:38:02.000Z</time>
      </trkpt>
      <trkpt lat="43.60622" lon="2.35971">
        <ele>489.968541</ele>
        <time>2021-10-18T12:38:03.000Z</time>
      </trkpt>
      <trkpt lat="43.60622" lon="2.35973">
        <ele>490.051324</ele>
        <time>2021-10-18T12:38:04.000Z</time>
      </trkpt>
      <trkpt lat="43.60622" lon="2.35975">
        <ele>490.134243</ele>
        <time>2021-10-18T12:38:05.000Z</time>
      </trkpt>
      <trkpt lat="43.60622" lon="2.35978">
        <ele>490.221651</ele>
        <time>2021-10-18T12:38:06.000Z</time>
      </trkpt>
      <trkpt lat="43.60622" lon="2.3598">
        <ele>490.301128</ele>
        <time>2021-10-18T12:38:07.000Z</time>
      </trkpt>
      <trkpt lat="43.60622" lon="2.35983">
        <ele>490.381738</ele>
        <time>2021-10-18T12:38:08.000Z</time>
      </trkpt>
      <trkpt lat="43.60623" lon="2.35985">
        <ele>490.454329</ele>
        <time>2021-10-18T12:38:09.000Z</time>
      </trkpt>
      <trkpt lat="43.60623" lon="2.35987">
        <ele>490.522579</ele>
        <time>2021-10-18T12:38:10.000Z</time>
      </trkpt>
      <trkpt lat="43.60623" lon="2.35989">
        <ele>490.61204</ele>
        <time>2021-10-18T12:38:11.000Z</time>
      </trkpt>
      <trkpt lat="43.60624" lon="2.35992">
        <ele>490.712665</ele>
        <time>2021-10-18T12:38:12.000Z</time>
      </trkpt>
      <trkpt lat="43.60625" lon="2.35994">
        <ele>490.813569</ele>
        <time>2021-10-18T12:38:13.000Z</time>
      </trkpt>
      <trkpt lat="43.60627" lon="2.35997">
        <ele>490.940131</ele>
        <time>2021-10-18T12:38:14.000Z</time>
      </trkpt>
      <trkpt lat="43.60628" lon="2.36">
        <ele>491.065882</ele>
        <time>2021-10-18T12:38:15.000Z</time>
      </trkpt>
      <trkpt lat="43.6063" lon="2.36003">
        <ele>491.178407</ele>
        <time>2021-10-18T12:38:16.000Z</time>
      </trkpt>
      <trkpt lat="43.60632" lon="2.36005">
        <ele>491.290651</ele>
        <time>2021-10-18T12:38:17.000Z</time>
      </trkpt>
      <trkpt lat="43.60633" lon="2.36007">
        <ele>491.404016</ele>
        <time>2021-10-18T12:38:18.000Z</time>
      </trkpt>
      <trkpt lat="43.60636" lon="2.36009">
        <ele>491.539356</ele>
        <time>2021-10-18T12:38:19.000Z</time>
      </trkpt>
      <trkpt lat="43.60638" lon="2.36011">
        <ele>491.676739</ele>
        <time>2021-10-18T12:38:20.000Z</time>
      </trkpt>
      <trkpt lat="43.60641" lon="2.36012">
        <ele>491.808459</ele>
        <time>2021-10-18T12:38:21.000Z</time>
      </trkpt>
      <trkpt lat="43.60643" lon="2.36013">
        <ele>491.916829</ele>
        <time>2021-10-18T12:38:22.000Z</time>
      </trkpt>
      <trkpt lat="43.60645" lon="2.36013">
        <ele>492.028328</ele>
        <time>2021-10-18T12:38:23.000Z</time>
      </trkpt>
      <trkpt lat="43.60648" lon="2.36014">
        <ele>492.142203</ele>
        <time>2021-10-18T12:38:24.000Z</time>
      </trkpt>
      <trkpt lat="43.6065" lon="2.36016">
        <ele>492.256191</ele>
        <time>2021-10-18T12:38:25.000Z</time>
      </trkpt>
      <trkpt lat="43.60652" lon="2.36016">
        <ele>492.347288</ele>
        <time>2021-10-18T12:38:26.000Z</time>
      </trkpt>
      <trkpt lat="43.60654" lon="2.36016">
        <ele>492.443119</ele>
        <time>2021-10-18T12:38:27.000Z</time>
      </trkpt>
      <trkpt lat="43.60656" lon="2.36017">
        <ele>492.533194</ele>
        <time>2021-10-18T12:38:28.000Z</time>
      </trkpt>
      <trkpt lat="43.60657" lon="2.36018">
        <ele>492.60979</ele>
        <time>2021-10-18T12:38:29.000Z</time>
      </trkpt>
      <trkpt lat="43.60659" lon="2.36018">
        <ele>492.68418</ele>
        <time>2021-10-18T12:38:30.000Z</time>
      </trkpt>
      <trkpt lat="43.6066" lon="2.36019">
        <ele>492.756954</ele>
        <time>2021-10-18T12:38:31.000Z</time>
      </trkpt>
      <trkpt lat="43.60662" lon="2.36019">
        <ele>492.83387</ele>
        <time>2021-10-18T12:38:32.000Z</time>
      </trkpt>
      <trkpt lat="43.60663" lon="2.36019">
        <ele>492.914923</ele>
        <time>2021-10-18T12:38:33.000Z</time>
      </trkpt>
      <trkpt lat="43.60666" lon="2.36019">
        <ele>493.019722</ele>
        <time>2021-10-18T12:38:34.000Z</time>
      </trkpt>
      <trkpt lat="43.60667" lon="2.36019">
        <ele>493.105465</ele>
        <time>2021-10-18T12:38:35.000Z</time>
      </trkpt>
      <trkpt lat="43.60669" lon="2.36019">
        <ele>493.176919</ele>
        <time>2021-10-18T12:38:36.000Z</time>
      </trkpt>
      <trkpt lat="43.60671" lon="2.36019">
        <ele>493.253136</ele>
        <time>2021-10-18T12:38:37.000Z</time>
      </trkpt>
      <trkpt lat="43.60673" lon="2.36019">
        <ele>493.35323</ele>
        <time>2021-10-18T12:38:38.000Z</time>
      </trkpt>
      <trkpt lat="43.60675" lon="2.36019">
        <ele>493.477848</ele>
        <time>2021-10-18T12:38:39.000Z</time>
      </trkpt>
      <trkpt lat="43.60678" lon="2.36018">
        <ele>493.587897</ele>
        <time>2021-10-18T12:38:40.000Z</time>
      </trkpt>
      <trkpt lat="43.6068" lon="2.36018">
        <ele>493.697947</ele>
        <time>2021-10-18T12:38:41.000Z</time>
      </trkpt>
      <trkpt lat="43.60682" lon="2.36018">
        <ele>493.807725</ele>
        <time>2021-10-18T12:38:42.000Z</time>
      </trkpt>
      <trkpt lat="43.60684" lon="2.36018">
        <ele>493.91275</ele>
        <time>2021-10-18T12:38:43.000Z</time>
      </trkpt>
      <trkpt lat="43.60686" lon="2.36017">
        <ele>494.005594</ele>
        <time>2021-10-18T12:38:44.000Z</time>
      </trkpt>
      <trkpt lat="43.60689" lon="2.36016">
        <ele>494.123202</ele>
        <time>2021-10-18T12:38:45.000Z</time>
      </trkpt>
      <trkpt lat="43.60691" lon="2.36016">
        <ele>494.226972</ele>
        <time>2021-10-18T12:38:46.000Z</time>
      </trkpt>
      <trkpt lat="43.60692" lon="2.36015">
        <ele>494.302395</ele>
        <time>2021-10-18T12:38:47.000Z</time>
      </trkpt>
      <trkpt lat="43.60694" lon="2.36014">
        <ele>494.382345</ele>
        <time>2021-10-18T12:38:48.000Z</time>
      </trkpt>
      <trkpt lat="43.60696" lon="2.36013">
        <ele>494.607203</ele>
        <time>2021-10-18T12:38:49.000Z</time>
      </trkpt>
      <trkpt lat="43.60698" lon="2.36012">
        <ele>494.843698</ele>
        <time>2021-10-18T12:38:50.000Z</time>
      </trkpt>
      <trkpt lat="43.60699" lon="2.36012">
        <ele>495.062616</ele>
        <time>2021-10-18T12:38:51.000Z</time>
      </trkpt>
      <trkpt lat="43.60701" lon="2.36011">
        <ele>495.335961</ele>
        <time>2021-10-18T12:38:52.000Z</time>
      </trkpt>
      <trkpt lat="43.60703" lon="2.3601">
        <ele>495.571725</ele>
        <time>2021-10-18T12:38:53.000Z</time>
      </trkpt>
      <trkpt lat="43.60705" lon="2.3601">
        <ele>495.821197</ele>
        <time>2021-10-18T12:38:54.000Z</time>
      </trkpt>
      <trkpt lat="43.60707" lon="2.36009">
        <ele>496.056961</ele>
        <time>2021-10-18T12:38:55.000Z</time>
      </trkpt>
      <trkpt lat="43.60709" lon="2.36009">
        <ele>496.277961</ele>
        <time>2021-10-18T12:38:56.000Z</time>
      </trkpt>
      <trkpt lat="43.60711" lon="2.36009">
        <ele>496.47319</ele>
        <time>2021-10-18T12:38:57.000Z</time>
      </trkpt>
      <trkpt lat="43.60713" lon="2.36009">
        <ele>496.704956</ele>
        <time>2021-10-18T12:38:58.000Z</time>
      </trkpt>
      <trkpt lat="43.60714" lon="2.36009">
        <ele>496.937225</ele>
        <time>2021-10-18T12:38:59.000Z</time>
      </trkpt>
      <trkpt lat="43.60716" lon="2.36009">
        <ele>497.181649</ele>
        <time>2021-10-18T12:39:00.000Z</time>
      </trkpt>
      <trkpt lat="43.60719" lon="2.36009">
        <ele>497.464218</ele>
        <time>2021-10-18T12:39:01.000Z</time>
      </trkpt>
      <trkpt lat="43.60721" lon="2.36009">
        <ele>497.732383</ele>
        <time>2021-10-18T12:39:02.000Z</time>
      </trkpt>
      <trkpt lat="43.60723" lon="2.36009">
        <ele>497.969958</ele>
        <time>2021-10-18T12:39:03.000Z</time>
      </trkpt>
      <trkpt lat="43.60725" lon="2.36008">
        <ele>498.209887</ele>
        <time>2021-10-18T12:39:04.000Z</time>
      </trkpt>
      <trkpt lat="43.60726" lon="2.36006">
        <ele>498.425747</ele>
        <time>2021-10-18T12:39:05.000Z</time>
      </trkpt>
      <trkpt lat="43.60728" lon="2.36005">
        <ele>498.658464</ele>
        <time>2021-10-18T12:39:06.000Z</time>
      </trkpt>
      <trkpt lat="43.6073" lon="2.36005">
        <ele>498.909957</ele>
        <time>2021-10-18T12:39:07.000Z</time>
      </trkpt>
      <trkpt lat="43.60732" lon="2.36004">
        <ele>499.169709</ele>
        <time>2021-10-18T12:39:08.000Z</time>
      </trkpt>
      <trkpt lat="43.60734" lon="2.36004">
        <ele>499.366528</ele>
        <time>2021-10-18T12:39:09.000Z</time>
      </trkpt>
      <trkpt lat="43.60736" lon="2.36004">
        <ele>499.610315</ele>
        <time>2021-10-18T12:39:10.000Z</time>
      </trkpt>
      <trkpt lat="43.60738" lon="2.36004">
        <ele>499.866443</ele>
        <time>2021-10-18T12:39:11.000Z</time>
      </trkpt>
      <trkpt lat="43.60739" lon="2.36004">
        <ele>500.061672</ele>
        <time>2021-10-18T12:39:12.000Z</time>
      </trkpt>
      <trkpt lat="43.60741" lon="2.36004">
        <ele>500.306096</ele>
        <time>2021-10-18T12:39:13.000Z</time>
      </trkpt>
      <trkpt lat="43.60743" lon="2.36004">
        <ele>500.575566</ele>
        <time>2021-10-18T12:39:14.000Z</time>
      </trkpt>
      <trkpt lat="43.60745" lon="2.36005">
        <ele>500.820786</ele>
        <time>2021-10-18T12:39:15.000Z</time>
      </trkpt>
      <trkpt lat="43.60748" lon="2.36005">
        <ele>501.089096</ele>
        <time>2021-10-18T12:39:16.000Z</time>
      </trkpt>
      <trkpt lat="43.60749" lon="2.36005">
        <ele>501.310096</ele>
        <time>2021-10-18T12:39:17.000Z</time>
      </trkpt>
      <trkpt lat="43.60751" lon="2.36005">
        <ele>501.506915</ele>
        <time>2021-10-18T12:39:18.000Z</time>
      </trkpt>
      <trkpt lat="43.60753" lon="2.36005">
        <ele>501.738512</ele>
        <time>2021-10-18T12:39:19.000Z</time>
      </trkpt>
      <trkpt lat="43.60755" lon="2.36005">
        <ele>501.982937</ele>
        <time>2021-10-18T12:39:20.000Z</time>
      </trkpt>
      <trkpt lat="43.60757" lon="2.36006">
        <ele>502.215206</ele>
        <time>2021-10-18T12:39:21.000Z</time>
      </trkpt>
      <trkpt lat="43.60759" lon="2.36006">
        <ele>502.497775</ele>
        <time>2021-10-18T12:39:22.000Z</time>
      </trkpt>
      <trkpt lat="43.60762" lon="2.36006">
        <ele>502.790452</ele>
        <time>2021-10-18T12:39:23.000Z</time>
      </trkpt>
      <trkpt lat="43.60764" lon="2.36006">
        <ele>503.108478</ele>
        <time>2021-10-18T12:39:24.000Z</time>
      </trkpt>
      <trkpt lat="43.60766" lon="2.36007">
        <ele>503.390081</ele>
        <time>2021-10-18T12:39:25.000Z</time>
      </trkpt>
      <trkpt lat="43.60769" lon="2.36007">
        <ele>503.677162</ele>
        <time>2021-10-18T12:39:26.000Z</time>
      </trkpt>
      <trkpt lat="43.60771" lon="2.36008">
        <ele>503.958764</ele>
        <time>2021-10-18T12:39:27.000Z</time>
      </trkpt>
      <trkpt lat="43.60773" lon="2.36008">
        <ele>504.214892</ele>
        <time>2021-10-18T12:39:28.000Z</time>
      </trkpt>
      <trkpt lat="43.60775" lon="2.36008">
        <ele>504.458839</ele>
        <time>2021-10-18T12:39:29.000Z</time>
      </trkpt>
      <trkpt lat="43.60778" lon="2.36008">
        <ele>504.751915</ele>
        <time>2021-10-18T12:39:30.000Z</time>
      </trkpt>
      <trkpt lat="43.6078" lon="2.36009">
        <ele>505.022394</ele>
        <time>2021-10-18T12:39:31.000Z</time>
      </trkpt>
      <trkpt lat="43.60782" lon="2.36009">
        <ele>505.313784</ele>
        <time>2021-10-18T12:39:32.000Z</time>
      </trkpt>
      <trkpt lat="43.60784" lon="2.3601">
        <ele>505.59109</ele>
        <time>2021-10-18T12:39:33.000Z</time>
      </trkpt>
      <trkpt lat="43.60786" lon="2.36011">
        <ele>505.842213</ele>
        <time>2021-10-18T12:39:34.000Z</time>
      </trkpt>
      <trkpt lat="43.60788" lon="2.36012">
        <ele>506.093337</ele>
        <time>2021-10-18T12:39:35.000Z</time>
      </trkpt>
      <trkpt lat="43.6079" lon="2.36013">
        <ele>506.341182</ele>
        <time>2021-10-18T12:39:36.000Z</time>
      </trkpt>
      <trkpt lat="43.60791" lon="2.36014">
        <ele>506.534178</ele>
        <time>2021-10-18T12:39:37.000Z</time>
      </trkpt>
      <trkpt lat="43.60793" lon="2.36015">
        <ele>506.710442</ele>
        <time>2021-10-18T12:39:38.000Z</time>
      </trkpt>
      <trkpt lat="43.60794" lon="2.36015">
        <ele>506.880521</ele>
        <time>2021-10-18T12:39:39.000Z</time>
      </trkpt>
      <trkpt lat="43.60796" lon="2.36017">
        <ele>507.106259</ele>
        <time>2021-10-18T12:39:40.000Z</time>
      </trkpt>
      <trkpt lat="43.60797" lon="2.36019">
        <ele>507.352326</ele>
        <time>2021-10-18T12:39:41.000Z</time>
      </trkpt>
      <trkpt lat="43.60799" lon="2.3602">
        <ele>507.593589</ele>
        <time>2021-10-18T12:39:42.000Z</time>
      </trkpt>
      <trkpt lat="43.608" lon="2.36021">
        <ele>507.764426</ele>
        <time>2021-10-18T12:39:43.000Z</time>
      </trkpt>
      <trkpt lat="43.60802" lon="2.36022">
        <ele>507.969007</ele>
        <time>2021-10-18T12:39:44.000Z</time>
      </trkpt>
      <trkpt lat="43.60803" lon="2.36023">
        <ele>508.161131</ele>
        <time>2021-10-18T12:39:45.000Z</time>
      </trkpt>
      <trkpt lat="43.60804" lon="2.36024">
        <ele>508.331968</ele>
        <time>2021-10-18T12:39:46.000Z</time>
      </trkpt>
      <trkpt lat="43.60806" lon="2.36025">
        <ele>508.5539</ele>
        <time>2021-10-18T12:39:47.000Z</time>
      </trkpt>
      <trkpt lat="43.60808" lon="2.36026">
        <ele>508.784777</ele>
        <time>2021-10-18T12:39:48.000Z</time>
      </trkpt>
      <trkpt lat="43.60809" lon="2.36028">
        <ele>509.040613</ele>
        <time>2021-10-18T12:39:49.000Z</time>
      </trkpt>
      <trkpt lat="43.60811" lon="2.3603">
        <ele>509.252867</ele>
        <time>2021-10-18T12:39:50.000Z</time>
      </trkpt>
      <trkpt lat="43.60812" lon="2.36031">
        <ele>509.47437</ele>
        <time>2021-10-18T12:39:51.000Z</time>
      </trkpt>
      <trkpt lat="43.60813" lon="2.36033">
        <ele>509.675593</ele>
        <time>2021-10-18T12:39:52.000Z</time>
      </trkpt>
      <trkpt lat="43.60814" lon="2.36035">
        <ele>509.898116</ele>
        <time>2021-10-18T12:39:53.000Z</time>
      </trkpt>
      <trkpt lat="43.60816" lon="2.36036">
        <ele>510.129141</ele>
        <time>2021-10-18T12:39:54.000Z</time>
      </trkpt>
      <trkpt lat="43.60817" lon="2.36038">
        <ele>510.332457</ele>
        <time>2021-10-18T12:39:55.000Z</time>
      </trkpt>
      <trkpt lat="43.60818" lon="2.36039">
        <ele>510.520885</ele>
        <time>2021-10-18T12:39:56.000Z</time>
      </trkpt>
      <trkpt lat="43.60819" lon="2.36041">
        <ele>510.700843</ele>
        <time>2021-10-18T12:39:57.000Z</time>
      </trkpt>
      <trkpt lat="43.6082" lon="2.36043">
        <ele>510.886712</ele>
        <time>2021-10-18T12:39:58.000Z</time>
      </trkpt>
      <trkpt lat="43.60821" lon="2.36044">
        <ele>511.086954</ele>
        <time>2021-10-18T12:39:59.000Z</time>
      </trkpt>
      <trkpt lat="43.60822" lon="2.36046">
        <ele>511.267285</ele>
        <time>2021-10-18T12:40:00.000Z</time>
      </trkpt>
      <trkpt lat="43.60822" lon="2.36048">
        <ele>511.41303</ele>
        <time>2021-10-18T12:40:01.000Z</time>
      </trkpt>
      <trkpt lat="43.60823" lon="2.3605">
        <ele>511.599438</ele>
        <time>2021-10-18T12:40:02.000Z</time>
      </trkpt>
      <trkpt lat="43.60824" lon="2.36052">
        <ele>511.850062</ele>
        <time>2021-10-18T12:40:03.000Z</time>
      </trkpt>
      <trkpt lat="43.60826" lon="2.36054">
        <ele>512.08078</ele>
        <time>2021-10-18T12:40:04.000Z</time>
      </trkpt>
      <trkpt lat="43.60826" lon="2.36056">
        <ele>512.274765</ele>
        <time>2021-10-18T12:40:05.000Z</time>
      </trkpt>
      <trkpt lat="43.60827" lon="2.36058">
        <ele>512.484197</ele>
        <time>2021-10-18T12:40:06.000Z</time>
      </trkpt>
      <trkpt lat="43.60828" lon="2.3606">
        <ele>512.713445</ele>
        <time>2021-10-18T12:40:07.000Z</time>
      </trkpt>
      <trkpt lat="43.60829" lon="2.36062">
        <ele>512.935114</ele>
        <time>2021-10-18T12:40:08.000Z</time>
      </trkpt>
      <trkpt lat="43.60831" lon="2.36063">
        <ele>513.123542</ele>
        <time>2021-10-18T12:40:09.000Z</time>
      </trkpt>
      <trkpt lat="43.60831" lon="2.36064">
        <ele>513.27412</ele>
        <time>2021-10-18T12:40:10.000Z</time>
      </trkpt>
      <trkpt lat="43.60832" lon="2.36065">
        <ele>513.425657</ele>
        <time>2021-10-18T12:40:11.000Z</time>
      </trkpt>
      <trkpt lat="43.60833" lon="2.36066">
        <ele>513.541096</ele>
        <time>2021-10-18T12:40:12.000Z</time>
      </trkpt>
      <trkpt lat="43.60834" lon="2.36067">
        <ele>513.670348</ele>
        <time>2021-10-18T12:40:13.000Z</time>
      </trkpt>
      <trkpt lat="43.60835" lon="2.36068">
        <ele>513.807951</ele>
        <time>2021-10-18T12:40:14.000Z</time>
      </trkpt>
      <trkpt lat="43.60836" lon="2.36069">
        <ele>513.939476</ele>
        <time>2021-10-18T12:40:15.000Z</time>
      </trkpt>
      <trkpt lat="43.60837" lon="2.3607">
        <ele>514.105925</ele>
        <time>2021-10-18T12:40:16.000Z</time>
      </trkpt>
      <trkpt lat="43.60838" lon="2.36071">
        <ele>514.251416</ele>
        <time>2021-10-18T12:40:17.000Z</time>
      </trkpt>
      <trkpt lat="43.60839" lon="2.36072">
        <ele>514.389019</ele>
        <time>2021-10-18T12:40:18.000Z</time>
      </trkpt>
      <trkpt lat="43.60839" lon="2.36073">
        <ele>514.539597</ele>
        <time>2021-10-18T12:40:19.000Z</time>
      </trkpt>
      <trkpt lat="43.6084" lon="2.36074">
        <ele>514.662357</ele>
        <time>2021-10-18T12:40:20.000Z</time>
      </trkpt>
      <trkpt lat="43.60841" lon="2.36075">
        <ele>514.777796</ele>
        <time>2021-10-18T12:40:21.000Z</time>
      </trkpt>
      <trkpt lat="43.60842" lon="2.36076">
        <ele>514.894373</ele>
        <time>2021-10-18T12:40:22.000Z</time>
      </trkpt>
      <trkpt lat="43.60842" lon="2.36077">
        <ele>515.046859</ele>
        <time>2021-10-18T12:40:23.000Z</time>
      </trkpt>
      <trkpt lat="43.60844" lon="2.36078">
        <ele>515.222418</ele>
        <time>2021-10-18T12:40:24.000Z</time>
      </trkpt>
      <trkpt lat="43.60845" lon="2.36079">
        <ele>515.37291</ele>
        <time>2021-10-18T12:40:25.000Z</time>
      </trkpt>
      <trkpt lat="43.60845" lon="2.3608">
        <ele>515.504435</ele>
        <time>2021-10-18T12:40:26.000Z</time>
      </trkpt>
      <trkpt lat="43.60847" lon="2.36082">
        <ele>515.695911</ele>
        <time>2021-10-18T12:40:27.000Z</time>
      </trkpt>
      <trkpt lat="43.60848" lon="2.36083">
        <ele>515.881815</ele>
        <time>2021-10-18T12:40:28.000Z</time>
      </trkpt>
      <trkpt lat="43.60849" lon="2.36084">
        <ele>516.055383</ele>
        <time>2021-10-18T12:40:29.000Z</time>
      </trkpt>
      <trkpt lat="43.6085" lon="2.36085">
        <ele>516.201877</ele>
        <time>2021-10-18T12:40:30.000Z</time>
      </trkpt>
      <trkpt lat="43.60851" lon="2.36086">
        <ele>516.325399</ele>
        <time>2021-10-18T12:40:31.000Z</time>
      </trkpt>
      <trkpt lat="43.60852" lon="2.36087">
        <ele>516.367132</ele>
        <time>2021-10-18T12:40:32.000Z</time>
      </trkpt>
      <trkpt lat="43.60853" lon="2.36089">
        <ele>516.423315</ele>
        <time>2021-10-18T12:40:33.000Z</time>
      </trkpt>
      <trkpt lat="43.60854" lon="2.3609">
        <ele>516.480596</ele>
        <time>2021-10-18T12:40:34.000Z</time>
      </trkpt>
      <trkpt lat="43.60855" lon="2.36091">
        <ele>516.534691</ele>
        <time>2021-10-18T12:40:35.000Z</time>
      </trkpt>
      <trkpt lat="43.60857" lon="2.36092">
        <ele>516.602145</ele>
        <time>2021-10-18T12:40:36.000Z</time>
      </trkpt>
      <trkpt lat="43.60859" lon="2.36092">
        <ele>516.690602</ele>
        <time>2021-10-18T12:40:37.000Z</time>
      </trkpt>
      <trkpt lat="43.60861" lon="2.36093">
        <ele>516.768807</ele>
        <time>2021-10-18T12:40:38.000Z</time>
      </trkpt>
      <trkpt lat="43.60862" lon="2.36094">
        <ele>516.815499</ele>
        <time>2021-10-18T12:40:39.000Z</time>
      </trkpt>
      <trkpt lat="43.60863" lon="2.36094">
        <ele>516.861864</ele>
        <time>2021-10-18T12:40:40.000Z</time>
      </trkpt>
      <trkpt lat="43.60865" lon="2.36095">
        <ele>516.909797</ele>
        <time>2021-10-18T12:40:41.000Z</time>
      </trkpt>
      <trkpt lat="43.60866" lon="2.36096">
        <ele>516.96845</ele>
        <time>2021-10-18T12:40:42.000Z</time>
      </trkpt>
      <trkpt lat="43.60868" lon="2.36096">
        <ele>517.034351</ele>
        <time>2021-10-18T12:40:43.000Z</time>
      </trkpt>
      <trkpt lat="43.6087" lon="2.36097">
        <ele>517.105371</ele>
        <time>2021-10-18T12:40:44.000Z</time>
      </trkpt>
      <trkpt lat="43.60871" lon="2.36098">
        <ele>517.160427</ele>
        <time>2021-10-18T12:40:45.000Z</time>
      </trkpt>
      <trkpt lat="43.60872" lon="2.36098">
        <ele>517.21045</ele>
        <time>2021-10-18T12:40:46.000Z</time>
      </trkpt>
      <trkpt lat="43.60874" lon="2.36098">
        <ele>517.282276</ele>
        <time>2021-10-18T12:40:47.000Z</time>
      </trkpt>
      <trkpt lat="43.60876" lon="2.36099">
        <ele>517.340232</ele>
        <time>2021-10-18T12:40:48.000Z</time>
      </trkpt>
      <trkpt lat="43.60877" lon="2.361">
        <ele>517.399699</ele>
        <time>2021-10-18T12:40:49.000Z</time>
      </trkpt>
      <trkpt lat="43.60879" lon="2.361">
        <ele>517.460769</ele>
        <time>2021-10-18T12:40:50.000Z</time>
      </trkpt>
      <trkpt lat="43.60881" lon="2.361">
        <ele>517.532337</ele>
        <time>2021-10-18T12:40:51.000Z</time>
      </trkpt>
      <trkpt lat="43.60883" lon="2.36101">
        <ele>517.601884</ele>
        <time>2021-10-18T12:40:52.000Z</time>
      </trkpt>
      <trkpt lat="43.60884" lon="2.36102">
        <ele>517.666771</ele>
        <time>2021-10-18T12:40:53.000Z</time>
      </trkpt>
      <trkpt lat="43.60886" lon="2.36103">
        <ele>517.727266</ele>
        <time>2021-10-18T12:40:54.000Z</time>
      </trkpt>
      <trkpt lat="43.60887" lon="2.36103">
        <ele>517.779672</ele>
        <time>2021-10-18T12:40:55.000Z</time>
      </trkpt>
      <trkpt lat="43.60888" lon="2.36104">
        <ele>517.837628</ele>
        <time>2021-10-18T12:40:56.000Z</time>
      </trkpt>
      <trkpt lat="43.6089" lon="2.36105">
        <ele>517.901538</ele>
        <time>2021-10-18T12:40:57.000Z</time>
      </trkpt>
      <trkpt lat="43.60892" lon="2.36106">
        <ele>517.976142</ele>
        <time>2021-10-18T12:40:58.000Z</time>
      </trkpt>
      <trkpt lat="43.60894" lon="2.36106">
        <ele>518.045102</ele>
        <time>2021-10-18T12:40:59.000Z</time>
      </trkpt>
      <trkpt lat="43.60895" lon="2.36106">
        <ele>518.101701</ele>
        <time>2021-10-18T12:41:00.000Z</time>
      </trkpt>
      <trkpt lat="43.60897" lon="2.36107">
        <ele>518.162772</ele>
        <time>2021-10-18T12:41:01.000Z</time>
      </trkpt>
      <trkpt lat="43.60899" lon="2.36107">
        <ele>518.242391</ele>
        <time>2021-10-18T12:41:02.000Z</time>
      </trkpt>
      <trkpt lat="43.60901" lon="2.36108">
        <ele>518.327836</ele>
        <time>2021-10-18T12:41:03.000Z</time>
      </trkpt>
      <trkpt lat="43.60903" lon="2.36108">
        <ele>518.400481</ele>
        <time>2021-10-18T12:41:04.000Z</time>
      </trkpt>
      <trkpt lat="43.60905" lon="2.36109">
        <ele>518.492087</ele>
        <time>2021-10-18T12:41:05.000Z</time>
      </trkpt>
      <trkpt lat="43.60908" lon="2.36109">
        <ele>518.590343</ele>
        <time>2021-10-18T12:41:06.000Z</time>
      </trkpt>
      <trkpt lat="43.6091" lon="2.3611">
        <ele>518.669963</ele>
        <time>2021-10-18T12:41:07.000Z</time>
      </trkpt>
      <trkpt lat="43.60912" lon="2.3611">
        <ele>518.738437</ele>
        <time>2021-10-18T12:41:08.000Z</time>
      </trkpt>
      <trkpt lat="43.60915" lon="2.36111">
        <ele>518.840753</ele>
        <time>2021-10-18T12:41:09.000Z</time>
      </trkpt>
      <trkpt lat="43.60917" lon="2.36111">
        <ele>518.935278</ele>
        <time>2021-10-18T12:41:10.000Z</time>
      </trkpt>
      <trkpt lat="43.60919" lon="2.36112">
        <ele>519.013482</ele>
        <time>2021-10-18T12:41:11.000Z</time>
      </trkpt>
      <trkpt lat="43.60921" lon="2.36113">
        <ele>519.110206</ele>
        <time>2021-10-18T12:41:12.000Z</time>
      </trkpt>
      <trkpt lat="43.60924" lon="2.36115">
        <ele>519.20008</ele>
        <time>2021-10-18T12:41:13.000Z</time>
      </trkpt>
      <trkpt lat="43.60925" lon="2.36116">
        <ele>519.276447</ele>
        <time>2021-10-18T12:41:14.000Z</time>
      </trkpt>
      <trkpt lat="43.60927" lon="2.36117">
        <ele>519.355451</ele>
        <time>2021-10-18T12:41:15.000Z</time>
      </trkpt>
      <trkpt lat="43.6093" lon="2.36118">
        <ele>519.44244</ele>
        <time>2021-10-18T12:41:16.000Z</time>
      </trkpt>
      <trkpt lat="43.60932" lon="2.36119">
        <ele>519.533858</ele>
        <time>2021-10-18T12:41:17.000Z</time>
      </trkpt>
      <trkpt lat="43.60934" lon="2.3612">
        <ele>519.626587</ele>
        <time>2021-10-18T12:41:18.000Z</time>
      </trkpt>
      <trkpt lat="43.60937" lon="2.3612">
        <ele>519.725181</ele>
        <time>2021-10-18T12:41:19.000Z</time>
      </trkpt>
      <trkpt lat="43.60939" lon="2.36121">
        <ele>519.816341</ele>
        <time>2021-10-18T12:41:20.000Z</time>
      </trkpt>
      <trkpt lat="43.60942" lon="2.36121">
        <ele>519.917014</ele>
        <time>2021-10-18T12:41:21.000Z</time>
      </trkpt>
      <trkpt lat="43.60944" lon="2.36122">
        <ele>520.004003</ele>
        <time>2021-10-18T12:41:22.000Z</time>
      </trkpt>
      <trkpt lat="43.60946" lon="2.36123">
        <ele>520.093085</ele>
        <time>2021-10-18T12:41:23.000Z</time>
      </trkpt>
      <trkpt lat="43.60949" lon="2.36124">
        <ele>520.186489</ele>
        <time>2021-10-18T12:41:24.000Z</time>
      </trkpt>
      <trkpt lat="43.60952" lon="2.36126">
        <ele>520.295794</ele>
        <time>2021-10-18T12:41:25.000Z</time>
      </trkpt>
      <trkpt lat="43.60954" lon="2.36128">
        <ele>520.409607</ele>
        <time>2021-10-18T12:41:26.000Z</time>
      </trkpt>
      <trkpt lat="43.60957" lon="2.3613">
        <ele>520.517795</ele>
        <time>2021-10-18T12:41:27.000Z</time>
      </trkpt>
      <trkpt lat="43.60959" lon="2.36132">
        <ele>520.621925</ele>
        <time>2021-10-18T12:41:28.000Z</time>
      </trkpt>
      <trkpt lat="43.60961" lon="2.36135">
        <ele>520.745756</ele>
        <time>2021-10-18T12:41:29.000Z</time>
      </trkpt>
      <trkpt lat="43.60964" lon="2.36138">
        <ele>520.862725</ele>
        <time>2021-10-18T12:41:30.000Z</time>
      </trkpt>
      <trkpt lat="43.60966" lon="2.36141">
        <ele>520.983429</ele>
        <time>2021-10-18T12:41:31.000Z</time>
      </trkpt>
      <trkpt lat="43.60968" lon="2.36145">
        <ele>521.111965</ele>
        <time>2021-10-18T12:41:32.000Z</time>
      </trkpt>
      <trkpt lat="43.6097" lon="2.36148">
        <ele>521.244277</ele>
        <time>2021-10-18T12:41:33.000Z</time>
      </trkpt>
      <trkpt lat="43.60972" lon="2.36152">
        <ele>521.374374</ele>
        <time>2021-10-18T12:41:34.000Z</time>
      </trkpt>
      <trkpt lat="43.60974" lon="2.36156">
        <ele>521.504766</ele>
        <time>2021-10-18T12:41:35.000Z</time>
      </trkpt>
      <trkpt lat="43.60976" lon="2.3616">
        <ele>521.627267</ele>
        <time>2021-10-18T12:41:36.000Z</time>
      </trkpt>
      <trkpt lat="43.60977" lon="2.36164">
        <ele>521.746809</ele>
        <time>2021-10-18T12:41:37.000Z</time>
      </trkpt>
      <trkpt lat="43.60979" lon="2.36168">
        <ele>521.859761</ele>
        <time>2021-10-18T12:41:38.000Z</time>
      </trkpt>
      <trkpt lat="43.6098" lon="2.36172">
        <ele>521.975079</ele>
        <time>2021-10-18T12:41:39.000Z</time>
      </trkpt>
      <trkpt lat="43.60982" lon="2.36175">
        <ele>522.090397</ele>
        <time>2021-10-18T12:41:40.000Z</time>
      </trkpt>
      <trkpt lat="43.60983" lon="2.36179">
        <ele>522.202961</ele>
        <time>2021-10-18T12:41:41.000Z</time>
      </trkpt>
      <trkpt lat="43.60985" lon="2.36183">
        <ele>522.323054</ele>
        <time>2021-10-18T12:41:42.000Z</time>
      </trkpt>
      <trkpt lat="43.60986" lon="2.36186">
        <ele>522.438371</ele>
        <time>2021-10-18T12:41:43.000Z</time>
      </trkpt>
      <trkpt lat="43.60988" lon="2.3619">
        <ele>522.546644</ele>
        <time>2021-10-18T12:41:44.000Z</time>
      </trkpt>
      <trkpt lat="43.60989" lon="2.36193">
        <ele>522.638935</ele>
        <time>2021-10-18T12:41:45.000Z</time>
      </trkpt>
      <trkpt lat="43.6099" lon="2.36196">
        <ele>522.732291</ele>
        <time>2021-10-18T12:41:46.000Z</time>
      </trkpt>
      <trkpt lat="43.60991" lon="2.36199">
        <ele>522.817195</ele>
        <time>2021-10-18T12:41:47.000Z</time>
      </trkpt>
      <trkpt lat="43.60991" lon="2.36202">
        <ele>522.913321</ele>
        <time>2021-10-18T12:41:48.000Z</time>
      </trkpt>
      <trkpt lat="43.60992" lon="2.36206">
        <ele>523.012366</ele>
        <time>2021-10-18T12:41:49.000Z</time>
      </trkpt>
      <trkpt lat="43.60992" lon="2.36209">
        <ele>523.100812</ele>
        <time>2021-10-18T12:41:50.000Z</time>
      </trkpt>
      <trkpt lat="43.60993" lon="2.36213">
        <ele>523.188848</ele>
        <time>2021-10-18T12:41:51.000Z</time>
      </trkpt>
      <trkpt lat="43.60993" lon="2.36216">
        <ele>523.282021</ele>
        <time>2021-10-18T12:41:52.000Z</time>
      </trkpt>
      <trkpt lat="43.60994" lon="2.3622">
        <ele>523.377223</ele>
        <time>2021-10-18T12:41:53.000Z</time>
      </trkpt>
      <trkpt lat="43.60994" lon="2.36224">
        <ele>523.471865</ele>
        <time>2021-10-18T12:41:54.000Z</time>
      </trkpt>
      <trkpt lat="43.60994" lon="2.36228">
        <ele>523.569967</ele>
        <time>2021-10-18T12:41:55.000Z</time>
      </trkpt>
      <trkpt lat="43.60994" lon="2.36231">
        <ele>523.660677</ele>
        <time>2021-10-18T12:41:56.000Z</time>
      </trkpt>
      <trkpt lat="43.60995" lon="2.36235">
        <ele>523.75385</ele>
        <time>2021-10-18T12:41:57.000Z</time>
      </trkpt>
      <trkpt lat="43.60995" lon="2.36239">
        <ele>523.847022</ele>
        <time>2021-10-18T12:41:58.000Z</time>
      </trkpt>
      <trkpt lat="43.60996" lon="2.36242">
        <ele>523.935272</ele>
        <time>2021-10-18T12:41:59.000Z</time>
      </trkpt>
      <trkpt lat="43.60996" lon="2.36246">
        <ele>524.018604</ele>
        <time>2021-10-18T12:42:00.000Z</time>
      </trkpt>
      <trkpt lat="43.60997" lon="2.36249">
        <ele>524.099479</ele>
        <time>2021-10-18T12:42:01.000Z</time>
      </trkpt>
      <trkpt lat="43.60997" lon="2.36252">
        <ele>524.181012</ele>
        <time>2021-10-18T12:42:02.000Z</time>
      </trkpt>
      <trkpt lat="43.60998" lon="2.36255">
        <ele>524.266655</ele>
        <time>2021-10-18T12:42:03.000Z</time>
      </trkpt>
      <trkpt lat="43.60998" lon="2.36259">
        <ele>524.351961</ele>
        <time>2021-10-18T12:42:04.000Z</time>
      </trkpt>
      <trkpt lat="43.60999" lon="2.36262">
        <ele>524.442671</ele>
        <time>2021-10-18T12:42:05.000Z</time>
      </trkpt>
      <trkpt lat="43.60999" lon="2.36265">
        <ele>524.523035</ele>
        <time>2021-10-18T12:42:06.000Z</time>
      </trkpt>
      <trkpt lat="43.60999" lon="2.36268">
        <ele>524.592855</ele>
        <time>2021-10-18T12:42:07.000Z</time>
      </trkpt>
      <trkpt lat="43.60999" lon="2.36271">
        <ele>524.663351</ele>
        <time>2021-10-18T12:42:08.000Z</time>
      </trkpt>
      <trkpt lat="43.60999" lon="2.36274">
        <ele>524.740635</ele>
        <time>2021-10-18T12:42:09.000Z</time>
      </trkpt>
      <trkpt lat="43.61" lon="2.36277">
        <ele>524.825941</ele>
        <time>2021-10-18T12:42:10.000Z</time>
      </trkpt>
      <trkpt lat="43.61" lon="2.36281">
        <ele>524.913382</ele>
        <time>2021-10-18T12:42:11.000Z</time>
      </trkpt>
      <trkpt lat="43.61001" lon="2.36284">
        <ele>524.988499</ele>
        <time>2021-10-18T12:42:12.000Z</time>
      </trkpt>
      <trkpt lat="43.61001" lon="2.36287">
        <ele>525.070032</ele>
        <time>2021-10-18T12:42:13.000Z</time>
      </trkpt>
      <trkpt lat="43.61002" lon="2.36291">
        <ele>525.160466</ele>
        <time>2021-10-18T12:42:14.000Z</time>
      </trkpt>
      <trkpt lat="43.61002" lon="2.36294">
        <ele>525.241343</ele>
        <time>2021-10-18T12:42:15.000Z</time>
      </trkpt>
      <trkpt lat="43.61003" lon="2.36297">
        <ele>525.315119</ele>
        <time>2021-10-18T12:42:16.000Z</time>
      </trkpt>
      <trkpt lat="43.61003" lon="2.363">
        <ele>525.391092</ele>
        <time>2021-10-18T12:42:17.000Z</time>
      </trkpt>
      <trkpt lat="43.61004" lon="2.36302">
        <ele>525.465338</ele>
        <time>2021-10-18T12:42:18.000Z</time>
      </trkpt>
      <trkpt lat="43.61004" lon="2.36306">
        <ele>525.547665</ele>
        <time>2021-10-18T12:42:19.000Z</time>
      </trkpt>
      <trkpt lat="43.61005" lon="2.36309">
        <ele>525.628542</ele>
        <time>2021-10-18T12:42:20.000Z</time>
      </trkpt>
      <trkpt lat="43.61005" lon="2.36312">
        <ele>525.708906</ele>
        <time>2021-10-18T12:42:21.000Z</time>
      </trkpt>
      <trkpt lat="43.61005" lon="2.36315">
        <ele>525.788604</ele>
        <time>2021-10-18T12:42:22.000Z</time>
      </trkpt>
      <trkpt lat="43.61005" lon="2.36318">
        <ele>525.865888</ele>
        <time>2021-10-18T12:42:23.000Z</time>
      </trkpt>
      <trkpt lat="43.61006" lon="2.36321">
        <ele>525.932088</ele>
        <time>2021-10-18T12:42:24.000Z</time>
      </trkpt>
      <trkpt lat="43.61006" lon="2.36324">
        <ele>526.003168</ele>
        <time>2021-10-18T12:42:25.000Z</time>
      </trkpt>
      <trkpt lat="43.61006" lon="2.36327">
        <ele>526.074249</ele>
        <time>2021-10-18T12:42:26.000Z</time>
      </trkpt>
      <trkpt lat="43.61007" lon="2.3633">
        <ele>526.150919</ele>
        <time>2021-10-18T12:42:27.000Z</time>
      </trkpt>
      <trkpt lat="43.61008" lon="2.36332">
        <ele>526.226452</ele>
        <time>2021-10-18T12:42:28.000Z</time>
      </trkpt>
      <trkpt lat="43.61008" lon="2.36335">
        <ele>526.304876</ele>
        <time>2021-10-18T12:42:29.000Z</time>
      </trkpt>
      <trkpt lat="43.61009" lon="2.36339">
        <ele>526.38771</ele>
        <time>2021-10-18T12:42:30.000Z</time>
      </trkpt>
      <trkpt lat="43.61009" lon="2.36342">
        <ele>526.465604</ele>
        <time>2021-10-18T12:42:31.000Z</time>
      </trkpt>
      <trkpt lat="43.61009" lon="2.36345">
        <ele>526.542811</ele>
        <time>2021-10-18T12:42:32.000Z</time>
      </trkpt>
      <trkpt lat="43.61009" lon="2.36348">
        <ele>526.610144</ele>
        <time>2021-10-18T12:42:33.000Z</time>
      </trkpt>
      <trkpt lat="43.61009" lon="2.36351">
        <ele>526.690508</ele>
        <time>2021-10-18T12:42:34.000Z</time>
      </trkpt>
      <trkpt lat="43.61009" lon="2.36354">
        <ele>526.77028</ele>
        <time>2021-10-18T12:42:35.000Z</time>
      </trkpt>
      <trkpt lat="43.6101" lon="2.36357">
        <ele>526.845313</ele>
        <time>2021-10-18T12:42:36.000Z</time>
      </trkpt>
      <trkpt lat="43.61009" lon="2.3636">
        <ele>526.915133</ele>
        <time>2021-10-18T12:42:37.000Z</time>
      </trkpt>
      <trkpt lat="43.6101" lon="2.36363">
        <ele>527.000777</ele>
        <time>2021-10-18T12:42:38.000Z</time>
      </trkpt>
      <trkpt lat="43.61011" lon="2.36367">
        <ele>527.089025</ele>
        <time>2021-10-18T12:42:39.000Z</time>
      </trkpt>
      <trkpt lat="43.61011" lon="2.3637">
        <ele>527.177061</ele>
        <time>2021-10-18T12:42:40.000Z</time>
      </trkpt>
      <trkpt lat="43.61012" lon="2.36373">
        <ele>527.251307</ele>
        <time>2021-10-18T12:42:41.000Z</time>
      </trkpt>
      <trkpt lat="43.61012" lon="2.36376">
        <ele>527.327441</ele>
        <time>2021-10-18T12:42:42.000Z</time>
      </trkpt>
      <trkpt lat="43.61013" lon="2.36379">
        <ele>527.399995</ele>
        <time>2021-10-18T12:42:43.000Z</time>
      </trkpt>
      <trkpt lat="43.61013" lon="2.36381">
        <ele>527.462259</ele>
        <time>2021-10-18T12:42:44.000Z</time>
      </trkpt>
      <trkpt lat="43.61013" lon="2.36384">
        <ele>527.522032</ele>
        <time>2021-10-18T12:42:45.000Z</time>
      </trkpt>
      <trkpt lat="43.61013" lon="2.36386">
        <ele>527.586878</ele>
        <time>2021-10-18T12:42:46.000Z</time>
      </trkpt>
      <trkpt lat="43.61013" lon="2.36389">
        <ele>527.647536</ele>
        <time>2021-10-18T12:42:47.000Z</time>
      </trkpt>
      <trkpt lat="43.61013" lon="2.36391">
        <ele>527.709895</ele>
        <time>2021-10-18T12:42:48.000Z</time>
      </trkpt>
      <trkpt lat="43.61014" lon="2.36394">
        <ele>527.776095</ele>
        <time>2021-10-18T12:42:49.000Z</time>
      </trkpt>
      <trkpt lat="43.61014" lon="2.36396">
        <ele>527.844733</ele>
        <time>2021-10-18T12:42:50.000Z</time>
      </trkpt>
      <trkpt lat="43.61014" lon="2.36399">
        <ele>527.917693</ele>
        <time>2021-10-18T12:42:51.000Z</time>
      </trkpt>
      <trkpt lat="43.61014" lon="2.36402">
        <ele>527.997391</ele>
        <time>2021-10-18T12:42:52.000Z</time>
      </trkpt>
      <trkpt lat="43.61014" lon="2.36406">
        <ele>528.074599</ele>
        <time>2021-10-18T12:42:53.000Z</time>
      </trkpt>
      <trkpt lat="43.61014" lon="2.36409">
        <ele>528.149395</ele>
        <time>2021-10-18T12:42:54.000Z</time>
      </trkpt>
      <trkpt lat="43.61015" lon="2.36412">
        <ele>528.224821</ele>
        <time>2021-10-18T12:42:55.000Z</time>
      </trkpt>
      <trkpt lat="43.61015" lon="2.36415">
        <ele>528.308153</ele>
        <time>2021-10-18T12:42:56.000Z</time>
      </trkpt>
      <trkpt lat="43.61015" lon="2.36418">
        <ele>528.393459</ele>
        <time>2021-10-18T12:42:57.000Z</time>
      </trkpt>
      <trkpt lat="43.61015" lon="2.36422">
        <ele>528.478138</ele>
        <time>2021-10-18T12:42:58.000Z</time>
      </trkpt>
      <trkpt lat="43.61015" lon="2.36425">
        <ele>528.560398</ele>
        <time>2021-10-18T12:42:59.000Z</time>
      </trkpt>
      <trkpt lat="43.61016" lon="2.36428">
        <ele>528.633923</ele>
        <time>2021-10-18T12:43:00.000Z</time>
      </trkpt>
      <trkpt lat="43.61016" lon="2.3643">
        <ele>528.699495</ele>
        <time>2021-10-18T12:43:01.000Z</time>
      </trkpt>
      <trkpt lat="43.61016" lon="2.36434">
        <ele>528.784174</ele>
        <time>2021-10-18T12:43:02.000Z</time>
      </trkpt>
      <trkpt lat="43.61016" lon="2.36437">
        <ele>528.866363</ele>
        <time>2021-10-18T12:43:03.000Z</time>
      </trkpt>
      <trkpt lat="43.61016" lon="2.36441">
        <ele>528.951112</ele>
        <time>2021-10-18T12:43:04.000Z</time>
      </trkpt>
      <trkpt lat="43.61017" lon="2.36444">
        <ele>529.041821</ele>
        <time>2021-10-18T12:43:05.000Z</time>
      </trkpt>
      <trkpt lat="43.61017" lon="2.36447">
        <ele>529.119715</ele>
        <time>2021-10-18T12:43:06.000Z</time>
      </trkpt>
      <trkpt lat="43.61017" lon="2.3645">
        <ele>529.195688</ele>
        <time>2021-10-18T12:43:07.000Z</time>
      </trkpt>
      <trkpt lat="43.61018" lon="2.36454">
        <ele>529.285177</ele>
        <time>2021-10-18T12:43:08.000Z</time>
      </trkpt>
      <trkpt lat="43.61018" lon="2.36456">
        <ele>529.372839</ele>
        <time>2021-10-18T12:43:09.000Z</time>
      </trkpt>
      <trkpt lat="43.61019" lon="2.36459">
        <ele>529.466963</ele>
        <time>2021-10-18T12:43:10.000Z</time>
      </trkpt>
      <trkpt lat="43.61019" lon="2.36462">
        <ele>529.564325</ele>
        <time>2021-10-18T12:43:11.000Z</time>
      </trkpt>
      <trkpt lat="43.6102" lon="2.36465">
        <ele>529.65747</ele>
        <time>2021-10-18T12:43:12.000Z</time>
      </trkpt>
      <trkpt lat="43.6102" lon="2.36468">
        <ele>529.766304</ele>
        <time>2021-10-18T12:43:13.000Z</time>
      </trkpt>
      <trkpt lat="43.61019" lon="2.36471">
        <ele>529.871938</ele>
        <time>2021-10-18T12:43:14.000Z</time>
      </trkpt>
      <trkpt lat="43.61019" lon="2.36474">
        <ele>529.982286</ele>
        <time>2021-10-18T12:43:15.000Z</time>
      </trkpt>
      <trkpt lat="43.61019" lon="2.36478">
        <ele>530.111631</ele>
        <time>2021-10-18T12:43:16.000Z</time>
      </trkpt>
      <trkpt lat="43.61019" lon="2.36482">
        <ele>530.227151</ele>
        <time>2021-10-18T12:43:17.000Z</time>
      </trkpt>
      <trkpt lat="43.61019" lon="2.36485">
        <ele>530.348983</ele>
        <time>2021-10-18T12:43:18.000Z</time>
      </trkpt>
      <trkpt lat="43.6102" lon="2.36489">
        <ele>530.477252</ele>
        <time>2021-10-18T12:43:19.000Z</time>
      </trkpt>
      <trkpt lat="43.61021" lon="2.36493">
        <ele>530.612221</ele>
        <time>2021-10-18T12:43:20.000Z</time>
      </trkpt>
      <trkpt lat="43.61022" lon="2.36497">
        <ele>530.751975</ele>
        <time>2021-10-18T12:43:21.000Z</time>
      </trkpt>
      <trkpt lat="43.61024" lon="2.365">
        <ele>530.888245</ele>
        <time>2021-10-18T12:43:22.000Z</time>
      </trkpt>
      <trkpt lat="43.61026" lon="2.36504">
        <ele>531.046585</ele>
        <time>2021-10-18T12:43:23.000Z</time>
      </trkpt>
      <trkpt lat="43.61028" lon="2.36507">
        <ele>531.190854</ele>
        <time>2021-10-18T12:43:24.000Z</time>
      </trkpt>
      <trkpt lat="43.6103" lon="2.36511">
        <ele>531.329903</ele>
        <time>2021-10-18T12:43:25.000Z</time>
      </trkpt>
      <trkpt lat="43.61032" lon="2.36514">
        <ele>531.458155</ele>
        <time>2021-10-18T12:43:26.000Z</time>
      </trkpt>
      <trkpt lat="43.61033" lon="2.36517">
        <ele>531.579943</ele>
        <time>2021-10-18T12:43:27.000Z</time>
      </trkpt>
      <trkpt lat="43.61034" lon="2.3652">
        <ele>531.710924</ele>
        <time>2021-10-18T12:43:28.000Z</time>
      </trkpt>
      <trkpt lat="43.61036" lon="2.36524">
        <ele>531.83992</ele>
        <time>2021-10-18T12:43:29.000Z</time>
      </trkpt>
      <trkpt lat="43.61037" lon="2.36527">
        <ele>531.965755</ele>
        <time>2021-10-18T12:43:30.000Z</time>
      </trkpt>
      <trkpt lat="43.61038" lon="2.36531">
        <ele>532.087543</ele>
        <time>2021-10-18T12:43:31.000Z</time>
      </trkpt>
      <trkpt lat="43.61039" lon="2.36534">
        <ele>532.213377</ele>
        <time>2021-10-18T12:43:32.000Z</time>
      </trkpt>
      <trkpt lat="43.6104" lon="2.36537">
        <ele>532.329954</ele>
        <time>2021-10-18T12:43:33.000Z</time>
      </trkpt>
      <trkpt lat="43.61041" lon="2.36541">
        <ele>532.450998</ele>
        <time>2021-10-18T12:43:34.000Z</time>
      </trkpt>
      <trkpt lat="43.61041" lon="2.36544">
        <ele>532.561245</ele>
        <time>2021-10-18T12:43:35.000Z</time>
      </trkpt>
      <trkpt lat="43.61042" lon="2.36547">
        <ele>532.668339</ele>
        <time>2021-10-18T12:43:36.000Z</time>
      </trkpt>
      <trkpt lat="43.61043" lon="2.3655">
        <ele>532.772187</ele>
        <time>2021-10-18T12:43:37.000Z</time>
      </trkpt>
      <trkpt lat="43.61043" lon="2.36554">
        <ele>532.879283</ele>
        <time>2021-10-18T12:43:38.000Z</time>
      </trkpt>
      <trkpt lat="43.61043" lon="2.36557">
        <ele>532.988971</ele>
        <time>2021-10-18T12:43:39.000Z</time>
      </trkpt>
      <trkpt lat="43.61043" lon="2.3656">
        <ele>533.097805</ele>
        <time>2021-10-18T12:43:40.000Z</time>
      </trkpt>
      <trkpt lat="43.61043" lon="2.36564">
        <ele>533.216532</ele>
        <time>2021-10-18T12:43:41.000Z</time>
      </trkpt>
      <trkpt lat="43.61043" lon="2.36567">
        <ele>533.335259</ele>
        <time>2021-10-18T12:43:42.000Z</time>
      </trkpt>
      <trkpt lat="43.61043" lon="2.36571">
        <ele>533.447483</ele>
        <time>2021-10-18T12:43:43.000Z</time>
      </trkpt>
      <trkpt lat="43.61044" lon="2.36574">
        <ele>533.560444</ele>
        <time>2021-10-18T12:43:44.000Z</time>
      </trkpt>
      <trkpt lat="43.61044" lon="2.36578">
        <ele>533.675873</ele>
        <time>2021-10-18T12:43:45.000Z</time>
      </trkpt>
      <trkpt lat="43.61044" lon="2.36581">
        <ele>533.801527</ele>
        <time>2021-10-18T12:43:46.000Z</time>
      </trkpt>
      <trkpt lat="43.61044" lon="2.36586">
        <ele>533.93705</ele>
        <time>2021-10-18T12:43:47.000Z</time>
      </trkpt>
      <trkpt lat="43.61044" lon="2.3659">
        <ele>534.069048</ele>
        <time>2021-10-18T12:43:48.000Z</time>
      </trkpt>
      <trkpt lat="43.61043" lon="2.36594">
        <ele>534.201673</ele>
        <time>2021-10-18T12:43:49.000Z</time>
      </trkpt>
      <trkpt lat="43.61043" lon="2.36598">
        <ele>534.333592</ele>
        <time>2021-10-18T12:43:50.000Z</time>
      </trkpt>
      <trkpt lat="43.61043" lon="2.36602">
        <ele>534.468886</ele>
        <time>2021-10-18T12:43:51.000Z</time>
      </trkpt>
      <trkpt lat="43.61043" lon="2.36606">
        <ele>534.608594</ele>
        <time>2021-10-18T12:43:52.000Z</time>
      </trkpt>
      <trkpt lat="43.61042" lon="2.3661">
        <ele>534.751064</ele>
        <time>2021-10-18T12:43:53.000Z</time>
      </trkpt>
      <trkpt lat="43.61042" lon="2.36615">
        <ele>534.902839</ele>
        <time>2021-10-18T12:43:54.000Z</time>
      </trkpt>
      <trkpt lat="43.61042" lon="2.36619">
        <ele>535.051876</ele>
        <time>2021-10-18T12:43:55.000Z</time>
      </trkpt>
      <trkpt lat="43.61042" lon="2.36624">
        <ele>535.193763</ele>
        <time>2021-10-18T12:43:56.000Z</time>
      </trkpt>
      <trkpt lat="43.61042" lon="2.36628">
        <ele>535.326388</ele>
        <time>2021-10-18T12:43:57.000Z</time>
      </trkpt>
      <trkpt lat="43.61042" lon="2.36631">
        <ele>535.448498</ele>
        <time>2021-10-18T12:43:58.000Z</time>
      </trkpt>
      <trkpt lat="43.61042" lon="2.36635">
        <ele>535.568009</ele>
        <time>2021-10-18T12:43:59.000Z</time>
      </trkpt>
      <trkpt lat="43.61042" lon="2.36638">
        <ele>535.68014</ele>
        <time>2021-10-18T12:44:00.000Z</time>
      </trkpt>
      <trkpt lat="43.61042" lon="2.36642">
        <ele>535.795569</ele>
        <time>2021-10-18T12:44:01.000Z</time>
      </trkpt>
      <trkpt lat="43.61042" lon="2.36645">
        <ele>535.910999</ele>
        <time>2021-10-18T12:44:02.000Z</time>
      </trkpt>
      <trkpt lat="43.61042" lon="2.36649">
        <ele>536.026428</ele>
        <time>2021-10-18T12:44:03.000Z</time>
      </trkpt>
      <trkpt lat="43.61042" lon="2.36652">
        <ele>536.141857</ele>
        <time>2021-10-18T12:44:04.000Z</time>
      </trkpt>
      <trkpt lat="43.61042" lon="2.36656">
        <ele>536.253988</ele>
        <time>2021-10-18T12:44:05.000Z</time>
      </trkpt>
      <trkpt lat="43.61042" lon="2.36659">
        <ele>536.369418</ele>
        <time>2021-10-18T12:44:06.000Z</time>
      </trkpt>
      <trkpt lat="43.61042" lon="2.36662">
        <ele>536.474953</ele>
        <time>2021-10-18T12:44:07.000Z</time>
      </trkpt>
      <trkpt lat="43.61042" lon="2.36665">
        <ele>536.57719</ele>
        <time>2021-10-18T12:44:08.000Z</time>
      </trkpt>
      <trkpt lat="43.61042" lon="2.36668">
        <ele>536.672832</ele>
        <time>2021-10-18T12:44:09.000Z</time>
      </trkpt>
      <trkpt lat="43.61042" lon="2.36671">
        <ele>536.768473</ele>
        <time>2021-10-18T12:44:10.000Z</time>
      </trkpt>
      <trkpt lat="43.61042" lon="2.36674">
        <ele>536.860817</ele>
        <time>2021-10-18T12:44:11.000Z</time>
      </trkpt>
      <trkpt lat="43.61042" lon="2.36677">
        <ele>536.956458</ele>
        <time>2021-10-18T12:44:12.000Z</time>
      </trkpt>
      <trkpt lat="43.61042" lon="2.3668">
        <ele>537.055397</ele>
        <time>2021-10-18T12:44:13.000Z</time>
      </trkpt>
      <trkpt lat="43.61042" lon="2.36683">
        <ele>537.154337</ele>
        <time>2021-10-18T12:44:14.000Z</time>
      </trkpt>
      <trkpt lat="43.61042" lon="2.36686">
        <ele>537.253381</ele>
        <time>2021-10-18T12:44:15.000Z</time>
      </trkpt>
      <trkpt lat="43.61042" lon="2.36689">
        <ele>537.349994</ele>
        <time>2021-10-18T12:44:16.000Z</time>
      </trkpt>
      <trkpt lat="43.61042" lon="2.36692">
        <ele>537.445743</ele>
        <time>2021-10-18T12:44:17.000Z</time>
      </trkpt>
      <trkpt lat="43.61042" lon="2.36695">
        <ele>537.668494</ele>
        <time>2021-10-18T12:44:18.000Z</time>
      </trkpt>
      <trkpt lat="43.61042" lon="2.36698">
        <ele>537.89868</ele>
        <time>2021-10-18T12:44:19.000Z</time>
      </trkpt>
      <trkpt lat="43.61043" lon="2.36701">
        <ele>538.11935</ele>
        <time>2021-10-18T12:44:20.000Z</time>
      </trkpt>
      <trkpt lat="43.61043" lon="2.36703">
        <ele>538.313952</ele>
        <time>2021-10-18T12:44:21.000Z</time>
      </trkpt>
      <trkpt lat="43.61043" lon="2.36706">
        <ele>538.499068</ele>
        <time>2021-10-18T12:44:22.000Z</time>
      </trkpt>
      <trkpt lat="43.61043" lon="2.36708">
        <ele>538.681787</ele>
        <time>2021-10-18T12:44:23.000Z</time>
      </trkpt>
      <trkpt lat="43.61044" lon="2.3671">
        <ele>538.874396</ele>
        <time>2021-10-18T12:44:24.000Z</time>
      </trkpt>
      <trkpt lat="43.61044" lon="2.36713">
        <ele>539.049528</ele>
        <time>2021-10-18T12:44:25.000Z</time>
      </trkpt>
      <trkpt lat="43.61043" lon="2.36715">
        <ele>539.2256</ele>
        <time>2021-10-18T12:44:26.000Z</time>
      </trkpt>
      <trkpt lat="43.61044" lon="2.36717">
        <ele>539.388292</ele>
        <time>2021-10-18T12:44:27.000Z</time>
      </trkpt>
      <trkpt lat="43.61044" lon="2.36719">
        <ele>539.540306</ele>
        <time>2021-10-18T12:44:28.000Z</time>
      </trkpt>
      <trkpt lat="43.61044" lon="2.36721">
        <ele>539.692321</ele>
        <time>2021-10-18T12:44:29.000Z</time>
      </trkpt>
      <trkpt lat="43.61044" lon="2.36723">
        <ele>539.847563</ele>
        <time>2021-10-18T12:44:30.000Z</time>
      </trkpt>
      <trkpt lat="43.61044" lon="2.36725">
        <ele>539.976775</ele>
        <time>2021-10-18T12:44:31.000Z</time>
      </trkpt>
      <trkpt lat="43.61044" lon="2.36727">
        <ele>540.14399</ele>
        <time>2021-10-18T12:44:32.000Z</time>
      </trkpt>
      <trkpt lat="43.61044" lon="2.36729">
        <ele>540.311206</ele>
        <time>2021-10-18T12:44:33.000Z</time>
      </trkpt>
      <trkpt lat="43.61044" lon="2.36731">
        <ele>540.479734</ele>
        <time>2021-10-18T12:44:34.000Z</time>
      </trkpt>
      <trkpt lat="43.61043" lon="2.36733">
        <ele>540.621822</ele>
        <time>2021-10-18T12:44:35.000Z</time>
      </trkpt>
      <trkpt lat="43.61042" lon="2.36734">
        <ele>540.758531</ele>
        <time>2021-10-18T12:44:36.000Z</time>
      </trkpt>
      <trkpt lat="43.61041" lon="2.36736">
        <ele>540.92343</ele>
        <time>2021-10-18T12:44:37.000Z</time>
      </trkpt>
      <trkpt lat="43.6104" lon="2.36737">
        <ele>541.096398</ele>
        <time>2021-10-18T12:44:38.000Z</time>
      </trkpt>
      <trkpt lat="43.61038" lon="2.36738">
        <ele>541.251922</ele>
        <time>2021-10-18T12:44:39.000Z</time>
      </trkpt>
      <trkpt lat="43.61037" lon="2.36739">
        <ele>541.386136</ele>
        <time>2021-10-18T12:44:40.000Z</time>
      </trkpt>
      <trkpt lat="43.61036" lon="2.3674">
        <ele>541.545184</ele>
        <time>2021-10-18T12:44:41.000Z</time>
      </trkpt>
      <trkpt lat="43.61034" lon="2.3674">
        <ele>541.746941</ele>
        <time>2021-10-18T12:44:42.000Z</time>
      </trkpt>
      <trkpt lat="43.61032" lon="2.3674">
        <ele>541.925561</ele>
        <time>2021-10-18T12:44:43.000Z</time>
      </trkpt>
      <trkpt lat="43.61031" lon="2.36741">
        <ele>542.062307</ele>
        <time>2021-10-18T12:44:44.000Z</time>
      </trkpt>
      <trkpt lat="43.6103" lon="2.36742">
        <ele>542.228516</ele>
        <time>2021-10-18T12:44:45.000Z</time>
      </trkpt>
      <trkpt lat="43.61028" lon="2.36742">
        <ele>542.352668</ele>
        <time>2021-10-18T12:44:46.000Z</time>
      </trkpt>
      <trkpt lat="43.61027" lon="2.36743">
        <ele>542.482255</ele>
        <time>2021-10-18T12:44:47.000Z</time>
      </trkpt>
      <trkpt lat="43.61026" lon="2.36743">
        <ele>542.642627</ele>
        <time>2021-10-18T12:44:48.000Z</time>
      </trkpt>
      <trkpt lat="43.61025" lon="2.36743">
        <ele>542.76033</ele>
        <time>2021-10-18T12:44:49.000Z</time>
      </trkpt>
      <trkpt lat="43.61024" lon="2.36744">
        <ele>542.869619</ele>
        <time>2021-10-18T12:44:50.000Z</time>
      </trkpt>
      <trkpt lat="43.61023" lon="2.36745">
        <ele>542.937398</ele>
        <time>2021-10-18T12:44:51.000Z</time>
      </trkpt>
      <trkpt lat="43.61021" lon="2.36746">
        <ele>543.200555</ele>
        <time>2021-10-18T12:44:58.000Z</time>
      </trkpt>
      <trkpt lat="43.6102" lon="2.36746">
        <ele>543.334769</ele>
        <time>2021-10-18T12:44:59.000Z</time>
      </trkpt>
      <trkpt lat="43.61019" lon="2.36747">
        <ele>543.443084</ele>
        <time>2021-10-18T12:45:00.000Z</time>
      </trkpt>
      <trkpt lat="43.61018" lon="2.36748">
        <ele>543.582898</ele>
        <time>2021-10-18T12:45:01.000Z</time>
      </trkpt>
      <trkpt lat="43.61016" lon="2.36748">
        <ele>543.732975</ele>
        <time>2021-10-18T12:45:02.000Z</time>
      </trkpt>
      <trkpt lat="43.61015" lon="2.36749">
        <ele>543.854541</ele>
        <time>2021-10-18T12:45:03.000Z</time>
      </trkpt>
      <trkpt lat="43.61014" lon="2.36749">
        <ele>543.996202</ele>
        <time>2021-10-18T12:45:04.000Z</time>
      </trkpt>
      <trkpt lat="43.61013" lon="2.3675">
        <ele>544.137863</ele>
        <time>2021-10-18T12:45:05.000Z</time>
      </trkpt>
      <trkpt lat="43.61012" lon="2.3675">
        <ele>544.241546</ele>
        <time>2021-10-18T12:45:06.000Z</time>
      </trkpt>
      <trkpt lat="43.61011" lon="2.36751">
        <ele>544.340795</ele>
        <time>2021-10-18T12:45:07.000Z</time>
      </trkpt>
      <trkpt lat="43.6101" lon="2.36752">
        <ele>544.46211</ele>
        <time>2021-10-18T12:45:08.000Z</time>
      </trkpt>
      <trkpt lat="43.61009" lon="2.36752">
        <ele>544.570539</ele>
        <time>2021-10-18T12:45:09.000Z</time>
      </trkpt>
      <trkpt lat="43.61008" lon="2.36753">
        <ele>544.708782</ele>
        <time>2021-10-18T12:45:10.000Z</time>
      </trkpt>
      <trkpt lat="43.61007" lon="2.36754">
        <ele>544.84036</ele>
        <time>2021-10-18T12:45:11.000Z</time>
      </trkpt>
      <trkpt lat="43.61005" lon="2.36754">
        <ele>544.974332</ele>
        <time>2021-10-18T12:45:12.000Z</time>
      </trkpt>
      <trkpt lat="43.61004" lon="2.36755">
        <ele>545.136316</ele>
        <time>2021-10-18T12:45:13.000Z</time>
      </trkpt>
      <trkpt lat="43.61002" lon="2.36756">
        <ele>545.302525</ele>
        <time>2021-10-18T12:45:14.000Z</time>
      </trkpt>
      <trkpt lat="43.61001" lon="2.36756">
        <ele>545.471172</ele>
        <time>2021-10-18T12:45:15.000Z</time>
      </trkpt>
      <trkpt lat="43.60999" lon="2.36756">
        <ele>545.619896</ele>
        <time>2021-10-18T12:45:16.000Z</time>
      </trkpt>
      <trkpt lat="43.60998" lon="2.36755">
        <ele>545.744049</ele>
        <time>2021-10-18T12:45:17.000Z</time>
      </trkpt>
      <trkpt lat="43.60997" lon="2.36755">
        <ele>545.873636</ele>
        <time>2021-10-18T12:45:18.000Z</time>
      </trkpt>
      <trkpt lat="43.60996" lon="2.36755">
        <ele>545.991339</ele>
        <time>2021-10-18T12:45:19.000Z</time>
      </trkpt>
      <trkpt lat="43.60995" lon="2.36756">
        <ele>546.137812</ele>
        <time>2021-10-18T12:45:20.000Z</time>
      </trkpt>
      <trkpt lat="43.60993" lon="2.36756">
        <ele>546.299796</ele>
        <time>2021-10-18T12:45:21.000Z</time>
      </trkpt>
      <trkpt lat="43.60992" lon="2.36756">
        <ele>546.460168</ele>
        <time>2021-10-18T12:45:22.000Z</time>
      </trkpt>
      <trkpt lat="43.6099" lon="2.36758">
        <ele>546.629252</ele>
        <time>2021-10-18T12:45:23.000Z</time>
      </trkpt>
      <trkpt lat="43.60989" lon="2.36758">
        <ele>546.759756</ele>
        <time>2021-10-18T12:45:24.000Z</time>
      </trkpt>
      <trkpt lat="43.60989" lon="2.36759">
        <ele>546.836695</ele>
        <time>2021-10-18T12:45:25.000Z</time>
      </trkpt>
      <trkpt lat="43.60988" lon="2.36759">
        <ele>546.879368</ele>
        <time>2021-10-18T12:45:26.000Z</time>
      </trkpt>
      <trkpt lat="43.60988" lon="2.36759">
        <ele>546.914338</ele>
        <time>2021-10-18T12:45:27.000Z</time>
      </trkpt>
      <trkpt lat="43.60988" lon="2.36759">
        <ele>546.946734</ele>
        <time>2021-10-18T12:45:28.000Z</time>
      </trkpt>
      <trkpt lat="43.60988" lon="2.36759">
        <ele>546.946734</ele>
        <time>2021-10-18T12:45:29.000Z</time>
      </trkpt>
      <trkpt lat="43.60983" lon="2.3676">
        <ele>547.443852</ele>
        <time>2021-10-18T12:45:33.000Z</time>
      </trkpt>
      <trkpt lat="43.60982" lon="2.3676">
        <ele>547.501079</ele>
        <time>2021-10-18T12:45:34.000Z</time>
      </trkpt>
      <trkpt lat="43.60982" lon="2.3676">
        <ele>547.578018</ele>
        <time>2021-10-18T12:45:35.000Z</time>
      </trkpt>
      <trkpt lat="43.60981" lon="2.3676">
        <ele>547.651501</ele>
        <time>2021-10-18T12:45:36.000Z</time>
      </trkpt>
      <trkpt lat="43.60981" lon="2.3676">
        <ele>547.693491</ele>
        <time>2021-10-18T12:45:37.000Z</time>
      </trkpt>
      <trkpt lat="43.6098" lon="2.3676">
        <ele>547.725888</ele>
        <time>2021-10-18T12:45:38.000Z</time>
      </trkpt>
      <trkpt lat="43.60978" lon="2.36761">
        <ele>547.944467</ele>
        <time>2021-10-18T12:45:44.000Z</time>
      </trkpt>
      <trkpt lat="43.60978" lon="2.36761">
        <ele>547.992249</ele>
        <time>2021-10-18T12:45:45.000Z</time>
      </trkpt>
      <trkpt lat="43.60978" lon="2.36762">
        <ele>548.023245</ele>
        <time>2021-10-18T12:45:46.000Z</time>
      </trkpt>
      <trkpt lat="43.60978" lon="2.36762">
        <ele>548.033743</ele>
        <time>2021-10-18T12:45:48.000Z</time>
      </trkpt>
      <trkpt lat="43.60977" lon="2.36762">
        <ele>548.065235</ele>
        <time>2021-10-18T12:45:49.000Z</time>
      </trkpt>
      <trkpt lat="43.60968" lon="2.36767">
        <ele>549.146884</ele>
        <time>2021-10-18T12:46:24.000Z</time>
      </trkpt>
      <trkpt lat="43.60967" lon="2.36767">
        <ele>549.190658</ele>
        <time>2021-10-18T12:46:25.000Z</time>
      </trkpt>
      <trkpt lat="43.60967" lon="2.36767">
        <ele>549.223055</ele>
        <time>2021-10-18T12:46:26.000Z</time>
      </trkpt>
      <trkpt lat="43.60967" lon="2.36767">
        <ele>549.241529</ele>
        <time>2021-10-18T12:46:27.000Z</time>
      </trkpt>
      <trkpt lat="43.60967" lon="2.36767">
        <ele>549.273021</ele>
        <time>2021-10-18T12:46:28.000Z</time>
      </trkpt>
      <trkpt lat="43.60964" lon="2.36768">
        <ele>549.595292</ele>
        <time>2021-10-18T12:46:33.000Z</time>
      </trkpt>
      <trkpt lat="43.60962" lon="2.36768">
        <ele>549.719444</ele>
        <time>2021-10-18T12:46:34.000Z</time>
      </trkpt>
      <trkpt lat="43.60961" lon="2.36769">
        <ele>549.833898</ele>
        <time>2021-10-18T12:46:35.000Z</time>
      </trkpt>
      <trkpt lat="43.60961" lon="2.3677">
        <ele>549.960058</ele>
        <time>2021-10-18T12:46:36.000Z</time>
      </trkpt>
      <trkpt lat="43.60959" lon="2.36771">
        <ele>550.107184</ele>
        <time>2021-10-18T12:46:37.000Z</time>
      </trkpt>
      <trkpt lat="43.60958" lon="2.36772">
        <ele>550.27939</ele>
        <time>2021-10-18T12:46:38.000Z</time>
      </trkpt>
      <trkpt lat="43.60956" lon="2.36771">
        <ele>550.42714</ele>
        <time>2021-10-18T12:46:39.000Z</time>
      </trkpt>
      <trkpt lat="43.60955" lon="2.36771">
        <ele>550.553111</ele>
        <time>2021-10-18T12:46:40.000Z</time>
      </trkpt>
      <trkpt lat="43.60954" lon="2.36772">
        <ele>550.721758</ele>
        <time>2021-10-18T12:46:41.000Z</time>
      </trkpt>
      <trkpt lat="43.60952" lon="2.36771">
        <ele>550.86892</ele>
        <time>2021-10-18T12:46:42.000Z</time>
      </trkpt>
      <trkpt lat="43.60951" lon="2.36771">
        <ele>551.038421</ele>
        <time>2021-10-18T12:46:43.000Z</time>
      </trkpt>
      <trkpt lat="43.60949" lon="2.36771">
        <ele>551.249607</ele>
        <time>2021-10-18T12:46:44.000Z</time>
      </trkpt>
      <trkpt lat="43.60947" lon="2.36772">
        <ele>551.456035</ele>
        <time>2021-10-18T12:46:45.000Z</time>
      </trkpt>
      <trkpt lat="43.60945" lon="2.36773">
        <ele>551.672304</ele>
        <time>2021-10-18T12:46:46.000Z</time>
      </trkpt>
      <trkpt lat="43.60943" lon="2.36774">
        <ele>551.898368</ele>
        <time>2021-10-18T12:46:47.000Z</time>
      </trkpt>
      <trkpt lat="43.60941" lon="2.36775">
        <ele>552.071337</ele>
        <time>2021-10-18T12:46:48.000Z</time>
      </trkpt>
      <trkpt lat="43.6094" lon="2.36776">
        <ele>552.201841</ele>
        <time>2021-10-18T12:46:49.000Z</time>
      </trkpt>
      <trkpt lat="43.60939" lon="2.36777">
        <ele>552.354495</ele>
        <time>2021-10-18T12:46:50.000Z</time>
      </trkpt>
      <trkpt lat="43.60938" lon="2.36778">
        <ele>552.513543</ele>
        <time>2021-10-18T12:46:51.000Z</time>
      </trkpt>
      <trkpt lat="43.60936" lon="2.36779">
        <ele>552.664735</ele>
        <time>2021-10-18T12:46:52.000Z</time>
      </trkpt>
      <trkpt lat="43.60935" lon="2.3678">
        <ele>552.846181</ele>
        <time>2021-10-18T12:46:53.000Z</time>
      </trkpt>
      <trkpt lat="43.60934" lon="2.36782">
        <ele>552.994252</ele>
        <time>2021-10-18T12:46:54.000Z</time>
      </trkpt>
      <trkpt lat="43.60933" lon="2.36783">
        <ele>553.197945</ele>
        <time>2021-10-18T12:46:55.000Z</time>
      </trkpt>
      <trkpt lat="43.60931" lon="2.36785">
        <ele>553.432373</ele>
        <time>2021-10-18T12:46:56.000Z</time>
      </trkpt>
      <trkpt lat="43.60929" lon="2.36787">
        <ele>553.662113</ele>
        <time>2021-10-18T12:46:57.000Z</time>
      </trkpt>
      <trkpt lat="43.60927" lon="2.36788">
        <ele>553.878382</ele>
        <time>2021-10-18T12:46:58.000Z</time>
      </trkpt>
      <trkpt lat="43.60925" lon="2.36789">
        <ele>554.096961</ele>
        <time>2021-10-18T12:46:59.000Z</time>
      </trkpt>
      <trkpt lat="43.60923" lon="2.3679">
        <ele>554.323739</ele>
        <time>2021-10-18T12:47:00.000Z</time>
      </trkpt>
      <trkpt lat="43.60921" lon="2.3679">
        <ele>554.544554</ele>
        <time>2021-10-18T12:47:01.000Z</time>
      </trkpt>
      <trkpt lat="43.60919" lon="2.36792">
        <ele>554.792859</ele>
        <time>2021-10-18T12:47:02.000Z</time>
      </trkpt>
      <trkpt lat="43.60917" lon="2.36793">
        <ele>554.993275</ele>
        <time>2021-10-18T12:47:03.000Z</time>
      </trkpt>
      <trkpt lat="43.60915" lon="2.36794">
        <ele>555.247558</ele>
        <time>2021-10-18T12:47:04.000Z</time>
      </trkpt>
      <trkpt lat="43.60913" lon="2.36796">
        <ele>555.464417</ele>
        <time>2021-10-18T12:47:05.000Z</time>
      </trkpt>
      <trkpt lat="43.60912" lon="2.36798">
        <ele>555.688633</ele>
        <time>2021-10-18T12:47:06.000Z</time>
      </trkpt>
      <trkpt lat="43.6091" lon="2.368">
        <ele>555.929614</ele>
        <time>2021-10-18T12:47:07.000Z</time>
      </trkpt>
      <trkpt lat="43.60909" lon="2.36803">
        <ele>556.188251</ele>
        <time>2021-10-18T12:47:08.000Z</time>
      </trkpt>
      <trkpt lat="43.60908" lon="2.36806">
        <ele>556.322285</ele>
        <time>2021-10-18T12:47:09.000Z</time>
      </trkpt>
      <trkpt lat="43.60907" lon="2.36808">
        <ele>556.295168</ele>
        <time>2021-10-18T12:47:10.000Z</time>
      </trkpt>
      <trkpt lat="43.60907" lon="2.36811">
        <ele>556.271304</ele>
        <time>2021-10-18T12:47:11.000Z</time>
      </trkpt>
      <trkpt lat="43.60906" lon="2.36813">
        <ele>556.244668</ele>
        <time>2021-10-18T12:47:12.000Z</time>
      </trkpt>
      <trkpt lat="43.60906" lon="2.36815">
        <ele>556.22309</ele>
        <time>2021-10-18T12:47:13.000Z</time>
      </trkpt>
      <trkpt lat="43.60905" lon="2.36818">
        <ele>556.198297</ele>
        <time>2021-10-18T12:47:14.000Z</time>
      </trkpt>
      <trkpt lat="43.60905" lon="2.3682">
        <ele>556.174792</ele>
        <time>2021-10-18T12:47:15.000Z</time>
      </trkpt>
      <trkpt lat="43.60904" lon="2.36822">
        <ele>556.152251</ele>
        <time>2021-10-18T12:47:16.000Z</time>
      </trkpt>
      <trkpt lat="43.60904" lon="2.36824">
        <ele>556.131955</ele>
        <time>2021-10-18T12:47:17.000Z</time>
      </trkpt>
      <trkpt lat="43.60904" lon="2.36826">
        <ele>556.114068</ele>
        <time>2021-10-18T12:47:18.000Z</time>
      </trkpt>
      <trkpt lat="43.60904" lon="2.36828">
        <ele>556.096181</ele>
        <time>2021-10-18T12:47:19.000Z</time>
      </trkpt>
      <trkpt lat="43.60904" lon="2.3683">
        <ele>556.07725</ele>
        <time>2021-10-18T12:47:20.000Z</time>
      </trkpt>
      <trkpt lat="43.60904" lon="2.36832">
        <ele>556.05598</ele>
        <time>2021-10-18T12:47:21.000Z</time>
      </trkpt>
      <trkpt lat="43.60904" lon="2.36834">
        <ele>556.035066</ele>
        <time>2021-10-18T12:47:22.000Z</time>
      </trkpt>
      <trkpt lat="43.60905" lon="2.36836">
        <ele>556.013099</ele>
        <time>2021-10-18T12:47:23.000Z</time>
      </trkpt>
      <trkpt lat="43.60906" lon="2.36838">
        <ele>555.993665</ele>
        <time>2021-10-18T12:47:24.000Z</time>
      </trkpt>
      <trkpt lat="43.60906" lon="2.36839">
        <ele>555.978201</ele>
        <time>2021-10-18T12:47:25.000Z</time>
      </trkpt>
      <trkpt lat="43.60906" lon="2.36841">
        <ele>555.961791</ele>
        <time>2021-10-18T12:47:26.000Z</time>
      </trkpt>
      <trkpt lat="43.60907" lon="2.36843">
        <ele>555.940278</ele>
        <time>2021-10-18T12:47:27.000Z</time>
      </trkpt>
      <trkpt lat="43.60907" lon="2.36845">
        <ele>555.920215</ele>
        <time>2021-10-18T12:47:28.000Z</time>
      </trkpt>
      <trkpt lat="43.60908" lon="2.36846">
        <ele>555.899912</ele>
        <time>2021-10-18T12:47:29.000Z</time>
      </trkpt>
      <trkpt lat="43.60909" lon="2.36848">
        <ele>555.878727</ele>
        <time>2021-10-18T12:47:30.000Z</time>
      </trkpt>
      <trkpt lat="43.60909" lon="2.3685">
        <ele>555.857702</ele>
        <time>2021-10-18T12:47:31.000Z</time>
      </trkpt>
      <trkpt lat="43.6091" lon="2.36852">
        <ele>555.835267</ele>
        <time>2021-10-18T12:47:32.000Z</time>
      </trkpt>
      <trkpt lat="43.6091" lon="2.36855">
        <ele>555.813997</ele>
        <time>2021-10-18T12:47:33.000Z</time>
      </trkpt>
      <trkpt lat="43.6091" lon="2.36857">
        <ele>555.793129</ele>
        <time>2021-10-18T12:47:34.000Z</time>
      </trkpt>
      <trkpt lat="43.6091" lon="2.36859">
        <ele>555.766298</ele>
        <time>2021-10-18T12:47:35.000Z</time>
      </trkpt>
      <trkpt lat="43.6091" lon="2.36862">
        <ele>555.73844</ele>
        <time>2021-10-18T12:47:36.000Z</time>
      </trkpt>
      <trkpt lat="43.6091" lon="2.36865">
        <ele>555.712027</ele>
        <time>2021-10-18T12:47:37.000Z</time>
      </trkpt>
      <trkpt lat="43.60909" lon="2.36867">
        <ele>555.686671</ele>
        <time>2021-10-18T12:47:38.000Z</time>
      </trkpt>
      <trkpt lat="43.60908" lon="2.36869">
        <ele>555.66309</ele>
        <time>2021-10-18T12:47:39.000Z</time>
      </trkpt>
      <trkpt lat="43.60907" lon="2.36871">
        <ele>555.642492</ele>
        <time>2021-10-18T12:47:40.000Z</time>
      </trkpt>
      <trkpt lat="43.60907" lon="2.36873">
        <ele>555.619579</ele>
        <time>2021-10-18T12:47:41.000Z</time>
      </trkpt>
      <trkpt lat="43.60906" lon="2.36876">
        <ele>555.593323</ele>
        <time>2021-10-18T12:47:42.000Z</time>
      </trkpt>
      <trkpt lat="43.60905" lon="2.36878">
        <ele>555.568092</ele>
        <time>2021-10-18T12:47:43.000Z</time>
      </trkpt>
      <trkpt lat="43.60905" lon="2.3688">
        <ele>555.545846</ele>
        <time>2021-10-18T12:47:44.000Z</time>
      </trkpt>
      <trkpt lat="43.60905" lon="2.36882">
        <ele>555.523984</ele>
        <time>2021-10-18T12:47:45.000Z</time>
      </trkpt>
      <trkpt lat="43.60905" lon="2.36885">
        <ele>555.501087</ele>
        <time>2021-10-18T12:47:46.000Z</time>
      </trkpt>
      <trkpt lat="43.60905" lon="2.36887">
        <ele>555.479817</ele>
        <time>2021-10-18T12:47:47.000Z</time>
      </trkpt>
      <trkpt lat="43.60905" lon="2.36889">
        <ele>555.459895</ele>
        <time>2021-10-18T12:47:48.000Z</time>
      </trkpt>
      <trkpt lat="43.60905" lon="2.36891">
        <ele>555.442132</ele>
        <time>2021-10-18T12:47:49.000Z</time>
      </trkpt>
      <trkpt lat="43.60905" lon="2.36892">
        <ele>555.426976</ele>
        <time>2021-10-18T12:47:50.000Z</time>
      </trkpt>
      <trkpt lat="43.60905" lon="2.36894">
        <ele>555.402159</ele>
        <time>2021-10-18T12:47:51.000Z</time>
      </trkpt>
      <trkpt lat="43.60904" lon="2.36897">
        <ele>555.375987</ele>
        <time>2021-10-18T12:47:52.000Z</time>
      </trkpt>
      <trkpt lat="43.60904" lon="2.36899">
        <ele>555.352098</ele>
        <time>2021-10-18T12:47:53.000Z</time>
      </trkpt>
      <trkpt lat="43.60904" lon="2.36902">
        <ele>555.323971</ele>
        <time>2021-10-18T12:47:54.000Z</time>
      </trkpt>
      <trkpt lat="43.60904" lon="2.36905">
        <ele>555.293165</ele>
        <time>2021-10-18T12:47:55.000Z</time>
      </trkpt>
      <trkpt lat="43.60904" lon="2.36908">
        <ele>555.261336</ele>
        <time>2021-10-18T12:47:56.000Z</time>
      </trkpt>
      <trkpt lat="43.60904" lon="2.36912">
        <ele>555.227438</ele>
        <time>2021-10-18T12:47:57.000Z</time>
      </trkpt>
      <trkpt lat="43.60904" lon="2.36915">
        <ele>555.192228</ele>
        <time>2021-10-18T12:47:58.000Z</time>
      </trkpt>
      <trkpt lat="43.60904" lon="2.36919">
        <ele>555.158191</ele>
        <time>2021-10-18T12:47:59.000Z</time>
      </trkpt>
      <trkpt lat="43.60903" lon="2.36922">
        <ele>555.123961</ele>
        <time>2021-10-18T12:48:00.000Z</time>
      </trkpt>
      <trkpt lat="43.60903" lon="2.36925">
        <ele>555.090458</ele>
        <time>2021-10-18T12:48:01.000Z</time>
      </trkpt>
      <trkpt lat="43.60902" lon="2.36929">
        <ele>555.055332</ele>
        <time>2021-10-18T12:48:02.000Z</time>
      </trkpt>
      <trkpt lat="43.60902" lon="2.36932">
        <ele>555.021296</ele>
        <time>2021-10-18T12:48:03.000Z</time>
      </trkpt>
      <trkpt lat="43.60901" lon="2.36936">
        <ele>554.985103</ele>
        <time>2021-10-18T12:48:04.000Z</time>
      </trkpt>
      <trkpt lat="43.60901" lon="2.3694">
        <ele>554.9477</ele>
        <time>2021-10-18T12:48:05.000Z</time>
      </trkpt>
      <trkpt lat="43.609" lon="2.36943">
        <ele>554.911228</ele>
        <time>2021-10-18T12:48:06.000Z</time>
      </trkpt>
      <trkpt lat="43.60899" lon="2.36946">
        <ele>554.876646</ele>
        <time>2021-10-18T12:48:07.000Z</time>
      </trkpt>
      <trkpt lat="43.60898" lon="2.3695">
        <ele>554.842011</ele>
        <time>2021-10-18T12:48:08.000Z</time>
      </trkpt>
      <trkpt lat="43.60898" lon="2.36953">
        <ele>554.806988</ele>
        <time>2021-10-18T12:48:09.000Z</time>
      </trkpt>
      <trkpt lat="43.60898" lon="2.36957">
        <ele>554.7721</ele>
        <time>2021-10-18T12:48:10.000Z</time>
      </trkpt>
      <trkpt lat="43.60899" lon="2.3696">
        <ele>554.736126</ele>
        <time>2021-10-18T12:48:11.000Z</time>
      </trkpt>
      <trkpt lat="43.60901" lon="2.36963">
        <ele>554.699814</ele>
        <time>2021-10-18T12:48:12.000Z</time>
      </trkpt>
      <trkpt lat="43.60902" lon="2.36965">
        <ele>554.667841</ele>
        <time>2021-10-18T12:48:13.000Z</time>
      </trkpt>
      <trkpt lat="43.60903" lon="2.36967">
        <ele>554.644435</ele>
        <time>2021-10-18T12:48:14.000Z</time>
      </trkpt>
      <trkpt lat="43.60904" lon="2.36969">
        <ele>554.617274</ele>
        <time>2021-10-18T12:48:15.000Z</time>
      </trkpt>
      <trkpt lat="43.60904" lon="2.36973">
        <ele>554.583771</ele>
        <time>2021-10-18T12:48:16.000Z</time>
      </trkpt>
      <trkpt lat="43.60902" lon="2.36976">
        <ele>554.546438</ele>
        <time>2021-10-18T12:48:17.000Z</time>
      </trkpt>
      <trkpt lat="43.60901" lon="2.36979">
        <ele>554.507794</ele>
        <time>2021-10-18T12:48:18.000Z</time>
      </trkpt>
      <trkpt lat="43.60899" lon="2.36982">
        <ele>554.465115</ele>
        <time>2021-10-18T12:48:19.000Z</time>
      </trkpt>
      <trkpt lat="43.60897" lon="2.36986">
        <ele>554.419225</ele>
        <time>2021-10-18T12:48:20.000Z</time>
      </trkpt>
      <trkpt lat="43.60895" lon="2.3699">
        <ele>554.372275</ele>
        <time>2021-10-18T12:48:21.000Z</time>
      </trkpt>
      <trkpt lat="43.60894" lon="2.36995">
        <ele>554.324621</ele>
        <time>2021-10-18T12:48:22.000Z</time>
      </trkpt>
      <trkpt lat="43.60893" lon="2.36999">
        <ele>554.276894</ele>
        <time>2021-10-18T12:48:23.000Z</time>
      </trkpt>
      <trkpt lat="43.60892" lon="2.37004">
        <ele>554.233097</ele>
        <time>2021-10-18T12:48:24.000Z</time>
      </trkpt>
      <trkpt lat="43.60892" lon="2.37008">
        <ele>554.188044</ele>
        <time>2021-10-18T12:48:25.000Z</time>
      </trkpt>
      <trkpt lat="43.60892" lon="2.37013">
        <ele>554.145115</ele>
        <time>2021-10-18T12:48:26.000Z</time>
      </trkpt>
      <trkpt lat="43.60892" lon="2.37017">
        <ele>554.104373</ele>
        <time>2021-10-18T12:48:27.000Z</time>
      </trkpt>
      <trkpt lat="43.60892" lon="2.37021">
        <ele>554.063607</ele>
        <time>2021-10-18T12:48:28.000Z</time>
      </trkpt>
      <trkpt lat="43.60892" lon="2.37025">
        <ele>554.021511</ele>
        <time>2021-10-18T12:48:29.000Z</time>
      </trkpt>
      <trkpt lat="43.60893" lon="2.37029">
        <ele>553.983352</ele>
        <time>2021-10-18T12:48:30.000Z</time>
      </trkpt>
      <trkpt lat="43.60893" lon="2.37033">
        <ele>553.943994</ele>
        <time>2021-10-18T12:48:31.000Z</time>
      </trkpt>
      <trkpt lat="43.60894" lon="2.37037">
        <ele>553.904066</ele>
        <time>2021-10-18T12:48:32.000Z</time>
      </trkpt>
      <trkpt lat="43.60895" lon="2.37041">
        <ele>553.858705</ele>
        <time>2021-10-18T12:48:33.000Z</time>
      </trkpt>
      <trkpt lat="43.60895" lon="2.37046">
        <ele>553.81624</ele>
        <time>2021-10-18T12:48:34.000Z</time>
      </trkpt>
      <trkpt lat="43.60896" lon="2.3705">
        <ele>553.772623</ele>
        <time>2021-10-18T12:48:35.000Z</time>
      </trkpt>
      <trkpt lat="43.60897" lon="2.37055">
        <ele>553.729005</ele>
        <time>2021-10-18T12:48:36.000Z</time>
      </trkpt>
      <trkpt lat="43.60898" lon="2.3706">
        <ele>553.683884</ele>
        <time>2021-10-18T12:48:37.000Z</time>
      </trkpt>
      <trkpt lat="43.60899" lon="2.37065">
        <ele>553.633825</ele>
        <time>2021-10-18T12:48:38.000Z</time>
      </trkpt>
      <trkpt lat="43.609" lon="2.37071">
        <ele>553.581718</ele>
        <time>2021-10-18T12:48:39.000Z</time>
      </trkpt>
      <trkpt lat="43.609" lon="2.37077">
        <ele>553.529265</ele>
        <time>2021-10-18T12:48:40.000Z</time>
      </trkpt>
      <trkpt lat="43.60901" lon="2.37082">
        <ele>553.479205</ele>
        <time>2021-10-18T12:48:41.000Z</time>
      </trkpt>
      <trkpt lat="43.60902" lon="2.37087">
        <ele>553.431472</ele>
        <time>2021-10-18T12:48:42.000Z</time>
      </trkpt>
      <trkpt lat="43.60903" lon="2.37093">
        <ele>553.380242</ele>
        <time>2021-10-18T12:48:43.000Z</time>
      </trkpt>
      <trkpt lat="43.60905" lon="2.37098">
        <ele>553.329275</ele>
        <time>2021-10-18T12:48:44.000Z</time>
      </trkpt>
      <trkpt lat="43.60906" lon="2.37103">
        <ele>553.280334</ele>
        <time>2021-10-18T12:48:45.000Z</time>
      </trkpt>
      <trkpt lat="43.60907" lon="2.37108">
        <ele>553.23485</ele>
        <time>2021-10-18T12:48:46.000Z</time>
      </trkpt>
      <trkpt lat="43.60908" lon="2.37113">
        <ele>553.191232</ele>
        <time>2021-10-18T12:48:47.000Z</time>
      </trkpt>
      <trkpt lat="43.60909" lon="2.37117">
        <ele>553.145749</ele>
        <time>2021-10-18T12:48:48.000Z</time>
      </trkpt>
      <trkpt lat="43.6091" lon="2.37122">
        <ele>553.102131</ele>
        <time>2021-10-18T12:48:49.000Z</time>
      </trkpt>
      <trkpt lat="43.6091" lon="2.37127">
        <ele>553.059666</ele>
        <time>2021-10-18T12:48:50.000Z</time>
      </trkpt>
      <trkpt lat="43.60911" lon="2.37131">
        <ele>553.017806</ele>
        <time>2021-10-18T12:48:51.000Z</time>
      </trkpt>
      <trkpt lat="43.60912" lon="2.37136">
        <ele>552.973308</ele>
        <time>2021-10-18T12:48:52.000Z</time>
      </trkpt>
      <trkpt lat="43.60913" lon="2.37141">
        <ele>552.927433</ele>
        <time>2021-10-18T12:48:53.000Z</time>
      </trkpt>
      <trkpt lat="43.60914" lon="2.37145">
        <ele>552.884525</ele>
        <time>2021-10-18T12:48:54.000Z</time>
      </trkpt>
      <trkpt lat="43.60915" lon="2.3715">
        <ele>552.843325</ele>
        <time>2021-10-18T12:48:55.000Z</time>
      </trkpt>
      <trkpt lat="43.60916" lon="2.37154">
        <ele>552.806149</ele>
        <time>2021-10-18T12:48:56.000Z</time>
      </trkpt>
      <trkpt lat="43.60917" lon="2.37158">
        <ele>552.768308</ele>
        <time>2021-10-18T12:48:57.000Z</time>
      </trkpt>
      <trkpt lat="43.60918" lon="2.37162">
        <ele>552.729603</ele>
        <time>2021-10-18T12:48:58.000Z</time>
      </trkpt>
      <trkpt lat="43.60918" lon="2.37166">
        <ele>552.688931</ele>
        <time>2021-10-18T12:48:59.000Z</time>
      </trkpt>
      <trkpt lat="43.60919" lon="2.37171">
        <ele>552.64707</ele>
        <time>2021-10-18T12:49:00.000Z</time>
      </trkpt>
      <trkpt lat="43.60919" lon="2.37175">
        <ele>552.609282</ele>
        <time>2021-10-18T12:49:01.000Z</time>
      </trkpt>
      <trkpt lat="43.6092" lon="2.37181">
        <ele>552.557411</ele>
        <time>2021-10-18T12:49:02.000Z</time>
      </trkpt>
      <trkpt lat="43.6092" lon="2.37185">
        <ele>552.513886</ele>
        <time>2021-10-18T12:49:03.000Z</time>
      </trkpt>
      <trkpt lat="43.60921" lon="2.3719">
        <ele>552.468287</ele>
        <time>2021-10-18T12:49:04.000Z</time>
      </trkpt>
      <trkpt lat="43.60921" lon="2.37196">
        <ele>552.420505</ele>
        <time>2021-10-18T12:49:05.000Z</time>
      </trkpt>
      <trkpt lat="43.60922" lon="2.37201">
        <ele>552.374906</ele>
        <time>2021-10-18T12:49:06.000Z</time>
      </trkpt>
      <trkpt lat="43.60922" lon="2.37205">
        <ele>552.330011</ele>
        <time>2021-10-18T12:49:07.000Z</time>
      </trkpt>
      <trkpt lat="43.60923" lon="2.37211">
        <ele>552.283785</ele>
        <time>2021-10-18T12:49:08.000Z</time>
      </trkpt>
      <trkpt lat="43.60923" lon="2.37216">
        <ele>552.235889</ele>
        <time>2021-10-18T12:49:09.000Z</time>
      </trkpt>
      <trkpt lat="43.60923" lon="2.37221">
        <ele>552.186961</ele>
        <time>2021-10-18T12:49:10.000Z</time>
      </trkpt>
      <trkpt lat="43.60923" lon="2.37227">
        <ele>552.138161</ele>
        <time>2021-10-18T12:49:11.000Z</time>
      </trkpt>
      <trkpt lat="43.60924" lon="2.37232">
        <ele>552.089876</ele>
        <time>2021-10-18T12:49:12.000Z</time>
      </trkpt>
      <trkpt lat="43.60924" lon="2.37237">
        <ele>552.039427</ele>
        <time>2021-10-18T12:49:13.000Z</time>
      </trkpt>
      <trkpt lat="43.60925" lon="2.37243">
        <ele>551.990517</ele>
        <time>2021-10-18T12:49:14.000Z</time>
      </trkpt>
      <trkpt lat="43.60926" lon="2.37248">
        <ele>551.938951</ele>
        <time>2021-10-18T12:49:15.000Z</time>
      </trkpt>
      <trkpt lat="43.60927" lon="2.37254">
        <ele>551.886722</ele>
        <time>2021-10-18T12:49:16.000Z</time>
      </trkpt>
      <trkpt lat="43.60927" lon="2.3726">
        <ele>551.834492</ele>
        <time>2021-10-18T12:49:17.000Z</time>
      </trkpt>
      <trkpt lat="43.60928" lon="2.37265">
        <ele>551.782938</ele>
        <time>2021-10-18T12:49:18.000Z</time>
      </trkpt>
      <trkpt lat="43.60927" lon="2.37271">
        <ele>551.730407</ele>
        <time>2021-10-18T12:49:19.000Z</time>
      </trkpt>
      <trkpt lat="43.60927" lon="2.37277">
        <ele>551.679816</ele>
        <time>2021-10-18T12:49:20.000Z</time>
      </trkpt>
      <trkpt lat="43.60927" lon="2.37282">
        <ele>551.630129</ele>
        <time>2021-10-18T12:49:21.000Z</time>
      </trkpt>
      <trkpt lat="43.60927" lon="2.37288">
        <ele>551.62033</ele>
        <time>2021-10-18T12:49:22.000Z</time>
      </trkpt>
      <trkpt lat="43.60927" lon="2.37293">
        <ele>551.619122</ele>
        <time>2021-10-18T12:49:23.000Z</time>
      </trkpt>
      <trkpt lat="43.60926" lon="2.37299">
        <ele>551.61786</ele>
        <time>2021-10-18T12:49:24.000Z</time>
      </trkpt>
      <trkpt lat="43.60925" lon="2.37304">
        <ele>551.616602</ele>
        <time>2021-10-18T12:49:25.000Z</time>
      </trkpt>
      <trkpt lat="43.60925" lon="2.3731">
        <ele>551.615336</ele>
        <time>2021-10-18T12:49:26.000Z</time>
      </trkpt>
      <trkpt lat="43.60925" lon="2.37316">
        <ele>551.613996</ele>
        <time>2021-10-18T12:49:27.000Z</time>
      </trkpt>
      <trkpt lat="43.60925" lon="2.37322">
        <ele>551.612548</ele>
        <time>2021-10-18T12:49:28.000Z</time>
      </trkpt>
      <trkpt lat="43.60925" lon="2.37329">
        <ele>551.61107</ele>
        <time>2021-10-18T12:49:29.000Z</time>
      </trkpt>
      <trkpt lat="43.60926" lon="2.37335">
        <ele>551.60963</ele>
        <time>2021-10-18T12:49:30.000Z</time>
      </trkpt>
      <trkpt lat="43.60926" lon="2.37341">
        <ele>551.6082</ele>
        <time>2021-10-18T12:49:31.000Z</time>
      </trkpt>
      <trkpt lat="43.60927" lon="2.37348">
        <ele>551.606687</ele>
        <time>2021-10-18T12:49:32.000Z</time>
      </trkpt>
      <trkpt lat="43.60928" lon="2.37355">
        <ele>551.605157</ele>
        <time>2021-10-18T12:49:33.000Z</time>
      </trkpt>
      <trkpt lat="43.60928" lon="2.37361">
        <ele>551.603662</ele>
        <time>2021-10-18T12:49:34.000Z</time>
      </trkpt>
      <trkpt lat="43.60928" lon="2.37368">
        <ele>551.602147</ele>
        <time>2021-10-18T12:49:35.000Z</time>
      </trkpt>
      <trkpt lat="43.60928" lon="2.37375">
        <ele>551.600655</ele>
        <time>2021-10-18T12:49:36.000Z</time>
      </trkpt>
      <trkpt lat="43.60928" lon="2.37381">
        <ele>551.599271</ele>
        <time>2021-10-18T12:49:37.000Z</time>
      </trkpt>
      <trkpt lat="43.60929" lon="2.37387">
        <ele>551.597843</ele>
        <time>2021-10-18T12:49:38.000Z</time>
      </trkpt>
      <trkpt lat="43.60929" lon="2.37393">
        <ele>551.596441</ele>
        <time>2021-10-18T12:49:39.000Z</time>
      </trkpt>
      <trkpt lat="43.60929" lon="2.37399">
        <ele>551.595061</ele>
        <time>2021-10-18T12:49:40.000Z</time>
      </trkpt>
      <trkpt lat="43.60929" lon="2.37406">
        <ele>551.593589</ele>
        <time>2021-10-18T12:49:41.000Z</time>
      </trkpt>
      <trkpt lat="43.60929" lon="2.37412">
        <ele>551.592187</ele>
        <time>2021-10-18T12:49:42.000Z</time>
      </trkpt>
      <trkpt lat="43.60928" lon="2.37418">
        <ele>551.590805</ele>
        <time>2021-10-18T12:49:43.000Z</time>
      </trkpt>
      <trkpt lat="43.60928" lon="2.37424">
        <ele>551.58951</ele>
        <time>2021-10-18T12:49:44.000Z</time>
      </trkpt>
      <trkpt lat="43.60927" lon="2.37429">
        <ele>551.588302</ele>
        <time>2021-10-18T12:49:45.000Z</time>
      </trkpt>
      <trkpt lat="43.60927" lon="2.37434">
        <ele>551.587173</ele>
        <time>2021-10-18T12:49:46.000Z</time>
      </trkpt>
      <trkpt lat="43.60926" lon="2.37439">
        <ele>551.585971</ele>
        <time>2021-10-18T12:49:47.000Z</time>
      </trkpt>
      <trkpt lat="43.60926" lon="2.37445">
        <ele>551.584682</ele>
        <time>2021-10-18T12:49:48.000Z</time>
      </trkpt>
      <trkpt lat="43.60927" lon="2.37451">
        <ele>551.583393</ele>
        <time>2021-10-18T12:49:49.000Z</time>
      </trkpt>
      <trkpt lat="43.60927" lon="2.37457">
        <ele>551.582054</ele>
        <time>2021-10-18T12:49:50.000Z</time>
      </trkpt>
      <trkpt lat="43.60927" lon="2.37462">
        <ele>551.580778</ele>
        <time>2021-10-18T12:49:51.000Z</time>
      </trkpt>
      <trkpt lat="43.60928" lon="2.37467">
        <ele>551.579554</ele>
        <time>2021-10-18T12:49:52.000Z</time>
      </trkpt>
      <trkpt lat="43.60929" lon="2.37473">
        <ele>551.578199</ele>
        <time>2021-10-18T12:49:53.000Z</time>
      </trkpt>
      <trkpt lat="43.6093" lon="2.37479">
        <ele>551.576909</ele>
        <time>2021-10-18T12:49:54.000Z</time>
      </trkpt>
      <trkpt lat="43.60931" lon="2.37484">
        <ele>551.575579</ele>
        <time>2021-10-18T12:49:55.000Z</time>
      </trkpt>
      <trkpt lat="43.60933" lon="2.3749">
        <ele>551.574283</ele>
        <time>2021-10-18T12:49:56.000Z</time>
      </trkpt>
      <trkpt lat="43.60934" lon="2.37495">
        <ele>551.573092</ele>
        <time>2021-10-18T12:49:57.000Z</time>
      </trkpt>
      <trkpt lat="43.60935" lon="2.37499">
        <ele>551.572015</ele>
        <time>2021-10-18T12:49:58.000Z</time>
      </trkpt>
      <trkpt lat="43.60935" lon="2.37504">
        <ele>551.570993</ele>
        <time>2021-10-18T12:49:59.000Z</time>
      </trkpt>
      <trkpt lat="43.60935" lon="2.37508">
        <ele>551.570043</ele>
        <time>2021-10-18T12:50:00.000Z</time>
      </trkpt>
      <trkpt lat="43.60936" lon="2.37512">
        <ele>551.569159</ele>
        <time>2021-10-18T12:50:01.000Z</time>
      </trkpt>
      <trkpt lat="43.60935" lon="2.37516">
        <ele>551.568308</ele>
        <time>2021-10-18T12:50:02.000Z</time>
      </trkpt>
      <trkpt lat="43.60934" lon="2.3752">
        <ele>551.567348</ele>
        <time>2021-10-18T12:50:03.000Z</time>
      </trkpt>
      <trkpt lat="43.60933" lon="2.37524">
        <ele>551.566432</ele>
        <time>2021-10-18T12:50:04.000Z</time>
      </trkpt>
      <trkpt lat="43.60932" lon="2.37527">
        <ele>551.565528</ele>
        <time>2021-10-18T12:50:05.000Z</time>
      </trkpt>
      <trkpt lat="43.60931" lon="2.37531">
        <ele>551.684283</ele>
        <time>2021-10-18T12:50:06.000Z</time>
      </trkpt>
      <trkpt lat="43.60929" lon="2.37535">
        <ele>551.854383</ele>
        <time>2021-10-18T12:50:07.000Z</time>
      </trkpt>
      <trkpt lat="43.60928" lon="2.37538">
        <ele>552.020877</ele>
        <time>2021-10-18T12:50:08.000Z</time>
      </trkpt>
      <trkpt lat="43.60927" lon="2.37543">
        <ele>552.210712</ele>
        <time>2021-10-18T12:50:09.000Z</time>
      </trkpt>
      <trkpt lat="43.60926" lon="2.37547">
        <ele>552.399553</ele>
        <time>2021-10-18T12:50:10.000Z</time>
      </trkpt>
      <trkpt lat="43.60925" lon="2.37551">
        <ele>552.585469</ele>
        <time>2021-10-18T12:50:11.000Z</time>
      </trkpt>
      <trkpt lat="43.60924" lon="2.37555">
        <ele>552.752724</ele>
        <time>2021-10-18T12:50:12.000Z</time>
      </trkpt>
      <trkpt lat="43.60924" lon="2.37559">
        <ele>552.907169</ele>
        <time>2021-10-18T12:50:13.000Z</time>
      </trkpt>
      <trkpt lat="43.60924" lon="2.37563">
        <ele>553.069511</ele>
        <time>2021-10-18T12:50:14.000Z</time>
      </trkpt>
      <trkpt lat="43.60924" lon="2.37567">
        <ele>553.231853</ele>
        <time>2021-10-18T12:50:15.000Z</time>
      </trkpt>
      <trkpt lat="43.60924" lon="2.3757">
        <ele>553.385977</ele>
        <time>2021-10-18T12:50:16.000Z</time>
      </trkpt>
      <trkpt lat="43.60924" lon="2.37574">
        <ele>553.554944</ele>
        <time>2021-10-18T12:50:17.000Z</time>
      </trkpt>
      <trkpt lat="43.60923" lon="2.37578">
        <ele>553.716841</ele>
        <time>2021-10-18T12:50:18.000Z</time>
      </trkpt>
      <trkpt lat="43.60923" lon="2.37582">
        <ele>553.896202</ele>
        <time>2021-10-18T12:50:19.000Z</time>
      </trkpt>
      <trkpt lat="43.60922" lon="2.37586">
        <ele>554.043341</ele>
        <time>2021-10-18T12:50:20.000Z</time>
      </trkpt>
      <trkpt lat="43.60922" lon="2.37589">
        <ele>554.185917</ele>
        <time>2021-10-18T12:50:21.000Z</time>
      </trkpt>
      <trkpt lat="43.60922" lon="2.37592">
        <ele>554.324362</ele>
        <time>2021-10-18T12:50:22.000Z</time>
      </trkpt>
      <trkpt lat="43.60922" lon="2.37597">
        <ele>554.507517</ele>
        <time>2021-10-18T12:50:23.000Z</time>
      </trkpt>
      <trkpt lat="43.60922" lon="2.37601">
        <ele>554.698997</ele>
        <time>2021-10-18T12:50:24.000Z</time>
      </trkpt>
      <trkpt lat="43.60921" lon="2.37606">
        <ele>554.882242</ele>
        <time>2021-10-18T12:50:25.000Z</time>
      </trkpt>
      <trkpt lat="43.60921" lon="2.3761">
        <ele>555.050327</ele>
        <time>2021-10-18T12:50:26.000Z</time>
      </trkpt>
      <trkpt lat="43.60921" lon="2.37614">
        <ele>555.221864</ele>
        <time>2021-10-18T12:50:27.000Z</time>
      </trkpt>
      <trkpt lat="43.60921" lon="2.37618">
        <ele>555.384307</ele>
        <time>2021-10-18T12:50:28.000Z</time>
      </trkpt>
      <trkpt lat="43.6092" lon="2.37622">
        <ele>555.553275</ele>
        <time>2021-10-18T12:50:29.000Z</time>
      </trkpt>
      <trkpt lat="43.6092" lon="2.37625">
        <ele>555.702994</ele>
        <time>2021-10-18T12:50:30.000Z</time>
      </trkpt>
      <trkpt lat="43.60919" lon="2.37629">
        <ele>555.86625</ele>
        <time>2021-10-18T12:50:31.000Z</time>
      </trkpt>
      <trkpt lat="43.60919" lon="2.37633">
        <ele>556.016104</ele>
        <time>2021-10-18T12:50:32.000Z</time>
      </trkpt>
      <trkpt lat="43.60919" lon="2.37636">
        <ele>556.15775</ele>
        <time>2021-10-18T12:50:33.000Z</time>
      </trkpt>
      <trkpt lat="43.6092" lon="2.3764">
        <ele>556.304458</ele>
        <time>2021-10-18T12:50:34.000Z</time>
      </trkpt>
      <trkpt lat="43.6092" lon="2.37643">
        <ele>556.458582</ele>
        <time>2021-10-18T12:50:35.000Z</time>
      </trkpt>
      <trkpt lat="43.6092" lon="2.37647">
        <ele>556.621801</ele>
        <time>2021-10-18T12:50:36.000Z</time>
      </trkpt>
      <trkpt lat="43.60921" lon="2.37652">
        <ele>556.801622</ele>
        <time>2021-10-18T12:50:37.000Z</time>
      </trkpt>
      <trkpt lat="43.60921" lon="2.37656">
        <ele>556.984867</ele>
        <time>2021-10-18T12:50:38.000Z</time>
      </trkpt>
      <trkpt lat="43.60921" lon="2.3766">
        <ele>557.149734</ele>
        <time>2021-10-18T12:50:39.000Z</time>
      </trkpt>
      <trkpt lat="43.60922" lon="2.37663">
        <ele>557.306487</ele>
        <time>2021-10-18T12:50:40.000Z</time>
      </trkpt>
      <trkpt lat="43.60923" lon="2.37667">
        <ele>557.484597</ele>
        <time>2021-10-18T12:50:41.000Z</time>
      </trkpt>
      <trkpt lat="43.60924" lon="2.37672">
        <ele>557.659944</ele>
        <time>2021-10-18T12:50:42.000Z</time>
      </trkpt>
      <trkpt lat="43.60925" lon="2.37675">
        <ele>557.820681</ele>
        <time>2021-10-18T12:50:43.000Z</time>
      </trkpt>
      <trkpt lat="43.60926" lon="2.37679">
        <ele>557.991069</ele>
        <time>2021-10-18T12:50:44.000Z</time>
      </trkpt>
      <trkpt lat="43.60927" lon="2.37683">
        <ele>558.15372</ele>
        <time>2021-10-18T12:50:45.000Z</time>
      </trkpt>
      <trkpt lat="43.60928" lon="2.37686">
        <ele>558.308734</ele>
        <time>2021-10-18T12:50:46.000Z</time>
      </trkpt>
      <trkpt lat="43.60929" lon="2.3769">
        <ele>558.459425</ele>
        <time>2021-10-18T12:50:47.000Z</time>
      </trkpt>
      <trkpt lat="43.6093" lon="2.37693">
        <ele>558.625869</ele>
        <time>2021-10-18T12:50:48.000Z</time>
      </trkpt>
      <trkpt lat="43.60931" lon="2.37697">
        <ele>558.787069</ele>
        <time>2021-10-18T12:50:49.000Z</time>
      </trkpt>
      <trkpt lat="43.60933" lon="2.377">
        <ele>558.948268</ele>
        <time>2021-10-18T12:50:50.000Z</time>
      </trkpt>
      <trkpt lat="43.60934" lon="2.37704">
        <ele>559.120567</ele>
        <time>2021-10-18T12:50:51.000Z</time>
      </trkpt>
      <trkpt lat="43.60936" lon="2.37707">
        <ele>559.287012</ele>
        <time>2021-10-18T12:50:52.000Z</time>
      </trkpt>
      <trkpt lat="43.60937" lon="2.37711">
        <ele>559.448211</ele>
        <time>2021-10-18T12:50:53.000Z</time>
      </trkpt>
      <trkpt lat="43.60938" lon="2.37714">
        <ele>559.61353</ele>
        <time>2021-10-18T12:50:54.000Z</time>
      </trkpt>
      <trkpt lat="43.6094" lon="2.37717">
        <ele>559.768733</ele>
        <time>2021-10-18T12:50:55.000Z</time>
      </trkpt>
      <trkpt lat="43.60941" lon="2.3772">
        <ele>559.927414</ele>
        <time>2021-10-18T12:50:56.000Z</time>
      </trkpt>
      <trkpt lat="43.60943" lon="2.37723">
        <ele>560.086622</ele>
        <time>2021-10-18T12:50:57.000Z</time>
      </trkpt>
      <trkpt lat="43.60944" lon="2.37727">
        <ele>560.239359</ele>
        <time>2021-10-18T12:50:58.000Z</time>
      </trkpt>
      <trkpt lat="43.60945" lon="2.3773">
        <ele>560.398568</ele>
        <time>2021-10-18T12:50:59.000Z</time>
      </trkpt>
      <trkpt lat="43.60947" lon="2.37733">
        <ele>560.544892</ele>
        <time>2021-10-18T12:51:00.000Z</time>
      </trkpt>
      <trkpt lat="43.60948" lon="2.37736">
        <ele>560.683129</ele>
        <time>2021-10-18T12:51:01.000Z</time>
      </trkpt>
      <trkpt lat="43.6095" lon="2.37739">
        <ele>560.858564</ele>
        <time>2021-10-18T12:51:02.000Z</time>
      </trkpt>
      <trkpt lat="43.60951" lon="2.37742">
        <ele>561.014195</ele>
        <time>2021-10-18T12:51:03.000Z</time>
      </trkpt>
      <trkpt lat="43.60952" lon="2.37746">
        <ele>561.164203</ele>
        <time>2021-10-18T12:51:04.000Z</time>
      </trkpt>
      <trkpt lat="43.60954" lon="2.37749">
        <ele>561.329522</ele>
        <time>2021-10-18T12:51:05.000Z</time>
      </trkpt>
      <trkpt lat="43.60955" lon="2.37752">
        <ele>561.485153</ele>
        <time>2021-10-18T12:51:06.000Z</time>
      </trkpt>
      <trkpt lat="43.60957" lon="2.37755">
        <ele>561.631476</ele>
        <time>2021-10-18T12:51:07.000Z</time>
      </trkpt>
      <trkpt lat="43.60958" lon="2.37758">
        <ele>561.771454</ele>
        <time>2021-10-18T12:51:08.000Z</time>
      </trkpt>
      <trkpt lat="43.60959" lon="2.37761">
        <ele>561.91968</ele>
        <time>2021-10-18T12:51:09.000Z</time>
      </trkpt>
      <trkpt lat="43.6096" lon="2.37764">
        <ele>562.159417</ele>
        <time>2021-10-18T12:51:10.000Z</time>
      </trkpt>
      <trkpt lat="43.60962" lon="2.37767">
        <ele>562.395318</ele>
        <time>2021-10-18T12:51:11.000Z</time>
      </trkpt>
      <trkpt lat="43.60963" lon="2.3777">
        <ele>562.635222</ele>
        <time>2021-10-18T12:51:12.000Z</time>
      </trkpt>
      <trkpt lat="43.60964" lon="2.37773">
        <ele>562.849441</ele>
        <time>2021-10-18T12:51:13.000Z</time>
      </trkpt>
      <trkpt lat="43.60964" lon="2.37776">
        <ele>563.081497</ele>
        <time>2021-10-18T12:51:14.000Z</time>
      </trkpt>
      <trkpt lat="43.60965" lon="2.37779">
        <ele>563.311583</ele>
        <time>2021-10-18T12:51:15.000Z</time>
      </trkpt>
      <trkpt lat="43.60965" lon="2.37783">
        <ele>563.575883</ele>
        <time>2021-10-18T12:51:16.000Z</time>
      </trkpt>
      <trkpt lat="43.60965" lon="2.37787">
        <ele>563.825303</ele>
        <time>2021-10-18T12:51:17.000Z</time>
      </trkpt>
      <trkpt lat="43.60966" lon="2.3779">
        <ele>564.050627</ele>
        <time>2021-10-18T12:51:18.000Z</time>
      </trkpt>
      <trkpt lat="43.60967" lon="2.37794">
        <ele>564.298188</ele>
        <time>2021-10-18T12:51:19.000Z</time>
      </trkpt>
      <trkpt lat="43.60967" lon="2.37797">
        <ele>564.532207</ele>
        <time>2021-10-18T12:51:20.000Z</time>
      </trkpt>
      <trkpt lat="43.60967" lon="2.378">
        <ele>564.766226</ele>
        <time>2021-10-18T12:51:21.000Z</time>
      </trkpt>
      <trkpt lat="43.60967" lon="2.37804">
        <ele>565.014193</ele>
        <time>2021-10-18T12:51:22.000Z</time>
      </trkpt>
      <trkpt lat="43.60967" lon="2.37807">
        <ele>565.25299</ele>
        <time>2021-10-18T12:51:23.000Z</time>
      </trkpt>
      <trkpt lat="43.60968" lon="2.37811">
        <ele>565.487178</ele>
        <time>2021-10-18T12:51:24.000Z</time>
      </trkpt>
      <trkpt lat="43.60968" lon="2.37814">
        <ele>565.724265</ele>
        <time>2021-10-18T12:51:25.000Z</time>
      </trkpt>
      <trkpt lat="43.60969" lon="2.37818">
        <ele>565.96815</ele>
        <time>2021-10-18T12:51:26.000Z</time>
      </trkpt>
      <trkpt lat="43.60969" lon="2.37821">
        <ele>566.205237</ele>
        <time>2021-10-18T12:51:27.000Z</time>
      </trkpt>
      <trkpt lat="43.60969" lon="2.37824">
        <ele>566.428749</ele>
        <time>2021-10-18T12:51:28.000Z</time>
      </trkpt>
      <trkpt lat="43.6097" lon="2.37828">
        <ele>566.667545</ele>
        <time>2021-10-18T12:51:29.000Z</time>
      </trkpt>
      <trkpt lat="43.60971" lon="2.37831">
        <ele>566.927886</ele>
        <time>2021-10-18T12:51:30.000Z</time>
      </trkpt>
      <trkpt lat="43.60972" lon="2.37834">
        <ele>567.182058</ele>
        <time>2021-10-18T12:51:31.000Z</time>
      </trkpt>
      <trkpt lat="43.60974" lon="2.37837">
        <ele>567.432994</ele>
        <time>2021-10-18T12:51:32.000Z</time>
      </trkpt>
      <trkpt lat="43.60975" lon="2.3784">
        <ele>567.678298</ele>
        <time>2021-10-18T12:51:33.000Z</time>
      </trkpt>
      <trkpt lat="43.60976" lon="2.37843">
        <ele>567.896354</ele>
        <time>2021-10-18T12:51:34.000Z</time>
      </trkpt>
      <trkpt lat="43.60978" lon="2.37845">
        <ele>568.119371</ele>
        <time>2021-10-18T12:51:35.000Z</time>
      </trkpt>
      <trkpt lat="43.60979" lon="2.37848">
        <ele>568.326636</ele>
        <time>2021-10-18T12:51:36.000Z</time>
      </trkpt>
      <trkpt lat="43.6098" lon="2.37851">
        <ele>568.514461</ele>
        <time>2021-10-18T12:51:37.000Z</time>
      </trkpt>
      <trkpt lat="43.6098" lon="2.37854">
        <ele>568.734714</ele>
        <time>2021-10-18T12:51:38.000Z</time>
      </trkpt>
      <trkpt lat="43.6098" lon="2.37857">
        <ele>568.954966</ele>
        <time>2021-10-18T12:51:39.000Z</time>
      </trkpt>
      <trkpt lat="43.60979" lon="2.37861">
        <ele>569.196055</ele>
        <time>2021-10-18T12:51:40.000Z</time>
      </trkpt>
      <trkpt lat="43.60979" lon="2.37864">
        <ele>569.439939</ele>
        <time>2021-10-18T12:51:41.000Z</time>
      </trkpt>
      <trkpt lat="43.60979" lon="2.37867">
        <ele>569.675688</ele>
        <time>2021-10-18T12:51:42.000Z</time>
      </trkpt>
      <trkpt lat="43.60979" lon="2.37871">
        <ele>569.889058</ele>
        <time>2021-10-18T12:51:43.000Z</time>
      </trkpt>
      <trkpt lat="43.60979" lon="2.37874">
        <ele>570.123077</ele>
        <time>2021-10-18T12:51:44.000Z</time>
      </trkpt>
      <trkpt lat="43.60979" lon="2.37877">
        <ele>570.343534</ele>
        <time>2021-10-18T12:51:45.000Z</time>
      </trkpt>
      <trkpt lat="43.60978" lon="2.3788">
        <ele>570.565625</ele>
        <time>2021-10-18T12:51:46.000Z</time>
      </trkpt>
      <trkpt lat="43.60978" lon="2.37883">
        <ele>570.778995</ele>
        <time>2021-10-18T12:51:47.000Z</time>
      </trkpt>
      <trkpt lat="43.60978" lon="2.37887">
        <ele>570.999248</ele>
        <time>2021-10-18T12:51:48.000Z</time>
      </trkpt>
      <trkpt lat="43.60978" lon="2.3789">
        <ele>571.212617</ele>
        <time>2021-10-18T12:51:49.000Z</time>
      </trkpt>
      <trkpt lat="43.60978" lon="2.37893">
        <ele>571.43287</ele>
        <time>2021-10-18T12:51:50.000Z</time>
      </trkpt>
      <trkpt lat="43.60978" lon="2.37896">
        <ele>571.639357</ele>
        <time>2021-10-18T12:51:51.000Z</time>
      </trkpt>
      <trkpt lat="43.60978" lon="2.37899">
        <ele>571.873568</ele>
        <time>2021-10-18T12:51:52.000Z</time>
      </trkpt>
      <trkpt lat="43.60978" lon="2.37903">
        <ele>572.09566</ele>
        <time>2021-10-18T12:51:53.000Z</time>
      </trkpt>
      <trkpt lat="43.60978" lon="2.37906">
        <ele>572.309241</ele>
        <time>2021-10-18T12:51:54.000Z</time>
      </trkpt>
      <trkpt lat="43.60978" lon="2.37909">
        <ele>572.523456</ele>
        <time>2021-10-18T12:51:55.000Z</time>
      </trkpt>
      <trkpt lat="43.60978" lon="2.37912">
        <ele>572.750592</ele>
        <time>2021-10-18T12:51:56.000Z</time>
      </trkpt>
      <trkpt lat="43.60978" lon="2.37915">
        <ele>572.977727</ele>
        <time>2021-10-18T12:51:57.000Z</time>
      </trkpt>
      <trkpt lat="43.60978" lon="2.37919">
        <ele>573.213477</ele>
        <time>2021-10-18T12:51:58.000Z</time>
      </trkpt>
      <trkpt lat="43.60978" lon="2.37922">
        <ele>573.447688</ele>
        <time>2021-10-18T12:51:59.000Z</time>
      </trkpt>
      <trkpt lat="43.60978" lon="2.37925">
        <ele>573.662955</ele>
        <time>2021-10-18T12:52:00.000Z</time>
      </trkpt>
      <trkpt lat="43.60978" lon="2.37928">
        <ele>573.883413</ele>
        <time>2021-10-18T12:52:01.000Z</time>
      </trkpt>
      <trkpt lat="43.60979" lon="2.37931">
        <ele>574.09186</ele>
        <time>2021-10-18T12:52:02.000Z</time>
      </trkpt>
      <trkpt lat="43.60979" lon="2.37934">
        <ele>574.29169</ele>
        <time>2021-10-18T12:52:03.000Z</time>
      </trkpt>
      <trkpt lat="43.60979" lon="2.37937">
        <ele>574.494884</ele>
        <time>2021-10-18T12:52:04.000Z</time>
      </trkpt>
      <trkpt lat="43.6098" lon="2.3794">
        <ele>574.69132</ele>
        <time>2021-10-18T12:52:05.000Z</time>
      </trkpt>
      <trkpt lat="43.6098" lon="2.37943">
        <ele>574.879333</ele>
        <time>2021-10-18T12:52:06.000Z</time>
      </trkpt>
      <trkpt lat="43.6098" lon="2.37946">
        <ele>575.077829</ele>
        <time>2021-10-18T12:52:07.000Z</time>
      </trkpt>
      <trkpt lat="43.60981" lon="2.37948">
        <ele>575.265654</ele>
        <time>2021-10-18T12:52:08.000Z</time>
      </trkpt>
      <trkpt lat="43.60981" lon="2.3795">
        <ele>575.424245</ele>
        <time>2021-10-18T12:52:09.000Z</time>
      </trkpt>
      <trkpt lat="43.60982" lon="2.37953">
        <ele>575.600469</ele>
        <time>2021-10-18T12:52:10.000Z</time>
      </trkpt>
      <trkpt lat="43.60982" lon="2.37955">
        <ele>575.769978</ele>
        <time>2021-10-18T12:52:11.000Z</time>
      </trkpt>
      <trkpt lat="43.60983" lon="2.37958">
        <ele>575.973863</ele>
        <time>2021-10-18T12:52:12.000Z</time>
      </trkpt>
      <trkpt lat="43.60983" lon="2.37961">
        <ele>576.165683</ele>
        <time>2021-10-18T12:52:13.000Z</time>
      </trkpt>
      <trkpt lat="43.60984" lon="2.37963">
        <ele>576.353508</ele>
        <time>2021-10-18T12:52:14.000Z</time>
      </trkpt>
      <trkpt lat="43.60984" lon="2.37966">
        <ele>576.52558</ele>
        <time>2021-10-18T12:52:15.000Z</time>
      </trkpt>
      <trkpt lat="43.60984" lon="2.37968">
        <ele>576.697471</ele>
        <time>2021-10-18T12:52:16.000Z</time>
      </trkpt>
      <trkpt lat="43.60985" lon="2.37971">
        <ele>576.888398</ele>
        <time>2021-10-18T12:52:17.000Z</time>
      </trkpt>
      <trkpt lat="43.60986" lon="2.37973">
        <ele>577.069676</ele>
        <time>2021-10-18T12:52:18.000Z</time>
      </trkpt>
      <trkpt lat="43.60986" lon="2.37976">
        <ele>577.261844</ele>
        <time>2021-10-18T12:52:19.000Z</time>
      </trkpt>
      <trkpt lat="43.60987" lon="2.37979">
        <ele>577.447003</ele>
        <time>2021-10-18T12:52:20.000Z</time>
      </trkpt>
      <trkpt lat="43.60988" lon="2.37981">
        <ele>577.631494</ele>
        <time>2021-10-18T12:52:21.000Z</time>
      </trkpt>
      <trkpt lat="43.60988" lon="2.37983">
        <ele>577.803217</ele>
        <time>2021-10-18T12:52:22.000Z</time>
      </trkpt>
      <trkpt lat="43.60989" lon="2.37986">
        <ele>577.981733</ele>
        <time>2021-10-18T12:52:23.000Z</time>
      </trkpt>
      <trkpt lat="43.6099" lon="2.37989">
        <ele>578.182529</ele>
        <time>2021-10-18T12:52:24.000Z</time>
      </trkpt>
      <trkpt lat="43.6099" lon="2.37991">
        <ele>578.390121</ele>
        <time>2021-10-18T12:52:25.000Z</time>
      </trkpt>
      <trkpt lat="43.60991" lon="2.37994">
        <ele>578.597714</ele>
        <time>2021-10-18T12:52:26.000Z</time>
      </trkpt>
      <trkpt lat="43.60992" lon="2.37997">
        <ele>578.806453</ele>
        <time>2021-10-18T12:52:27.000Z</time>
      </trkpt>
      <trkpt lat="43.60992" lon="2.38">
        <ele>578.989403</ele>
        <time>2021-10-18T12:52:28.000Z</time>
      </trkpt>
      <trkpt lat="43.60993" lon="2.38002">
        <ele>579.161707</ele>
        <time>2021-10-18T12:52:29.000Z</time>
      </trkpt>
      <trkpt lat="43.60993" lon="2.38005">
        <ele>579.313604</ele>
        <time>2021-10-18T12:52:30.000Z</time>
      </trkpt>
      <trkpt lat="43.60994" lon="2.38008">
        <ele>579.495388</ele>
        <time>2021-10-18T12:52:31.000Z</time>
      </trkpt>
      <trkpt lat="43.60995" lon="2.3801">
        <ele>579.668582</ele>
        <time>2021-10-18T12:52:32.000Z</time>
      </trkpt>
      <trkpt lat="43.60995" lon="2.38013">
        <ele>579.847473</ele>
        <time>2021-10-18T12:52:33.000Z</time>
      </trkpt>
      <trkpt lat="43.60996" lon="2.38016">
        <ele>580.015778</ele>
        <time>2021-10-18T12:52:34.000Z</time>
      </trkpt>
      <trkpt lat="43.60997" lon="2.38018">
        <ele>580.201982</ele>
        <time>2021-10-18T12:52:35.000Z</time>
      </trkpt>
      <trkpt lat="43.60998" lon="2.38021">
        <ele>580.379777</ele>
        <time>2021-10-18T12:52:36.000Z</time>
      </trkpt>
      <trkpt lat="43.60998" lon="2.38024">
        <ele>580.559808</ele>
        <time>2021-10-18T12:52:37.000Z</time>
      </trkpt>
      <trkpt lat="43.61" lon="2.38027">
        <ele>580.756304</ele>
        <time>2021-10-18T12:52:38.000Z</time>
      </trkpt>
      <trkpt lat="43.61001" lon="2.38029">
        <ele>580.947629</ele>
        <time>2021-10-18T12:52:39.000Z</time>
      </trkpt>
      <trkpt lat="43.61002" lon="2.38032">
        <ele>581.12909</ele>
        <time>2021-10-18T12:52:40.000Z</time>
      </trkpt>
      <trkpt lat="43.61003" lon="2.38034">
        <ele>581.305229</ele>
        <time>2021-10-18T12:52:41.000Z</time>
      </trkpt>
      <trkpt lat="43.61005" lon="2.38037">
        <ele>581.476766</ele>
        <time>2021-10-18T12:52:42.000Z</time>
      </trkpt>
      <trkpt lat="43.61006" lon="2.38039">
        <ele>581.66297</ele>
        <time>2021-10-18T12:52:43.000Z</time>
      </trkpt>
      <trkpt lat="43.61007" lon="2.38042">
        <ele>581.850066</ele>
        <time>2021-10-18T12:52:44.000Z</time>
      </trkpt>
      <trkpt lat="43.61008" lon="2.38045">
        <ele>582.051782</ele>
        <time>2021-10-18T12:52:45.000Z</time>
      </trkpt>
      <trkpt lat="43.61009" lon="2.38048">
        <ele>582.249493</ele>
        <time>2021-10-18T12:52:46.000Z</time>
      </trkpt>
      <trkpt lat="43.6101" lon="2.3805">
        <ele>582.440817</ele>
        <time>2021-10-18T12:52:47.000Z</time>
      </trkpt>
      <trkpt lat="43.61011" lon="2.38053">
        <ele>582.627913</ele>
        <time>2021-10-18T12:52:48.000Z</time>
      </trkpt>
      <trkpt lat="43.61013" lon="2.38056">
        <ele>582.809053</ele>
        <time>2021-10-18T12:52:49.000Z</time>
      </trkpt>
      <trkpt lat="43.61014" lon="2.38058">
        <ele>582.982953</ele>
        <time>2021-10-18T12:52:50.000Z</time>
      </trkpt>
      <trkpt lat="43.61015" lon="2.3806">
        <ele>583.149418</ele>
        <time>2021-10-18T12:52:51.000Z</time>
      </trkpt>
      <trkpt lat="43.61016" lon="2.38062">
        <ele>583.305947</ele>
        <time>2021-10-18T12:52:52.000Z</time>
      </trkpt>
      <trkpt lat="43.61018" lon="2.38064">
        <ele>583.463816</ele>
        <time>2021-10-18T12:52:53.000Z</time>
      </trkpt>
      <trkpt lat="43.61019" lon="2.38066">
        <ele>583.631815</ele>
        <time>2021-10-18T12:52:54.000Z</time>
      </trkpt>
      <trkpt lat="43.6102" lon="2.38068">
        <ele>583.794126</ele>
        <time>2021-10-18T12:52:55.000Z</time>
      </trkpt>
      <trkpt lat="43.61022" lon="2.3807">
        <ele>583.959865</ele>
        <time>2021-10-18T12:52:56.000Z</time>
      </trkpt>
      <trkpt lat="43.61023" lon="2.38072">
        <ele>584.135862</ele>
        <time>2021-10-18T12:52:57.000Z</time>
      </trkpt>
      <trkpt lat="43.61025" lon="2.38073">
        <ele>584.324822</ele>
        <time>2021-10-18T12:52:58.000Z</time>
      </trkpt>
      <trkpt lat="43.61027" lon="2.38075">
        <ele>584.50082</ele>
        <time>2021-10-18T12:52:59.000Z</time>
      </trkpt>
      <trkpt lat="43.61029" lon="2.38077">
        <ele>584.686174</ele>
        <time>2021-10-18T12:53:00.000Z</time>
      </trkpt>
      <trkpt lat="43.6103" lon="2.38079">
        <ele>584.858295</ele>
        <time>2021-10-18T12:53:01.000Z</time>
      </trkpt>
      <trkpt lat="43.61032" lon="2.38081">
        <ele>585.071553</ele>
        <time>2021-10-18T12:53:02.000Z</time>
      </trkpt>
      <trkpt lat="43.61034" lon="2.38083">
        <ele>585.264239</ele>
        <time>2021-10-18T12:53:03.000Z</time>
      </trkpt>
      <trkpt lat="43.61036" lon="2.38085">
        <ele>585.444232</ele>
        <time>2021-10-18T12:53:04.000Z</time>
      </trkpt>
      <trkpt lat="43.61037" lon="2.38087">
        <ele>585.636919</ele>
        <time>2021-10-18T12:53:05.000Z</time>
      </trkpt>
      <trkpt lat="43.61039" lon="2.38089">
        <ele>585.812916</ele>
        <time>2021-10-18T12:53:06.000Z</time>
      </trkpt>
      <trkpt lat="43.61041" lon="2.38091">
        <ele>586.017446</ele>
        <time>2021-10-18T12:53:07.000Z</time>
      </trkpt>
      <trkpt lat="43.61042" lon="2.38093">
        <ele>586.193444</ele>
        <time>2021-10-18T12:53:08.000Z</time>
      </trkpt>
      <trkpt lat="43.61044" lon="2.38095">
        <ele>586.365565</ele>
        <time>2021-10-18T12:53:09.000Z</time>
      </trkpt>
      <trkpt lat="43.61046" lon="2.38097">
        <ele>586.547443</ele>
        <time>2021-10-18T12:53:10.000Z</time>
      </trkpt>
      <trkpt lat="43.61047" lon="2.38098">
        <ele>586.705523</ele>
        <time>2021-10-18T12:53:11.000Z</time>
      </trkpt>
      <trkpt lat="43.61049" lon="2.381">
        <ele>586.877644</ele>
        <time>2021-10-18T12:53:12.000Z</time>
      </trkpt>
      <trkpt lat="43.61051" lon="2.38102">
        <ele>587.069816</ele>
        <time>2021-10-18T12:53:13.000Z</time>
      </trkpt>
      <trkpt lat="43.61053" lon="2.38104">
        <ele>587.265468</ele>
        <time>2021-10-18T12:53:14.000Z</time>
      </trkpt>
      <trkpt lat="43.61055" lon="2.38106">
        <ele>587.464721</ele>
        <time>2021-10-18T12:53:15.000Z</time>
      </trkpt>
      <trkpt lat="43.61056" lon="2.38108">
        <ele>587.63862</ele>
        <time>2021-10-18T12:53:16.000Z</time>
      </trkpt>
      <trkpt lat="43.61058" lon="2.3811">
        <ele>587.810741</ele>
        <time>2021-10-18T12:53:17.000Z</time>
      </trkpt>
      <trkpt lat="43.6106" lon="2.38112">
        <ele>587.9997</ele>
        <time>2021-10-18T12:53:18.000Z</time>
      </trkpt>
      <trkpt lat="43.61061" lon="2.38114">
        <ele>588.189933</ele>
        <time>2021-10-18T12:53:19.000Z</time>
      </trkpt>
      <trkpt lat="43.61063" lon="2.38116">
        <ele>588.38646</ele>
        <time>2021-10-18T12:53:20.000Z</time>
      </trkpt>
      <trkpt lat="43.61065" lon="2.38118">
        <ele>588.564606</ele>
        <time>2021-10-18T12:53:21.000Z</time>
      </trkpt>
      <trkpt lat="43.61066" lon="2.3812">
        <ele>588.747101</ele>
        <time>2021-10-18T12:53:22.000Z</time>
      </trkpt>
      <trkpt lat="43.61068" lon="2.38122">
        <ele>588.923098</ele>
        <time>2021-10-18T12:53:23.000Z</time>
      </trkpt>
      <trkpt lat="43.6107" lon="2.38124">
        <ele>589.108706</ele>
        <time>2021-10-18T12:53:24.000Z</time>
      </trkpt>
      <trkpt lat="43.61071" lon="2.38126">
        <ele>589.297016</ele>
        <time>2021-10-18T12:53:25.000Z</time>
      </trkpt>
      <trkpt lat="43.61073" lon="2.38128">
        <ele>589.511773</ele>
        <time>2021-10-18T12:53:26.000Z</time>
      </trkpt>
      <trkpt lat="43.61075" lon="2.38131">
        <ele>589.72469</ele>
        <time>2021-10-18T12:53:27.000Z</time>
      </trkpt>
      <trkpt lat="43.61076" lon="2.38133">
        <ele>589.920767</ele>
        <time>2021-10-18T12:53:28.000Z</time>
      </trkpt>
      <trkpt lat="43.61078" lon="2.38136">
        <ele>590.126289</ele>
        <time>2021-10-18T12:53:29.000Z</time>
      </trkpt>
      <trkpt lat="43.61079" lon="2.38139">
        <ele>590.342633</ele>
        <time>2021-10-18T12:53:30.000Z</time>
      </trkpt>
      <trkpt lat="43.61081" lon="2.38142">
        <ele>590.577925</ele>
        <time>2021-10-18T12:53:31.000Z</time>
      </trkpt>
      <trkpt lat="43.61083" lon="2.38145">
        <ele>590.802941</ele>
        <time>2021-10-18T12:53:32.000Z</time>
      </trkpt>
      <trkpt lat="43.61084" lon="2.38148">
        <ele>591.047655</ele>
        <time>2021-10-18T12:53:33.000Z</time>
      </trkpt>
      <trkpt lat="43.61086" lon="2.38152">
        <ele>591.279854</ele>
        <time>2021-10-18T12:53:34.000Z</time>
      </trkpt>
      <trkpt lat="43.61087" lon="2.38155">
        <ele>591.534374</ele>
        <time>2021-10-18T12:53:35.000Z</time>
      </trkpt>
      <trkpt lat="43.61089" lon="2.38158">
        <ele>591.762796</ele>
        <time>2021-10-18T12:53:36.000Z</time>
      </trkpt>
      <trkpt lat="43.6109" lon="2.38162">
        <ele>591.993008</ele>
        <time>2021-10-18T12:53:37.000Z</time>
      </trkpt>
      <trkpt lat="43.61091" lon="2.38165">
        <ele>592.22898</ele>
        <time>2021-10-18T12:53:38.000Z</time>
      </trkpt>
      <trkpt lat="43.61092" lon="2.38169">
        <ele>592.473816</ele>
        <time>2021-10-18T12:53:39.000Z</time>
      </trkpt>
      <trkpt lat="43.61094" lon="2.38173">
        <ele>592.734078</ele>
        <time>2021-10-18T12:53:40.000Z</time>
      </trkpt>
      <trkpt lat="43.61096" lon="2.38176">
        <ele>592.99434</ele>
        <time>2021-10-18T12:53:41.000Z</time>
      </trkpt>
      <trkpt lat="43.61097" lon="2.3818">
        <ele>593.263536</ele>
        <time>2021-10-18T12:53:42.000Z</time>
      </trkpt>
      <trkpt lat="43.61099" lon="2.38184">
        <ele>593.524908</ele>
        <time>2021-10-18T12:53:43.000Z</time>
      </trkpt>
      <trkpt lat="43.611" lon="2.38188">
        <ele>593.790372</ele>
        <time>2021-10-18T12:53:44.000Z</time>
      </trkpt>
      <trkpt lat="43.61102" lon="2.38191">
        <ele>594.028336</ele>
        <time>2021-10-18T12:53:45.000Z</time>
      </trkpt>
      <trkpt lat="43.61104" lon="2.38195">
        <ele>594.126238</ele>
        <time>2021-10-18T12:53:46.000Z</time>
      </trkpt>
      <trkpt lat="43.61106" lon="2.38199">
        <ele>594.217407</ele>
        <time>2021-10-18T12:53:47.000Z</time>
      </trkpt>
      <trkpt lat="43.61108" lon="2.38202">
        <ele>594.308404</ele>
        <time>2021-10-18T12:53:48.000Z</time>
      </trkpt>
      <trkpt lat="43.6111" lon="2.38205">
        <ele>594.396064</ele>
        <time>2021-10-18T12:53:49.000Z</time>
      </trkpt>
      <trkpt lat="43.61112" lon="2.38208">
        <ele>594.478888</ele>
        <time>2021-10-18T12:53:50.000Z</time>
      </trkpt>
      <trkpt lat="43.61114" lon="2.3821">
        <ele>594.556467</ele>
        <time>2021-10-18T12:53:51.000Z</time>
      </trkpt>
      <trkpt lat="43.61116" lon="2.38213">
        <ele>594.641391</ele>
        <time>2021-10-18T12:53:52.000Z</time>
      </trkpt>
      <trkpt lat="43.61118" lon="2.38216">
        <ele>594.724214</ele>
        <time>2021-10-18T12:53:53.000Z</time>
      </trkpt>
      <trkpt lat="43.6112" lon="2.38218">
        <ele>594.807038</ele>
        <time>2021-10-18T12:53:54.000Z</time>
      </trkpt>
      <trkpt lat="43.61122" lon="2.38221">
        <ele>594.890405</ele>
        <time>2021-10-18T12:53:55.000Z</time>
      </trkpt>
      <trkpt lat="43.61124" lon="2.38224">
        <ele>594.98106</ele>
        <time>2021-10-18T12:53:56.000Z</time>
      </trkpt>
      <trkpt lat="43.61126" lon="2.38227">
        <ele>595.065151</ele>
        <time>2021-10-18T12:53:57.000Z</time>
      </trkpt>
      <trkpt lat="43.61127" lon="2.3823">
        <ele>595.143842</ele>
        <time>2021-10-18T12:53:58.000Z</time>
      </trkpt>
      <trkpt lat="43.61129" lon="2.38233">
        <ele>595.226117</ele>
        <time>2021-10-18T12:53:59.000Z</time>
      </trkpt>
      <trkpt lat="43.6113" lon="2.38237">
        <ele>595.317286</ele>
        <time>2021-10-18T12:54:00.000Z</time>
      </trkpt>
      <trkpt lat="43.61132" lon="2.3824">
        <ele>595.413494</ele>
        <time>2021-10-18T12:54:01.000Z</time>
      </trkpt>
      <trkpt lat="43.61134" lon="2.38244">
        <ele>595.508072</ele>
        <time>2021-10-18T12:54:02.000Z</time>
      </trkpt>
      <trkpt lat="43.61136" lon="2.38248">
        <ele>595.61297</ele>
        <time>2021-10-18T12:54:03.000Z</time>
      </trkpt>
      <trkpt lat="43.61137" lon="2.38252">
        <ele>595.707845</ele>
        <time>2021-10-18T12:54:04.000Z</time>
      </trkpt>
      <trkpt lat="43.61139" lon="2.38256">
        <ele>595.802719</ele>
        <time>2021-10-18T12:54:05.000Z</time>
      </trkpt>
      <trkpt lat="43.61141" lon="2.38259">
        <ele>595.898868</ele>
        <time>2021-10-18T12:54:06.000Z</time>
      </trkpt>
      <trkpt lat="43.61143" lon="2.38263">
        <ele>595.995275</ele>
        <time>2021-10-18T12:54:07.000Z</time>
      </trkpt>
      <trkpt lat="43.61144" lon="2.38267">
        <ele>596.082777</ele>
        <time>2021-10-18T12:54:08.000Z</time>
      </trkpt>
      <trkpt lat="43.61145" lon="2.3827">
        <ele>596.172422</ele>
        <time>2021-10-18T12:54:09.000Z</time>
      </trkpt>
      <trkpt lat="43.61147" lon="2.38274">
        <ele>596.263131</ele>
        <time>2021-10-18T12:54:10.000Z</time>
      </trkpt>
      <trkpt lat="43.61148" lon="2.38278">
        <ele>596.36295</ele>
        <time>2021-10-18T12:54:11.000Z</time>
      </trkpt>
      <trkpt lat="43.6115" lon="2.38282">
        <ele>596.456361</ele>
        <time>2021-10-18T12:54:12.000Z</time>
      </trkpt>
      <trkpt lat="43.61151" lon="2.38286">
        <ele>596.551673</ele>
        <time>2021-10-18T12:54:13.000Z</time>
      </trkpt>
      <trkpt lat="43.61153" lon="2.38289">
        <ele>596.644436</ele>
        <time>2021-10-18T12:54:14.000Z</time>
      </trkpt>
      <trkpt lat="43.61155" lon="2.38293">
        <ele>596.73886</ele>
        <time>2021-10-18T12:54:15.000Z</time>
      </trkpt>
      <trkpt lat="43.61156" lon="2.38296">
        <ele>596.82479</ele>
        <time>2021-10-18T12:54:16.000Z</time>
      </trkpt>
      <trkpt lat="43.61158" lon="2.383">
        <ele>596.910508</ele>
        <time>2021-10-18T12:54:17.000Z</time>
      </trkpt>
      <trkpt lat="43.6116" lon="2.38303">
        <ele>596.996438</ele>
        <time>2021-10-18T12:54:18.000Z</time>
      </trkpt>
      <trkpt lat="43.61161" lon="2.38306">
        <ele>597.080533</ele>
        <time>2021-10-18T12:54:19.000Z</time>
      </trkpt>
      <trkpt lat="43.61163" lon="2.3831">
        <ele>597.166464</ele>
        <time>2021-10-18T12:54:20.000Z</time>
      </trkpt>
      <trkpt lat="43.61164" lon="2.38313">
        <ele>597.253983</ele>
        <time>2021-10-18T12:54:21.000Z</time>
      </trkpt>
      <trkpt lat="43.61166" lon="2.38317">
        <ele>597.351884</ele>
        <time>2021-10-18T12:54:22.000Z</time>
      </trkpt>
      <trkpt lat="43.61168" lon="2.3832">
        <ele>597.439403</ele>
        <time>2021-10-18T12:54:23.000Z</time>
      </trkpt>
      <trkpt lat="43.6117" lon="2.38324">
        <ele>597.537337</ele>
        <time>2021-10-18T12:54:24.000Z</time>
      </trkpt>
      <trkpt lat="43.61172" lon="2.38328">
        <ele>597.640484</ele>
        <time>2021-10-18T12:54:25.000Z</time>
      </trkpt>
      <trkpt lat="43.61173" lon="2.38332">
        <ele>597.737086</ele>
        <time>2021-10-18T12:54:26.000Z</time>
      </trkpt>
      <trkpt lat="43.61175" lon="2.38336">
        <ele>597.836756</ele>
        <time>2021-10-18T12:54:27.000Z</time>
      </trkpt>
      <trkpt lat="43.61177" lon="2.38339">
        <ele>597.931169</ele>
        <time>2021-10-18T12:54:28.000Z</time>
      </trkpt>
      <trkpt lat="43.61179" lon="2.38343">
        <ele>598.030839</ele>
        <time>2021-10-18T12:54:29.000Z</time>
      </trkpt>
      <trkpt lat="43.61181" lon="2.38347">
        <ele>598.139334</ele>
        <time>2021-10-18T12:54:30.000Z</time>
      </trkpt>
      <trkpt lat="43.61183" lon="2.38351">
        <ele>598.248056</ele>
        <time>2021-10-18T12:54:31.000Z</time>
      </trkpt>
      <trkpt lat="43.61185" lon="2.38355">
        <ele>598.358299</ele>
        <time>2021-10-18T12:54:32.000Z</time>
      </trkpt>
      <trkpt lat="43.61187" lon="2.38359">
        <ele>598.459752</ele>
        <time>2021-10-18T12:54:33.000Z</time>
      </trkpt>
      <trkpt lat="43.61189" lon="2.38363">
        <ele>598.571693</ele>
        <time>2021-10-18T12:54:34.000Z</time>
      </trkpt>
      <trkpt lat="43.61191" lon="2.38368">
        <ele>598.683574</ele>
        <time>2021-10-18T12:54:35.000Z</time>
      </trkpt>
      <trkpt lat="43.61193" lon="2.38372">
        <ele>598.793879</ele>
        <time>2021-10-18T12:54:36.000Z</time>
      </trkpt>
      <trkpt lat="43.61195" lon="2.38376">
        <ele>598.900765</ele>
        <time>2021-10-18T12:54:37.000Z</time>
      </trkpt>
      <trkpt lat="43.61197" lon="2.3838">
        <ele>599.007964</ele>
        <time>2021-10-18T12:54:38.000Z</time>
      </trkpt>
      <trkpt lat="43.61199" lon="2.38385">
        <ele>599.12009</ele>
        <time>2021-10-18T12:54:39.000Z</time>
      </trkpt>
      <trkpt lat="43.61201" lon="2.38389">
        <ele>599.226976</ele>
        <time>2021-10-18T12:54:40.000Z</time>
      </trkpt>
      <trkpt lat="43.61203" lon="2.38393">
        <ele>599.34063</ele>
        <time>2021-10-18T12:54:41.000Z</time>
      </trkpt>
      <trkpt lat="43.61205" lon="2.38397">
        <ele>599.360273</ele>
        <time>2021-10-18T12:54:42.000Z</time>
      </trkpt>
      <trkpt lat="43.61207" lon="2.38402">
        <ele>599.351008</ele>
        <time>2021-10-18T12:54:43.000Z</time>
      </trkpt>
      <trkpt lat="43.61209" lon="2.38406">
        <ele>599.341762</ele>
        <time>2021-10-18T12:54:44.000Z</time>
      </trkpt>
      <trkpt lat="43.61211" lon="2.3841">
        <ele>599.332964</ele>
        <time>2021-10-18T12:54:45.000Z</time>
      </trkpt>
      <trkpt lat="43.61213" lon="2.38414">
        <ele>599.324165</ele>
        <time>2021-10-18T12:54:46.000Z</time>
      </trkpt>
      <trkpt lat="43.61215" lon="2.38418">
        <ele>599.314743</ele>
        <time>2021-10-18T12:54:47.000Z</time>
      </trkpt>
      <trkpt lat="43.61216" lon="2.38423">
        <ele>599.305287</ele>
        <time>2021-10-18T12:54:48.000Z</time>
      </trkpt>
      <trkpt lat="43.61218" lon="2.38427">
        <ele>599.296559</ele>
        <time>2021-10-18T12:54:49.000Z</time>
      </trkpt>
      <trkpt lat="43.61219" lon="2.38431">
        <ele>599.287946</ele>
        <time>2021-10-18T12:54:50.000Z</time>
      </trkpt>
      <trkpt lat="43.61221" lon="2.38435">
        <ele>599.279545</ele>
        <time>2021-10-18T12:54:51.000Z</time>
      </trkpt>
      <trkpt lat="43.61221" lon="2.3844">
        <ele>599.2709</ele>
        <time>2021-10-18T12:54:52.000Z</time>
      </trkpt>
      <trkpt lat="43.61222" lon="2.38444">
        <ele>599.262708</ele>
        <time>2021-10-18T12:54:53.000Z</time>
      </trkpt>
      <trkpt lat="43.61223" lon="2.38448">
        <ele>599.256272</ele>
        <time>2021-10-18T12:54:54.000Z</time>
      </trkpt>
      <trkpt lat="43.61223" lon="2.38451">
        <ele>599.250571</ele>
        <time>2021-10-18T12:54:55.000Z</time>
      </trkpt>
      <trkpt lat="43.61223" lon="2.38454">
        <ele>599.244869</ele>
        <time>2021-10-18T12:54:56.000Z</time>
      </trkpt>
      <trkpt lat="43.61223" lon="2.38457">
        <ele>599.239117</ele>
        <time>2021-10-18T12:54:57.000Z</time>
      </trkpt>
      <trkpt lat="43.61223" lon="2.3846">
        <ele>599.233042</ele>
        <time>2021-10-18T12:54:58.000Z</time>
      </trkpt>
      <trkpt lat="43.61223" lon="2.38464">
        <ele>599.22656</ele>
        <time>2021-10-18T12:54:59.000Z</time>
      </trkpt>
      <trkpt lat="43.61223" lon="2.38468">
        <ele>599.218652</ele>
        <time>2021-10-18T12:55:00.000Z</time>
      </trkpt>
      <trkpt lat="43.61223" lon="2.38473">
        <ele>599.210555</ele>
        <time>2021-10-18T12:55:01.000Z</time>
      </trkpt>
      <trkpt lat="43.61224" lon="2.38477">
        <ele>599.203129</ele>
        <time>2021-10-18T12:55:02.000Z</time>
      </trkpt>
      <trkpt lat="43.61224" lon="2.38481">
        <ele>599.195796</ele>
        <time>2021-10-18T12:55:03.000Z</time>
      </trkpt>
      <trkpt lat="43.61226" lon="2.38485">
        <ele>599.187183</ele>
        <time>2021-10-18T12:55:04.000Z</time>
      </trkpt>
      <trkpt lat="43.61227" lon="2.38489">
        <ele>599.178273</ele>
        <time>2021-10-18T12:55:05.000Z</time>
      </trkpt>
      <trkpt lat="43.61228" lon="2.38494">
        <ele>599.169969</ele>
        <time>2021-10-18T12:55:06.000Z</time>
      </trkpt>
      <trkpt lat="43.61229" lon="2.38498">
        <ele>599.161407</ele>
        <time>2021-10-18T12:55:07.000Z</time>
      </trkpt>
      <trkpt lat="43.6123" lon="2.38503">
        <ele>599.151894</ele>
        <time>2021-10-18T12:55:08.000Z</time>
      </trkpt>
      <trkpt lat="43.61232" lon="2.38507">
        <ele>599.142984</ele>
        <time>2021-10-18T12:55:09.000Z</time>
      </trkpt>
      <trkpt lat="43.61233" lon="2.38512">
        <ele>599.1339</ele>
        <time>2021-10-18T12:55:10.000Z</time>
      </trkpt>
      <trkpt lat="43.61234" lon="2.38517">
        <ele>599.12464</ele>
        <time>2021-10-18T12:55:11.000Z</time>
      </trkpt>
      <trkpt lat="43.61234" lon="2.38522">
        <ele>599.115815</ele>
        <time>2021-10-18T12:55:12.000Z</time>
      </trkpt>
      <trkpt lat="43.61235" lon="2.38527">
        <ele>599.106517</ele>
        <time>2021-10-18T12:55:13.000Z</time>
      </trkpt>
      <trkpt lat="43.61236" lon="2.38532">
        <ele>599.09673</ele>
        <time>2021-10-18T12:55:14.000Z</time>
      </trkpt>
      <trkpt lat="43.61238" lon="2.38537">
        <ele>599.087042</ele>
        <time>2021-10-18T12:55:15.000Z</time>
      </trkpt>
      <trkpt lat="43.61239" lon="2.38541">
        <ele>599.077703</ele>
        <time>2021-10-18T12:55:16.000Z</time>
      </trkpt>
      <trkpt lat="43.6124" lon="2.38547">
        <ele>599.067408</ele>
        <time>2021-10-18T12:55:17.000Z</time>
      </trkpt>
      <trkpt lat="43.61241" lon="2.38552">
        <ele>599.056621</ele>
        <time>2021-10-18T12:55:18.000Z</time>
      </trkpt>
      <trkpt lat="43.61242" lon="2.38558">
        <ele>599.045656</ele>
        <time>2021-10-18T12:55:19.000Z</time>
      </trkpt>
      <trkpt lat="43.61244" lon="2.38564">
        <ele>599.034674</ele>
        <time>2021-10-18T12:55:20.000Z</time>
      </trkpt>
      <trkpt lat="43.61245" lon="2.38569">
        <ele>599.023865</ele>
        <time>2021-10-18T12:55:21.000Z</time>
      </trkpt>
      <trkpt lat="43.61247" lon="2.38575">
        <ele>599.012364</ele>
        <time>2021-10-18T12:55:22.000Z</time>
      </trkpt>
      <trkpt lat="43.61248" lon="2.38581">
        <ele>599.000949</ele>
        <time>2021-10-18T12:55:23.000Z</time>
      </trkpt>
      <trkpt lat="43.6125" lon="2.38587">
        <ele>598.989705</ele>
        <time>2021-10-18T12:55:24.000Z</time>
      </trkpt>
      <trkpt lat="43.61252" lon="2.38592">
        <ele>598.977997</ele>
        <time>2021-10-18T12:55:25.000Z</time>
      </trkpt>
      <trkpt lat="43.61254" lon="2.38598">
        <ele>598.966677</ele>
        <time>2021-10-18T12:55:26.000Z</time>
      </trkpt>
      <trkpt lat="43.61256" lon="2.38603">
        <ele>598.955281</ele>
        <time>2021-10-18T12:55:27.000Z</time>
      </trkpt>
      <trkpt lat="43.61258" lon="2.38609">
        <ele>598.944239</ele>
        <time>2021-10-18T12:55:28.000Z</time>
      </trkpt>
      <trkpt lat="43.6126" lon="2.38614">
        <ele>598.932755</ele>
        <time>2021-10-18T12:55:29.000Z</time>
      </trkpt>
      <trkpt lat="43.61262" lon="2.3862">
        <ele>598.920386</ele>
        <time>2021-10-18T12:55:30.000Z</time>
      </trkpt>
      <trkpt lat="43.61264" lon="2.38626">
        <ele>598.875389</ele>
        <time>2021-10-18T12:55:31.000Z</time>
      </trkpt>
      <trkpt lat="43.61267" lon="2.38632">
        <ele>598.682027</ele>
        <time>2021-10-18T12:55:32.000Z</time>
      </trkpt>
      <trkpt lat="43.61269" lon="2.38638">
        <ele>598.506117</ele>
        <time>2021-10-18T12:55:33.000Z</time>
      </trkpt>
      <trkpt lat="43.61271" lon="2.38643">
        <ele>598.333813</ele>
        <time>2021-10-18T12:55:34.000Z</time>
      </trkpt>
      <trkpt lat="43.61273" lon="2.38648">
        <ele>598.177132</ele>
        <time>2021-10-18T12:55:35.000Z</time>
      </trkpt>
      <trkpt lat="43.61275" lon="2.38652">
        <ele>598.040496</ele>
        <time>2021-10-18T12:55:36.000Z</time>
      </trkpt>
      <trkpt lat="43.61276" lon="2.38656">
        <ele>597.930372</ele>
        <time>2021-10-18T12:55:37.000Z</time>
      </trkpt>
      <trkpt lat="43.61277" lon="2.38658">
        <ele>597.866404</ele>
        <time>2021-10-18T12:55:38.000Z</time>
      </trkpt>
      <trkpt lat="43.61278" lon="2.38659">
        <ele>597.818773</ele>
        <time>2021-10-18T12:55:39.000Z</time>
      </trkpt>
      <trkpt lat="43.61278" lon="2.3866">
        <ele>597.785866</ele>
        <time>2021-10-18T12:55:40.000Z</time>
      </trkpt>
      <trkpt lat="43.61278" lon="2.38661">
        <ele>597.755071</ele>
        <time>2021-10-18T12:55:41.000Z</time>
      </trkpt>
      <trkpt lat="43.61279" lon="2.38663">
        <ele>597.719531</ele>
        <time>2021-10-18T12:55:42.000Z</time>
      </trkpt>
      <trkpt lat="43.61279" lon="2.38664">
        <ele>597.682932</ele>
        <time>2021-10-18T12:55:43.000Z</time>
      </trkpt>
      <trkpt lat="43.61279" lon="2.38665">
        <ele>597.651895</ele>
        <time>2021-10-18T12:55:44.000Z</time>
      </trkpt>
      <trkpt lat="43.61278" lon="2.38666">
        <ele>597.604132</ele>
        <time>2021-10-18T12:55:45.000Z</time>
      </trkpt>
      <trkpt lat="43.61277" lon="2.38668">
        <ele>597.537664</ele>
        <time>2021-10-18T12:55:46.000Z</time>
      </trkpt>
      <trkpt lat="43.61275" lon="2.3867">
        <ele>597.444252</ele>
        <time>2021-10-18T12:55:47.000Z</time>
      </trkpt>
      <trkpt lat="43.61274" lon="2.38674">
        <ele>597.337176</ele>
        <time>2021-10-18T12:55:48.000Z</time>
      </trkpt>
      <trkpt lat="43.61273" lon="2.38678">
        <ele>597.214768</ele>
        <time>2021-10-18T12:55:49.000Z</time>
      </trkpt>
      <trkpt lat="43.61272" lon="2.38682">
        <ele>597.087314</ele>
        <time>2021-10-18T12:55:50.000Z</time>
      </trkpt>
      <trkpt lat="43.61272" lon="2.38687">
        <ele>596.961276</ele>
        <time>2021-10-18T12:55:51.000Z</time>
      </trkpt>
      <trkpt lat="43.61273" lon="2.38691">
        <ele>596.838654</ele>
        <time>2021-10-18T12:55:52.000Z</time>
      </trkpt>
      <trkpt lat="43.61274" lon="2.38695">
        <ele>596.714879</ele>
        <time>2021-10-18T12:55:53.000Z</time>
      </trkpt>
      <trkpt lat="43.61275" lon="2.387">
        <ele>596.579714</ele>
        <time>2021-10-18T12:55:54.000Z</time>
      </trkpt>
      <trkpt lat="43.61276" lon="2.38705">
        <ele>596.433625</ele>
        <time>2021-10-18T12:55:55.000Z</time>
      </trkpt>
      <trkpt lat="43.61277" lon="2.3871">
        <ele>596.285706</ele>
        <time>2021-10-18T12:55:56.000Z</time>
      </trkpt>
      <trkpt lat="43.61277" lon="2.38714">
        <ele>596.164337</ele>
        <time>2021-10-18T12:55:57.000Z</time>
      </trkpt>
      <trkpt lat="43.61278" lon="2.38718">
        <ele>596.067209</ele>
        <time>2021-10-18T12:55:58.000Z</time>
      </trkpt>
      <trkpt lat="43.61278" lon="2.38721">
        <ele>595.985461</ele>
        <time>2021-10-18T12:55:59.000Z</time>
      </trkpt>
      <trkpt lat="43.61278" lon="2.38723">
        <ele>595.915473</ele>
        <time>2021-10-18T12:56:00.000Z</time>
      </trkpt>
      <trkpt lat="43.61279" lon="2.38725">
        <ele>595.861032</ele>
        <time>2021-10-18T12:56:01.000Z</time>
      </trkpt>
      <trkpt lat="43.61278" lon="2.38726">
        <ele>595.827216</ele>
        <time>2021-10-18T12:56:02.000Z</time>
      </trkpt>
      <trkpt lat="43.61278" lon="2.38727">
        <ele>595.796913</ele>
        <time>2021-10-18T12:56:03.000Z</time>
      </trkpt>
      <trkpt lat="43.61278" lon="2.38728">
        <ele>595.776499</ele>
        <time>2021-10-18T12:56:04.000Z</time>
      </trkpt>
      <trkpt lat="43.61278" lon="2.38728">
        <ele>595.776499</ele>
        <time>2021-10-18T12:56:06.000Z</time>
      </trkpt>
      <trkpt lat="43.61278" lon="2.38736">
        <ele>595.535244</ele>
        <time>2021-10-18T12:56:29.000Z</time>
      </trkpt>
      <trkpt lat="43.61278" lon="2.38738">
        <ele>595.49605</ele>
        <time>2021-10-18T12:56:30.000Z</time>
      </trkpt>
      <trkpt lat="43.61278" lon="2.38739">
        <ele>595.454057</ele>
        <time>2021-10-18T12:56:31.000Z</time>
      </trkpt>
      <trkpt lat="43.61278" lon="2.38741">
        <ele>595.395267</ele>
        <time>2021-10-18T12:56:32.000Z</time>
      </trkpt>
      <trkpt lat="43.61278" lon="2.38743">
        <ele>595.342076</ele>
        <time>2021-10-18T12:56:33.000Z</time>
      </trkpt>
      <trkpt lat="43.61279" lon="2.38745">
        <ele>595.286682</ele>
        <time>2021-10-18T12:56:34.000Z</time>
      </trkpt>
      <trkpt lat="43.61279" lon="2.38747">
        <ele>595.231288</ele>
        <time>2021-10-18T12:56:35.000Z</time>
      </trkpt>
      <trkpt lat="43.61279" lon="2.38749">
        <ele>595.178576</ele>
        <time>2021-10-18T12:56:36.000Z</time>
      </trkpt>
      <trkpt lat="43.6128" lon="2.38751">
        <ele>595.123182</ele>
        <time>2021-10-18T12:56:37.000Z</time>
      </trkpt>
      <trkpt lat="43.6128" lon="2.38753">
        <ele>595.065095</ele>
        <time>2021-10-18T12:56:38.000Z</time>
      </trkpt>
      <trkpt lat="43.61281" lon="2.38755">
        <ele>594.994729</ele>
        <time>2021-10-18T12:56:39.000Z</time>
      </trkpt>
      <trkpt lat="43.61283" lon="2.38757">
        <ele>594.923553</ele>
        <time>2021-10-18T12:56:40.000Z</time>
      </trkpt>
      <trkpt lat="43.61283" lon="2.38759">
        <ele>594.862021</ele>
        <time>2021-10-18T12:56:41.000Z</time>
      </trkpt>
      <trkpt lat="43.61284" lon="2.38761">
        <ele>594.800489</ele>
        <time>2021-10-18T12:56:42.000Z</time>
      </trkpt>
      <trkpt lat="43.61285" lon="2.38763">
        <ele>594.713757</ele>
        <time>2021-10-18T12:56:43.000Z</time>
      </trkpt>
      <trkpt lat="43.61286" lon="2.38766">
        <ele>594.614588</ele>
        <time>2021-10-18T12:56:44.000Z</time>
      </trkpt>
      <trkpt lat="43.61287" lon="2.3877">
        <ele>594.52368</ele>
        <time>2021-10-18T12:56:45.000Z</time>
      </trkpt>
      <trkpt lat="43.61288" lon="2.38772">
        <ele>594.440224</ele>
        <time>2021-10-18T12:56:46.000Z</time>
      </trkpt>
      <trkpt lat="43.61288" lon="2.38775">
        <ele>594.362566</ele>
        <time>2021-10-18T12:56:47.000Z</time>
      </trkpt>
      <trkpt lat="43.61289" lon="2.38778">
        <ele>594.287527</ele>
        <time>2021-10-18T12:56:48.000Z</time>
      </trkpt>
      <trkpt lat="43.61289" lon="2.38781">
        <ele>594.202129</ele>
        <time>2021-10-18T12:56:49.000Z</time>
      </trkpt>
      <trkpt lat="43.6129" lon="2.38784">
        <ele>594.113976</ele>
        <time>2021-10-18T12:56:50.000Z</time>
      </trkpt>
      <trkpt lat="43.6129" lon="2.38786">
        <ele>594.04027</ele>
        <time>2021-10-18T12:56:51.000Z</time>
      </trkpt>
      <trkpt lat="43.6129" lon="2.38789">
        <ele>593.96738</ele>
        <time>2021-10-18T12:56:52.000Z</time>
      </trkpt>
      <trkpt lat="43.6129" lon="2.38791">
        <ele>593.893674</ele>
        <time>2021-10-18T12:56:53.000Z</time>
      </trkpt>
      <trkpt lat="43.6129" lon="2.38794">
        <ele>593.820886</ele>
        <time>2021-10-18T12:56:54.000Z</time>
      </trkpt>
      <trkpt lat="43.61291" lon="2.38797">
        <ele>593.742404</ele>
        <time>2021-10-18T12:56:55.000Z</time>
      </trkpt>
      <trkpt lat="43.61291" lon="2.388">
        <ele>593.656825</ele>
        <time>2021-10-18T12:56:56.000Z</time>
      </trkpt>
      <trkpt lat="43.61292" lon="2.38802">
        <ele>593.592273</ele>
        <time>2021-10-18T12:56:57.000Z</time>
      </trkpt>
      <trkpt lat="43.61292" lon="2.38804">
        <ele>593.535072</ele>
        <time>2021-10-18T12:56:58.000Z</time>
      </trkpt>
      <trkpt lat="43.61293" lon="2.38806">
        <ele>593.484091</ele>
        <time>2021-10-18T12:56:59.000Z</time>
      </trkpt>
      <trkpt lat="43.61292" lon="2.38808">
        <ele>593.427569</ele>
        <time>2021-10-18T12:57:00.000Z</time>
      </trkpt>
      <trkpt lat="43.61293" lon="2.3881">
        <ele>593.357155</ele>
        <time>2021-10-18T12:57:01.000Z</time>
      </trkpt>
      <trkpt lat="43.61293" lon="2.38813">
        <ele>593.278768</ele>
        <time>2021-10-18T12:57:02.000Z</time>
      </trkpt>
      <trkpt lat="43.61293" lon="2.38816">
        <ele>593.200382</ele>
        <time>2021-10-18T12:57:03.000Z</time>
      </trkpt>
      <trkpt lat="43.61292" lon="2.38818">
        <ele>593.126675</ele>
        <time>2021-10-18T12:57:04.000Z</time>
      </trkpt>
      <trkpt lat="43.61293" lon="2.38821">
        <ele>593.060455</ele>
        <time>2021-10-18T12:57:05.000Z</time>
      </trkpt>
      <trkpt lat="43.61293" lon="2.38823">
        <ele>592.995902</ele>
        <time>2021-10-18T12:57:06.000Z</time>
      </trkpt>
      <trkpt lat="43.61294" lon="2.38825">
        <ele>592.919383</ele>
        <time>2021-10-18T12:57:07.000Z</time>
      </trkpt>
      <trkpt lat="43.61295" lon="2.38828">
        <ele>592.839096</ele>
        <time>2021-10-18T12:57:08.000Z</time>
      </trkpt>
      <trkpt lat="43.61295" lon="2.38831">
        <ele>592.756168</ele>
        <time>2021-10-18T12:57:09.000Z</time>
      </trkpt>
      <trkpt lat="43.61296" lon="2.38833">
        <ele>592.681756</ele>
        <time>2021-10-18T12:57:10.000Z</time>
      </trkpt>
      <trkpt lat="43.61296" lon="2.38836">
        <ele>592.614123</ele>
        <time>2021-10-18T12:57:11.000Z</time>
      </trkpt>
      <trkpt lat="43.61296" lon="2.38838">
        <ele>592.53697</ele>
        <time>2021-10-18T12:57:12.000Z</time>
      </trkpt>
      <trkpt lat="43.61295" lon="2.38841">
        <ele>592.452187</ele>
        <time>2021-10-18T12:57:13.000Z</time>
      </trkpt>
      <trkpt lat="43.61295" lon="2.38844">
        <ele>592.3794</ele>
        <time>2021-10-18T12:57:14.000Z</time>
      </trkpt>
      <trkpt lat="43.61295" lon="2.38846">
        <ele>592.317689</ele>
        <time>2021-10-18T12:57:15.000Z</time>
      </trkpt>
      <trkpt lat="43.61296" lon="2.38849">
        <ele>592.246746</ele>
        <time>2021-10-18T12:57:16.000Z</time>
      </trkpt>
      <trkpt lat="43.61296" lon="2.38851">
        <ele>592.190224</ele>
        <time>2021-10-18T12:57:17.000Z</time>
      </trkpt>
      <trkpt lat="43.61297" lon="2.38853">
        <ele>592.132194</ele>
        <time>2021-10-18T12:57:18.000Z</time>
      </trkpt>
      <trkpt lat="43.61297" lon="2.38855">
        <ele>592.065006</ele>
        <time>2021-10-18T12:57:19.000Z</time>
      </trkpt>
      <trkpt lat="43.61297" lon="2.38858">
        <ele>591.980223</ele>
        <time>2021-10-18T12:57:20.000Z</time>
      </trkpt>
      <trkpt lat="43.61297" lon="2.38861">
        <ele>591.938818</ele>
        <time>2021-10-18T12:57:21.000Z</time>
      </trkpt>
      <trkpt lat="43.61297" lon="2.38864">
        <ele>591.915026</ele>
        <time>2021-10-18T12:57:22.000Z</time>
      </trkpt>
      <trkpt lat="43.61297" lon="2.38866">
        <ele>591.891874</ele>
        <time>2021-10-18T12:57:23.000Z</time>
      </trkpt>
      <trkpt lat="43.61297" lon="2.38869">
        <ele>591.864634</ele>
        <time>2021-10-18T12:57:24.000Z</time>
      </trkpt>
      <trkpt lat="43.61297" lon="2.38872">
        <ele>591.841117</ele>
        <time>2021-10-18T12:57:25.000Z</time>
      </trkpt>
      <trkpt lat="43.61297" lon="2.38874">
        <ele>591.825439</ele>
        <time>2021-10-18T12:57:26.000Z</time>
      </trkpt>
      <trkpt lat="43.61297" lon="2.38875">
        <ele>591.810583</ele>
        <time>2021-10-18T12:57:27.000Z</time>
      </trkpt>
      <trkpt lat="43.61298" lon="2.38878">
        <ele>591.78937</ele>
        <time>2021-10-18T12:57:28.000Z</time>
      </trkpt>
      <trkpt lat="43.61298" lon="2.38881">
        <ele>591.765853</ele>
        <time>2021-10-18T12:57:29.000Z</time>
      </trkpt>
      <trkpt lat="43.61298" lon="2.38883">
        <ele>591.741466</ele>
        <time>2021-10-18T12:57:30.000Z</time>
      </trkpt>
      <trkpt lat="43.61298" lon="2.38886">
        <ele>591.717048</ele>
        <time>2021-10-18T12:57:31.000Z</time>
      </trkpt>
      <trkpt lat="43.61297" lon="2.38889">
        <ele>591.690479</ele>
        <time>2021-10-18T12:57:32.000Z</time>
      </trkpt>
      <trkpt lat="43.61297" lon="2.38893">
        <ele>591.659998</ele>
        <time>2021-10-18T12:57:33.000Z</time>
      </trkpt>
      <trkpt lat="43.61297" lon="2.38896">
        <ele>591.633868</ele>
        <time>2021-10-18T12:57:34.000Z</time>
      </trkpt>
      <trkpt lat="43.61297" lon="2.38898">
        <ele>591.611797</ele>
        <time>2021-10-18T12:57:35.000Z</time>
      </trkpt>
      <trkpt lat="43.61297" lon="2.38901">
        <ele>591.588157</ele>
        <time>2021-10-18T12:57:36.000Z</time>
      </trkpt>
      <trkpt lat="43.61298" lon="2.38904">
        <ele>591.559041</ele>
        <time>2021-10-18T12:57:37.000Z</time>
      </trkpt>
      <trkpt lat="43.61298" lon="2.38908">
        <ele>591.521415</ele>
        <time>2021-10-18T12:57:38.000Z</time>
      </trkpt>
      <trkpt lat="43.61298" lon="2.38913">
        <ele>591.483962</ele>
        <time>2021-10-18T12:57:39.000Z</time>
      </trkpt>
      <trkpt lat="43.61298" lon="2.38917">
        <ele>591.448231</ele>
        <time>2021-10-18T12:57:40.000Z</time>
      </trkpt>
      <trkpt lat="43.61299" lon="2.3892">
        <ele>591.415647</ele>
        <time>2021-10-18T12:57:41.000Z</time>
      </trkpt>
      <trkpt lat="43.61299" lon="2.38924">
        <ele>591.383219</ele>
        <time>2021-10-18T12:57:42.000Z</time>
      </trkpt>
      <trkpt lat="43.61299" lon="2.38928">
        <ele>591.349925</ele>
        <time>2021-10-18T12:57:43.000Z</time>
      </trkpt>
      <trkpt lat="43.61299" lon="2.38932">
        <ele>591.317698</ele>
        <time>2021-10-18T12:57:44.000Z</time>
      </trkpt>
      <trkpt lat="43.61299" lon="2.38935">
        <ele>591.290697</ele>
        <time>2021-10-18T12:57:45.000Z</time>
      </trkpt>
      <trkpt lat="43.61299" lon="2.38938">
        <ele>591.258975</ele>
        <time>2021-10-18T12:57:46.000Z</time>
      </trkpt>
      <trkpt lat="43.61298" lon="2.38942">
        <ele>591.229609</ele>
        <time>2021-10-18T12:57:47.000Z</time>
      </trkpt>
      <trkpt lat="43.61298" lon="2.38945">
        <ele>591.202156</ele>
        <time>2021-10-18T12:57:48.000Z</time>
      </trkpt>
      <trkpt lat="43.61297" lon="2.38948">
        <ele>591.175587</ele>
        <time>2021-10-18T12:57:49.000Z</time>
      </trkpt>
      <trkpt lat="43.61297" lon="2.3895">
        <ele>591.149874</ele>
        <time>2021-10-18T12:57:50.000Z</time>
      </trkpt>
      <trkpt lat="43.61296" lon="2.38953">
        <ele>591.122392</ele>
        <time>2021-10-18T12:57:51.000Z</time>
      </trkpt>
      <trkpt lat="43.61295" lon="2.38956">
        <ele>591.092323</ele>
        <time>2021-10-18T12:57:52.000Z</time>
      </trkpt>
      <trkpt lat="43.61294" lon="2.3896">
        <ele>591.06068</ele>
        <time>2021-10-18T12:57:53.000Z</time>
      </trkpt>
      <trkpt lat="43.61293" lon="2.38963">
        <ele>591.032396</ele>
        <time>2021-10-18T12:57:54.000Z</time>
      </trkpt>
      <trkpt lat="43.61291" lon="2.38966">
        <ele>591.000641</ele>
        <time>2021-10-18T12:57:55.000Z</time>
      </trkpt>
      <trkpt lat="43.6129" lon="2.38969">
        <ele>590.968166</ele>
        <time>2021-10-18T12:57:56.000Z</time>
      </trkpt>
      <trkpt lat="43.61288" lon="2.38972">
        <ele>590.935006</ele>
        <time>2021-10-18T12:57:57.000Z</time>
      </trkpt>
      <trkpt lat="43.61287" lon="2.38975">
        <ele>590.903964</ele>
        <time>2021-10-18T12:57:58.000Z</time>
      </trkpt>
      <trkpt lat="43.61285" lon="2.38978">
        <ele>590.872921</ele>
        <time>2021-10-18T12:57:59.000Z</time>
      </trkpt>
      <trkpt lat="43.61284" lon="2.38981">
        <ele>590.842852</ele>
        <time>2021-10-18T12:58:00.000Z</time>
      </trkpt>
      <trkpt lat="43.61283" lon="2.38984">
        <ele>590.816437</ele>
        <time>2021-10-18T12:58:01.000Z</time>
      </trkpt>
      <trkpt lat="43.61282" lon="2.38986">
        <ele>590.789407</ele>
        <time>2021-10-18T12:58:02.000Z</time>
      </trkpt>
      <trkpt lat="43.61281" lon="2.38989">
        <ele>590.763997</ele>
        <time>2021-10-18T12:58:03.000Z</time>
      </trkpt>
      <trkpt lat="43.61281" lon="2.38992">
        <ele>590.738196</ele>
        <time>2021-10-18T12:58:04.000Z</time>
      </trkpt>
      <trkpt lat="43.6128" lon="2.38994">
        <ele>590.71566</ele>
        <time>2021-10-18T12:58:05.000Z</time>
      </trkpt>
      <trkpt lat="43.6128" lon="2.38997">
        <ele>590.694209</ele>
        <time>2021-10-18T12:58:06.000Z</time>
      </trkpt>
      <trkpt lat="43.61279" lon="2.38999">
        <ele>590.671909</ele>
        <time>2021-10-18T12:58:07.000Z</time>
      </trkpt>
      <trkpt lat="43.61279" lon="2.39002">
        <ele>590.648757</ele>
        <time>2021-10-18T12:58:08.000Z</time>
      </trkpt>
      <trkpt lat="43.61279" lon="2.39005">
        <ele>590.623242</ele>
        <time>2021-10-18T12:58:09.000Z</time>
      </trkpt>
      <trkpt lat="43.61278" lon="2.39007">
        <ele>590.601791</ele>
        <time>2021-10-18T12:58:10.000Z</time>
      </trkpt>
      <trkpt lat="43.61278" lon="2.3901">
        <ele>590.576933</ele>
        <time>2021-10-18T12:58:11.000Z</time>
      </trkpt>
      <trkpt lat="43.61277" lon="2.39013">
        <ele>590.553782</ele>
        <time>2021-10-18T12:58:12.000Z</time>
      </trkpt>
      <trkpt lat="43.61277" lon="2.39015">
        <ele>590.53171</ele>
        <time>2021-10-18T12:58:13.000Z</time>
      </trkpt>
      <trkpt lat="43.61277" lon="2.39017">
        <ele>590.51338</ele>
        <time>2021-10-18T12:58:14.000Z</time>
      </trkpt>
      <trkpt lat="43.61276" lon="2.3902">
        <ele>590.488261</ele>
        <time>2021-10-18T12:58:15.000Z</time>
      </trkpt>
      <trkpt lat="43.61275" lon="2.39024">
        <ele>590.452616</ele>
        <time>2021-10-18T12:58:16.000Z</time>
      </trkpt>
      <trkpt lat="43.61275" lon="2.39028">
        <ele>590.414228</ele>
        <time>2021-10-18T12:58:17.000Z</time>
      </trkpt>
      <trkpt lat="43.61274" lon="2.39033">
        <ele>590.372434</ele>
        <time>2021-10-18T12:58:18.000Z</time>
      </trkpt>
      <trkpt lat="43.61273" lon="2.39037">
        <ele>590.337936</ele>
        <time>2021-10-18T12:58:19.000Z</time>
      </trkpt>
      <trkpt lat="43.61273" lon="2.3904">
        <ele>590.307149</ele>
        <time>2021-10-18T12:58:20.000Z</time>
      </trkpt>
      <trkpt lat="43.61272" lon="2.39043">
        <ele>590.276361</ele>
        <time>2021-10-18T12:58:21.000Z</time>
      </trkpt>
      <trkpt lat="43.61272" lon="2.39047">
        <ele>590.245288</ele>
        <time>2021-10-18T12:58:22.000Z</time>
      </trkpt>
      <trkpt lat="43.61271" lon="2.3905">
        <ele>590.213661</ele>
        <time>2021-10-18T12:58:23.000Z</time>
      </trkpt>
      <trkpt lat="43.6127" lon="2.39054">
        <ele>590.183659</ele>
        <time>2021-10-18T12:58:24.000Z</time>
      </trkpt>
      <trkpt lat="43.6127" lon="2.39057">
        <ele>590.156418</ele>
        <time>2021-10-18T12:58:25.000Z</time>
      </trkpt>
      <trkpt lat="43.6127" lon="2.3906">
        <ele>590.129177</ele>
        <time>2021-10-18T12:58:26.000Z</time>
      </trkpt>
      <trkpt lat="43.6127" lon="2.39063">
        <ele>590.102149</ele>
        <time>2021-10-18T12:58:27.000Z</time>
      </trkpt>
      <trkpt lat="43.61269" lon="2.39066">
        <ele>590.074045</ele>
        <time>2021-10-18T12:58:28.000Z</time>
      </trkpt>
      <trkpt lat="43.61269" lon="2.3907">
        <ele>590.045201</ele>
        <time>2021-10-18T12:58:29.000Z</time>
      </trkpt>
      <trkpt lat="43.61269" lon="2.39073">
        <ele>590.011892</ele>
        <time>2021-10-18T12:58:30.000Z</time>
      </trkpt>
      <trkpt lat="43.61268" lon="2.39077">
        <ele>589.975748</ele>
        <time>2021-10-18T12:58:31.000Z</time>
      </trkpt>
      <trkpt lat="43.61267" lon="2.39081">
        <ele>589.939603</ele>
        <time>2021-10-18T12:58:32.000Z</time>
      </trkpt>
      <trkpt lat="43.61266" lon="2.39085">
        <ele>589.907136</ele>
        <time>2021-10-18T12:58:33.000Z</time>
      </trkpt>
      <trkpt lat="43.61265" lon="2.39089">
        <ele>589.873139</ele>
        <time>2021-10-18T12:58:34.000Z</time>
      </trkpt>
      <trkpt lat="43.61264" lon="2.39092">
        <ele>589.837827</ele>
        <time>2021-10-18T12:58:35.000Z</time>
      </trkpt>
      <trkpt lat="43.61263" lon="2.39096">
        <ele>589.798591</ele>
        <time>2021-10-18T12:58:36.000Z</time>
      </trkpt>
      <trkpt lat="43.61261" lon="2.39101">
        <ele>589.821986</ele>
        <time>2021-10-18T12:58:37.000Z</time>
      </trkpt>
      <trkpt lat="43.6126" lon="2.39105">
        <ele>589.858182</ele>
        <time>2021-10-18T12:58:38.000Z</time>
      </trkpt>
      <trkpt lat="43.61259" lon="2.3911">
        <ele>589.89492</ele>
        <time>2021-10-18T12:58:39.000Z</time>
      </trkpt>
      <trkpt lat="43.61258" lon="2.39114">
        <ele>589.926127</ele>
        <time>2021-10-18T12:58:40.000Z</time>
      </trkpt>
      <trkpt lat="43.61257" lon="2.39117">
        <ele>589.955862</ele>
        <time>2021-10-18T12:58:41.000Z</time>
      </trkpt>
      <trkpt lat="43.61257" lon="2.39121">
        <ele>589.984232</ele>
        <time>2021-10-18T12:58:42.000Z</time>
      </trkpt>
      <trkpt lat="43.61256" lon="2.39125">
        <ele>590.01322</ele>
        <time>2021-10-18T12:58:43.000Z</time>
      </trkpt>
      <trkpt lat="43.61256" lon="2.39129">
        <ele>590.042056</ele>
        <time>2021-10-18T12:58:44.000Z</time>
      </trkpt>
      <trkpt lat="43.61256" lon="2.39132">
        <ele>590.071044</ele>
        <time>2021-10-18T12:58:45.000Z</time>
      </trkpt>
      <trkpt lat="43.61256" lon="2.39137">
        <ele>590.102417</ele>
        <time>2021-10-18T12:58:46.000Z</time>
      </trkpt>
      <trkpt lat="43.61256" lon="2.3914">
        <ele>590.131234</ele>
        <time>2021-10-18T12:58:47.000Z</time>
      </trkpt>
      <trkpt lat="43.61256" lon="2.39143">
        <ele>590.152494</ele>
        <time>2021-10-18T12:58:48.000Z</time>
      </trkpt>
      <trkpt lat="43.61255" lon="2.39145">
        <ele>590.171163</ele>
        <time>2021-10-18T12:58:49.000Z</time>
      </trkpt>
      <trkpt lat="43.61254" lon="2.39148">
        <ele>590.189387</ele>
        <time>2021-10-18T12:58:50.000Z</time>
      </trkpt>
      <trkpt lat="43.61253" lon="2.3915">
        <ele>590.209423</ele>
        <time>2021-10-18T12:58:51.000Z</time>
      </trkpt>
      <trkpt lat="43.61253" lon="2.39153">
        <ele>590.232605</ele>
        <time>2021-10-18T12:58:52.000Z</time>
      </trkpt>
      <trkpt lat="43.61252" lon="2.39157">
        <ele>590.260975</ele>
        <time>2021-10-18T12:58:53.000Z</time>
      </trkpt>
      <trkpt lat="43.61251" lon="2.39161">
        <ele>590.294398</ele>
        <time>2021-10-18T12:58:54.000Z</time>
      </trkpt>
      <trkpt lat="43.61251" lon="2.39165">
        <ele>590.322941</ele>
        <time>2021-10-18T12:58:55.000Z</time>
      </trkpt>
      <trkpt lat="43.6125" lon="2.39168">
        <ele>590.351499</ele>
        <time>2021-10-18T12:58:56.000Z</time>
      </trkpt>
      <trkpt lat="43.6125" lon="2.39172">
        <ele>590.380993</ele>
        <time>2021-10-18T12:58:57.000Z</time>
      </trkpt>
      <trkpt lat="43.61249" lon="2.39176">
        <ele>590.411029</ele>
        <time>2021-10-18T12:58:58.000Z</time>
      </trkpt>
      <trkpt lat="43.61248" lon="2.3918">
        <ele>590.441499</ele>
        <time>2021-10-18T12:58:59.000Z</time>
      </trkpt>
      <trkpt lat="43.61248" lon="2.39184">
        <ele>590.473624</ele>
        <time>2021-10-18T12:59:00.000Z</time>
      </trkpt>
      <trkpt lat="43.61247" lon="2.39188">
        <ele>590.505826</ele>
        <time>2021-10-18T12:59:01.000Z</time>
      </trkpt>
      <trkpt lat="43.61246" lon="2.39192">
        <ele>590.536565</ele>
        <time>2021-10-18T12:59:02.000Z</time>
      </trkpt>
      <trkpt lat="43.61245" lon="2.39196">
        <ele>590.566897</ele>
        <time>2021-10-18T12:59:03.000Z</time>
      </trkpt>
      <trkpt lat="43.61244" lon="2.39199">
        <ele>590.59435</ele>
        <time>2021-10-18T12:59:04.000Z</time>
      </trkpt>
      <trkpt lat="43.61243" lon="2.39203">
        <ele>590.62534</ele>
        <time>2021-10-18T12:59:05.000Z</time>
      </trkpt>
      <trkpt lat="43.61242" lon="2.39207">
        <ele>590.65681</ele>
        <time>2021-10-18T12:59:06.000Z</time>
      </trkpt>
      <trkpt lat="43.61241" lon="2.3921">
        <ele>590.687142</ele>
        <time>2021-10-18T12:59:07.000Z</time>
      </trkpt>
      <trkpt lat="43.6124" lon="2.39214">
        <ele>590.715699</ele>
        <time>2021-10-18T12:59:08.000Z</time>
      </trkpt>
      <trkpt lat="43.61239" lon="2.39218">
        <ele>590.744257</ele>
        <time>2021-10-18T12:59:09.000Z</time>
      </trkpt>
      <trkpt lat="43.61238" lon="2.39221">
        <ele>590.773889</ele>
        <time>2021-10-18T12:59:10.000Z</time>
      </trkpt>
      <trkpt lat="43.61237" lon="2.39225">
        <ele>590.804924</ele>
        <time>2021-10-18T12:59:11.000Z</time>
      </trkpt>
      <trkpt lat="43.61236" lon="2.39228">
        <ele>590.83309</ele>
        <time>2021-10-18T12:59:12.000Z</time>
      </trkpt>
      <trkpt lat="43.61235" lon="2.39232">
        <ele>590.862025</ele>
        <time>2021-10-18T12:59:13.000Z</time>
      </trkpt>
      <trkpt lat="43.61234" lon="2.39236">
        <ele>590.892357</ele>
        <time>2021-10-18T12:59:14.000Z</time>
      </trkpt>
      <trkpt lat="43.61233" lon="2.39239">
        <ele>590.921641</ele>
        <time>2021-10-18T12:59:15.000Z</time>
      </trkpt>
      <trkpt lat="43.61232" lon="2.39243">
        <ele>590.948504</ele>
        <time>2021-10-18T12:59:16.000Z</time>
      </trkpt>
      <trkpt lat="43.61232" lon="2.39246">
        <ele>590.97313</ele>
        <time>2021-10-18T12:59:17.000Z</time>
      </trkpt>
      <trkpt lat="43.61231" lon="2.39248">
        <ele>590.995957</ele>
        <time>2021-10-18T12:59:18.000Z</time>
      </trkpt>
      <trkpt lat="43.6123" lon="2.39251">
        <ele>591.01808</ele>
        <time>2021-10-18T12:59:19.000Z</time>
      </trkpt>
      <trkpt lat="43.61229" lon="2.39254">
        <ele>591.043148</ele>
        <time>2021-10-18T12:59:20.000Z</time>
      </trkpt>
      <trkpt lat="43.61229" lon="2.39258">
        <ele>591.069458</ele>
        <time>2021-10-18T12:59:21.000Z</time>
      </trkpt>
      <trkpt lat="43.61228" lon="2.39261">
        <ele>591.094084</ele>
        <time>2021-10-18T12:59:22.000Z</time>
      </trkpt>
      <trkpt lat="43.61228" lon="2.39264">
        <ele>591.117963</ele>
        <time>2021-10-18T12:59:23.000Z</time>
      </trkpt>
      <trkpt lat="43.61227" lon="2.39267">
        <ele>591.142589</ele>
        <time>2021-10-18T12:59:24.000Z</time>
      </trkpt>
      <trkpt lat="43.61227" lon="2.3927">
        <ele>591.165771</ele>
        <time>2021-10-18T12:59:25.000Z</time>
      </trkpt>
      <trkpt lat="43.61226" lon="2.39272">
        <ele>591.18471</ele>
        <time>2021-10-18T12:59:26.000Z</time>
      </trkpt>
      <trkpt lat="43.61225" lon="2.39275">
        <ele>591.202705</ele>
        <time>2021-10-18T12:59:27.000Z</time>
      </trkpt>
      <trkpt lat="43.61224" lon="2.39277">
        <ele>591.224824</ele>
        <time>2021-10-18T12:59:28.000Z</time>
      </trkpt>
      <trkpt lat="43.61223" lon="2.3928">
        <ele>591.250154</ele>
        <time>2021-10-18T12:59:29.000Z</time>
      </trkpt>
      <trkpt lat="43.61221" lon="2.39283">
        <ele>591.279063</ele>
        <time>2021-10-18T12:59:30.000Z</time>
      </trkpt>
      <trkpt lat="43.6122" lon="2.39286">
        <ele>591.307972</ele>
        <time>2021-10-18T12:59:31.000Z</time>
      </trkpt>
      <trkpt lat="43.61218" lon="2.39289">
        <ele>591.335621</ele>
        <time>2021-10-18T12:59:32.000Z</time>
      </trkpt>
      <trkpt lat="43.61217" lon="2.39293">
        <ele>591.363171</ele>
        <time>2021-10-18T12:59:33.000Z</time>
      </trkpt>
      <trkpt lat="43.61216" lon="2.39296">
        <ele>591.392329</ele>
        <time>2021-10-18T12:59:34.000Z</time>
      </trkpt>
      <trkpt lat="43.61215" lon="2.393">
        <ele>591.423319</ele>
        <time>2021-10-18T12:59:35.000Z</time>
      </trkpt>
      <trkpt lat="43.61214" lon="2.39303">
        <ele>591.449499</ele>
        <time>2021-10-18T12:59:36.000Z</time>
      </trkpt>
      <trkpt lat="43.61213" lon="2.39306">
        <ele>591.47589</ele>
        <time>2021-10-18T12:59:37.000Z</time>
      </trkpt>
      <trkpt lat="43.61212" lon="2.39309">
        <ele>591.503219</ele>
        <time>2021-10-18T12:59:38.000Z</time>
      </trkpt>
      <trkpt lat="43.6121" lon="2.39312">
        <ele>591.530926</ele>
        <time>2021-10-18T12:59:39.000Z</time>
      </trkpt>
      <trkpt lat="43.61209" lon="2.39316">
        <ele>591.559417</ele>
        <time>2021-10-18T12:59:40.000Z</time>
      </trkpt>
      <trkpt lat="43.61207" lon="2.39319">
        <ele>591.588965</ele>
        <time>2021-10-18T12:59:41.000Z</time>
      </trkpt>
      <trkpt lat="43.61206" lon="2.39322">
        <ele>591.615623</ele>
        <time>2021-10-18T12:59:42.000Z</time>
      </trkpt>
      <trkpt lat="43.61205" lon="2.39325">
        <ele>591.642651</ele>
        <time>2021-10-18T12:59:43.000Z</time>
      </trkpt>
      <trkpt lat="43.61203" lon="2.39327">
        <ele>591.667223</ele>
        <time>2021-10-18T12:59:44.000Z</time>
      </trkpt>
      <trkpt lat="43.61203" lon="2.3933">
        <ele>591.688348</ele>
        <time>2021-10-18T12:59:45.000Z</time>
      </trkpt>
      <trkpt lat="43.61202" lon="2.39333">
        <ele>591.71205</ele>
        <time>2021-10-18T12:59:46.000Z</time>
      </trkpt>
      <trkpt lat="43.61201" lon="2.39336">
        <ele>591.73504</ele>
        <time>2021-10-18T12:59:47.000Z</time>
      </trkpt>
      <trkpt lat="43.612" lon="2.39338">
        <ele>591.758701</ele>
        <time>2021-10-18T12:59:48.000Z</time>
      </trkpt>
      <trkpt lat="43.61199" lon="2.39341">
        <ele>591.780711</ele>
        <time>2021-10-18T12:59:49.000Z</time>
      </trkpt>
      <trkpt lat="43.61198" lon="2.39344">
        <ele>591.805458</ele>
        <time>2021-10-18T12:59:50.000Z</time>
      </trkpt>
      <trkpt lat="43.61197" lon="2.39346">
        <ele>591.827739</ele>
        <time>2021-10-18T12:59:51.000Z</time>
      </trkpt>
      <trkpt lat="43.61196" lon="2.39349">
        <ele>591.851287</ele>
        <time>2021-10-18T12:59:52.000Z</time>
      </trkpt>
      <trkpt lat="43.61194" lon="2.39352">
        <ele>591.874949</ele>
        <time>2021-10-18T12:59:53.000Z</time>
      </trkpt>
      <trkpt lat="43.61193" lon="2.39354">
        <ele>591.899799</ele>
        <time>2021-10-18T12:59:54.000Z</time>
      </trkpt>
      <trkpt lat="43.61192" lon="2.39357">
        <ele>591.922961</ele>
        <time>2021-10-18T12:59:55.000Z</time>
      </trkpt>
      <trkpt lat="43.61192" lon="2.39359">
        <ele>591.937068</ele>
        <time>2021-10-18T12:59:56.000Z</time>
      </trkpt>
      <trkpt lat="43.61192" lon="2.3936">
        <ele>591.948953</ele>
        <time>2021-10-18T12:59:57.000Z</time>
      </trkpt>
      <trkpt lat="43.61192" lon="2.39362">
        <ele>591.958938</ele>
        <time>2021-10-18T12:59:58.000Z</time>
      </trkpt>
      <trkpt lat="43.61191" lon="2.39363">
        <ele>591.972302</ele>
        <time>2021-10-18T12:59:59.000Z</time>
      </trkpt>
      <trkpt lat="43.61191" lon="2.39366">
        <ele>591.989104</ele>
        <time>2021-10-18T13:00:00.000Z</time>
      </trkpt>
      <trkpt lat="43.61191" lon="2.39368">
        <ele>592.00667</ele>
        <time>2021-10-18T13:00:01.000Z</time>
      </trkpt>
      <trkpt lat="43.61191" lon="2.3937">
        <ele>592.023472</ele>
        <time>2021-10-18T13:00:02.000Z</time>
      </trkpt>
      <trkpt lat="43.61191" lon="2.39373">
        <ele>592.046385</ele>
        <time>2021-10-18T13:00:03.000Z</time>
      </trkpt>
      <trkpt lat="43.61191" lon="2.39377">
        <ele>592.075407</ele>
        <time>2021-10-18T13:00:04.000Z</time>
      </trkpt>
      <trkpt lat="43.61191" lon="2.39381">
        <ele>592.104448</ele>
        <time>2021-10-18T13:00:05.000Z</time>
      </trkpt>
      <trkpt lat="43.61191" lon="2.39384">
        <ele>592.132265</ele>
        <time>2021-10-18T13:00:06.000Z</time>
      </trkpt>
      <trkpt lat="43.6119" lon="2.39388">
        <ele>592.158572</ele>
        <time>2021-10-18T13:00:07.000Z</time>
      </trkpt>
      <trkpt lat="43.61189" lon="2.39391">
        <ele>592.186939</ele>
        <time>2021-10-18T13:00:08.000Z</time>
      </trkpt>
      <trkpt lat="43.61188" lon="2.39395">
        <ele>592.218602</ele>
        <time>2021-10-18T13:00:09.000Z</time>
      </trkpt>
      <trkpt lat="43.61187" lon="2.39399">
        <ele>592.251165</ele>
        <time>2021-10-18T13:00:10.000Z</time>
      </trkpt>
      <trkpt lat="43.61186" lon="2.39403">
        <ele>592.282828</ele>
        <time>2021-10-18T13:00:11.000Z</time>
      </trkpt>
      <trkpt lat="43.61185" lon="2.39406">
        <ele>592.311968</ele>
        <time>2021-10-18T13:00:12.000Z</time>
      </trkpt>
      <trkpt lat="43.61183" lon="2.39409">
        <ele>592.339023</ele>
        <time>2021-10-18T13:00:13.000Z</time>
      </trkpt>
      <trkpt lat="43.61183" lon="2.39413">
        <ele>592.364878</ele>
        <time>2021-10-18T13:00:14.000Z</time>
      </trkpt>
      <trkpt lat="43.61181" lon="2.39416">
        <ele>592.393767</ele>
        <time>2021-10-18T13:00:15.000Z</time>
      </trkpt>
      <trkpt lat="43.6118" lon="2.39419">
        <ele>592.420821</ele>
        <time>2021-10-18T13:00:16.000Z</time>
      </trkpt>
      <trkpt lat="43.61179" lon="2.39422">
        <ele>592.448344</ele>
        <time>2021-10-18T13:00:17.000Z</time>
      </trkpt>
      <trkpt lat="43.61178" lon="2.39426">
        <ele>592.474963</ele>
        <time>2021-10-18T13:00:18.000Z</time>
      </trkpt>
      <trkpt lat="43.61178" lon="2.39429">
        <ele>592.499012</ele>
        <time>2021-10-18T13:00:19.000Z</time>
      </trkpt>
      <trkpt lat="43.61177" lon="2.39432">
        <ele>592.523429</ele>
        <time>2021-10-18T13:00:20.000Z</time>
      </trkpt>
      <trkpt lat="43.61176" lon="2.39435">
        <ele>592.547846</ele>
        <time>2021-10-18T13:00:21.000Z</time>
      </trkpt>
      <trkpt lat="43.61175" lon="2.39438">
        <ele>592.573357</ele>
        <time>2021-10-18T13:00:22.000Z</time>
      </trkpt>
      <trkpt lat="43.61174" lon="2.39441">
        <ele>592.59904</ele>
        <time>2021-10-18T13:00:23.000Z</time>
      </trkpt>
      <trkpt lat="43.61173" lon="2.39444">
        <ele>592.625406</ele>
        <time>2021-10-18T13:00:24.000Z</time>
      </trkpt>
      <trkpt lat="43.61172" lon="2.39447">
        <ele>592.654294</ele>
        <time>2021-10-18T13:00:25.000Z</time>
      </trkpt>
      <trkpt lat="43.6117" lon="2.39451">
        <ele>592.686659</ele>
        <time>2021-10-18T13:00:26.000Z</time>
      </trkpt>
      <trkpt lat="43.61169" lon="2.39455">
        <ele>592.721743</ele>
        <time>2021-10-18T13:00:27.000Z</time>
      </trkpt>
      <trkpt lat="43.61167" lon="2.3946">
        <ele>592.760274</ele>
        <time>2021-10-18T13:00:28.000Z</time>
      </trkpt>
      <trkpt lat="43.61166" lon="2.39464">
        <ele>592.798726</ele>
        <time>2021-10-18T13:00:29.000Z</time>
      </trkpt>
      <trkpt lat="43.61165" lon="2.39469">
        <ele>592.833374</ele>
        <time>2021-10-18T13:00:30.000Z</time>
      </trkpt>
      <trkpt lat="43.61164" lon="2.39473">
        <ele>592.865738</ele>
        <time>2021-10-18T13:00:31.000Z</time>
      </trkpt>
      <trkpt lat="43.61163" lon="2.39476">
        <ele>592.894475</ele>
        <time>2021-10-18T13:00:32.000Z</time>
      </trkpt>
      <trkpt lat="43.61162" lon="2.39479">
        <ele>592.918573</ele>
        <time>2021-10-18T13:00:33.000Z</time>
      </trkpt>
      <trkpt lat="43.61161" lon="2.39482">
        <ele>592.945627</ele>
        <time>2021-10-18T13:00:34.000Z</time>
      </trkpt>
      <trkpt lat="43.6116" lon="2.39485">
        <ele>592.97131</ele>
        <time>2021-10-18T13:00:35.000Z</time>
      </trkpt>
      <trkpt lat="43.61159" lon="2.39489">
        <ele>592.997889</ele>
        <time>2021-10-18T13:00:36.000Z</time>
      </trkpt>
      <trkpt lat="43.61158" lon="2.39492">
        <ele>593.024943</ele>
        <time>2021-10-18T13:00:37.000Z</time>
      </trkpt>
      <trkpt lat="43.61158" lon="2.39495">
        <ele>593.049016</ele>
        <time>2021-10-18T13:00:38.000Z</time>
      </trkpt>
      <trkpt lat="43.61157" lon="2.39498">
        <ele>593.07424</ele>
        <time>2021-10-18T13:00:39.000Z</time>
      </trkpt>
      <trkpt lat="43.61155" lon="2.39501">
        <ele>593.101499</ele>
        <time>2021-10-18T13:00:40.000Z</time>
      </trkpt>
      <trkpt lat="43.61154" lon="2.39504">
        <ele>593.130388</ele>
        <time>2021-10-18T13:00:41.000Z</time>
      </trkpt>
      <trkpt lat="43.61152" lon="2.39508">
        <ele>593.162774</ele>
        <time>2021-10-18T13:00:42.000Z</time>
      </trkpt>
      <trkpt lat="43.61151" lon="2.39512">
        <ele>593.194437</ele>
        <time>2021-10-18T13:00:43.000Z</time>
      </trkpt>
      <trkpt lat="43.6115" lon="2.39516">
        <ele>593.228165</ele>
        <time>2021-10-18T13:00:44.000Z</time>
      </trkpt>
      <trkpt lat="43.61148" lon="2.39519">
        <ele>593.260427</ele>
        <time>2021-10-18T13:00:45.000Z</time>
      </trkpt>
      <trkpt lat="43.61147" lon="2.39523">
        <ele>593.29149</ele>
        <time>2021-10-18T13:00:46.000Z</time>
      </trkpt>
      <trkpt lat="43.61145" lon="2.39526">
        <ele>593.322553</ele>
        <time>2021-10-18T13:00:47.000Z</time>
      </trkpt>
      <trkpt lat="43.61144" lon="2.3953">
        <ele>593.354276</ele>
        <time>2021-10-18T13:00:48.000Z</time>
      </trkpt>
      <trkpt lat="43.61142" lon="2.39533">
        <ele>593.385339</ele>
        <time>2021-10-18T13:00:49.000Z</time>
      </trkpt>
      <trkpt lat="43.61141" lon="2.39537">
        <ele>593.414915</ele>
        <time>2021-10-18T13:00:50.000Z</time>
      </trkpt>
      <trkpt lat="43.6114" lon="2.3954">
        <ele>593.443357</ele>
        <time>2021-10-18T13:00:51.000Z</time>
      </trkpt>
      <trkpt lat="43.61139" lon="2.39544">
        <ele>593.47502</ele>
        <time>2021-10-18T13:00:52.000Z</time>
      </trkpt>
      <trkpt lat="43.61137" lon="2.39548">
        <ele>593.507384</ele>
        <time>2021-10-18T13:00:53.000Z</time>
      </trkpt>
      <trkpt lat="43.61136" lon="2.39552">
        <ele>593.54063</ele>
        <time>2021-10-18T13:00:54.000Z</time>
      </trkpt>
      <trkpt lat="43.61135" lon="2.39556">
        <ele>593.572515</ele>
        <time>2021-10-18T13:00:55.000Z</time>
      </trkpt>
      <trkpt lat="43.61133" lon="2.39559">
        <ele>593.615936</ele>
        <time>2021-10-18T13:00:56.000Z</time>
      </trkpt>
      <trkpt lat="43.61131" lon="2.39561">
        <ele>593.652554</ele>
        <time>2021-10-18T13:00:57.000Z</time>
      </trkpt>
      <trkpt lat="43.6113" lon="2.39564">
        <ele>593.685069</ele>
        <time>2021-10-18T13:00:58.000Z</time>
      </trkpt>
      <trkpt lat="43.61128" lon="2.39566">
        <ele>593.721764</ele>
        <time>2021-10-18T13:00:59.000Z</time>
      </trkpt>
      <trkpt lat="43.61126" lon="2.39568">
        <ele>593.757265</ele>
        <time>2021-10-18T13:01:00.000Z</time>
      </trkpt>
      <trkpt lat="43.61124" lon="2.3957">
        <ele>593.801002</ele>
        <time>2021-10-18T13:01:01.000Z</time>
      </trkpt>
      <trkpt lat="43.61121" lon="2.39574">
        <ele>593.857997</ele>
        <time>2021-10-18T13:01:02.000Z</time>
      </trkpt>
      <trkpt lat="43.61118" lon="2.39577">
        <ele>593.911669</ele>
        <time>2021-10-18T13:01:03.000Z</time>
      </trkpt>
      <trkpt lat="43.61116" lon="2.39581">
        <ele>593.964961</ele>
        <time>2021-10-18T13:01:04.000Z</time>
      </trkpt>
      <trkpt lat="43.61114" lon="2.39585">
        <ele>594.020739</ele>
        <time>2021-10-18T13:01:05.000Z</time>
      </trkpt>
      <trkpt lat="43.61112" lon="2.39589">
        <ele>594.072331</ele>
        <time>2021-10-18T13:01:06.000Z</time>
      </trkpt>
      <trkpt lat="43.61111" lon="2.39593">
        <ele>594.119169</ele>
        <time>2021-10-18T13:01:07.000Z</time>
      </trkpt>
      <trkpt lat="43.61109" lon="2.39598">
        <ele>594.1713</ele>
        <time>2021-10-18T13:01:08.000Z</time>
      </trkpt>
      <trkpt lat="43.61108" lon="2.39602">
        <ele>594.220728</ele>
        <time>2021-10-18T13:01:09.000Z</time>
      </trkpt>
      <trkpt lat="43.61107" lon="2.39606">
        <ele>594.267316</ele>
        <time>2021-10-18T13:01:10.000Z</time>
      </trkpt>
      <trkpt lat="43.61105" lon="2.3961">
        <ele>594.317066</ele>
        <time>2021-10-18T13:01:11.000Z</time>
      </trkpt>
      <trkpt lat="43.61104" lon="2.39614">
        <ele>594.363654</ele>
        <time>2021-10-18T13:01:12.000Z</time>
      </trkpt>
      <trkpt lat="43.61103" lon="2.39618">
        <ele>594.409693</ele>
        <time>2021-10-18T13:01:13.000Z</time>
      </trkpt>
      <trkpt lat="43.61102" lon="2.39622">
        <ele>594.460827</ele>
        <time>2021-10-18T13:01:14.000Z</time>
      </trkpt>
      <trkpt lat="43.611" lon="2.39627">
        <ele>594.512184</ele>
        <time>2021-10-18T13:01:15.000Z</time>
      </trkpt>
      <trkpt lat="43.61099" lon="2.39631">
        <ele>594.563898</ele>
        <time>2021-10-18T13:01:16.000Z</time>
      </trkpt>
      <trkpt lat="43.61097" lon="2.39636">
        <ele>594.615031</ele>
        <time>2021-10-18T13:01:17.000Z</time>
      </trkpt>
      <trkpt lat="43.61096" lon="2.3964">
        <ele>594.668722</ele>
        <time>2021-10-18T13:01:18.000Z</time>
      </trkpt>
      <trkpt lat="43.61095" lon="2.39645">
        <ele>594.718808</ele>
        <time>2021-10-18T13:01:19.000Z</time>
      </trkpt>
      <trkpt lat="43.61094" lon="2.39649">
        <ele>594.769912</ele>
        <time>2021-10-18T13:01:20.000Z</time>
      </trkpt>
      <trkpt lat="43.61093" lon="2.39654">
        <ele>594.820816</ele>
        <time>2021-10-18T13:01:21.000Z</time>
      </trkpt>
      <trkpt lat="43.61092" lon="2.39658">
        <ele>594.872941</ele>
        <time>2021-10-18T13:01:22.000Z</time>
      </trkpt>
      <trkpt lat="43.61091" lon="2.39663">
        <ele>594.921754</ele>
        <time>2021-10-18T13:01:23.000Z</time>
      </trkpt>
      <trkpt lat="43.6109" lon="2.39667">
        <ele>594.973385</ele>
        <time>2021-10-18T13:01:24.000Z</time>
      </trkpt>
      <trkpt lat="43.6109" lon="2.39672">
        <ele>595.025335</ele>
        <time>2021-10-18T13:01:25.000Z</time>
      </trkpt>
      <trkpt lat="43.61089" lon="2.39677">
        <ele>595.075912</ele>
        <time>2021-10-18T13:01:26.000Z</time>
      </trkpt>
      <trkpt lat="43.61089" lon="2.39681">
        <ele>595.12668</ele>
        <time>2021-10-18T13:01:27.000Z</time>
      </trkpt>
      <trkpt lat="43.61088" lon="2.39686">
        <ele>595.179924</ele>
        <time>2021-10-18T13:01:28.000Z</time>
      </trkpt>
      <trkpt lat="43.61087" lon="2.39691">
        <ele>595.232336</ele>
        <time>2021-10-18T13:01:29.000Z</time>
      </trkpt>
      <trkpt lat="43.61087" lon="2.39696">
        <ele>595.286156</ele>
        <time>2021-10-18T13:01:30.000Z</time>
      </trkpt>
      <trkpt lat="43.61087" lon="2.39701">
        <ele>595.338144</ele>
        <time>2021-10-18T13:01:31.000Z</time>
      </trkpt>
      <trkpt lat="43.61087" lon="2.39706">
        <ele>595.388803</ele>
        <time>2021-10-18T13:01:32.000Z</time>
      </trkpt>
      <trkpt lat="43.61087" lon="2.3971">
        <ele>595.438299</ele>
        <time>2021-10-18T13:01:33.000Z</time>
      </trkpt>
      <trkpt lat="43.61087" lon="2.39715">
        <ele>595.487817</ele>
        <time>2021-10-18T13:01:34.000Z</time>
      </trkpt>
      <trkpt lat="43.61086" lon="2.3972">
        <ele>595.539805</ele>
        <time>2021-10-18T13:01:35.000Z</time>
      </trkpt>
      <trkpt lat="43.61086" lon="2.39724">
        <ele>595.591794</ele>
        <time>2021-10-18T13:01:36.000Z</time>
      </trkpt>
      <trkpt lat="43.61086" lon="2.39729">
        <ele>595.645778</ele>
        <time>2021-10-18T13:01:37.000Z</time>
      </trkpt>
      <trkpt lat="43.61085" lon="2.39734">
        <ele>595.698522</ele>
        <time>2021-10-18T13:01:38.000Z</time>
      </trkpt>
      <trkpt lat="43.61085" lon="2.39739">
        <ele>595.752506</ele>
        <time>2021-10-18T13:01:39.000Z</time>
      </trkpt>
      <trkpt lat="43.61085" lon="2.39744">
        <ele>595.804175</ele>
        <time>2021-10-18T13:01:40.000Z</time>
      </trkpt>
      <trkpt lat="43.61085" lon="2.39749">
        <ele>595.856015</ele>
        <time>2021-10-18T13:01:41.000Z</time>
      </trkpt>
      <trkpt lat="43.61085" lon="2.39754">
        <ele>595.907663</ele>
        <time>2021-10-18T13:01:42.000Z</time>
      </trkpt>
      <trkpt lat="43.61084" lon="2.39758">
        <ele>595.958582</ele>
        <time>2021-10-18T13:01:43.000Z</time>
      </trkpt>
      <trkpt lat="43.61084" lon="2.39763">
        <ele>596.00935</ele>
        <time>2021-10-18T13:01:44.000Z</time>
      </trkpt>
      <trkpt lat="43.61084" lon="2.39768">
        <ele>596.061019</ele>
        <time>2021-10-18T13:01:45.000Z</time>
      </trkpt>
      <trkpt lat="43.61084" lon="2.39772">
        <ele>596.11087</ele>
        <time>2021-10-18T13:01:46.000Z</time>
      </trkpt>
      <trkpt lat="43.61083" lon="2.39777">
        <ele>596.160566</ele>
        <time>2021-10-18T13:01:47.000Z</time>
      </trkpt>
      <trkpt lat="43.61083" lon="2.39782">
        <ele>596.212235</ele>
        <time>2021-10-18T13:01:48.000Z</time>
      </trkpt>
      <trkpt lat="43.61083" lon="2.39787">
        <ele>596.272092</ele>
        <time>2021-10-18T13:01:49.000Z</time>
      </trkpt>
      <trkpt lat="43.61083" lon="2.39791">
        <ele>596.345011</ele>
        <time>2021-10-18T13:01:50.000Z</time>
      </trkpt>
      <trkpt lat="43.61082" lon="2.39796">
        <ele>596.41818</ele>
        <time>2021-10-18T13:01:51.000Z</time>
      </trkpt>
      <trkpt lat="43.61082" lon="2.39801">
        <ele>596.489805</ele>
        <time>2021-10-18T13:01:52.000Z</time>
      </trkpt>
      <trkpt lat="43.61082" lon="2.39805">
        <ele>596.562692</ele>
        <time>2021-10-18T13:01:53.000Z</time>
      </trkpt>
      <trkpt lat="43.61082" lon="2.3981">
        <ele>596.63251</ele>
        <time>2021-10-18T13:01:54.000Z</time>
      </trkpt>
      <trkpt lat="43.61082" lon="2.39815">
        <ele>596.707439</ele>
        <time>2021-10-18T13:01:55.000Z</time>
      </trkpt>
      <trkpt lat="43.61081" lon="2.39819">
        <ele>596.779288</ele>
        <time>2021-10-18T13:01:56.000Z</time>
      </trkpt>
      <trkpt lat="43.61081" lon="2.39824">
        <ele>596.849597</ele>
        <time>2021-10-18T13:01:57.000Z</time>
      </trkpt>
      <trkpt lat="43.61081" lon="2.39828">
        <ele>596.91659</ele>
        <time>2021-10-18T13:01:58.000Z</time>
      </trkpt>
      <trkpt lat="43.6108" lon="2.39832">
        <ele>596.985126</ele>
        <time>2021-10-18T13:01:59.000Z</time>
      </trkpt>
      <trkpt lat="43.6108" lon="2.39837">
        <ele>597.053361</ele>
        <time>2021-10-18T13:02:00.000Z</time>
      </trkpt>
      <trkpt lat="43.6108" lon="2.39841">
        <ele>597.115429</ele>
        <time>2021-10-18T13:02:01.000Z</time>
      </trkpt>
      <trkpt lat="43.6108" lon="2.39845">
        <ele>597.187054</ele>
        <time>2021-10-18T13:02:02.000Z</time>
      </trkpt>
      <trkpt lat="43.6108" lon="2.3985">
        <ele>597.256839</ele>
        <time>2021-10-18T13:02:03.000Z</time>
      </trkpt>
      <trkpt lat="43.6108" lon="2.39855">
        <ele>597.328175</ele>
        <time>2021-10-18T13:02:04.000Z</time>
      </trkpt>
      <trkpt lat="43.6108" lon="2.39859">
        <ele>597.398092</ele>
        <time>2021-10-18T13:02:05.000Z</time>
      </trkpt>
      <trkpt lat="43.61081" lon="2.39863">
        <ele>597.467954</ele>
        <time>2021-10-18T13:02:06.000Z</time>
      </trkpt>
      <trkpt lat="43.61082" lon="2.39868">
        <ele>597.53588</ele>
        <time>2021-10-18T13:02:07.000Z</time>
      </trkpt>
      <trkpt lat="43.61083" lon="2.39872">
        <ele>597.606715</ele>
        <time>2021-10-18T13:02:08.000Z</time>
      </trkpt>
      <trkpt lat="43.61085" lon="2.39875">
        <ele>597.67977</ele>
        <time>2021-10-18T13:02:09.000Z</time>
      </trkpt>
      <trkpt lat="43.61088" lon="2.39879">
        <ele>597.760019</ele>
        <time>2021-10-18T13:02:10.000Z</time>
      </trkpt>
      <trkpt lat="43.61091" lon="2.39881">
        <ele>597.836906</ele>
        <time>2021-10-18T13:02:11.000Z</time>
      </trkpt>
      <trkpt lat="43.61094" lon="2.39883">
        <ele>597.911556</ele>
        <time>2021-10-18T13:02:12.000Z</time>
      </trkpt>
      <trkpt lat="43.61098" lon="2.39885">
        <ele>597.991329</ele>
        <time>2021-10-18T13:02:13.000Z</time>
      </trkpt>
      <trkpt lat="43.61101" lon="2.39887">
        <ele>598.060782</ele>
        <time>2021-10-18T13:02:14.000Z</time>
      </trkpt>
      <trkpt lat="43.61103" lon="2.39888">
        <ele>598.120007</ele>
        <time>2021-10-18T13:02:15.000Z</time>
      </trkpt>
      <trkpt lat="43.61106" lon="2.3989">
        <ele>598.18125</ele>
        <time>2021-10-18T13:02:16.000Z</time>
      </trkpt>
      <trkpt lat="43.61109" lon="2.39891">
        <ele>598.243021</ele>
        <time>2021-10-18T13:02:17.000Z</time>
      </trkpt>
      <trkpt lat="43.61112" lon="2.39893">
        <ele>598.313375</ele>
        <time>2021-10-18T13:02:18.000Z</time>
      </trkpt>
      <trkpt lat="43.61115" lon="2.39894">
        <ele>598.382255</ele>
        <time>2021-10-18T13:02:19.000Z</time>
      </trkpt>
      <trkpt lat="43.61118" lon="2.39896">
        <ele>598.457164</ele>
        <time>2021-10-18T13:02:20.000Z</time>
      </trkpt>
      <trkpt lat="43.61122" lon="2.39897">
        <ele>598.540682</ele>
        <time>2021-10-18T13:02:21.000Z</time>
      </trkpt>
      <trkpt lat="43.61125" lon="2.39899">
        <ele>598.61924</ele>
        <time>2021-10-18T13:02:22.000Z</time>
      </trkpt>
      <trkpt lat="43.61129" lon="2.39901">
        <ele>598.702351</ele>
        <time>2021-10-18T13:02:23.000Z</time>
      </trkpt>
      <trkpt lat="43.61133" lon="2.39903">
        <ele>598.786371</ele>
        <time>2021-10-18T13:02:24.000Z</time>
      </trkpt>
      <trkpt lat="43.61136" lon="2.39905">
        <ele>598.868104</ele>
        <time>2021-10-18T13:02:25.000Z</time>
      </trkpt>
      <trkpt lat="43.6114" lon="2.39907">
        <ele>598.956355</ele>
        <time>2021-10-18T13:02:26.000Z</time>
      </trkpt>
      <trkpt lat="43.61143" lon="2.3991">
        <ele>599.038088</ele>
        <time>2021-10-18T13:02:27.000Z</time>
      </trkpt>
      <trkpt lat="43.61147" lon="2.39912">
        <ele>599.124368</ele>
        <time>2021-10-18T13:02:28.000Z</time>
      </trkpt>
      <trkpt lat="43.6115" lon="2.39914">
        <ele>599.204141</ele>
        <time>2021-10-18T13:02:29.000Z</time>
      </trkpt>
      <trkpt lat="43.61154" lon="2.39916">
        <ele>599.284688</ele>
        <time>2021-10-18T13:02:30.000Z</time>
      </trkpt>
      <trkpt lat="43.61158" lon="2.39917">
        <ele>599.368206</ele>
        <time>2021-10-18T13:02:31.000Z</time>
      </trkpt>
      <trkpt lat="43.61161" lon="2.39919">
        <ele>599.44717</ele>
        <time>2021-10-18T13:02:32.000Z</time>
      </trkpt>
      <trkpt lat="43.61165" lon="2.39921">
        <ele>599.523618</ele>
        <time>2021-10-18T13:02:33.000Z</time>
      </trkpt>
      <trkpt lat="43.61168" lon="2.39922">
        <ele>599.604618</ele>
        <time>2021-10-18T13:02:34.000Z</time>
      </trkpt>
      <trkpt lat="43.61172" lon="2.39924">
        <ele>599.688639</ele>
        <time>2021-10-18T13:02:35.000Z</time>
      </trkpt>
      <trkpt lat="43.61175" lon="2.39926">
        <ele>599.766628</ele>
        <time>2021-10-18T13:02:36.000Z</time>
      </trkpt>
      <trkpt lat="43.61179" lon="2.39927">
        <ele>599.848117</ele>
        <time>2021-10-18T13:02:37.000Z</time>
      </trkpt>
      <trkpt lat="43.61183" lon="2.39929">
        <ele>599.940262</ele>
        <time>2021-10-18T13:02:38.000Z</time>
      </trkpt>
      <trkpt lat="43.61186" lon="2.39931">
        <ele>600.020809</ele>
        <time>2021-10-18T13:02:39.000Z</time>
      </trkpt>
      <trkpt lat="43.6119" lon="2.39933">
        <ele>600.099842</ele>
        <time>2021-10-18T13:02:40.000Z</time>
      </trkpt>
      <trkpt lat="43.61194" lon="2.39935">
        <ele>600.117358</ele>
        <time>2021-10-18T13:02:41.000Z</time>
      </trkpt>
      <trkpt lat="43.61198" lon="2.39937">
        <ele>600.13436</ele>
        <time>2021-10-18T13:02:42.000Z</time>
      </trkpt>
      <trkpt lat="43.61201" lon="2.39939">
        <ele>600.150558</ele>
        <time>2021-10-18T13:02:43.000Z</time>
      </trkpt>
      <trkpt lat="43.61205" lon="2.3994">
        <ele>600.167762</ele>
        <time>2021-10-18T13:02:44.000Z</time>
      </trkpt>
      <trkpt lat="43.61208" lon="2.39942">
        <ele>600.183445</ele>
        <time>2021-10-18T13:02:45.000Z</time>
      </trkpt>
      <trkpt lat="43.61212" lon="2.39944">
        <ele>600.199643</ele>
        <time>2021-10-18T13:02:46.000Z</time>
      </trkpt>
      <trkpt lat="43.61216" lon="2.39946">
        <ele>600.216645</ele>
        <time>2021-10-18T13:02:47.000Z</time>
      </trkpt>
      <trkpt lat="43.61219" lon="2.39948">
        <ele>600.233358</ele>
        <time>2021-10-18T13:02:48.000Z</time>
      </trkpt>
      <trkpt lat="43.61223" lon="2.3995">
        <ele>600.250472</ele>
        <time>2021-10-18T13:02:49.000Z</time>
      </trkpt>
      <trkpt lat="43.61226" lon="2.39952">
        <ele>600.266558</ele>
        <time>2021-10-18T13:02:50.000Z</time>
      </trkpt>
      <trkpt lat="43.6123" lon="2.39954">
        <ele>600.284073</ele>
        <time>2021-10-18T13:02:51.000Z</time>
      </trkpt>
      <trkpt lat="43.61234" lon="2.39955">
        <ele>600.301376</ele>
        <time>2021-10-18T13:02:52.000Z</time>
      </trkpt>
      <trkpt lat="43.61238" lon="2.39957">
        <ele>600.318679</ele>
        <time>2021-10-18T13:02:53.000Z</time>
      </trkpt>
      <trkpt lat="43.61242" lon="2.39959">
        <ele>600.335474</ele>
        <time>2021-10-18T13:02:54.000Z</time>
      </trkpt>
      <trkpt lat="43.61245" lon="2.39961">
        <ele>600.351672</ele>
        <time>2021-10-18T13:02:55.000Z</time>
      </trkpt>
      <trkpt lat="43.61249" lon="2.39963">
        <ele>600.36959</ele>
        <time>2021-10-18T13:02:56.000Z</time>
      </trkpt>
      <trkpt lat="43.61253" lon="2.39965">
        <ele>600.387106</ele>
        <time>2021-10-18T13:02:57.000Z</time>
      </trkpt>
      <trkpt lat="43.61256" lon="2.39967">
        <ele>600.403086</ele>
        <time>2021-10-18T13:02:58.000Z</time>
      </trkpt>
      <trkpt lat="43.6126" lon="2.39968">
        <ele>600.419982</ele>
        <time>2021-10-18T13:02:59.000Z</time>
      </trkpt>
      <trkpt lat="43.61263" lon="2.3997">
        <ele>600.436068</ele>
        <time>2021-10-18T13:03:00.000Z</time>
      </trkpt>
      <trkpt lat="43.61267" lon="2.39972">
        <ele>600.452964</ele>
        <time>2021-10-18T13:03:01.000Z</time>
      </trkpt>
      <trkpt lat="43.61271" lon="2.39974">
        <ele>600.469279</ele>
        <time>2021-10-18T13:03:02.000Z</time>
      </trkpt>
      <trkpt lat="43.61274" lon="2.39976">
        <ele>600.485476</ele>
        <time>2021-10-18T13:03:03.000Z</time>
      </trkpt>
      <trkpt lat="43.61278" lon="2.39978">
        <ele>600.502779</ele>
        <time>2021-10-18T13:03:04.000Z</time>
      </trkpt>
      <trkpt lat="43.61282" lon="2.3998">
        <ele>600.520294</ele>
        <time>2021-10-18T13:03:05.000Z</time>
      </trkpt>
      <trkpt lat="43.61285" lon="2.39981">
        <ele>600.536381</ele>
        <time>2021-10-18T13:03:06.000Z</time>
      </trkpt>
      <trkpt lat="43.61289" lon="2.39983">
        <ele>600.553383</ele>
        <time>2021-10-18T13:03:07.000Z</time>
      </trkpt>
      <trkpt lat="43.61292" lon="2.39985">
        <ele>600.569469</ele>
        <time>2021-10-18T13:03:08.000Z</time>
      </trkpt>
      <trkpt lat="43.61296" lon="2.39987">
        <ele>600.586984</ele>
        <time>2021-10-18T13:03:09.000Z</time>
      </trkpt>
      <trkpt lat="43.613" lon="2.39989">
        <ele>600.604391</ele>
        <time>2021-10-18T13:03:10.000Z</time>
      </trkpt>
      <trkpt lat="43.61304" lon="2.39991">
        <ele>600.622203</ele>
        <time>2021-10-18T13:03:11.000Z</time>
      </trkpt>
      <trkpt lat="43.61308" lon="2.39993">
        <ele>600.63961</ele>
        <time>2021-10-18T13:03:12.000Z</time>
      </trkpt>
      <trkpt lat="43.61312" lon="2.39995">
        <ele>600.656913</ele>
        <time>2021-10-18T13:03:13.000Z</time>
      </trkpt>
      <trkpt lat="43.61315" lon="2.39997">
        <ele>600.674428</ele>
        <time>2021-10-18T13:03:14.000Z</time>
      </trkpt>
      <trkpt lat="43.61319" lon="2.39998">
        <ele>600.691951</ele>
        <time>2021-10-18T13:03:15.000Z</time>
      </trkpt>
      <trkpt lat="43.61323" lon="2.4">
        <ele>600.709977</ele>
        <time>2021-10-18T13:03:16.000Z</time>
      </trkpt>
      <trkpt lat="43.61327" lon="2.40002">
        <ele>600.726468</ele>
        <time>2021-10-18T13:03:17.000Z</time>
      </trkpt>
      <trkpt lat="43.61331" lon="2.40003">
        <ele>600.743672</ele>
        <time>2021-10-18T13:03:18.000Z</time>
      </trkpt>
      <trkpt lat="43.61335" lon="2.40005">
        <ele>600.762708</ele>
        <time>2021-10-18T13:03:19.000Z</time>
      </trkpt>
      <trkpt lat="43.61339" lon="2.40007">
        <ele>600.780011</ele>
        <time>2021-10-18T13:03:20.000Z</time>
      </trkpt>
      <trkpt lat="43.61342" lon="2.40009">
        <ele>600.796806</ele>
        <time>2021-10-18T13:03:21.000Z</time>
      </trkpt>
      <trkpt lat="43.61346" lon="2.4001">
        <ele>600.811846</ele>
        <time>2021-10-18T13:03:22.000Z</time>
      </trkpt>
      <trkpt lat="43.6135" lon="2.4001">
        <ele>600.828217</ele>
        <time>2021-10-18T13:03:23.000Z</time>
      </trkpt>
      <trkpt lat="43.61353" lon="2.40009">
        <ele>600.843551</ele>
        <time>2021-10-18T13:03:24.000Z</time>
      </trkpt>
      <trkpt lat="43.61357" lon="2.40007">
        <ele>600.860854</ele>
        <time>2021-10-18T13:03:25.000Z</time>
      </trkpt>
      <trkpt lat="43.6136" lon="2.40005">
        <ele>600.936229</ele>
        <time>2021-10-18T13:03:26.000Z</time>
      </trkpt>
      <trkpt lat="43.61364" lon="2.40001">
        <ele>601.1894</ele>
        <time>2021-10-18T13:03:27.000Z</time>
      </trkpt>
      <trkpt lat="43.61367" lon="2.39997">
        <ele>601.453198</ele>
        <time>2021-10-18T13:03:28.000Z</time>
      </trkpt>
      <trkpt lat="43.61369" lon="2.39992">
        <ele>601.708571</ele>
        <time>2021-10-18T13:03:29.000Z</time>
      </trkpt>
      <trkpt lat="43.61372" lon="2.39987">
        <ele>601.967088</ele>
        <time>2021-10-18T13:03:30.000Z</time>
      </trkpt>
      <trkpt lat="43.61374" lon="2.39983">
        <ele>602.197686</ele>
        <time>2021-10-18T13:03:31.000Z</time>
      </trkpt>
      <trkpt lat="43.61376" lon="2.39978">
        <ele>602.424748</ele>
        <time>2021-10-18T13:03:32.000Z</time>
      </trkpt>
      <trkpt lat="43.61378" lon="2.39974">
        <ele>602.634383</ele>
        <time>2021-10-18T13:03:33.000Z</time>
      </trkpt>
      <trkpt lat="43.6138" lon="2.39971">
        <ele>602.833535</ele>
        <time>2021-10-18T13:03:34.000Z</time>
      </trkpt>
      <trkpt lat="43.61382" lon="2.39967">
        <ele>603.018674</ele>
        <time>2021-10-18T13:03:35.000Z</time>
      </trkpt>
      <trkpt lat="43.61383" lon="2.39964">
        <ele>603.187351</ele>
        <time>2021-10-18T13:03:36.000Z</time>
      </trkpt>
      <trkpt lat="43.61385" lon="2.3996">
        <ele>603.360837</ele>
        <time>2021-10-18T13:03:37.000Z</time>
      </trkpt>
      <trkpt lat="43.61386" lon="2.39956">
        <ele>603.538193</ele>
        <time>2021-10-18T13:03:38.000Z</time>
      </trkpt>
      <trkpt lat="43.61387" lon="2.39953">
        <ele>603.702436</ele>
        <time>2021-10-18T13:03:39.000Z</time>
      </trkpt>
      <trkpt lat="43.61388" lon="2.39949">
        <ele>603.878661</ele>
        <time>2021-10-18T13:03:40.000Z</time>
      </trkpt>
      <trkpt lat="43.61389" lon="2.39945">
        <ele>604.061779</ele>
        <time>2021-10-18T13:03:41.000Z</time>
      </trkpt>
      <trkpt lat="43.6139" lon="2.39941">
        <ele>604.247638</ele>
        <time>2021-10-18T13:03:42.000Z</time>
      </trkpt>
      <trkpt lat="43.61391" lon="2.39937">
        <ele>604.410034</ele>
        <time>2021-10-18T13:03:43.000Z</time>
      </trkpt>
      <trkpt lat="43.61391" lon="2.39935">
        <ele>604.517627</ele>
        <time>2021-10-18T13:03:44.000Z</time>
      </trkpt>
      <trkpt lat="43.61392" lon="2.39934">
        <ele>604.587493</ele>
        <time>2021-10-18T13:03:45.000Z</time>
      </trkpt>
      <trkpt lat="43.61393" lon="2.39932">
        <ele>604.657652</ele>
        <time>2021-10-18T13:03:46.000Z</time>
      </trkpt>
      <trkpt lat="43.61394" lon="2.39931">
        <ele>604.75211</ele>
        <time>2021-10-18T13:03:47.000Z</time>
      </trkpt>
      <trkpt lat="43.61395" lon="2.39929">
        <ele>604.840042</ele>
        <time>2021-10-18T13:03:48.000Z</time>
      </trkpt>
      <trkpt lat="43.61396" lon="2.39929">
        <ele>604.931953</ele>
        <time>2021-10-18T13:03:49.000Z</time>
      </trkpt>
      <trkpt lat="43.61398" lon="2.39929">
        <ele>605.029663</ele>
        <time>2021-10-18T13:03:50.000Z</time>
      </trkpt>
      <trkpt lat="43.614" lon="2.3993">
        <ele>605.154104</ele>
        <time>2021-10-18T13:03:51.000Z</time>
      </trkpt>
      <trkpt lat="43.61402" lon="2.39932">
        <ele>605.283986</ele>
        <time>2021-10-18T13:03:52.000Z</time>
      </trkpt>
      <trkpt lat="43.61404" lon="2.39933">
        <ele>605.432009</ele>
        <time>2021-10-18T13:03:53.000Z</time>
      </trkpt>
      <trkpt lat="43.61406" lon="2.39935">
        <ele>605.594676</ele>
        <time>2021-10-18T13:03:54.000Z</time>
      </trkpt>
      <trkpt lat="43.61409" lon="2.39937">
        <ele>605.774077</ele>
        <time>2021-10-18T13:03:55.000Z</time>
      </trkpt>
      <trkpt lat="43.61411" lon="2.39939">
        <ele>605.935855</ele>
        <time>2021-10-18T13:03:56.000Z</time>
      </trkpt>
      <trkpt lat="43.61413" lon="2.3994">
        <ele>606.051036</ele>
        <time>2021-10-18T13:03:57.000Z</time>
      </trkpt>
      <trkpt lat="43.61414" lon="2.39941">
        <ele>606.117218</ele>
        <time>2021-10-18T13:03:58.000Z</time>
      </trkpt>
      <trkpt lat="43.61415" lon="2.39942">
        <ele>606.183995</ele>
        <time>2021-10-18T13:03:59.000Z</time>
      </trkpt>
      <trkpt lat="43.61415" lon="2.39943">
        <ele>606.233065</ele>
        <time>2021-10-18T13:04:00.000Z</time>
      </trkpt>
      <trkpt lat="43.61415" lon="2.39943">
        <ele>606.250652</ele>
        <time>2021-10-18T13:04:01.000Z</time>
      </trkpt>
      <trkpt lat="43.61417" lon="2.39944">
        <ele>606.331541</ele>
        <time>2021-10-18T13:04:02.000Z</time>
      </trkpt>
      <trkpt lat="43.61418" lon="2.39945">
        <ele>606.412875</ele>
        <time>2021-10-18T13:04:03.000Z</time>
      </trkpt>
      <trkpt lat="43.61419" lon="2.39946">
        <ele>606.494208</ele>
        <time>2021-10-18T13:04:04.000Z</time>
      </trkpt>
      <trkpt lat="43.61421" lon="2.39946">
        <ele>606.591919</ele>
        <time>2021-10-18T13:04:05.000Z</time>
      </trkpt>
      <trkpt lat="43.61422" lon="2.39947">
        <ele>606.70128</ele>
        <time>2021-10-18T13:04:06.000Z</time>
      </trkpt>
      <trkpt lat="43.61424" lon="2.39947">
        <ele>606.794296</ele>
        <time>2021-10-18T13:04:07.000Z</time>
      </trkpt>
      <trkpt lat="43.61426" lon="2.39949">
        <ele>606.910038</ele>
        <time>2021-10-18T13:04:08.000Z</time>
      </trkpt>
      <trkpt lat="43.61427" lon="2.3995">
        <ele>607.031024</ele>
        <time>2021-10-18T13:04:09.000Z</time>
      </trkpt>
      <trkpt lat="43.61429" lon="2.39951">
        <ele>607.136501</ele>
        <time>2021-10-18T13:04:10.000Z</time>
      </trkpt>
      <trkpt lat="43.6143" lon="2.39953">
        <ele>607.234642</ele>
        <time>2021-10-18T13:04:11.000Z</time>
      </trkpt>
      <trkpt lat="43.61431" lon="2.39954">
        <ele>607.308218</ele>
        <time>2021-10-18T13:04:12.000Z</time>
      </trkpt>
      <trkpt lat="43.61432" lon="2.39956">
        <ele>607.410606</ele>
        <time>2021-10-18T13:04:13.000Z</time>
      </trkpt>
      <trkpt lat="43.61433" lon="2.39957">
        <ele>607.496837</ele>
        <time>2021-10-18T13:04:14.000Z</time>
      </trkpt>
      <trkpt lat="43.61435" lon="2.39958">
        <ele>607.587676</ele>
        <time>2021-10-18T13:04:15.000Z</time>
      </trkpt>
      <trkpt lat="43.61436" lon="2.39959">
        <ele>607.693153</ele>
        <time>2021-10-18T13:04:16.000Z</time>
      </trkpt>
      <trkpt lat="43.61437" lon="2.39961">
        <ele>607.779383</ele>
        <time>2021-10-18T13:04:17.000Z</time>
      </trkpt>
      <trkpt lat="43.61438" lon="2.39962">
        <ele>607.87498</ele>
        <time>2021-10-18T13:04:18.000Z</time>
      </trkpt>
      <trkpt lat="43.6144" lon="2.39963">
        <ele>607.973121</ele>
        <time>2021-10-18T13:04:19.000Z</time>
      </trkpt>
      <trkpt lat="43.61441" lon="2.39964">
        <ele>608.053499</ele>
        <time>2021-10-18T13:04:20.000Z</time>
      </trkpt>
      <trkpt lat="43.61443" lon="2.39964">
        <ele>608.16106</ele>
        <time>2021-10-18T13:04:21.000Z</time>
      </trkpt>
      <trkpt lat="43.61444" lon="2.39963">
        <ele>608.255367</ele>
        <time>2021-10-18T13:04:22.000Z</time>
      </trkpt>
      <trkpt lat="43.61446" lon="2.39962">
        <ele>608.329414</ele>
        <time>2021-10-18T13:04:23.000Z</time>
      </trkpt>
      <trkpt lat="43.61447" lon="2.39961">
        <ele>608.40543</ele>
        <time>2021-10-18T13:04:24.000Z</time>
      </trkpt>
      <trkpt lat="43.61448" lon="2.39961">
        <ele>608.501204</ele>
        <time>2021-10-18T13:04:25.000Z</time>
      </trkpt>
      <trkpt lat="43.61449" lon="2.3996">
        <ele>608.575252</ele>
        <time>2021-10-18T13:04:26.000Z</time>
      </trkpt>
      <trkpt lat="43.61451" lon="2.39959">
        <ele>608.651267</ele>
        <time>2021-10-18T13:04:27.000Z</time>
      </trkpt>
      <trkpt lat="43.61452" lon="2.39959">
        <ele>608.720244</ele>
        <time>2021-10-18T13:04:28.000Z</time>
      </trkpt>
      <trkpt lat="43.61453" lon="2.39958">
        <ele>608.79961</ele>
        <time>2021-10-18T13:04:29.000Z</time>
      </trkpt>
      <trkpt lat="43.61454" lon="2.39957">
        <ele>608.883088</ele>
        <time>2021-10-18T13:04:30.000Z</time>
      </trkpt>
      <trkpt lat="43.61455" lon="2.39956">
        <ele>608.981229</ele>
        <time>2021-10-18T13:04:31.000Z</time>
      </trkpt>
      <trkpt lat="43.61457" lon="2.39955">
        <ele>609.062562</ele>
        <time>2021-10-18T13:04:32.000Z</time>
      </trkpt>
      <trkpt lat="43.61458" lon="2.39954">
        <ele>609.136098</ele>
        <time>2021-10-18T13:04:33.000Z</time>
      </trkpt>
      <trkpt lat="43.61458" lon="2.39953">
        <ele>609.200365</ele>
        <time>2021-10-18T13:04:34.000Z</time>
      </trkpt>
      <trkpt lat="43.61459" lon="2.39952">
        <ele>609.260349</ele>
        <time>2021-10-18T13:04:35.000Z</time>
      </trkpt>
      <trkpt lat="43.6146" lon="2.39951">
        <ele>609.302276</ele>
        <time>2021-10-18T13:04:36.000Z</time>
      </trkpt>
      <trkpt lat="43.6146" lon="2.3995">
        <ele>609.359238</ele>
        <time>2021-10-18T13:04:37.000Z</time>
      </trkpt>
      <trkpt lat="43.61461" lon="2.39949">
        <ele>609.411646</ele>
        <time>2021-10-18T13:04:38.000Z</time>
      </trkpt>
      <trkpt lat="43.61461" lon="2.39948">
        <ele>609.463121</ele>
        <time>2021-10-18T13:04:39.000Z</time>
      </trkpt>
      <trkpt lat="43.61462" lon="2.39948">
        <ele>609.517344</ele>
        <time>2021-10-18T13:04:40.000Z</time>
      </trkpt>
      <trkpt lat="43.61463" lon="2.39948">
        <ele>609.560999</ele>
        <time>2021-10-18T13:04:41.000Z</time>
      </trkpt>
      <trkpt lat="43.61463" lon="2.39948">
        <ele>609.585212</ele>
        <time>2021-10-18T13:04:42.000Z</time>
      </trkpt>
      <trkpt lat="43.61464" lon="2.39948">
        <ele>609.621976</ele>
        <time>2021-10-18T13:04:43.000Z</time>
      </trkpt>
      <trkpt lat="43.61464" lon="2.39948">
        <ele>609.6306</ele>
        <time>2021-10-18T13:04:44.000Z</time>
      </trkpt>
      <trkpt lat="43.61464" lon="2.39948">
        <ele>609.639225</ele>
        <time>2021-10-18T13:04:45.000Z</time>
      </trkpt>
      <trkpt lat="43.61463" lon="2.39954">
        <ele>609.920375</ele>
        <time>2021-10-18T13:05:09.000Z</time>
      </trkpt>
      <trkpt lat="43.61462" lon="2.39956">
        <ele>610.025191</ele>
        <time>2021-10-18T13:05:10.000Z</time>
      </trkpt>
      <trkpt lat="43.6146" lon="2.39958">
        <ele>610.145428</ele>
        <time>2021-10-18T13:05:11.000Z</time>
      </trkpt>
      <trkpt lat="43.61459" lon="2.3996">
        <ele>610.277973</ele>
        <time>2021-10-18T13:05:12.000Z</time>
      </trkpt>
      <trkpt lat="43.61457" lon="2.39961">
        <ele>610.406241</ele>
        <time>2021-10-18T13:05:13.000Z</time>
      </trkpt>
      <trkpt lat="43.61455" lon="2.39962">
        <ele>610.512695</ele>
        <time>2021-10-18T13:05:14.000Z</time>
      </trkpt>
      <trkpt lat="43.61455" lon="2.39963">
        <ele>610.573609</ele>
        <time>2021-10-18T13:05:15.000Z</time>
      </trkpt>
      <trkpt lat="43.61455" lon="2.39965">
        <ele>610.640092</ele>
        <time>2021-10-18T13:05:16.000Z</time>
      </trkpt>
      <trkpt lat="43.61455" lon="2.39965">
        <ele>610.65303</ele>
        <time>2021-10-18T13:05:17.000Z</time>
      </trkpt>
      <trkpt lat="43.61455" lon="2.39965">
        <ele>610.670279</ele>
        <time>2021-10-18T13:05:18.000Z</time>
      </trkpt>
      <trkpt lat="43.61456" lon="2.39963">
        <ele>610.765429</ele>
        <time>2021-10-18T13:05:24.000Z</time>
      </trkpt>
      <trkpt lat="43.61458" lon="2.39962">
        <ele>610.864637</ele>
        <time>2021-10-18T13:05:25.000Z</time>
      </trkpt>
      <trkpt lat="43.61459" lon="2.3996">
        <ele>610.972871</ele>
        <time>2021-10-18T13:05:26.000Z</time>
      </trkpt>
      <trkpt lat="43.6146" lon="2.39958">
        <ele>611.084886</ele>
        <time>2021-10-18T13:05:27.000Z</time>
      </trkpt>
      <trkpt lat="43.61462" lon="2.39957">
        <ele>611.176957</ele>
        <time>2021-10-18T13:05:28.000Z</time>
      </trkpt>
      <trkpt lat="43.61463" lon="2.39955">
        <ele>611.269028</ele>
        <time>2021-10-18T13:05:29.000Z</time>
      </trkpt>
      <trkpt lat="43.61463" lon="2.39954">
        <ele>611.3424</ele>
        <time>2021-10-18T13:05:30.000Z</time>
      </trkpt>
      <trkpt lat="43.61464" lon="2.39952">
        <ele>611.440242</ele>
        <time>2021-10-18T13:05:31.000Z</time>
      </trkpt>
      <trkpt lat="43.61466" lon="2.39951">
        <ele>611.555423</ele>
        <time>2021-10-18T13:05:32.000Z</time>
      </trkpt>
      <trkpt lat="43.61468" lon="2.3995">
        <ele>611.747145</ele>
        <time>2021-10-18T13:05:33.000Z</time>
      </trkpt>
      <trkpt lat="43.61469" lon="2.3995">
        <ele>611.863985</ele>
        <time>2021-10-18T13:05:34.000Z</time>
      </trkpt>
      <trkpt lat="43.61469" lon="2.3995">
        <ele>611.903255</ele>
        <time>2021-10-18T13:05:35.000Z</time>
      </trkpt>
      <trkpt lat="43.61469" lon="2.3995">
        <ele>611.945952</ele>
        <time>2021-10-18T13:05:36.000Z</time>
      </trkpt>
      <trkpt lat="43.61469" lon="2.3995">
        <ele>611.964511</ele>
        <time>2021-10-18T13:05:37.000Z</time>
      </trkpt>
      <trkpt lat="43.61471" lon="2.3995">
        <ele>612.170428</ele>
        <time>2021-10-18T13:05:45.000Z</time>
      </trkpt>
      <trkpt lat="43.61471" lon="2.3995">
        <ele>612.228769</ele>
        <time>2021-10-18T13:05:46.000Z</time>
      </trkpt>
      <trkpt lat="43.61471" lon="2.39951">
        <ele>612.287109</ele>
        <time>2021-10-18T13:05:47.000Z</time>
      </trkpt>
      <trkpt lat="43.61472" lon="2.39951">
        <ele>612.318757</ele>
        <time>2021-10-18T13:05:48.000Z</time>
      </trkpt>
      <trkpt lat="43.61471" lon="2.39951">
        <ele>612.35721</ele>
        <time>2021-10-18T13:05:49.000Z</time>
      </trkpt>
      <trkpt lat="43.61473" lon="2.39952">
        <ele>612.631571</ele>
        <time>2021-10-18T13:05:53.000Z</time>
      </trkpt>
      <trkpt lat="43.61475" lon="2.39954">
        <ele>612.884756</ele>
        <time>2021-10-18T13:05:54.000Z</time>
      </trkpt>
      <trkpt lat="43.61476" lon="2.39955">
        <ele>613.111859</ele>
        <time>2021-10-18T13:05:55.000Z</time>
      </trkpt>
      <trkpt lat="43.61477" lon="2.39956">
        <ele>613.264842</ele>
        <time>2021-10-18T13:05:56.000Z</time>
      </trkpt>
      <trkpt lat="43.61477" lon="2.39957">
        <ele>613.328138</ele>
        <time>2021-10-18T13:05:57.000Z</time>
      </trkpt>
      <trkpt lat="43.61478" lon="2.39957">
        <ele>613.36659</ele>
        <time>2021-10-18T13:05:58.000Z</time>
      </trkpt>
      <trkpt lat="43.61478" lon="2.39957">
        <ele>613.36659</ele>
        <time>2021-10-18T13:06:00.000Z</time>
      </trkpt>
      <trkpt lat="43.61478" lon="2.39957">
        <ele>613.393853</ele>
        <time>2021-10-18T13:06:01.000Z</time>
      </trkpt>
      <trkpt lat="43.61484" lon="2.3996">
        <ele>614.266263</ele>
        <time>2021-10-18T13:06:22.000Z</time>
      </trkpt>
      <trkpt lat="43.61485" lon="2.39962">
        <ele>614.439149</ele>
        <time>2021-10-18T13:06:23.000Z</time>
      </trkpt>
      <trkpt lat="43.61486" lon="2.39963">
        <ele>614.604656</ele>
        <time>2021-10-18T13:06:24.000Z</time>
      </trkpt>
      <trkpt lat="43.61487" lon="2.39964">
        <ele>614.78034</ele>
        <time>2021-10-18T13:06:25.000Z</time>
      </trkpt>
      <trkpt lat="43.61489" lon="2.39963">
        <ele>614.960023</ele>
        <time>2021-10-18T13:06:26.000Z</time>
      </trkpt>
      <trkpt lat="43.6149" lon="2.39964">
        <ele>615.12768</ele>
        <time>2021-10-18T13:06:27.000Z</time>
      </trkpt>
      <trkpt lat="43.61491" lon="2.39964">
        <ele>615.303363</ele>
        <time>2021-10-18T13:06:28.000Z</time>
      </trkpt>
      <trkpt lat="43.61492" lon="2.39965">
        <ele>615.441659</ele>
        <time>2021-10-18T13:06:29.000Z</time>
      </trkpt>
      <trkpt lat="43.61493" lon="2.39966">
        <ele>615.626259</ele>
        <time>2021-10-18T13:06:30.000Z</time>
      </trkpt>
      <trkpt lat="43.61495" lon="2.39968">
        <ele>615.837547</ele>
        <time>2021-10-18T13:06:31.000Z</time>
      </trkpt>
      <trkpt lat="43.61496" lon="2.39969">
        <ele>616.111907</ele>
        <time>2021-10-18T13:06:32.000Z</time>
      </trkpt>
      <trkpt lat="43.61498" lon="2.39971">
        <ele>616.360969</ele>
        <time>2021-10-18T13:06:33.000Z</time>
      </trkpt>
      <trkpt lat="43.615" lon="2.39972">
        <ele>616.641474</ele>
        <time>2021-10-18T13:06:34.000Z</time>
      </trkpt>
      <trkpt lat="43.61502" lon="2.39974">
        <ele>616.926307</ele>
        <time>2021-10-18T13:06:35.000Z</time>
      </trkpt>
      <trkpt lat="43.61503" lon="2.39976">
        <ele>617.159212</ele>
        <time>2021-10-18T13:06:36.000Z</time>
      </trkpt>
      <trkpt lat="43.61504" lon="2.39977">
        <ele>617.379539</ele>
        <time>2021-10-18T13:06:37.000Z</time>
      </trkpt>
      <trkpt lat="43.61505" lon="2.39979">
        <ele>617.590238</ele>
        <time>2021-10-18T13:06:38.000Z</time>
      </trkpt>
      <trkpt lat="43.61506" lon="2.39982">
        <ele>617.836897</ele>
        <time>2021-10-18T13:06:39.000Z</time>
      </trkpt>
      <trkpt lat="43.61506" lon="2.39985">
        <ele>618.108742</ele>
        <time>2021-10-18T13:06:40.000Z</time>
      </trkpt>
      <trkpt lat="43.61506" lon="2.39987">
        <ele>618.331823</ele>
        <time>2021-10-18T13:06:41.000Z</time>
      </trkpt>
      <trkpt lat="43.61506" lon="2.39989">
        <ele>618.530455</ele>
        <time>2021-10-18T13:06:42.000Z</time>
      </trkpt>
      <trkpt lat="43.61506" lon="2.39991">
        <ele>618.697489</ele>
        <time>2021-10-18T13:06:43.000Z</time>
      </trkpt>
      <trkpt lat="43.61506" lon="2.39993">
        <ele>618.855244</ele>
        <time>2021-10-18T13:06:44.000Z</time>
      </trkpt>
      <trkpt lat="43.61506" lon="2.39994">
        <ele>619.024234</ele>
        <time>2021-10-18T13:06:45.000Z</time>
      </trkpt>
      <trkpt lat="43.61506" lon="2.39997">
        <ele>619.247234</ele>
        <time>2021-10-18T13:06:46.000Z</time>
      </trkpt>
      <trkpt lat="43.61507" lon="2.39999">
        <ele>619.436769</ele>
        <time>2021-10-18T13:06:47.000Z</time>
      </trkpt>
      <trkpt lat="43.61507" lon="2.40001">
        <ele>619.638274</ele>
        <time>2021-10-18T13:06:48.000Z</time>
      </trkpt>
      <trkpt lat="43.61508" lon="2.40003">
        <ele>619.83082</ele>
        <time>2021-10-18T13:06:49.000Z</time>
      </trkpt>
      <trkpt lat="43.61508" lon="2.40005">
        <ele>620.020355</ele>
        <time>2021-10-18T13:06:50.000Z</time>
      </trkpt>
      <trkpt lat="43.61508" lon="2.40006">
        <ele>620.17863</ele>
        <time>2021-10-18T13:06:51.000Z</time>
      </trkpt>
      <trkpt lat="43.61508" lon="2.40008">
        <ele>620.344507</ele>
        <time>2021-10-18T13:06:52.000Z</time>
      </trkpt>
      <trkpt lat="43.61509" lon="2.4001">
        <ele>620.51591</ele>
        <time>2021-10-18T13:06:53.000Z</time>
      </trkpt>
      <trkpt lat="43.61509" lon="2.40012">
        <ele>620.683436</ele>
        <time>2021-10-18T13:06:54.000Z</time>
      </trkpt>
      <trkpt lat="43.61508" lon="2.40013">
        <ele>620.84581</ele>
        <time>2021-10-18T13:06:55.000Z</time>
      </trkpt>
      <trkpt lat="43.61508" lon="2.40015">
        <ele>620.994285</ele>
        <time>2021-10-18T13:06:56.000Z</time>
      </trkpt>
      <trkpt lat="43.61508" lon="2.40016">
        <ele>621.124201</ele>
        <time>2021-10-18T13:06:57.000Z</time>
      </trkpt>
      <trkpt lat="43.61508" lon="2.40018">
        <ele>621.282475</ele>
        <time>2021-10-18T13:06:58.000Z</time>
      </trkpt>
      <trkpt lat="43.61509" lon="2.4002">
        <ele>621.439553</ele>
        <time>2021-10-18T13:06:59.000Z</time>
      </trkpt>
      <trkpt lat="43.61509" lon="2.40021">
        <ele>621.601269</ele>
        <time>2021-10-18T13:07:00.000Z</time>
      </trkpt>
      <trkpt lat="43.61509" lon="2.40022">
        <ele>621.710348</ele>
        <time>2021-10-18T13:07:01.000Z</time>
      </trkpt>
      <trkpt lat="43.61509" lon="2.40024">
        <ele>621.831663</ele>
        <time>2021-10-18T13:07:02.000Z</time>
      </trkpt>
      <trkpt lat="43.61509" lon="2.40025">
        <ele>621.96715</ele>
        <time>2021-10-18T13:07:03.000Z</time>
      </trkpt>
      <trkpt lat="43.61509" lon="2.40026">
        <ele>622.088465</ele>
        <time>2021-10-18T13:07:04.000Z</time>
      </trkpt>
      <trkpt lat="43.61509" lon="2.40028">
        <ele>622.206273</ele>
        <time>2021-10-18T13:07:05.000Z</time>
      </trkpt>
      <trkpt lat="43.61509" lon="2.40029">
        <ele>622.318365</ele>
        <time>2021-10-18T13:07:06.000Z</time>
      </trkpt>
      <trkpt lat="43.6151" lon="2.4003">
        <ele>622.471605</ele>
        <time>2021-10-18T13:07:07.000Z</time>
      </trkpt>
      <trkpt lat="43.6151" lon="2.40031">
        <ele>622.616291</ele>
        <time>2021-10-18T13:07:08.000Z</time>
      </trkpt>
      <trkpt lat="43.61511" lon="2.40032">
        <ele>622.754586</ele>
        <time>2021-10-18T13:07:09.000Z</time>
      </trkpt>
      <trkpt lat="43.61512" lon="2.40033">
        <ele>622.8983</ele>
        <time>2021-10-18T13:07:10.000Z</time>
      </trkpt>
      <trkpt lat="43.61513" lon="2.40033">
        <ele>622.995397</ele>
        <time>2021-10-18T13:07:11.000Z</time>
      </trkpt>
      <trkpt lat="43.61514" lon="2.40033">
        <ele>623.089339</ele>
        <time>2021-10-18T13:07:12.000Z</time>
      </trkpt>
      <trkpt lat="43.61514" lon="2.40033">
        <ele>623.159212</ele>
        <time>2021-10-18T13:07:13.000Z</time>
      </trkpt>
      <trkpt lat="43.61515" lon="2.40033">
        <ele>623.244606</ele>
        <time>2021-10-18T13:07:14.000Z</time>
      </trkpt>
      <trkpt lat="43.61515" lon="2.40032">
        <ele>623.351496</ele>
        <time>2021-10-18T13:07:15.000Z</time>
      </trkpt>
      <trkpt lat="43.61516" lon="2.40031">
        <ele>623.520286</ele>
        <time>2021-10-18T13:07:16.000Z</time>
      </trkpt>
      <trkpt lat="43.61517" lon="2.4003">
        <ele>623.621295</ele>
        <time>2021-10-18T13:07:17.000Z</time>
      </trkpt>
      <trkpt lat="43.61518" lon="2.4003">
        <ele>623.749386</ele>
        <time>2021-10-18T13:07:18.000Z</time>
      </trkpt>
      <trkpt lat="43.61519" lon="2.40029">
        <ele>623.908728</ele>
        <time>2021-10-18T13:07:19.000Z</time>
      </trkpt>
      <trkpt lat="43.6152" lon="2.40028">
        <ele>624.063964</ele>
        <time>2021-10-18T13:07:20.000Z</time>
      </trkpt>
      <trkpt lat="43.61521" lon="2.40028">
        <ele>624.185347</ele>
        <time>2021-10-18T13:07:21.000Z</time>
      </trkpt>
      <trkpt lat="43.61522" lon="2.40026">
        <ele>624.391059</ele>
        <time>2021-10-18T13:07:22.000Z</time>
      </trkpt>
      <trkpt lat="43.61524" lon="2.40025">
        <ele>624.602346</ele>
        <time>2021-10-18T13:07:23.000Z</time>
      </trkpt>
      <trkpt lat="43.61525" lon="2.40024">
        <ele>624.750395</ele>
        <time>2021-10-18T13:07:24.000Z</time>
      </trkpt>
      <trkpt lat="43.61526" lon="2.40023">
        <ele>624.942115</ele>
        <time>2021-10-18T13:07:25.000Z</time>
      </trkpt>
      <trkpt lat="43.61527" lon="2.40021">
        <ele>625.126715</ele>
        <time>2021-10-18T13:07:26.000Z</time>
      </trkpt>
      <trkpt lat="43.61528" lon="2.4002">
        <ele>625.316603</ele>
        <time>2021-10-18T13:07:27.000Z</time>
      </trkpt>
      <trkpt lat="43.61529" lon="2.40019">
        <ele>625.517014</ele>
        <time>2021-10-18T13:07:28.000Z</time>
      </trkpt>
      <trkpt lat="43.6153" lon="2.40017">
        <ele>625.71316</ele>
        <time>2021-10-18T13:07:29.000Z</time>
      </trkpt>
      <trkpt lat="43.61532" lon="2.40016">
        <ele>625.946065</ele>
        <time>2021-10-18T13:07:30.000Z</time>
      </trkpt>
      <trkpt lat="43.61533" lon="2.40014">
        <ele>626.153508</ele>
        <time>2021-10-18T13:07:31.000Z</time>
      </trkpt>
      <trkpt lat="43.61534" lon="2.40013">
        <ele>626.35826</ele>
        <time>2021-10-18T13:07:32.000Z</time>
      </trkpt>
      <trkpt lat="43.61535" lon="2.40011">
        <ele>626.559594</ele>
        <time>2021-10-18T13:07:33.000Z</time>
      </trkpt>
      <trkpt lat="43.61536" lon="2.4001">
        <ele>626.767036</ele>
        <time>2021-10-18T13:07:34.000Z</time>
      </trkpt>
      <trkpt lat="43.61538" lon="2.40009">
        <ele>626.994011</ele>
        <time>2021-10-18T13:07:35.000Z</time>
      </trkpt>
      <trkpt lat="43.61539" lon="2.40007">
        <ele>627.220985</ele>
        <time>2021-10-18T13:07:36.000Z</time>
      </trkpt>
      <trkpt lat="43.61541" lon="2.40006">
        <ele>627.458914</ele>
        <time>2021-10-18T13:07:37.000Z</time>
      </trkpt>
      <trkpt lat="43.61543" lon="2.40005">
        <ele>627.676593</ele>
        <time>2021-10-18T13:07:38.000Z</time>
      </trkpt>
      <trkpt lat="43.61544" lon="2.40004">
        <ele>627.894272</ele>
        <time>2021-10-18T13:07:39.000Z</time>
      </trkpt>
      <trkpt lat="43.61546" lon="2.40003">
        <ele>628.111951</ele>
        <time>2021-10-18T13:07:40.000Z</time>
      </trkpt>
      <trkpt lat="43.61547" lon="2.40002">
        <ele>628.329629</ele>
        <time>2021-10-18T13:07:41.000Z</time>
      </trkpt>
      <trkpt lat="43.61548" lon="2.4">
        <ele>628.514228</ele>
        <time>2021-10-18T13:07:42.000Z</time>
      </trkpt>
      <trkpt lat="43.6155" lon="2.39999">
        <ele>628.735764</ele>
        <time>2021-10-18T13:07:43.000Z</time>
      </trkpt>
      <trkpt lat="43.61551" lon="2.39998">
        <ele>628.931238</ele>
        <time>2021-10-18T13:07:44.000Z</time>
      </trkpt>
      <trkpt lat="43.61552" lon="2.39996">
        <ele>629.116795</ele>
        <time>2021-10-18T13:07:45.000Z</time>
      </trkpt>
      <trkpt lat="43.61553" lon="2.39995">
        <ele>629.307519</ele>
        <time>2021-10-18T13:07:46.000Z</time>
      </trkpt>
      <trkpt lat="43.61555" lon="2.39994">
        <ele>629.509537</ele>
        <time>2021-10-18T13:07:47.000Z</time>
      </trkpt>
      <trkpt lat="43.61556" lon="2.39994">
        <ele>629.684558</ele>
        <time>2021-10-18T13:07:48.000Z</time>
      </trkpt>
      <trkpt lat="43.61557" lon="2.39993">
        <ele>629.894176</ele>
        <time>2021-10-18T13:07:49.000Z</time>
      </trkpt>
      <trkpt lat="43.61558" lon="2.39992">
        <ele>630.053518</ele>
        <time>2021-10-18T13:07:50.000Z</time>
      </trkpt>
      <trkpt lat="43.6156" lon="2.39991">
        <ele>630.212859</ele>
        <time>2021-10-18T13:07:51.000Z</time>
      </trkpt>
      <trkpt lat="43.61561" lon="2.3999">
        <ele>630.399245</ele>
        <time>2021-10-18T13:07:52.000Z</time>
      </trkpt>
      <trkpt lat="43.61562" lon="2.39989">
        <ele>630.605341</ele>
        <time>2021-10-18T13:07:53.000Z</time>
      </trkpt>
      <trkpt lat="43.61564" lon="2.39989">
        <ele>630.808279</ele>
        <time>2021-10-18T13:07:54.000Z</time>
      </trkpt>
      <trkpt lat="43.61565" lon="2.39988">
        <ele>630.977068</ele>
        <time>2021-10-18T13:07:55.000Z</time>
      </trkpt>
      <trkpt lat="43.61566" lon="2.39987">
        <ele>631.161667</ele>
        <time>2021-10-18T13:07:56.000Z</time>
      </trkpt>
      <trkpt lat="43.61567" lon="2.39985">
        <ele>631.347224</ele>
        <time>2021-10-18T13:07:57.000Z</time>
      </trkpt>
      <trkpt lat="43.61568" lon="2.39984">
        <ele>631.526887</ele>
        <time>2021-10-18T13:07:58.000Z</time>
      </trkpt>
      <trkpt lat="43.61569" lon="2.39983">
        <ele>631.70095</ele>
        <time>2021-10-18T13:07:59.000Z</time>
      </trkpt>
      <trkpt lat="43.6157" lon="2.39982">
        <ele>631.854985</ele>
        <time>2021-10-18T13:08:00.000Z</time>
      </trkpt>
      <trkpt lat="43.61572" lon="2.39981">
        <ele>632.052912</ele>
        <time>2021-10-18T13:08:01.000Z</time>
      </trkpt>
      <trkpt lat="43.61573" lon="2.3998">
        <ele>632.2428</ele>
        <time>2021-10-18T13:08:02.000Z</time>
      </trkpt>
      <trkpt lat="43.61574" lon="2.39979">
        <ele>632.416863</ele>
        <time>2021-10-18T13:08:03.000Z</time>
      </trkpt>
      <trkpt lat="43.61575" lon="2.39978">
        <ele>632.561548</ele>
        <time>2021-10-18T13:08:04.000Z</time>
      </trkpt>
      <trkpt lat="43.61576" lon="2.39977">
        <ele>632.741182</ele>
        <time>2021-10-18T13:08:05.000Z</time>
      </trkpt>
      <trkpt lat="43.61577" lon="2.39976">
        <ele>632.905053</ele>
        <time>2021-10-18T13:08:06.000Z</time>
      </trkpt>
      <trkpt lat="43.61578" lon="2.39975">
        <ele>633.073842</ele>
        <time>2021-10-18T13:08:07.000Z</time>
      </trkpt>
      <trkpt lat="43.61579" lon="2.39974">
        <ele>633.233184</ele>
        <time>2021-10-18T13:08:08.000Z</time>
      </trkpt>
      <trkpt lat="43.6158" lon="2.39973">
        <ele>633.359775</ele>
        <time>2021-10-18T13:08:09.000Z</time>
      </trkpt>
      <trkpt lat="43.61581" lon="2.39972">
        <ele>633.460442</ele>
        <time>2021-10-18T13:08:10.000Z</time>
      </trkpt>
      <trkpt lat="43.61581" lon="2.39971">
        <ele>633.580968</ele>
        <time>2021-10-18T13:08:11.000Z</time>
      </trkpt>
      <trkpt lat="43.61582" lon="2.3997">
        <ele>633.703545</ele>
        <time>2021-10-18T13:08:12.000Z</time>
      </trkpt>
      <trkpt lat="43.61583" lon="2.39969">
        <ele>633.817076</ele>
        <time>2021-10-18T13:08:13.000Z</time>
      </trkpt>
      <trkpt lat="43.61584" lon="2.39969">
        <ele>633.953389</ele>
        <time>2021-10-18T13:08:14.000Z</time>
      </trkpt>
      <trkpt lat="43.61584" lon="2.39969">
        <ele>634.06244</ele>
        <time>2021-10-18T13:08:15.000Z</time>
      </trkpt>
      <trkpt lat="43.61585" lon="2.39968">
        <ele>634.194687</ele>
        <time>2021-10-18T13:08:16.000Z</time>
      </trkpt>
      <trkpt lat="43.61586" lon="2.39967">
        <ele>634.374321</ele>
        <time>2021-10-18T13:08:17.000Z</time>
      </trkpt>
      <trkpt lat="43.61587" lon="2.39965">
        <ele>634.544111</ele>
        <time>2021-10-18T13:08:18.000Z</time>
      </trkpt>
      <trkpt lat="43.61588" lon="2.39964">
        <ele>634.676408</ele>
        <time>2021-10-18T13:08:19.000Z</time>
      </trkpt>
      <trkpt lat="43.61589" lon="2.39963">
        <ele>634.765274</ele>
        <time>2021-10-18T13:08:20.000Z</time>
      </trkpt>
      <trkpt lat="43.6159" lon="2.39962">
        <ele>634.849677</ele>
        <time>2021-10-18T13:08:21.000Z</time>
      </trkpt>
      <trkpt lat="43.6159" lon="2.39961">
        <ele>634.923421</ele>
        <time>2021-10-18T13:08:22.000Z</time>
      </trkpt>
      <trkpt lat="43.61591" lon="2.3996">
        <ele>635.006199</ele>
        <time>2021-10-18T13:08:23.000Z</time>
      </trkpt>
      <trkpt lat="43.61592" lon="2.3996">
        <ele>635.075246</ele>
        <time>2021-10-18T13:08:24.000Z</time>
      </trkpt>
      <trkpt lat="43.61592" lon="2.39959">
        <ele>635.152843</ele>
        <time>2021-10-18T13:08:25.000Z</time>
      </trkpt>
      <trkpt lat="43.61593" lon="2.3996">
        <ele>635.244222</ele>
        <time>2021-10-18T13:08:26.000Z</time>
      </trkpt>
      <trkpt lat="43.61594" lon="2.39961">
        <ele>635.34253</ele>
        <time>2021-10-18T13:08:27.000Z</time>
      </trkpt>
      <trkpt lat="43.61594" lon="2.39964">
        <ele>635.53138</ele>
        <time>2021-10-18T13:08:40.000Z</time>
      </trkpt>
      <trkpt lat="43.61594" lon="2.39966">
        <ele>635.637124</ele>
        <time>2021-10-18T13:08:41.000Z</time>
      </trkpt>
      <trkpt lat="43.61593" lon="2.39968">
        <ele>635.770494</ele>
        <time>2021-10-18T13:08:42.000Z</time>
      </trkpt>
      <trkpt lat="43.61592" lon="2.39969">
        <ele>635.901542</ele>
        <time>2021-10-18T13:08:43.000Z</time>
      </trkpt>
      <trkpt lat="43.6159" lon="2.39969">
        <ele>636.027408</ele>
        <time>2021-10-18T13:08:44.000Z</time>
      </trkpt>
      <trkpt lat="43.61589" lon="2.39968">
        <ele>636.155227</ele>
        <time>2021-10-18T13:08:45.000Z</time>
      </trkpt>
      <trkpt lat="43.61589" lon="2.39966">
        <ele>636.277737</ele>
        <time>2021-10-18T13:08:46.000Z</time>
      </trkpt>
      <trkpt lat="43.61589" lon="2.39964">
        <ele>636.403641</ele>
        <time>2021-10-18T13:08:47.000Z</time>
      </trkpt>
      <trkpt lat="43.6159" lon="2.39962">
        <ele>636.526671</ele>
        <time>2021-10-18T13:08:48.000Z</time>
      </trkpt>
      <trkpt lat="43.61591" lon="2.39961">
        <ele>636.6302</ele>
        <time>2021-10-18T13:08:49.000Z</time>
      </trkpt>
      <trkpt lat="43.61592" lon="2.39961">
        <ele>636.723189</ele>
        <time>2021-10-18T13:08:50.000Z</time>
      </trkpt>
      <trkpt lat="43.61593" lon="2.39961">
        <ele>636.809758</ele>
        <time>2021-10-18T13:08:51.000Z</time>
      </trkpt>
      <trkpt lat="43.61595" lon="2.39963">
        <ele>636.975642</ele>
        <time>2021-10-18T13:08:52.000Z</time>
      </trkpt>
      <trkpt lat="43.61596" lon="2.39965">
        <ele>637.168744</ele>
        <time>2021-10-18T13:08:53.000Z</time>
      </trkpt>
      <trkpt lat="43.61598" lon="2.39966">
        <ele>637.358479</ele>
        <time>2021-10-18T13:08:54.000Z</time>
      </trkpt>
      <trkpt lat="43.616" lon="2.39968">
        <ele>637.511073</ele>
        <time>2021-10-18T13:08:55.000Z</time>
      </trkpt>
      <trkpt lat="43.61601" lon="2.39968">
        <ele>637.594831</ele>
        <time>2021-10-18T13:08:56.000Z</time>
      </trkpt>
      <trkpt lat="43.61602" lon="2.39968">
        <ele>637.672428</ele>
        <time>2021-10-18T13:08:57.000Z</time>
      </trkpt>
      <trkpt lat="43.61602" lon="2.39969">
        <ele>637.698294</ele>
        <time>2021-10-18T13:08:58.000Z</time>
      </trkpt>
      <trkpt lat="43.61602" lon="2.39969">
        <ele>637.704362</ele>
        <time>2021-10-18T13:08:59.000Z</time>
      </trkpt>
      <trkpt lat="43.61602" lon="2.39969">
        <ele>637.71043</ele>
        <time>2021-10-18T13:09:00.000Z</time>
      </trkpt>
      <trkpt lat="43.61602" lon="2.39969">
        <ele>637.71043</ele>
        <time>2021-10-18T13:09:02.000Z</time>
      </trkpt>
      <trkpt lat="43.6161" lon="2.39979">
        <ele>638.65786</ele>
        <time>2021-10-18T13:09:41.000Z</time>
      </trkpt>
      <trkpt lat="43.61611" lon="2.3998">
        <ele>638.76823</ele>
        <time>2021-10-18T13:09:42.000Z</time>
      </trkpt>
      <trkpt lat="43.61613" lon="2.39982">
        <ele>638.893595</ele>
        <time>2021-10-18T13:09:43.000Z</time>
      </trkpt>
      <trkpt lat="43.61613" lon="2.39983">
        <ele>638.998437</ele>
        <time>2021-10-18T13:09:44.000Z</time>
      </trkpt>
      <trkpt lat="43.61615" lon="2.39983">
        <ele>639.11538</ele>
        <time>2021-10-18T13:09:45.000Z</time>
      </trkpt>
      <trkpt lat="43.61616" lon="2.39984">
        <ele>639.25902</ele>
        <time>2021-10-18T13:09:46.000Z</time>
      </trkpt>
      <trkpt lat="43.61618" lon="2.39984">
        <ele>639.359778</ele>
        <time>2021-10-18T13:09:47.000Z</time>
      </trkpt>
      <trkpt lat="43.61619" lon="2.39984">
        <ele>639.477116</ele>
        <time>2021-10-18T13:09:48.000Z</time>
      </trkpt>
      <trkpt lat="43.6162" lon="2.39984">
        <ele>639.577692</ele>
        <time>2021-10-18T13:09:49.000Z</time>
      </trkpt>
      <trkpt lat="43.61622" lon="2.39984">
        <ele>639.686817</ele>
        <time>2021-10-18T13:09:50.000Z</time>
      </trkpt>
      <trkpt lat="43.61623" lon="2.39984">
        <ele>639.804312</ele>
        <time>2021-10-18T13:09:51.000Z</time>
      </trkpt>
      <trkpt lat="43.61624" lon="2.39984">
        <ele>639.896706</ele>
        <time>2021-10-18T13:09:52.000Z</time>
      </trkpt>
      <trkpt lat="43.61625" lon="2.39985">
        <ele>639.983962</ele>
        <time>2021-10-18T13:09:53.000Z</time>
      </trkpt>
      <trkpt lat="43.61626" lon="2.39986">
        <ele>640.062771</ele>
        <time>2021-10-18T13:09:54.000Z</time>
      </trkpt>
      <trkpt lat="43.61627" lon="2.39987">
        <ele>640.177866</ele>
        <time>2021-10-18T13:09:55.000Z</time>
      </trkpt>
      <trkpt lat="43.61628" lon="2.39988">
        <ele>640.278588</ele>
        <time>2021-10-18T13:09:56.000Z</time>
      </trkpt>
      <trkpt lat="43.61628" lon="2.39989">
        <ele>640.38343</ele>
        <time>2021-10-18T13:09:57.000Z</time>
      </trkpt>
      <trkpt lat="43.61629" lon="2.3999">
        <ele>640.476978</ele>
        <time>2021-10-18T13:09:58.000Z</time>
      </trkpt>
      <trkpt lat="43.6163" lon="2.39992">
        <ele>640.602343</ele>
        <time>2021-10-18T13:09:59.000Z</time>
      </trkpt>
      <trkpt lat="43.61631" lon="2.39993">
        <ele>640.700651</ele>
        <time>2021-10-18T13:10:00.000Z</time>
      </trkpt>
      <trkpt lat="43.61632" lon="2.39994">
        <ele>640.795259</ele>
        <time>2021-10-18T13:10:01.000Z</time>
      </trkpt>
      <trkpt lat="43.61633" lon="2.39995">
        <ele>640.900101</ele>
        <time>2021-10-18T13:10:02.000Z</time>
      </trkpt>
      <trkpt lat="43.61634" lon="2.39997">
        <ele>641.052396</ele>
        <time>2021-10-18T13:10:03.000Z</time>
      </trkpt>
      <trkpt lat="43.61635" lon="2.39998">
        <ele>641.155637</ele>
        <time>2021-10-18T13:10:04.000Z</time>
      </trkpt>
      <trkpt lat="43.61635" lon="2.4">
        <ele>641.279618</ele>
        <time>2021-10-18T13:10:05.000Z</time>
      </trkpt>
      <trkpt lat="43.61636" lon="2.40002">
        <ele>641.415458</ele>
        <time>2021-10-18T13:10:06.000Z</time>
      </trkpt>
      <trkpt lat="43.61636" lon="2.40005">
        <ele>641.549213</ele>
        <time>2021-10-18T13:10:07.000Z</time>
      </trkpt>
      <trkpt lat="43.61636" lon="2.40006">
        <ele>641.660554</ele>
        <time>2021-10-18T13:10:08.000Z</time>
      </trkpt>
      <trkpt lat="43.61637" lon="2.40008">
        <ele>641.759272</ele>
        <time>2021-10-18T13:10:09.000Z</time>
      </trkpt>
      <trkpt lat="43.61637" lon="2.40009">
        <ele>641.859474</ele>
        <time>2021-10-18T13:10:10.000Z</time>
      </trkpt>
      <trkpt lat="43.61638" lon="2.40011">
        <ele>641.977462</ele>
        <time>2021-10-18T13:10:11.000Z</time>
      </trkpt>
      <trkpt lat="43.61639" lon="2.40012">
        <ele>642.070971</ele>
        <time>2021-10-18T13:10:12.000Z</time>
      </trkpt>
      <trkpt lat="43.6164" lon="2.40013">
        <ele>642.179194</ele>
        <time>2021-10-18T13:10:13.000Z</time>
      </trkpt>
      <trkpt lat="43.6164" lon="2.40015">
        <ele>642.297865</ele>
        <time>2021-10-18T13:10:14.000Z</time>
      </trkpt>
      <trkpt lat="43.61641" lon="2.40017">
        <ele>642.432659</ele>
        <time>2021-10-18T13:10:15.000Z</time>
      </trkpt>
      <trkpt lat="43.61642" lon="2.40019">
        <ele>642.578375</ele>
        <time>2021-10-18T13:10:16.000Z</time>
      </trkpt>
      <trkpt lat="43.61642" lon="2.40022">
        <ele>642.729766</ele>
        <time>2021-10-18T13:10:17.000Z</time>
      </trkpt>
      <trkpt lat="43.61643" lon="2.40024">
        <ele>642.859647</ele>
        <time>2021-10-18T13:10:18.000Z</time>
      </trkpt>
      <trkpt lat="43.61643" lon="2.40026">
        <ele>642.995487</ele>
        <time>2021-10-18T13:10:19.000Z</time>
      </trkpt>
      <trkpt lat="43.61643" lon="2.40028">
        <ele>643.122912</ele>
        <time>2021-10-18T13:10:20.000Z</time>
      </trkpt>
      <trkpt lat="43.61643" lon="2.4003">
        <ele>643.256667</ele>
        <time>2021-10-18T13:10:21.000Z</time>
      </trkpt>
      <trkpt lat="43.61643" lon="2.40032">
        <ele>643.382569</ele>
        <time>2021-10-18T13:10:22.000Z</time>
      </trkpt>
      <trkpt lat="43.61644" lon="2.40034">
        <ele>643.506503</ele>
        <time>2021-10-18T13:10:23.000Z</time>
      </trkpt>
      <trkpt lat="43.61644" lon="2.40036">
        <ele>643.609996</ele>
        <time>2021-10-18T13:10:24.000Z</time>
      </trkpt>
      <trkpt lat="43.61644" lon="2.40038">
        <ele>643.71617</ele>
        <time>2021-10-18T13:10:25.000Z</time>
      </trkpt>
      <trkpt lat="43.61644" lon="2.4004">
        <ele>643.85573</ele>
        <time>2021-10-18T13:10:26.000Z</time>
      </trkpt>
      <trkpt lat="43.61644" lon="2.40042">
        <ele>643.995541</ele>
        <time>2021-10-18T13:10:27.000Z</time>
      </trkpt>
      <trkpt lat="43.61644" lon="2.40044">
        <ele>644.119476</ele>
        <time>2021-10-18T13:10:28.000Z</time>
      </trkpt>
      <trkpt lat="43.61645" lon="2.40046">
        <ele>644.241121</ele>
        <time>2021-10-18T13:10:29.000Z</time>
      </trkpt>
      <trkpt lat="43.61645" lon="2.40048">
        <ele>644.345628</ele>
        <time>2021-10-18T13:10:30.000Z</time>
      </trkpt>
      <trkpt lat="43.61645" lon="2.4005">
        <ele>644.442713</ele>
        <time>2021-10-18T13:10:31.000Z</time>
      </trkpt>
      <trkpt lat="43.61645" lon="2.40052">
        <ele>644.56407</ele>
        <time>2021-10-18T13:10:32.000Z</time>
      </trkpt>
      <trkpt lat="43.61645" lon="2.40054">
        <ele>644.679358</ele>
        <time>2021-10-18T13:10:33.000Z</time>
      </trkpt>
      <trkpt lat="43.61645" lon="2.40056">
        <ele>644.812851</ele>
        <time>2021-10-18T13:10:34.000Z</time>
      </trkpt>
      <trkpt lat="43.61645" lon="2.40058">
        <ele>644.93536</ele>
        <time>2021-10-18T13:10:35.000Z</time>
      </trkpt>
      <trkpt lat="43.61646" lon="2.40059">
        <ele>645.039345</ele>
        <time>2021-10-18T13:10:36.000Z</time>
      </trkpt>
      <trkpt lat="43.61646" lon="2.40061">
        <ele>645.136431</ele>
        <time>2021-10-18T13:10:37.000Z</time>
      </trkpt>
      <trkpt lat="43.61645" lon="2.40063">
        <ele>645.245973</ele>
        <time>2021-10-18T13:10:38.000Z</time>
      </trkpt>
      <trkpt lat="43.61645" lon="2.40065">
        <ele>645.366037</ele>
        <time>2021-10-18T13:10:39.000Z</time>
      </trkpt>
      <trkpt lat="43.61645" lon="2.40067">
        <ele>645.501877</ele>
        <time>2021-10-18T13:10:40.000Z</time>
      </trkpt>
      <trkpt lat="43.61645" lon="2.40069">
        <ele>645.623233</ele>
        <time>2021-10-18T13:10:41.000Z</time>
      </trkpt>
      <trkpt lat="43.61644" lon="2.40071">
        <ele>645.760871</ele>
        <time>2021-10-18T13:10:42.000Z</time>
      </trkpt>
      <trkpt lat="43.61644" lon="2.40073">
        <ele>645.898509</ele>
        <time>2021-10-18T13:10:43.000Z</time>
      </trkpt>
      <trkpt lat="43.61644" lon="2.40075">
        <ele>646.042039</ele>
        <time>2021-10-18T13:10:44.000Z</time>
      </trkpt>
      <trkpt lat="43.61643" lon="2.40078">
        <ele>646.18557</ele>
        <time>2021-10-18T13:10:45.000Z</time>
      </trkpt>
      <trkpt lat="43.61643" lon="2.4008">
        <ele>646.335007</ele>
        <time>2021-10-18T13:10:46.000Z</time>
      </trkpt>
      <trkpt lat="43.61642" lon="2.40083">
        <ele>646.492009</ele>
        <time>2021-10-18T13:10:47.000Z</time>
      </trkpt>
      <trkpt lat="43.61642" lon="2.40084">
        <ele>646.612073</ele>
        <time>2021-10-18T13:10:48.000Z</time>
      </trkpt>
      <trkpt lat="43.61641" lon="2.40086">
        <ele>646.740462</ele>
        <time>2021-10-18T13:10:49.000Z</time>
      </trkpt>
      <trkpt lat="43.61641" lon="2.40089">
        <ele>646.883112</ele>
        <time>2021-10-18T13:10:50.000Z</time>
      </trkpt>
      <trkpt lat="43.6164" lon="2.40091">
        <ele>647.009014</ele>
        <time>2021-10-18T13:10:51.000Z</time>
      </trkpt>
      <trkpt lat="43.6164" lon="2.40093">
        <ele>647.143153</ele>
        <time>2021-10-18T13:10:52.000Z</time>
      </trkpt>
      <trkpt lat="43.61639" lon="2.40095">
        <ele>647.297984</ele>
        <time>2021-10-18T13:10:53.000Z</time>
      </trkpt>
      <trkpt lat="43.61638" lon="2.40097">
        <ele>647.434973</ele>
        <time>2021-10-18T13:10:54.000Z</time>
      </trkpt>
      <trkpt lat="43.61638" lon="2.40099">
        <ele>647.555037</ele>
        <time>2021-10-18T13:10:55.000Z</time>
      </trkpt>
      <trkpt lat="43.61638" lon="2.40101">
        <ele>647.696845</ele>
        <time>2021-10-18T13:10:56.000Z</time>
      </trkpt>
      <trkpt lat="43.61638" lon="2.40103">
        <ele>647.806066</ele>
        <time>2021-10-18T13:10:57.000Z</time>
      </trkpt>
      <trkpt lat="43.61638" lon="2.40105">
        <ele>647.93349</ele>
        <time>2021-10-18T13:10:58.000Z</time>
      </trkpt>
      <trkpt lat="43.61638" lon="2.40107">
        <ele>648.055136</ele>
        <time>2021-10-18T13:10:59.000Z</time>
      </trkpt>
      <trkpt lat="43.61638" lon="2.4011">
        <ele>648.204574</ele>
        <time>2021-10-18T13:11:00.000Z</time>
      </trkpt>
      <trkpt lat="43.61638" lon="2.40112">
        <ele>648.346381</ele>
        <time>2021-10-18T13:11:01.000Z</time>
      </trkpt>
      <trkpt lat="43.61638" lon="2.40114">
        <ele>648.474081</ele>
        <time>2021-10-18T13:11:02.000Z</time>
      </trkpt>
      <trkpt lat="43.61638" lon="2.40116">
        <ele>648.603963</ele>
        <time>2021-10-18T13:11:03.000Z</time>
      </trkpt>
      <trkpt lat="43.61638" lon="2.40118">
        <ele>648.701048</ele>
        <time>2021-10-18T13:11:04.000Z</time>
      </trkpt>
      <trkpt lat="43.61638" lon="2.40119">
        <ele>648.804541</ele>
        <time>2021-10-18T13:11:05.000Z</time>
      </trkpt>
      <trkpt lat="43.61638" lon="2.40121">
        <ele>648.90483</ele>
        <time>2021-10-18T13:11:06.000Z</time>
      </trkpt>
      <trkpt lat="43.61638" lon="2.40122">
        <ele>648.98978</ele>
        <time>2021-10-18T13:11:07.000Z</time>
      </trkpt>
      <trkpt lat="43.61638" lon="2.40124">
        <ele>649.087226</ele>
        <time>2021-10-18T13:11:08.000Z</time>
      </trkpt>
      <trkpt lat="43.61638" lon="2.40126">
        <ele>649.185748</ele>
        <time>2021-10-18T13:11:09.000Z</time>
      </trkpt>
      <trkpt lat="43.61638" lon="2.40127">
        <ele>649.297826</ele>
        <time>2021-10-18T13:11:10.000Z</time>
      </trkpt>
      <trkpt lat="43.61638" lon="2.40129">
        <ele>649.389229</ele>
        <time>2021-10-18T13:11:11.000Z</time>
      </trkpt>
      <trkpt lat="43.61638" lon="2.40131">
        <ele>649.499729</ele>
        <time>2021-10-18T13:11:12.000Z</time>
      </trkpt>
      <trkpt lat="43.61638" lon="2.40133">
        <ele>649.611807</ele>
        <time>2021-10-18T13:11:13.000Z</time>
      </trkpt>
      <trkpt lat="43.61637" lon="2.40135">
        <ele>649.734257</ele>
        <time>2021-10-18T13:11:14.000Z</time>
      </trkpt>
      <trkpt lat="43.61637" lon="2.40137">
        <ele>649.789048</ele>
        <time>2021-10-18T13:11:15.000Z</time>
      </trkpt>
      <trkpt lat="43.61638" lon="2.40139">
        <ele>649.840146</ele>
        <time>2021-10-18T13:11:16.000Z</time>
      </trkpt>
      <trkpt lat="43.61638" lon="2.4014">
        <ele>649.887439</ele>
        <time>2021-10-18T13:11:17.000Z</time>
      </trkpt>
      <trkpt lat="43.61639" lon="2.40142">
        <ele>649.941216</ele>
        <time>2021-10-18T13:11:18.000Z</time>
      </trkpt>
      <trkpt lat="43.61639" lon="2.40144">
        <ele>649.987153</ele>
        <time>2021-10-18T13:11:19.000Z</time>
      </trkpt>
      <trkpt lat="43.6164" lon="2.40146">
        <ele>650.038251</ele>
        <time>2021-10-18T13:11:20.000Z</time>
      </trkpt>
      <trkpt lat="43.6164" lon="2.40148">
        <ele>650.107021</ele>
        <time>2021-10-18T13:11:21.000Z</time>
      </trkpt>
      <trkpt lat="43.6164" lon="2.4015">
        <ele>650.172152</ele>
        <time>2021-10-18T13:11:22.000Z</time>
      </trkpt>
      <trkpt lat="43.6164" lon="2.40152">
        <ele>650.223851</ele>
        <time>2021-10-18T13:11:23.000Z</time>
      </trkpt>
      <trkpt lat="43.6164" lon="2.40154">
        <ele>650.275955</ele>
        <time>2021-10-18T13:11:24.000Z</time>
      </trkpt>
      <trkpt lat="43.6164" lon="2.40157">
        <ele>650.34205</ele>
        <time>2021-10-18T13:11:25.000Z</time>
      </trkpt>
      <trkpt lat="43.6164" lon="2.40159">
        <ele>650.409895</ele>
        <time>2021-10-18T13:11:26.000Z</time>
      </trkpt>
      <trkpt lat="43.6164" lon="2.40161">
        <ele>650.472424</ele>
        <time>2021-10-18T13:11:27.000Z</time>
      </trkpt>
      <trkpt lat="43.61639" lon="2.40164">
        <ele>650.531353</ele>
        <time>2021-10-18T13:11:28.000Z</time>
      </trkpt>
      <trkpt lat="43.61639" lon="2.40165">
        <ele>650.585051</ele>
        <time>2021-10-18T13:11:29.000Z</time>
      </trkpt>
      <trkpt lat="43.61639" lon="2.40167">
        <ele>650.633561</ele>
        <time>2021-10-18T13:11:30.000Z</time>
      </trkpt>
      <trkpt lat="43.61638" lon="2.40169">
        <ele>650.688424</ele>
        <time>2021-10-18T13:11:31.000Z</time>
      </trkpt>
      <trkpt lat="43.61638" lon="2.40171">
        <ele>650.746513</ele>
        <time>2021-10-18T13:11:32.000Z</time>
      </trkpt>
      <trkpt lat="43.61638" lon="2.40173">
        <ele>650.806334</ele>
        <time>2021-10-18T13:11:33.000Z</time>
      </trkpt>
      <trkpt lat="43.61638" lon="2.40175">
        <ele>650.861762</ele>
        <time>2021-10-18T13:11:34.000Z</time>
      </trkpt>
      <trkpt lat="43.61638" lon="2.40177">
        <ele>650.916554</ele>
        <time>2021-10-18T13:11:35.000Z</time>
      </trkpt>
      <trkpt lat="43.61637" lon="2.40179">
        <ele>650.980952</ele>
        <time>2021-10-18T13:11:36.000Z</time>
      </trkpt>
      <trkpt lat="43.61636" lon="2.40181">
        <ele>651.034026</ele>
        <time>2021-10-18T13:11:37.000Z</time>
      </trkpt>
      <trkpt lat="43.61635" lon="2.40183">
        <ele>651.08905</ele>
        <time>2021-10-18T13:11:38.000Z</time>
      </trkpt>
      <trkpt lat="43.61635" lon="2.40185">
        <ele>651.1445</ele>
        <time>2021-10-18T13:11:39.000Z</time>
      </trkpt>
      <trkpt lat="43.61634" lon="2.40186">
        <ele>651.197574</ele>
        <time>2021-10-18T13:11:40.000Z</time>
      </trkpt>
      <trkpt lat="43.61634" lon="2.40189">
        <ele>651.258328</ele>
        <time>2021-10-18T13:11:41.000Z</time>
      </trkpt>
      <trkpt lat="43.61634" lon="2.40191">
        <ele>651.315441</ele>
        <time>2021-10-18T13:11:42.000Z</time>
      </trkpt>
      <trkpt lat="43.61633" lon="2.40192">
        <ele>651.358821</ele>
        <time>2021-10-18T13:11:43.000Z</time>
      </trkpt>
      <trkpt lat="43.61632" lon="2.40194">
        <ele>651.407223</ele>
        <time>2021-10-18T13:11:44.000Z</time>
      </trkpt>
      <trkpt lat="43.61632" lon="2.40195">
        <ele>651.455625</ele>
        <time>2021-10-18T13:11:45.000Z</time>
      </trkpt>
      <trkpt lat="43.61631" lon="2.40196">
        <ele>651.506185</ele>
        <time>2021-10-18T13:11:46.000Z</time>
      </trkpt>
      <trkpt lat="43.6163" lon="2.40198">
        <ele>651.561635</ele>
        <time>2021-10-18T13:11:47.000Z</time>
      </trkpt>
      <trkpt lat="43.61629" lon="2.402">
        <ele>651.619489</ele>
        <time>2021-10-18T13:11:48.000Z</time>
      </trkpt>
      <trkpt lat="43.61629" lon="2.40202">
        <ele>651.675798</ele>
        <time>2021-10-18T13:11:49.000Z</time>
      </trkpt>
      <trkpt lat="43.61629" lon="2.40205">
        <ele>651.747933</ele>
        <time>2021-10-18T13:11:50.000Z</time>
      </trkpt>
      <trkpt lat="43.61628" lon="2.40207">
        <ele>651.811355</ele>
        <time>2021-10-18T13:11:51.000Z</time>
      </trkpt>
      <trkpt lat="43.61628" lon="2.40209">
        <ele>651.860203</ele>
        <time>2021-10-18T13:11:52.000Z</time>
      </trkpt>
      <trkpt lat="43.61628" lon="2.40211">
        <ele>651.907689</ele>
        <time>2021-10-18T13:11:53.000Z</time>
      </trkpt>
      <trkpt lat="43.61628" lon="2.40212">
        <ele>651.959251</ele>
        <time>2021-10-18T13:11:54.000Z</time>
      </trkpt>
      <trkpt lat="43.61628" lon="2.40214">
        <ele>652.002672</ele>
        <time>2021-10-18T13:11:55.000Z</time>
      </trkpt>
      <trkpt lat="43.61628" lon="2.40216">
        <ele>652.048806</ele>
        <time>2021-10-18T13:11:56.000Z</time>
      </trkpt>
      <trkpt lat="43.61628" lon="2.40217">
        <ele>652.094941</ele>
        <time>2021-10-18T13:11:57.000Z</time>
      </trkpt>
      <trkpt lat="43.61628" lon="2.4022">
        <ele>652.151931</ele>
        <time>2021-10-18T13:11:58.000Z</time>
      </trkpt>
      <trkpt lat="43.61628" lon="2.40222">
        <ele>652.211635</ele>
        <time>2021-10-18T13:11:59.000Z</time>
      </trkpt>
      <trkpt lat="43.61629" lon="2.40224">
        <ele>652.274211</ele>
        <time>2021-10-18T13:12:00.000Z</time>
      </trkpt>
      <trkpt lat="43.61629" lon="2.40226">
        <ele>652.33153</ele>
        <time>2021-10-18T13:12:01.000Z</time>
      </trkpt>
      <trkpt lat="43.6163" lon="2.40228">
        <ele>652.398341</ele>
        <time>2021-10-18T13:12:02.000Z</time>
      </trkpt>
      <trkpt lat="43.61631" lon="2.4023">
        <ele>652.46214</ele>
        <time>2021-10-18T13:12:03.000Z</time>
      </trkpt>
      <trkpt lat="43.61631" lon="2.40233">
        <ele>652.535146</ele>
        <time>2021-10-18T13:12:04.000Z</time>
      </trkpt>
      <trkpt lat="43.61632" lon="2.40235">
        <ele>652.600361</ele>
        <time>2021-10-18T13:12:05.000Z</time>
      </trkpt>
      <trkpt lat="43.61633" lon="2.40238">
        <ele>652.679533</ele>
        <time>2021-10-18T13:12:06.000Z</time>
      </trkpt>
      <trkpt lat="43.61634" lon="2.4024">
        <ele>652.755303</ele>
        <time>2021-10-18T13:12:07.000Z</time>
      </trkpt>
      <trkpt lat="43.61635" lon="2.40243">
        <ele>652.832814</ele>
        <time>2021-10-18T13:12:08.000Z</time>
      </trkpt>
      <trkpt lat="43.61635" lon="2.40245">
        <ele>652.903032</ele>
        <time>2021-10-18T13:12:09.000Z</time>
      </trkpt>
      <trkpt lat="43.61636" lon="2.40247">
        <ele>652.965608</ele>
        <time>2021-10-18T13:12:10.000Z</time>
      </trkpt>
      <trkpt lat="43.61636" lon="2.40249">
        <ele>653.029408</ele>
        <time>2021-10-18T13:12:11.000Z</time>
      </trkpt>
      <trkpt lat="43.61637" lon="2.40252">
        <ele>653.094578</ele>
        <time>2021-10-18T13:12:12.000Z</time>
      </trkpt>
      <trkpt lat="43.61638" lon="2.40254">
        <ele>653.156587</ele>
        <time>2021-10-18T13:12:13.000Z</time>
      </trkpt>
      <trkpt lat="43.61638" lon="2.40255">
        <ele>653.209662</ele>
        <time>2021-10-18T13:12:14.000Z</time>
      </trkpt>
      <trkpt lat="43.61639" lon="2.40257">
        <ele>653.260987</ele>
        <time>2021-10-18T13:12:15.000Z</time>
      </trkpt>
      <trkpt lat="43.61639" lon="2.40259">
        <ele>653.312549</ele>
        <time>2021-10-18T13:12:16.000Z</time>
      </trkpt>
      <trkpt lat="43.61639" lon="2.40261">
        <ele>653.372252</ele>
        <time>2021-10-18T13:12:17.000Z</time>
      </trkpt>
      <trkpt lat="43.61639" lon="2.40263">
        <ele>653.432425</ele>
        <time>2021-10-18T13:12:18.000Z</time>
      </trkpt>
      <trkpt lat="43.61638" lon="2.40266">
        <ele>653.502642</ele>
        <time>2021-10-18T13:12:19.000Z</time>
      </trkpt>
      <trkpt lat="43.61637" lon="2.40269">
        <ele>653.580472</ele>
        <time>2021-10-18T13:12:20.000Z</time>
      </trkpt>
      <trkpt lat="43.61637" lon="2.40271">
        <ele>653.657285</ele>
        <time>2021-10-18T13:12:21.000Z</time>
      </trkpt>
      <trkpt lat="43.61637" lon="2.40274">
        <ele>653.73094</ele>
        <time>2021-10-18T13:12:22.000Z</time>
      </trkpt>
      <trkpt lat="43.61636" lon="2.40277">
        <ele>653.808769</ele>
        <time>2021-10-18T13:12:23.000Z</time>
      </trkpt>
      <trkpt lat="43.61635" lon="2.40279">
        <ele>653.887941</ele>
        <time>2021-10-18T13:12:24.000Z</time>
      </trkpt>
      <trkpt lat="43.61635" lon="2.40282">
        <ele>653.962118</ele>
        <time>2021-10-18T13:12:25.000Z</time>
      </trkpt>
      <trkpt lat="43.61633" lon="2.40284">
        <ele>654.043461</ele>
        <time>2021-10-18T13:12:26.000Z</time>
      </trkpt>
      <trkpt lat="43.61632" lon="2.40286">
        <ele>654.115156</ele>
        <time>2021-10-18T13:12:27.000Z</time>
      </trkpt>
      <trkpt lat="43.61631" lon="2.40287">
        <ele>654.169422</ele>
        <time>2021-10-18T13:12:28.000Z</time>
      </trkpt>
      <trkpt lat="43.6163" lon="2.40289">
        <ele>654.222496</ele>
        <time>2021-10-18T13:12:29.000Z</time>
      </trkpt>
      <trkpt lat="43.61629" lon="2.40291">
        <ele>654.277483</ele>
        <time>2021-10-18T13:12:30.000Z</time>
      </trkpt>
      <trkpt lat="43.61628" lon="2.40292">
        <ele>654.334845</ele>
        <time>2021-10-18T13:12:31.000Z</time>
      </trkpt>
      <trkpt lat="43.61627" lon="2.40294">
        <ele>654.389111</ele>
        <time>2021-10-18T13:12:32.000Z</time>
      </trkpt>
      <trkpt lat="43.61625" lon="2.40295">
        <ele>654.460868</ele>
        <time>2021-10-18T13:12:33.000Z</time>
      </trkpt>
      <trkpt lat="43.61624" lon="2.40295">
        <ele>654.513975</ele>
        <time>2021-10-18T13:12:34.000Z</time>
      </trkpt>
      <trkpt lat="43.61623" lon="2.40295">
        <ele>654.56278</ele>
        <time>2021-10-18T13:12:35.000Z</time>
      </trkpt>
      <trkpt lat="43.61621" lon="2.40295">
        <ele>654.61151</ele>
        <time>2021-10-18T13:12:36.000Z</time>
      </trkpt>
      <trkpt lat="43.6162" lon="2.40294">
        <ele>654.653534</ele>
        <time>2021-10-18T13:12:37.000Z</time>
      </trkpt>
      <trkpt lat="43.61619" lon="2.40293">
        <ele>654.712071</ele>
        <time>2021-10-18T13:12:38.000Z</time>
      </trkpt>
      <trkpt lat="43.61617" lon="2.40293">
        <ele>654.772292</ele>
        <time>2021-10-18T13:12:39.000Z</time>
      </trkpt>
      <trkpt lat="43.61615" lon="2.40294">
        <ele>654.848043</ele>
        <time>2021-10-18T13:12:40.000Z</time>
      </trkpt>
      <trkpt lat="43.61613" lon="2.40294">
        <ele>654.934938</ele>
        <time>2021-10-18T13:12:41.000Z</time>
      </trkpt>
      <trkpt lat="43.61611" lon="2.40294">
        <ele>655.017449</ele>
        <time>2021-10-18T13:12:42.000Z</time>
      </trkpt>
      <trkpt lat="43.61608" lon="2.40294">
        <ele>655.103707</ele>
        <time>2021-10-18T13:12:43.000Z</time>
      </trkpt>
      <trkpt lat="43.61607" lon="2.40294">
        <ele>655.174979</ele>
        <time>2021-10-18T13:12:44.000Z</time>
      </trkpt>
      <trkpt lat="43.61604" lon="2.40294">
        <ele>655.257624</ele>
        <time>2021-10-18T13:12:45.000Z</time>
      </trkpt>
      <trkpt lat="43.61603" lon="2.40294">
        <ele>655.317845</ele>
        <time>2021-10-18T13:12:46.000Z</time>
      </trkpt>
      <trkpt lat="43.61601" lon="2.40294">
        <ele>655.389117</ele>
        <time>2021-10-18T13:12:47.000Z</time>
      </trkpt>
      <trkpt lat="43.61599" lon="2.40294">
        <ele>655.458527</ele>
        <time>2021-10-18T13:12:48.000Z</time>
      </trkpt>
      <trkpt lat="43.61597" lon="2.40293">
        <ele>655.524356</ele>
        <time>2021-10-18T13:12:49.000Z</time>
      </trkpt>
      <trkpt lat="43.61596" lon="2.40291">
        <ele>655.605077</ele>
        <time>2021-10-18T13:12:50.000Z</time>
      </trkpt>
      <trkpt lat="43.61594" lon="2.4029">
        <ele>655.689935</ele>
        <time>2021-10-18T13:12:51.000Z</time>
      </trkpt>
      <trkpt lat="43.61592" lon="2.40288">
        <ele>655.766074</ele>
        <time>2021-10-18T13:12:52.000Z</time>
      </trkpt>
      <trkpt lat="43.6159" lon="2.40288">
        <ele>655.83257</ele>
        <time>2021-10-18T13:12:53.000Z</time>
      </trkpt>
      <trkpt lat="43.61588" lon="2.40287">
        <ele>655.901979</ele>
        <time>2021-10-18T13:12:54.000Z</time>
      </trkpt>
      <trkpt lat="43.61587" lon="2.40287">
        <ele>655.962929</ele>
        <time>2021-10-18T13:12:55.000Z</time>
      </trkpt>
      <trkpt lat="43.61585" lon="2.40287">
        <ele>656.030456</ele>
        <time>2021-10-18T13:12:56.000Z</time>
      </trkpt>
      <trkpt lat="43.61583" lon="2.40287">
        <ele>656.089805</ele>
        <time>2021-10-18T13:12:57.000Z</time>
      </trkpt>
      <trkpt lat="43.61582" lon="2.40289">
        <ele>656.160802</ele>
        <time>2021-10-18T13:12:58.000Z</time>
      </trkpt>
      <trkpt lat="43.6158" lon="2.4029">
        <ele>656.230677</ele>
        <time>2021-10-18T13:12:59.000Z</time>
      </trkpt>
      <trkpt lat="43.61579" lon="2.40292">
        <ele>656.29012</ele>
        <time>2021-10-18T13:13:00.000Z</time>
      </trkpt>
      <trkpt lat="43.61579" lon="2.40294">
        <ele>656.34905</ele>
        <time>2021-10-18T13:13:01.000Z</time>
      </trkpt>
      <trkpt lat="43.61579" lon="2.40297">
        <ele>656.415885</ele>
        <time>2021-10-18T13:13:02.000Z</time>
      </trkpt>
      <trkpt lat="43.61578" lon="2.40299">
        <ele>656.469396</ele>
        <time>2021-10-18T13:13:03.000Z</time>
      </trkpt>
      <trkpt lat="43.61577" lon="2.40301">
        <ele>656.493742</ele>
        <time>2021-10-18T13:13:04.000Z</time>
      </trkpt>
      <trkpt lat="43.61575" lon="2.40303">
        <ele>656.518588</ele>
        <time>2021-10-18T13:13:05.000Z</time>
      </trkpt>
      <trkpt lat="43.61574" lon="2.40305">
        <ele>656.540788</ele>
        <time>2021-10-18T13:13:06.000Z</time>
      </trkpt>
      <trkpt lat="43.61573" lon="2.40307">
        <ele>656.563698</ele>
        <time>2021-10-18T13:13:07.000Z</time>
      </trkpt>
      <trkpt lat="43.61571" lon="2.40309">
        <ele>656.586455</ele>
        <time>2021-10-18T13:13:08.000Z</time>
      </trkpt>
      <trkpt lat="43.61569" lon="2.4031">
        <ele>656.61455</ele>
        <time>2021-10-18T13:13:09.000Z</time>
      </trkpt>
      <trkpt lat="43.61566" lon="2.40312">
        <ele>656.652054</ele>
        <time>2021-10-18T13:13:10.000Z</time>
      </trkpt>
      <trkpt lat="43.61564" lon="2.40314">
        <ele>656.686834</ele>
        <time>2021-10-18T13:13:11.000Z</time>
      </trkpt>
      <trkpt lat="43.61563" lon="2.40317">
        <ele>656.720484</ele>
        <time>2021-10-18T13:13:12.000Z</time>
      </trkpt>
      <trkpt lat="43.61562" lon="2.4032">
        <ele>656.745501</ele>
        <time>2021-10-18T13:13:13.000Z</time>
      </trkpt>
      <trkpt lat="43.61562" lon="2.40323">
        <ele>656.768772</ele>
        <time>2021-10-18T13:13:14.000Z</time>
      </trkpt>
      <trkpt lat="43.61562" lon="2.40325">
        <ele>656.79002</ele>
        <time>2021-10-18T13:13:15.000Z</time>
      </trkpt>
      <trkpt lat="43.61562" lon="2.40328">
        <ele>656.810494</ele>
        <time>2021-10-18T13:13:16.000Z</time>
      </trkpt>
      <trkpt lat="43.61562" lon="2.4033">
        <ele>656.833475</ele>
        <time>2021-10-18T13:13:17.000Z</time>
      </trkpt>
      <trkpt lat="43.61562" lon="2.40333">
        <ele>656.855605</ele>
        <time>2021-10-18T13:13:18.000Z</time>
      </trkpt>
      <trkpt lat="43.61562" lon="2.40335">
        <ele>656.878475</ele>
        <time>2021-10-18T13:13:19.000Z</time>
      </trkpt>
      <trkpt lat="43.61561" lon="2.40338">
        <ele>656.902252</ele>
        <time>2021-10-18T13:13:20.000Z</time>
      </trkpt>
      <trkpt lat="43.6156" lon="2.4034">
        <ele>656.925944</ele>
        <time>2021-10-18T13:13:21.000Z</time>
      </trkpt>
      <trkpt lat="43.6156" lon="2.40343">
        <ele>656.950087</ele>
        <time>2021-10-18T13:13:22.000Z</time>
      </trkpt>
      <trkpt lat="43.6156" lon="2.40346">
        <ele>656.977731</ele>
        <time>2021-10-18T13:13:23.000Z</time>
      </trkpt>
      <trkpt lat="43.6156" lon="2.40349">
        <ele>657.002509</ele>
        <time>2021-10-18T13:13:24.000Z</time>
      </trkpt>
      <trkpt lat="43.61559" lon="2.40351">
        <ele>657.026653</ele>
        <time>2021-10-18T13:13:25.000Z</time>
      </trkpt>
      <trkpt lat="43.61559" lon="2.40354">
        <ele>657.047901</ele>
        <time>2021-10-18T13:13:26.000Z</time>
      </trkpt>
      <trkpt lat="43.6156" lon="2.40356">
        <ele>657.067949</ele>
        <time>2021-10-18T13:13:27.000Z</time>
      </trkpt>
      <trkpt lat="43.61561" lon="2.40358">
        <ele>657.091303</ele>
        <time>2021-10-18T13:13:28.000Z</time>
      </trkpt>
      <trkpt lat="43.61561" lon="2.40361">
        <ele>657.113063</ele>
        <time>2021-10-18T13:13:29.000Z</time>
      </trkpt>
      <trkpt lat="43.61562" lon="2.40362">
        <ele>657.131731</ele>
        <time>2021-10-18T13:13:30.000Z</time>
      </trkpt>
      <trkpt lat="43.61563" lon="2.40364">
        <ele>657.153233</ele>
        <time>2021-10-18T13:13:31.000Z</time>
      </trkpt>
      <trkpt lat="43.61565" lon="2.40366">
        <ele>657.173595</ele>
        <time>2021-10-18T13:13:32.000Z</time>
      </trkpt>
      <trkpt lat="43.61566" lon="2.40368">
        <ele>657.194581</ele>
        <time>2021-10-18T13:13:33.000Z</time>
      </trkpt>
      <trkpt lat="43.61567" lon="2.40369">
        <ele>657.215401</ele>
        <time>2021-10-18T13:13:34.000Z</time>
      </trkpt>
      <trkpt lat="43.61568" lon="2.40371">
        <ele>657.2376</ele>
        <time>2021-10-18T13:13:35.000Z</time>
      </trkpt>
      <trkpt lat="43.61569" lon="2.40374">
        <ele>657.26172</ele>
        <time>2021-10-18T13:13:36.000Z</time>
      </trkpt>
      <trkpt lat="43.61569" lon="2.40377">
        <ele>657.285839</ele>
        <time>2021-10-18T13:13:37.000Z</time>
      </trkpt>
      <trkpt lat="43.6157" lon="2.40379">
        <ele>657.313223</ele>
        <time>2021-10-18T13:13:38.000Z</time>
      </trkpt>
      <trkpt lat="43.61571" lon="2.40382">
        <ele>657.339735</ele>
        <time>2021-10-18T13:13:39.000Z</time>
      </trkpt>
      <trkpt lat="43.61573" lon="2.40384">
        <ele>657.364081</ele>
        <time>2021-10-18T13:13:40.000Z</time>
      </trkpt>
      <trkpt lat="43.61574" lon="2.40386">
        <ele>657.390155</ele>
        <time>2021-10-18T13:13:41.000Z</time>
      </trkpt>
      <trkpt lat="43.61575" lon="2.40388">
        <ele>657.412355</ele>
        <time>2021-10-18T13:13:42.000Z</time>
      </trkpt>
      <trkpt lat="43.61576" lon="2.4039">
        <ele>657.435313</ele>
        <time>2021-10-18T13:13:43.000Z</time>
      </trkpt>
      <trkpt lat="43.61577" lon="2.40392">
        <ele>657.454673</ele>
        <time>2021-10-18T13:13:44.000Z</time>
      </trkpt>
      <trkpt lat="43.61578" lon="2.40394">
        <ele>657.477008</ele>
        <time>2021-10-18T13:13:45.000Z</time>
      </trkpt>
      <trkpt lat="43.6158" lon="2.40397">
        <ele>657.507795</ele>
        <time>2021-10-18T13:13:46.000Z</time>
      </trkpt>
      <trkpt lat="43.61581" lon="2.40399">
        <ele>657.532901</ele>
        <time>2021-10-18T13:13:47.000Z</time>
      </trkpt>
      <trkpt lat="43.61582" lon="2.40402">
        <ele>657.558007</ele>
        <time>2021-10-18T13:13:48.000Z</time>
      </trkpt>
      <trkpt lat="43.61583" lon="2.40404">
        <ele>657.58056</ele>
        <time>2021-10-18T13:13:49.000Z</time>
      </trkpt>
      <trkpt lat="43.61584" lon="2.40406">
        <ele>657.603668</ele>
        <time>2021-10-18T13:13:50.000Z</time>
      </trkpt>
      <trkpt lat="43.61584" lon="2.40409">
        <ele>657.624034</ele>
        <time>2021-10-18T13:13:51.000Z</time>
      </trkpt>
      <trkpt lat="43.61583" lon="2.40411">
        <ele>657.64469</ele>
        <time>2021-10-18T13:13:52.000Z</time>
      </trkpt>
      <trkpt lat="43.61583" lon="2.40414">
        <ele>657.668679</ele>
        <time>2021-10-18T13:13:53.000Z</time>
      </trkpt>
      <trkpt lat="43.61583" lon="2.40416">
        <ele>657.692798</ele>
        <time>2021-10-18T13:13:54.000Z</time>
      </trkpt>
      <trkpt lat="43.61582" lon="2.40419">
        <ele>657.715196</ele>
        <time>2021-10-18T13:13:55.000Z</time>
      </trkpt>
      <trkpt lat="43.61582" lon="2.40421">
        <ele>657.737326</ele>
        <time>2021-10-18T13:13:56.000Z</time>
      </trkpt>
      <trkpt lat="43.61583" lon="2.40424">
        <ele>657.761685</ele>
        <time>2021-10-18T13:13:57.000Z</time>
      </trkpt>
      <trkpt lat="43.61583" lon="2.40426">
        <ele>657.784795</ele>
        <time>2021-10-18T13:13:58.000Z</time>
      </trkpt>
      <trkpt lat="43.61583" lon="2.40429">
        <ele>657.806891</ele>
        <time>2021-10-18T13:13:59.000Z</time>
      </trkpt>
      <trkpt lat="43.61583" lon="2.40431">
        <ele>657.828139</ele>
        <time>2021-10-18T13:14:00.000Z</time>
      </trkpt>
      <trkpt lat="43.61582" lon="2.40434">
        <ele>657.849899</ele>
        <time>2021-10-18T13:14:01.000Z</time>
      </trkpt>
      <trkpt lat="43.61581" lon="2.40436">
        <ele>657.870333</ele>
        <time>2021-10-18T13:14:02.000Z</time>
      </trkpt>
      <trkpt lat="43.61581" lon="2.40438">
        <ele>657.892963</ele>
        <time>2021-10-18T13:14:03.000Z</time>
      </trkpt>
      <trkpt lat="43.61581" lon="2.40441">
        <ele>657.916456</ele>
        <time>2021-10-18T13:14:04.000Z</time>
      </trkpt>
      <trkpt lat="43.6158" lon="2.40443">
        <ele>657.939325</ele>
        <time>2021-10-18T13:14:05.000Z</time>
      </trkpt>
      <trkpt lat="43.61579" lon="2.40445">
        <ele>657.960233</ele>
        <time>2021-10-18T13:14:06.000Z</time>
      </trkpt>
      <trkpt lat="43.61579" lon="2.40448">
        <ele>657.982</ele>
        <time>2021-10-18T13:14:07.000Z</time>
      </trkpt>
      <trkpt lat="43.61578" lon="2.4045">
        <ele>658.00376</ele>
        <time>2021-10-18T13:14:08.000Z</time>
      </trkpt>
      <trkpt lat="43.61578" lon="2.40452">
        <ele>658.023714</ele>
        <time>2021-10-18T13:14:09.000Z</time>
      </trkpt>
      <trkpt lat="43.61578" lon="2.40454">
        <ele>658.041433</ele>
        <time>2021-10-18T13:14:10.000Z</time>
      </trkpt>
      <trkpt lat="43.61578" lon="2.40456">
        <ele>658.058622</ele>
        <time>2021-10-18T13:14:11.000Z</time>
      </trkpt>
      <trkpt lat="43.61578" lon="2.40458">
        <ele>658.078987</ele>
        <time>2021-10-18T13:14:12.000Z</time>
      </trkpt>
      <trkpt lat="43.61578" lon="2.40461">
        <ele>658.101385</ele>
        <time>2021-10-18T13:14:13.000Z</time>
      </trkpt>
      <trkpt lat="43.61578" lon="2.40463">
        <ele>658.122598</ele>
        <time>2021-10-18T13:14:14.000Z</time>
      </trkpt>
      <trkpt lat="43.61577" lon="2.40466">
        <ele>658.145707</ele>
        <time>2021-10-18T13:14:15.000Z</time>
      </trkpt>
      <trkpt lat="43.61577" lon="2.40468">
        <ele>658.167759</ele>
        <time>2021-10-18T13:14:16.000Z</time>
      </trkpt>
      <trkpt lat="43.61576" lon="2.4047">
        <ele>658.1848</ele>
        <time>2021-10-18T13:14:17.000Z</time>
      </trkpt>
      <trkpt lat="43.61575" lon="2.40472">
        <ele>658.210045</ele>
        <time>2021-10-18T13:14:18.000Z</time>
      </trkpt>
      <trkpt lat="43.61575" lon="2.40475">
        <ele>658.234403</ele>
        <time>2021-10-18T13:14:19.000Z</time>
      </trkpt>
      <trkpt lat="43.61574" lon="2.40478">
        <ele>658.259752</ele>
        <time>2021-10-18T13:14:20.000Z</time>
      </trkpt>
      <trkpt lat="43.61574" lon="2.40481">
        <ele>658.289551</ele>
        <time>2021-10-18T13:14:21.000Z</time>
      </trkpt>
      <trkpt lat="43.61573" lon="2.40484">
        <ele>658.319473</ele>
        <time>2021-10-18T13:14:22.000Z</time>
      </trkpt>
      <trkpt lat="43.61572" lon="2.40487">
        <ele>658.348233</ele>
        <time>2021-10-18T13:14:23.000Z</time>
      </trkpt>
      <trkpt lat="43.61571" lon="2.4049">
        <ele>658.374255</ele>
        <time>2021-10-18T13:14:24.000Z</time>
      </trkpt>
      <trkpt lat="43.6157" lon="2.40492">
        <ele>658.395068</ele>
        <time>2021-10-18T13:14:25.000Z</time>
      </trkpt>
      <trkpt lat="43.61569" lon="2.40494">
        <ele>658.415888</ele>
        <time>2021-10-18T13:14:26.000Z</time>
      </trkpt>
      <trkpt lat="43.61567" lon="2.40495">
        <ele>658.437515</ele>
        <time>2021-10-18T13:14:27.000Z</time>
      </trkpt>
      <trkpt lat="43.61566" lon="2.40497">
        <ele>658.458501</ele>
        <time>2021-10-18T13:14:28.000Z</time>
      </trkpt>
      <trkpt lat="43.61565" lon="2.40499">
        <ele>658.483953</ele>
        <time>2021-10-18T13:14:29.000Z</time>
      </trkpt>
      <trkpt lat="43.61563" lon="2.40501">
        <ele>658.510899</ele>
        <time>2021-10-18T13:14:30.000Z</time>
      </trkpt>
      <trkpt lat="43.61561" lon="2.40503">
        <ele>658.535526</ele>
        <time>2021-10-18T13:14:31.000Z</time>
      </trkpt>
      <trkpt lat="43.61559" lon="2.40503">
        <ele>658.565667</ele>
        <time>2021-10-18T13:14:32.000Z</time>
      </trkpt>
      <trkpt lat="43.61557" lon="2.40504">
        <ele>658.596239</ele>
        <time>2021-10-18T13:14:33.000Z</time>
      </trkpt>
      <trkpt lat="43.61554" lon="2.40504">
        <ele>658.623228</ele>
        <time>2021-10-18T13:14:34.000Z</time>
      </trkpt>
      <trkpt lat="43.61552" lon="2.40504">
        <ele>658.647709</ele>
        <time>2021-10-18T13:14:35.000Z</time>
      </trkpt>
      <trkpt lat="43.6155" lon="2.40504">
        <ele>658.616184</ele>
        <time>2021-10-18T13:14:36.000Z</time>
      </trkpt>
      <trkpt lat="43.61548" lon="2.40504">
        <ele>658.57363</ele>
        <time>2021-10-18T13:14:37.000Z</time>
      </trkpt>
      <trkpt lat="43.61546" lon="2.40505">
        <ele>658.52434</ele>
        <time>2021-10-18T13:14:38.000Z</time>
      </trkpt>
      <trkpt lat="43.61544" lon="2.40505">
        <ele>658.474833</ele>
        <time>2021-10-18T13:14:39.000Z</time>
      </trkpt>
      <trkpt lat="43.61541" lon="2.40506">
        <ele>658.429235</ele>
        <time>2021-10-18T13:14:40.000Z</time>
      </trkpt>
      <trkpt lat="43.6154" lon="2.40507">
        <ele>658.394201</ele>
        <time>2021-10-18T13:14:41.000Z</time>
      </trkpt>
      <trkpt lat="43.61539" lon="2.40509">
        <ele>658.36782</ele>
        <time>2021-10-18T13:14:42.000Z</time>
      </trkpt>
      <trkpt lat="43.61539" lon="2.40511">
        <ele>658.33674</ele>
        <time>2021-10-18T13:14:43.000Z</time>
      </trkpt>
      <trkpt lat="43.6154" lon="2.40513">
        <ele>658.303789</ele>
        <time>2021-10-18T13:14:44.000Z</time>
      </trkpt>
      <trkpt lat="43.6154" lon="2.40515">
        <ele>658.269922</ele>
        <time>2021-10-18T13:14:45.000Z</time>
      </trkpt>
      <trkpt lat="43.6154" lon="2.40518">
        <ele>658.229898</ele>
        <time>2021-10-18T13:14:46.000Z</time>
      </trkpt>
      <trkpt lat="43.6154" lon="2.4052">
        <ele>658.186794</ele>
        <time>2021-10-18T13:14:47.000Z</time>
      </trkpt>
      <trkpt lat="43.6154" lon="2.40523">
        <ele>658.149787</ele>
        <time>2021-10-18T13:14:48.000Z</time>
      </trkpt>
      <trkpt lat="43.6154" lon="2.40525">
        <ele>658.112598</ele>
        <time>2021-10-18T13:14:49.000Z</time>
      </trkpt>
      <trkpt lat="43.6154" lon="2.40528">
        <ele>658.075652</ele>
        <time>2021-10-18T13:14:50.000Z</time>
      </trkpt>
      <trkpt lat="43.6154" lon="2.4053">
        <ele>658.043324</ele>
        <time>2021-10-18T13:14:51.000Z</time>
      </trkpt>
      <trkpt lat="43.61539" lon="2.40532">
        <ele>658.004879</ele>
        <time>2021-10-18T13:14:52.000Z</time>
      </trkpt>
      <trkpt lat="43.61539" lon="2.40534">
        <ele>657.96835</ele>
        <time>2021-10-18T13:14:53.000Z</time>
      </trkpt>
      <trkpt lat="43.61538" lon="2.40536">
        <ele>657.934675</ele>
        <time>2021-10-18T13:14:54.000Z</time>
      </trkpt>
      <trkpt lat="43.61536" lon="2.40538">
        <ele>657.891753</ele>
        <time>2021-10-18T13:14:55.000Z</time>
      </trkpt>
      <trkpt lat="43.61534" lon="2.40539">
        <ele>657.846239</ele>
        <time>2021-10-18T13:14:56.000Z</time>
      </trkpt>
      <trkpt lat="43.61533" lon="2.40541">
        <ele>657.81114</ele>
        <time>2021-10-18T13:14:57.000Z</time>
      </trkpt>
      <trkpt lat="43.61532" lon="2.40543">
        <ele>657.766105</ele>
        <time>2021-10-18T13:14:58.000Z</time>
      </trkpt>
      <trkpt lat="43.61531" lon="2.40546">
        <ele>657.721741</ele>
        <time>2021-10-18T13:14:59.000Z</time>
      </trkpt>
      <trkpt lat="43.6153" lon="2.40548">
        <ele>657.678466</ele>
        <time>2021-10-18T13:15:00.000Z</time>
      </trkpt>
      <trkpt lat="43.61528" lon="2.40549">
        <ele>657.637872</ele>
        <time>2021-10-18T13:15:01.000Z</time>
      </trkpt>
      <trkpt lat="43.61526" lon="2.4055">
        <ele>657.586119</ele>
        <time>2021-10-18T13:15:02.000Z</time>
      </trkpt>
      <trkpt lat="43.61523" lon="2.40551">
        <ele>657.533962</ele>
        <time>2021-10-18T13:15:03.000Z</time>
      </trkpt>
      <trkpt lat="43.61521" lon="2.40552">
        <ele>657.475814</ele>
        <time>2021-10-18T13:15:04.000Z</time>
      </trkpt>
      <trkpt lat="43.61518" lon="2.40553">
        <ele>657.418427</ele>
        <time>2021-10-18T13:15:05.000Z</time>
      </trkpt>
      <trkpt lat="43.61516" lon="2.40554">
        <ele>657.368846</ele>
        <time>2021-10-18T13:15:06.000Z</time>
      </trkpt>
      <trkpt lat="43.61514" lon="2.40556">
        <ele>657.328548</ele>
        <time>2021-10-18T13:15:07.000Z</time>
      </trkpt>
      <trkpt lat="43.61513" lon="2.40557">
        <ele>657.296132</ele>
        <time>2021-10-18T13:15:08.000Z</time>
      </trkpt>
      <trkpt lat="43.61512" lon="2.40557">
        <ele>657.278615</ele>
        <time>2021-10-18T13:15:09.000Z</time>
      </trkpt>
      <trkpt lat="43.61509" lon="2.4056">
        <ele>657.195981</ele>
        <time>2021-10-18T13:15:14.000Z</time>
      </trkpt>
      <trkpt lat="43.61507" lon="2.4056">
        <ele>657.149203</ele>
        <time>2021-10-18T13:15:15.000Z</time>
      </trkpt>
      <trkpt lat="43.61504" lon="2.4056">
        <ele>657.083216</ele>
        <time>2021-10-18T13:15:16.000Z</time>
      </trkpt>
      <trkpt lat="43.61501" lon="2.40559">
        <ele>657.021247</ele>
        <time>2021-10-18T13:15:17.000Z</time>
      </trkpt>
      <trkpt lat="43.61498" lon="2.40558">
        <ele>656.962531</ele>
        <time>2021-10-18T13:15:18.000Z</time>
      </trkpt>
      <trkpt lat="43.61496" lon="2.40558">
        <ele>656.907598</ele>
        <time>2021-10-18T13:15:19.000Z</time>
      </trkpt>
      <trkpt lat="43.61493" lon="2.40557">
        <ele>656.855102</ele>
        <time>2021-10-18T13:15:20.000Z</time>
      </trkpt>
      <trkpt lat="43.6149" lon="2.40557">
        <ele>656.797362</ele>
        <time>2021-10-18T13:15:21.000Z</time>
      </trkpt>
      <trkpt lat="43.61488" lon="2.40559">
        <ele>656.734892</ele>
        <time>2021-10-18T13:15:22.000Z</time>
      </trkpt>
      <trkpt lat="43.61485" lon="2.40561">
        <ele>656.664541</ele>
        <time>2021-10-18T13:15:23.000Z</time>
      </trkpt>
      <trkpt lat="43.61482" lon="2.40563">
        <ele>656.585946</ele>
        <time>2021-10-18T13:15:24.000Z</time>
      </trkpt>
      <trkpt lat="43.61478" lon="2.40566">
        <ele>656.508831</ele>
        <time>2021-10-18T13:15:25.000Z</time>
      </trkpt>
      <trkpt lat="43.61475" lon="2.40568">
        <ele>656.424492</ele>
        <time>2021-10-18T13:15:26.000Z</time>
      </trkpt>
      <trkpt lat="43.61471" lon="2.40569">
        <ele>656.332429</ele>
        <time>2021-10-18T13:15:27.000Z</time>
      </trkpt>
      <trkpt lat="43.61466" lon="2.40568">
        <ele>656.234979</ele>
        <time>2021-10-18T13:15:28.000Z</time>
      </trkpt>
      <trkpt lat="43.61462" lon="2.40566">
        <ele>656.145992</ele>
        <time>2021-10-18T13:15:29.000Z</time>
      </trkpt>
      <trkpt lat="43.61459" lon="2.40565">
        <ele>656.072077</ele>
        <time>2021-10-18T13:15:30.000Z</time>
      </trkpt>
      <trkpt lat="43.61456" lon="2.40565">
        <ele>656.012224</ele>
        <time>2021-10-18T13:15:31.000Z</time>
      </trkpt>
      <trkpt lat="43.61454" lon="2.40564">
        <ele>655.968706</ele>
        <time>2021-10-18T13:15:32.000Z</time>
      </trkpt>
      <trkpt lat="43.61453" lon="2.40564">
        <ele>655.957115</ele>
        <time>2021-10-18T13:15:33.000Z</time>
      </trkpt>
      <trkpt lat="43.61453" lon="2.40563">
        <ele>655.952497</ele>
        <time>2021-10-18T13:15:34.000Z</time>
      </trkpt>
      <trkpt lat="43.61453" lon="2.40563">
        <ele>655.950957</ele>
        <time>2021-10-18T13:15:35.000Z</time>
      </trkpt>
      <trkpt lat="43.61453" lon="2.40563">
        <ele>655.946705</ele>
        <time>2021-10-18T13:15:36.000Z</time>
      </trkpt>
      <trkpt lat="43.61453" lon="2.40563">
        <ele>655.933854</ele>
        <time>2021-10-18T13:15:37.000Z</time>
      </trkpt>
      <trkpt lat="43.61455" lon="2.40563">
        <ele>655.884348</ele>
        <time>2021-10-18T13:18:22.000Z</time>
      </trkpt>
      <trkpt lat="43.61456" lon="2.40563">
        <ele>655.850292</ele>
        <time>2021-10-18T13:18:23.000Z</time>
      </trkpt>
      <trkpt lat="43.61458" lon="2.40563">
        <ele>655.811988</ele>
        <time>2021-10-18T13:18:24.000Z</time>
      </trkpt>
      <trkpt lat="43.6146" lon="2.40563">
        <ele>655.776736</ele>
        <time>2021-10-18T13:18:25.000Z</time>
      </trkpt>
      <trkpt lat="43.61462" lon="2.40564">
        <ele>655.733503</ele>
        <time>2021-10-18T13:18:26.000Z</time>
      </trkpt>
      <trkpt lat="43.61463" lon="2.40565">
        <ele>655.695315</ele>
        <time>2021-10-18T13:18:27.000Z</time>
      </trkpt>
      <trkpt lat="43.61465" lon="2.40566">
        <ele>655.664396</ele>
        <time>2021-10-18T13:18:28.000Z</time>
      </trkpt>
      <trkpt lat="43.61466" lon="2.40567">
        <ele>655.62898</ele>
        <time>2021-10-18T13:18:29.000Z</time>
      </trkpt>
      <trkpt lat="43.61468" lon="2.40568">
        <ele>655.592123</ele>
        <time>2021-10-18T13:18:30.000Z</time>
      </trkpt>
      <trkpt lat="43.61469" lon="2.40569">
        <ele>655.558918</ele>
        <time>2021-10-18T13:18:31.000Z</time>
      </trkpt>
      <trkpt lat="43.61471" lon="2.40569">
        <ele>655.527023</ele>
        <time>2021-10-18T13:18:32.000Z</time>
      </trkpt>
      <trkpt lat="43.61472" lon="2.40568">
        <ele>655.490842</ele>
        <time>2021-10-18T13:18:33.000Z</time>
      </trkpt>
      <trkpt lat="43.61474" lon="2.40567">
        <ele>655.454731</ele>
        <time>2021-10-18T13:18:34.000Z</time>
      </trkpt>
      <trkpt lat="43.61475" lon="2.40566">
        <ele>655.416019</ele>
        <time>2021-10-18T13:18:35.000Z</time>
      </trkpt>
      <trkpt lat="43.61477" lon="2.40565">
        <ele>655.38436</ele>
        <time>2021-10-18T13:18:36.000Z</time>
      </trkpt>
      <trkpt lat="43.61478" lon="2.40566">
        <ele>655.357709</ele>
        <time>2021-10-18T13:18:37.000Z</time>
      </trkpt>
      <trkpt lat="43.6148" lon="2.40567">
        <ele>655.320851</ele>
        <time>2021-10-18T13:18:38.000Z</time>
      </trkpt>
      <trkpt lat="43.61481" lon="2.40568">
        <ele>655.279734</ele>
        <time>2021-10-18T13:18:39.000Z</time>
      </trkpt>
      <trkpt lat="43.61483" lon="2.40569">
        <ele>655.244319</ele>
        <time>2021-10-18T13:18:40.000Z</time>
      </trkpt>
      <trkpt lat="43.61484" lon="2.4057">
        <ele>655.211114</ele>
        <time>2021-10-18T13:18:41.000Z</time>
      </trkpt>
      <trkpt lat="43.61486" lon="2.4057">
        <ele>655.178887</ele>
        <time>2021-10-18T13:18:42.000Z</time>
      </trkpt>
      <trkpt lat="43.61487" lon="2.4057">
        <ele>655.14896</ele>
        <time>2021-10-18T13:18:43.000Z</time>
      </trkpt>
      <trkpt lat="43.61488" lon="2.40571">
        <ele>655.121147</ele>
        <time>2021-10-18T13:18:44.000Z</time>
      </trkpt>
      <trkpt lat="43.6149" lon="2.40571">
        <ele>655.08892</ele>
        <time>2021-10-18T13:18:45.000Z</time>
      </trkpt>
      <trkpt lat="43.61491" lon="2.40572">
        <ele>655.055716</ele>
        <time>2021-10-18T13:18:46.000Z</time>
      </trkpt>
      <trkpt lat="43.61493" lon="2.40572">
        <ele>655.028018</ele>
        <time>2021-10-18T13:18:47.000Z</time>
      </trkpt>
      <trkpt lat="43.61494" lon="2.40573">
        <ele>654.996359</ele>
        <time>2021-10-18T13:18:48.000Z</time>
      </trkpt>
      <trkpt lat="43.61495" lon="2.40573">
        <ele>654.970659</ele>
        <time>2021-10-18T13:18:49.000Z</time>
      </trkpt>
      <trkpt lat="43.61496" lon="2.40574">
        <ele>654.946473</ele>
        <time>2021-10-18T13:18:50.000Z</time>
      </trkpt>
      <trkpt lat="43.61497" lon="2.40574">
        <ele>654.92185</ele>
        <time>2021-10-18T13:18:51.000Z</time>
      </trkpt>
      <trkpt lat="43.61498" lon="2.40575">
        <ele>654.899911</ele>
        <time>2021-10-18T13:18:52.000Z</time>
      </trkpt>
      <trkpt lat="43.61499" lon="2.40577">
        <ele>654.869405</ele>
        <time>2021-10-18T13:18:53.000Z</time>
      </trkpt>
      <trkpt lat="43.61499" lon="2.40579">
        <ele>654.831493</ele>
        <time>2021-10-18T13:18:54.000Z</time>
      </trkpt>
      <trkpt lat="43.615" lon="2.40582">
        <ele>654.783862</ele>
        <time>2021-10-18T13:18:55.000Z</time>
      </trkpt>
      <trkpt lat="43.615" lon="2.40585">
        <ele>654.739272</ele>
        <time>2021-10-18T13:18:56.000Z</time>
      </trkpt>
      <trkpt lat="43.615" lon="2.40588">
        <ele>654.691038</ele>
        <time>2021-10-18T13:18:57.000Z</time>
      </trkpt>
      <trkpt lat="43.61502" lon="2.40591">
        <ele>654.63273</ele>
        <time>2021-10-18T13:18:58.000Z</time>
      </trkpt>
      <trkpt lat="43.61503" lon="2.40594">
        <ele>654.576338</ele>
        <time>2021-10-18T13:18:59.000Z</time>
      </trkpt>
      <trkpt lat="43.61503" lon="2.40597">
        <ele>654.53063</ele>
        <time>2021-10-18T13:19:00.000Z</time>
      </trkpt>
      <trkpt lat="43.61504" lon="2.40598">
        <ele>654.501476</ele>
        <time>2021-10-18T13:19:01.000Z</time>
      </trkpt>
      <trkpt lat="43.61505" lon="2.406">
        <ele>654.465776</ele>
        <time>2021-10-18T13:19:02.000Z</time>
      </trkpt>
      <trkpt lat="43.61507" lon="2.40601">
        <ele>654.425168</ele>
        <time>2021-10-18T13:19:03.000Z</time>
      </trkpt>
      <trkpt lat="43.61508" lon="2.40603">
        <ele>654.384373</ele>
        <time>2021-10-18T13:19:04.000Z</time>
      </trkpt>
      <trkpt lat="43.61509" lon="2.40605">
        <ele>654.343578</ele>
        <time>2021-10-18T13:19:05.000Z</time>
      </trkpt>
      <trkpt lat="43.6151" lon="2.40607">
        <ele>654.296986</ele>
        <time>2021-10-18T13:19:06.000Z</time>
      </trkpt>
      <trkpt lat="43.61512" lon="2.40609">
        <ele>654.260817</ele>
        <time>2021-10-18T13:19:07.000Z</time>
      </trkpt>
      <trkpt lat="43.61513" lon="2.40609">
        <ele>654.22331</ele>
        <time>2021-10-18T13:19:08.000Z</time>
      </trkpt>
      <trkpt lat="43.61515" lon="2.4061">
        <ele>654.182954</ele>
        <time>2021-10-18T13:19:09.000Z</time>
      </trkpt>
      <trkpt lat="43.61517" lon="2.40609">
        <ele>654.149082</ele>
        <time>2021-10-18T13:19:10.000Z</time>
      </trkpt>
      <trkpt lat="43.61518" lon="2.40609">
        <ele>654.113289</ele>
        <time>2021-10-18T13:19:11.000Z</time>
      </trkpt>
      <trkpt lat="43.6152" lon="2.4061">
        <ele>654.077204</ele>
        <time>2021-10-18T13:19:12.000Z</time>
      </trkpt>
      <trkpt lat="43.61522" lon="2.40609">
        <ele>654.032246</ele>
        <time>2021-10-18T13:19:13.000Z</time>
      </trkpt>
      <trkpt lat="43.61524" lon="2.40608">
        <ele>653.976076</ele>
        <time>2021-10-18T13:19:14.000Z</time>
      </trkpt>
      <trkpt lat="43.61527" lon="2.40606">
        <ele>653.9145</ele>
        <time>2021-10-18T13:19:15.000Z</time>
      </trkpt>
      <trkpt lat="43.61529" lon="2.40604">
        <ele>653.857495</ele>
        <time>2021-10-18T13:19:16.000Z</time>
      </trkpt>
      <trkpt lat="43.61531" lon="2.40603">
        <ele>653.801931</ele>
        <time>2021-10-18T13:19:17.000Z</time>
      </trkpt>
      <trkpt lat="43.61533" lon="2.40601">
        <ele>653.753023</ele>
        <time>2021-10-18T13:19:18.000Z</time>
      </trkpt>
      <trkpt lat="43.61535" lon="2.406">
        <ele>653.704292</ele>
        <time>2021-10-18T13:19:19.000Z</time>
      </trkpt>
      <trkpt lat="43.61536" lon="2.40598">
        <ele>653.664285</ele>
        <time>2021-10-18T13:19:20.000Z</time>
      </trkpt>
      <trkpt lat="43.61537" lon="2.40596">
        <ele>653.631294</ele>
        <time>2021-10-18T13:19:21.000Z</time>
      </trkpt>
      <trkpt lat="43.61538" lon="2.40596">
        <ele>653.594746</ele>
        <time>2021-10-18T13:19:22.000Z</time>
      </trkpt>
      <trkpt lat="43.6154" lon="2.40595">
        <ele>653.558843</ele>
        <time>2021-10-18T13:19:23.000Z</time>
      </trkpt>
      <trkpt lat="43.61542" lon="2.40595">
        <ele>653.514118</ele>
        <time>2021-10-18T13:19:24.000Z</time>
      </trkpt>
      <trkpt lat="43.61544" lon="2.40595">
        <ele>653.458248</ele>
        <time>2021-10-18T13:19:25.000Z</time>
      </trkpt>
      <trkpt lat="43.61547" lon="2.40595">
        <ele>653.390506</ele>
        <time>2021-10-18T13:19:26.000Z</time>
      </trkpt>
      <trkpt lat="43.6155" lon="2.40594">
        <ele>653.320707</ele>
        <time>2021-10-18T13:19:27.000Z</time>
      </trkpt>
      <trkpt lat="43.61553" lon="2.40592">
        <ele>653.261009</ele>
        <time>2021-10-18T13:19:28.000Z</time>
      </trkpt>
      <trkpt lat="43.61555" lon="2.40592">
        <ele>653.217064</ele>
        <time>2021-10-18T13:19:29.000Z</time>
      </trkpt>
      <trkpt lat="43.61557" lon="2.40591">
        <ele>653.17632</ele>
        <time>2021-10-18T13:19:30.000Z</time>
      </trkpt>
      <trkpt lat="43.61558" lon="2.40592">
        <ele>653.13966</ele>
        <time>2021-10-18T13:19:31.000Z</time>
      </trkpt>
      <trkpt lat="43.6156" lon="2.40592">
        <ele>653.096103</ele>
        <time>2021-10-18T13:19:32.000Z</time>
      </trkpt>
      <trkpt lat="43.61562" lon="2.40593">
        <ele>653.053152</ele>
        <time>2021-10-18T13:19:33.000Z</time>
      </trkpt>
      <trkpt lat="43.61564" lon="2.40593">
        <ele>653.01066</ele>
        <time>2021-10-18T13:19:34.000Z</time>
      </trkpt>
      <trkpt lat="43.61566" lon="2.40592">
        <ele>652.964552</ele>
        <time>2021-10-18T13:19:35.000Z</time>
      </trkpt>
      <trkpt lat="43.61568" lon="2.4059">
        <ele>652.917572</ele>
        <time>2021-10-18T13:19:36.000Z</time>
      </trkpt>
      <trkpt lat="43.61569" lon="2.40589">
        <ele>652.877975</ele>
        <time>2021-10-18T13:19:37.000Z</time>
      </trkpt>
      <trkpt lat="43.6157" lon="2.40588">
        <ele>652.846655</ele>
        <time>2021-10-18T13:19:38.000Z</time>
      </trkpt>
      <trkpt lat="43.61572" lon="2.40588">
        <ele>652.810571</ele>
        <time>2021-10-18T13:19:39.000Z</time>
      </trkpt>
      <trkpt lat="43.61574" lon="2.40588">
        <ele>652.76339</ele>
        <time>2021-10-18T13:19:40.000Z</time>
      </trkpt>
      <trkpt lat="43.61576" lon="2.40589">
        <ele>652.713275</ele>
        <time>2021-10-18T13:19:41.000Z</time>
      </trkpt>
      <trkpt lat="43.61579" lon="2.40589">
        <ele>652.659852</ele>
        <time>2021-10-18T13:19:42.000Z</time>
      </trkpt>
      <trkpt lat="43.61581" lon="2.40591">
        <ele>652.606992</ele>
        <time>2021-10-18T13:19:43.000Z</time>
      </trkpt>
      <trkpt lat="43.61583" lon="2.40592">
        <ele>652.556132</ele>
        <time>2021-10-18T13:19:44.000Z</time>
      </trkpt>
      <trkpt lat="43.61585" lon="2.40593">
        <ele>652.504373</ele>
        <time>2021-10-18T13:19:45.000Z</time>
      </trkpt>
      <trkpt lat="43.61587" lon="2.40594">
        <ele>652.456839</ele>
        <time>2021-10-18T13:19:46.000Z</time>
      </trkpt>
      <trkpt lat="43.61589" lon="2.40595">
        <ele>652.403979</ele>
        <time>2021-10-18T13:19:47.000Z</time>
      </trkpt>
      <trkpt lat="43.61591" lon="2.40597">
        <ele>652.358586</ele>
        <time>2021-10-18T13:19:48.000Z</time>
      </trkpt>
      <trkpt lat="43.61593" lon="2.40598">
        <ele>652.314442</ele>
        <time>2021-10-18T13:19:49.000Z</time>
      </trkpt>
      <trkpt lat="43.61594" lon="2.406">
        <ele>652.266317</ele>
        <time>2021-10-18T13:19:50.000Z</time>
      </trkpt>
      <trkpt lat="43.61596" lon="2.406">
        <ele>652.229657</ele>
        <time>2021-10-18T13:19:51.000Z</time>
      </trkpt>
      <trkpt lat="43.61598" lon="2.40599">
        <ele>652.179465</ele>
        <time>2021-10-18T13:19:52.000Z</time>
      </trkpt>
      <trkpt lat="43.61601" lon="2.40597">
        <ele>652.106662</ele>
        <time>2021-10-18T13:19:53.000Z</time>
      </trkpt>
      <trkpt lat="43.61604" lon="2.40594">
        <ele>652.027469</ele>
        <time>2021-10-18T13:19:54.000Z</time>
      </trkpt>
      <trkpt lat="43.61606" lon="2.40591">
        <ele>651.958781</ele>
        <time>2021-10-18T13:19:55.000Z</time>
      </trkpt>
      <trkpt lat="43.61607" lon="2.40588">
        <ele>651.908696</ele>
        <time>2021-10-18T13:19:56.000Z</time>
      </trkpt>
      <trkpt lat="43.61609" lon="2.40587">
        <ele>651.871857</ele>
        <time>2021-10-18T13:19:57.000Z</time>
      </trkpt>
      <trkpt lat="43.61609" lon="2.40586">
        <ele>651.853372</ele>
        <time>2021-10-18T13:19:58.000Z</time>
      </trkpt>
      <trkpt lat="43.61609" lon="2.40585">
        <ele>651.834888</ele>
        <time>2021-10-18T13:19:59.000Z</time>
      </trkpt>
      <trkpt lat="43.6161" lon="2.40584">
        <ele>651.813385</ele>
        <time>2021-10-18T13:20:00.000Z</time>
      </trkpt>
      <trkpt lat="43.6161" lon="2.40582">
        <ele>651.79397</ele>
        <time>2021-10-18T13:20:01.000Z</time>
      </trkpt>
      <trkpt lat="43.6161" lon="2.40582">
        <ele>651.786104</ele>
        <time>2021-10-18T13:20:02.000Z</time>
      </trkpt>
      <trkpt lat="43.61611" lon="2.40582">
        <ele>651.767936</ele>
        <time>2021-10-18T13:20:03.000Z</time>
      </trkpt>
      <trkpt lat="43.61611" lon="2.40582">
        <ele>651.75443</ele>
        <time>2021-10-18T13:20:04.000Z</time>
      </trkpt>
      <trkpt lat="43.6161" lon="2.40578">
        <ele>651.679071</ele>
        <time>2021-10-18T13:20:20.000Z</time>
      </trkpt>
      <trkpt lat="43.6161" lon="2.40578">
        <ele>651.670981</ele>
        <time>2021-10-18T13:20:21.000Z</time>
      </trkpt>
      <trkpt lat="43.61609" lon="2.40577">
        <ele>651.658925</ele>
        <time>2021-10-18T13:20:22.000Z</time>
      </trkpt>
      <trkpt lat="43.61609" lon="2.40577">
        <ele>651.645764</ele>
        <time>2021-10-18T13:20:23.000Z</time>
      </trkpt>
      <trkpt lat="43.61609" lon="2.40576">
        <ele>651.631032</ele>
        <time>2021-10-18T13:20:24.000Z</time>
      </trkpt>
      <trkpt lat="43.61609" lon="2.40575">
        <ele>651.617871</ele>
        <time>2021-10-18T13:20:25.000Z</time>
      </trkpt>
      <trkpt lat="43.61608" lon="2.40571">
        <ele>651.546367</ele>
        <time>2021-10-18T13:20:37.000Z</time>
      </trkpt>
      <trkpt lat="43.61607" lon="2.40569">
        <ele>651.509093</ele>
        <time>2021-10-18T13:20:38.000Z</time>
      </trkpt>
      <trkpt lat="43.61606" lon="2.40568">
        <ele>651.476335</ele>
        <time>2021-10-18T13:20:39.000Z</time>
      </trkpt>
      <trkpt lat="43.61604" lon="2.40568">
        <ele>651.444529</ele>
        <time>2021-10-18T13:20:40.000Z</time>
      </trkpt>
      <trkpt lat="43.61603" lon="2.40566">
        <ele>651.404955</ele>
        <time>2021-10-18T13:20:41.000Z</time>
      </trkpt>
      <trkpt lat="43.61601" lon="2.40565">
        <ele>651.368134</ele>
        <time>2021-10-18T13:20:42.000Z</time>
      </trkpt>
      <trkpt lat="43.616" lon="2.40564">
        <ele>651.335026</ele>
        <time>2021-10-18T13:20:43.000Z</time>
      </trkpt>
      <trkpt lat="43.61599" lon="2.40562">
        <ele>651.298857</ele>
        <time>2021-10-18T13:20:44.000Z</time>
      </trkpt>
      <trkpt lat="43.61598" lon="2.4056">
        <ele>651.253846</ele>
        <time>2021-10-18T13:20:45.000Z</time>
      </trkpt>
      <trkpt lat="43.61597" lon="2.40559">
        <ele>651.218147</ele>
        <time>2021-10-18T13:20:46.000Z</time>
      </trkpt>
      <trkpt lat="43.61596" lon="2.40557">
        <ele>651.1879</ele>
        <time>2021-10-18T13:20:47.000Z</time>
      </trkpt>
      <trkpt lat="43.61596" lon="2.40555">
        <ele>651.160035</ele>
        <time>2021-10-18T13:20:48.000Z</time>
      </trkpt>
      <trkpt lat="43.61596" lon="2.40554">
        <ele>651.12802</ele>
        <time>2021-10-18T13:20:49.000Z</time>
      </trkpt>
      <trkpt lat="43.61596" lon="2.40552">
        <ele>651.097556</ele>
        <time>2021-10-18T13:20:50.000Z</time>
      </trkpt>
      <trkpt lat="43.61597" lon="2.4055">
        <ele>651.073205</ele>
        <time>2021-10-18T13:20:51.000Z</time>
      </trkpt>
      <trkpt lat="43.61597" lon="2.40549">
        <ele>651.042741</ele>
        <time>2021-10-18T13:20:52.000Z</time>
      </trkpt>
      <trkpt lat="43.61598" lon="2.40546">
        <ele>651.00447</ele>
        <time>2021-10-18T13:20:53.000Z</time>
      </trkpt>
      <trkpt lat="43.61599" lon="2.40544">
        <ele>650.96217</ele>
        <time>2021-10-18T13:20:54.000Z</time>
      </trkpt>
      <trkpt lat="43.616" lon="2.40542">
        <ele>650.923257</ele>
        <time>2021-10-18T13:20:55.000Z</time>
      </trkpt>
      <trkpt lat="43.61602" lon="2.40541">
        <ele>650.873616</ele>
        <time>2021-10-18T13:20:56.000Z</time>
      </trkpt>
      <trkpt lat="43.61604" lon="2.4054">
        <ele>650.815451</ele>
        <time>2021-10-18T13:20:57.000Z</time>
      </trkpt>
      <trkpt lat="43.61607" lon="2.40538">
        <ele>650.837689</ele>
        <time>2021-10-18T13:20:58.000Z</time>
      </trkpt>
      <trkpt lat="43.61609" lon="2.40536">
        <ele>650.874794</ele>
        <time>2021-10-18T13:20:59.000Z</time>
      </trkpt>
      <trkpt lat="43.61612" lon="2.40533">
        <ele>650.91063</ele>
        <time>2021-10-18T13:21:00.000Z</time>
      </trkpt>
      <trkpt lat="43.61615" lon="2.4053">
        <ele>650.951931</ele>
        <time>2021-10-18T13:21:01.000Z</time>
      </trkpt>
      <trkpt lat="43.61618" lon="2.40528">
        <ele>650.99428</ele>
        <time>2021-10-18T13:21:02.000Z</time>
      </trkpt>
      <trkpt lat="43.61621" lon="2.40526">
        <ele>651.030401</ele>
        <time>2021-10-18T13:21:03.000Z</time>
      </trkpt>
      <trkpt lat="43.61624" lon="2.40525">
        <ele>651.06845</ele>
        <time>2021-10-18T13:21:04.000Z</time>
      </trkpt>
      <trkpt lat="43.61628" lon="2.40524">
        <ele>651.10992</ele>
        <time>2021-10-18T13:21:05.000Z</time>
      </trkpt>
      <trkpt lat="43.61632" lon="2.40524">
        <ele>651.155615</ele>
        <time>2021-10-18T13:21:06.000Z</time>
      </trkpt>
      <trkpt lat="43.61635" lon="2.40524">
        <ele>651.193258</ele>
        <time>2021-10-18T13:21:07.000Z</time>
      </trkpt>
      <trkpt lat="43.61638" lon="2.40524">
        <ele>651.225197</ele>
        <time>2021-10-18T13:21:08.000Z</time>
      </trkpt>
      <trkpt lat="43.61641" lon="2.40524">
        <ele>651.256007</ele>
        <time>2021-10-18T13:21:09.000Z</time>
      </trkpt>
      <trkpt lat="43.61643" lon="2.40524">
        <ele>651.280315</ele>
        <time>2021-10-18T13:21:10.000Z</time>
      </trkpt>
      <trkpt lat="43.61645" lon="2.40525">
        <ele>651.310532</ele>
        <time>2021-10-18T13:21:11.000Z</time>
      </trkpt>
      <trkpt lat="43.61648" lon="2.40526">
        <ele>651.338694</ele>
        <time>2021-10-18T13:21:12.000Z</time>
      </trkpt>
      <trkpt lat="43.61651" lon="2.40526">
        <ele>651.375531</ele>
        <time>2021-10-18T13:21:13.000Z</time>
      </trkpt>
      <trkpt lat="43.61654" lon="2.40526">
        <ele>651.413319</ele>
        <time>2021-10-18T13:21:14.000Z</time>
      </trkpt>
      <trkpt lat="43.61657" lon="2.40525">
        <ele>651.443791</ele>
        <time>2021-10-18T13:21:15.000Z</time>
      </trkpt>
      <trkpt lat="43.61659" lon="2.40523">
        <ele>651.474361</ele>
        <time>2021-10-18T13:21:16.000Z</time>
      </trkpt>
      <trkpt lat="43.61661" lon="2.40521">
        <ele>651.503018</ele>
        <time>2021-10-18T13:21:17.000Z</time>
      </trkpt>
      <trkpt lat="43.61662" lon="2.40519">
        <ele>651.52288</ele>
        <time>2021-10-18T13:21:18.000Z</time>
      </trkpt>
      <trkpt lat="43.61664" lon="2.40518">
        <ele>651.545011</ele>
        <time>2021-10-18T13:21:19.000Z</time>
      </trkpt>
      <trkpt lat="43.61667" lon="2.40517">
        <ele>651.574109</ele>
        <time>2021-10-18T13:21:20.000Z</time>
      </trkpt>
      <trkpt lat="43.61669" lon="2.40517">
        <ele>651.599541</ele>
        <time>2021-10-18T13:21:21.000Z</time>
      </trkpt>
      <trkpt lat="43.61671" lon="2.40516">
        <ele>651.620309</ele>
        <time>2021-10-18T13:21:22.000Z</time>
      </trkpt>
      <trkpt lat="43.61672" lon="2.40514">
        <ele>651.641572</ele>
        <time>2021-10-18T13:21:23.000Z</time>
      </trkpt>
      <trkpt lat="43.61674" lon="2.40512">
        <ele>651.667923</ele>
        <time>2021-10-18T13:21:24.000Z</time>
      </trkpt>
      <trkpt lat="43.61675" lon="2.4051">
        <ele>651.692868</ele>
        <time>2021-10-18T13:21:25.000Z</time>
      </trkpt>
      <trkpt lat="43.61678" lon="2.40509">
        <ele>651.719467</ele>
        <time>2021-10-18T13:21:26.000Z</time>
      </trkpt>
      <trkpt lat="43.61679" lon="2.40508">
        <ele>651.740881</ele>
        <time>2021-10-18T13:21:27.000Z</time>
      </trkpt>
      <trkpt lat="43.61681" lon="2.40507">
        <ele>651.765524</ele>
        <time>2021-10-18T13:21:28.000Z</time>
      </trkpt>
      <trkpt lat="43.61683" lon="2.40507">
        <ele>651.785073</ele>
        <time>2021-10-18T13:21:29.000Z</time>
      </trkpt>
      <trkpt lat="43.61685" lon="2.40507">
        <ele>651.805755</ele>
        <time>2021-10-18T13:21:30.000Z</time>
      </trkpt>
      <trkpt lat="43.61686" lon="2.40508">
        <ele>651.825528</ele>
        <time>2021-10-18T13:21:31.000Z</time>
      </trkpt>
      <trkpt lat="43.61688" lon="2.4051">
        <ele>651.849309</ele>
        <time>2021-10-18T13:21:32.000Z</time>
      </trkpt>
      <trkpt lat="43.61689" lon="2.40513">
        <ele>651.875493</ele>
        <time>2021-10-18T13:21:33.000Z</time>
      </trkpt>
      <trkpt lat="43.61691" lon="2.40515">
        <ele>651.898709</ele>
        <time>2021-10-18T13:21:34.000Z</time>
      </trkpt>
      <trkpt lat="43.61692" lon="2.40516">
        <ele>651.916341</ele>
        <time>2021-10-18T13:21:35.000Z</time>
      </trkpt>
      <trkpt lat="43.61693" lon="2.40518">
        <ele>651.938474</ele>
        <time>2021-10-18T13:21:36.000Z</time>
      </trkpt>
      <trkpt lat="43.61696" lon="2.4052">
        <ele>651.967229</ele>
        <time>2021-10-18T13:21:37.000Z</time>
      </trkpt>
      <trkpt lat="43.61698" lon="2.40521">
        <ele>651.996243</ele>
        <time>2021-10-18T13:21:38.000Z</time>
      </trkpt>
      <trkpt lat="43.617" lon="2.40523">
        <ele>652.022607</ele>
        <time>2021-10-18T13:21:39.000Z</time>
      </trkpt>
      <trkpt lat="43.61701" lon="2.40524">
        <ele>652.044424</ele>
        <time>2021-10-18T13:21:40.000Z</time>
      </trkpt>
      <trkpt lat="43.61703" lon="2.40527">
        <ele>652.075193</ele>
        <time>2021-10-18T13:21:41.000Z</time>
      </trkpt>
      <trkpt lat="43.61706" lon="2.40529">
        <ele>652.108074</ele>
        <time>2021-10-18T13:21:42.000Z</time>
      </trkpt>
      <trkpt lat="43.61708" lon="2.40531">
        <ele>652.142021</ele>
        <time>2021-10-18T13:21:43.000Z</time>
      </trkpt>
      <trkpt lat="43.6171" lon="2.40533">
        <ele>652.170007</ele>
        <time>2021-10-18T13:21:44.000Z</time>
      </trkpt>
      <trkpt lat="43.61712" lon="2.40534">
        <ele>652.195968</ele>
        <time>2021-10-18T13:21:45.000Z</time>
      </trkpt>
      <trkpt lat="43.61715" lon="2.40535">
        <ele>652.223473</ele>
        <time>2021-10-18T13:21:46.000Z</time>
      </trkpt>
      <trkpt lat="43.61717" lon="2.40536">
        <ele>652.250173</ele>
        <time>2021-10-18T13:21:47.000Z</time>
      </trkpt>
      <trkpt lat="43.61719" lon="2.40536">
        <ele>652.276616</ele>
        <time>2021-10-18T13:21:48.000Z</time>
      </trkpt>
      <trkpt lat="43.61722" lon="2.40537">
        <ele>652.303316</ele>
        <time>2021-10-18T13:21:49.000Z</time>
      </trkpt>
      <trkpt lat="43.61724" lon="2.40537">
        <ele>652.328465</ele>
        <time>2021-10-18T13:21:50.000Z</time>
      </trkpt>
      <trkpt lat="43.61726" lon="2.40537">
        <ele>652.351339</ele>
        <time>2021-10-18T13:21:51.000Z</time>
      </trkpt>
      <trkpt lat="43.61728" lon="2.40537">
        <ele>652.377627</ele>
        <time>2021-10-18T13:21:52.000Z</time>
      </trkpt>
      <trkpt lat="43.6173" lon="2.40537">
        <ele>652.401808</ele>
        <time>2021-10-18T13:21:53.000Z</time>
      </trkpt>
      <trkpt lat="43.61732" lon="2.40538">
        <ele>652.420521</ele>
        <time>2021-10-18T13:21:54.000Z</time>
      </trkpt>
      <trkpt lat="43.61734" lon="2.40538">
        <ele>652.444829</ele>
        <time>2021-10-18T13:21:55.000Z</time>
      </trkpt>
      <trkpt lat="43.61736" lon="2.40539">
        <ele>652.472515</ele>
        <time>2021-10-18T13:21:56.000Z</time>
      </trkpt>
      <trkpt lat="43.61738" lon="2.40539">
        <ele>652.493197</ele>
        <time>2021-10-18T13:21:57.000Z</time>
      </trkpt>
      <trkpt lat="43.61741" lon="2.40539">
        <ele>652.521726</ele>
        <time>2021-10-18T13:21:58.000Z</time>
      </trkpt>
      <trkpt lat="43.61743" lon="2.40539">
        <ele>652.545738</ele>
        <time>2021-10-18T13:21:59.000Z</time>
      </trkpt>
      <trkpt lat="43.61745" lon="2.40539">
        <ele>652.573127</ele>
        <time>2021-10-18T13:22:00.000Z</time>
      </trkpt>
      <trkpt lat="43.61747" lon="2.40539">
        <ele>652.595941</ele>
        <time>2021-10-18T13:22:01.000Z</time>
      </trkpt>
      <trkpt lat="43.6175" lon="2.4054">
        <ele>652.623516</ele>
        <time>2021-10-18T13:22:02.000Z</time>
      </trkpt>
      <trkpt lat="43.61753" lon="2.40541">
        <ele>652.659829</ele>
        <time>2021-10-18T13:22:03.000Z</time>
      </trkpt>
      <trkpt lat="43.61755" lon="2.40541">
        <ele>652.690214</ele>
        <time>2021-10-18T13:22:04.000Z</time>
      </trkpt>
      <trkpt lat="43.61757" lon="2.40542">
        <ele>652.715967</ele>
        <time>2021-10-18T13:22:05.000Z</time>
      </trkpt>
      <trkpt lat="43.61759" lon="2.40543">
        <ele>652.738398</ele>
        <time>2021-10-18T13:22:06.000Z</time>
      </trkpt>
      <trkpt lat="43.61761" lon="2.40543">
        <ele>652.760829</ele>
        <time>2021-10-18T13:22:07.000Z</time>
      </trkpt>
      <trkpt lat="43.61763" lon="2.40544">
        <ele>652.785471</ele>
        <time>2021-10-18T13:22:08.000Z</time>
      </trkpt>
      <trkpt lat="43.61765" lon="2.40545">
        <ele>652.805486</ele>
        <time>2021-10-18T13:22:09.000Z</time>
      </trkpt>
      <trkpt lat="43.61768" lon="2.40545">
        <ele>652.834584</ele>
        <time>2021-10-18T13:22:10.000Z</time>
      </trkpt>
      <trkpt lat="43.6177" lon="2.40547">
        <ele>652.859141</ele>
        <time>2021-10-18T13:22:11.000Z</time>
      </trkpt>
      <trkpt lat="43.61773" lon="2.40547">
        <ele>652.851411</ele>
        <time>2021-10-18T13:22:12.000Z</time>
      </trkpt>
      <trkpt lat="43.61775" lon="2.40548">
        <ele>652.84434</ele>
        <time>2021-10-18T13:22:13.000Z</time>
      </trkpt>
      <trkpt lat="43.61777" lon="2.40549">
        <ele>652.838228</ele>
        <time>2021-10-18T13:22:14.000Z</time>
      </trkpt>
      <trkpt lat="43.61779" lon="2.40549">
        <ele>652.832521</ele>
        <time>2021-10-18T13:22:15.000Z</time>
      </trkpt>
      <trkpt lat="43.6178" lon="2.40551">
        <ele>652.827243</ele>
        <time>2021-10-18T13:22:16.000Z</time>
      </trkpt>
      <trkpt lat="43.61781" lon="2.40552">
        <ele>652.822817</ele>
        <time>2021-10-18T13:22:17.000Z</time>
      </trkpt>
      <trkpt lat="43.61782" lon="2.40553">
        <ele>652.81961</ele>
        <time>2021-10-18T13:22:18.000Z</time>
      </trkpt>
      <trkpt lat="43.61783" lon="2.40554">
        <ele>652.815747</ele>
        <time>2021-10-18T13:22:19.000Z</time>
      </trkpt>
      <trkpt lat="43.61784" lon="2.40555">
        <ele>652.811909</ele>
        <time>2021-10-18T13:22:20.000Z</time>
      </trkpt>
      <trkpt lat="43.61785" lon="2.40555">
        <ele>652.807282</ele>
        <time>2021-10-18T13:22:21.000Z</time>
      </trkpt>
      <trkpt lat="43.61787" lon="2.40557">
        <ele>652.802399</ele>
        <time>2021-10-18T13:22:22.000Z</time>
      </trkpt>
      <trkpt lat="43.61788" lon="2.40558">
        <ele>652.796644</ele>
        <time>2021-10-18T13:22:23.000Z</time>
      </trkpt>
      <trkpt lat="43.61789" lon="2.40559">
        <ele>652.791905</ele>
        <time>2021-10-18T13:22:24.000Z</time>
      </trkpt>
      <trkpt lat="43.61792" lon="2.40561">
        <ele>652.782487</ele>
        <time>2021-10-18T13:22:25.000Z</time>
      </trkpt>
      <trkpt lat="43.61795" lon="2.40562">
        <ele>652.773738</ele>
        <time>2021-10-18T13:22:26.000Z</time>
      </trkpt>
      <trkpt lat="43.61798" lon="2.40563">
        <ele>652.76485</ele>
        <time>2021-10-18T13:22:27.000Z</time>
      </trkpt>
      <trkpt lat="43.618" lon="2.40564">
        <ele>652.756399</ele>
        <time>2021-10-18T13:22:28.000Z</time>
      </trkpt>
      <trkpt lat="43.61803" lon="2.40566">
        <ele>652.748386</ele>
        <time>2021-10-18T13:22:29.000Z</time>
      </trkpt>
      <trkpt lat="43.61805" lon="2.40567">
        <ele>652.739914</ele>
        <time>2021-10-18T13:22:30.000Z</time>
      </trkpt>
      <trkpt lat="43.61808" lon="2.40569">
        <ele>652.731726</ele>
        <time>2021-10-18T13:22:31.000Z</time>
      </trkpt>
      <trkpt lat="43.6181" lon="2.4057">
        <ele>652.723143</ele>
        <time>2021-10-18T13:22:32.000Z</time>
      </trkpt>
      <trkpt lat="43.61813" lon="2.4057">
        <ele>652.715344</ele>
        <time>2021-10-18T13:22:33.000Z</time>
      </trkpt>
      <trkpt lat="43.61815" lon="2.40571">
        <ele>652.707972</ele>
        <time>2021-10-18T13:22:34.000Z</time>
      </trkpt>
      <trkpt lat="43.61817" lon="2.40572">
        <ele>652.701281</ele>
        <time>2021-10-18T13:22:35.000Z</time>
      </trkpt>
      <trkpt lat="43.61819" lon="2.40573">
        <ele>652.693716</ele>
        <time>2021-10-18T13:22:36.000Z</time>
      </trkpt>
      <trkpt lat="43.61822" lon="2.40574">
        <ele>652.685331</ele>
        <time>2021-10-18T13:22:37.000Z</time>
      </trkpt>
      <trkpt lat="43.61825" lon="2.40576">
        <ele>652.674964</ele>
        <time>2021-10-18T13:22:38.000Z</time>
      </trkpt>
      <trkpt lat="43.61828" lon="2.40577">
        <ele>652.666148</ele>
        <time>2021-10-18T13:22:39.000Z</time>
      </trkpt>
      <trkpt lat="43.6183" lon="2.40578">
        <ele>652.658172</ele>
        <time>2021-10-18T13:22:40.000Z</time>
      </trkpt>
      <trkpt lat="43.61832" lon="2.40578">
        <ele>652.65181</ele>
        <time>2021-10-18T13:22:41.000Z</time>
      </trkpt>
      <trkpt lat="43.61834" lon="2.40579">
        <ele>652.644538</ele>
        <time>2021-10-18T13:22:42.000Z</time>
      </trkpt>
      <trkpt lat="43.61837" lon="2.4058">
        <ele>652.637634</ele>
        <time>2021-10-18T13:22:43.000Z</time>
      </trkpt>
      <trkpt lat="43.61839" lon="2.40581">
        <ele>652.629355</ele>
        <time>2021-10-18T13:22:44.000Z</time>
      </trkpt>
      <trkpt lat="43.61841" lon="2.40582">
        <ele>652.62269</ele>
        <time>2021-10-18T13:22:45.000Z</time>
      </trkpt>
      <trkpt lat="43.61843" lon="2.40582">
        <ele>652.617692</ele>
        <time>2021-10-18T13:22:46.000Z</time>
      </trkpt>
      <trkpt lat="43.61844" lon="2.40583">
        <ele>652.611949</ele>
        <time>2021-10-18T13:22:47.000Z</time>
      </trkpt>
      <trkpt lat="43.61847" lon="2.40585">
        <ele>652.604384</ele>
        <time>2021-10-18T13:22:48.000Z</time>
      </trkpt>
      <trkpt lat="43.61849" lon="2.40586">
        <ele>652.597231</ele>
        <time>2021-10-18T13:22:49.000Z</time>
      </trkpt>
      <trkpt lat="43.6185" lon="2.40587">
        <ele>652.591843</ele>
        <time>2021-10-18T13:22:50.000Z</time>
      </trkpt>
      <trkpt lat="43.61852" lon="2.40589">
        <ele>652.585573</ele>
        <time>2021-10-18T13:22:51.000Z</time>
      </trkpt>
      <trkpt lat="43.61854" lon="2.4059">
        <ele>652.578771</ele>
        <time>2021-10-18T13:22:52.000Z</time>
      </trkpt>
      <trkpt lat="43.61856" lon="2.40591">
        <ele>652.572078</ele>
        <time>2021-10-18T13:22:53.000Z</time>
      </trkpt>
      <trkpt lat="43.61858" lon="2.40593">
        <ele>652.564453</ele>
        <time>2021-10-18T13:22:54.000Z</time>
      </trkpt>
      <trkpt lat="43.6186" lon="2.40594">
        <ele>652.557675</ele>
        <time>2021-10-18T13:22:55.000Z</time>
      </trkpt>
      <trkpt lat="43.61862" lon="2.40595">
        <ele>652.550476</ele>
        <time>2021-10-18T13:22:56.000Z</time>
      </trkpt>
      <trkpt lat="43.61864" lon="2.40597">
        <ele>652.54459</ele>
        <time>2021-10-18T13:22:57.000Z</time>
      </trkpt>
      <trkpt lat="43.61866" lon="2.40598">
        <ele>652.538056</ele>
        <time>2021-10-18T13:22:58.000Z</time>
      </trkpt>
      <trkpt lat="43.61867" lon="2.406">
        <ele>652.532165</ele>
        <time>2021-10-18T13:22:59.000Z</time>
      </trkpt>
      <trkpt lat="43.61869" lon="2.40602">
        <ele>652.525905</ele>
        <time>2021-10-18T13:23:00.000Z</time>
      </trkpt>
      <trkpt lat="43.61869" lon="2.40603">
        <ele>652.521152</ele>
        <time>2021-10-18T13:23:01.000Z</time>
      </trkpt>
      <trkpt lat="43.61871" lon="2.40606">
        <ele>652.514352</ele>
        <time>2021-10-18T13:23:02.000Z</time>
      </trkpt>
      <trkpt lat="43.61872" lon="2.40607">
        <ele>652.508462</ele>
        <time>2021-10-18T13:23:03.000Z</time>
      </trkpt>
      <trkpt lat="43.61875" lon="2.40609">
        <ele>652.500245</ele>
        <time>2021-10-18T13:23:04.000Z</time>
      </trkpt>
      <trkpt lat="43.61877" lon="2.4061">
        <ele>652.493411</ele>
        <time>2021-10-18T13:23:05.000Z</time>
      </trkpt>
      <trkpt lat="43.61878" lon="2.40611">
        <ele>652.488024</ele>
        <time>2021-10-18T13:23:06.000Z</time>
      </trkpt>
      <trkpt lat="43.6188" lon="2.40613">
        <ele>652.481007</ele>
        <time>2021-10-18T13:23:07.000Z</time>
      </trkpt>
      <trkpt lat="43.61882" lon="2.40616">
        <ele>652.472912</ele>
        <time>2021-10-18T13:23:08.000Z</time>
      </trkpt>
      <trkpt lat="43.61883" lon="2.40619">
        <ele>652.464885</ele>
        <time>2021-10-18T13:23:09.000Z</time>
      </trkpt>
      <trkpt lat="43.61885" lon="2.40622">
        <ele>652.455542</ele>
        <time>2021-10-18T13:23:10.000Z</time>
      </trkpt>
      <trkpt lat="43.61887" lon="2.40625">
        <ele>652.44609</ele>
        <time>2021-10-18T13:23:11.000Z</time>
      </trkpt>
      <trkpt lat="43.61889" lon="2.40628">
        <ele>652.437454</ele>
        <time>2021-10-18T13:23:12.000Z</time>
      </trkpt>
      <trkpt lat="43.61891" lon="2.40629">
        <ele>652.430293</ele>
        <time>2021-10-18T13:23:13.000Z</time>
      </trkpt>
      <trkpt lat="43.61893" lon="2.40631">
        <ele>652.423324</ele>
        <time>2021-10-18T13:23:14.000Z</time>
      </trkpt>
      <trkpt lat="43.61895" lon="2.40632">
        <ele>652.415796</ele>
        <time>2021-10-18T13:23:15.000Z</time>
      </trkpt>
      <trkpt lat="43.61897" lon="2.40634">
        <ele>652.408121</ele>
        <time>2021-10-18T13:23:16.000Z</time>
      </trkpt>
      <trkpt lat="43.619" lon="2.40636">
        <ele>652.400286</ele>
        <time>2021-10-18T13:23:17.000Z</time>
      </trkpt>
      <trkpt lat="43.61902" lon="2.40637">
        <ele>652.393484</ele>
        <time>2021-10-18T13:23:18.000Z</time>
      </trkpt>
      <trkpt lat="43.61904" lon="2.40639">
        <ele>652.386515</ele>
        <time>2021-10-18T13:23:19.000Z</time>
      </trkpt>
      <trkpt lat="43.61906" lon="2.4064">
        <ele>652.378511</ele>
        <time>2021-10-18T13:23:20.000Z</time>
      </trkpt>
      <trkpt lat="43.61908" lon="2.40641">
        <ele>652.372108</ele>
        <time>2021-10-18T13:23:21.000Z</time>
      </trkpt>
      <trkpt lat="43.6191" lon="2.40643">
        <ele>652.364756</ele>
        <time>2021-10-18T13:23:22.000Z</time>
      </trkpt>
      <trkpt lat="43.61912" lon="2.40644">
        <ele>652.357886</ele>
        <time>2021-10-18T13:23:23.000Z</time>
      </trkpt>
      <trkpt lat="43.61914" lon="2.40645">
        <ele>652.351483</ele>
        <time>2021-10-18T13:23:24.000Z</time>
      </trkpt>
      <trkpt lat="43.61916" lon="2.40646">
        <ele>652.34527</ele>
        <time>2021-10-18T13:23:25.000Z</time>
      </trkpt>
      <trkpt lat="43.61918" lon="2.40647">
        <ele>652.338659</ele>
        <time>2021-10-18T13:23:26.000Z</time>
      </trkpt>
      <trkpt lat="43.6192" lon="2.40648">
        <ele>652.33234</ele>
        <time>2021-10-18T13:23:27.000Z</time>
      </trkpt>
      <trkpt lat="43.61921" lon="2.40649">
        <ele>652.326166</ele>
        <time>2021-10-18T13:23:28.000Z</time>
      </trkpt>
      <trkpt lat="43.61923" lon="2.4065">
        <ele>652.320216</ele>
        <time>2021-10-18T13:23:29.000Z</time>
      </trkpt>
      <trkpt lat="43.61925" lon="2.40651">
        <ele>652.314927</ele>
        <time>2021-10-18T13:23:30.000Z</time>
      </trkpt>
      <trkpt lat="43.61927" lon="2.40652">
        <ele>652.308684</ele>
        <time>2021-10-18T13:23:31.000Z</time>
      </trkpt>
      <trkpt lat="43.61929" lon="2.40653">
        <ele>652.303722</ele>
        <time>2021-10-18T13:23:32.000Z</time>
      </trkpt>
      <trkpt lat="43.61931" lon="2.40654">
        <ele>652.394299</ele>
        <time>2021-10-18T13:23:33.000Z</time>
      </trkpt>
      <trkpt lat="43.61934" lon="2.40655">
        <ele>652.471303</ele>
        <time>2021-10-18T13:23:34.000Z</time>
      </trkpt>
      <trkpt lat="43.61936" lon="2.40655">
        <ele>652.545095</ele>
        <time>2021-10-18T13:23:35.000Z</time>
      </trkpt>
      <trkpt lat="43.61938" lon="2.40656">
        <ele>652.637291</ele>
        <time>2021-10-18T13:23:36.000Z</time>
      </trkpt>
      <trkpt lat="43.61941" lon="2.40657">
        <ele>652.728716</ele>
        <time>2021-10-18T13:23:37.000Z</time>
      </trkpt>
      <trkpt lat="43.61943" lon="2.40657">
        <ele>652.779291</ele>
        <time>2021-10-18T13:23:38.000Z</time>
      </trkpt>
      <trkpt lat="43.61944" lon="2.40657">
        <ele>652.833043</ele>
        <time>2021-10-18T13:23:39.000Z</time>
      </trkpt>
      <trkpt lat="43.61946" lon="2.40657">
        <ele>652.887613</ele>
        <time>2021-10-18T13:23:40.000Z</time>
      </trkpt>
      <trkpt lat="43.61948" lon="2.40658">
        <ele>652.953024</ele>
        <time>2021-10-18T13:23:41.000Z</time>
      </trkpt>
      <trkpt lat="43.6195" lon="2.40659">
        <ele>653.023617</ele>
        <time>2021-10-18T13:23:42.000Z</time>
      </trkpt>
      <trkpt lat="43.61952" lon="2.4066">
        <ele>653.107019</ele>
        <time>2021-10-18T13:23:43.000Z</time>
      </trkpt>
      <trkpt lat="43.61954" lon="2.40661">
        <ele>653.187325</ele>
        <time>2021-10-18T13:23:44.000Z</time>
      </trkpt>
      <trkpt lat="43.61956" lon="2.40663">
        <ele>653.263595</ele>
        <time>2021-10-18T13:23:45.000Z</time>
      </trkpt>
      <trkpt lat="43.61959" lon="2.40664">
        <ele>653.35165</ele>
        <time>2021-10-18T13:23:46.000Z</time>
      </trkpt>
      <trkpt lat="43.61961" lon="2.40665">
        <ele>653.424759</ele>
        <time>2021-10-18T13:23:47.000Z</time>
      </trkpt>
      <trkpt lat="43.61963" lon="2.40665">
        <ele>653.510883</ele>
        <time>2021-10-18T13:23:48.000Z</time>
      </trkpt>
      <trkpt lat="43.61966" lon="2.40666">
        <ele>653.589924</ele>
        <time>2021-10-18T13:23:49.000Z</time>
      </trkpt>
      <trkpt lat="43.61968" lon="2.40667">
        <ele>653.665691</ele>
        <time>2021-10-18T13:23:50.000Z</time>
      </trkpt>
      <trkpt lat="43.6197" lon="2.40668">
        <ele>653.737938</ele>
        <time>2021-10-18T13:23:51.000Z</time>
      </trkpt>
      <trkpt lat="43.61972" lon="2.40669">
        <ele>653.819623</ele>
        <time>2021-10-18T13:23:52.000Z</time>
      </trkpt>
      <trkpt lat="43.61975" lon="2.4067">
        <ele>653.912838</ele>
        <time>2021-10-18T13:23:53.000Z</time>
      </trkpt>
      <trkpt lat="43.61978" lon="2.40671">
        <ele>654.005034</ele>
        <time>2021-10-18T13:23:54.000Z</time>
      </trkpt>
      <trkpt lat="43.6198" lon="2.40671">
        <ele>654.100129</ele>
        <time>2021-10-18T13:23:55.000Z</time>
      </trkpt>
      <trkpt lat="43.61983" lon="2.40672">
        <ele>654.199377</ele>
        <time>2021-10-18T13:23:56.000Z</time>
      </trkpt>
      <trkpt lat="43.61986" lon="2.40673">
        <ele>654.275726</ele>
        <time>2021-10-18T13:23:57.000Z</time>
      </trkpt>
      <trkpt lat="43.61988" lon="2.40674">
        <ele>654.359187</ele>
        <time>2021-10-18T13:23:58.000Z</time>
      </trkpt>
      <trkpt lat="43.61991" lon="2.40675">
        <ele>654.449143</ele>
        <time>2021-10-18T13:23:59.000Z</time>
      </trkpt>
      <trkpt lat="43.61993" lon="2.40675">
        <ele>654.528743</ele>
        <time>2021-10-18T13:24:00.000Z</time>
      </trkpt>
      <trkpt lat="43.61995" lon="2.40676">
        <ele>654.60451</ele>
        <time>2021-10-18T13:24:01.000Z</time>
      </trkpt>
      <trkpt lat="43.61997" lon="2.40677">
        <ele>654.67192</ele>
        <time>2021-10-18T13:24:02.000Z</time>
      </trkpt>
      <trkpt lat="43.61999" lon="2.40678">
        <ele>654.7451</ele>
        <time>2021-10-18T13:24:03.000Z</time>
      </trkpt>
      <trkpt lat="43.62001" lon="2.40679">
        <ele>654.826786</ele>
        <time>2021-10-18T13:24:04.000Z</time>
      </trkpt>
      <trkpt lat="43.62004" lon="2.40681">
        <ele>654.916221</ele>
        <time>2021-10-18T13:24:05.000Z</time>
      </trkpt>
      <trkpt lat="43.62006" lon="2.40683">
        <ele>655.010837</ele>
        <time>2021-10-18T13:24:06.000Z</time>
      </trkpt>
      <trkpt lat="43.62008" lon="2.40684">
        <ele>655.093175</ele>
        <time>2021-10-18T13:24:07.000Z</time>
      </trkpt>
      <trkpt lat="43.6201" lon="2.40685">
        <ele>655.164558</ele>
        <time>2021-10-18T13:24:08.000Z</time>
      </trkpt>
      <trkpt lat="43.62013" lon="2.40686">
        <ele>655.242286</ele>
        <time>2021-10-18T13:24:09.000Z</time>
      </trkpt>
      <trkpt lat="43.62015" lon="2.40687">
        <ele>655.316834</ele>
        <time>2021-10-18T13:24:10.000Z</time>
      </trkpt>
      <trkpt lat="43.62017" lon="2.40688">
        <ele>655.409632</ele>
        <time>2021-10-18T13:24:11.000Z</time>
      </trkpt>
      <trkpt lat="43.6202" lon="2.4069">
        <ele>655.492145</ele>
        <time>2021-10-18T13:24:12.000Z</time>
      </trkpt>
      <trkpt lat="43.62022" lon="2.40691">
        <ele>655.574657</ele>
        <time>2021-10-18T13:24:13.000Z</time>
      </trkpt>
      <trkpt lat="43.62024" lon="2.40692">
        <ele>655.656342</ele>
        <time>2021-10-18T13:24:14.000Z</time>
      </trkpt>
      <trkpt lat="43.62027" lon="2.40693">
        <ele>655.7392</ele>
        <time>2021-10-18T13:24:15.000Z</time>
      </trkpt>
      <trkpt lat="43.62029" lon="2.40693">
        <ele>655.821054</ele>
        <time>2021-10-18T13:24:16.000Z</time>
      </trkpt>
      <trkpt lat="43.62031" lon="2.40694">
        <ele>655.885556</ele>
        <time>2021-10-18T13:24:17.000Z</time>
      </trkpt>
      <trkpt lat="43.62033" lon="2.40694">
        <ele>655.953378</ele>
        <time>2021-10-18T13:24:18.000Z</time>
      </trkpt>
      <trkpt lat="43.62035" lon="2.40695">
        <ele>656.028204</ele>
        <time>2021-10-18T13:24:19.000Z</time>
      </trkpt>
      <trkpt lat="43.62037" lon="2.40695">
        <ele>656.092385</ele>
        <time>2021-10-18T13:24:20.000Z</time>
      </trkpt>
      <trkpt lat="43.62039" lon="2.40695">
        <ele>656.159682</ele>
        <time>2021-10-18T13:24:21.000Z</time>
      </trkpt>
      <trkpt lat="43.62041" lon="2.40696">
        <ele>656.228368</ele>
        <time>2021-10-18T13:24:22.000Z</time>
      </trkpt>
      <trkpt lat="43.62043" lon="2.40697">
        <ele>656.303743</ele>
        <time>2021-10-18T13:24:23.000Z</time>
      </trkpt>
      <trkpt lat="43.62045" lon="2.40699">
        <ele>656.371487</ele>
        <time>2021-10-18T13:24:24.000Z</time>
      </trkpt>
      <trkpt lat="43.62047" lon="2.40701">
        <ele>656.451657</ele>
        <time>2021-10-18T13:24:25.000Z</time>
      </trkpt>
      <trkpt lat="43.62048" lon="2.40703">
        <ele>656.531826</ele>
        <time>2021-10-18T13:24:26.000Z</time>
      </trkpt>
      <trkpt lat="43.6205" lon="2.40705">
        <ele>656.611995</ele>
        <time>2021-10-18T13:24:27.000Z</time>
      </trkpt>
      <trkpt lat="43.62052" lon="2.40707">
        <ele>656.692165</ele>
        <time>2021-10-18T13:24:28.000Z</time>
      </trkpt>
      <trkpt lat="43.62054" lon="2.40709">
        <ele>656.771237</ele>
        <time>2021-10-18T13:24:29.000Z</time>
      </trkpt>
      <trkpt lat="43.62056" lon="2.40711">
        <ele>656.843655</ele>
        <time>2021-10-18T13:24:30.000Z</time>
      </trkpt>
      <trkpt lat="43.62057" lon="2.40712">
        <ele>656.912908</ele>
        <time>2021-10-18T13:24:31.000Z</time>
      </trkpt>
      <trkpt lat="43.62059" lon="2.40714">
        <ele>656.986087</ele>
        <time>2021-10-18T13:24:32.000Z</time>
      </trkpt>
      <trkpt lat="43.62061" lon="2.40716">
        <ele>657.055124</ele>
        <time>2021-10-18T13:24:33.000Z</time>
      </trkpt>
      <trkpt lat="43.62063" lon="2.40717">
        <ele>657.139725</ele>
        <time>2021-10-18T13:24:34.000Z</time>
      </trkpt>
      <trkpt lat="43.62065" lon="2.40719">
        <ele>657.211995</ele>
        <time>2021-10-18T13:24:35.000Z</time>
      </trkpt>
      <trkpt lat="43.62067" lon="2.4072">
        <ele>657.286675</ele>
        <time>2021-10-18T13:24:36.000Z</time>
      </trkpt>
      <trkpt lat="43.62069" lon="2.40722">
        <ele>657.358945</ele>
        <time>2021-10-18T13:24:37.000Z</time>
      </trkpt>
      <trkpt lat="43.62071" lon="2.40723">
        <ele>657.430104</ele>
        <time>2021-10-18T13:24:38.000Z</time>
      </trkpt>
      <trkpt lat="43.6208" lon="2.40732">
        <ele>659.8</ele>
      </trkpt>
      <trkpt lat="43.6213" lon="2.4072">
        <ele>660.608446</ele>
        <time>2021-10-18T13:25:09.000Z</time>
      </trkpt>
      <trkpt lat="43.62132" lon="2.4072">
        <ele>660.736406</ele>
        <time>2021-10-18T13:25:10.000Z</time>
      </trkpt>
      <trkpt lat="43.62134" lon="2.40719">
        <ele>660.860906</ele>
        <time>2021-10-18T13:25:11.000Z</time>
      </trkpt>
      <trkpt lat="43.62136" lon="2.40718">
        <ele>660.969787</ele>
        <time>2021-10-18T13:25:12.000Z</time>
      </trkpt>
      <trkpt lat="43.62137" lon="2.40717">
        <ele>661.084806</ele>
        <time>2021-10-18T13:25:13.000Z</time>
      </trkpt>
      <trkpt lat="43.62139" lon="2.40717">
        <ele>661.187541</ele>
        <time>2021-10-18T13:25:14.000Z</time>
      </trkpt>
      <trkpt lat="43.6214" lon="2.40716">
        <ele>661.297922</ele>
        <time>2021-10-18T13:25:15.000Z</time>
      </trkpt>
      <trkpt lat="43.62142" lon="2.40716">
        <ele>661.417763</ele>
        <time>2021-10-18T13:25:16.000Z</time>
      </trkpt>
      <trkpt lat="43.62144" lon="2.40716">
        <ele>661.531356</ele>
        <time>2021-10-18T13:25:17.000Z</time>
      </trkpt>
      <trkpt lat="43.62146" lon="2.40716">
        <ele>661.678146</ele>
        <time>2021-10-18T13:25:18.000Z</time>
      </trkpt>
      <trkpt lat="43.62148" lon="2.40716">
        <ele>661.812086</ele>
        <time>2021-10-18T13:25:19.000Z</time>
      </trkpt>
      <trkpt lat="43.6215" lon="2.40715">
        <ele>661.967101</ele>
        <time>2021-10-18T13:25:20.000Z</time>
      </trkpt>
      <trkpt lat="43.62153" lon="2.40715">
        <ele>662.122117</ele>
        <time>2021-10-18T13:25:21.000Z</time>
      </trkpt>
      <trkpt lat="43.62155" lon="2.40715">
        <ele>662.255274</ele>
        <time>2021-10-18T13:25:22.000Z</time>
      </trkpt>
      <trkpt lat="43.62157" lon="2.40715">
        <ele>662.429448</ele>
        <time>2021-10-18T13:25:23.000Z</time>
      </trkpt>
      <trkpt lat="43.6216" lon="2.40715">
        <ele>662.589528</ele>
        <time>2021-10-18T13:25:24.000Z</time>
      </trkpt>
      <trkpt lat="43.62162" lon="2.40714">
        <ele>662.775639</ele>
        <time>2021-10-18T13:25:25.000Z</time>
      </trkpt>
      <trkpt lat="43.62165" lon="2.40712">
        <ele>662.959081</ele>
        <time>2021-10-18T13:25:26.000Z</time>
      </trkpt>
      <trkpt lat="43.62167" lon="2.40711">
        <ele>663.114854</ele>
        <time>2021-10-18T13:25:27.000Z</time>
      </trkpt>
      <trkpt lat="43.62169" lon="2.4071">
        <ele>663.253481</ele>
        <time>2021-10-18T13:25:28.000Z</time>
      </trkpt>
      <trkpt lat="43.62171" lon="2.4071">
        <ele>663.385726</ele>
        <time>2021-10-18T13:25:29.000Z</time>
      </trkpt>
      <trkpt lat="43.62173" lon="2.40709">
        <ele>663.510226</ele>
        <time>2021-10-18T13:25:30.000Z</time>
      </trkpt>
      <trkpt lat="43.62174" lon="2.40708">
        <ele>663.625245</ele>
        <time>2021-10-18T13:25:31.000Z</time>
      </trkpt>
      <trkpt lat="43.62176" lon="2.40707">
        <ele>663.75629</ele>
        <time>2021-10-18T13:25:32.000Z</time>
      </trkpt>
      <trkpt lat="43.62178" lon="2.40706">
        <ele>663.861702</ele>
        <time>2021-10-18T13:25:33.000Z</time>
      </trkpt>
      <trkpt lat="43.62179" lon="2.40706">
        <ele>663.950375</ele>
        <time>2021-10-18T13:25:34.000Z</time>
      </trkpt>
      <trkpt lat="43.6218" lon="2.40705">
        <ele>664.051285</ele>
        <time>2021-10-18T13:25:35.000Z</time>
      </trkpt>
      <trkpt lat="43.62182" lon="2.40705">
        <ele>664.185225</ele>
        <time>2021-10-18T13:25:36.000Z</time>
      </trkpt>
      <trkpt lat="43.62185" lon="2.40705">
        <ele>664.332014</ele>
        <time>2021-10-18T13:25:37.000Z</time>
      </trkpt>
      <trkpt lat="43.62187" lon="2.40705">
        <ele>664.45888</ele>
        <time>2021-10-18T13:25:38.000Z</time>
      </trkpt>
      <trkpt lat="43.62188" lon="2.40704">
        <ele>664.581121</ele>
        <time>2021-10-18T13:25:39.000Z</time>
      </trkpt>
      <trkpt lat="43.6219" lon="2.40704">
        <ele>664.689377</ele>
        <time>2021-10-18T13:25:40.000Z</time>
      </trkpt>
      <trkpt lat="43.62192" lon="2.40704">
        <ele>664.8167</ele>
        <time>2021-10-18T13:25:41.000Z</time>
      </trkpt>
      <trkpt lat="43.62194" lon="2.40703">
        <ele>664.943566</ele>
        <time>2021-10-18T13:25:42.000Z</time>
      </trkpt>
      <trkpt lat="43.62196" lon="2.40703">
        <ele>665.070065</ele>
        <time>2021-10-18T13:25:43.000Z</time>
      </trkpt>
      <trkpt lat="43.62197" lon="2.40703">
        <ele>665.170049</ele>
        <time>2021-10-18T13:25:44.000Z</time>
      </trkpt>
      <trkpt lat="43.62199" lon="2.40703">
        <ele>665.276684</ele>
        <time>2021-10-18T13:25:45.000Z</time>
      </trkpt>
      <trkpt lat="43.62201" lon="2.40703">
        <ele>665.398066</ele>
        <time>2021-10-18T13:25:46.000Z</time>
      </trkpt>
      <trkpt lat="43.62202" lon="2.40702">
        <ele>665.507284</ele>
        <time>2021-10-18T13:25:47.000Z</time>
      </trkpt>
      <trkpt lat="43.62204" lon="2.40702">
        <ele>665.638205</ele>
        <time>2021-10-18T13:25:48.000Z</time>
      </trkpt>
      <trkpt lat="43.62206" lon="2.40701">
        <ele>665.776832</ele>
        <time>2021-10-18T13:25:49.000Z</time>
      </trkpt>
      <trkpt lat="43.62208" lon="2.407">
        <ele>665.905606</ele>
        <time>2021-10-18T13:25:50.000Z</time>
      </trkpt>
      <trkpt lat="43.6221" lon="2.407">
        <ele>666.030106</ele>
        <time>2021-10-18T13:25:51.000Z</time>
      </trkpt>
      <trkpt lat="43.62211" lon="2.40699">
        <ele>666.134076</ele>
        <time>2021-10-18T13:25:52.000Z</time>
      </trkpt>
      <trkpt lat="43.62213" lon="2.40699">
        <ele>666.229259</ele>
        <time>2021-10-18T13:25:53.000Z</time>
      </trkpt>
      <trkpt lat="43.62214" lon="2.40698">
        <ele>666.303127</ele>
        <time>2021-10-18T13:25:54.000Z</time>
      </trkpt>
      <trkpt lat="43.62214" lon="2.40698">
        <ele>666.350719</ele>
        <time>2021-10-18T13:25:55.000Z</time>
      </trkpt>
      <trkpt lat="43.62215" lon="2.40698">
        <ele>666.387012</ele>
        <time>2021-10-18T13:25:56.000Z</time>
      </trkpt>
      <trkpt lat="43.62216" lon="2.40697">
        <ele>666.484605</ele>
        <time>2021-10-18T13:25:57.000Z</time>
      </trkpt>
      <trkpt lat="43.62218" lon="2.40696">
        <ele>666.619975</ele>
        <time>2021-10-18T13:25:58.000Z</time>
      </trkpt>
      <trkpt lat="43.6222" lon="2.40695">
        <ele>666.75222</ele>
        <time>2021-10-18T13:25:59.000Z</time>
      </trkpt>
      <trkpt lat="43.62222" lon="2.40694">
        <ele>666.895543</ele>
        <time>2021-10-18T13:26:00.000Z</time>
      </trkpt>
      <trkpt lat="43.62224" lon="2.40693">
        <ele>667.054854</ele>
        <time>2021-10-18T13:26:01.000Z</time>
      </trkpt>
      <trkpt lat="43.62226" lon="2.40692">
        <ele>667.200029</ele>
        <time>2021-10-18T13:26:02.000Z</time>
      </trkpt>
      <trkpt lat="43.62228" lon="2.40691">
        <ele>667.346418</ele>
        <time>2021-10-18T13:26:03.000Z</time>
      </trkpt>
      <trkpt lat="43.6223" lon="2.4069">
        <ele>667.468659</ele>
        <time>2021-10-18T13:26:04.000Z</time>
      </trkpt>
      <trkpt lat="43.62232" lon="2.4069">
        <ele>667.558503</ele>
        <time>2021-10-18T13:26:05.000Z</time>
      </trkpt>
      <trkpt lat="43.62233" lon="2.40689">
        <ele>667.687277</ele>
        <time>2021-10-18T13:26:06.000Z</time>
      </trkpt>
      <trkpt lat="43.62235" lon="2.40689">
        <ele>667.821217</ele>
        <time>2021-10-18T13:26:07.000Z</time>
      </trkpt>
      <trkpt lat="43.62238" lon="2.40689">
        <ele>667.962355</ele>
        <time>2021-10-18T13:26:08.000Z</time>
      </trkpt>
      <trkpt lat="43.62239" lon="2.40688">
        <ele>668.074096</ele>
        <time>2021-10-18T13:26:09.000Z</time>
      </trkpt>
      <trkpt lat="43.62241" lon="2.40687">
        <ele>668.21146</ele>
        <time>2021-10-18T13:26:10.000Z</time>
      </trkpt>
      <trkpt lat="43.62243" lon="2.40687">
        <ele>668.367298</ele>
        <time>2021-10-18T13:26:11.000Z</time>
      </trkpt>
      <trkpt lat="43.62246" lon="2.40686">
        <ele>668.530609</ele>
        <time>2021-10-18T13:26:12.000Z</time>
      </trkpt>
      <trkpt lat="43.62248" lon="2.40685">
        <ele>668.70044</ele>
        <time>2021-10-18T13:26:13.000Z</time>
      </trkpt>
      <trkpt lat="43.6225" lon="2.40685">
        <ele>668.832685</ele>
        <time>2021-10-18T13:26:14.000Z</time>
      </trkpt>
      <trkpt lat="43.62252" lon="2.40684">
        <ele>668.971312</ele>
        <time>2021-10-18T13:26:15.000Z</time>
      </trkpt>
      <trkpt lat="43.62254" lon="2.40683">
        <ele>669.120612</ele>
        <time>2021-10-18T13:26:16.000Z</time>
      </trkpt>
      <trkpt lat="43.62256" lon="2.40682">
        <ele>669.255982</ele>
        <time>2021-10-18T13:26:17.000Z</time>
      </trkpt>
      <trkpt lat="43.62258" lon="2.40681">
        <ele>669.395076</ele>
        <time>2021-10-18T13:26:18.000Z</time>
      </trkpt>
      <trkpt lat="43.62261" lon="2.4068">
        <ele>669.566709</ele>
        <time>2021-10-18T13:26:19.000Z</time>
      </trkpt>
      <trkpt lat="43.62263" lon="2.40678">
        <ele>669.730398</ele>
        <time>2021-10-18T13:26:20.000Z</time>
      </trkpt>
      <trkpt lat="43.62265" lon="2.40677">
        <ele>669.890934</ele>
        <time>2021-10-18T13:26:21.000Z</time>
      </trkpt>
      <trkpt lat="43.62268" lon="2.40676">
        <ele>670.070622</ele>
        <time>2021-10-18T13:26:22.000Z</time>
      </trkpt>
      <trkpt lat="43.6227" lon="2.40675">
        <ele>670.23796</ele>
        <time>2021-10-18T13:26:23.000Z</time>
      </trkpt>
      <trkpt lat="43.62272" lon="2.40673">
        <ele>670.334893</ele>
        <time>2021-10-18T13:26:24.000Z</time>
      </trkpt>
      <trkpt lat="43.62275" lon="2.40672">
        <ele>670.373709</ele>
        <time>2021-10-18T13:26:25.000Z</time>
      </trkpt>
      <trkpt lat="43.62277" lon="2.4067">
        <ele>670.414149</ele>
        <time>2021-10-18T13:26:26.000Z</time>
      </trkpt>
      <trkpt lat="43.62279" lon="2.40668">
        <ele>670.453941</ele>
        <time>2021-10-18T13:26:27.000Z</time>
      </trkpt>
      <trkpt lat="43.62281" lon="2.40665">
        <ele>670.495904</ele>
        <time>2021-10-18T13:26:28.000Z</time>
      </trkpt>
      <trkpt lat="43.62284" lon="2.40663">
        <ele>670.541205</ele>
        <time>2021-10-18T13:26:29.000Z</time>
      </trkpt>
      <trkpt lat="43.62286" lon="2.4066">
        <ele>670.579929</ele>
        <time>2021-10-18T13:26:30.000Z</time>
      </trkpt>
      <trkpt lat="43.62288" lon="2.40658">
        <ele>670.62218</ele>
        <time>2021-10-18T13:26:31.000Z</time>
      </trkpt>
      <trkpt lat="43.62291" lon="2.40656">
        <ele>670.669589</ele>
        <time>2021-10-18T13:26:32.000Z</time>
      </trkpt>
      <trkpt lat="43.62294" lon="2.40654">
        <ele>670.719634</ele>
        <time>2021-10-18T13:26:33.000Z</time>
      </trkpt>
      <trkpt lat="43.62296" lon="2.40652">
        <ele>670.76433</ele>
        <time>2021-10-18T13:26:34.000Z</time>
      </trkpt>
      <trkpt lat="43.62299" lon="2.40649">
        <ele>670.806581</ele>
        <time>2021-10-18T13:26:35.000Z</time>
      </trkpt>
      <trkpt lat="43.62301" lon="2.40647">
        <ele>670.848209</ele>
        <time>2021-10-18T13:26:36.000Z</time>
      </trkpt>
      <trkpt lat="43.62303" lon="2.40645">
        <ele>670.891101</ele>
        <time>2021-10-18T13:26:37.000Z</time>
      </trkpt>
      <trkpt lat="43.62306" lon="2.40642">
        <ele>670.933961</ele>
        <time>2021-10-18T13:26:38.000Z</time>
      </trkpt>
      <trkpt lat="43.62308" lon="2.4064">
        <ele>670.979549</ele>
        <time>2021-10-18T13:26:39.000Z</time>
      </trkpt>
      <trkpt lat="43.62311" lon="2.40639">
        <ele>671.025505</ele>
        <time>2021-10-18T13:26:40.000Z</time>
      </trkpt>
      <trkpt lat="43.62315" lon="2.40637">
        <ele>671.081463</ele>
        <time>2021-10-18T13:26:41.000Z</time>
      </trkpt>
      <trkpt lat="43.62318" lon="2.40635">
        <ele>671.134257</ele>
        <time>2021-10-18T13:26:42.000Z</time>
      </trkpt>
      <trkpt lat="43.62321" lon="2.40633">
        <ele>671.184295</ele>
        <time>2021-10-18T13:26:43.000Z</time>
      </trkpt>
      <trkpt lat="43.62325" lon="2.40631">
        <ele>671.238101</ele>
        <time>2021-10-18T13:26:44.000Z</time>
      </trkpt>
      <trkpt lat="43.62328" lon="2.4063">
        <ele>671.287344</ele>
        <time>2021-10-18T13:26:45.000Z</time>
      </trkpt>
      <trkpt lat="43.62331" lon="2.40628">
        <ele>671.339039</ele>
        <time>2021-10-18T13:26:46.000Z</time>
      </trkpt>
      <trkpt lat="43.62334" lon="2.40627">
        <ele>671.387916</ele>
        <time>2021-10-18T13:26:47.000Z</time>
      </trkpt>
      <trkpt lat="43.62337" lon="2.40625">
        <ele>671.435391</ele>
        <time>2021-10-18T13:26:48.000Z</time>
      </trkpt>
      <trkpt lat="43.6234" lon="2.40624">
        <ele>671.479544</ele>
        <time>2021-10-18T13:26:49.000Z</time>
      </trkpt>
      <trkpt lat="43.62342" lon="2.40622">
        <ele>671.521008</ele>
        <time>2021-10-18T13:26:50.000Z</time>
      </trkpt>
      <trkpt lat="43.62345" lon="2.4062">
        <ele>671.562715</ele>
        <time>2021-10-18T13:26:51.000Z</time>
      </trkpt>
      <trkpt lat="43.62347" lon="2.40618">
        <ele>671.608822</ele>
        <time>2021-10-18T13:26:52.000Z</time>
      </trkpt>
      <trkpt lat="43.6235" lon="2.40616">
        <ele>671.653105</ele>
        <time>2021-10-18T13:26:53.000Z</time>
      </trkpt>
      <trkpt lat="43.62353" lon="2.40614">
        <ele>671.69638</ele>
        <time>2021-10-18T13:26:54.000Z</time>
      </trkpt>
      <trkpt lat="43.62355" lon="2.40612">
        <ele>671.736034</ele>
        <time>2021-10-18T13:26:55.000Z</time>
      </trkpt>
      <trkpt lat="43.62358" lon="2.40611">
        <ele>671.776825</ele>
        <time>2021-10-18T13:26:56.000Z</time>
      </trkpt>
      <trkpt lat="43.6236" lon="2.40611">
        <ele>671.811655</ele>
        <time>2021-10-18T13:26:57.000Z</time>
      </trkpt>
      <trkpt lat="43.62362" lon="2.4061">
        <ele>671.846032</ele>
        <time>2021-10-18T13:26:58.000Z</time>
      </trkpt>
      <trkpt lat="43.62365" lon="2.4061">
        <ele>671.881809</ele>
        <time>2021-10-18T13:26:59.000Z</time>
      </trkpt>
      <trkpt lat="43.62367" lon="2.4061">
        <ele>671.919259</ele>
        <time>2021-10-18T13:27:00.000Z</time>
      </trkpt>
      <trkpt lat="43.62369" lon="2.40609">
        <ele>671.952436</ele>
        <time>2021-10-18T13:27:01.000Z</time>
      </trkpt>
      <trkpt lat="43.62372" lon="2.40609">
        <ele>671.988552</ele>
        <time>2021-10-18T13:27:02.000Z</time>
      </trkpt>
      <trkpt lat="43.62374" lon="2.40608">
        <ele>672.029088</ele>
        <time>2021-10-18T13:27:03.000Z</time>
      </trkpt>
      <trkpt lat="43.62377" lon="2.40608">
        <ele>672.063734</ele>
        <time>2021-10-18T13:27:04.000Z</time>
      </trkpt>
      <trkpt lat="43.62379" lon="2.40607">
        <ele>672.097328</ele>
        <time>2021-10-18T13:27:05.000Z</time>
      </trkpt>
      <trkpt lat="43.62381" lon="2.40606">
        <ele>672.127782</ele>
        <time>2021-10-18T13:27:06.000Z</time>
      </trkpt>
      <trkpt lat="43.62383" lon="2.40606">
        <ele>672.161151</ele>
        <time>2021-10-18T13:27:07.000Z</time>
      </trkpt>
      <trkpt lat="43.62385" lon="2.40605">
        <ele>672.196444</ele>
        <time>2021-10-18T13:27:08.000Z</time>
      </trkpt>
      <trkpt lat="43.62388" lon="2.40604">
        <ele>672.230296</ele>
        <time>2021-10-18T13:27:09.000Z</time>
      </trkpt>
      <trkpt lat="43.62389" lon="2.40604">
        <ele>672.259557</ele>
        <time>2021-10-18T13:27:10.000Z</time>
      </trkpt>
      <trkpt lat="43.62391" lon="2.40603">
        <ele>672.290011</ele>
        <time>2021-10-18T13:27:11.000Z</time>
      </trkpt>
      <trkpt lat="43.62393" lon="2.40603">
        <ele>672.320082</ele>
        <time>2021-10-18T13:27:12.000Z</time>
      </trkpt>
      <trkpt lat="43.62396" lon="2.40602">
        <ele>672.357345</ele>
        <time>2021-10-18T13:27:13.000Z</time>
      </trkpt>
      <trkpt lat="43.62398" lon="2.40602">
        <ele>672.387416</ele>
        <time>2021-10-18T13:27:14.000Z</time>
      </trkpt>
      <trkpt lat="43.624" lon="2.40601">
        <ele>672.423532</ele>
        <time>2021-10-18T13:27:15.000Z</time>
      </trkpt>
      <trkpt lat="43.62403" lon="2.40601">
        <ele>672.462594</ele>
        <time>2021-10-18T13:27:16.000Z</time>
      </trkpt>
      <trkpt lat="43.62405" lon="2.40601">
        <ele>672.498372</ele>
        <time>2021-10-18T13:27:17.000Z</time>
      </trkpt>
      <trkpt lat="43.62408" lon="2.40601">
        <ele>672.537076</ele>
        <time>2021-10-18T13:27:18.000Z</time>
      </trkpt>
      <trkpt lat="43.6241" lon="2.40601">
        <ele>672.571317</ele>
        <time>2021-10-18T13:27:19.000Z</time>
      </trkpt>
      <trkpt lat="43.62413" lon="2.40601">
        <ele>672.608518</ele>
        <time>2021-10-18T13:27:20.000Z</time>
      </trkpt>
      <trkpt lat="43.62415" lon="2.40601">
        <ele>672.638298</ele>
        <time>2021-10-18T13:27:21.000Z</time>
      </trkpt>
      <trkpt lat="43.62417" lon="2.40601">
        <ele>672.674011</ele>
        <time>2021-10-18T13:27:22.000Z</time>
      </trkpt>
      <trkpt lat="43.6242" lon="2.40601">
        <ele>672.713073</ele>
        <time>2021-10-18T13:27:23.000Z</time>
      </trkpt>
      <trkpt lat="43.62422" lon="2.40602">
        <ele>672.749366</ele>
        <time>2021-10-18T13:27:24.000Z</time>
      </trkpt>
      <trkpt lat="43.62425" lon="2.40602">
        <ele>672.787124</ele>
        <time>2021-10-18T13:27:25.000Z</time>
      </trkpt>
      <trkpt lat="43.62427" lon="2.40603">
        <ele>672.82177</ele>
        <time>2021-10-18T13:27:26.000Z</time>
      </trkpt>
      <trkpt lat="43.62429" lon="2.40603">
        <ele>672.857886</ele>
        <time>2021-10-18T13:27:27.000Z</time>
      </trkpt>
      <trkpt lat="43.62432" lon="2.40604">
        <ele>672.900049</ele>
        <time>2021-10-18T13:27:28.000Z</time>
      </trkpt>
      <trkpt lat="43.62435" lon="2.40605">
        <ele>672.945156</ele>
        <time>2021-10-18T13:27:29.000Z</time>
      </trkpt>
      <trkpt lat="43.62438" lon="2.40605">
        <ele>672.989384</ele>
        <time>2021-10-18T13:27:30.000Z</time>
      </trkpt>
      <trkpt lat="43.6244" lon="2.40607">
        <ele>673.112134</ele>
        <time>2021-10-18T13:27:31.000Z</time>
      </trkpt>
      <trkpt lat="43.62443" lon="2.40608">
        <ele>673.230077</ele>
        <time>2021-10-18T13:27:32.000Z</time>
      </trkpt>
      <trkpt lat="43.62444" lon="2.40609">
        <ele>673.332572</ele>
        <time>2021-10-18T13:27:33.000Z</time>
      </trkpt>
      <trkpt lat="43.62446" lon="2.4061">
        <ele>673.44109</ele>
        <time>2021-10-18T13:27:34.000Z</time>
      </trkpt>
      <trkpt lat="43.62449" lon="2.40611">
        <ele>673.560324</ele>
        <time>2021-10-18T13:27:35.000Z</time>
      </trkpt>
      <trkpt lat="43.62451" lon="2.40612">
        <ele>673.673349</ele>
        <time>2021-10-18T13:27:36.000Z</time>
      </trkpt>
      <trkpt lat="43.62453" lon="2.40614">
        <ele>673.798681</ele>
        <time>2021-10-18T13:27:37.000Z</time>
      </trkpt>
      <trkpt lat="43.62455" lon="2.40616">
        <ele>673.916921</ele>
        <time>2021-10-18T13:27:38.000Z</time>
      </trkpt>
      <trkpt lat="43.62457" lon="2.40618">
        <ele>674.035161</ele>
        <time>2021-10-18T13:27:39.000Z</time>
      </trkpt>
      <trkpt lat="43.62459" lon="2.4062">
        <ele>674.160135</ele>
        <time>2021-10-18T13:27:40.000Z</time>
      </trkpt>
      <trkpt lat="43.62461" lon="2.40623">
        <ele>674.307666</ele>
        <time>2021-10-18T13:27:41.000Z</time>
      </trkpt>
      <trkpt lat="43.62463" lon="2.40625">
        <ele>674.437449</ele>
        <time>2021-10-18T13:27:42.000Z</time>
      </trkpt>
      <trkpt lat="43.62465" lon="2.40627">
        <ele>674.561051</ele>
        <time>2021-10-18T13:27:43.000Z</time>
      </trkpt>
      <trkpt lat="43.62466" lon="2.40629">
        <ele>674.665228</ele>
        <time>2021-10-18T13:27:44.000Z</time>
      </trkpt>
      <trkpt lat="43.62467" lon="2.40631">
        <ele>674.770318</ele>
        <time>2021-10-18T13:27:45.000Z</time>
      </trkpt>
      <trkpt lat="43.6247" lon="2.40633">
        <ele>674.90308</ele>
        <time>2021-10-18T13:27:46.000Z</time>
      </trkpt>
      <trkpt lat="43.62472" lon="2.40636">
        <ele>675.044104</ele>
        <time>2021-10-18T13:27:47.000Z</time>
      </trkpt>
      <trkpt lat="43.62474" lon="2.40638">
        <ele>675.176865</ele>
        <time>2021-10-18T13:27:48.000Z</time>
      </trkpt>
      <trkpt lat="43.62476" lon="2.4064">
        <ele>675.303503</ele>
        <time>2021-10-18T13:27:49.000Z</time>
      </trkpt>
      <trkpt lat="43.62478" lon="2.40642">
        <ele>675.440503</ele>
        <time>2021-10-18T13:27:50.000Z</time>
      </trkpt>
      <trkpt lat="43.62481" lon="2.40644">
        <ele>675.579482</ele>
        <time>2021-10-18T13:27:51.000Z</time>
      </trkpt>
      <trkpt lat="43.62483" lon="2.40646">
        <ele>675.718924</ele>
        <time>2021-10-18T13:27:52.000Z</time>
      </trkpt>
      <trkpt lat="43.62486" lon="2.40647">
        <ele>675.870052</ele>
        <time>2021-10-18T13:27:53.000Z</time>
      </trkpt>
      <trkpt lat="43.62488" lon="2.40649">
        <ele>676.012167</ele>
        <time>2021-10-18T13:27:54.000Z</time>
      </trkpt>
      <trkpt lat="43.62491" lon="2.4065">
        <ele>676.131401</ele>
        <time>2021-10-18T13:27:55.000Z</time>
      </trkpt>
      <trkpt lat="43.62493" lon="2.40651">
        <ele>676.238622</ele>
        <time>2021-10-18T13:27:56.000Z</time>
      </trkpt>
      <trkpt lat="43.62495" lon="2.40653">
        <ele>676.356565</ele>
        <time>2021-10-18T13:27:57.000Z</time>
      </trkpt>
      <trkpt lat="43.62497" lon="2.40654">
        <ele>676.471126</ele>
        <time>2021-10-18T13:27:58.000Z</time>
      </trkpt>
      <trkpt lat="43.62499" lon="2.40655">
        <ele>676.607177</ele>
        <time>2021-10-18T13:27:59.000Z</time>
      </trkpt>
      <trkpt lat="43.62502" lon="2.40655">
        <ele>676.720983</ele>
        <time>2021-10-18T13:28:00.000Z</time>
      </trkpt>
      <trkpt lat="43.62504" lon="2.40656">
        <ele>676.823441</ele>
        <time>2021-10-18T13:28:01.000Z</time>
      </trkpt>
      <trkpt lat="43.62506" lon="2.40656">
        <ele>676.934883</ele>
        <time>2021-10-18T13:28:02.000Z</time>
      </trkpt>
      <trkpt lat="43.62508" lon="2.40656">
        <ele>677.03094</ele>
        <time>2021-10-18T13:28:03.000Z</time>
      </trkpt>
      <trkpt lat="43.6251" lon="2.40655">
        <ele>677.133435</ele>
        <time>2021-10-18T13:28:04.000Z</time>
      </trkpt>
      <trkpt lat="43.62511" lon="2.40653">
        <ele>677.252202</ele>
        <time>2021-10-18T13:28:05.000Z</time>
      </trkpt>
      <trkpt lat="43.62513" lon="2.4065">
        <ele>677.373524</ele>
        <time>2021-10-18T13:28:06.000Z</time>
      </trkpt>
      <trkpt lat="43.62515" lon="2.40648">
        <ele>677.503696</ele>
        <time>2021-10-18T13:28:07.000Z</time>
      </trkpt>
      <trkpt lat="43.62516" lon="2.40645">
        <ele>677.631283</ele>
        <time>2021-10-18T13:28:08.000Z</time>
      </trkpt>
      <trkpt lat="43.62516" lon="2.40642">
        <ele>677.730863</ele>
        <time>2021-10-18T13:28:09.000Z</time>
      </trkpt>
      <trkpt lat="43.62517" lon="2.40639">
        <ele>677.822228</ele>
        <time>2021-10-18T13:28:10.000Z</time>
      </trkpt>
      <trkpt lat="43.62517" lon="2.40637">
        <ele>677.921906</ele>
        <time>2021-10-18T13:28:11.000Z</time>
      </trkpt>
      <trkpt lat="43.62517" lon="2.40634">
        <ele>678.016781</ele>
        <time>2021-10-18T13:28:12.000Z</time>
      </trkpt>
      <trkpt lat="43.62517" lon="2.40632">
        <ele>678.100709</ele>
        <time>2021-10-18T13:28:13.000Z</time>
      </trkpt>
      <trkpt lat="43.62517" lon="2.4063">
        <ele>678.170041</ele>
        <time>2021-10-18T13:28:14.000Z</time>
      </trkpt>
      <trkpt lat="43.62517" lon="2.40628">
        <ele>678.246836</ele>
        <time>2021-10-18T13:28:15.000Z</time>
      </trkpt>
      <trkpt lat="43.62517" lon="2.40626">
        <ele>678.329609</ele>
        <time>2021-10-18T13:28:16.000Z</time>
      </trkpt>
      <trkpt lat="43.62518" lon="2.40623">
        <ele>678.418482</ele>
        <time>2021-10-18T13:28:17.000Z</time>
      </trkpt>
      <trkpt lat="43.62518" lon="2.4062">
        <ele>678.525379</ele>
        <time>2021-10-18T13:28:18.000Z</time>
      </trkpt>
      <trkpt lat="43.62518" lon="2.40618">
        <ele>678.628048</ele>
        <time>2021-10-18T13:28:19.000Z</time>
      </trkpt>
      <trkpt lat="43.62519" lon="2.40615">
        <ele>678.737892</ele>
        <time>2021-10-18T13:28:20.000Z</time>
      </trkpt>
      <trkpt lat="43.6252" lon="2.40612">
        <ele>678.847736</ele>
        <time>2021-10-18T13:28:21.000Z</time>
      </trkpt>
      <trkpt lat="43.62521" lon="2.40609">
        <ele>678.966064</ele>
        <time>2021-10-18T13:28:22.000Z</time>
      </trkpt>
      <trkpt lat="43.62523" lon="2.40607">
        <ele>679.087386</ele>
        <time>2021-10-18T13:28:23.000Z</time>
      </trkpt>
      <trkpt lat="43.62524" lon="2.40605">
        <ele>679.198641</ele>
        <time>2021-10-18T13:28:24.000Z</time>
      </trkpt>
      <trkpt lat="43.62526" lon="2.40603">
        <ele>679.32534</ele>
        <time>2021-10-18T13:28:25.000Z</time>
      </trkpt>
      <trkpt lat="43.62528" lon="2.40602">
        <ele>679.421839</ele>
        <time>2021-10-18T13:28:26.000Z</time>
      </trkpt>
      <trkpt lat="43.6253" lon="2.40602">
        <ele>679.511262</ele>
        <time>2021-10-18T13:28:27.000Z</time>
      </trkpt>
      <trkpt lat="43.62532" lon="2.40601">
        <ele>679.625068</ele>
        <time>2021-10-18T13:28:28.000Z</time>
      </trkpt>
      <trkpt lat="43.62534" lon="2.406">
        <ele>679.726321</ele>
        <time>2021-10-18T13:28:29.000Z</time>
      </trkpt>
      <trkpt lat="43.62536" lon="2.40599">
        <ele>679.826451</ele>
        <time>2021-10-18T13:28:30.000Z</time>
      </trkpt>
      <trkpt lat="43.62538" lon="2.40599">
        <ele>679.927864</ele>
        <time>2021-10-18T13:28:31.000Z</time>
      </trkpt>
      <trkpt lat="43.6254" lon="2.40598">
        <ele>680.050216</ele>
        <time>2021-10-18T13:28:32.000Z</time>
      </trkpt>
      <trkpt lat="43.62543" lon="2.40597">
        <ele>680.19023</ele>
        <time>2021-10-18T13:28:33.000Z</time>
      </trkpt>
      <trkpt lat="43.62546" lon="2.40596">
        <ele>680.329617</ele>
        <time>2021-10-18T13:28:34.000Z</time>
      </trkpt>
      <trkpt lat="43.62548" lon="2.40595">
        <ele>680.477402</ele>
        <time>2021-10-18T13:28:35.000Z</time>
      </trkpt>
      <trkpt lat="43.62552" lon="2.40594">
        <ele>680.656248</ele>
        <time>2021-10-18T13:28:36.000Z</time>
      </trkpt>
      <trkpt lat="43.62555" lon="2.40592">
        <ele>680.821126</ele>
        <time>2021-10-18T13:28:37.000Z</time>
      </trkpt>
      <trkpt lat="43.62558" lon="2.40589">
        <ele>680.98103</ele>
        <time>2021-10-18T13:28:38.000Z</time>
      </trkpt>
      <trkpt lat="43.6256" lon="2.40587">
        <ele>681.140718</ele>
        <time>2021-10-18T13:28:39.000Z</time>
      </trkpt>
      <trkpt lat="43.62563" lon="2.40584">
        <ele>681.304686</ele>
        <time>2021-10-18T13:28:40.000Z</time>
      </trkpt>
      <trkpt lat="43.62565" lon="2.40582">
        <ele>681.449987</ele>
        <time>2021-10-18T13:28:41.000Z</time>
      </trkpt>
      <trkpt lat="43.62567" lon="2.40579">
        <ele>681.591299</ele>
        <time>2021-10-18T13:28:42.000Z</time>
      </trkpt>
      <trkpt lat="43.62569" lon="2.40577">
        <ele>681.72524</ele>
        <time>2021-10-18T13:28:43.000Z</time>
      </trkpt>
      <trkpt lat="43.62571" lon="2.40574">
        <ele>681.843729</ele>
        <time>2021-10-18T13:28:44.000Z</time>
      </trkpt>
      <trkpt lat="43.62572" lon="2.40572">
        <ele>681.950485</ele>
        <time>2021-10-18T13:28:45.000Z</time>
      </trkpt>
      <trkpt lat="43.62573" lon="2.4057">
        <ele>682.051004</ele>
        <time>2021-10-18T13:28:46.000Z</time>
      </trkpt>
      <trkpt lat="43.62574" lon="2.40567">
        <ele>682.047743</ele>
        <time>2021-10-18T13:28:47.000Z</time>
      </trkpt>
      <trkpt lat="43.62575" lon="2.40565">
        <ele>682.038898</ele>
        <time>2021-10-18T13:28:48.000Z</time>
      </trkpt>
      <trkpt lat="43.62577" lon="2.40563">
        <ele>682.03032</ele>
        <time>2021-10-18T13:28:49.000Z</time>
      </trkpt>
      <trkpt lat="43.62578" lon="2.4056">
        <ele>682.019929</ele>
        <time>2021-10-18T13:28:50.000Z</time>
      </trkpt>
      <trkpt lat="43.6258" lon="2.40558">
        <ele>682.010331</ele>
        <time>2021-10-18T13:28:51.000Z</time>
      </trkpt>
      <trkpt lat="43.62581" lon="2.40556">
        <ele>682.001727</ele>
        <time>2021-10-18T13:28:52.000Z</time>
      </trkpt>
      <trkpt lat="43.62582" lon="2.40554">
        <ele>681.993585</ele>
        <time>2021-10-18T13:28:53.000Z</time>
      </trkpt>
      <trkpt lat="43.62583" lon="2.40552">
        <ele>681.986515</ele>
        <time>2021-10-18T13:28:54.000Z</time>
      </trkpt>
      <trkpt lat="43.62584" lon="2.4055">
        <ele>681.978189</ele>
        <time>2021-10-18T13:28:55.000Z</time>
      </trkpt>
      <trkpt lat="43.62585" lon="2.40547">
        <ele>681.969611</ele>
        <time>2021-10-18T13:28:56.000Z</time>
      </trkpt>
      <trkpt lat="43.62587" lon="2.40546">
        <ele>681.961064</ele>
        <time>2021-10-18T13:28:57.000Z</time>
      </trkpt>
      <trkpt lat="43.62588" lon="2.40544">
        <ele>681.953444</ele>
        <time>2021-10-18T13:28:58.000Z</time>
      </trkpt>
      <trkpt lat="43.6259" lon="2.40542">
        <ele>681.944086</ele>
        <time>2021-10-18T13:28:59.000Z</time>
      </trkpt>
      <trkpt lat="43.62591" lon="2.40539">
        <ele>681.935258</ele>
        <time>2021-10-18T13:29:00.000Z</time>
      </trkpt>
      <trkpt lat="43.62592" lon="2.40537">
        <ele>681.927436</ele>
        <time>2021-10-18T13:29:01.000Z</time>
      </trkpt>
      <trkpt lat="43.62593" lon="2.40535">
        <ele>681.917835</ele>
        <time>2021-10-18T13:29:02.000Z</time>
      </trkpt>
      <trkpt lat="43.62594" lon="2.40532">
        <ele>681.907832</ele>
        <time>2021-10-18T13:29:03.000Z</time>
      </trkpt>
      <trkpt lat="43.62595" lon="2.40528">
        <ele>681.896825</ele>
        <time>2021-10-18T13:29:04.000Z</time>
      </trkpt>
      <trkpt lat="43.62595" lon="2.40525">
        <ele>681.885716</ele>
        <time>2021-10-18T13:29:05.000Z</time>
      </trkpt>
      <trkpt lat="43.62596" lon="2.40522">
        <ele>681.875901</ele>
        <time>2021-10-18T13:29:06.000Z</time>
      </trkpt>
      <trkpt lat="43.62597" lon="2.40519">
        <ele>681.866076</ele>
        <time>2021-10-18T13:29:07.000Z</time>
      </trkpt>
      <trkpt lat="43.62598" lon="2.40516">
        <ele>681.856632</ele>
        <time>2021-10-18T13:29:08.000Z</time>
      </trkpt>
      <trkpt lat="43.62599" lon="2.40514">
        <ele>681.848862</ele>
        <time>2021-10-18T13:29:09.000Z</time>
      </trkpt>
      <trkpt lat="43.62599" lon="2.40512">
        <ele>681.841384</ele>
        <time>2021-10-18T13:29:10.000Z</time>
      </trkpt>
      <trkpt lat="43.626" lon="2.40509">
        <ele>681.833615</ele>
        <time>2021-10-18T13:29:11.000Z</time>
      </trkpt>
      <trkpt lat="43.62601" lon="2.40507">
        <ele>681.825474</ele>
        <time>2021-10-18T13:29:12.000Z</time>
      </trkpt>
      <trkpt lat="43.62602" lon="2.40505">
        <ele>681.817119</ele>
        <time>2021-10-18T13:29:13.000Z</time>
      </trkpt>
      <trkpt lat="43.62603" lon="2.40502">
        <ele>681.808978</ele>
        <time>2021-10-18T13:29:14.000Z</time>
      </trkpt>
      <trkpt lat="43.62604" lon="2.405">
        <ele>681.799637</ele>
        <time>2021-10-18T13:29:15.000Z</time>
      </trkpt>
      <trkpt lat="43.62605" lon="2.40497">
        <ele>681.790259</ele>
        <time>2021-10-18T13:29:16.000Z</time>
      </trkpt>
      <trkpt lat="43.62606" lon="2.40495">
        <ele>681.781675</ele>
        <time>2021-10-18T13:29:17.000Z</time>
      </trkpt>
      <trkpt lat="43.62607" lon="2.40493">
        <ele>681.773344</ele>
        <time>2021-10-18T13:29:18.000Z</time>
      </trkpt>
      <trkpt lat="43.62608" lon="2.40491">
        <ele>681.766009</ele>
        <time>2021-10-18T13:29:19.000Z</time>
      </trkpt>
      <trkpt lat="43.62609" lon="2.40489">
        <ele>681.758615</ele>
        <time>2021-10-18T13:29:20.000Z</time>
      </trkpt>
      <trkpt lat="43.62611" lon="2.40487">
        <ele>681.750793</ele>
        <time>2021-10-18T13:29:21.000Z</time>
      </trkpt>
      <trkpt lat="43.62612" lon="2.40486">
        <ele>681.743173</ele>
        <time>2021-10-18T13:29:22.000Z</time>
      </trkpt>
      <trkpt lat="43.62613" lon="2.40484">
        <ele>681.735858</ele>
        <time>2021-10-18T13:29:23.000Z</time>
      </trkpt>
      <trkpt lat="43.62613" lon="2.40482">
        <ele>681.729117</ele>
        <time>2021-10-18T13:29:24.000Z</time>
      </trkpt>
      <trkpt lat="43.62613" lon="2.4048">
        <ele>681.722266</ele>
        <time>2021-10-18T13:29:25.000Z</time>
      </trkpt>
      <trkpt lat="43.62613" lon="2.40477">
        <ele>681.714781</ele>
        <time>2021-10-18T13:29:26.000Z</time>
      </trkpt>
      <trkpt lat="43.62613" lon="2.40475">
        <ele>681.707503</ele>
        <time>2021-10-18T13:29:27.000Z</time>
      </trkpt>
      <trkpt lat="43.62613" lon="2.40473">
        <ele>681.700599</ele>
        <time>2021-10-18T13:29:28.000Z</time>
      </trkpt>
      <trkpt lat="43.62612" lon="2.4047">
        <ele>681.692693</ele>
        <time>2021-10-18T13:29:29.000Z</time>
      </trkpt>
      <trkpt lat="43.62612" lon="2.40468">
        <ele>681.685415</ele>
        <time>2021-10-18T13:29:30.000Z</time>
      </trkpt>
      <trkpt lat="43.62612" lon="2.40466">
        <ele>681.680052</ele>
        <time>2021-10-18T13:29:31.000Z</time>
      </trkpt>
      <trkpt lat="43.62611" lon="2.40465">
        <ele>681.673738</ele>
        <time>2021-10-18T13:29:32.000Z</time>
      </trkpt>
      <trkpt lat="43.6261" lon="2.40462">
        <ele>681.666708</ele>
        <time>2021-10-18T13:29:33.000Z</time>
      </trkpt>
      <trkpt lat="43.6261" lon="2.4046">
        <ele>681.660119</ele>
        <time>2021-10-18T13:29:34.000Z</time>
      </trkpt>
      <trkpt lat="43.62609" lon="2.40459">
        <ele>681.653307</ele>
        <time>2021-10-18T13:29:35.000Z</time>
      </trkpt>
      <trkpt lat="43.62608" lon="2.40457">
        <ele>681.646207</ele>
        <time>2021-10-18T13:29:36.000Z</time>
      </trkpt>
      <trkpt lat="43.62607" lon="2.40455">
        <ele>681.639625</ele>
        <time>2021-10-18T13:29:37.000Z</time>
      </trkpt>
      <trkpt lat="43.62606" lon="2.40453">
        <ele>681.631248</ele>
        <time>2021-10-18T13:29:38.000Z</time>
      </trkpt>
      <trkpt lat="43.62606" lon="2.4045">
        <ele>681.622023</ele>
        <time>2021-10-18T13:29:39.000Z</time>
      </trkpt>
      <trkpt lat="43.62605" lon="2.40447">
        <ele>681.613677</ele>
        <time>2021-10-18T13:29:40.000Z</time>
      </trkpt>
      <trkpt lat="43.62604" lon="2.40445">
        <ele>681.604484</ele>
        <time>2021-10-18T13:29:41.000Z</time>
      </trkpt>
      <trkpt lat="43.62604" lon="2.40441">
        <ele>681.593818</ele>
        <time>2021-10-18T13:29:42.000Z</time>
      </trkpt>
      <trkpt lat="43.62604" lon="2.40438">
        <ele>681.584165</ele>
        <time>2021-10-18T13:29:43.000Z</time>
      </trkpt>
      <trkpt lat="43.62604" lon="2.40435">
        <ele>681.575351</ele>
        <time>2021-10-18T13:29:44.000Z</time>
      </trkpt>
      <trkpt lat="43.62604" lon="2.40432">
        <ele>681.56601</ele>
        <time>2021-10-18T13:29:45.000Z</time>
      </trkpt>
      <trkpt lat="43.62604" lon="2.40429">
        <ele>681.5548</ele>
        <time>2021-10-18T13:29:46.000Z</time>
      </trkpt>
      <trkpt lat="43.62604" lon="2.40425">
        <ele>681.54327</ele>
        <time>2021-10-18T13:29:47.000Z</time>
      </trkpt>
      <trkpt lat="43.62605" lon="2.40422">
        <ele>681.533455</ele>
        <time>2021-10-18T13:29:48.000Z</time>
      </trkpt>
      <trkpt lat="43.62605" lon="2.40419">
        <ele>681.523565</ele>
        <time>2021-10-18T13:29:49.000Z</time>
      </trkpt>
      <trkpt lat="43.62606" lon="2.40416">
        <ele>681.51375</ele>
        <time>2021-10-18T13:29:50.000Z</time>
      </trkpt>
      <trkpt lat="43.62606" lon="2.40413">
        <ele>681.503945</ele>
        <time>2021-10-18T13:29:51.000Z</time>
      </trkpt>
      <trkpt lat="43.62607" lon="2.4041">
        <ele>681.494553</ele>
        <time>2021-10-18T13:29:52.000Z</time>
      </trkpt>
      <trkpt lat="43.62607" lon="2.40407">
        <ele>681.484814</ele>
        <time>2021-10-18T13:29:53.000Z</time>
      </trkpt>
      <trkpt lat="43.62608" lon="2.40404">
        <ele>681.474812</ele>
        <time>2021-10-18T13:29:54.000Z</time>
      </trkpt>
      <trkpt lat="43.62609" lon="2.40401">
        <ele>681.466117</ele>
        <time>2021-10-18T13:29:55.000Z</time>
      </trkpt>
      <trkpt lat="43.6261" lon="2.40399">
        <ele>681.456197</ele>
        <time>2021-10-18T13:29:56.000Z</time>
      </trkpt>
      <trkpt lat="43.62611" lon="2.40396">
        <ele>681.445725</ele>
        <time>2021-10-18T13:29:57.000Z</time>
      </trkpt>
      <trkpt lat="43.62612" lon="2.40392">
        <ele>681.435035</ele>
        <time>2021-10-18T13:29:58.000Z</time>
      </trkpt>
      <trkpt lat="43.62614" lon="2.40389">
        <ele>681.42237</ele>
        <time>2021-10-18T13:29:59.000Z</time>
      </trkpt>
      <trkpt lat="43.62615" lon="2.40386">
        <ele>681.41123</ele>
        <time>2021-10-18T13:30:00.000Z</time>
      </trkpt>
      <trkpt lat="43.62616" lon="2.40383">
        <ele>681.40169</ele>
        <time>2021-10-18T13:30:01.000Z</time>
      </trkpt>
      <trkpt lat="43.62617" lon="2.40381">
        <ele>681.393618</ele>
        <time>2021-10-18T13:30:02.000Z</time>
      </trkpt>
      <trkpt lat="43.62618" lon="2.40379">
        <ele>681.386303</ele>
        <time>2021-10-18T13:30:03.000Z</time>
      </trkpt>
      <trkpt lat="43.62618" lon="2.40377">
        <ele>681.379419</ele>
        <time>2021-10-18T13:30:04.000Z</time>
      </trkpt>
      <trkpt lat="43.62619" lon="2.40375">
        <ele>681.373598</ele>
        <time>2021-10-18T13:30:05.000Z</time>
      </trkpt>
      <trkpt lat="43.6262" lon="2.40373">
        <ele>681.366527</ele>
        <time>2021-10-18T13:30:06.000Z</time>
      </trkpt>
      <trkpt lat="43.62621" lon="2.40371">
        <ele>681.358706</ele>
        <time>2021-10-18T13:30:07.000Z</time>
      </trkpt>
      <trkpt lat="43.62622" lon="2.40369">
        <ele>681.349619</ele>
        <time>2021-10-18T13:30:08.000Z</time>
      </trkpt>
      <trkpt lat="43.62624" lon="2.40366">
        <ele>681.338858</ele>
        <time>2021-10-18T13:30:09.000Z</time>
      </trkpt>
      <trkpt lat="43.62626" lon="2.40364">
        <ele>681.327238</ele>
        <time>2021-10-18T13:30:10.000Z</time>
      </trkpt>
      <trkpt lat="43.62628" lon="2.40361">
        <ele>681.314538</ele>
        <time>2021-10-18T13:30:11.000Z</time>
      </trkpt>
      <trkpt lat="43.6263" lon="2.40357">
        <ele>681.30062</ele>
        <time>2021-10-18T13:30:12.000Z</time>
      </trkpt>
      <trkpt lat="43.62632" lon="2.40354">
        <ele>681.288487</ele>
        <time>2021-10-18T13:30:13.000Z</time>
      </trkpt>
      <trkpt lat="43.62634" lon="2.40351">
        <ele>681.109771</ele>
        <time>2021-10-18T13:30:14.000Z</time>
      </trkpt>
      <trkpt lat="43.62636" lon="2.40348">
        <ele>680.875325</ele>
        <time>2021-10-18T13:30:15.000Z</time>
      </trkpt>
      <trkpt lat="43.62638" lon="2.40345">
        <ele>680.649523</ele>
        <time>2021-10-18T13:30:16.000Z</time>
      </trkpt>
      <trkpt lat="43.6264" lon="2.40342">
        <ele>680.449783</ele>
        <time>2021-10-18T13:30:17.000Z</time>
      </trkpt>
      <trkpt lat="43.62641" lon="2.4034">
        <ele>680.270736</ele>
        <time>2021-10-18T13:30:18.000Z</time>
      </trkpt>
      <trkpt lat="43.62642" lon="2.40337">
        <ele>680.091264</ele>
        <time>2021-10-18T13:30:19.000Z</time>
      </trkpt>
      <trkpt lat="43.62643" lon="2.40334">
        <ele>679.887117</ele>
        <time>2021-10-18T13:30:20.000Z</time>
      </trkpt>
      <trkpt lat="43.62645" lon="2.4033">
        <ele>679.655626</ele>
        <time>2021-10-18T13:30:21.000Z</time>
      </trkpt>
      <trkpt lat="43.62646" lon="2.40327">
        <ele>679.485109</ele>
        <time>2021-10-18T13:30:22.000Z</time>
      </trkpt>
      <trkpt lat="43.62647" lon="2.40325">
        <ele>679.324237</ele>
        <time>2021-10-18T13:30:23.000Z</time>
      </trkpt>
      <trkpt lat="43.62648" lon="2.40323">
        <ele>679.170658</ele>
        <time>2021-10-18T13:30:24.000Z</time>
      </trkpt>
      <trkpt lat="43.62649" lon="2.40321">
        <ele>679.028373</ele>
        <time>2021-10-18T13:30:25.000Z</time>
      </trkpt>
      <trkpt lat="43.62651" lon="2.40319">
        <ele>678.858453</ele>
        <time>2021-10-18T13:30:26.000Z</time>
      </trkpt>
      <trkpt lat="43.62652" lon="2.40317">
        <ele>678.702412</ele>
        <time>2021-10-18T13:30:27.000Z</time>
      </trkpt>
      <trkpt lat="43.62653" lon="2.40314">
        <ele>678.518852</ele>
        <time>2021-10-18T13:30:28.000Z</time>
      </trkpt>
      <trkpt lat="43.62654" lon="2.40311">
        <ele>678.348931</ele>
        <time>2021-10-18T13:30:29.000Z</time>
      </trkpt>
      <trkpt lat="43.62655" lon="2.40309">
        <ele>678.201778</ele>
        <time>2021-10-18T13:30:30.000Z</time>
      </trkpt>
      <trkpt lat="43.62656" lon="2.40307">
        <ele>678.051209</ele>
        <time>2021-10-18T13:30:31.000Z</time>
      </trkpt>
      <trkpt lat="43.62657" lon="2.40303">
        <ele>677.859437</ele>
        <time>2021-10-18T13:30:32.000Z</time>
      </trkpt>
      <trkpt lat="43.62657" lon="2.40301">
        <ele>677.686272</ele>
        <time>2021-10-18T13:30:33.000Z</time>
      </trkpt>
      <trkpt lat="43.62658" lon="2.40298">
        <ele>677.523815</ele>
        <time>2021-10-18T13:30:34.000Z</time>
      </trkpt>
      <trkpt lat="43.62658" lon="2.40295">
        <ele>677.339866</ele>
        <time>2021-10-18T13:30:35.000Z</time>
      </trkpt>
      <trkpt lat="43.62659" lon="2.40291">
        <ele>677.132222</ele>
        <time>2021-10-18T13:30:36.000Z</time>
      </trkpt>
      <trkpt lat="43.6266" lon="2.40287">
        <ele>676.922962</ele>
        <time>2021-10-18T13:30:37.000Z</time>
      </trkpt>
      <trkpt lat="43.6266" lon="2.40285">
        <ele>676.758689</ele>
        <time>2021-10-18T13:30:38.000Z</time>
      </trkpt>
      <trkpt lat="43.6266" lon="2.40282">
        <ele>676.584306</ele>
        <time>2021-10-18T13:30:39.000Z</time>
      </trkpt>
      <trkpt lat="43.62661" lon="2.40279">
        <ele>676.405759</ele>
        <time>2021-10-18T13:30:40.000Z</time>
      </trkpt>
      <trkpt lat="43.62661" lon="2.40274">
        <ele>676.170239</ele>
        <time>2021-10-18T13:30:41.000Z</time>
      </trkpt>
      <trkpt lat="43.62662" lon="2.4027">
        <ele>675.938843</ele>
        <time>2021-10-18T13:30:42.000Z</time>
      </trkpt>
      <trkpt lat="43.62662" lon="2.40266">
        <ele>675.687644</ele>
        <time>2021-10-18T13:30:43.000Z</time>
      </trkpt>
      <trkpt lat="43.62663" lon="2.40262">
        <ele>675.430824</ele>
        <time>2021-10-18T13:30:44.000Z</time>
      </trkpt>
      <trkpt lat="43.62663" lon="2.40258">
        <ele>675.231948</ele>
        <time>2021-10-18T13:30:45.000Z</time>
      </trkpt>
      <trkpt lat="43.62663" lon="2.40254">
        <ele>675.022213</ele>
        <time>2021-10-18T13:30:46.000Z</time>
      </trkpt>
      <trkpt lat="43.62664" lon="2.40251">
        <ele>674.814304</ele>
        <time>2021-10-18T13:30:47.000Z</time>
      </trkpt>
      <trkpt lat="43.62664" lon="2.40248">
        <ele>674.635757</ele>
        <time>2021-10-18T13:30:48.000Z</time>
      </trkpt>
      <trkpt lat="43.62665" lon="2.40245">
        <ele>674.446558</ele>
        <time>2021-10-18T13:30:49.000Z</time>
      </trkpt>
      <trkpt lat="43.62667" lon="2.40241">
        <ele>674.224982</ele>
        <time>2021-10-18T13:30:50.000Z</time>
      </trkpt>
      <trkpt lat="43.62667" lon="2.40237">
        <ele>673.997374</ele>
        <time>2021-10-18T13:30:51.000Z</time>
      </trkpt>
      <trkpt lat="43.62668" lon="2.40234">
        <ele>673.773019</ele>
        <time>2021-10-18T13:30:52.000Z</time>
      </trkpt>
      <trkpt lat="43.62669" lon="2.4023">
        <ele>673.535922</ele>
        <time>2021-10-18T13:30:53.000Z</time>
      </trkpt>
      <trkpt lat="43.6267" lon="2.40225">
        <ele>673.275198</ele>
        <time>2021-10-18T13:30:54.000Z</time>
      </trkpt>
      <trkpt lat="43.62671" lon="2.40221">
        <ele>673.008552</ele>
        <time>2021-10-18T13:30:55.000Z</time>
      </trkpt>
      <trkpt lat="43.62672" lon="2.40216">
        <ele>672.7311</ele>
        <time>2021-10-18T13:30:56.000Z</time>
      </trkpt>
      <trkpt lat="43.62673" lon="2.40211">
        <ele>672.445901</ele>
        <time>2021-10-18T13:30:57.000Z</time>
      </trkpt>
      <trkpt lat="43.62674" lon="2.40206">
        <ele>672.109893</ele>
        <time>2021-10-18T13:30:58.000Z</time>
      </trkpt>
      <trkpt lat="43.62674" lon="2.40199">
        <ele>671.741697</ele>
        <time>2021-10-18T13:30:59.000Z</time>
      </trkpt>
      <trkpt lat="43.62674" lon="2.40193">
        <ele>671.400386</ele>
        <time>2021-10-18T13:31:00.000Z</time>
      </trkpt>
      <trkpt lat="43.62673" lon="2.40187">
        <ele>671.071469</ele>
        <time>2021-10-18T13:31:01.000Z</time>
      </trkpt>
      <trkpt lat="43.62674" lon="2.4018">
        <ele>670.676796</ele>
        <time>2021-10-18T13:31:02.000Z</time>
      </trkpt>
      <trkpt lat="43.62675" lon="2.40173">
        <ele>670.271881</ele>
        <time>2021-10-18T13:31:03.000Z</time>
      </trkpt>
      <trkpt lat="43.62676" lon="2.40165">
        <ele>669.794643</ele>
        <time>2021-10-18T13:31:04.000Z</time>
      </trkpt>
      <trkpt lat="43.62678" lon="2.40157">
        <ele>669.330989</ele>
        <time>2021-10-18T13:31:05.000Z</time>
      </trkpt>
      <trkpt lat="43.6268" lon="2.40151">
        <ele>668.915217</ele>
        <time>2021-10-18T13:31:06.000Z</time>
      </trkpt>
      <trkpt lat="43.62682" lon="2.40144">
        <ele>668.527468</ele>
        <time>2021-10-18T13:31:07.000Z</time>
      </trkpt>
      <trkpt lat="43.62684" lon="2.40138">
        <ele>668.165266</ele>
        <time>2021-10-18T13:31:08.000Z</time>
      </trkpt>
      <trkpt lat="43.62685" lon="2.40132">
        <ele>667.809168</ele>
        <time>2021-10-18T13:31:09.000Z</time>
      </trkpt>
      <trkpt lat="43.62685" lon="2.40125">
        <ele>667.40691</ele>
        <time>2021-10-18T13:31:10.000Z</time>
      </trkpt>
      <trkpt lat="43.62686" lon="2.40118">
        <ele>667.17931</ele>
        <time>2021-10-18T13:31:11.000Z</time>
      </trkpt>
      <trkpt lat="43.62686" lon="2.40111">
        <ele>667.117805</ele>
        <time>2021-10-18T13:31:12.000Z</time>
      </trkpt>
      <trkpt lat="43.62688" lon="2.40105">
        <ele>667.060387</ele>
        <time>2021-10-18T13:31:13.000Z</time>
      </trkpt>
      <trkpt lat="43.62689" lon="2.40098">
        <ele>666.996563</ele>
        <time>2021-10-18T13:31:14.000Z</time>
      </trkpt>
      <trkpt lat="43.6269" lon="2.40091">
        <ele>666.938315</ele>
        <time>2021-10-18T13:31:15.000Z</time>
      </trkpt>
      <trkpt lat="43.62691" lon="2.40084">
        <ele>666.876402</ele>
        <time>2021-10-18T13:31:16.000Z</time>
      </trkpt>
      <trkpt lat="43.62692" lon="2.40076">
        <ele>666.812523</ele>
        <time>2021-10-18T13:31:17.000Z</time>
      </trkpt>
      <trkpt lat="43.62692" lon="2.40069">
        <ele>666.747085</ele>
        <time>2021-10-18T13:31:18.000Z</time>
      </trkpt>
      <trkpt lat="43.62693" lon="2.40061">
        <ele>666.680124</ele>
        <time>2021-10-18T13:31:19.000Z</time>
      </trkpt>
      <trkpt lat="43.62694" lon="2.40054">
        <ele>666.616508</ele>
        <time>2021-10-18T13:31:20.000Z</time>
      </trkpt>
      <trkpt lat="43.62693" lon="2.40047">
        <ele>666.555448</ele>
        <time>2021-10-18T13:31:21.000Z</time>
      </trkpt>
      <trkpt lat="43.62692" lon="2.40039">
        <ele>666.490558</ele>
        <time>2021-10-18T13:31:22.000Z</time>
      </trkpt>
      <trkpt lat="43.62691" lon="2.40032">
        <ele>666.426745</ele>
        <time>2021-10-18T13:31:23.000Z</time>
      </trkpt>
      <trkpt lat="43.62689" lon="2.40025">
        <ele>666.365151</ele>
        <time>2021-10-18T13:31:24.000Z</time>
      </trkpt>
      <trkpt lat="43.62687" lon="2.40019">
        <ele>666.305724</ele>
        <time>2021-10-18T13:31:25.000Z</time>
      </trkpt>
      <trkpt lat="43.62685" lon="2.40013">
        <ele>666.249675</ele>
        <time>2021-10-18T13:31:26.000Z</time>
      </trkpt>
      <trkpt lat="43.62682" lon="2.40004">
        <ele>666.167525</ele>
        <time>2021-10-18T13:31:27.000Z</time>
      </trkpt>
      <trkpt lat="43.62678" lon="2.39985">
        <ele>665.99166</ele>
        <time>2021-10-18T13:31:28.000Z</time>
      </trkpt>
      <trkpt lat="43.62675" lon="2.39965">
        <ele>665.814966</ele>
        <time>2021-10-18T13:31:29.000Z</time>
      </trkpt>
      <trkpt lat="43.62673" lon="2.39952">
        <ele>665.708622</ele>
        <time>2021-10-18T13:31:30.000Z</time>
      </trkpt>
      <trkpt lat="43.62673" lon="2.39947">
        <ele>665.659703</ele>
        <time>2021-10-18T13:31:31.000Z</time>
      </trkpt>
      <trkpt lat="43.62673" lon="2.39941">
        <ele>665.614276</ele>
        <time>2021-10-18T13:31:32.000Z</time>
      </trkpt>
      <trkpt lat="43.62672" lon="2.39935">
        <ele>665.562408</ele>
        <time>2021-10-18T13:31:33.000Z</time>
      </trkpt>
      <trkpt lat="43.62672" lon="2.39929">
        <ele>665.50344</ele>
        <time>2021-10-18T13:31:34.000Z</time>
      </trkpt>
      <trkpt lat="43.62669" lon="2.39923">
        <ele>665.448327</ele>
        <time>2021-10-18T13:31:35.000Z</time>
      </trkpt>
      <trkpt lat="43.62667" lon="2.39917">
        <ele>665.390213</ele>
        <time>2021-10-18T13:31:36.000Z</time>
      </trkpt>
      <trkpt lat="43.62665" lon="2.39912">
        <ele>665.338292</ele>
        <time>2021-10-18T13:31:37.000Z</time>
      </trkpt>
      <trkpt lat="43.62664" lon="2.39907">
        <ele>665.293201</ele>
        <time>2021-10-18T13:31:38.000Z</time>
      </trkpt>
      <trkpt lat="43.62662" lon="2.399">
        <ele>665.235227</ele>
        <time>2021-10-18T13:31:39.000Z</time>
      </trkpt>
      <trkpt lat="43.62661" lon="2.39896">
        <ele>665.193717</ele>
        <time>2021-10-18T13:31:40.000Z</time>
      </trkpt>
      <trkpt lat="43.62661" lon="2.3989">
        <ele>665.147119</ele>
        <time>2021-10-18T13:31:41.000Z</time>
      </trkpt>
      <trkpt lat="43.62661" lon="2.39886">
        <ele>665.107462</ele>
        <time>2021-10-18T13:31:42.000Z</time>
      </trkpt>
      <trkpt lat="43.62662" lon="2.39882">
        <ele>665.095902</ele>
        <time>2021-10-18T13:31:43.000Z</time>
      </trkpt>
      <trkpt lat="43.62664" lon="2.39877">
        <ele>665.191733</ele>
        <time>2021-10-18T13:31:44.000Z</time>
      </trkpt>
      <trkpt lat="43.62665" lon="2.39872">
        <ele>665.302603</ele>
        <time>2021-10-18T13:31:45.000Z</time>
      </trkpt>
      <trkpt lat="43.62666" lon="2.39866">
        <ele>665.421146</ele>
        <time>2021-10-18T13:31:46.000Z</time>
      </trkpt>
      <trkpt lat="43.62667" lon="2.3986">
        <ele>665.532177</ele>
        <time>2021-10-18T13:31:47.000Z</time>
      </trkpt>
      <trkpt lat="43.62668" lon="2.39854">
        <ele>665.642614</ele>
        <time>2021-10-18T13:31:48.000Z</time>
      </trkpt>
      <trkpt lat="43.62668" lon="2.39848">
        <ele>665.754869</ele>
        <time>2021-10-18T13:31:49.000Z</time>
      </trkpt>
      <trkpt lat="43.62668" lon="2.39842">
        <ele>665.865707</ele>
        <time>2021-10-18T13:31:50.000Z</time>
      </trkpt>
      <trkpt lat="43.62669" lon="2.39836">
        <ele>665.983996</ele>
        <time>2021-10-18T13:31:51.000Z</time>
      </trkpt>
      <trkpt lat="43.62669" lon="2.3983">
        <ele>666.103953</ele>
        <time>2021-10-18T13:31:52.000Z</time>
      </trkpt>
      <trkpt lat="43.62669" lon="2.39823">
        <ele>666.233038</ele>
        <time>2021-10-18T13:31:53.000Z</time>
      </trkpt>
      <trkpt lat="43.62669" lon="2.39816">
        <ele>666.36624</ele>
        <time>2021-10-18T13:31:54.000Z</time>
      </trkpt>
      <trkpt lat="43.62668" lon="2.39809">
        <ele>666.497805</ele>
        <time>2021-10-18T13:31:55.000Z</time>
      </trkpt>
      <trkpt lat="43.62667" lon="2.39802">
        <ele>666.617022</ele>
        <time>2021-10-18T13:31:56.000Z</time>
      </trkpt>
      <trkpt lat="43.62666" lon="2.39796">
        <ele>666.731632</ele>
        <time>2021-10-18T13:31:57.000Z</time>
      </trkpt>
      <trkpt lat="43.62665" lon="2.39791">
        <ele>666.835887</ele>
        <time>2021-10-18T13:31:58.000Z</time>
      </trkpt>
      <trkpt lat="43.62665" lon="2.39785">
        <ele>666.939533</ele>
        <time>2021-10-18T13:31:59.000Z</time>
      </trkpt>
      <trkpt lat="43.62663" lon="2.3978">
        <ele>667.046261</ele>
        <time>2021-10-18T13:32:00.000Z</time>
      </trkpt>
      <trkpt lat="43.62662" lon="2.39775">
        <ele>667.143874</ele>
        <time>2021-10-18T13:32:01.000Z</time>
      </trkpt>
      <trkpt lat="43.62661" lon="2.3977">
        <ele>667.236238</ele>
        <time>2021-10-18T13:32:02.000Z</time>
      </trkpt>
      <trkpt lat="43.6266" lon="2.39766">
        <ele>667.31928</ele>
        <time>2021-10-18T13:32:03.000Z</time>
      </trkpt>
      <trkpt lat="43.62659" lon="2.39762">
        <ele>667.396253</ele>
        <time>2021-10-18T13:32:04.000Z</time>
      </trkpt>
      <trkpt lat="43.62659" lon="2.39758">
        <ele>667.471408</ele>
        <time>2021-10-18T13:32:05.000Z</time>
      </trkpt>
      <trkpt lat="43.62658" lon="2.39755">
        <ele>667.541047</ele>
        <time>2021-10-18T13:32:06.000Z</time>
      </trkpt>
      <trkpt lat="43.62658" lon="2.39751">
        <ele>667.602771</ele>
        <time>2021-10-18T13:32:07.000Z</time>
      </trkpt>
      <trkpt lat="43.62658" lon="2.39748">
        <ele>667.657075</ele>
        <time>2021-10-18T13:32:08.000Z</time>
      </trkpt>
      <trkpt lat="43.62658" lon="2.39745">
        <ele>667.719284</ele>
        <time>2021-10-18T13:32:09.000Z</time>
      </trkpt>
      <trkpt lat="43.62658" lon="2.39742">
        <ele>667.782931</ele>
        <time>2021-10-18T13:32:10.000Z</time>
      </trkpt>
      <trkpt lat="43.62658" lon="2.39738">
        <ele>667.852569</ele>
        <time>2021-10-18T13:32:11.000Z</time>
      </trkpt>
      <trkpt lat="43.62657" lon="2.39735">
        <ele>667.917463</ele>
        <time>2021-10-18T13:32:12.000Z</time>
      </trkpt>
      <trkpt lat="43.62657" lon="2.39731">
        <ele>667.976868</ele>
        <time>2021-10-18T13:32:13.000Z</time>
      </trkpt>
      <trkpt lat="43.62657" lon="2.39728">
        <ele>668.039451</ele>
        <time>2021-10-18T13:32:14.000Z</time>
      </trkpt>
      <trkpt lat="43.62657" lon="2.39724">
        <ele>668.111275</ele>
        <time>2021-10-18T13:32:15.000Z</time>
      </trkpt>
      <trkpt lat="43.62658" lon="2.39721">
        <ele>668.175704</ele>
        <time>2021-10-18T13:32:16.000Z</time>
      </trkpt>
      <trkpt lat="43.62658" lon="2.39718">
        <ele>668.237533</ele>
        <time>2021-10-18T13:32:17.000Z</time>
      </trkpt>
      <trkpt lat="43.62659" lon="2.39715">
        <ele>668.297609</ele>
        <time>2021-10-18T13:32:18.000Z</time>
      </trkpt>
      <trkpt lat="43.62659" lon="2.39711">
        <ele>668.367332</ele>
        <time>2021-10-18T13:32:19.000Z</time>
      </trkpt>
      <trkpt lat="43.6266" lon="2.39707">
        <ele>668.442859</ele>
        <time>2021-10-18T13:32:20.000Z</time>
      </trkpt>
      <trkpt lat="43.6266" lon="2.39703">
        <ele>668.519832</ele>
        <time>2021-10-18T13:32:21.000Z</time>
      </trkpt>
      <trkpt lat="43.62661" lon="2.39699">
        <ele>668.595756</ele>
        <time>2021-10-18T13:32:22.000Z</time>
      </trkpt>
      <trkpt lat="43.62662" lon="2.39695">
        <ele>668.674548</ele>
        <time>2021-10-18T13:32:23.000Z</time>
      </trkpt>
      <trkpt lat="43.62662" lon="2.3969">
        <ele>668.761218</ele>
        <time>2021-10-18T13:32:24.000Z</time>
      </trkpt>
      <trkpt lat="43.62663" lon="2.39686">
        <ele>668.849138</ele>
        <time>2021-10-18T13:32:25.000Z</time>
      </trkpt>
      <trkpt lat="43.62663" lon="2.39681">
        <ele>668.933939</ele>
        <time>2021-10-18T13:32:26.000Z</time>
      </trkpt>
      <trkpt lat="43.62664" lon="2.39677">
        <ele>669.020327</ele>
        <time>2021-10-18T13:32:27.000Z</time>
      </trkpt>
      <trkpt lat="43.62664" lon="2.39672">
        <ele>669.112305</ele>
        <time>2021-10-18T13:32:28.000Z</time>
      </trkpt>
      <trkpt lat="43.62664" lon="2.39666">
        <ele>669.211472</ele>
        <time>2021-10-18T13:32:29.000Z</time>
      </trkpt>
      <trkpt lat="43.62664" lon="2.39661">
        <ele>669.305313</ele>
        <time>2021-10-18T13:32:30.000Z</time>
      </trkpt>
      <trkpt lat="43.62664" lon="2.39657">
        <ele>669.393261</ele>
        <time>2021-10-18T13:32:31.000Z</time>
      </trkpt>
      <trkpt lat="43.62664" lon="2.39652">
        <ele>669.488967</ele>
        <time>2021-10-18T13:32:32.000Z</time>
      </trkpt>
      <trkpt lat="43.62664" lon="2.39647">
        <ele>669.584359</ele>
        <time>2021-10-18T13:32:33.000Z</time>
      </trkpt>
      <trkpt lat="43.62664" lon="2.39642">
        <ele>669.67601</ele>
        <time>2021-10-18T13:32:34.000Z</time>
      </trkpt>
      <trkpt lat="43.62664" lon="2.39637">
        <ele>669.695796</ele>
        <time>2021-10-18T13:32:35.000Z</time>
      </trkpt>
      <trkpt lat="43.62664" lon="2.39633">
        <ele>669.616424</ele>
        <time>2021-10-18T13:32:36.000Z</time>
      </trkpt>
      <trkpt lat="43.62664" lon="2.3963">
        <ele>669.550721</ele>
        <time>2021-10-18T13:32:37.000Z</time>
      </trkpt>
      <trkpt lat="43.62665" lon="2.39627">
        <ele>669.490011</ele>
        <time>2021-10-18T13:32:38.000Z</time>
      </trkpt>
      <trkpt lat="43.62665" lon="2.39624">
        <ele>669.429361</ele>
        <time>2021-10-18T13:32:39.000Z</time>
      </trkpt>
      <trkpt lat="43.62665" lon="2.3962">
        <ele>669.366306</ele>
        <time>2021-10-18T13:32:40.000Z</time>
      </trkpt>
      <trkpt lat="43.62666" lon="2.39617">
        <ele>669.296155</ele>
        <time>2021-10-18T13:32:41.000Z</time>
      </trkpt>
      <trkpt lat="43.62666" lon="2.39613">
        <ele>669.218699</ele>
        <time>2021-10-18T13:32:42.000Z</time>
      </trkpt>
      <trkpt lat="43.62665" lon="2.39609">
        <ele>669.154253</ele>
        <time>2021-10-18T13:32:43.000Z</time>
      </trkpt>
      <trkpt lat="43.62665" lon="2.39606">
        <ele>669.089807</ele>
        <time>2021-10-18T13:32:44.000Z</time>
      </trkpt>
      <trkpt lat="43.62664" lon="2.39603">
        <ele>669.025747</ele>
        <time>2021-10-18T13:32:45.000Z</time>
      </trkpt>
      <trkpt lat="43.62665" lon="2.39599">
        <ele>668.960044</ele>
        <time>2021-10-18T13:32:46.000Z</time>
      </trkpt>
      <trkpt lat="43.62665" lon="2.39596">
        <ele>668.891184</ele>
        <time>2021-10-18T13:32:47.000Z</time>
      </trkpt>
      <trkpt lat="43.62666" lon="2.39592">
        <ele>668.810617</ele>
        <time>2021-10-18T13:32:48.000Z</time>
      </trkpt>
      <trkpt lat="43.62666" lon="2.39588">
        <ele>668.736992</ele>
        <time>2021-10-18T13:32:49.000Z</time>
      </trkpt>
      <trkpt lat="43.62666" lon="2.39584">
        <ele>668.665726</ele>
        <time>2021-10-18T13:32:50.000Z</time>
      </trkpt>
      <trkpt lat="43.62666" lon="2.39581">
        <ele>668.605958</ele>
        <time>2021-10-18T13:32:51.000Z</time>
      </trkpt>
      <trkpt lat="43.62666" lon="2.39578">
        <ele>668.545308</ele>
        <time>2021-10-18T13:32:52.000Z</time>
      </trkpt>
      <trkpt lat="43.62666" lon="2.39575">
        <ele>668.485068</ele>
        <time>2021-10-18T13:32:53.000Z</time>
      </trkpt>
      <trkpt lat="43.62665" lon="2.39572">
        <ele>668.425774</ele>
        <time>2021-10-18T13:32:54.000Z</time>
      </trkpt>
      <trkpt lat="43.62665" lon="2.39569">
        <ele>668.364601</ele>
        <time>2021-10-18T13:32:55.000Z</time>
      </trkpt>
      <trkpt lat="43.62665" lon="2.39565">
        <ele>668.288733</ele>
        <time>2021-10-18T13:32:56.000Z</time>
      </trkpt>
      <trkpt lat="43.62665" lon="2.39561">
        <ele>668.199973</ele>
        <time>2021-10-18T13:32:57.000Z</time>
      </trkpt>
      <trkpt lat="43.62665" lon="2.39556">
        <ele>668.112932</ele>
        <time>2021-10-18T13:32:58.000Z</time>
      </trkpt>
      <trkpt lat="43.62665" lon="2.39552">
        <ele>668.028018</ele>
        <time>2021-10-18T13:32:59.000Z</time>
      </trkpt>
      <trkpt lat="43.62664" lon="2.39547">
        <ele>667.939951</ele>
        <time>2021-10-18T13:33:00.000Z</time>
      </trkpt>
      <trkpt lat="43.62662" lon="2.39543">
        <ele>667.839913</ele>
        <time>2021-10-18T13:33:01.000Z</time>
      </trkpt>
      <trkpt lat="43.62661" lon="2.39538">
        <ele>667.739875</ele>
        <time>2021-10-18T13:33:02.000Z</time>
      </trkpt>
      <trkpt lat="43.62659" lon="2.39532">
        <ele>667.625368</ele>
        <time>2021-10-18T13:33:03.000Z</time>
      </trkpt>
      <trkpt lat="43.62657" lon="2.39527">
        <ele>667.506739</ele>
        <time>2021-10-18T13:33:04.000Z</time>
      </trkpt>
      <trkpt lat="43.62656" lon="2.39521">
        <ele>667.398922</ele>
        <time>2021-10-18T13:33:05.000Z</time>
      </trkpt>
      <trkpt lat="43.62654" lon="2.39517">
        <ele>667.300624</ele>
        <time>2021-10-18T13:33:06.000Z</time>
      </trkpt>
      <trkpt lat="43.62652" lon="2.39513">
        <ele>667.211669</ele>
        <time>2021-10-18T13:33:07.000Z</time>
      </trkpt>
      <trkpt lat="43.62651" lon="2.3951">
        <ele>667.136615</ele>
        <time>2021-10-18T13:33:08.000Z</time>
      </trkpt>
      <trkpt lat="43.62649" lon="2.39506">
        <ele>667.061561</ele>
        <time>2021-10-18T13:33:09.000Z</time>
      </trkpt>
      <trkpt lat="43.62648" lon="2.39503">
        <ele>666.975519</ele>
        <time>2021-10-18T13:33:10.000Z</time>
      </trkpt>
      <trkpt lat="43.62645" lon="2.39498">
        <ele>666.872518</ele>
        <time>2021-10-18T13:33:11.000Z</time>
      </trkpt>
      <trkpt lat="43.62644" lon="2.39494">
        <ele>666.776453</ele>
        <time>2021-10-18T13:33:12.000Z</time>
      </trkpt>
      <trkpt lat="43.62642" lon="2.3949">
        <ele>666.694831</ele>
        <time>2021-10-18T13:33:13.000Z</time>
      </trkpt>
      <trkpt lat="43.62641" lon="2.39486">
        <ele>666.610983</ele>
        <time>2021-10-18T13:33:14.000Z</time>
      </trkpt>
      <trkpt lat="43.6264" lon="2.39482">
        <ele>666.533105</ele>
        <time>2021-10-18T13:33:15.000Z</time>
      </trkpt>
      <trkpt lat="43.62639" lon="2.39479">
        <ele>666.459431</ele>
        <time>2021-10-18T13:33:16.000Z</time>
      </trkpt>
      <trkpt lat="43.62637" lon="2.39476">
        <ele>666.386574</ele>
        <time>2021-10-18T13:33:17.000Z</time>
      </trkpt>
      <trkpt lat="43.62636" lon="2.39471">
        <ele>666.294205</ele>
        <time>2021-10-18T13:33:18.000Z</time>
      </trkpt>
      <trkpt lat="43.62635" lon="2.39466">
        <ele>666.191876</ele>
        <time>2021-10-18T13:33:19.000Z</time>
      </trkpt>
      <trkpt lat="43.62634" lon="2.39461">
        <ele>666.087597</ele>
        <time>2021-10-18T13:33:20.000Z</time>
      </trkpt>
      <trkpt lat="43.62633" lon="2.39455">
        <ele>665.981933</ele>
        <time>2021-10-18T13:33:21.000Z</time>
      </trkpt>
      <trkpt lat="43.62633" lon="2.3945">
        <ele>665.881459</ele>
        <time>2021-10-18T13:33:22.000Z</time>
      </trkpt>
      <trkpt lat="43.62633" lon="2.39445">
        <ele>665.777449</ele>
        <time>2021-10-18T13:33:23.000Z</time>
      </trkpt>
      <trkpt lat="43.62633" lon="2.39439">
        <ele>665.67344</ele>
        <time>2021-10-18T13:33:24.000Z</time>
      </trkpt>
      <trkpt lat="43.62633" lon="2.39433">
        <ele>665.559769</ele>
        <time>2021-10-18T13:33:25.000Z</time>
      </trkpt>
      <trkpt lat="43.62634" lon="2.39427">
        <ele>665.443928</ele>
        <time>2021-10-18T13:33:26.000Z</time>
      </trkpt>
      <trkpt lat="43.62633" lon="2.39422">
        <ele>665.330257</ele>
        <time>2021-10-18T13:33:27.000Z</time>
      </trkpt>
      <trkpt lat="43.62633" lon="2.39415">
        <ele>665.212494</ele>
        <time>2021-10-18T13:33:28.000Z</time>
      </trkpt>
      <trkpt lat="43.62633" lon="2.39409">
        <ele>665.091121</ele>
        <time>2021-10-18T13:33:29.000Z</time>
      </trkpt>
      <trkpt lat="43.62633" lon="2.39403">
        <ele>664.967735</ele>
        <time>2021-10-18T13:33:30.000Z</time>
      </trkpt>
      <trkpt lat="43.62633" lon="2.39396">
        <ele>664.921288</ele>
        <time>2021-10-18T13:33:31.000Z</time>
      </trkpt>
      <trkpt lat="43.62633" lon="2.3939">
        <ele>664.894728</ele>
        <time>2021-10-18T13:33:32.000Z</time>
      </trkpt>
      <trkpt lat="43.62632" lon="2.39383">
        <ele>664.868935</ele>
        <time>2021-10-18T13:33:33.000Z</time>
      </trkpt>
      <trkpt lat="43.62632" lon="2.39377">
        <ele>664.8436</ele>
        <time>2021-10-18T13:33:34.000Z</time>
      </trkpt>
      <trkpt lat="43.62632" lon="2.39371">
        <ele>664.819438</ele>
        <time>2021-10-18T13:33:35.000Z</time>
      </trkpt>
      <trkpt lat="43.62632" lon="2.39366">
        <ele>664.795744</ele>
        <time>2021-10-18T13:33:36.000Z</time>
      </trkpt>
      <trkpt lat="43.62632" lon="2.3936">
        <ele>664.772458</ele>
        <time>2021-10-18T13:33:37.000Z</time>
      </trkpt>
      <trkpt lat="43.62632" lon="2.39354">
        <ele>664.749172</ele>
        <time>2021-10-18T13:33:38.000Z</time>
      </trkpt>
      <trkpt lat="43.62632" lon="2.39349">
        <ele>664.726696</ele>
        <time>2021-10-18T13:33:39.000Z</time>
      </trkpt>
      <trkpt lat="43.62633" lon="2.39343">
        <ele>664.704114</ele>
        <time>2021-10-18T13:33:40.000Z</time>
      </trkpt>
      <trkpt lat="43.62633" lon="2.39338">
        <ele>664.681989</ele>
        <time>2021-10-18T13:33:41.000Z</time>
      </trkpt>
      <trkpt lat="43.62633" lon="2.39333">
        <ele>664.661438</ele>
        <time>2021-10-18T13:33:42.000Z</time>
      </trkpt>
      <trkpt lat="43.62634" lon="2.39328">
        <ele>664.641942</ele>
        <time>2021-10-18T13:33:43.000Z</time>
      </trkpt>
      <trkpt lat="43.62635" lon="2.39323">
        <ele>664.619645</ele>
        <time>2021-10-18T13:33:44.000Z</time>
      </trkpt>
      <trkpt lat="43.62637" lon="2.39318">
        <ele>664.597534</ele>
        <time>2021-10-18T13:33:45.000Z</time>
      </trkpt>
      <trkpt lat="43.62638" lon="2.39313">
        <ele>664.576014</ele>
        <time>2021-10-18T13:33:46.000Z</time>
      </trkpt>
      <trkpt lat="43.62639" lon="2.39308">
        <ele>664.554426</ele>
        <time>2021-10-18T13:33:47.000Z</time>
      </trkpt>
      <trkpt lat="43.62641" lon="2.39303">
        <ele>664.532342</ele>
        <time>2021-10-18T13:33:48.000Z</time>
      </trkpt>
      <trkpt lat="43.62643" lon="2.39299">
        <ele>664.511124</ele>
        <time>2021-10-18T13:33:49.000Z</time>
      </trkpt>
      <trkpt lat="43.62645" lon="2.39294">
        <ele>664.488774</ele>
        <time>2021-10-18T13:33:50.000Z</time>
      </trkpt>
      <trkpt lat="43.62646" lon="2.39289">
        <ele>664.467556</ele>
        <time>2021-10-18T13:33:51.000Z</time>
      </trkpt>
      <trkpt lat="43.62648" lon="2.39284">
        <ele>664.445108</ele>
        <time>2021-10-18T13:33:52.000Z</time>
      </trkpt>
      <trkpt lat="43.6265" lon="2.39279">
        <ele>664.423891</ele>
        <time>2021-10-18T13:33:53.000Z</time>
      </trkpt>
      <trkpt lat="43.62652" lon="2.39275">
        <ele>664.401618</ele>
        <time>2021-10-18T13:33:54.000Z</time>
      </trkpt>
      <trkpt lat="43.62654" lon="2.3927">
        <ele>664.379095</ele>
        <time>2021-10-18T13:33:55.000Z</time>
      </trkpt>
      <trkpt lat="43.62656" lon="2.39266">
        <ele>664.357522</ele>
        <time>2021-10-18T13:33:56.000Z</time>
      </trkpt>
      <trkpt lat="43.62658" lon="2.39261">
        <ele>664.335662</ele>
        <time>2021-10-18T13:33:57.000Z</time>
      </trkpt>
      <trkpt lat="43.62661" lon="2.39257">
        <ele>664.313086</ele>
        <time>2021-10-18T13:33:58.000Z</time>
      </trkpt>
      <trkpt lat="43.62663" lon="2.39253">
        <ele>664.29285</ele>
        <time>2021-10-18T13:33:59.000Z</time>
      </trkpt>
      <trkpt lat="43.62666" lon="2.3925">
        <ele>664.272852</ele>
        <time>2021-10-18T13:34:00.000Z</time>
      </trkpt>
      <trkpt lat="43.62669" lon="2.39248">
        <ele>664.253488</ele>
        <time>2021-10-18T13:34:01.000Z</time>
      </trkpt>
      <trkpt lat="43.62672" lon="2.39247">
        <ele>664.235082</ele>
        <time>2021-10-18T13:34:02.000Z</time>
      </trkpt>
      <trkpt lat="43.62676" lon="2.39246">
        <ele>664.214824</ele>
        <time>2021-10-18T13:34:03.000Z</time>
      </trkpt>
      <trkpt lat="43.62679" lon="2.39245">
        <ele>664.194865</ele>
        <time>2021-10-18T13:34:04.000Z</time>
      </trkpt>
      <trkpt lat="43.62683" lon="2.39245">
        <ele>664.172821</ele>
        <time>2021-10-18T13:34:05.000Z</time>
      </trkpt>
      <trkpt lat="43.62687" lon="2.39244">
        <ele>664.150776</ele>
        <time>2021-10-18T13:34:06.000Z</time>
      </trkpt>
      <trkpt lat="43.62691" lon="2.39244">
        <ele>664.127622</ele>
        <time>2021-10-18T13:34:07.000Z</time>
      </trkpt>
      <trkpt lat="43.62695" lon="2.39244">
        <ele>664.105608</ele>
        <time>2021-10-18T13:34:08.000Z</time>
      </trkpt>
      <trkpt lat="43.62699" lon="2.39244">
        <ele>664.08189</ele>
        <time>2021-10-18T13:34:09.000Z</time>
      </trkpt>
      <trkpt lat="43.62703" lon="2.39244">
        <ele>664.058737</ele>
        <time>2021-10-18T13:34:10.000Z</time>
      </trkpt>
      <trkpt lat="43.62707" lon="2.39243">
        <ele>664.035019</ele>
        <time>2021-10-18T13:34:11.000Z</time>
      </trkpt>
      <trkpt lat="43.62712" lon="2.39243">
        <ele>664.01072</ele>
        <time>2021-10-18T13:34:12.000Z</time>
      </trkpt>
      <trkpt lat="43.62716" lon="2.39243">
        <ele>663.987523</ele>
        <time>2021-10-18T13:34:13.000Z</time>
      </trkpt>
      <trkpt lat="43.6272" lon="2.39242">
        <ele>663.963087</ele>
        <time>2021-10-18T13:34:14.000Z</time>
      </trkpt>
      <trkpt lat="43.62724" lon="2.39241">
        <ele>663.939212</ele>
        <time>2021-10-18T13:34:15.000Z</time>
      </trkpt>
      <trkpt lat="43.62728" lon="2.3924">
        <ele>663.861488</ele>
        <time>2021-10-18T13:34:16.000Z</time>
      </trkpt>
      <trkpt lat="43.62732" lon="2.39239">
        <ele>663.727443</ele>
        <time>2021-10-18T13:34:17.000Z</time>
      </trkpt>
      <trkpt lat="43.62736" lon="2.39238">
        <ele>663.595002</ele>
        <time>2021-10-18T13:34:18.000Z</time>
      </trkpt>
      <trkpt lat="43.6274" lon="2.39236">
        <ele>663.45972</ele>
        <time>2021-10-18T13:34:19.000Z</time>
      </trkpt>
      <trkpt lat="43.62743" lon="2.39234">
        <ele>663.322068</ele>
        <time>2021-10-18T13:34:20.000Z</time>
      </trkpt>
      <trkpt lat="43.62747" lon="2.39231">
        <ele>663.189381</ele>
        <time>2021-10-18T13:34:21.000Z</time>
      </trkpt>
      <trkpt lat="43.6275" lon="2.39229">
        <ele>663.060223</ele>
        <time>2021-10-18T13:34:22.000Z</time>
      </trkpt>
      <trkpt lat="43.62753" lon="2.39225">
        <ele>662.931349</ele>
        <time>2021-10-18T13:34:23.000Z</time>
      </trkpt>
      <trkpt lat="43.62756" lon="2.39222">
        <ele>662.805187</ele>
        <time>2021-10-18T13:34:24.000Z</time>
      </trkpt>
      <trkpt lat="43.62759" lon="2.39219">
        <ele>662.677726</ele>
        <time>2021-10-18T13:34:25.000Z</time>
      </trkpt>
      <trkpt lat="43.62763" lon="2.39217">
        <ele>662.552999</ele>
        <time>2021-10-18T13:34:26.000Z</time>
      </trkpt>
      <trkpt lat="43.62766" lon="2.39214">
        <ele>662.420933</ele>
        <time>2021-10-18T13:34:27.000Z</time>
      </trkpt>
      <trkpt lat="43.6277" lon="2.39211">
        <ele>662.275105</ele>
        <time>2021-10-18T13:34:28.000Z</time>
      </trkpt>
      <trkpt lat="43.62774" lon="2.39209">
        <ele>662.135012</ele>
        <time>2021-10-18T13:34:29.000Z</time>
      </trkpt>
      <trkpt lat="43.62778" lon="2.39208">
        <ele>661.987627</ele>
        <time>2021-10-18T13:34:30.000Z</time>
      </trkpt>
      <trkpt lat="43.62782" lon="2.39206">
        <ele>661.834406</ele>
        <time>2021-10-18T13:34:31.000Z</time>
      </trkpt>
      <trkpt lat="43.62787" lon="2.39205">
        <ele>661.66307</ele>
        <time>2021-10-18T13:34:32.000Z</time>
      </trkpt>
      <trkpt lat="43.62792" lon="2.39204">
        <ele>661.497178</ele>
        <time>2021-10-18T13:34:33.000Z</time>
      </trkpt>
      <trkpt lat="43.62797" lon="2.39204">
        <ele>661.328728</ele>
        <time>2021-10-18T13:34:34.000Z</time>
      </trkpt>
      <trkpt lat="43.62803" lon="2.39204">
        <ele>661.143366</ele>
        <time>2021-10-18T13:34:35.000Z</time>
      </trkpt>
      <trkpt lat="43.62808" lon="2.39204">
        <ele>660.954528</ele>
        <time>2021-10-18T13:34:36.000Z</time>
      </trkpt>
      <trkpt lat="43.62814" lon="2.39205">
        <ele>660.772531</ele>
        <time>2021-10-18T13:34:37.000Z</time>
      </trkpt>
      <trkpt lat="43.62819" lon="2.39205">
        <ele>660.580439</ele>
        <time>2021-10-18T13:34:38.000Z</time>
      </trkpt>
      <trkpt lat="43.62825" lon="2.39205">
        <ele>660.405256</ele>
        <time>2021-10-18T13:34:39.000Z</time>
      </trkpt>
      <trkpt lat="43.62829" lon="2.39205">
        <ele>660.243611</ele>
        <time>2021-10-18T13:34:40.000Z</time>
      </trkpt>
      <trkpt lat="43.62834" lon="2.39205">
        <ele>660.095117</ele>
        <time>2021-10-18T13:34:41.000Z</time>
      </trkpt>
      <trkpt lat="43.62837" lon="2.39205">
        <ele>659.980592</ele>
        <time>2021-10-18T13:34:42.000Z</time>
      </trkpt>
      <trkpt lat="43.6284" lon="2.39205">
        <ele>659.879535</ele>
        <time>2021-10-18T13:34:43.000Z</time>
      </trkpt>
      <trkpt lat="43.62843" lon="2.39204">
        <ele>659.777454</ele>
        <time>2021-10-18T13:34:44.000Z</time>
      </trkpt>
      <trkpt lat="43.62846" lon="2.39203">
        <ele>659.688683</ele>
        <time>2021-10-18T13:34:45.000Z</time>
      </trkpt>
      <trkpt lat="43.62848" lon="2.39203">
        <ele>659.614236</ele>
        <time>2021-10-18T13:34:46.000Z</time>
      </trkpt>
      <trkpt lat="43.6285" lon="2.39203">
        <ele>659.543517</ele>
        <time>2021-10-18T13:34:47.000Z</time>
      </trkpt>
      <trkpt lat="43.62853" lon="2.39204">
        <ele>659.451423</ele>
        <time>2021-10-18T13:34:48.000Z</time>
      </trkpt>
      <trkpt lat="43.62856" lon="2.39206">
        <ele>659.338182</ele>
        <time>2021-10-18T13:34:49.000Z</time>
      </trkpt>
      <trkpt lat="43.62859" lon="2.39209">
        <ele>659.196843</ele>
        <time>2021-10-18T13:34:50.000Z</time>
      </trkpt>
      <trkpt lat="43.62863" lon="2.39213">
        <ele>659.044863</ele>
        <time>2021-10-18T13:34:51.000Z</time>
      </trkpt>
      <trkpt lat="43.62866" lon="2.39217">
        <ele>658.895737</ele>
        <time>2021-10-18T13:34:52.000Z</time>
      </trkpt>
      <trkpt lat="43.62869" lon="2.39222">
        <ele>658.744809</ele>
        <time>2021-10-18T13:34:53.000Z</time>
      </trkpt>
      <trkpt lat="43.62872" lon="2.39227">
        <ele>658.585742</ele>
        <time>2021-10-18T13:34:54.000Z</time>
      </trkpt>
      <trkpt lat="43.62875" lon="2.39232">
        <ele>658.418517</ele>
        <time>2021-10-18T13:34:55.000Z</time>
      </trkpt>
      <trkpt lat="43.62879" lon="2.39237">
        <ele>658.245432</ele>
        <time>2021-10-18T13:34:56.000Z</time>
      </trkpt>
      <trkpt lat="43.62883" lon="2.39242">
        <ele>658.063591</ele>
        <time>2021-10-18T13:34:57.000Z</time>
      </trkpt>
      <trkpt lat="43.62887" lon="2.39247">
        <ele>657.881066</ele>
        <time>2021-10-18T13:34:58.000Z</time>
      </trkpt>
      <trkpt lat="43.62891" lon="2.39253">
        <ele>658.021965</ele>
        <time>2021-10-18T13:34:59.000Z</time>
      </trkpt>
      <trkpt lat="43.62895" lon="2.39257">
        <ele>658.182002</ele>
        <time>2021-10-18T13:35:00.000Z</time>
      </trkpt>
      <trkpt lat="43.62898" lon="2.39262">
        <ele>658.332347</ele>
        <time>2021-10-18T13:35:01.000Z</time>
      </trkpt>
      <trkpt lat="43.62904" lon="2.39267">
        <ele>658.522751</ele>
        <time>2021-10-18T13:35:02.000Z</time>
      </trkpt>
      <trkpt lat="43.62908" lon="2.39271">
        <ele>658.684794</ele>
        <time>2021-10-18T13:35:03.000Z</time>
      </trkpt>
      <trkpt lat="43.62913" lon="2.39276">
        <ele>658.858014</ele>
        <time>2021-10-18T13:35:04.000Z</time>
      </trkpt>
      <trkpt lat="43.62918" lon="2.3928">
        <ele>659.029861</ele>
        <time>2021-10-18T13:35:05.000Z</time>
      </trkpt>
      <trkpt lat="43.62923" lon="2.39284">
        <ele>659.210801</ele>
        <time>2021-10-18T13:35:06.000Z</time>
      </trkpt>
      <trkpt lat="43.62928" lon="2.39288">
        <ele>659.384361</ele>
        <time>2021-10-18T13:35:07.000Z</time>
      </trkpt>
      <trkpt lat="43.62933" lon="2.39292">
        <ele>659.549474</ele>
        <time>2021-10-18T13:35:08.000Z</time>
      </trkpt>
      <trkpt lat="43.62937" lon="2.39295">
        <ele>659.708284</ele>
        <time>2021-10-18T13:35:09.000Z</time>
      </trkpt>
      <trkpt lat="43.62942" lon="2.39299">
        <ele>659.872034</ele>
        <time>2021-10-18T13:35:10.000Z</time>
      </trkpt>
      <trkpt lat="43.62947" lon="2.39302">
        <ele>660.032131</ele>
        <time>2021-10-18T13:35:11.000Z</time>
      </trkpt>
      <trkpt lat="43.62952" lon="2.39305">
        <ele>660.187813</ele>
        <time>2021-10-18T13:35:12.000Z</time>
      </trkpt>
      <trkpt lat="43.62956" lon="2.39307">
        <ele>660.33711</ele>
        <time>2021-10-18T13:35:13.000Z</time>
      </trkpt>
      <trkpt lat="43.62961" lon="2.3931">
        <ele>660.498953</ele>
        <time>2021-10-18T13:35:14.000Z</time>
      </trkpt>
      <trkpt lat="43.62967" lon="2.39312">
        <ele>660.663993</ele>
        <time>2021-10-18T13:35:15.000Z</time>
      </trkpt>
      <trkpt lat="43.62972" lon="2.39313">
        <ele>660.819205</ele>
        <time>2021-10-18T13:35:16.000Z</time>
      </trkpt>
      <trkpt lat="43.62977" lon="2.39315">
        <ele>660.977877</ele>
        <time>2021-10-18T13:35:17.000Z</time>
      </trkpt>
      <trkpt lat="43.62982" lon="2.39318">
        <ele>661.141891</ele>
        <time>2021-10-18T13:35:18.000Z</time>
      </trkpt>
      <trkpt lat="43.62987" lon="2.3932">
        <ele>661.296765</ele>
        <time>2021-10-18T13:35:19.000Z</time>
      </trkpt>
      <trkpt lat="43.62991" lon="2.39323">
        <ele>661.449568</ele>
        <time>2021-10-18T13:35:20.000Z</time>
      </trkpt>
      <trkpt lat="43.62996" lon="2.39326">
        <ele>661.608853</ele>
        <time>2021-10-18T13:35:21.000Z</time>
      </trkpt>
      <trkpt lat="43.63001" lon="2.39329">
        <ele>661.760935</ele>
        <time>2021-10-18T13:35:22.000Z</time>
      </trkpt>
      <trkpt lat="43.63006" lon="2.3933">
        <ele>661.912182</ele>
        <time>2021-10-18T13:35:23.000Z</time>
      </trkpt>
      <trkpt lat="43.6301" lon="2.3933">
        <ele>662.047516</ele>
        <time>2021-10-18T13:35:24.000Z</time>
      </trkpt>
      <trkpt lat="43.63014" lon="2.39328">
        <ele>662.180443</ele>
        <time>2021-10-18T13:35:25.000Z</time>
      </trkpt>
      <trkpt lat="43.63019" lon="2.39324">
        <ele>662.32667</ele>
        <time>2021-10-18T13:35:26.000Z</time>
      </trkpt>
      <trkpt lat="43.63023" lon="2.3932">
        <ele>662.477443</ele>
        <time>2021-10-18T13:35:27.000Z</time>
      </trkpt>
      <trkpt lat="43.63027" lon="2.39316">
        <ele>662.620949</ele>
        <time>2021-10-18T13:35:28.000Z</time>
      </trkpt>
      <trkpt lat="43.63031" lon="2.39312">
        <ele>662.770563</ele>
        <time>2021-10-18T13:35:29.000Z</time>
      </trkpt>
      <trkpt lat="43.63035" lon="2.39308">
        <ele>662.922735</ele>
        <time>2021-10-18T13:35:30.000Z</time>
      </trkpt>
      <trkpt lat="43.63039" lon="2.39305">
        <ele>663.073784</ele>
        <time>2021-10-18T13:35:31.000Z</time>
      </trkpt>
      <trkpt lat="43.63044" lon="2.39302">
        <ele>663.226586</ele>
        <time>2021-10-18T13:35:32.000Z</time>
      </trkpt>
      <trkpt lat="43.63049" lon="2.393">
        <ele>663.258629</ele>
        <time>2021-10-18T13:35:33.000Z</time>
      </trkpt>
      <trkpt lat="43.63053" lon="2.39297">
        <ele>663.237294</ele>
        <time>2021-10-18T13:35:34.000Z</time>
      </trkpt>
      <trkpt lat="43.63058" lon="2.39295">
        <ele>663.215782</ele>
        <time>2021-10-18T13:35:35.000Z</time>
      </trkpt>
      <trkpt lat="43.63063" lon="2.39292">
        <ele>663.193355</ele>
        <time>2021-10-18T13:35:36.000Z</time>
      </trkpt>
      <trkpt lat="43.63068" lon="2.3929">
        <ele>663.171735</ele>
        <time>2021-10-18T13:35:37.000Z</time>
      </trkpt>
      <trkpt lat="43.63073" lon="2.39288">
        <ele>663.14922</ele>
        <time>2021-10-18T13:35:38.000Z</time>
      </trkpt>
      <trkpt lat="43.63078" lon="2.39285">
        <ele>663.127312</ele>
        <time>2021-10-18T13:35:39.000Z</time>
      </trkpt>
      <trkpt lat="43.63083" lon="2.39283">
        <ele>663.105288</ele>
        <time>2021-10-18T13:35:40.000Z</time>
      </trkpt>
      <trkpt lat="43.63088" lon="2.39281">
        <ele>663.084472</ele>
        <time>2021-10-18T13:35:41.000Z</time>
      </trkpt>
      <trkpt lat="43.63093" lon="2.39279">
        <ele>663.061462</ele>
        <time>2021-10-18T13:35:42.000Z</time>
      </trkpt>
      <trkpt lat="43.63098" lon="2.39276">
        <ele>663.038657</ele>
        <time>2021-10-18T13:35:43.000Z</time>
      </trkpt>
      <trkpt lat="43.63103" lon="2.39274">
        <ele>663.015246</ele>
        <time>2021-10-18T13:35:44.000Z</time>
      </trkpt>
      <trkpt lat="43.63109" lon="2.39272">
        <ele>662.99152</ele>
        <time>2021-10-18T13:35:45.000Z</time>
      </trkpt>
      <trkpt lat="43.63114" lon="2.39269">
        <ele>662.966408</ele>
        <time>2021-10-18T13:35:46.000Z</time>
      </trkpt>
      <trkpt lat="43.6312" lon="2.39267">
        <ele>662.942008</ele>
        <time>2021-10-18T13:35:47.000Z</time>
      </trkpt>
      <trkpt lat="43.63125" lon="2.39264">
        <ele>662.917207</ele>
        <time>2021-10-18T13:35:48.000Z</time>
      </trkpt>
      <trkpt lat="43.63131" lon="2.39262">
        <ele>662.893108</ele>
        <time>2021-10-18T13:35:49.000Z</time>
      </trkpt>
      <trkpt lat="43.63137" lon="2.39259">
        <ele>662.867906</ele>
        <time>2021-10-18T13:35:50.000Z</time>
      </trkpt>
      <trkpt lat="43.63142" lon="2.39257">
        <ele>662.843505</ele>
        <time>2021-10-18T13:35:51.000Z</time>
      </trkpt>
      <trkpt lat="43.63147" lon="2.39254">
        <ele>662.8197</ele>
        <time>2021-10-18T13:35:52.000Z</time>
      </trkpt>
      <trkpt lat="43.63153" lon="2.39251">
        <ele>662.794705</ele>
        <time>2021-10-18T13:35:53.000Z</time>
      </trkpt>
      <trkpt lat="43.63158" lon="2.39249">
        <ele>662.771104</ele>
        <time>2021-10-18T13:35:54.000Z</time>
      </trkpt>
      <trkpt lat="43.63163" lon="2.39247">
        <ele>662.748094</ele>
        <time>2021-10-18T13:35:55.000Z</time>
      </trkpt>
      <trkpt lat="43.63168" lon="2.39244">
        <ele>662.72598</ele>
        <time>2021-10-18T13:35:56.000Z</time>
      </trkpt>
      <trkpt lat="43.63173" lon="2.39242">
        <ele>662.70436</ele>
        <time>2021-10-18T13:35:57.000Z</time>
      </trkpt>
      <trkpt lat="43.63178" lon="2.3924">
        <ele>662.682337</ele>
        <time>2021-10-18T13:35:58.000Z</time>
      </trkpt>
      <trkpt lat="43.63183" lon="2.39238">
        <ele>662.661209</ele>
        <time>2021-10-18T13:35:59.000Z</time>
      </trkpt>
      <trkpt lat="43.63188" lon="2.39236">
        <ele>662.640484</ele>
        <time>2021-10-18T13:36:00.000Z</time>
      </trkpt>
      <trkpt lat="43.63192" lon="2.39234">
        <ele>662.620161</ele>
        <time>2021-10-18T13:36:01.000Z</time>
      </trkpt>
      <trkpt lat="43.63197" lon="2.39232">
        <ele>662.598794</ele>
        <time>2021-10-18T13:36:02.000Z</time>
      </trkpt>
      <trkpt lat="43.63202" lon="2.3923">
        <ele>662.577174</ele>
        <time>2021-10-18T13:36:03.000Z</time>
      </trkpt>
      <trkpt lat="43.63207" lon="2.39228">
        <ele>662.55666</ele>
        <time>2021-10-18T13:36:04.000Z</time>
      </trkpt>
      <trkpt lat="43.63211" lon="2.39226">
        <ele>662.536544</ele>
        <time>2021-10-18T13:36:05.000Z</time>
      </trkpt>
      <trkpt lat="43.63215" lon="2.39224">
        <ele>662.51822</ele>
        <time>2021-10-18T13:36:06.000Z</time>
      </trkpt>
      <trkpt lat="43.6322" lon="2.39222">
        <ele>662.590221</ele>
        <time>2021-10-18T13:36:07.000Z</time>
      </trkpt>
      <trkpt lat="43.63225" lon="2.3922">
        <ele>662.669857</ele>
        <time>2021-10-18T13:36:08.000Z</time>
      </trkpt>
      <trkpt lat="43.63229" lon="2.39218">
        <ele>662.743819</ele>
        <time>2021-10-18T13:36:09.000Z</time>
      </trkpt>
      <trkpt lat="43.63232" lon="2.39216">
        <ele>662.81126</ele>
        <time>2021-10-18T13:36:10.000Z</time>
      </trkpt>
      <trkpt lat="43.63237" lon="2.39214">
        <ele>662.887338</ele>
        <time>2021-10-18T13:36:11.000Z</time>
      </trkpt>
      <trkpt lat="43.63241" lon="2.39212">
        <ele>662.960473</ele>
        <time>2021-10-18T13:36:12.000Z</time>
      </trkpt>
      <trkpt lat="43.63244" lon="2.3921">
        <ele>663.032436</ele>
        <time>2021-10-18T13:36:13.000Z</time>
      </trkpt>
      <trkpt lat="43.63249" lon="2.39208">
        <ele>663.108813</ele>
        <time>2021-10-18T13:36:14.000Z</time>
      </trkpt>
      <trkpt lat="43.63252" lon="2.39206">
        <ele>663.177878</ele>
        <time>2021-10-18T13:36:15.000Z</time>
      </trkpt>
      <trkpt lat="43.63256" lon="2.39204">
        <ele>663.244915</ele>
        <time>2021-10-18T13:36:16.000Z</time>
      </trkpt>
      <trkpt lat="43.6326" lon="2.39203">
        <ele>663.308699</ele>
        <time>2021-10-18T13:36:17.000Z</time>
      </trkpt>
      <trkpt lat="43.63263" lon="2.39201">
        <ele>663.371701</ele>
        <time>2021-10-18T13:36:18.000Z</time>
      </trkpt>
      <trkpt lat="43.63267" lon="2.392">
        <ele>663.436</ele>
        <time>2021-10-18T13:36:19.000Z</time>
      </trkpt>
      <trkpt lat="43.6327" lon="2.39198">
        <ele>663.492894</ele>
        <time>2021-10-18T13:36:20.000Z</time>
      </trkpt>
      <trkpt lat="43.63273" lon="2.39197">
        <ele>663.553226</ele>
        <time>2021-10-18T13:36:21.000Z</time>
      </trkpt>
      <trkpt lat="43.63276" lon="2.39196">
        <ele>663.607956</ele>
        <time>2021-10-18T13:36:22.000Z</time>
      </trkpt>
      <trkpt lat="43.6328" lon="2.39195">
        <ele>663.668591</ele>
        <time>2021-10-18T13:36:23.000Z</time>
      </trkpt>
      <trkpt lat="43.63283" lon="2.39195">
        <ele>663.727376</ele>
        <time>2021-10-18T13:36:24.000Z</time>
      </trkpt>
      <trkpt lat="43.63287" lon="2.39194">
        <ele>663.784234</ele>
        <time>2021-10-18T13:36:25.000Z</time>
      </trkpt>
      <trkpt lat="43.63289" lon="2.39194">
        <ele>663.830804</ele>
        <time>2021-10-18T13:36:26.000Z</time>
      </trkpt>
      <trkpt lat="43.63292" lon="2.39194">
        <ele>663.882381</ele>
        <time>2021-10-18T13:36:27.000Z</time>
      </trkpt>
      <trkpt lat="43.63295" lon="2.39194">
        <ele>663.935693</ele>
        <time>2021-10-18T13:36:28.000Z</time>
      </trkpt>
      <trkpt lat="43.63298" lon="2.39194">
        <ele>663.989004</ele>
        <time>2021-10-18T13:36:29.000Z</time>
      </trkpt>
      <trkpt lat="43.63301" lon="2.39195">
        <ele>664.03911</ele>
        <time>2021-10-18T13:36:30.000Z</time>
      </trkpt>
      <trkpt lat="43.63304" lon="2.39195">
        <ele>664.087313</ele>
        <time>2021-10-18T13:36:31.000Z</time>
      </trkpt>
      <trkpt lat="43.63307" lon="2.39194">
        <ele>664.141131</ele>
        <time>2021-10-18T13:36:32.000Z</time>
      </trkpt>
      <trkpt lat="43.6331" lon="2.39193">
        <ele>664.196418</ele>
        <time>2021-10-18T13:36:33.000Z</time>
      </trkpt>
      <trkpt lat="43.63313" lon="2.3919">
        <ele>664.261578</ele>
        <time>2021-10-18T13:36:34.000Z</time>
      </trkpt>
      <trkpt lat="43.63316" lon="2.39185">
        <ele>664.333158</ele>
        <time>2021-10-18T13:36:35.000Z</time>
      </trkpt>
      <trkpt lat="43.63318" lon="2.39179">
        <ele>664.41164</ele>
        <time>2021-10-18T13:36:36.000Z</time>
      </trkpt>
      <trkpt lat="43.63319" lon="2.39173">
        <ele>664.491897</ele>
        <time>2021-10-18T13:36:37.000Z</time>
      </trkpt>
      <trkpt lat="43.6332" lon="2.39167">
        <ele>664.572714</ele>
        <time>2021-10-18T13:36:38.000Z</time>
      </trkpt>
      <trkpt lat="43.6332" lon="2.3916">
        <ele>664.650796</ele>
        <time>2021-10-18T13:36:39.000Z</time>
      </trkpt>
      <trkpt lat="43.63321" lon="2.39154">
        <ele>664.726714</ele>
        <time>2021-10-18T13:36:40.000Z</time>
      </trkpt>
      <trkpt lat="43.63322" lon="2.39149">
        <ele>664.798963</ele>
        <time>2021-10-18T13:36:41.000Z</time>
      </trkpt>
      <trkpt lat="43.63323" lon="2.39143">
        <ele>664.868175</ele>
        <time>2021-10-18T13:36:42.000Z</time>
      </trkpt>
      <trkpt lat="43.63323" lon="2.39138">
        <ele>664.930771</ele>
        <time>2021-10-18T13:36:43.000Z</time>
      </trkpt>
      <trkpt lat="43.63324" lon="2.39133">
        <ele>664.991384</ele>
        <time>2021-10-18T13:36:44.000Z</time>
      </trkpt>
      <trkpt lat="43.63325" lon="2.39129">
        <ele>665.05115</ele>
        <time>2021-10-18T13:36:45.000Z</time>
      </trkpt>
      <trkpt lat="43.63325" lon="2.39125">
        <ele>665.105994</ele>
        <time>2021-10-18T13:36:46.000Z</time>
      </trkpt>
      <trkpt lat="43.63326" lon="2.3912">
        <ele>665.162645</ele>
        <time>2021-10-18T13:36:47.000Z</time>
      </trkpt>
      <trkpt lat="43.63326" lon="2.39115">
        <ele>665.221137</ele>
        <time>2021-10-18T13:36:48.000Z</time>
      </trkpt>
      <trkpt lat="43.63327" lon="2.39111">
        <ele>665.27613</ele>
        <time>2021-10-18T13:36:49.000Z</time>
      </trkpt>
      <trkpt lat="43.63327" lon="2.39107">
        <ele>665.327868</ele>
        <time>2021-10-18T13:36:50.000Z</time>
      </trkpt>
      <trkpt lat="43.63328" lon="2.39103">
        <ele>665.381498</ele>
        <time>2021-10-18T13:36:51.000Z</time>
      </trkpt>
      <trkpt lat="43.63328" lon="2.39099">
        <ele>665.429281</ele>
        <time>2021-10-18T13:36:52.000Z</time>
      </trkpt>
      <trkpt lat="43.63329" lon="2.39095">
        <ele>665.480489</ele>
        <time>2021-10-18T13:36:53.000Z</time>
      </trkpt>
      <trkpt lat="43.6333" lon="2.39091">
        <ele>665.532907</ele>
        <time>2021-10-18T13:36:54.000Z</time>
      </trkpt>
      <trkpt lat="43.63331" lon="2.39087">
        <ele>665.591578</ele>
        <time>2021-10-18T13:36:55.000Z</time>
      </trkpt>
      <trkpt lat="43.63332" lon="2.39082">
        <ele>665.461142</ele>
        <time>2021-10-18T13:36:56.000Z</time>
      </trkpt>
      <trkpt lat="43.63334" lon="2.39078">
        <ele>665.243745</ele>
        <time>2021-10-18T13:36:57.000Z</time>
      </trkpt>
      <trkpt lat="43.63337" lon="2.39073">
        <ele>665.023445</ele>
        <time>2021-10-18T13:36:58.000Z</time>
      </trkpt>
      <trkpt lat="43.6334" lon="2.39069">
        <ele>664.789089</ele>
        <time>2021-10-18T13:36:59.000Z</time>
      </trkpt>
      <trkpt lat="43.63342" lon="2.39065">
        <ele>664.55842</ele>
        <time>2021-10-18T13:37:00.000Z</time>
      </trkpt>
      <trkpt lat="43.63344" lon="2.3906">
        <ele>664.338259</ele>
        <time>2021-10-18T13:37:01.000Z</time>
      </trkpt>
      <trkpt lat="43.63347" lon="2.39056">
        <ele>664.111466</ele>
        <time>2021-10-18T13:37:02.000Z</time>
      </trkpt>
      <trkpt lat="43.63349" lon="2.39052">
        <ele>663.90792</ele>
        <time>2021-10-18T13:37:03.000Z</time>
      </trkpt>
      <trkpt lat="43.63351" lon="2.39048">
        <ele>663.701141</ele>
        <time>2021-10-18T13:37:04.000Z</time>
      </trkpt>
      <trkpt lat="43.63352" lon="2.39044">
        <ele>663.515678</ele>
        <time>2021-10-18T13:37:05.000Z</time>
      </trkpt>
      <trkpt lat="43.63354" lon="2.3904">
        <ele>663.347434</ele>
        <time>2021-10-18T13:37:06.000Z</time>
      </trkpt>
      <trkpt lat="43.63355" lon="2.39037">
        <ele>663.187996</ele>
        <time>2021-10-18T13:37:07.000Z</time>
      </trkpt>
      <trkpt lat="43.63357" lon="2.39032">
        <ele>662.989889</ele>
        <time>2021-10-18T13:37:08.000Z</time>
      </trkpt>
      <trkpt lat="43.63358" lon="2.39028">
        <ele>662.774611</ele>
        <time>2021-10-18T13:37:09.000Z</time>
      </trkpt>
      <trkpt lat="43.6336" lon="2.39023">
        <ele>662.554614</ele>
        <time>2021-10-18T13:37:10.000Z</time>
      </trkpt>
      <trkpt lat="43.63362" lon="2.39018">
        <ele>662.31444</ele>
        <time>2021-10-18T13:37:11.000Z</time>
      </trkpt>
      <trkpt lat="43.63365" lon="2.39014">
        <ele>662.076318</ele>
        <time>2021-10-18T13:37:12.000Z</time>
      </trkpt>
      <trkpt lat="43.63369" lon="2.3901">
        <ele>661.825649</ele>
        <time>2021-10-18T13:37:13.000Z</time>
      </trkpt>
      <trkpt lat="43.63373" lon="2.39007">
        <ele>661.560396</ele>
        <time>2021-10-18T13:37:14.000Z</time>
      </trkpt>
      <trkpt lat="43.63378" lon="2.39005">
        <ele>661.242399</ele>
        <time>2021-10-18T13:37:15.000Z</time>
      </trkpt>
      <trkpt lat="43.63384" lon="2.39004">
        <ele>660.901893</ele>
        <time>2021-10-18T13:37:16.000Z</time>
      </trkpt>
      <trkpt lat="43.63391" lon="2.39003">
        <ele>660.511966</ele>
        <time>2021-10-18T13:37:17.000Z</time>
      </trkpt>
      <trkpt lat="43.63398" lon="2.39003">
        <ele>660.108096</ele>
        <time>2021-10-18T13:37:18.000Z</time>
      </trkpt>
      <trkpt lat="43.63405" lon="2.39004">
        <ele>659.705785</ele>
        <time>2021-10-18T13:37:19.000Z</time>
      </trkpt>
      <trkpt lat="43.63413" lon="2.39007">
        <ele>659.264941</ele>
        <time>2021-10-18T13:37:20.000Z</time>
      </trkpt>
      <trkpt lat="43.6342" lon="2.3901">
        <ele>658.820822</ele>
        <time>2021-10-18T13:37:21.000Z</time>
      </trkpt>
      <trkpt lat="43.63428" lon="2.39013">
        <ele>658.345934</ele>
        <time>2021-10-18T13:37:22.000Z</time>
      </trkpt>
      <trkpt lat="43.63436" lon="2.39017">
        <ele>657.89689</ele>
        <time>2021-10-18T13:37:23.000Z</time>
      </trkpt>
      <trkpt lat="43.63442" lon="2.39021">
        <ele>657.474936</ele>
        <time>2021-10-18T13:37:24.000Z</time>
      </trkpt>
      <trkpt lat="43.63449" lon="2.39027">
        <ele>657.039228</ele>
        <time>2021-10-18T13:37:25.000Z</time>
      </trkpt>
      <trkpt lat="43.63455" lon="2.39033">
        <ele>656.585085</ele>
        <time>2021-10-18T13:37:26.000Z</time>
      </trkpt>
      <trkpt lat="43.63463" lon="2.39039">
        <ele>656.105173</ele>
        <time>2021-10-18T13:37:27.000Z</time>
      </trkpt>
      <trkpt lat="43.6347" lon="2.39044">
        <ele>655.626014</ele>
        <time>2021-10-18T13:37:28.000Z</time>
      </trkpt>
      <trkpt lat="43.63478" lon="2.39049">
        <ele>655.257057</ele>
        <time>2021-10-18T13:37:29.000Z</time>
      </trkpt>
      <trkpt lat="43.63485" lon="2.39054">
        <ele>654.987054</ele>
        <time>2021-10-18T13:37:30.000Z</time>
      </trkpt>
      <trkpt lat="43.63493" lon="2.39057">
        <ele>654.73002</ele>
        <time>2021-10-18T13:37:31.000Z</time>
      </trkpt>
      <trkpt lat="43.63501" lon="2.39061">
        <ele>654.467762</ele>
        <time>2021-10-18T13:37:32.000Z</time>
      </trkpt>
      <trkpt lat="43.63509" lon="2.39065">
        <ele>654.192634</ele>
        <time>2021-10-18T13:37:33.000Z</time>
      </trkpt>
      <trkpt lat="43.63516" lon="2.39069">
        <ele>653.926572</ele>
        <time>2021-10-18T13:37:34.000Z</time>
      </trkpt>
      <trkpt lat="43.63524" lon="2.39073">
        <ele>653.679359</ele>
        <time>2021-10-18T13:37:35.000Z</time>
      </trkpt>
      <trkpt lat="43.6353" lon="2.39076">
        <ele>653.460252</ele>
        <time>2021-10-18T13:37:36.000Z</time>
      </trkpt>
      <trkpt lat="43.63535" lon="2.39078">
        <ele>653.285819</ele>
        <time>2021-10-18T13:37:37.000Z</time>
      </trkpt>
      <trkpt lat="43.63541" lon="2.3908">
        <ele>653.106439</ele>
        <time>2021-10-18T13:37:38.000Z</time>
      </trkpt>
      <trkpt lat="43.63547" lon="2.3908">
        <ele>652.920347</ele>
        <time>2021-10-18T13:37:39.000Z</time>
      </trkpt>
      <trkpt lat="43.63552" lon="2.3908">
        <ele>652.756617</ele>
        <time>2021-10-18T13:37:40.000Z</time>
      </trkpt>
      <trkpt lat="43.63556" lon="2.39081">
        <ele>652.602221</ele>
        <time>2021-10-18T13:37:41.000Z</time>
      </trkpt>
      <trkpt lat="43.63562" lon="2.39081">
        <ele>652.428457</ele>
        <time>2021-10-18T13:37:42.000Z</time>
      </trkpt>
      <trkpt lat="43.63567" lon="2.39082">
        <ele>652.261265</ele>
        <time>2021-10-18T13:37:43.000Z</time>
      </trkpt>
      <trkpt lat="43.63572" lon="2.39082">
        <ele>652.100622</ele>
        <time>2021-10-18T13:37:44.000Z</time>
      </trkpt>
      <trkpt lat="43.63577" lon="2.39083">
        <ele>651.927278</ele>
        <time>2021-10-18T13:37:45.000Z</time>
      </trkpt>
      <trkpt lat="43.63583" lon="2.39083">
        <ele>651.744392</ele>
        <time>2021-10-18T13:37:46.000Z</time>
      </trkpt>
      <trkpt lat="43.63588" lon="2.39083">
        <ele>651.574332</ele>
        <time>2021-10-18T13:37:47.000Z</time>
      </trkpt>
      <trkpt lat="43.63593" lon="2.39083">
        <ele>651.413807</ele>
        <time>2021-10-18T13:37:48.000Z</time>
      </trkpt>
      <trkpt lat="43.63599" lon="2.39082">
        <ele>651.243668</ele>
        <time>2021-10-18T13:37:49.000Z</time>
      </trkpt>
      <trkpt lat="43.63603" lon="2.39082">
        <ele>651.096105</ele>
        <time>2021-10-18T13:37:50.000Z</time>
      </trkpt>
      <trkpt lat="43.63607" lon="2.39082">
        <ele>650.990156</ele>
        <time>2021-10-18T13:37:51.000Z</time>
      </trkpt>
      <trkpt lat="43.6361" lon="2.39081">
        <ele>650.88585</ele>
        <time>2021-10-18T13:37:52.000Z</time>
      </trkpt>
      <trkpt lat="43.63613" lon="2.3908">
        <ele>650.768979</ele>
        <time>2021-10-18T13:37:53.000Z</time>
      </trkpt>
      <trkpt lat="43.63617" lon="2.39078">
        <ele>650.645299</ele>
        <time>2021-10-18T13:37:54.000Z</time>
      </trkpt>
      <trkpt lat="43.6362" lon="2.39077">
        <ele>650.532743</ele>
        <time>2021-10-18T13:37:55.000Z</time>
      </trkpt>
      <trkpt lat="43.63624" lon="2.39076">
        <ele>650.41579</ele>
        <time>2021-10-18T13:37:56.000Z</time>
      </trkpt>
      <trkpt lat="43.63628" lon="2.39076">
        <ele>650.292499</ele>
        <time>2021-10-18T13:37:57.000Z</time>
      </trkpt>
      <trkpt lat="43.63631" lon="2.39075">
        <ele>650.178309</ele>
        <time>2021-10-18T13:37:58.000Z</time>
      </trkpt>
      <trkpt lat="43.63634" lon="2.39074">
        <ele>650.089223</ele>
        <time>2021-10-18T13:37:59.000Z</time>
      </trkpt>
      <trkpt lat="43.63637" lon="2.39073">
        <ele>649.995192</ele>
        <time>2021-10-18T13:38:00.000Z</time>
      </trkpt>
      <trkpt lat="43.6364" lon="2.39071">
        <ele>649.891932</ele>
        <time>2021-10-18T13:38:01.000Z</time>
      </trkpt>
      <trkpt lat="43.63643" lon="2.3907">
        <ele>649.784043</ele>
        <time>2021-10-18T13:38:02.000Z</time>
      </trkpt>
      <trkpt lat="43.63646" lon="2.3907">
        <ele>649.680462</ele>
        <time>2021-10-18T13:38:03.000Z</time>
      </trkpt>
      <trkpt lat="43.6365" lon="2.3907">
        <ele>649.609745</ele>
        <time>2021-10-18T13:38:04.000Z</time>
      </trkpt>
      <trkpt lat="43.63654" lon="2.39069">
        <ele>649.615863</ele>
        <time>2021-10-18T13:38:05.000Z</time>
      </trkpt>
      <trkpt lat="43.63659" lon="2.39067">
        <ele>649.622767</ele>
        <time>2021-10-18T13:38:06.000Z</time>
      </trkpt>
      <trkpt lat="43.63664" lon="2.39065">
        <ele>649.630501</ele>
        <time>2021-10-18T13:38:07.000Z</time>
      </trkpt>
      <trkpt lat="43.63668" lon="2.39062">
        <ele>649.636983</ele>
        <time>2021-10-18T13:38:08.000Z</time>
      </trkpt>
      <trkpt lat="43.63673" lon="2.39059">
        <ele>649.644981</ele>
        <time>2021-10-18T13:38:09.000Z</time>
      </trkpt>
      <trkpt lat="43.63676" lon="2.39054">
        <ele>649.652534</ele>
        <time>2021-10-18T13:38:10.000Z</time>
      </trkpt>
      <trkpt lat="43.63679" lon="2.39049">
        <ele>649.658764</ele>
        <time>2021-10-18T13:38:11.000Z</time>
      </trkpt>
      <trkpt lat="43.63681" lon="2.39045">
        <ele>649.664727</ele>
        <time>2021-10-18T13:38:12.000Z</time>
      </trkpt>
      <trkpt lat="43.63683" lon="2.39039">
        <ele>649.671927</ele>
        <time>2021-10-18T13:38:13.000Z</time>
      </trkpt>
      <trkpt lat="43.63686" lon="2.39032">
        <ele>649.679971</ele>
        <time>2021-10-18T13:38:14.000Z</time>
      </trkpt>
      <trkpt lat="43.63689" lon="2.39026">
        <ele>649.688284</ele>
        <time>2021-10-18T13:38:15.000Z</time>
      </trkpt>
      <trkpt lat="43.63692" lon="2.39019">
        <ele>649.696979</ele>
        <time>2021-10-18T13:38:16.000Z</time>
      </trkpt>
      <trkpt lat="43.63695" lon="2.39011">
        <ele>649.706284</ele>
        <time>2021-10-18T13:38:17.000Z</time>
      </trkpt>
      <trkpt lat="43.63697" lon="2.39004">
        <ele>649.714564</ele>
        <time>2021-10-18T13:38:18.000Z</time>
      </trkpt>
      <trkpt lat="43.63699" lon="2.38997">
        <ele>649.722002</ele>
        <time>2021-10-18T13:38:19.000Z</time>
      </trkpt>
      <trkpt lat="43.637" lon="2.3899">
        <ele>649.729746</ele>
        <time>2021-10-18T13:38:20.000Z</time>
      </trkpt>
      <trkpt lat="43.63702" lon="2.38983">
        <ele>649.738201</ele>
        <time>2021-10-18T13:38:21.000Z</time>
      </trkpt>
      <trkpt lat="43.63705" lon="2.38976">
        <ele>649.746463</ele>
        <time>2021-10-18T13:38:22.000Z</time>
      </trkpt>
      <trkpt lat="43.63706" lon="2.38969">
        <ele>649.753887</ele>
        <time>2021-10-18T13:38:23.000Z</time>
      </trkpt>
      <trkpt lat="43.63708" lon="2.38962">
        <ele>649.762112</ele>
        <time>2021-10-18T13:38:24.000Z</time>
      </trkpt>
      <trkpt lat="43.63711" lon="2.38955">
        <ele>649.770439</ele>
        <time>2021-10-18T13:38:25.000Z</time>
      </trkpt>
      <trkpt lat="43.63715" lon="2.38949">
        <ele>649.779166</ele>
        <time>2021-10-18T13:38:26.000Z</time>
      </trkpt>
      <trkpt lat="43.63719" lon="2.38943">
        <ele>649.78775</ele>
        <time>2021-10-18T13:38:27.000Z</time>
      </trkpt>
      <trkpt lat="43.63722" lon="2.38936">
        <ele>649.796838</ele>
        <time>2021-10-18T13:38:28.000Z</time>
      </trkpt>
      <trkpt lat="43.63726" lon="2.3893">
        <ele>649.805568</ele>
        <time>2021-10-18T13:38:29.000Z</time>
      </trkpt>
      <trkpt lat="43.63729" lon="2.38923">
        <ele>649.814337</ele>
        <time>2021-10-18T13:38:30.000Z</time>
      </trkpt>
      <trkpt lat="43.63732" lon="2.38915">
        <ele>649.823126</ele>
        <time>2021-10-18T13:38:31.000Z</time>
      </trkpt>
      <trkpt lat="43.63735" lon="2.38908">
        <ele>649.832317</ele>
        <time>2021-10-18T13:38:32.000Z</time>
      </trkpt>
      <trkpt lat="43.63738" lon="2.389">
        <ele>649.841364</ele>
        <time>2021-10-18T13:38:33.000Z</time>
      </trkpt>
      <trkpt lat="43.63741" lon="2.38893">
        <ele>649.850176</ele>
        <time>2021-10-18T13:38:34.000Z</time>
      </trkpt>
      <trkpt lat="43.63744" lon="2.38886">
        <ele>649.859295</ele>
        <time>2021-10-18T13:38:35.000Z</time>
      </trkpt>
      <trkpt lat="43.63747" lon="2.38878">
        <ele>649.868156</ele>
        <time>2021-10-18T13:38:36.000Z</time>
      </trkpt>
      <trkpt lat="43.6375" lon="2.38871">
        <ele>649.87893</ele>
        <time>2021-10-18T13:38:37.000Z</time>
      </trkpt>
      <trkpt lat="43.63753" lon="2.38864">
        <ele>649.89036</ele>
        <time>2021-10-18T13:38:38.000Z</time>
      </trkpt>
      <trkpt lat="43.63756" lon="2.38858">
        <ele>649.901126</ele>
        <time>2021-10-18T13:38:39.000Z</time>
      </trkpt>
      <trkpt lat="43.63758" lon="2.38851">
        <ele>649.912016</ele>
        <time>2021-10-18T13:38:40.000Z</time>
      </trkpt>
      <trkpt lat="43.63761" lon="2.38844">
        <ele>649.923324</ele>
        <time>2021-10-18T13:38:41.000Z</time>
      </trkpt>
      <trkpt lat="43.63764" lon="2.38837">
        <ele>649.934371</ele>
        <time>2021-10-18T13:38:42.000Z</time>
      </trkpt>
      <trkpt lat="43.63766" lon="2.3883">
        <ele>649.945338</ele>
        <time>2021-10-18T13:38:43.000Z</time>
      </trkpt>
      <trkpt lat="43.63769" lon="2.38823">
        <ele>649.956905</ele>
        <time>2021-10-18T13:38:44.000Z</time>
      </trkpt>
      <trkpt lat="43.6377" lon="2.38815">
        <ele>649.967654</ele>
        <time>2021-10-18T13:38:45.000Z</time>
      </trkpt>
      <trkpt lat="43.63772" lon="2.38808">
        <ele>649.978341</ele>
        <time>2021-10-18T13:38:46.000Z</time>
      </trkpt>
      <trkpt lat="43.63775" lon="2.38802">
        <ele>649.988579</ele>
        <time>2021-10-18T13:38:47.000Z</time>
      </trkpt>
      <trkpt lat="43.63776" lon="2.38795">
        <ele>649.999128</ele>
        <time>2021-10-18T13:38:48.000Z</time>
      </trkpt>
      <trkpt lat="43.63778" lon="2.38787">
        <ele>650.009896</ele>
        <time>2021-10-18T13:38:49.000Z</time>
      </trkpt>
      <trkpt lat="43.63779" lon="2.3878">
        <ele>650.020536</ele>
        <time>2021-10-18T13:38:50.000Z</time>
      </trkpt>
      <trkpt lat="43.63781" lon="2.38774">
        <ele>650.030017</ele>
        <time>2021-10-18T13:38:51.000Z</time>
      </trkpt>
      <trkpt lat="43.63782" lon="2.38768">
        <ele>650.038564</ele>
        <time>2021-10-18T13:38:52.000Z</time>
      </trkpt>
      <trkpt lat="43.63783" lon="2.38763">
        <ele>650.04678</ele>
        <time>2021-10-18T13:38:53.000Z</time>
      </trkpt>
      <trkpt lat="43.63785" lon="2.38757">
        <ele>650.055481</ele>
        <time>2021-10-18T13:38:54.000Z</time>
      </trkpt>
      <trkpt lat="43.63787" lon="2.38751">
        <ele>650.064163</ele>
        <time>2021-10-18T13:38:55.000Z</time>
      </trkpt>
      <trkpt lat="43.63788" lon="2.38746">
        <ele>650.072576</ele>
        <time>2021-10-18T13:38:56.000Z</time>
      </trkpt>
      <trkpt lat="43.63789" lon="2.3874">
        <ele>650.081138</ele>
        <time>2021-10-18T13:38:57.000Z</time>
      </trkpt>
      <trkpt lat="43.63789" lon="2.38734">
        <ele>650.090086</ele>
        <time>2021-10-18T13:38:58.000Z</time>
      </trkpt>
      <trkpt lat="43.63789" lon="2.38728">
        <ele>650.098038</ele>
        <time>2021-10-18T13:38:59.000Z</time>
      </trkpt>
      <trkpt lat="43.63788" lon="2.38722">
        <ele>650.106332</ele>
        <time>2021-10-18T13:39:00.000Z</time>
      </trkpt>
      <trkpt lat="43.63786" lon="2.38718">
        <ele>650.114048</ele>
        <time>2021-10-18T13:39:01.000Z</time>
      </trkpt>
      <trkpt lat="43.63784" lon="2.38714">
        <ele>650.121426</ele>
        <time>2021-10-18T13:39:02.000Z</time>
      </trkpt>
      <trkpt lat="43.63781" lon="2.3871">
        <ele>650.128887</ele>
        <time>2021-10-18T13:39:03.000Z</time>
      </trkpt>
      <trkpt lat="43.63778" lon="2.38706">
        <ele>650.136654</ele>
        <time>2021-10-18T13:39:04.000Z</time>
      </trkpt>
      <trkpt lat="43.63775" lon="2.38701">
        <ele>650.146209</ele>
        <time>2021-10-18T13:39:05.000Z</time>
      </trkpt>
      <trkpt lat="43.63773" lon="2.38694">
        <ele>650.156868</ele>
        <time>2021-10-18T13:39:06.000Z</time>
      </trkpt>
      <trkpt lat="43.63772" lon="2.38686">
        <ele>650.167557</ele>
        <time>2021-10-18T13:39:07.000Z</time>
      </trkpt>
      <trkpt lat="43.63772" lon="2.38679">
        <ele>650.17864</ele>
        <time>2021-10-18T13:39:08.000Z</time>
      </trkpt>
      <trkpt lat="43.63772" lon="2.38671">
        <ele>650.189744</ele>
        <time>2021-10-18T13:39:09.000Z</time>
      </trkpt>
      <trkpt lat="43.63773" lon="2.38663">
        <ele>650.200581</ele>
        <time>2021-10-18T13:39:10.000Z</time>
      </trkpt>
      <trkpt lat="43.63773" lon="2.38655">
        <ele>650.211983</ele>
        <time>2021-10-18T13:39:11.000Z</time>
      </trkpt>
      <trkpt lat="43.63773" lon="2.38647">
        <ele>650.223345</ele>
        <time>2021-10-18T13:39:12.000Z</time>
      </trkpt>
      <trkpt lat="43.63774" lon="2.38639">
        <ele>649.929589</ele>
        <time>2021-10-18T13:39:13.000Z</time>
      </trkpt>
      <trkpt lat="43.63774" lon="2.38631">
        <ele>649.565665</ele>
        <time>2021-10-18T13:39:14.000Z</time>
      </trkpt>
      <trkpt lat="43.63774" lon="2.38623">
        <ele>649.206716</ele>
        <time>2021-10-18T13:39:15.000Z</time>
      </trkpt>
      <trkpt lat="43.63775" lon="2.38616">
        <ele>648.874131</ele>
        <time>2021-10-18T13:39:16.000Z</time>
      </trkpt>
      <trkpt lat="43.63775" lon="2.38609">
        <ele>648.550058</ele>
        <time>2021-10-18T13:39:17.000Z</time>
      </trkpt>
      <trkpt lat="43.63776" lon="2.38601">
        <ele>648.211776</ele>
        <time>2021-10-18T13:39:18.000Z</time>
      </trkpt>
      <trkpt lat="43.63776" lon="2.38594">
        <ele>647.883181</ele>
        <time>2021-10-18T13:39:19.000Z</time>
      </trkpt>
      <trkpt lat="43.63777" lon="2.38587">
        <ele>647.562153</ele>
        <time>2021-10-18T13:39:20.000Z</time>
      </trkpt>
      <trkpt lat="43.63777" lon="2.38579">
        <ele>647.206914</ele>
        <time>2021-10-18T13:39:21.000Z</time>
      </trkpt>
      <trkpt lat="43.63778" lon="2.38571">
        <ele>646.843261</ele>
        <time>2021-10-18T13:39:22.000Z</time>
      </trkpt>
      <trkpt lat="43.63778" lon="2.38564">
        <ele>646.502539</ele>
        <time>2021-10-18T13:39:23.000Z</time>
      </trkpt>
      <trkpt lat="43.63777" lon="2.38557">
        <ele>646.202114</ele>
        <time>2021-10-18T13:39:24.000Z</time>
      </trkpt>
      <trkpt lat="43.63777" lon="2.38551">
        <ele>645.929536</ele>
        <time>2021-10-18T13:39:25.000Z</time>
      </trkpt>
      <trkpt lat="43.63777" lon="2.38545">
        <ele>645.656959</ele>
        <time>2021-10-18T13:39:26.000Z</time>
      </trkpt>
      <trkpt lat="43.63777" lon="2.38539">
        <ele>645.384093</ele>
        <time>2021-10-18T13:39:27.000Z</time>
      </trkpt>
      <trkpt lat="43.63779" lon="2.38532">
        <ele>645.059255</ele>
        <time>2021-10-18T13:39:28.000Z</time>
      </trkpt>
      <trkpt lat="43.63782" lon="2.38525">
        <ele>644.660505</ele>
        <time>2021-10-18T13:39:29.000Z</time>
      </trkpt>
      <trkpt lat="43.63786" lon="2.38518">
        <ele>644.259335</ele>
        <time>2021-10-18T13:39:30.000Z</time>
      </trkpt>
      <trkpt lat="43.6379" lon="2.3851">
        <ele>643.854458</ele>
        <time>2021-10-18T13:39:31.000Z</time>
      </trkpt>
      <trkpt lat="43.63793" lon="2.38503">
        <ele>643.445219</ele>
        <time>2021-10-18T13:39:32.000Z</time>
      </trkpt>
      <trkpt lat="43.63797" lon="2.38495">
        <ele>643.025667</ele>
        <time>2021-10-18T13:39:33.000Z</time>
      </trkpt>
      <trkpt lat="43.63801" lon="2.38488">
        <ele>642.601984</ele>
        <time>2021-10-18T13:39:34.000Z</time>
      </trkpt>
      <trkpt lat="43.63804" lon="2.38479">
        <ele>642.168708</ele>
        <time>2021-10-18T13:39:35.000Z</time>
      </trkpt>
      <trkpt lat="43.63808" lon="2.38471">
        <ele>641.734503</ele>
        <time>2021-10-18T13:39:36.000Z</time>
      </trkpt>
      <trkpt lat="43.63811" lon="2.38462">
        <ele>641.304881</ele>
        <time>2021-10-18T13:39:37.000Z</time>
      </trkpt>
      <trkpt lat="43.63813" lon="2.38454">
        <ele>640.872327</ele>
        <time>2021-10-18T13:39:38.000Z</time>
      </trkpt>
      <trkpt lat="43.63817" lon="2.38446">
        <ele>640.461872</ele>
        <time>2021-10-18T13:39:39.000Z</time>
      </trkpt>
      <trkpt lat="43.63821" lon="2.38439">
        <ele>640.040668</ele>
        <time>2021-10-18T13:39:40.000Z</time>
      </trkpt>
      <trkpt lat="43.63827" lon="2.38432">
        <ele>639.581575</ele>
        <time>2021-10-18T13:39:41.000Z</time>
      </trkpt>
      <trkpt lat="43.63833" lon="2.38427">
        <ele>639.106369</ele>
        <time>2021-10-18T13:39:42.000Z</time>
      </trkpt>
      <trkpt lat="43.6384" lon="2.38421">
        <ele>638.996572</ele>
        <time>2021-10-18T13:39:43.000Z</time>
      </trkpt>
      <trkpt lat="43.63846" lon="2.38416">
        <ele>639.092215</ele>
        <time>2021-10-18T13:39:44.000Z</time>
      </trkpt>
      <trkpt lat="43.63853" lon="2.3841">
        <ele>639.185871</ele>
        <time>2021-10-18T13:39:45.000Z</time>
      </trkpt>
      <trkpt lat="43.63859" lon="2.38405">
        <ele>639.279875</ele>
        <time>2021-10-18T13:39:46.000Z</time>
      </trkpt>
      <trkpt lat="43.63865" lon="2.38399">
        <ele>639.372848</ele>
        <time>2021-10-18T13:39:47.000Z</time>
      </trkpt>
      <trkpt lat="43.63871" lon="2.38391">
        <ele>639.466249</ele>
        <time>2021-10-18T13:39:48.000Z</time>
      </trkpt>
      <trkpt lat="43.63875" lon="2.38384">
        <ele>639.551685</ele>
        <time>2021-10-18T13:39:49.000Z</time>
      </trkpt>
      <trkpt lat="43.6388" lon="2.38376">
        <ele>639.642047</ele>
        <time>2021-10-18T13:39:50.000Z</time>
      </trkpt>
      <trkpt lat="43.63884" lon="2.38369">
        <ele>639.7279</ele>
        <time>2021-10-18T13:39:51.000Z</time>
      </trkpt>
      <trkpt lat="43.63887" lon="2.38361">
        <ele>639.808723</ele>
        <time>2021-10-18T13:39:52.000Z</time>
      </trkpt>
      <trkpt lat="43.6389" lon="2.38354">
        <ele>639.879959</ele>
        <time>2021-10-18T13:39:53.000Z</time>
      </trkpt>
      <trkpt lat="43.63893" lon="2.38348">
        <ele>639.942135</ele>
        <time>2021-10-18T13:39:54.000Z</time>
      </trkpt>
      <trkpt lat="43.63895" lon="2.38343">
        <ele>639.994586</ele>
        <time>2021-10-18T13:39:55.000Z</time>
      </trkpt>
      <trkpt lat="43.63897" lon="2.38339">
        <ele>640.041148</ele>
        <time>2021-10-18T13:39:56.000Z</time>
      </trkpt>
      <trkpt lat="43.63899" lon="2.38336">
        <ele>640.076841</ele>
        <time>2021-10-18T13:39:57.000Z</time>
      </trkpt>
      <trkpt lat="43.639" lon="2.38333">
        <ele>640.107409</ele>
        <time>2021-10-18T13:39:58.000Z</time>
      </trkpt>
      <trkpt lat="43.63902" lon="2.38331">
        <ele>640.135864</ele>
        <time>2021-10-18T13:39:59.000Z</time>
      </trkpt>
      <trkpt lat="43.63903" lon="2.38328">
        <ele>640.167876</ele>
        <time>2021-10-18T13:40:00.000Z</time>
      </trkpt>
      <trkpt lat="43.63905" lon="2.38325">
        <ele>640.201392</ele>
        <time>2021-10-18T13:40:01.000Z</time>
      </trkpt>
      <trkpt lat="43.63907" lon="2.38322">
        <ele>640.236175</ele>
        <time>2021-10-18T13:40:02.000Z</time>
      </trkpt>
      <trkpt lat="43.63909" lon="2.3832">
        <ele>640.267897</ele>
        <time>2021-10-18T13:40:03.000Z</time>
      </trkpt>
      <trkpt lat="43.63912" lon="2.38318">
        <ele>640.307257</ele>
        <time>2021-10-18T13:40:04.000Z</time>
      </trkpt>
      <trkpt lat="43.63914" lon="2.38315">
        <ele>640.343023</ele>
        <time>2021-10-18T13:40:05.000Z</time>
      </trkpt>
      <trkpt lat="43.63916" lon="2.38313">
        <ele>640.381061</ele>
        <time>2021-10-18T13:40:06.000Z</time>
      </trkpt>
      <trkpt lat="43.63918" lon="2.3831">
        <ele>640.418177</ele>
        <time>2021-10-18T13:40:07.000Z</time>
      </trkpt>
      <trkpt lat="43.6392" lon="2.38307">
        <ele>640.451644</ele>
        <time>2021-10-18T13:40:08.000Z</time>
      </trkpt>
      <trkpt lat="43.63923" lon="2.38306">
        <ele>640.482923</ele>
        <time>2021-10-18T13:40:09.000Z</time>
      </trkpt>
      <trkpt lat="43.63925" lon="2.38304">
        <ele>640.511601</ele>
        <time>2021-10-18T13:40:10.000Z</time>
      </trkpt>
      <trkpt lat="43.63927" lon="2.38303">
        <ele>640.547489</ele>
        <time>2021-10-18T13:40:11.000Z</time>
      </trkpt>
      <trkpt lat="43.6393" lon="2.38303">
        <ele>640.584728</ele>
        <time>2021-10-18T13:40:12.000Z</time>
      </trkpt>
      <trkpt lat="43.63933" lon="2.38303">
        <ele>640.619485</ele>
        <time>2021-10-18T13:40:13.000Z</time>
      </trkpt>
      <trkpt lat="43.63935" lon="2.38303">
        <ele>640.644304</ele>
        <time>2021-10-18T13:40:14.000Z</time>
      </trkpt>
      <trkpt lat="43.63938" lon="2.38303">
        <ele>640.67414</ele>
        <time>2021-10-18T13:40:15.000Z</time>
      </trkpt>
      <trkpt lat="43.6394" lon="2.38303">
        <ele>640.707693</ele>
        <time>2021-10-18T13:40:16.000Z</time>
      </trkpt>
      <trkpt lat="43.63943" lon="2.38303">
        <ele>640.741198</ele>
        <time>2021-10-18T13:40:17.000Z</time>
      </trkpt>
      <trkpt lat="43.63946" lon="2.38303">
        <ele>640.775134</ele>
        <time>2021-10-18T13:40:18.000Z</time>
      </trkpt>
      <trkpt lat="43.63949" lon="2.38302">
        <ele>640.81275</ele>
        <time>2021-10-18T13:40:19.000Z</time>
      </trkpt>
      <trkpt lat="43.63952" lon="2.38302">
        <ele>640.849015</ele>
        <time>2021-10-18T13:40:20.000Z</time>
      </trkpt>
      <trkpt lat="43.63955" lon="2.38301">
        <ele>640.890123</ele>
        <time>2021-10-18T13:40:21.000Z</time>
      </trkpt>
      <trkpt lat="43.63958" lon="2.38301">
        <ele>640.928603</ele>
        <time>2021-10-18T13:40:22.000Z</time>
      </trkpt>
      <trkpt lat="43.63961" lon="2.38301">
        <ele>640.965874</ele>
        <time>2021-10-18T13:40:23.000Z</time>
      </trkpt>
      <trkpt lat="43.63964" lon="2.383">
        <ele>641.004169</ele>
        <time>2021-10-18T13:40:24.000Z</time>
      </trkpt>
      <trkpt lat="43.63967" lon="2.383">
        <ele>641.045365</ele>
        <time>2021-10-18T13:40:25.000Z</time>
      </trkpt>
      <trkpt lat="43.63971" lon="2.383">
        <ele>641.092555</ele>
        <time>2021-10-18T13:40:26.000Z</time>
      </trkpt>
      <trkpt lat="43.63975" lon="2.38299">
        <ele>641.139787</ele>
        <time>2021-10-18T13:40:27.000Z</time>
      </trkpt>
      <trkpt lat="43.63979" lon="2.38299">
        <ele>641.143979</ele>
        <time>2021-10-18T13:40:28.000Z</time>
      </trkpt>
      <trkpt lat="43.63983" lon="2.38298">
        <ele>641.089743</ele>
        <time>2021-10-18T13:40:29.000Z</time>
      </trkpt>
      <trkpt lat="43.63986" lon="2.38297">
        <ele>641.043404</ele>
        <time>2021-10-18T13:40:30.000Z</time>
      </trkpt>
      <trkpt lat="43.63989" lon="2.38296">
        <ele>640.998708</ele>
        <time>2021-10-18T13:40:31.000Z</time>
      </trkpt>
      <trkpt lat="43.63992" lon="2.38295">
        <ele>640.960513</ele>
        <time>2021-10-18T13:40:32.000Z</time>
      </trkpt>
      <trkpt lat="43.63995" lon="2.38295">
        <ele>640.924606</ele>
        <time>2021-10-18T13:40:33.000Z</time>
      </trkpt>
      <trkpt lat="43.63997" lon="2.38293">
        <ele>640.889895</ele>
        <time>2021-10-18T13:40:34.000Z</time>
      </trkpt>
      <trkpt lat="43.64" lon="2.38292">
        <ele>640.854778</ele>
        <time>2021-10-18T13:40:35.000Z</time>
      </trkpt>
      <trkpt lat="43.64002" lon="2.38291">
        <ele>640.814487</ele>
        <time>2021-10-18T13:40:36.000Z</time>
      </trkpt>
      <trkpt lat="43.64005" lon="2.3829">
        <ele>640.781985</ele>
        <time>2021-10-18T13:40:37.000Z</time>
      </trkpt>
      <trkpt lat="43.64007" lon="2.38289">
        <ele>640.751056</ele>
        <time>2021-10-18T13:40:38.000Z</time>
      </trkpt>
      <trkpt lat="43.64009" lon="2.38288">
        <ele>640.72585</ele>
        <time>2021-10-18T13:40:39.000Z</time>
      </trkpt>
      <trkpt lat="43.6401" lon="2.38288">
        <ele>640.705049</ele>
        <time>2021-10-18T13:40:40.000Z</time>
      </trkpt>
      <trkpt lat="43.64012" lon="2.38287">
        <ele>640.680143</ele>
        <time>2021-10-18T13:40:41.000Z</time>
      </trkpt>
      <trkpt lat="43.64014" lon="2.38285">
        <ele>640.646264</ele>
        <time>2021-10-18T13:40:42.000Z</time>
      </trkpt>
      <trkpt lat="43.64017" lon="2.38283">
        <ele>640.608705</ele>
        <time>2021-10-18T13:40:43.000Z</time>
      </trkpt>
      <trkpt lat="43.6402" lon="2.38282">
        <ele>640.56585</ele>
        <time>2021-10-18T13:40:44.000Z</time>
      </trkpt>
      <trkpt lat="43.64023" lon="2.3828">
        <ele>640.520949</ele>
        <time>2021-10-18T13:40:45.000Z</time>
      </trkpt>
      <trkpt lat="43.64026" lon="2.38277">
        <ele>640.466652</ele>
        <time>2021-10-18T13:40:46.000Z</time>
      </trkpt>
      <trkpt lat="43.6403" lon="2.38275">
        <ele>640.418077</ele>
        <time>2021-10-18T13:40:47.000Z</time>
      </trkpt>
      <trkpt lat="43.64033" lon="2.38273">
        <ele>640.368265</ele>
        <time>2021-10-18T13:40:48.000Z</time>
      </trkpt>
      <trkpt lat="43.64037" lon="2.38271">
        <ele>640.305379</ele>
        <time>2021-10-18T13:40:49.000Z</time>
      </trkpt>
      <trkpt lat="43.64042" lon="2.38268">
        <ele>640.23476</ele>
        <time>2021-10-18T13:40:50.000Z</time>
      </trkpt>
      <trkpt lat="43.64046" lon="2.38266">
        <ele>640.173115</ele>
        <time>2021-10-18T13:40:51.000Z</time>
      </trkpt>
      <trkpt lat="43.6405" lon="2.38264">
        <ele>640.115773</ele>
        <time>2021-10-18T13:40:52.000Z</time>
      </trkpt>
      <trkpt lat="43.64054" lon="2.38262">
        <ele>640.065432</ele>
        <time>2021-10-18T13:40:53.000Z</time>
      </trkpt>
      <trkpt lat="43.64057" lon="2.3826">
        <ele>640.016691</ele>
        <time>2021-10-18T13:40:54.000Z</time>
      </trkpt>
      <trkpt lat="43.64061" lon="2.38258">
        <ele>639.961851</ele>
        <time>2021-10-18T13:40:55.000Z</time>
      </trkpt>
      <trkpt lat="43.64066" lon="2.38258">
        <ele>639.889869</ele>
        <time>2021-10-18T13:40:56.000Z</time>
      </trkpt>
      <trkpt lat="43.64072" lon="2.38258">
        <ele>639.818399</ele>
        <time>2021-10-18T13:40:57.000Z</time>
      </trkpt>
      <trkpt lat="43.64077" lon="2.38258">
        <ele>639.741463</ele>
        <time>2021-10-18T13:40:58.000Z</time>
      </trkpt>
      <trkpt lat="43.64083" lon="2.38258">
        <ele>639.66053</ele>
        <time>2021-10-18T13:40:59.000Z</time>
      </trkpt>
      <trkpt lat="43.64088" lon="2.38259">
        <ele>639.60388</ele>
        <time>2021-10-18T13:41:00.000Z</time>
      </trkpt>
      <trkpt lat="43.64091" lon="2.38259">
        <ele>639.552203</ele>
        <time>2021-10-18T13:41:01.000Z</time>
      </trkpt>
      <trkpt lat="43.64095" lon="2.38259">
        <ele>639.509056</ele>
        <time>2021-10-18T13:41:02.000Z</time>
      </trkpt>
      <trkpt lat="43.64098" lon="2.38258">
        <ele>639.460671</ele>
        <time>2021-10-18T13:41:03.000Z</time>
      </trkpt>
      <trkpt lat="43.64102" lon="2.38257">
        <ele>639.408856</ele>
        <time>2021-10-18T13:41:04.000Z</time>
      </trkpt>
      <trkpt lat="43.64106" lon="2.38257">
        <ele>639.353167</ele>
        <time>2021-10-18T13:41:05.000Z</time>
      </trkpt>
      <trkpt lat="43.64111" lon="2.38256">
        <ele>639.28787</ele>
        <time>2021-10-18T13:41:06.000Z</time>
      </trkpt>
      <trkpt lat="43.64115" lon="2.38255">
        <ele>639.226091</ele>
        <time>2021-10-18T13:41:07.000Z</time>
      </trkpt>
      <trkpt lat="43.64119" lon="2.38253">
        <ele>639.171251</ele>
        <time>2021-10-18T13:41:08.000Z</time>
      </trkpt>
      <trkpt lat="43.64123" lon="2.38251">
        <ele>639.111678</ele>
        <time>2021-10-18T13:41:09.000Z</time>
      </trkpt>
      <trkpt lat="43.64128" lon="2.38249">
        <ele>639.051794</ele>
        <time>2021-10-18T13:41:10.000Z</time>
      </trkpt>
      <trkpt lat="43.64132" lon="2.38247">
        <ele>638.993501</ele>
        <time>2021-10-18T13:41:11.000Z</time>
      </trkpt>
      <trkpt lat="43.64135" lon="2.38246">
        <ele>638.941239</ele>
        <time>2021-10-18T13:41:12.000Z</time>
      </trkpt>
      <trkpt lat="43.64139" lon="2.38244">
        <ele>638.887398</ele>
        <time>2021-10-18T13:41:13.000Z</time>
      </trkpt>
      <trkpt lat="43.64144" lon="2.38242">
        <ele>638.819295</ele>
        <time>2021-10-18T13:41:14.000Z</time>
      </trkpt>
      <trkpt lat="43.64149" lon="2.38241">
        <ele>638.756659</ele>
        <time>2021-10-18T13:41:15.000Z</time>
      </trkpt>
      <trkpt lat="43.64153" lon="2.38239">
        <ele>638.672579</ele>
        <time>2021-10-18T13:41:16.000Z</time>
      </trkpt>
      <trkpt lat="43.64157" lon="2.38236">
        <ele>638.580196</ele>
        <time>2021-10-18T13:41:17.000Z</time>
      </trkpt>
      <trkpt lat="43.64161" lon="2.38234">
        <ele>638.50435</ele>
        <time>2021-10-18T13:41:18.000Z</time>
      </trkpt>
      <trkpt lat="43.64164" lon="2.38232">
        <ele>638.422878</ele>
        <time>2021-10-18T13:41:19.000Z</time>
      </trkpt>
      <trkpt lat="43.64168" lon="2.3823">
        <ele>638.348547</ele>
        <time>2021-10-18T13:41:20.000Z</time>
      </trkpt>
      <trkpt lat="43.64172" lon="2.38229">
        <ele>638.267437</ele>
        <time>2021-10-18T13:41:21.000Z</time>
      </trkpt>
      <trkpt lat="43.64176" lon="2.38228">
        <ele>638.179544</ele>
        <time>2021-10-18T13:41:22.000Z</time>
      </trkpt>
      <trkpt lat="43.64181" lon="2.38227">
        <ele>638.088813</ele>
        <time>2021-10-18T13:41:23.000Z</time>
      </trkpt>
      <trkpt lat="43.64185" lon="2.38227">
        <ele>638.00455</ele>
        <time>2021-10-18T13:41:24.000Z</time>
      </trkpt>
      <trkpt lat="43.64189" lon="2.38227">
        <ele>637.914342</ele>
        <time>2021-10-18T13:41:25.000Z</time>
      </trkpt>
      <trkpt lat="43.64193" lon="2.38227">
        <ele>637.832195</ele>
        <time>2021-10-18T13:41:26.000Z</time>
      </trkpt>
      <trkpt lat="43.64197" lon="2.38227">
        <ele>637.766014</ele>
        <time>2021-10-18T13:41:27.000Z</time>
      </trkpt>
      <trkpt lat="43.642" lon="2.38227">
        <ele>637.693521</ele>
        <time>2021-10-18T13:41:28.000Z</time>
      </trkpt>
      <trkpt lat="43.64204" lon="2.38228">
        <ele>637.622192</ele>
        <time>2021-10-18T13:41:29.000Z</time>
      </trkpt>
      <trkpt lat="43.64208" lon="2.3823">
        <ele>637.542139</ele>
        <time>2021-10-18T13:41:30.000Z</time>
      </trkpt>
      <trkpt lat="43.64212" lon="2.38231">
        <ele>637.457521</ele>
        <time>2021-10-18T13:41:31.000Z</time>
      </trkpt>
      <trkpt lat="43.64216" lon="2.38233">
        <ele>637.375586</ele>
        <time>2021-10-18T13:41:32.000Z</time>
      </trkpt>
      <trkpt lat="43.6422" lon="2.38235">
        <ele>637.288943</ele>
        <time>2021-10-18T13:41:33.000Z</time>
      </trkpt>
      <trkpt lat="43.64224" lon="2.38236">
        <ele>637.204325</ele>
        <time>2021-10-18T13:41:34.000Z</time>
      </trkpt>
      <trkpt lat="43.64229" lon="2.38237">
        <ele>637.107457</ele>
        <time>2021-10-18T13:41:35.000Z</time>
      </trkpt>
      <trkpt lat="43.64234" lon="2.38237">
        <ele>637.01111</ele>
        <time>2021-10-18T13:41:36.000Z</time>
      </trkpt>
      <trkpt lat="43.64239" lon="2.38238">
        <ele>636.906672</ele>
        <time>2021-10-18T13:41:37.000Z</time>
      </trkpt>
      <trkpt lat="43.64244" lon="2.38238">
        <ele>636.806231</ele>
        <time>2021-10-18T13:41:38.000Z</time>
      </trkpt>
      <trkpt lat="43.64249" lon="2.38238">
        <ele>636.695996</ele>
        <time>2021-10-18T13:41:39.000Z</time>
      </trkpt>
      <trkpt lat="43.64255" lon="2.38238">
        <ele>636.589174</ele>
        <time>2021-10-18T13:41:40.000Z</time>
      </trkpt>
      <trkpt lat="43.6426" lon="2.38235">
        <ele>636.475958</ele>
        <time>2021-10-18T13:41:41.000Z</time>
      </trkpt>
      <trkpt lat="43.64266" lon="2.38231">
        <ele>636.348982</ele>
        <time>2021-10-18T13:41:42.000Z</time>
      </trkpt>
      <trkpt lat="43.64271" lon="2.38226">
        <ele>636.218656</ele>
        <time>2021-10-18T13:41:43.000Z</time>
      </trkpt>
      <trkpt lat="43.64275" lon="2.38219">
        <ele>636.089274</ele>
        <time>2021-10-18T13:41:44.000Z</time>
      </trkpt>
      <trkpt lat="43.64279" lon="2.38213">
        <ele>635.967499</ele>
        <time>2021-10-18T13:41:45.000Z</time>
      </trkpt>
      <trkpt lat="43.64283" lon="2.38207">
        <ele>635.853203</ele>
        <time>2021-10-18T13:41:46.000Z</time>
      </trkpt>
      <trkpt lat="43.64287" lon="2.38201">
        <ele>635.739076</ele>
        <time>2021-10-18T13:41:47.000Z</time>
      </trkpt>
      <trkpt lat="43.6429" lon="2.38195">
        <ele>635.624558</ele>
        <time>2021-10-18T13:41:48.000Z</time>
      </trkpt>
      <trkpt lat="43.64294" lon="2.3819">
        <ele>635.515678</ele>
        <time>2021-10-18T13:41:49.000Z</time>
      </trkpt>
      <trkpt lat="43.64298" lon="2.38185">
        <ele>635.415137</ele>
        <time>2021-10-18T13:41:50.000Z</time>
      </trkpt>
      <trkpt lat="43.64301" lon="2.38179">
        <ele>635.312171</ele>
        <time>2021-10-18T13:41:51.000Z</time>
      </trkpt>
      <trkpt lat="43.64305" lon="2.38174">
        <ele>635.212347</ele>
        <time>2021-10-18T13:41:52.000Z</time>
      </trkpt>
      <trkpt lat="43.64308" lon="2.3817">
        <ele>635.162691</ele>
        <time>2021-10-18T13:41:53.000Z</time>
      </trkpt>
      <trkpt lat="43.64312" lon="2.38165">
        <ele>635.238285</ele>
        <time>2021-10-18T13:41:54.000Z</time>
      </trkpt>
      <trkpt lat="43.64315" lon="2.38161">
        <ele>635.309072</ele>
        <time>2021-10-18T13:41:55.000Z</time>
      </trkpt>
      <trkpt lat="43.64318" lon="2.38158">
        <ele>635.371592</ele>
        <time>2021-10-18T13:41:56.000Z</time>
      </trkpt>
      <trkpt lat="43.64321" lon="2.38155">
        <ele>635.435358</ele>
        <time>2021-10-18T13:41:57.000Z</time>
      </trkpt>
      <trkpt lat="43.64325" lon="2.38152">
        <ele>635.501051</ele>
        <time>2021-10-18T13:41:58.000Z</time>
      </trkpt>
      <trkpt lat="43.64328" lon="2.3815">
        <ele>635.562413</ele>
        <time>2021-10-18T13:41:59.000Z</time>
      </trkpt>
      <trkpt lat="43.64332" lon="2.38147">
        <ele>635.630537</ele>
        <time>2021-10-18T13:42:00.000Z</time>
      </trkpt>
      <trkpt lat="43.64336" lon="2.38145">
        <ele>635.700147</ele>
        <time>2021-10-18T13:42:01.000Z</time>
      </trkpt>
      <trkpt lat="43.6434" lon="2.38142">
        <ele>635.775762</ele>
        <time>2021-10-18T13:42:02.000Z</time>
      </trkpt>
      <trkpt lat="43.64345" lon="2.3814">
        <ele>635.860714</ele>
        <time>2021-10-18T13:42:03.000Z</time>
      </trkpt>
      <trkpt lat="43.64349" lon="2.38136">
        <ele>635.942084</ele>
        <time>2021-10-18T13:42:04.000Z</time>
      </trkpt>
      <trkpt lat="43.64361" lon="2.38127">
        <ele>623.4</ele>
      </trkpt>
      <trkpt lat="43.64366" lon="2.38122">
        <ele>623.7</ele>
      </trkpt>
      <trkpt lat="43.64384" lon="2.38128">
        <ele>623.7</ele>
      </trkpt>
      <trkpt lat="43.64443" lon="2.38223">
        <ele>619.8</ele>
      </trkpt>
      <trkpt lat="43.64474" lon="2.38244">
        <ele>619.1</ele>
      </trkpt>
      <trkpt lat="43.64537" lon="2.3837">
        <ele>613.4</ele>
      </trkpt>
      <trkpt lat="43.6457" lon="2.38398">
        <ele>611</ele>
      </trkpt>
      <trkpt lat="43.6461" lon="2.38419">
        <ele>608.9</ele>
      </trkpt>
      <trkpt lat="43.64628" lon="2.38423">
        <ele>608.8</ele>
      </trkpt>
      <trkpt lat="43.64636" lon="2.38442">
        <ele>608.1</ele>
      </trkpt>
      <trkpt lat="43.64629" lon="2.3846">
        <ele>607.6</ele>
      </trkpt>
      <trkpt lat="43.64622" lon="2.38469">
        <ele>606.9</ele>
      </trkpt>
      <trkpt lat="43.646" lon="2.38485">
        <ele>604.9</ele>
      </trkpt>
      <trkpt lat="43.64594" lon="2.38504">
        <ele>603.2</ele>
      </trkpt>
      <trkpt lat="43.64593" lon="2.38519">
        <ele>602.4</ele>
      </trkpt>
      <trkpt lat="43.6459" lon="2.38521">
        <ele>602.3</ele>
      </trkpt>
      <trkpt lat="43.64585" lon="2.38519">
        <ele>602.3</ele>
      </trkpt>
      <trkpt lat="43.64581" lon="2.38509">
        <ele>602.7</ele>
      </trkpt>
      <trkpt lat="43.64576" lon="2.3852">
        <ele>602.5</ele>
      </trkpt>
      <trkpt lat="43.64575" lon="2.387">
        <ele>604</ele>
      </trkpt>
      <trkpt lat="43.64563" lon="2.38734">
        <ele>604.5</ele>
      </trkpt>
      <trkpt lat="43.64549" lon="2.38763">
        <ele>605</ele>
      </trkpt>
      <trkpt lat="43.64545" lon="2.3878">
        <ele>605.3</ele>
      </trkpt>
      <trkpt lat="43.6453" lon="2.38809">
        <ele>605.2</ele>
      </trkpt>
      <trkpt lat="43.64522" lon="2.38826">
        <ele>605.5</ele>
      </trkpt>
      <trkpt lat="43.64514" lon="2.38844">
        <ele>605.9</ele>
      </trkpt>
      <trkpt lat="43.645" lon="2.38869">
        <ele>606.3</ele>
      </trkpt>
      <trkpt lat="43.64483" lon="2.38892">
        <ele>606.5</ele>
      </trkpt>
      <trkpt lat="43.6446" lon="2.38913">
        <ele>606.5</ele>
      </trkpt>
      <trkpt lat="43.64452" lon="2.38931">
        <ele>606.8</ele>
      </trkpt>
      <trkpt lat="43.64415" lon="2.38946">
        <ele>607.1</ele>
      </trkpt>
      <trkpt lat="43.64395" lon="2.3894">
        <ele>606.8</ele>
      </trkpt>
      <trkpt lat="43.6437" lon="2.38947">
        <ele>607.2</ele>
      </trkpt>
      <trkpt lat="43.64347" lon="2.38946">
        <ele>607.1</ele>
      </trkpt>
      <trkpt lat="43.64326" lon="2.38966">
        <ele>608.6</ele>
      </trkpt>
      <trkpt lat="43.64309" lon="2.38958">
        <ele>608</ele>
      </trkpt>
      <trkpt lat="43.64264" lon="2.38974">
        <ele>608.6</ele>
      </trkpt>
      <trkpt lat="43.64248" lon="2.38994">
        <ele>609.5</ele>
      </trkpt>
      <trkpt lat="43.64239" lon="2.39008">
        <ele>609.9</ele>
      </trkpt>
      <trkpt lat="43.64233" lon="2.3903">
        <ele>610.5</ele>
      </trkpt>
      <trkpt lat="43.64241" lon="2.39045">
        <ele>611.9</ele>
      </trkpt>
      <trkpt lat="43.64231" lon="2.39053">
        <ele>612.1</ele>
      </trkpt>
      <trkpt lat="43.64231" lon="2.39093">
        <ele>616</ele>
      </trkpt>
      <trkpt lat="43.6422" lon="2.39206">
        <ele>627.3</ele>
      </trkpt>
      <trkpt lat="43.64218" lon="2.39212">
        <ele>628</ele>
      </trkpt>
      <trkpt lat="43.64206" lon="2.39267">
        <ele>635.8</ele>
      </trkpt>
      <trkpt lat="43.6423" lon="2.3934">
        <ele>640.6</ele>
      </trkpt>
      <trkpt lat="43.64249" lon="2.39414">
        <ele>646.9</ele>
      </trkpt>
      <trkpt lat="43.64252" lon="2.39482">
        <ele>649</ele>
      </trkpt>
      <trkpt lat="43.6424" lon="2.39509">
        <ele>651.7</ele>
      </trkpt>
      <trkpt lat="43.64234" lon="2.3955">
        <ele>652.2</ele>
      </trkpt>
      <trkpt lat="43.64227" lon="2.39581">
        <ele>651.4</ele>
      </trkpt>
      <trkpt lat="43.64218" lon="2.39611">
        <ele>650.6</ele>
      </trkpt>
      <trkpt lat="43.64197" lon="2.39647">
        <ele>651.4</ele>
      </trkpt>
      <trkpt lat="43.64189" lon="2.39695">
        <ele>650</ele>
      </trkpt>
      <trkpt lat="43.64179" lon="2.39743">
        <ele>650</ele>
      </trkpt>
      <trkpt lat="43.64175" lon="2.39776">
        <ele>650.9</ele>
      </trkpt>
      <trkpt lat="43.64175" lon="2.39824">
        <ele>653.5</ele>
      </trkpt>
      <trkpt lat="43.64175" lon="2.39851">
        <ele>656</ele>
      </trkpt>
      <trkpt lat="43.64147" lon="2.39896">
        <ele>657.4</ele>
      </trkpt>
      <trkpt lat="43.64134" lon="2.39923">
        <ele>657.9</ele>
      </trkpt>
      <trkpt lat="43.64084" lon="2.40011">
        <ele>656.3</ele>
      </trkpt>
      <trkpt lat="43.64078" lon="2.40016">
        <ele>657.1</ele>
      </trkpt>
      <trkpt lat="43.64069" lon="2.40019">
        <ele>658.1</ele>
      </trkpt>
      <trkpt lat="43.64036" lon="2.4002">
        <ele>659.9</ele>
      </trkpt>
      <trkpt lat="43.64009" lon="2.40029">
        <ele>660.5</ele>
      </trkpt>
      <trkpt lat="43.64" lon="2.40036">
        <ele>660.9</ele>
      </trkpt>
      <trkpt lat="43.6399" lon="2.40049">
        <ele>660.9</ele>
      </trkpt>
      <trkpt lat="43.63968" lon="2.40084">
        <ele>660.3</ele>
      </trkpt>
      <trkpt lat="43.63926" lon="2.40142">
        <ele>658.4</ele>
      </trkpt>
      <trkpt lat="43.63894" lon="2.4024">
        <ele>663.1</ele>
      </trkpt>
      <trkpt lat="43.63884" lon="2.40274">
        <ele>663.7</ele>
      </trkpt>
      <trkpt lat="43.63883" lon="2.40283">
        <ele>663.9</ele>
      </trkpt>
      <trkpt lat="43.63872" lon="2.40357">
        <ele>662.3</ele>
      </trkpt>
      <trkpt lat="43.63877" lon="2.404">
        <ele>663.8</ele>
      </trkpt>
      <trkpt lat="43.63878" lon="2.40444">
        <ele>661.5</ele>
      </trkpt>
      <trkpt lat="43.63889" lon="2.40472">
        <ele>660</ele>
      </trkpt>
      <trkpt lat="43.63905" lon="2.40485">
        <ele>660.2</ele>
      </trkpt>
      <trkpt lat="43.63933" lon="2.405">
        <ele>661.4</ele>
      </trkpt>
      <trkpt lat="43.63922" lon="2.40508">
        <ele>658.5</ele>
      </trkpt>
      <trkpt lat="43.63906" lon="2.40504">
        <ele>657.3</ele>
      </trkpt>
      <trkpt lat="43.63888" lon="2.40508">
        <ele>655.1</ele>
      </trkpt>
      <trkpt lat="43.63868" lon="2.40534">
        <ele>650.9</ele>
      </trkpt>
      <trkpt lat="43.63869" lon="2.40568">
        <ele>648.3</ele>
      </trkpt>
      <trkpt lat="43.63881" lon="2.40605">
        <ele>648.4</ele>
      </trkpt>
      <trkpt lat="43.63886" lon="2.40623">
        <ele>648.9</ele>
      </trkpt>
      <trkpt lat="43.63878" lon="2.40648">
        <ele>650.1</ele>
      </trkpt>
      <trkpt lat="43.63855" lon="2.40667">
        <ele>652.2</ele>
      </trkpt>
      <trkpt lat="43.63837" lon="2.40685">
        <ele>652.1</ele>
      </trkpt>
      <trkpt lat="43.63834" lon="2.4071">
        <ele>655.3</ele>
      </trkpt>
      <trkpt lat="43.63827" lon="2.40744">
        <ele>659.2</ele>
      </trkpt>
      <trkpt lat="43.63815" lon="2.40769">
        <ele>661.1</ele>
      </trkpt>
      <trkpt lat="43.6381" lon="2.40787">
        <ele>662.7</ele>
      </trkpt>
      <trkpt lat="43.63816" lon="2.40795">
        <ele>664.6</ele>
      </trkpt>
      <trkpt lat="43.6383" lon="2.40799">
        <ele>667.5</ele>
      </trkpt>
      <trkpt lat="43.63845" lon="2.40826">
        <ele>670.2</ele>
      </trkpt>
      <trkpt lat="43.63857" lon="2.40835">
        <ele>670.9</ele>
      </trkpt>
      <trkpt lat="43.63858" lon="2.40848">
        <ele>670.9</ele>
      </trkpt>
      <trkpt lat="43.63858" lon="2.40866">
        <ele>670.9</ele>
      </trkpt>
      <trkpt lat="43.63853" lon="2.40893">
        <ele>670.3</ele>
      </trkpt>
      <trkpt lat="43.63844" lon="2.40929">
        <ele>667.9</ele>
      </trkpt>
      <trkpt lat="43.63859" lon="2.40953">
        <ele>667.5</ele>
      </trkpt>
      <trkpt lat="43.63874" lon="2.40966">
        <ele>667.8</ele>
      </trkpt>
      <trkpt lat="43.63866" lon="2.40988">
        <ele>666</ele>
      </trkpt>
      <trkpt lat="43.63874" lon="2.41026">
        <ele>664.5</ele>
      </trkpt>
      <trkpt lat="43.63873" lon="2.4105">
        <ele>663.3</ele>
      </trkpt>
      <trkpt lat="43.63865" lon="2.41077">
        <ele>662.2</ele>
      </trkpt>
      <trkpt lat="43.6386" lon="2.41105">
        <ele>662</ele>
      </trkpt>
      <trkpt lat="43.63868" lon="2.41126">
        <ele>661.9</ele>
      </trkpt>
      <trkpt lat="43.63886" lon="2.41159">
        <ele>661.7</ele>
      </trkpt>
      <trkpt lat="43.63927" lon="2.41298">
        <ele>667.1</ele>
      </trkpt>
      <trkpt lat="43.63933" lon="2.41342">
        <ele>670.1</ele>
      </trkpt>
      <trkpt lat="43.63938" lon="2.41358">
        <ele>672.2</ele>
      </trkpt>
      <trkpt lat="43.63967" lon="2.41247">
        <ele>671.4</ele>
      </trkpt>
      <trkpt lat="43.63984" lon="2.41217">
        <ele>673</ele>
      </trkpt>
      <trkpt lat="43.64059" lon="2.41165">
        <ele>673.7</ele>
      </trkpt>
      <trkpt lat="43.64072" lon="2.4115">
        <ele>673</ele>
      </trkpt>
      <trkpt lat="43.64081" lon="2.41133">
        <ele>674.4</ele>
      </trkpt>
      <trkpt lat="43.64089" lon="2.41124">
        <ele>675.5</ele>
      </trkpt>
      <trkpt lat="43.64091" lon="2.41123">
        <ele>675.6</ele>
      </trkpt>
      <trkpt lat="43.641" lon="2.41121">
        <ele>675.7</ele>
      </trkpt>
      <trkpt lat="43.64115" lon="2.41115">
        <ele>680.7</ele>
      </trkpt>
      <trkpt lat="43.64135" lon="2.41102">
        <ele>680.6</ele>
      </trkpt>
      <trkpt lat="43.64157" lon="2.41083">
        <ele>680.9</ele>
      </trkpt>
      <trkpt lat="43.64181" lon="2.41056">
        <ele>683.4</ele>
      </trkpt>
      <trkpt lat="43.64185" lon="2.4104">
        <ele>685.9</ele>
      </trkpt>
      <trkpt lat="43.64185" lon="2.41015">
        <ele>690.3</ele>
      </trkpt>
      <trkpt lat="43.64185" lon="2.41004">
        <ele>686.9992676</ele>
        <time>2015-08-30T08:49:48Z</time>
      </trkpt>
      <trkpt lat="43.64197" lon="2.40989">
        <ele>687.4799805</ele>
        <time>2015-08-30T08:49:42Z</time>
      </trkpt>
      <trkpt lat="43.64211" lon="2.40986">
        <ele>685.557373</ele>
        <time>2015-08-30T08:49:36Z</time>
      </trkpt>
      <trkpt lat="43.64239" lon="2.4098">
        <ele>680.7507324</ele>
        <time>2015-08-30T08:49:27Z</time>
      </trkpt>
      <trkpt lat="43.64264" lon="2.40986">
        <ele>683.6345215</ele>
        <time>2015-08-30T08:49:20Z</time>
      </trkpt>
      <trkpt lat="43.6428" lon="2.40994">
        <ele>682.192627</ele>
        <time>2015-08-30T08:49:15Z</time>
      </trkpt>
      <trkpt lat="43.64302" lon="2.40998">
        <ele>683.6345215</ele>
        <time>2015-08-30T08:49:10Z</time>
      </trkpt>
      <trkpt lat="43.64328" lon="2.4101">
        <ele>687.9606934</ele>
        <time>2015-08-30T08:49:04Z</time>
      </trkpt>
      <trkpt lat="43.64342" lon="2.41013">
        <ele>688.4414063</ele>
        <time>2015-08-30T08:49:00Z</time>
      </trkpt>
      <trkpt lat="43.64357" lon="2.4102">
        <ele>690.3640137</ele>
        <time>2015-08-30T08:48:56Z</time>
      </trkpt>
      <trkpt lat="43.64359" lon="2.41022">
        <ele>690.3640137</ele>
        <time>2015-08-30T08:48:55Z</time>
      </trkpt>
      <trkpt lat="43.64382" lon="2.41026">
        <ele>697.0930176</ele>
        <time>2015-08-30T08:48:51Z</time>
      </trkpt>
      <trkpt lat="43.6439" lon="2.41021">
        <ele>698.5349121</ele>
        <time>2015-08-30T08:48:49Z</time>
      </trkpt>
      <trkpt lat="43.64404" lon="2.41014">
        <ele>701.4191895</ele>
        <time>2015-08-30T08:48:45Z</time>
      </trkpt>
      <trkpt lat="43.64415" lon="2.41005">
        <ele>693.7285156</ele>
        <time>2015-08-30T08:48:40Z</time>
      </trkpt>
      <trkpt lat="43.64424" lon="2.40996">
        <ele>687.9606934</ele>
        <time>2015-08-30T08:48:34Z</time>
      </trkpt>
      <trkpt lat="43.64442" lon="2.4098">
        <ele>687.9606934</ele>
        <time>2015-08-30T08:48:27Z</time>
      </trkpt>
      <trkpt lat="43.64451" lon="2.40977">
        <ele>690.8444824</ele>
        <time>2015-08-30T08:48:22Z</time>
      </trkpt>
      <trkpt lat="43.64454" lon="2.40978">
        <ele>686.5187988</ele>
        <time>2015-08-30T08:48:17Z</time>
      </trkpt>
      <trkpt lat="43.64458" lon="2.40977">
        <ele>685.0769043</ele>
        <time>2015-08-30T08:48:13Z</time>
      </trkpt>
      <trkpt lat="43.64469" lon="2.40978">
        <ele>690.8444824</ele>
        <time>2015-08-30T08:48:07Z</time>
      </trkpt>
      <trkpt lat="43.6447" lon="2.40976">
        <ele>689.8833008</ele>
        <time>2015-08-30T08:48:06Z</time>
      </trkpt>
      <trkpt lat="43.64478" lon="2.40972">
        <ele>688.4414063</ele>
        <time>2015-08-30T08:48:01Z</time>
      </trkpt>
      <trkpt lat="43.64488" lon="2.40962">
        <ele>686.5187988</ele>
        <time>2015-08-30T08:47:55Z</time>
      </trkpt>
      <trkpt lat="43.64498" lon="2.40955">
        <ele>692.767334</ele>
        <time>2015-08-30T08:47:49Z</time>
      </trkpt>
      <trkpt lat="43.6451" lon="2.40948">
        <ele>696.6125488</ele>
        <time>2015-08-30T08:47:43Z</time>
      </trkpt>
      <trkpt lat="43.64521" lon="2.40939">
        <ele>699.015625</ele>
        <time>2015-08-30T08:47:37Z</time>
      </trkpt>
      <trkpt lat="43.6453" lon="2.40929">
        <ele>697.5737305</ele>
        <time>2015-08-30T08:47:30Z</time>
      </trkpt>
      <trkpt lat="43.64534" lon="2.40919">
        <ele>698.0544434</ele>
        <time>2015-08-30T08:47:23Z</time>
      </trkpt>
      <trkpt lat="43.64538" lon="2.40912">
        <ele>698.5349121</ele>
        <time>2015-08-30T08:47:16Z</time>
      </trkpt>
      <trkpt lat="43.64542" lon="2.40901">
        <ele>696.6125488</ele>
        <time>2015-08-30T08:47:08Z</time>
      </trkpt>
      <trkpt lat="43.64546" lon="2.40893">
        <ele>695.1704102</ele>
        <time>2015-08-30T08:47:04Z</time>
      </trkpt>
      <trkpt lat="43.64549" lon="2.4088">
        <ele>692.2866211</ele>
        <time>2015-08-30T08:46:57Z</time>
      </trkpt>
      <trkpt lat="43.64549" lon="2.40873">
        <ele>688.4414063</ele>
        <time>2015-08-30T08:46:54Z</time>
      </trkpt>
      <trkpt lat="43.64539" lon="2.40858">
        <ele>684.1154785</ele>
        <time>2015-08-30T08:46:49Z</time>
      </trkpt>
      <trkpt lat="43.64545" lon="2.40844">
        <ele>686.9992676</ele>
        <time>2015-08-30T08:46:44Z</time>
      </trkpt>
      <trkpt lat="43.64553" lon="2.4083">
        <ele>685.557373</ele>
        <time>2015-08-30T08:46:39Z</time>
      </trkpt>
      <trkpt lat="43.64555" lon="2.40829">
        <ele>684.5961914</ele>
        <time>2015-08-30T08:46:38Z</time>
      </trkpt>
      <trkpt lat="43.64565" lon="2.4081">
        <ele>681.7119141</ele>
        <time>2015-08-30T08:46:31Z</time>
      </trkpt>
      <trkpt lat="43.64562" lon="2.40796">
        <ele>678.3474121</ele>
        <time>2015-08-30T08:46:28Z</time>
      </trkpt>
      <trkpt lat="43.64573" lon="2.40773">
        <ele>680.2700195</ele>
        <time>2015-08-30T08:46:23Z</time>
      </trkpt>
      <trkpt lat="43.64585" lon="2.40761">
        <ele>679.7893066</ele>
        <time>2015-08-30T08:46:18Z</time>
      </trkpt>
      <trkpt lat="43.64592" lon="2.4075">
        <ele>677.3862305</ele>
        <time>2015-08-30T08:46:15Z</time>
      </trkpt>
      <trkpt lat="43.64594" lon="2.40747">
        <ele>676.9055176</ele>
        <time>2015-08-30T08:46:14Z</time>
      </trkpt>
      <trkpt lat="43.64611" lon="2.40747">
        <ele>678.3474121</ele>
        <time>2015-08-30T08:46:07Z</time>
      </trkpt>
      <trkpt lat="43.64624" lon="2.40749">
        <ele>678.828125</ele>
        <time>2015-08-30T08:46:02Z</time>
      </trkpt>
      <trkpt lat="43.64632" lon="2.40747">
        <ele>668.2536621</ele>
        <time>2015-08-30T08:45:55Z</time>
      </trkpt>
      <trkpt lat="43.64643" lon="2.40751">
        <ele>670.6569824</ele>
        <time>2015-08-30T08:45:51Z</time>
      </trkpt>
      <trkpt lat="43.64658" lon="2.40757">
        <ele>675.4633789</ele>
        <time>2015-08-30T08:45:48Z</time>
      </trkpt>
      <trkpt lat="43.64682" lon="2.40758">
        <ele>678.828125</ele>
        <time>2015-08-30T08:45:43Z</time>
      </trkpt>
      <trkpt lat="43.64691" lon="2.40753">
        <ele>680.2700195</ele>
        <time>2015-08-30T08:45:41Z</time>
      </trkpt>
      <trkpt lat="43.64701" lon="2.40749">
        <ele>682.192627</ele>
        <time>2015-08-30T08:45:36Z</time>
      </trkpt>
      <trkpt lat="43.64717" lon="2.40742">
        <ele>681.7119141</ele>
        <time>2015-08-30T08:45:31Z</time>
      </trkpt>
      <trkpt lat="43.64722" lon="2.40738">
        <ele>678.3474121</ele>
        <time>2015-08-30T08:45:29Z</time>
      </trkpt>
      <trkpt lat="43.64735" lon="2.40733">
        <ele>675.4633789</ele>
        <time>2015-08-30T08:45:25Z</time>
      </trkpt>
      <trkpt lat="43.6475" lon="2.4073">
        <ele>674.9829102</ele>
        <time>2015-08-30T08:45:21Z</time>
      </trkpt>
      <trkpt lat="43.64764" lon="2.40732">
        <ele>676.4248047</ele>
        <time>2015-08-30T08:45:15Z</time>
      </trkpt>
      <trkpt lat="43.64775" lon="2.4073">
        <ele>680.2700195</ele>
        <time>2015-08-30T08:45:10Z</time>
      </trkpt>
      <trkpt lat="43.64795" lon="2.40724">
        <ele>686.5187988</ele>
        <time>2015-08-30T08:45:02Z</time>
      </trkpt>
      <trkpt lat="43.64797" lon="2.40723">
        <ele>686.5187988</ele>
        <time>2015-08-30T08:45:01Z</time>
      </trkpt>
      <trkpt lat="43.64805" lon="2.40718">
        <ele>683.1538086</ele>
        <time>2015-08-30T08:44:55Z</time>
      </trkpt>
      <trkpt lat="43.64811" lon="2.40716">
        <ele>681.2314453</ele>
        <time>2015-08-30T08:44:50Z</time>
      </trkpt>
      <trkpt lat="43.64823" lon="2.40713">
        <ele>679.3085938</ele>
        <time>2015-08-30T08:44:44Z</time>
      </trkpt>
      <trkpt lat="43.64824" lon="2.40713">
        <ele>678.828125</ele>
        <time>2015-08-30T08:44:43Z</time>
      </trkpt>
      <trkpt lat="43.64835" lon="2.40706">
        <ele>677.3862305</ele>
        <time>2015-08-30T08:44:37Z</time>
      </trkpt>
      <trkpt lat="43.64842" lon="2.40701">
        <ele>675.4633789</ele>
        <time>2015-08-30T08:44:31Z</time>
      </trkpt>
      <trkpt lat="43.64853" lon="2.40703">
        <ele>674.9829102</ele>
        <time>2015-08-30T08:43:19Z</time>
      </trkpt>
      <trkpt lat="43.64853" lon="2.40713">
        <ele>668.734375</ele>
        <time>2015-08-30T08:43:13Z</time>
      </trkpt>
      <trkpt lat="43.64853" lon="2.40726">
        <ele>667.2922363</ele>
        <time>2015-08-30T08:43:07Z</time>
      </trkpt>
      <trkpt lat="43.64863" lon="2.4074">
        <ele>667.2922363</ele>
        <time>2015-08-30T08:43:01Z</time>
      </trkpt>
      <trkpt lat="43.64869" lon="2.40755">
        <ele>671.1376953</ele>
        <time>2015-08-30T08:42:55Z</time>
      </trkpt>
      <trkpt lat="43.64873" lon="2.40766">
        <ele>675.9440918</ele>
        <time>2015-08-30T08:42:51Z</time>
      </trkpt>
      <trkpt lat="43.6488" lon="2.40775">
        <ele>680.7507324</ele>
        <time>2015-08-30T08:42:45Z</time>
      </trkpt>
      <trkpt lat="43.64881" lon="2.40786">
        <ele>672.098877</ele>
        <time>2015-08-30T08:42:38Z</time>
      </trkpt>
      <trkpt lat="43.6488" lon="2.40795">
        <ele>666.8115234</ele>
        <time>2015-08-30T08:42:32Z</time>
      </trkpt>
      <trkpt lat="43.64879" lon="2.40798">
        <ele>662.4855957</ele>
        <time>2015-08-30T08:42:29Z</time>
      </trkpt>
      <trkpt lat="43.64878" lon="2.408">
        <ele>658.1599121</ele>
        <time>2015-08-30T08:42:24Z</time>
      </trkpt>
      <trkpt lat="43.64892" lon="2.40794">
        <ele>657.1984863</ele>
        <time>2015-08-30T08:42:19Z</time>
      </trkpt>
      <trkpt lat="43.64896" lon="2.40783">
        <ele>655.2758789</ele>
        <time>2015-08-30T08:42:16Z</time>
      </trkpt>
      <trkpt lat="43.6491" lon="2.40771">
        <ele>658.1599121</ele>
        <time>2015-08-30T08:42:13Z</time>
      </trkpt>
      <trkpt lat="43.64929" lon="2.40761">
        <ele>664.4082031</ele>
        <time>2015-08-30T08:42:08Z</time>
      </trkpt>
      <trkpt lat="43.64943" lon="2.40757">
        <ele>668.734375</ele>
        <time>2015-08-30T08:42:03Z</time>
      </trkpt>
      <trkpt lat="43.64949" lon="2.40758">
        <ele>672.098877</ele>
        <time>2015-08-30T08:41:59Z</time>
      </trkpt>
      <trkpt lat="43.64955" lon="2.40759">
        <ele>673.0603027</ele>
        <time>2015-08-30T08:41:54Z</time>
      </trkpt>
      <trkpt lat="43.64964" lon="2.40768">
        <ele>669.2150879</ele>
        <time>2015-08-30T08:41:48Z</time>
      </trkpt>
      <trkpt lat="43.64967" lon="2.40777">
        <ele>673.2</ele>
      </trkpt>
      <trkpt lat="43.6497" lon="2.40781">
        <ele>672.9</ele>
      </trkpt>
      <trkpt lat="43.65" lon="2.40825">
        <ele>667.7</ele>
      </trkpt>
      <trkpt lat="43.65019" lon="2.40872">
        <ele>662.4</ele>
      </trkpt>
      <trkpt lat="43.65023" lon="2.4088">
        <ele>662.9663086</ele>
        <time>2015-08-30T08:37:27Z</time>
      </trkpt>
      <trkpt lat="43.65031" lon="2.40893">
        <ele>666.3308105</ele>
        <time>2015-08-30T08:37:20Z</time>
      </trkpt>
      <trkpt lat="43.65031" lon="2.40901">
        <ele>668.734375</ele>
        <time>2015-08-30T08:37:16Z</time>
      </trkpt>
      <trkpt lat="43.65034" lon="2.40906">
        <ele>667.2922363</ele>
        <time>2015-08-30T08:37:14Z</time>
      </trkpt>
      <trkpt lat="43.65035" lon="2.40911">
        <ele>662.4855957</ele>
        <time>2015-08-30T08:37:08Z</time>
      </trkpt>
      <trkpt lat="43.65034" lon="2.40917">
        <ele>655.7565918</ele>
        <time>2015-08-30T08:37:01Z</time>
      </trkpt>
      <trkpt lat="43.65038" lon="2.40925">
        <ele>651.9111328</ele>
        <time>2015-08-30T08:36:55Z</time>
      </trkpt>
      <trkpt lat="43.65034" lon="2.40929">
        <ele>646.1433105</ele>
        <time>2015-08-30T08:36:51Z</time>
      </trkpt>
      <trkpt lat="43.65032" lon="2.40932">
        <ele>641.3366699</ele>
        <time>2015-08-30T08:36:45Z</time>
      </trkpt>
      <trkpt lat="43.65029" lon="2.40938">
        <ele>640.3754883</ele>
        <time>2015-08-30T08:36:37Z</time>
      </trkpt>
      <trkpt lat="43.65028" lon="2.4094">
        <ele>640.3754883</ele>
        <time>2015-08-30T08:36:31Z</time>
      </trkpt>
      <trkpt lat="43.65028" lon="2.40939">
        <ele>642.2980957</ele>
        <time>2015-08-30T08:36:28Z</time>
      </trkpt>
      <trkpt lat="43.65027" lon="2.40942">
        <ele>641.8173828</ele>
        <time>2015-08-30T08:36:24Z</time>
      </trkpt>
      <trkpt lat="43.65023" lon="2.40957">
        <ele>642.2980957</ele>
        <time>2015-08-30T08:36:17Z</time>
      </trkpt>
      <trkpt lat="43.65021" lon="2.40961">
        <ele>637.972168</ele>
        <time>2015-08-30T08:36:14Z</time>
      </trkpt>
      <trkpt lat="43.65016" lon="2.4097">
        <ele>634.6074219</ele>
        <time>2015-08-30T08:36:08Z</time>
      </trkpt>
      <trkpt lat="43.65012" lon="2.40976">
        <ele>638.4528809</ele>
        <time>2015-08-30T08:36:01Z</time>
      </trkpt>
      <trkpt lat="43.65011" lon="2.40984">
        <ele>642.2980957</ele>
        <time>2015-08-30T08:35:56Z</time>
      </trkpt>
      <trkpt lat="43.65006" lon="2.40996">
        <ele>638.4528809</ele>
        <time>2015-08-30T08:35:49Z</time>
      </trkpt>
      <trkpt lat="43.65" lon="2.41011">
        <ele>637.4914551</ele>
        <time>2015-08-30T08:35:42Z</time>
      </trkpt>
      <trkpt lat="43.64993" lon="2.41019">
        <ele>633.1652832</ele>
        <time>2015-08-30T08:35:37Z</time>
      </trkpt>
      <trkpt lat="43.64991" lon="2.41021">
        <ele>632.2041016</ele>
        <time>2015-08-30T08:35:35Z</time>
      </trkpt>
      <trkpt lat="43.64991" lon="2.41029">
        <ele>629.8007813</ele>
        <time>2015-08-30T08:35:28Z</time>
      </trkpt>
      <trkpt lat="43.6499" lon="2.41042">
        <ele>631.2429199</ele>
        <time>2015-08-30T08:35:21Z</time>
      </trkpt>
      <trkpt lat="43.64985" lon="2.41051">
        <ele>627.3977051</ele>
        <time>2015-08-30T08:35:15Z</time>
      </trkpt>
      <trkpt lat="43.64983" lon="2.41065">
        <ele>628.8395996</ele>
        <time>2015-08-30T08:35:08Z</time>
      </trkpt>
      <trkpt lat="43.64978" lon="2.41075">
        <ele>627.3977051</ele>
        <time>2015-08-30T08:35:03Z</time>
      </trkpt>
      <trkpt lat="43.64975" lon="2.41087">
        <ele>625.4748535</ele>
        <time>2015-08-30T08:34:57Z</time>
      </trkpt>
      <trkpt lat="43.64973" lon="2.41098">
        <ele>624.9943848</ele>
        <time>2015-08-30T08:34:51Z</time>
      </trkpt>
      <trkpt lat="43.64968" lon="2.41117">
        <ele>624.032959</ele>
        <time>2015-08-30T08:34:43Z</time>
      </trkpt>
      <trkpt lat="43.64969" lon="2.41131">
        <ele>625.4748535</ele>
        <time>2015-08-30T08:34:38Z</time>
      </trkpt>
      <trkpt lat="43.6497" lon="2.41137">
        <ele>627.8781738</ele>
        <time>2015-08-30T08:34:34Z</time>
      </trkpt>
      <trkpt lat="43.64975" lon="2.41142">
        <ele>632.6848145</ele>
        <time>2015-08-30T08:34:27Z</time>
      </trkpt>
      <trkpt lat="43.64974" lon="2.41144">
        <ele>632.6848145</ele>
        <time>2015-08-30T08:34:22Z</time>
      </trkpt>
      <trkpt lat="43.64972" lon="2.4115">
        <ele>636.0495605</ele>
        <time>2015-08-30T08:34:15Z</time>
      </trkpt>
      <trkpt lat="43.64971" lon="2.41156">
        <ele>633.1652832</ele>
        <time>2015-08-30T08:34:09Z</time>
      </trkpt>
      <trkpt lat="43.64966" lon="2.41164">
        <ele>631.7233887</ele>
        <time>2015-08-30T08:34:05Z</time>
      </trkpt>
      <trkpt lat="43.64967" lon="2.41172">
        <ele>631.2429199</ele>
        <time>2015-08-30T08:34:01Z</time>
      </trkpt>
      <trkpt lat="43.64973" lon="2.41177">
        <ele>633.6459961</ele>
        <time>2015-08-30T08:33:57Z</time>
      </trkpt>
      <trkpt lat="43.64977" lon="2.41176">
        <ele>634.126709</ele>
        <time>2015-08-30T08:33:54Z</time>
      </trkpt>
      <trkpt lat="43.64992" lon="2.41176">
        <ele>626.4362793</ele>
        <time>2015-08-30T08:33:34Z</time>
      </trkpt>
      <trkpt lat="43.64997" lon="2.41174">
        <ele>624.5136719</ele>
        <time>2015-08-30T08:33:09Z</time>
      </trkpt>
      <trkpt lat="43.65002" lon="2.41177">
        <ele>621.1491699</ele>
        <time>2015-08-30T08:33:02Z</time>
      </trkpt>
      <trkpt lat="43.65012" lon="2.41183">
        <ele>621.1491699</ele>
        <time>2015-08-30T08:32:55Z</time>
      </trkpt>
      <trkpt lat="43.65016" lon="2.41185">
        <ele>622.1103516</ele>
        <time>2015-08-30T08:32:51Z</time>
      </trkpt>
      <trkpt lat="43.6502" lon="2.41191">
        <ele>621.1491699</ele>
        <time>2015-08-30T08:32:47Z</time>
      </trkpt>
      <trkpt lat="43.65028" lon="2.41199">
        <ele>619.2263184</ele>
        <time>2015-08-30T08:32:41Z</time>
      </trkpt>
      <trkpt lat="43.65034" lon="2.41197">
        <ele>615.8618164</ele>
        <time>2015-08-30T08:32:36Z</time>
      </trkpt>
      <trkpt lat="43.65036" lon="2.41197">
        <ele>615.8618164</ele>
        <time>2015-08-30T08:32:35Z</time>
      </trkpt>
      <trkpt lat="43.65047" lon="2.41196">
        <ele>618.2648926</ele>
        <time>2015-08-30T08:32:30Z</time>
      </trkpt>
      <trkpt lat="43.65064" lon="2.41189">
        <ele>622.1103516</ele>
        <time>2015-08-30T08:32:25Z</time>
      </trkpt>
      <trkpt lat="43.65085" lon="2.41186">
        <ele>624.032959</ele>
        <time>2015-08-30T08:32:19Z</time>
      </trkpt>
      <trkpt lat="43.65091" lon="2.41193">
        <ele>624.032959</ele>
        <time>2015-08-30T08:32:17Z</time>
      </trkpt>
      <trkpt lat="43.65094" lon="2.41196">
        <ele>623.5524902</ele>
        <time>2015-08-30T08:32:16Z</time>
      </trkpt>
      <trkpt lat="43.65107" lon="2.41211">
        <ele>620.1877441</ele>
        <time>2015-08-30T08:32:11Z</time>
      </trkpt>
      <trkpt lat="43.65103" lon="2.41225">
        <ele>617.7841797</ele>
        <time>2015-08-30T08:32:05Z</time>
      </trkpt>
      <trkpt lat="43.6511" lon="2.41223">
        <ele>615.8618164</ele>
        <time>2015-08-30T08:31:51Z</time>
      </trkpt>
      <trkpt lat="43.65117" lon="2.41226">
        <ele>606.729248</ele>
        <time>2015-08-30T08:31:43Z</time>
      </trkpt>
      <trkpt lat="43.65115" lon="2.41245">
        <ele>600.9611816</ele>
        <time>2015-08-30T08:31:36Z</time>
      </trkpt>
      <trkpt lat="43.65114" lon="2.4125">
        <ele>600.9611816</ele>
        <time>2015-08-30T08:31:35Z</time>
      </trkpt>
      <trkpt lat="43.65116" lon="2.41268">
        <ele>604.3261719</ele>
        <time>2015-08-30T08:31:31Z</time>
      </trkpt>
      <trkpt lat="43.65138" lon="2.41274">
        <ele>615.3811035</ele>
        <time>2015-08-30T08:31:26Z</time>
      </trkpt>
      <trkpt lat="43.65167" lon="2.41264">
        <ele>624.032959</ele>
        <time>2015-08-30T08:31:22Z</time>
      </trkpt>
      <trkpt lat="43.65205" lon="2.41245">
        <ele>625.4748535</ele>
        <time>2015-08-30T08:31:16Z</time>
      </trkpt>
      <trkpt lat="43.65227" lon="2.41237">
        <ele>624.032959</ele>
        <time>2015-08-30T08:31:11Z</time>
      </trkpt>
      <trkpt lat="43.65255" lon="2.41242">
        <ele>635.5686035</ele>
        <time>2015-08-30T08:31:06Z</time>
      </trkpt>
      <trkpt lat="43.65266" lon="2.41249">
        <ele>642.2980957</ele>
        <time>2015-08-30T08:31:02Z</time>
      </trkpt>
      <trkpt lat="43.6528" lon="2.41245">
        <ele>645.1818848</ele>
        <time>2015-08-30T08:30:59Z</time>
      </trkpt>
      <trkpt lat="43.65304" lon="2.41242">
        <ele>638.9335938</ele>
        <time>2015-08-30T08:30:55Z</time>
      </trkpt>
      <trkpt lat="43.65324" lon="2.41242">
        <ele>637.0107422</ele>
        <time>2015-08-30T08:30:52Z</time>
      </trkpt>
      <trkpt lat="43.65341" lon="2.41236">
        <ele>637.4914551</ele>
        <time>2015-08-30T08:30:48Z</time>
      </trkpt>
      <trkpt lat="43.65356" lon="2.41222">
        <ele>639.8947754</ele>
        <time>2015-08-30T08:30:45Z</time>
      </trkpt>
      <trkpt lat="43.65365" lon="2.41209">
        <ele>637.0107422</ele>
        <time>2015-08-30T08:30:42Z</time>
      </trkpt>
      <trkpt lat="43.65377" lon="2.41199">
        <ele>641.8173828</ele>
        <time>2015-08-30T08:30:38Z</time>
      </trkpt>
      <trkpt lat="43.65401" lon="2.41183">
        <ele>645.1818848</ele>
        <time>2015-08-30T08:30:34Z</time>
      </trkpt>
      <trkpt lat="43.65431" lon="2.41157">
        <ele>642.7788086</ele>
        <time>2015-08-30T08:30:27Z</time>
      </trkpt>
      <trkpt lat="43.65455" lon="2.41152">
        <ele>644.2207031</ele>
        <time>2015-08-30T08:30:23Z</time>
      </trkpt>
      <trkpt lat="43.6548" lon="2.41157">
        <ele>638.4528809</ele>
        <time>2015-08-30T08:30:19Z</time>
      </trkpt>
      <trkpt lat="43.655" lon="2.41156">
        <ele>634.6074219</ele>
        <time>2015-08-30T08:30:13Z</time>
      </trkpt>
      <trkpt lat="43.6551" lon="2.41163">
        <ele>641.1</ele>
      </trkpt>
      <trkpt lat="43.65517" lon="2.41164">
        <ele>639.9</ele>
      </trkpt>
      <trkpt lat="43.65528" lon="2.4116">
        <ele>638.9</ele>
      </trkpt>
      <trkpt lat="43.65542" lon="2.41155">
        <ele>637.6</ele>
      </trkpt>
      <trkpt lat="43.65542" lon="2.41151">
        <ele>638.2</ele>
      </trkpt>
      <trkpt lat="43.65547" lon="2.41138">
        <ele>639.4</ele>
      </trkpt>
      <trkpt lat="43.65547" lon="2.41127">
        <ele>641</ele>
      </trkpt>
      <trkpt lat="43.65547" lon="2.41112">
        <ele>643.2</ele>
      </trkpt>
      <trkpt lat="43.65546" lon="2.41092">
        <ele>646.2</ele>
      </trkpt>
      <trkpt lat="43.65544" lon="2.41062">
        <ele>649.8</ele>
      </trkpt>
      <trkpt lat="43.65543" lon="2.41016">
        <ele>654.4</ele>
      </trkpt>
      <trkpt lat="43.6559" lon="2.40903">
        <ele>665</ele>
      </trkpt>
      <trkpt lat="43.65621" lon="2.4086">
        <ele>667.7</ele>
      </trkpt>
      <trkpt lat="43.65645" lon="2.40842">
        <ele>668.6</ele>
      </trkpt>
      <trkpt lat="43.6565" lon="2.40842">
        <ele>668.6</ele>
      </trkpt>
      <trkpt lat="43.65654" lon="2.40829">
        <ele>669.4</ele>
      </trkpt>
      <trkpt lat="43.65667" lon="2.40816">
        <ele>670.5</ele>
      </trkpt>
      <trkpt lat="43.6571" lon="2.40782">
        <ele>673.7</ele>
      </trkpt>
      <trkpt lat="43.6573" lon="2.40762">
        <ele>673.8</ele>
      </trkpt>
      <trkpt lat="43.65735" lon="2.40756">
        <ele>673.6</ele>
      </trkpt>
      <trkpt lat="43.6574" lon="2.40747">
        <ele>673.3</ele>
      </trkpt>
      <trkpt lat="43.6574" lon="2.40684">
        <ele>671.7</ele>
      </trkpt>
      <trkpt lat="43.6574" lon="2.40636">
        <ele>670.8</ele>
      </trkpt>
      <trkpt lat="43.65743" lon="2.4062">
        <ele>670.2</ele>
      </trkpt>
      <trkpt lat="43.6575" lon="2.40613">
        <ele>669.4</ele>
      </trkpt>
      <trkpt lat="43.65761" lon="2.40606">
        <ele>668.7</ele>
      </trkpt>
      <trkpt lat="43.65773" lon="2.40592">
        <ele>668.5</ele>
      </trkpt>
      <trkpt lat="43.65783" lon="2.40563">
        <ele>669</ele>
      </trkpt>
      <trkpt lat="43.65788" lon="2.40549">
        <ele>669.3</ele>
      </trkpt>
      <trkpt lat="43.65766" lon="2.40494">
        <ele>670</ele>
      </trkpt>
      <trkpt lat="43.65766" lon="2.40481">
        <ele>669.7</ele>
      </trkpt>
      <trkpt lat="43.65756" lon="2.40457">
        <ele>669</ele>
      </trkpt>
      <trkpt lat="43.65754" lon="2.40444">
        <ele>668.7</ele>
      </trkpt>
      <trkpt lat="43.65765" lon="2.40441">
        <ele>668.8</ele>
      </trkpt>
      <trkpt lat="43.65784" lon="2.40451">
        <ele>669.2</ele>
      </trkpt>
      <trkpt lat="43.65824" lon="2.40497">
        <ele>670.8</ele>
      </trkpt>
      <trkpt lat="43.65871" lon="2.40511">
        <ele>672.5</ele>
      </trkpt>
      <trkpt lat="43.65895" lon="2.40517">
        <ele>673.3</ele>
      </trkpt>
      <trkpt lat="43.65908" lon="2.40511">
        <ele>674.5</ele>
      </trkpt>
      <trkpt lat="43.65929" lon="2.40485">
        <ele>675.8</ele>
      </trkpt>
      <trkpt lat="43.65973" lon="2.40392">
        <ele>678.7</ele>
      </trkpt>
      <trkpt lat="43.6603" lon="2.40324">
        <ele>679.2</ele>
      </trkpt>
      <trkpt lat="43.6616" lon="2.40239">
        <ele>677.3</ele>
      </trkpt>
      <trkpt lat="43.66227" lon="2.40174">
        <ele>675.8</ele>
      </trkpt>
      <trkpt lat="43.6624" lon="2.40124">
        <ele>674.9</ele>
      </trkpt>
      <trkpt lat="43.66279" lon="2.40037">
        <ele>673.3</ele>
      </trkpt>
      <trkpt lat="43.66304" lon="2.39948">
        <ele>672.2</ele>
      </trkpt>
      <trkpt lat="43.66338" lon="2.39826">
        <ele>668.2</ele>
      </trkpt>
      <trkpt lat="43.66349" lon="2.39773">
        <ele>664.7</ele>
      </trkpt>
      <trkpt lat="43.66358" lon="2.39761">
        <ele>663.4</ele>
      </trkpt>
      <trkpt lat="43.66364" lon="2.39742">
        <ele>662.4</ele>
      </trkpt>
      <trkpt lat="43.66368" lon="2.39719">
        <ele>662</ele>
      </trkpt>
      <trkpt lat="43.66375" lon="2.39703">
        <ele>661.8</ele>
      </trkpt>
      <trkpt lat="43.66392" lon="2.3969">
        <ele>661.8</ele>
      </trkpt>
      <trkpt lat="43.66415" lon="2.39675">
        <ele>662.5</ele>
      </trkpt>
      <trkpt lat="43.66429" lon="2.39657">
        <ele>660.6</ele>
      </trkpt>
      <trkpt lat="43.66456" lon="2.39628">
        <ele>656.3</ele>
      </trkpt>
      <trkpt lat="43.66471" lon="2.39611">
        <ele>654.4</ele>
      </trkpt>
      <trkpt lat="43.66499" lon="2.39569">
        <ele>651.9</ele>
      </trkpt>
      <trkpt lat="43.66504" lon="2.39559">
        <ele>651.6</ele>
      </trkpt>
      <trkpt lat="43.66506" lon="2.39556">
        <ele>651.5</ele>
      </trkpt>
      <trkpt lat="43.66548" lon="2.39502">
        <ele>648</ele>
      </trkpt>
      <trkpt lat="43.66554" lon="2.39495">
        <ele>647.5</ele>
      </trkpt>
      <trkpt lat="43.66575" lon="2.39472">
        <ele>646.1</ele>
      </trkpt>
      <trkpt lat="43.66606" lon="2.39435">
        <ele>649.1</ele>
      </trkpt>
      <trkpt lat="43.66611" lon="2.39433">
        <ele>649.6</ele>
      </trkpt>
      <trkpt lat="43.66618" lon="2.39437">
        <ele>649.6</ele>
      </trkpt>
      <trkpt lat="43.66625" lon="2.39439">
        <ele>649.9</ele>
      </trkpt>
      <trkpt lat="43.66628" lon="2.39435">
        <ele>650.4</ele>
      </trkpt>
      <trkpt lat="43.6664" lon="2.3944">
        <ele>650.6</ele>
      </trkpt>
      <trkpt lat="43.66642" lon="2.39444">
        <ele>650.3</ele>
      </trkpt>
      <trkpt lat="43.66642" lon="2.39462">
        <ele>648.4</ele>
      </trkpt>
      <trkpt lat="43.66668" lon="2.39486">
        <ele>646.9</ele>
      </trkpt>
      <trkpt lat="43.66679" lon="2.39488">
        <ele>648.8</ele>
      </trkpt>
      <trkpt lat="43.66703" lon="2.39526">
        <ele>651.4</ele>
      </trkpt>
      <trkpt lat="43.66723" lon="2.39566">
        <ele>653</ele>
      </trkpt>
      <trkpt lat="43.66741" lon="2.39575">
        <ele>655.2</ele>
      </trkpt>
      <trkpt lat="43.66763" lon="2.3956">
        <ele>658.1</ele>
      </trkpt>
      <trkpt lat="43.66802" lon="2.39548">
        <ele>660.2</ele>
      </trkpt>
      <trkpt lat="43.6682" lon="2.39535">
        <ele>661.5</ele>
      </trkpt>
      <trkpt lat="43.66841" lon="2.39573">
        <ele>659.4</ele>
      </trkpt>
      <trkpt lat="43.66852" lon="2.39616">
        <ele>656.8</ele>
      </trkpt>
      <trkpt lat="43.66865" lon="2.39629">
        <ele>655.6</ele>
      </trkpt>
      <trkpt lat="43.66879" lon="2.39633">
        <ele>654.9</ele>
      </trkpt>
      <trkpt lat="43.66897" lon="2.3962">
        <ele>655</ele>
      </trkpt>
      <trkpt lat="43.66903" lon="2.39592">
        <ele>656.7</ele>
      </trkpt>
      <trkpt lat="43.66905" lon="2.39591">
        <ele>656.8</ele>
      </trkpt>
      <trkpt lat="43.66924" lon="2.39583">
        <ele>656.6</ele>
      </trkpt>
      <trkpt lat="43.66938" lon="2.39555">
        <ele>656.2</ele>
      </trkpt>
      <trkpt lat="43.66955" lon="2.39525">
        <ele>655.5</ele>
      </trkpt>
      <trkpt lat="43.66964" lon="2.39508">
        <ele>654.9</ele>
      </trkpt>
      <trkpt lat="43.66969" lon="2.3949">
        <ele>654.6</ele>
      </trkpt>
      <trkpt lat="43.66951" lon="2.39473">
        <ele>656.2</ele>
      </trkpt>
      <trkpt lat="43.6692" lon="2.39436">
        <ele>659.4</ele>
      </trkpt>
      <trkpt lat="43.66918" lon="2.39415">
        <ele>659.9</ele>
      </trkpt>
      <trkpt lat="43.66914" lon="2.39397">
        <ele>660.9</ele>
      </trkpt>
      <trkpt lat="43.66915" lon="2.39364">
        <ele>662</ele>
      </trkpt>
      <trkpt lat="43.66898" lon="2.39326">
        <ele>664.8</ele>
      </trkpt>
      <trkpt lat="43.66897" lon="2.39305">
        <ele>666.3</ele>
      </trkpt>
      <trkpt lat="43.66881" lon="2.39265">
        <ele>669.2</ele>
      </trkpt>
      <trkpt lat="43.66873" lon="2.39247">
        <ele>670</ele>
      </trkpt>
      <trkpt lat="43.66831" lon="2.3923">
        <ele>670.1</ele>
      </trkpt>
      <trkpt lat="43.6682" lon="2.39201">
        <ele>669.6</ele>
      </trkpt>
      <trkpt lat="43.66803" lon="2.39187">
        <ele>668.4</ele>
      </trkpt>
      <trkpt lat="43.66778" lon="2.39162">
        <ele>666.2</ele>
      </trkpt>
      <trkpt lat="43.66782" lon="2.39125">
        <ele>665.9</ele>
      </trkpt>
      <trkpt lat="43.66774" lon="2.39092">
        <ele>664.3</ele>
      </trkpt>
      <trkpt lat="43.66788" lon="2.39062">
        <ele>665.2</ele>
      </trkpt>
      <trkpt lat="43.66794" lon="2.39041">
        <ele>665.2</ele>
      </trkpt>
      <trkpt lat="43.66813" lon="2.39009">
        <ele>665.7</ele>
      </trkpt>
      <trkpt lat="43.66832" lon="2.38972">
        <ele>665.9</ele>
      </trkpt>
      <trkpt lat="43.6685" lon="2.38987">
        <ele>666.4</ele>
      </trkpt>
      <trkpt lat="43.66862" lon="2.39025">
        <ele>668.3</ele>
      </trkpt>
      <trkpt lat="43.66864" lon="2.39033">
        <ele>668.7</ele>
      </trkpt>
      <trkpt lat="43.66881" lon="2.39057">
        <ele>669.6</ele>
      </trkpt>
      <trkpt lat="43.66884" lon="2.39066">
        <ele>670</ele>
      </trkpt>
      <trkpt lat="43.66886" lon="2.39088">
        <ele>670.8</ele>
      </trkpt>
      <trkpt lat="43.66883" lon="2.391">
        <ele>670.8</ele>
      </trkpt>
      <trkpt lat="43.66882" lon="2.39119">
        <ele>670.9</ele>
      </trkpt>
      <trkpt lat="43.66882" lon="2.39121">
        <ele>670.9</ele>
      </trkpt>
      <trkpt lat="43.66894" lon="2.39129">
        <ele>670.8</ele>
      </trkpt>
      <trkpt lat="43.66906" lon="2.39143">
        <ele>670.8</ele>
      </trkpt>
      <trkpt lat="43.66921" lon="2.39163">
        <ele>670.2</ele>
      </trkpt>
      <trkpt lat="43.66932" lon="2.39172">
        <ele>668.1</ele>
      </trkpt>
      <trkpt lat="43.66932" lon="2.39193">
        <ele>667.7</ele>
      </trkpt>
      <trkpt lat="43.66925" lon="2.39225">
        <ele>668.5</ele>
      </trkpt>
      <trkpt lat="43.66918" lon="2.39239">
        <ele>669.8</ele>
      </trkpt>
      <trkpt lat="43.66902" lon="2.39246">
        <ele>670</ele>
      </trkpt>
      <trkpt lat="43.66892" lon="2.39244">
        <ele>670.1</ele>
      </trkpt>
      <trkpt lat="43.66885" lon="2.39249">
        <ele>670</ele>
      </trkpt>
      <trkpt lat="43.66867" lon="2.39262">
        <ele>669.5</ele>
      </trkpt>
      <trkpt lat="43.66827" lon="2.39242">
        <ele>669.7</ele>
      </trkpt>
      <trkpt lat="43.66814" lon="2.39211">
        <ele>669.1</ele>
      </trkpt>
      <trkpt lat="43.66798" lon="2.392">
        <ele>667.9</ele>
      </trkpt>
      <trkpt lat="43.66777" lon="2.39185">
        <ele>656.6</ele>
      </trkpt>
      <trkpt lat="43.66761" lon="2.39183">
        <ele>655.1</ele>
      </trkpt>
      <trkpt lat="43.66754" lon="2.39192">
        <ele>655.1</ele>
      </trkpt>
      <trkpt lat="43.66727" lon="2.39243">
        <ele>657.7</ele>
      </trkpt>
      <trkpt lat="43.66679" lon="2.39254">
        <ele>658.2</ele>
      </trkpt>
      <trkpt lat="43.66666" lon="2.39293">
        <ele>659.5</ele>
      </trkpt>
      <trkpt lat="43.66651" lon="2.39312">
        <ele>658.8</ele>
      </trkpt>
      <trkpt lat="43.66645" lon="2.39335">
        <ele>658.1</ele>
      </trkpt>
      <trkpt lat="43.66639" lon="2.39343">
        <ele>657.3</ele>
      </trkpt>
      <trkpt lat="43.66625" lon="2.39344">
        <ele>655.7</ele>
      </trkpt>
      <trkpt lat="43.66599" lon="2.39344">
        <ele>653.4</ele>
      </trkpt>
      <trkpt lat="43.66592" lon="2.39333">
        <ele>653.6</ele>
      </trkpt>
      <trkpt lat="43.66568" lon="2.39305">
        <ele>653.5</ele>
      </trkpt>
      <trkpt lat="43.66553" lon="2.39298">
        <ele>653.2</ele>
      </trkpt>
      <trkpt lat="43.66542" lon="2.39303">
        <ele>653</ele>
      </trkpt>
      <trkpt lat="43.66513" lon="2.39327">
        <ele>653.4</ele>
      </trkpt>
      <trkpt lat="43.66508" lon="2.39287">
        <ele>653</ele>
      </trkpt>
      <trkpt lat="43.66506" lon="2.39272">
        <ele>656.8</ele>
      </trkpt>
      <trkpt lat="43.66498" lon="2.39253">
        <ele>655.9</ele>
      </trkpt>
      <trkpt lat="43.66496" lon="2.39241">
        <ele>655</ele>
      </trkpt>
      <trkpt lat="43.66487" lon="2.39255">
        <ele>654.7</ele>
      </trkpt>
      <trkpt lat="43.66477" lon="2.39264">
        <ele>654</ele>
      </trkpt>
      <trkpt lat="43.66466" lon="2.3927">
        <ele>653.1</ele>
      </trkpt>
      <trkpt lat="43.66446" lon="2.39273">
        <ele>651.2</ele>
      </trkpt>
      <trkpt lat="43.66426" lon="2.39268">
        <ele>648.7</ele>
      </trkpt>
      <trkpt lat="43.66414" lon="2.39263">
        <ele>646.8</ele>
      </trkpt>
      <trkpt lat="43.66404" lon="2.39255">
        <ele>644.5</ele>
      </trkpt>
      <trkpt lat="43.66399" lon="2.39245">
        <ele>643</ele>
      </trkpt>
      <trkpt lat="43.66398" lon="2.39231">
        <ele>642.1</ele>
      </trkpt>
      <trkpt lat="43.664" lon="2.39215">
        <ele>641.6</ele>
      </trkpt>
      <trkpt lat="43.66411" lon="2.3916">
        <ele>640</ele>
      </trkpt>
      <trkpt lat="43.66424" lon="2.39078">
        <ele>637.5</ele>
      </trkpt>
      <trkpt lat="43.66425" lon="2.3904">
        <ele>636.2</ele>
      </trkpt>
      <trkpt lat="43.66424" lon="2.39023">
        <ele>635.5</ele>
      </trkpt>
      <trkpt lat="43.6642" lon="2.39015">
        <ele>634.8</ele>
      </trkpt>
      <trkpt lat="43.66414" lon="2.3901">
        <ele>634.1</ele>
      </trkpt>
      <trkpt lat="43.66404" lon="2.39009">
        <ele>633.1</ele>
      </trkpt>
      <trkpt lat="43.6639" lon="2.39011">
        <ele>631.9</ele>
      </trkpt>
      <trkpt lat="43.66369" lon="2.39019">
        <ele>630.4</ele>
      </trkpt>
      <trkpt lat="43.66355" lon="2.39028">
        <ele>629.6</ele>
      </trkpt>
      <trkpt lat="43.66333" lon="2.39052">
        <ele>629.1</ele>
      </trkpt>
      <trkpt lat="43.66309" lon="2.39073">
        <ele>631.3</ele>
      </trkpt>
      <trkpt lat="43.663" lon="2.39078">
        <ele>631.9</ele>
      </trkpt>
      <trkpt lat="43.66289" lon="2.39077">
        <ele>632.3</ele>
      </trkpt>
      <trkpt lat="43.66276" lon="2.39071">
        <ele>632.5</ele>
      </trkpt>
      <trkpt lat="43.66264" lon="2.39053">
        <ele>632.3</ele>
      </trkpt>
      <trkpt lat="43.66249" lon="2.39017">
        <ele>631.7</ele>
      </trkpt>
      <trkpt lat="43.6624" lon="2.38997">
        <ele>631.8</ele>
      </trkpt>
      <trkpt lat="43.66225" lon="2.38978">
        <ele>632.2</ele>
      </trkpt>
      <trkpt lat="43.66181" lon="2.38939">
        <ele>635.2</ele>
      </trkpt>
      <trkpt lat="43.66165" lon="2.3892">
        <ele>636.5</ele>
      </trkpt>
      <trkpt lat="43.66162" lon="2.38895">
        <ele>637.3</ele>
      </trkpt>
      <trkpt lat="43.66183" lon="2.38822">
        <ele>633.2</ele>
      </trkpt>
      <trkpt lat="43.66185" lon="2.38792">
        <ele>631.2</ele>
      </trkpt>
      <trkpt lat="43.66185" lon="2.38762">
        <ele>629.6</ele>
      </trkpt>
      <trkpt lat="43.66181" lon="2.38736">
        <ele>628.2</ele>
      </trkpt>
      <trkpt lat="43.66173" lon="2.38712">
        <ele>627</ele>
      </trkpt>
      <trkpt lat="43.66153" lon="2.38672">
        <ele>627.2</ele>
      </trkpt>
      <trkpt lat="43.66153" lon="2.38648">
        <ele>625.4</ele>
      </trkpt>
      <trkpt lat="43.66147" lon="2.38639">
        <ele>626.3</ele>
      </trkpt>
      <trkpt lat="43.6611" lon="2.38628">
        <ele>634.7</ele>
      </trkpt>
      <trkpt lat="43.66093" lon="2.3861">
        <ele>637.2</ele>
      </trkpt>
      <trkpt lat="43.66087" lon="2.38592">
        <ele>637</ele>
      </trkpt>
      <trkpt lat="43.66084" lon="2.38566">
        <ele>634.2</ele>
      </trkpt>
      <trkpt lat="43.66081" lon="2.38552">
        <ele>632.5</ele>
      </trkpt>
      <trkpt lat="43.6607" lon="2.38541">
        <ele>632.5</ele>
      </trkpt>
      <trkpt lat="43.66051" lon="2.3853">
        <ele>633.9</ele>
      </trkpt>
      <trkpt lat="43.66041" lon="2.3852">
        <ele>634.3</ele>
      </trkpt>
      <trkpt lat="43.66036" lon="2.385">
        <ele>632.5</ele>
      </trkpt>
      <trkpt lat="43.66039" lon="2.38481">
        <ele>630.4</ele>
      </trkpt>
      <trkpt lat="43.66051" lon="2.3846">
        <ele>626.7</ele>
      </trkpt>
      <trkpt lat="43.66069" lon="2.38415">
        <ele>620.8</ele>
      </trkpt>
      <trkpt lat="43.66076" lon="2.38378">
        <ele>618.3</ele>
      </trkpt>
      <trkpt lat="43.66095" lon="2.38251">
        <ele>607.5</ele>
      </trkpt>
      <trkpt lat="43.66094" lon="2.38226">
        <ele>605.8</ele>
      </trkpt>
      <trkpt lat="43.66091" lon="2.38217">
        <ele>605.5</ele>
      </trkpt>
      <trkpt lat="43.66089" lon="2.3821">
        <ele>605.1</ele>
      </trkpt>
      <trkpt lat="43.66075" lon="2.38191">
        <ele>604.8</ele>
      </trkpt>
      <trkpt lat="43.66067" lon="2.3817">
        <ele>604</ele>
      </trkpt>
      <trkpt lat="43.6606" lon="2.38145">
        <ele>603.4</ele>
      </trkpt>
      <trkpt lat="43.6606" lon="2.38128">
        <ele>602.5</ele>
      </trkpt>
      <trkpt lat="43.66066" lon="2.38101">
        <ele>600.3</ele>
      </trkpt>
      <trkpt lat="43.66062" lon="2.38082">
        <ele>599.8</ele>
      </trkpt>
      <trkpt lat="43.66053" lon="2.38065">
        <ele>600.3</ele>
      </trkpt>
      <trkpt lat="43.6604" lon="2.38045">
        <ele>601.3</ele>
      </trkpt>
      <trkpt lat="43.66037" lon="2.38023">
        <ele>600.9</ele>
      </trkpt>
      <trkpt lat="43.66039" lon="2.37923">
        <ele>600.9</ele>
      </trkpt>
      <trkpt lat="43.66035" lon="2.37867">
        <ele>603</ele>
      </trkpt>
      <trkpt lat="43.66048" lon="2.37809">
        <ele>600.1</ele>
      </trkpt>
      <trkpt lat="43.66051" lon="2.37752">
        <ele>599.2</ele>
      </trkpt>
      <trkpt lat="43.6606" lon="2.3772">
        <ele>597.6</ele>
      </trkpt>
      <trkpt lat="43.66063" lon="2.37694">
        <ele>597.7</ele>
      </trkpt>
      <trkpt lat="43.66084" lon="2.37654">
        <ele>596.8</ele>
      </trkpt>
      <trkpt lat="43.6609" lon="2.37649">
        <ele>596.6</ele>
      </trkpt>
      <trkpt lat="43.66098" lon="2.3764">
        <ele>596.3</ele>
      </trkpt>
      <trkpt lat="43.66097" lon="2.37615">
        <ele>603.8452148</ele>
        <time>2015-08-30T07:43:40Z</time>
      </trkpt>
      <trkpt lat="43.66091" lon="2.37616">
        <ele>600</ele>
        <time>2015-08-30T07:43:42Z</time>
      </trkpt>
      <trkpt lat="43.66077" lon="2.37616">
        <ele>598.0773926</ele>
        <time>2015-08-30T07:43:49Z</time>
      </trkpt>
      <trkpt lat="43.66066" lon="2.37621">
        <ele>599.0385742</ele>
        <time>2015-08-30T07:43:55Z</time>
      </trkpt>
      <trkpt lat="43.66063" lon="2.37623">
        <ele>600.4807129</ele>
        <time>2015-08-30T07:43:56Z</time>
      </trkpt>
      <trkpt lat="43.66043" lon="2.37628">
        <ele>610.09375</ele>
        <time>2015-08-30T07:44:03Z</time>
      </trkpt>
      <trkpt lat="43.6604" lon="2.37627">
        <ele>611.0551758</ele>
        <time>2015-08-30T07:44:05Z</time>
      </trkpt>
      <trkpt lat="43.66026" lon="2.37629">
        <ele>613.4584961</ele>
        <time>2015-08-30T07:44:14Z</time>
      </trkpt>
      <trkpt lat="43.66016" lon="2.37628">
        <ele>615.3811035</ele>
        <time>2015-08-30T07:44:20Z</time>
      </trkpt>
      <trkpt lat="43.66006" lon="2.37628">
        <ele>617.3037109</ele>
        <time>2015-08-30T07:44:26Z</time>
      </trkpt>
      <trkpt lat="43.66003" lon="2.37627">
        <ele>616.3422852</ele>
        <time>2015-08-30T07:44:28Z</time>
      </trkpt>
      <trkpt lat="43.65988" lon="2.3767">
        <ele>613.4584961</ele>
        <time>2015-08-30T07:46:56Z</time>
      </trkpt>
      <trkpt lat="43.65993" lon="2.37686">
        <ele>611.5358887</ele>
        <time>2015-08-30T07:47:00Z</time>
      </trkpt>
      <trkpt lat="43.65997" lon="2.37695">
        <ele>611.0551758</ele>
        <time>2015-08-30T07:47:03Z</time>
      </trkpt>
      <trkpt lat="43.65993" lon="2.37718">
        <ele>616.822998</ele>
        <time>2015-08-30T07:47:09Z</time>
      </trkpt>
      <trkpt lat="43.65991" lon="2.37737">
        <ele>617.3037109</ele>
        <time>2015-08-30T07:47:14Z</time>
      </trkpt>
      <trkpt lat="43.6599" lon="2.37753">
        <ele>621.1491699</ele>
        <time>2015-08-30T07:47:20Z</time>
      </trkpt>
      <trkpt lat="43.6599" lon="2.37776">
        <ele>619.2263184</ele>
        <time>2015-08-30T07:47:26Z</time>
      </trkpt>
      <trkpt lat="43.65991" lon="2.37785">
        <ele>617.3037109</ele>
        <time>2015-08-30T07:47:29Z</time>
      </trkpt>
      <trkpt lat="43.65986" lon="2.37794">
        <ele>616.822998</ele>
        <time>2015-08-30T07:47:35Z</time>
      </trkpt>
      <trkpt lat="43.65985" lon="2.37798">
        <ele>620.1877441</ele>
        <time>2015-08-30T07:47:38Z</time>
      </trkpt>
      <trkpt lat="43.65982" lon="2.37807">
        <ele>622.1103516</ele>
        <time>2015-08-30T07:47:44Z</time>
      </trkpt>
      <trkpt lat="43.65981" lon="2.37809">
        <ele>623.0717773</ele>
        <time>2015-08-30T07:47:50Z</time>
      </trkpt>
      <trkpt lat="43.65975" lon="2.37818">
        <ele>622.5910645</ele>
        <time>2015-08-30T07:47:59Z</time>
      </trkpt>
      <trkpt lat="43.65975" lon="2.37819">
        <ele>622.1103516</ele>
        <time>2015-08-30T07:48:00Z</time>
      </trkpt>
      <trkpt lat="43.6597" lon="2.37833">
        <ele>626.9169922</ele>
        <time>2015-08-30T07:48:07Z</time>
      </trkpt>
      <trkpt lat="43.65969" lon="2.37842">
        <ele>627.3977051</ele>
        <time>2015-08-30T07:48:10Z</time>
      </trkpt>
      <trkpt lat="43.65965" lon="2.37859">
        <ele>625.9555664</ele>
        <time>2015-08-30T07:48:16Z</time>
      </trkpt>
      <trkpt lat="43.65963" lon="2.37874">
        <ele>626.9169922</ele>
        <time>2015-08-30T07:48:21Z</time>
      </trkpt>
      <trkpt lat="43.65954" lon="2.37893">
        <ele>630.2814941</ele>
        <time>2015-08-30T07:48:30Z</time>
      </trkpt>
      <trkpt lat="43.65949" lon="2.37899">
        <ele>630.762207</ele>
        <time>2015-08-30T07:48:33Z</time>
      </trkpt>
      <trkpt lat="43.65946" lon="2.37909">
        <ele>631.7233887</ele>
        <time>2015-08-30T07:48:38Z</time>
      </trkpt>
      <trkpt lat="43.65945" lon="2.37926">
        <ele>636.0495605</ele>
        <time>2015-08-30T07:48:45Z</time>
      </trkpt>
      <trkpt lat="43.65939" lon="2.37942">
        <ele>636.0495605</ele>
        <time>2015-08-30T07:48:52Z</time>
      </trkpt>
      <trkpt lat="43.65933" lon="2.37956">
        <ele>635.0881348</ele>
        <time>2015-08-30T07:49:00Z</time>
      </trkpt>
      <trkpt lat="43.65928" lon="2.37964">
        <ele>636.5302734</ele>
        <time>2015-08-30T07:49:07Z</time>
      </trkpt>
      <trkpt lat="43.65926" lon="2.37973">
        <ele>635.5686035</ele>
        <time>2015-08-30T07:49:12Z</time>
      </trkpt>
      <trkpt lat="43.65923" lon="2.37989">
        <ele>634.126709</ele>
        <time>2015-08-30T07:49:20Z</time>
      </trkpt>
      <trkpt lat="43.65917" lon="2.38001">
        <ele>635.0881348</ele>
        <time>2015-08-30T07:49:25Z</time>
      </trkpt>
      <trkpt lat="43.6591" lon="2.38015">
        <ele>637.4914551</ele>
        <time>2015-08-30T07:49:32Z</time>
      </trkpt>
      <trkpt lat="43.65903" lon="2.38026">
        <ele>639.4140625</ele>
        <time>2015-08-30T07:49:38Z</time>
      </trkpt>
      <trkpt lat="43.65896" lon="2.38032">
        <ele>641.8173828</ele>
        <time>2015-08-30T07:49:44Z</time>
      </trkpt>
      <trkpt lat="43.65886" lon="2.38035">
        <ele>642.2980957</ele>
        <time>2015-08-30T07:49:51Z</time>
      </trkpt>
      <trkpt lat="43.6588" lon="2.3804">
        <ele>639.4140625</ele>
        <time>2015-08-30T07:49:58Z</time>
      </trkpt>
      <trkpt lat="43.6588" lon="2.38042">
        <ele>638.9335938</ele>
        <time>2015-08-30T07:50:00Z</time>
      </trkpt>
      <trkpt lat="43.65877" lon="2.38044">
        <ele>639.8947754</ele>
        <time>2015-08-30T07:50:04Z</time>
      </trkpt>
      <trkpt lat="43.65872" lon="2.38048">
        <ele>644.2207031</ele>
        <time>2015-08-30T07:50:09Z</time>
      </trkpt>
      <trkpt lat="43.65866" lon="2.38056">
        <ele>644.2207031</ele>
        <time>2015-08-30T07:50:15Z</time>
      </trkpt>
      <trkpt lat="43.65862" lon="2.38067">
        <ele>645.1818848</ele>
        <time>2015-08-30T07:50:20Z</time>
      </trkpt>
      <trkpt lat="43.65863" lon="2.38082">
        <ele>648.065918</ele>
        <time>2015-08-30T07:50:26Z</time>
      </trkpt>
      <trkpt lat="43.65864" lon="2.38109">
        <ele>639.8947754</ele>
        <time>2015-08-30T07:51:07Z</time>
      </trkpt>
      <trkpt lat="43.65863" lon="2.3811">
        <ele>639.4140625</ele>
        <time>2015-08-30T07:51:12Z</time>
      </trkpt>
      <trkpt lat="43.65858" lon="2.38117">
        <ele>642.7788086</ele>
        <time>2015-08-30T07:51:20Z</time>
      </trkpt>
      <trkpt lat="43.65857" lon="2.38118">
        <ele>644.2207031</ele>
        <time>2015-08-30T07:51:21Z</time>
      </trkpt>
      <trkpt lat="43.65857" lon="2.3813">
        <ele>643.7399902</ele>
        <time>2015-08-30T07:51:28Z</time>
      </trkpt>
      <trkpt lat="43.65858" lon="2.38141">
        <ele>643.7399902</ele>
        <time>2015-08-30T07:51:33Z</time>
      </trkpt>
      <trkpt lat="43.65861" lon="2.38149">
        <ele>644.7011719</ele>
        <time>2015-08-30T07:51:39Z</time>
      </trkpt>
      <trkpt lat="43.65862" lon="2.38165">
        <ele>644.2207031</ele>
        <time>2015-08-30T07:51:48Z</time>
      </trkpt>
      <trkpt lat="43.65862" lon="2.38171">
        <ele>642.7788086</ele>
        <time>2015-08-30T07:51:52Z</time>
      </trkpt>
      <trkpt lat="43.65864" lon="2.38181">
        <ele>644.2207031</ele>
        <time>2015-08-30T07:51:58Z</time>
      </trkpt>
      <trkpt lat="43.65863" lon="2.38195">
        <ele>649.9885254</ele>
        <time>2015-08-30T07:52:06Z</time>
      </trkpt>
      <trkpt lat="43.65861" lon="2.38208">
        <ele>654.3146973</ele>
        <time>2015-08-30T07:52:13Z</time>
      </trkpt>
      <trkpt lat="43.65853" lon="2.38224">
        <ele>657.6791992</ele>
        <time>2015-08-30T07:52:22Z</time>
      </trkpt>
      <trkpt lat="43.65843" lon="2.38233">
        <ele>658.6403809</ele>
        <time>2015-08-30T07:52:29Z</time>
      </trkpt>
      <trkpt lat="43.65841" lon="2.38238">
        <ele>657.1984863</ele>
        <time>2015-08-30T07:52:31Z</time>
      </trkpt>
      <trkpt lat="43.65839" lon="2.38256">
        <ele>656.7177734</ele>
        <time>2015-08-30T07:52:38Z</time>
      </trkpt>
      <trkpt lat="43.65838" lon="2.38271">
        <ele>653.8339844</ele>
        <time>2015-08-30T07:52:44Z</time>
      </trkpt>
      <trkpt lat="43.65837" lon="2.38286">
        <ele>652.8725586</ele>
        <time>2015-08-30T07:52:49Z</time>
      </trkpt>
      <trkpt lat="43.65839" lon="2.3831">
        <ele>650.4692383</ele>
        <time>2015-08-30T07:52:57Z</time>
      </trkpt>
      <trkpt lat="43.65837" lon="2.38324">
        <ele>648.5463867</ele>
        <time>2015-08-30T07:53:02Z</time>
      </trkpt>
      <trkpt lat="43.65835" lon="2.3834">
        <ele>648.5463867</ele>
        <time>2015-08-30T07:53:07Z</time>
      </trkpt>
      <trkpt lat="43.65832" lon="2.38362">
        <ele>651.4304199</ele>
        <time>2015-08-30T07:53:13Z</time>
      </trkpt>
      <trkpt lat="43.65827" lon="2.38385">
        <ele>653.8339844</ele>
        <time>2015-08-30T07:53:19Z</time>
      </trkpt>
      <trkpt lat="43.65825" lon="2.38413">
        <ele>650.949707</ele>
        <time>2015-08-30T07:53:25Z</time>
      </trkpt>
      <trkpt lat="43.65828" lon="2.38433">
        <ele>652.3918457</ele>
        <time>2015-08-30T07:53:30Z</time>
      </trkpt>
      <trkpt lat="43.65831" lon="2.38455">
        <ele>653.8339844</ele>
        <time>2015-08-30T07:53:36Z</time>
      </trkpt>
      <trkpt lat="43.65838" lon="2.38474">
        <ele>653.3532715</ele>
        <time>2015-08-30T07:53:41Z</time>
      </trkpt>
      <trkpt lat="43.65844" lon="2.38489">
        <ele>654.795166</ele>
        <time>2015-08-30T07:53:46Z</time>
      </trkpt>
      <trkpt lat="43.65845" lon="2.38493">
        <ele>654.795166</ele>
        <time>2015-08-30T07:53:48Z</time>
      </trkpt>
      <trkpt lat="43.6585" lon="2.38505">
        <ele>653.8339844</ele>
        <time>2015-08-30T07:53:53Z</time>
      </trkpt>
      <trkpt lat="43.65853" lon="2.38523">
        <ele>653.8339844</ele>
        <time>2015-08-30T07:54:00Z</time>
      </trkpt>
      <trkpt lat="43.65859" lon="2.38539">
        <ele>652.8725586</ele>
        <time>2015-08-30T07:54:07Z</time>
      </trkpt>
      <trkpt lat="43.65864" lon="2.38545">
        <ele>651.4304199</ele>
        <time>2015-08-30T07:54:12Z</time>
      </trkpt>
      <trkpt lat="43.65868" lon="2.38555">
        <ele>649.9885254</ele>
        <time>2015-08-30T07:54:18Z</time>
      </trkpt>
      <trkpt lat="43.65869" lon="2.38558">
        <ele>649.9885254</ele>
        <time>2015-08-30T07:54:19Z</time>
      </trkpt>
      <trkpt lat="43.65873" lon="2.38574">
        <ele>654.795166</ele>
        <time>2015-08-30T07:54:26Z</time>
      </trkpt>
      <trkpt lat="43.65874" lon="2.38577">
        <ele>655.7565918</ele>
        <time>2015-08-30T07:54:28Z</time>
      </trkpt>
      <trkpt lat="43.6588" lon="2.38588">
        <ele>662.4855957</ele>
        <time>2015-08-30T07:54:34Z</time>
      </trkpt>
      <trkpt lat="43.65881" lon="2.3859">
        <ele>662.4855957</ele>
        <time>2015-08-30T07:54:35Z</time>
      </trkpt>
      <trkpt lat="43.65888" lon="2.38606">
        <ele>665.8503418</ele>
        <time>2015-08-30T07:54:42Z</time>
      </trkpt>
      <trkpt lat="43.65892" lon="2.38614">
        <ele>667.2922363</ele>
        <time>2015-08-30T07:54:46Z</time>
      </trkpt>
      <trkpt lat="43.65894" lon="2.38631">
        <ele>667.7727051</ele>
        <time>2015-08-30T07:54:53Z</time>
      </trkpt>
      <trkpt lat="43.65901" lon="2.38645">
        <ele>666.8115234</ele>
        <time>2015-08-30T07:54:59Z</time>
      </trkpt>
      <trkpt lat="43.65902" lon="2.38649">
        <ele>666.3308105</ele>
        <time>2015-08-30T07:55:01Z</time>
      </trkpt>
      <trkpt lat="43.65904" lon="2.38666">
        <ele>666.8115234</ele>
        <time>2015-08-30T07:55:07Z</time>
      </trkpt>
      <trkpt lat="43.65907" lon="2.38679">
        <ele>666.3308105</ele>
        <time>2015-08-30T07:55:12Z</time>
      </trkpt>
      <trkpt lat="43.65911" lon="2.38695">
        <ele>664.4082031</ele>
        <time>2015-08-30T07:55:18Z</time>
      </trkpt>
      <trkpt lat="43.65916" lon="2.38712">
        <ele>665.8503418</ele>
        <time>2015-08-30T07:55:24Z</time>
      </trkpt>
      <trkpt lat="43.65916" lon="2.38714">
        <ele>665.3696289</ele>
        <time>2015-08-30T07:55:25Z</time>
      </trkpt>
      <trkpt lat="43.65918" lon="2.38729">
        <ele>665.3696289</ele>
        <time>2015-08-30T07:55:31Z</time>
      </trkpt>
      <trkpt lat="43.65918" lon="2.38745">
        <ele>667.2922363</ele>
        <time>2015-08-30T07:55:37Z</time>
      </trkpt>
      <trkpt lat="43.6592" lon="2.38755">
        <ele>670.1762695</ele>
        <time>2015-08-30T07:55:41Z</time>
      </trkpt>
      <trkpt lat="43.65921" lon="2.3876">
        <ele>670.6569824</ele>
        <time>2015-08-30T07:55:43Z</time>
      </trkpt>
      <trkpt lat="43.65923" lon="2.38774">
        <ele>673.5410156</ele>
        <time>2015-08-30T07:55:50Z</time>
      </trkpt>
      <trkpt lat="43.65926" lon="2.38783">
        <ele>675.4633789</ele>
        <time>2015-08-30T07:55:55Z</time>
      </trkpt>
      <trkpt lat="43.65926" lon="2.38786">
        <ele>675.4633789</ele>
        <time>2015-08-30T07:55:56Z</time>
      </trkpt>
      <trkpt lat="43.65927" lon="2.38806">
        <ele>673.5410156</ele>
        <time>2015-08-30T07:56:03Z</time>
      </trkpt>
      <trkpt lat="43.65929" lon="2.38824">
        <ele>674.5021973</ele>
        <time>2015-08-30T07:56:10Z</time>
      </trkpt>
      <trkpt lat="43.65933" lon="2.38836">
        <ele>675.4633789</ele>
        <time>2015-08-30T07:56:15Z</time>
      </trkpt>
      <trkpt lat="43.65932" lon="2.38849">
        <ele>676.9055176</ele>
        <time>2015-08-30T07:56:20Z</time>
      </trkpt>
      <trkpt lat="43.65934" lon="2.38858">
        <ele>677.3862305</ele>
        <time>2015-08-30T07:56:25Z</time>
      </trkpt>
      <trkpt lat="43.65938" lon="2.38872">
        <ele>675.9440918</ele>
        <time>2015-08-30T07:56:30Z</time>
      </trkpt>
      <trkpt lat="43.6594" lon="2.3889">
        <ele>674.9829102</ele>
        <time>2015-08-30T07:56:35Z</time>
      </trkpt>
      <trkpt lat="43.65942" lon="2.38905">
        <ele>675.9440918</ele>
        <time>2015-08-30T07:56:40Z</time>
      </trkpt>
      <trkpt lat="43.65946" lon="2.38927">
        <ele>678.3474121</ele>
        <time>2015-08-30T07:56:45Z</time>
      </trkpt>
      <trkpt lat="43.65949" lon="2.3894">
        <ele>677.3862305</ele>
        <time>2015-08-30T07:56:48Z</time>
      </trkpt>
      <trkpt lat="43.65943" lon="2.38955">
        <ele>679.3085938</ele>
        <time>2015-08-30T07:56:53Z</time>
      </trkpt>
      <trkpt lat="43.65934" lon="2.38976">
        <ele>678.3474121</ele>
        <time>2015-08-30T07:57:00Z</time>
      </trkpt>
      <trkpt lat="43.65928" lon="2.38992">
        <ele>677.8666992</ele>
        <time>2015-08-30T07:57:06Z</time>
      </trkpt>
      <trkpt lat="43.65925" lon="2.3902">
        <ele>679.3085938</ele>
        <time>2015-08-30T07:57:11Z</time>
      </trkpt>
      <trkpt lat="43.65921" lon="2.39053">
        <ele>678.828125</ele>
        <time>2015-08-30T07:57:17Z</time>
      </trkpt>
      <trkpt lat="43.6592" lon="2.39069">
        <ele>677.8666992</ele>
        <time>2015-08-30T07:57:20Z</time>
      </trkpt>
      <trkpt lat="43.65913" lon="2.39097">
        <ele>683.1538086</ele>
        <time>2015-08-30T07:57:26Z</time>
      </trkpt>
      <trkpt lat="43.65909" lon="2.39116">
        <ele>684.1154785</ele>
        <time>2015-08-30T07:57:30Z</time>
      </trkpt>
      <trkpt lat="43.65902" lon="2.39134">
        <ele>682.192627</ele>
        <time>2015-08-30T07:57:35Z</time>
      </trkpt>
      <trkpt lat="43.659" lon="2.3914">
        <ele>682.192627</ele>
        <time>2015-08-30T07:57:37Z</time>
      </trkpt>
      <trkpt lat="43.65884" lon="2.39161">
        <ele>683.6345215</ele>
        <time>2015-08-30T07:57:43Z</time>
      </trkpt>
      <trkpt lat="43.65881" lon="2.3918">
        <ele>683.6345215</ele>
        <time>2015-08-30T07:57:47Z</time>
      </trkpt>
      <trkpt lat="43.65884" lon="2.39203">
        <ele>682.192627</ele>
        <time>2015-08-30T07:57:51Z</time>
      </trkpt>
      <trkpt lat="43.65889" lon="2.39235">
        <ele>680.2700195</ele>
        <time>2015-08-30T07:57:55Z</time>
      </trkpt>
      <trkpt lat="43.65892" lon="2.39248">
        <ele>677.8666992</ele>
        <time>2015-08-30T07:57:57Z</time>
      </trkpt>
      <trkpt lat="43.65896" lon="2.39268">
        <ele>674.5021973</ele>
        <time>2015-08-30T07:58:02Z</time>
      </trkpt>
      <trkpt lat="43.65898" lon="2.39277">
        <ele>674.0214844</ele>
        <time>2015-08-30T07:58:04Z</time>
      </trkpt>
      <trkpt lat="43.65904" lon="2.39298">
        <ele>674.5021973</ele>
        <time>2015-08-30T07:58:09Z</time>
      </trkpt>
      <trkpt lat="43.65903" lon="2.39321">
        <ele>673.5410156</ele>
        <time>2015-08-30T07:58:15Z</time>
      </trkpt>
      <trkpt lat="43.65894" lon="2.39343">
        <ele>671.1376953</ele>
        <time>2015-08-30T07:58:20Z</time>
      </trkpt>
      <trkpt lat="43.65892" lon="2.39357">
        <ele>671.1376953</ele>
        <time>2015-08-30T07:58:24Z</time>
      </trkpt>
      <trkpt lat="43.6589" lon="2.39373">
        <ele>666.3308105</ele>
        <time>2015-08-30T07:58:31Z</time>
      </trkpt>
      <trkpt lat="43.65887" lon="2.39385">
        <ele>667.2922363</ele>
        <time>2015-08-30T07:58:36Z</time>
      </trkpt>
      <trkpt lat="43.65879" lon="2.39402">
        <ele>668.2536621</ele>
        <time>2015-08-30T07:58:42Z</time>
      </trkpt>
      <trkpt lat="43.65874" lon="2.39422">
        <ele>672.098877</ele>
        <time>2015-08-30T07:58:48Z</time>
      </trkpt>
      <trkpt lat="43.65869" lon="2.39447">
        <ele>674.0214844</ele>
        <time>2015-08-30T07:58:54Z</time>
      </trkpt>
      <trkpt lat="43.65863" lon="2.39468">
        <ele>671.6181641</ele>
        <time>2015-08-30T07:58:58Z</time>
      </trkpt>
      <trkpt lat="43.65859" lon="2.39502">
        <ele>672.098877</ele>
        <time>2015-08-30T07:59:02Z</time>
      </trkpt>
      <trkpt lat="43.65855" lon="2.39524">
        <ele>670.6569824</ele>
        <time>2015-08-30T07:59:07Z</time>
      </trkpt>
      <trkpt lat="43.6585" lon="2.39536">
        <ele>669.6958008</ele>
        <time>2015-08-30T07:59:10Z</time>
      </trkpt>
      <trkpt lat="43.65841" lon="2.39577">
        <ele>674.5021973</ele>
        <time>2015-08-30T07:59:18Z</time>
      </trkpt>
      <trkpt lat="43.65837" lon="2.39594">
        <ele>676.4248047</ele>
        <time>2015-08-30T07:59:21Z</time>
      </trkpt>
      <trkpt lat="43.65826" lon="2.39628">
        <ele>677.3862305</ele>
        <time>2015-08-30T07:59:28Z</time>
      </trkpt>
      <trkpt lat="43.65818" lon="2.3965">
        <ele>677.3862305</ele>
        <time>2015-08-30T07:59:34Z</time>
      </trkpt>
      <trkpt lat="43.65817" lon="2.39678">
        <ele>676.4248047</ele>
        <time>2015-08-30T07:59:40Z</time>
      </trkpt>
      <trkpt lat="43.65816" lon="2.39692">
        <ele>677.3862305</ele>
        <time>2015-08-30T07:59:44Z</time>
      </trkpt>
      <trkpt lat="43.65815" lon="2.39708">
        <ele>678.828125</ele>
        <time>2015-08-30T07:59:49Z</time>
      </trkpt>
      <trkpt lat="43.65816" lon="2.39724">
        <ele>679.3085938</ele>
        <time>2015-08-30T07:59:54Z</time>
      </trkpt>
      <trkpt lat="43.65818" lon="2.39735">
        <ele>679.7893066</ele>
        <time>2015-08-30T07:59:58Z</time>
      </trkpt>
      <trkpt lat="43.65822" lon="2.39757">
        <ele>680.2700195</ele>
        <time>2015-08-30T08:00:04Z</time>
      </trkpt>
      <trkpt lat="43.65828" lon="2.39772">
        <ele>678.828125</ele>
        <time>2015-08-30T08:00:09Z</time>
      </trkpt>
      <trkpt lat="43.6584" lon="2.39796">
        <ele>673.3</ele>
      </trkpt>
      <trkpt lat="43.65847" lon="2.39827">
        <ele>672.5</ele>
      </trkpt>
      <trkpt lat="43.65824" lon="2.3985">
        <ele>671.4</ele>
      </trkpt>
      <trkpt lat="43.658" lon="2.39879">
        <ele>667.9</ele>
      </trkpt>
      <trkpt lat="43.65783" lon="2.39904">
        <ele>665.8</ele>
      </trkpt>
      <trkpt lat="43.65752" lon="2.39915">
        <ele>662.2</ele>
      </trkpt>
      <trkpt lat="43.65731" lon="2.3991">
        <ele>661.5</ele>
      </trkpt>
      <trkpt lat="43.65718" lon="2.399">
        <ele>660.9</ele>
      </trkpt>
      <trkpt lat="43.65689" lon="2.39925">
        <ele>661.6</ele>
      </trkpt>
      <trkpt lat="43.65669" lon="2.3993">
        <ele>661.8</ele>
      </trkpt>
      <trkpt lat="43.65648" lon="2.39926">
        <ele>664.2</ele>
      </trkpt>
      <trkpt lat="43.65637" lon="2.39916">
        <ele>665.2</ele>
      </trkpt>
      <trkpt lat="43.65624" lon="2.39895">
        <ele>665.3</ele>
      </trkpt>
      <trkpt lat="43.65563" lon="2.3984">
        <ele>666.1</ele>
      </trkpt>
      <trkpt lat="43.65531" lon="2.39841">
        <ele>666.9</ele>
      </trkpt>
      <trkpt lat="43.65495" lon="2.39863">
        <ele>669</ele>
      </trkpt>
      <trkpt lat="43.65484" lon="2.39877">
        <ele>669.6</ele>
      </trkpt>
      <trkpt lat="43.65442" lon="2.39871">
        <ele>668.1</ele>
      </trkpt>
      <trkpt lat="43.65431" lon="2.39869">
        <ele>655.7</ele>
      </trkpt>
      <trkpt lat="43.65423" lon="2.39874">
        <ele>655.6</ele>
      </trkpt>
      <trkpt lat="43.65412" lon="2.39855">
        <ele>654.8</ele>
      </trkpt>
      <trkpt lat="43.65379" lon="2.398">
        <ele>652.3</ele>
      </trkpt>
      <trkpt lat="43.65317" lon="2.39738">
        <ele>650.3</ele>
      </trkpt>
      <trkpt lat="43.65313" lon="2.39692">
        <ele>649.6</ele>
      </trkpt>
      <trkpt lat="43.65302" lon="2.39639">
        <ele>647.3</ele>
      </trkpt>
      <trkpt lat="43.65285" lon="2.39592">
        <ele>645.2</ele>
      </trkpt>
      <trkpt lat="43.65268" lon="2.39556">
        <ele>643</ele>
      </trkpt>
      <trkpt lat="43.65214" lon="2.39507">
        <ele>640.3</ele>
      </trkpt>
      <trkpt lat="43.6519" lon="2.39483">
        <ele>640.5</ele>
      </trkpt>
      <trkpt lat="43.65174" lon="2.3944">
        <ele>641.2</ele>
      </trkpt>
      <trkpt lat="43.65163" lon="2.39405">
        <ele>641.9</ele>
      </trkpt>
      <trkpt lat="43.65161" lon="2.3937">
        <ele>641.6</ele>
      </trkpt>
      <trkpt lat="43.65137" lon="2.39316">
        <ele>643</ele>
      </trkpt>
      <trkpt lat="43.65133" lon="2.39291">
        <ele>642.7</ele>
      </trkpt>
      <trkpt lat="43.65148" lon="2.39179">
        <ele>637.6</ele>
      </trkpt>
      <trkpt lat="43.6515" lon="2.39132">
        <ele>632.6</ele>
      </trkpt>
      <trkpt lat="43.65108" lon="2.39123">
        <ele>625.4</ele>
      </trkpt>
      <trkpt lat="43.65096" lon="2.39124">
        <ele>623.8</ele>
      </trkpt>
      <trkpt lat="43.6506" lon="2.39157">
        <ele>620.9</ele>
      </trkpt>
      <trkpt lat="43.65047" lon="2.39157">
        <ele>619.5</ele>
      </trkpt>
      <trkpt lat="43.65037" lon="2.39153">
        <ele>618.3</ele>
      </trkpt>
      <trkpt lat="43.65028" lon="2.39138">
        <ele>617</ele>
      </trkpt>
      <trkpt lat="43.65006" lon="2.39128">
        <ele>618.6</ele>
      </trkpt>
      <trkpt lat="43.64988" lon="2.39095">
        <ele>620.5</ele>
      </trkpt>
      <trkpt lat="43.64981" lon="2.39054">
        <ele>620</ele>
      </trkpt>
      <trkpt lat="43.64967" lon="2.39037">
        <ele>621.1</ele>
      </trkpt>
      <trkpt lat="43.64949" lon="2.38978">
        <ele>619.2</ele>
      </trkpt>
      <trkpt lat="43.64945" lon="2.38949">
        <ele>617.3</ele>
      </trkpt>
      <trkpt lat="43.64942" lon="2.38879">
        <ele>613.4</ele>
      </trkpt>
      <trkpt lat="43.6494" lon="2.38862">
        <ele>612.2</ele>
      </trkpt>
      <trkpt lat="43.64942" lon="2.38833">
        <ele>610</ele>
      </trkpt>
      <trkpt lat="43.64941" lon="2.38809">
        <ele>607.4</ele>
      </trkpt>
      <trkpt lat="43.64927" lon="2.38788">
        <ele>605.1</ele>
      </trkpt>
      <trkpt lat="43.64901" lon="2.38733">
        <ele>598.7</ele>
      </trkpt>
      <trkpt lat="43.64892" lon="2.3869">
        <ele>598</ele>
      </trkpt>
      <trkpt lat="43.64877" lon="2.38628">
        <ele>599</ele>
      </trkpt>
      <trkpt lat="43.64862" lon="2.38587">
        <ele>599</ele>
      </trkpt>
      <trkpt lat="43.64858" lon="2.38577">
        <ele>599</ele>
      </trkpt>
      <trkpt lat="43.64836" lon="2.38533">
        <ele>599</ele>
      </trkpt>
      <trkpt lat="43.64843" lon="2.38525">
        <ele>599</ele>
      </trkpt>
      <trkpt lat="43.64864" lon="2.38494">
        <ele>598</ele>
      </trkpt>
      <trkpt lat="43.64862" lon="2.3849">
        <ele>598</ele>
      </trkpt>
      <trkpt lat="43.64852" lon="2.38472">
        <ele>598.3</ele>
      </trkpt>
      <trkpt lat="43.64829" lon="2.38485">
        <ele>599.2</ele>
      </trkpt>
      <trkpt lat="43.64811" lon="2.38493">
        <ele>600</ele>
      </trkpt>
      <trkpt lat="43.64792" lon="2.38522">
        <ele>599.8</ele>
      </trkpt>
      <trkpt lat="43.64748" lon="2.38542">
        <ele>600.1</ele>
      </trkpt>
      <trkpt lat="43.64737" lon="2.38551">
        <ele>599.9</ele>
      </trkpt>
      <trkpt lat="43.64724" lon="2.3855">
        <ele>600.5</ele>
      </trkpt>
      <trkpt lat="43.64696" lon="2.38554">
        <ele>600.2</ele>
      </trkpt>
      <trkpt lat="43.64668" lon="2.38551">
        <ele>600.6</ele>
      </trkpt>
      <trkpt lat="43.64606" lon="2.3856">
        <ele>600</ele>
      </trkpt>
      <trkpt lat="43.64602" lon="2.38558">
        <ele>600.2</ele>
      </trkpt>
      <trkpt lat="43.64598" lon="2.38559">
        <ele>600.3</ele>
      </trkpt>
      <trkpt lat="43.64594" lon="2.38557">
        <ele>600.6</ele>
      </trkpt>
      <trkpt lat="43.6459" lon="2.38556">
        <ele>600.7</ele>
      </trkpt>
      <trkpt lat="43.64584" lon="2.3854">
        <ele>601.6</ele>
      </trkpt>
      <trkpt lat="43.64588" lon="2.38532">
        <ele>601.8</ele>
      </trkpt>
      <trkpt lat="43.64599" lon="2.38531">
        <ele>601.8</ele>
      </trkpt>
      <trkpt lat="43.64603" lon="2.38505">
        <ele>603.4</ele>
      </trkpt>
      <trkpt lat="43.64609" lon="2.3849">
        <ele>604.7</ele>
      </trkpt>
      <trkpt lat="43.64632" lon="2.38471">
        <ele>607.5</ele>
      </trkpt>
      <trkpt lat="43.64644" lon="2.38447">
        <ele>608.4</ele>
      </trkpt>
      <trkpt lat="43.64652" lon="2.38424">
        <ele>609</ele>
      </trkpt>
      <trkpt lat="43.64651" lon="2.38398">
        <ele>609.1</ele>
      </trkpt>
      <trkpt lat="43.64617" lon="2.3839">
        <ele>610.7</ele>
      </trkpt>
      <trkpt lat="43.64575" lon="2.38369">
        <ele>612.8</ele>
      </trkpt>
      <trkpt lat="43.64556" lon="2.38352">
        <ele>614.3</ele>
      </trkpt>
      <trkpt lat="43.64526" lon="2.38299">
        <ele>618.4</ele>
      </trkpt>
      <trkpt lat="43.64504" lon="2.38252">
        <ele>621</ele>
      </trkpt>
      <trkpt lat="43.64485" lon="2.3822">
        <ele>623.7</ele>
      </trkpt>
      <trkpt lat="43.6446" lon="2.38198">
        <ele>624.2</ele>
      </trkpt>
      <trkpt lat="43.64438" lon="2.38167">
        <ele>625.1</ele>
      </trkpt>
      <trkpt lat="43.64421" lon="2.38141">
        <ele>624.3</ele>
      </trkpt>
      <trkpt lat="43.64404" lon="2.38115">
        <ele>625.3</ele>
      </trkpt>
      <trkpt lat="43.64403" lon="2.38096">
        <ele>626.3</ele>
      </trkpt>
      <trkpt lat="43.64429" lon="2.38078">
        <ele>640.3754883</ele>
        <time>2015-08-30T09:18:05Z</time>
      </trkpt>
      <trkpt lat="43.64448" lon="2.38074">
        <ele>643.2592773</ele>
        <time>2015-08-30T09:18:14Z</time>
      </trkpt>
      <trkpt lat="43.64458" lon="2.3806">
        <ele>638.4528809</ele>
        <time>2015-08-30T09:18:19Z</time>
      </trkpt>
      <trkpt lat="43.64461" lon="2.38041">
        <ele>636.5302734</ele>
        <time>2015-08-30T09:18:25Z</time>
      </trkpt>
      <trkpt lat="43.64461" lon="2.3802">
        <ele>632.6848145</ele>
        <time>2015-08-30T09:18:31Z</time>
      </trkpt>
      <trkpt lat="43.6446" lon="2.37996">
        <ele>628.3588867</ele>
        <time>2015-08-30T09:18:38Z</time>
      </trkpt>
      <trkpt lat="43.64458" lon="2.37976">
        <ele>633.1652832</ele>
        <time>2015-08-30T09:18:44Z</time>
      </trkpt>
      <trkpt lat="43.64456" lon="2.37952">
        <ele>629.8007813</ele>
        <time>2015-08-30T09:18:50Z</time>
      </trkpt>
      <trkpt lat="43.64454" lon="2.37934">
        <ele>632.6848145</ele>
        <time>2015-08-30T09:18:56Z</time>
      </trkpt>
      <trkpt lat="43.64445" lon="2.37916">
        <ele>634.6074219</ele>
        <time>2015-08-30T09:19:02Z</time>
      </trkpt>
      <trkpt lat="43.64433" lon="2.37894">
        <ele>636.0495605</ele>
        <time>2015-08-30T09:19:08Z</time>
      </trkpt>
      <trkpt lat="43.64429" lon="2.37874">
        <ele>637.972168</ele>
        <time>2015-08-30T09:19:14Z</time>
      </trkpt>
      <trkpt lat="43.64424" lon="2.3785">
        <ele>640.855957</ele>
        <time>2015-08-30T09:19:20Z</time>
      </trkpt>
      <trkpt lat="43.6442" lon="2.37838">
        <ele>639.8947754</ele>
        <time>2015-08-30T09:19:24Z</time>
      </trkpt>
      <trkpt lat="43.64419" lon="2.37822">
        <ele>641.3366699</ele>
        <time>2015-08-30T09:19:29Z</time>
      </trkpt>
      <trkpt lat="43.64419" lon="2.37804">
        <ele>640.3754883</ele>
        <time>2015-08-30T09:19:34Z</time>
      </trkpt>
      <trkpt lat="43.64419" lon="2.378">
        <ele>639.8947754</ele>
        <time>2015-08-30T09:19:36Z</time>
      </trkpt>
      <trkpt lat="43.64413" lon="2.37774">
        <ele>644.7011719</ele>
        <time>2015-08-30T09:19:43Z</time>
      </trkpt>
      <trkpt lat="43.64414" lon="2.37755">
        <ele>642.7788086</ele>
        <time>2015-08-30T09:19:48Z</time>
      </trkpt>
      <trkpt lat="43.64418" lon="2.37732">
        <ele>643.2592773</ele>
        <time>2015-08-30T09:19:54Z</time>
      </trkpt>
      <trkpt lat="43.64425" lon="2.37703">
        <ele>638.9335938</ele>
        <time>2015-08-30T09:20:00Z</time>
      </trkpt>
      <trkpt lat="43.64429" lon="2.37681">
        <ele>632.2041016</ele>
        <time>2015-08-30T09:20:04Z</time>
      </trkpt>
      <trkpt lat="43.64431" lon="2.37673">
        <ele>631.7233887</ele>
        <time>2015-08-30T09:20:05Z</time>
      </trkpt>
      <trkpt lat="43.64439" lon="2.37636">
        <ele>630.2814941</ele>
        <time>2015-08-30T09:20:11Z</time>
      </trkpt>
      <trkpt lat="43.64447" lon="2.37525">
        <ele>639.4140625</ele>
        <time>2015-08-30T09:23:29Z</time>
      </trkpt>
      <trkpt lat="43.6445" lon="2.37505">
        <ele>633.6459961</ele>
        <time>2015-08-30T09:23:35Z</time>
      </trkpt>
      <trkpt lat="43.64457" lon="2.37472">
        <ele>632.6848145</ele>
        <time>2015-08-30T09:23:40Z</time>
      </trkpt>
      <trkpt lat="43.64463" lon="2.37414">
        <ele>629.3200684</ele>
        <time>2015-08-30T09:23:46Z</time>
      </trkpt>
      <trkpt lat="43.64471" lon="2.37365">
        <ele>625.4748535</ele>
        <time>2015-08-30T09:23:52Z</time>
      </trkpt>
      <trkpt lat="43.64481" lon="2.37314">
        <ele>624.9943848</ele>
        <time>2015-08-30T09:23:59Z</time>
      </trkpt>
      <trkpt lat="43.64483" lon="2.37282">
        <ele>626.4362793</ele>
        <time>2015-08-30T09:24:03Z</time>
      </trkpt>
      <trkpt lat="43.64479" lon="2.37258">
        <ele>626.4362793</ele>
        <time>2015-08-30T09:24:07Z</time>
      </trkpt>
      <trkpt lat="43.64477" lon="2.37241">
        <ele>626.9169922</ele>
        <time>2015-08-30T09:24:11Z</time>
      </trkpt>
      <trkpt lat="43.64484" lon="2.3722">
        <ele>624.9943848</ele>
        <time>2015-08-30T09:24:17Z</time>
      </trkpt>
      <trkpt lat="43.6449" lon="2.37189">
        <ele>623.0717773</ele>
        <time>2015-08-30T09:24:23Z</time>
      </trkpt>
      <trkpt lat="43.64498" lon="2.37165">
        <ele>618.2648926</ele>
        <time>2015-08-30T09:24:28Z</time>
      </trkpt>
      <trkpt lat="43.64503" lon="2.37146">
        <ele>616.3422852</ele>
        <time>2015-08-30T09:24:34Z</time>
      </trkpt>
      <trkpt lat="43.64501" lon="2.37144">
        <ele>617.7841797</ele>
        <time>2015-08-30T09:24:38Z</time>
      </trkpt>
      <trkpt lat="43.64499" lon="2.37139">
        <ele>618.7456055</ele>
        <time>2015-08-30T09:24:47Z</time>
      </trkpt>
      <trkpt lat="43.64499" lon="2.37136">
        <ele>619.2263184</ele>
        <time>2015-08-30T09:24:54Z</time>
      </trkpt>
      <trkpt lat="43.64501" lon="2.37134">
        <ele>619.2263184</ele>
        <time>2015-08-30T09:25:03Z</time>
      </trkpt>
      <trkpt lat="43.64502" lon="2.37129">
        <ele>618.2648926</ele>
        <time>2015-08-30T09:25:08Z</time>
      </trkpt>
      <trkpt lat="43.64504" lon="2.37122">
        <ele>617.7841797</ele>
        <time>2015-08-30T09:25:13Z</time>
      </trkpt>
      <trkpt lat="43.6451" lon="2.37099">
        <ele>617.3037109</ele>
        <time>2015-08-30T09:25:21Z</time>
      </trkpt>
      <trkpt lat="43.64513" lon="2.37081">
        <ele>618.2648926</ele>
        <time>2015-08-30T09:25:27Z</time>
      </trkpt>
      <trkpt lat="43.64515" lon="2.37061">
        <ele>617.7841797</ele>
        <time>2015-08-30T09:25:32Z</time>
      </trkpt>
      <trkpt lat="43.64517" lon="2.37032">
        <ele>617.7841797</ele>
        <time>2015-08-30T09:25:38Z</time>
      </trkpt>
      <trkpt lat="43.64527" lon="2.37006">
        <ele>619.2263184</ele>
        <time>2015-08-30T09:25:44Z</time>
      </trkpt>
      <trkpt lat="43.64534" lon="2.36985">
        <ele>616.822998</ele>
        <time>2015-08-30T09:25:48Z</time>
      </trkpt>
      <trkpt lat="43.6454" lon="2.3697">
        <ele>614.4196777</ele>
        <time>2015-08-30T09:25:53Z</time>
      </trkpt>
      <trkpt lat="43.64548" lon="2.3695">
        <ele>613.4584961</ele>
        <time>2015-08-30T09:25:57Z</time>
      </trkpt>
      <trkpt lat="43.64548" lon="2.36929">
        <ele>612.9777832</ele>
        <time>2015-08-30T09:26:02Z</time>
      </trkpt>
      <trkpt lat="43.64543" lon="2.36906">
        <ele>614.9003906</ele>
        <time>2015-08-30T09:26:07Z</time>
      </trkpt>
      <trkpt lat="43.64542" lon="2.36884">
        <ele>611.5358887</ele>
        <time>2015-08-30T09:26:11Z</time>
      </trkpt>
      <trkpt lat="43.64542" lon="2.36863">
        <ele>610.5744629</ele>
        <time>2015-08-30T09:26:15Z</time>
      </trkpt>
      <trkpt lat="43.64547" lon="2.36839">
        <ele>609.1325684</ele>
        <time>2015-08-30T09:26:20Z</time>
      </trkpt>
      <trkpt lat="43.6455" lon="2.36825">
        <ele>608.1713867</ele>
        <time>2015-08-30T09:26:22Z</time>
      </trkpt>
      <trkpt lat="43.64555" lon="2.36809">
        <ele>607.2099609</ele>
        <time>2015-08-30T09:26:25Z</time>
      </trkpt>
      <trkpt lat="43.64562" lon="2.36786">
        <ele>606.2485352</ele>
        <time>2015-08-30T09:26:31Z</time>
      </trkpt>
      <trkpt lat="43.64573" lon="2.36761">
        <ele>600.4807129</ele>
        <time>2015-08-30T09:26:37Z</time>
      </trkpt>
      <trkpt lat="43.64576" lon="2.36745">
        <ele>594.2321777</ele>
        <time>2015-08-30T09:26:41Z</time>
      </trkpt>
      <trkpt lat="43.64577" lon="2.36743">
        <ele>594.2321777</ele>
        <time>2015-08-30T09:26:42Z</time>
      </trkpt>
      <trkpt lat="43.64581" lon="2.36734">
        <ele>598.5578613</ele>
        <time>2015-08-30T09:26:47Z</time>
      </trkpt>
      <trkpt lat="43.64585" lon="2.36723">
        <ele>603.364502</ele>
        <time>2015-08-30T09:26:54Z</time>
      </trkpt>
      <trkpt lat="43.64586" lon="2.36718">
        <ele>603.8452148</ele>
        <time>2015-08-30T09:26:55Z</time>
      </trkpt>
      <trkpt lat="43.64585" lon="2.36707">
        <ele>605.2873535</ele>
        <time>2015-08-30T09:27:00Z</time>
      </trkpt>
      <trkpt lat="43.64586" lon="2.36702">
        <ele>603.8452148</ele>
        <time>2015-08-30T09:27:07Z</time>
      </trkpt>
      <trkpt lat="43.64589" lon="2.367">
        <ele>603.364502</ele>
        <time>2015-08-30T09:27:09Z</time>
      </trkpt>
      <trkpt lat="43.64591" lon="2.36692">
        <ele>597.5966797</ele>
        <time>2015-08-30T09:27:13Z</time>
      </trkpt>
      <trkpt lat="43.64601" lon="2.36666">
        <ele>591.8288574</ele>
        <time>2015-08-30T09:27:19Z</time>
      </trkpt>
      <trkpt lat="43.64613" lon="2.36648">
        <ele>590.8674316</ele>
        <time>2015-08-30T09:27:24Z</time>
      </trkpt>
      <trkpt lat="43.64634" lon="2.3663">
        <ele>598.0773926</ele>
        <time>2015-08-30T09:27:30Z</time>
      </trkpt>
      <trkpt lat="43.64642" lon="2.36623">
        <ele>598.5578613</ele>
        <time>2015-08-30T09:27:32Z</time>
      </trkpt>
      <trkpt lat="43.64656" lon="2.36614">
        <ele>600.4807129</ele>
        <time>2015-08-30T09:27:35Z</time>
      </trkpt>
      <trkpt lat="43.64673" lon="2.36601">
        <ele>602.4030762</ele>
        <time>2015-08-30T09:27:39Z</time>
      </trkpt>
      <trkpt lat="43.64693" lon="2.36572">
        <ele>593.7514648</ele>
        <time>2015-08-30T09:27:45Z</time>
      </trkpt>
      <trkpt lat="43.64708" lon="2.36548">
        <ele>589.90625</ele>
        <time>2015-08-30T09:27:50Z</time>
      </trkpt>
      <trkpt lat="43.64717" lon="2.36524">
        <ele>585.5800781</ele>
        <time>2015-08-30T09:27:55Z</time>
      </trkpt>
      <trkpt lat="43.64727" lon="2.36506">
        <ele>580.2929688</ele>
        <time>2015-08-30T09:28:00Z</time>
      </trkpt>
      <trkpt lat="43.64733" lon="2.36497">
        <ele>581.7348633</ele>
        <time>2015-08-30T09:28:05Z</time>
      </trkpt>
      <trkpt lat="43.64737" lon="2.36493">
        <ele>583.6574707</ele>
        <time>2015-08-30T09:28:10Z</time>
      </trkpt>
      <trkpt lat="43.6474" lon="2.36483">
        <ele>583.6574707</ele>
        <time>2015-08-30T09:28:16Z</time>
      </trkpt>
      <trkpt lat="43.64741" lon="2.36481">
        <ele>584.1381836</ele>
        <time>2015-08-30T09:28:17Z</time>
      </trkpt>
      <trkpt lat="43.6474" lon="2.3648">
        <ele>587.9833984</ele>
        <time>2015-08-30T09:28:23Z</time>
      </trkpt>
      <trkpt lat="43.64743" lon="2.36465">
        <ele>587.0219727</ele>
        <time>2015-08-30T09:28:27Z</time>
      </trkpt>
      <trkpt lat="43.64747" lon="2.36436">
        <ele>585.5800781</ele>
        <time>2015-08-30T09:28:31Z</time>
      </trkpt>
      <trkpt lat="43.64752" lon="2.36409">
        <ele>581.7348633</ele>
        <time>2015-08-30T09:28:34Z</time>
      </trkpt>
      <trkpt lat="43.64767" lon="2.36369">
        <ele>579.331543</ele>
        <time>2015-08-30T09:28:39Z</time>
      </trkpt>
      <trkpt lat="43.64766" lon="2.36349">
        <ele>580.7736816</ele>
        <time>2015-08-30T09:28:43Z</time>
      </trkpt>
      <trkpt lat="43.64764" lon="2.3634">
        <ele>583.1767578</ele>
        <time>2015-08-30T09:28:45Z</time>
      </trkpt>
      <trkpt lat="43.64764" lon="2.36307">
        <ele>577.8896484</ele>
        <time>2015-08-30T09:28:51Z</time>
      </trkpt>
      <trkpt lat="43.64765" lon="2.36287">
        <ele>577.4091797</ele>
        <time>2015-08-30T09:28:55Z</time>
      </trkpt>
      <trkpt lat="43.64768" lon="2.36284">
        <ele>582.6962891</ele>
        <time>2015-08-30T09:28:59Z</time>
      </trkpt>
      <trkpt lat="43.64764" lon="2.36283">
        <ele>594.2321777</ele>
        <time>2015-08-30T09:29:05Z</time>
      </trkpt>
      <trkpt lat="43.64769" lon="2.36289">
        <ele>574.5251465</ele>
        <time>2015-08-30T09:29:24Z</time>
      </trkpt>
      <trkpt lat="43.64769" lon="2.36283">
        <ele>575.4863281</ele>
        <time>2015-08-30T09:29:56Z</time>
      </trkpt>
      <trkpt lat="43.64759" lon="2.3627">
        <ele>584.1381836</ele>
        <time>2015-08-30T09:30:03Z</time>
      </trkpt>
      <trkpt lat="43.64766" lon="2.36274">
        <ele>580.2929688</ele>
        <time>2015-08-30T09:30:11Z</time>
      </trkpt>
      <trkpt lat="43.64768" lon="2.36276">
        <ele>576.4477539</ele>
        <time>2015-08-30T09:30:17Z</time>
      </trkpt>
      <trkpt lat="43.64769" lon="2.36275">
        <ele>577.4091797</ele>
        <time>2015-08-30T09:30:22Z</time>
      </trkpt>
      <trkpt lat="43.64768" lon="2.36282">
        <ele>572.1218262</ele>
        <time>2015-08-30T09:30:51Z</time>
      </trkpt>
      <trkpt lat="43.6477" lon="2.36282">
        <ele>579.331543</ele>
        <time>2015-08-30T09:30:57Z</time>
      </trkpt>
      <trkpt lat="43.64768" lon="2.36275">
        <ele>583.6574707</ele>
        <time>2015-08-30T09:31:32Z</time>
      </trkpt>
      <trkpt lat="43.64775" lon="2.36263">
        <ele>577.4091797</ele>
        <time>2015-08-30T09:31:39Z</time>
      </trkpt>
      <trkpt lat="43.64774" lon="2.36263">
        <ele>575.967041</ele>
        <time>2015-08-30T09:31:40Z</time>
      </trkpt>
      <trkpt lat="43.64776" lon="2.36249">
        <ele>571.1604004</ele>
        <time>2015-08-30T09:31:47Z</time>
      </trkpt>
      <trkpt lat="43.6478" lon="2.3624">
        <ele>572.6025391</ele>
        <time>2015-08-30T09:31:51Z</time>
      </trkpt>
      <trkpt lat="43.64784" lon="2.36221">
        <ele>567.7956543</ele>
        <time>2015-08-30T09:31:57Z</time>
      </trkpt>
      <trkpt lat="43.64788" lon="2.36205">
        <ele>567.3151855</ele>
        <time>2015-08-30T09:32:01Z</time>
      </trkpt>
      <trkpt lat="43.64794" lon="2.36177">
        <ele>565.873291</ele>
        <time>2015-08-30T09:32:06Z</time>
      </trkpt>
      <trkpt lat="43.64801" lon="2.3615">
        <ele>562.5085449</ele>
        <time>2015-08-30T09:32:11Z</time>
      </trkpt>
      <trkpt lat="43.64804" lon="2.3614">
        <ele>562.9892578</ele>
        <time>2015-08-30T09:32:13Z</time>
      </trkpt>
      <trkpt lat="43.64801" lon="2.36122">
        <ele>561.0666504</ele>
        <time>2015-08-30T09:32:17Z</time>
      </trkpt>
      <trkpt lat="43.64788" lon="2.36095">
        <ele>561.5473633</ele>
        <time>2015-08-30T09:32:21Z</time>
      </trkpt>
      <trkpt lat="43.64775" lon="2.36048">
        <ele>558.1828613</ele>
        <time>2015-08-30T09:32:26Z</time>
      </trkpt>
      <trkpt lat="43.64772" lon="2.36031">
        <ele>558.1828613</ele>
        <time>2015-08-30T09:32:28Z</time>
      </trkpt>
      <trkpt lat="43.64771" lon="2.36008">
        <ele>558.1828613</ele>
        <time>2015-08-30T09:32:32Z</time>
      </trkpt>
      <trkpt lat="43.64758" lon="2.35993">
        <ele>556.7407227</ele>
        <time>2015-08-30T09:32:37Z</time>
      </trkpt>
      <trkpt lat="43.64743" lon="2.35992">
        <ele>555.298584</ele>
        <time>2015-08-30T09:32:40Z</time>
      </trkpt>
      <trkpt lat="43.64715" lon="2.35984">
        <ele>553.8566895</ele>
        <time>2015-08-30T09:32:45Z</time>
      </trkpt>
      <trkpt lat="43.64703" lon="2.35984">
        <ele>555.298584</ele>
        <time>2015-08-30T09:32:47Z</time>
      </trkpt>
      <trkpt lat="43.64673" lon="2.35986">
        <ele>552.8952637</ele>
        <time>2015-08-30T09:32:53Z</time>
      </trkpt>
      <trkpt lat="43.64669" lon="2.35985">
        <ele>551.934082</ele>
        <time>2015-08-30T09:32:54Z</time>
      </trkpt>
      <trkpt lat="43.64646" lon="2.3598">
        <ele>548.5693359</ele>
        <time>2015-08-30T09:32:59Z</time>
      </trkpt>
      <trkpt lat="43.6463" lon="2.35981">
        <ele>547.6081543</ele>
        <time>2015-08-30T09:33:02Z</time>
      </trkpt>
      <trkpt lat="43.64621" lon="2.35979">
        <ele>548.0888672</ele>
        <time>2015-08-30T09:33:04Z</time>
      </trkpt>
      <trkpt lat="43.646" lon="2.35988">
        <ele>552.4145508</ele>
        <time>2015-08-30T09:33:09Z</time>
      </trkpt>
      <trkpt lat="43.64593" lon="2.35986">
        <ele>549.0500488</ele>
        <time>2015-08-30T09:33:11Z</time>
      </trkpt>
      <trkpt lat="43.64587" lon="2.35983">
        <ele>548.5693359</ele>
        <time>2015-08-30T09:33:13Z</time>
      </trkpt>
      <trkpt lat="43.64572" lon="2.35974">
        <ele>546.1662598</ele>
        <time>2015-08-30T09:33:18Z</time>
      </trkpt>
      <trkpt lat="43.64564" lon="2.35971">
        <ele>545.204834</ele>
        <time>2015-08-30T09:33:22Z</time>
      </trkpt>
      <trkpt lat="43.6455" lon="2.35971">
        <ele>549.5307617</ele>
        <time>2015-08-30T09:33:27Z</time>
      </trkpt>
      <trkpt lat="43.64535" lon="2.35971">
        <ele>545.6855469</ele>
        <time>2015-08-30T09:33:34Z</time>
      </trkpt>
      <trkpt lat="43.64519" lon="2.35969">
        <ele>546.6468506</ele>
        <time>2015-08-30T09:33:39Z</time>
      </trkpt>
      <trkpt lat="43.64502" lon="2.35961">
        <ele>545.204834</ele>
        <time>2015-08-30T09:33:44Z</time>
      </trkpt>
      <trkpt lat="43.64485" lon="2.35952">
        <ele>548.0888672</ele>
        <time>2015-08-30T09:33:48Z</time>
      </trkpt>
      <trkpt lat="43.64471" lon="2.35951">
        <ele>550.4921875</ele>
        <time>2015-08-30T09:33:52Z</time>
      </trkpt>
      <trkpt lat="43.64458" lon="2.35956">
        <ele>550.9726563</ele>
        <time>2015-08-30T09:33:57Z</time>
      </trkpt>
      <trkpt lat="43.6445" lon="2.35964">
        <ele>550.9726563</ele>
        <time>2015-08-30T09:34:01Z</time>
      </trkpt>
      <trkpt lat="43.64444" lon="2.35972">
        <ele>549.5307617</ele>
        <time>2015-08-30T09:34:05Z</time>
      </trkpt>
      <trkpt lat="43.64431" lon="2.35981">
        <ele>550.9726563</ele>
        <time>2015-08-30T09:34:12Z</time>
      </trkpt>
      <trkpt lat="43.64427" lon="2.35982">
        <ele>552.4145508</ele>
        <time>2015-08-30T09:34:14Z</time>
      </trkpt>
      <trkpt lat="43.64421" lon="2.35984">
        <ele>553.8566895</ele>
        <time>2015-08-30T09:34:18Z</time>
      </trkpt>
      <trkpt lat="43.64408" lon="2.35985">
        <ele>555.298584</ele>
        <time>2015-08-30T09:34:25Z</time>
      </trkpt>
      <trkpt lat="43.64397" lon="2.35987">
        <ele>555.7792969</ele>
        <time>2015-08-30T09:34:31Z</time>
      </trkpt>
      <trkpt lat="43.64395" lon="2.35988">
        <ele>557.2214355</ele>
        <time>2015-08-30T09:34:32Z</time>
      </trkpt>
      <trkpt lat="43.64381" lon="2.35991">
        <ele>563.4699707</ele>
        <time>2015-08-30T09:34:38Z</time>
      </trkpt>
      <trkpt lat="43.64367" lon="2.35989">
        <ele>564.9118652</ele>
        <time>2015-08-30T09:34:44Z</time>
      </trkpt>
      <trkpt lat="43.64363" lon="2.35987">
        <ele>565.3925781</ele>
        <time>2015-08-30T09:34:46Z</time>
      </trkpt>
      <trkpt lat="43.64355" lon="2.35976">
        <ele>565.873291</ele>
        <time>2015-08-30T09:34:52Z</time>
      </trkpt>
      <trkpt lat="43.64347" lon="2.35962">
        <ele>559.144043</ele>
        <time>2015-08-30T09:34:58Z</time>
      </trkpt>
      <trkpt lat="43.64343" lon="2.35952">
        <ele>557.7021484</ele>
        <time>2015-08-30T09:35:02Z</time>
      </trkpt>
      <trkpt lat="43.64343" lon="2.35935">
        <ele>554.8178711</ele>
        <time>2015-08-30T09:35:07Z</time>
      </trkpt>
      <trkpt lat="43.64344" lon="2.35929">
        <ele>552.8952637</ele>
        <time>2015-08-30T09:35:09Z</time>
      </trkpt>
      <trkpt lat="43.64355" lon="2.35929">
        <ele>557.2214355</ele>
        <time>2015-08-30T09:35:16Z</time>
      </trkpt>
      <trkpt lat="43.64362" lon="2.35941">
        <ele>566.8344727</ele>
        <time>2015-08-30T09:35:22Z</time>
      </trkpt>
      <trkpt lat="43.64371" lon="2.35948">
        <ele>573.083252</ele>
        <time>2015-08-30T09:35:27Z</time>
      </trkpt>
      <trkpt lat="43.64381" lon="2.35949">
        <ele>575.0058594</ele>
        <time>2015-08-30T09:35:32Z</time>
      </trkpt>
      <trkpt lat="43.64398" lon="2.35931">
        <ele>560.1052246</ele>
        <time>2015-08-30T09:35:41Z</time>
      </trkpt>
      <trkpt lat="43.64407" lon="2.35916">
        <ele>550.4921875</ele>
        <time>2015-08-30T09:35:48Z</time>
      </trkpt>
      <trkpt lat="43.64412" lon="2.35906">
        <ele>549.0500488</ele>
        <time>2015-08-30T09:35:52Z</time>
      </trkpt>
      <trkpt lat="43.64413" lon="2.35896">
        <ele>552.4145508</ele>
        <time>2015-08-30T09:35:59Z</time>
      </trkpt>
      <trkpt lat="43.64412" lon="2.35895">
        <ele>553.3759766</ele>
        <time>2015-08-30T09:36:01Z</time>
      </trkpt>
      <trkpt lat="43.64409" lon="2.35881">
        <ele>554.8178711</ele>
        <time>2015-08-30T09:36:08Z</time>
      </trkpt>
      <trkpt lat="43.64403" lon="2.35869">
        <ele>559.144043</ele>
        <time>2015-08-30T09:36:14Z</time>
      </trkpt>
      <trkpt lat="43.64397" lon="2.35857">
        <ele>564.9118652</ele>
        <time>2015-08-30T09:36:22Z</time>
      </trkpt>
      <trkpt lat="43.64393" lon="2.35846">
        <ele>567.3151855</ele>
        <time>2015-08-30T09:36:27Z</time>
      </trkpt>
      <trkpt lat="43.64386" lon="2.35838">
        <ele>576.4477539</ele>
        <time>2015-08-30T09:36:33Z</time>
      </trkpt>
      <trkpt lat="43.64377" lon="2.35822">
        <ele>577.8896484</ele>
        <time>2015-08-30T09:36:40Z</time>
      </trkpt>
      <trkpt lat="43.64374" lon="2.35809">
        <ele>574.5251465</ele>
        <time>2015-08-30T09:36:44Z</time>
      </trkpt>
      <trkpt lat="43.6437" lon="2.35789">
        <ele>570.6796875</ele>
        <time>2015-08-30T09:36:50Z</time>
      </trkpt>
      <trkpt lat="43.64365" lon="2.35761">
        <ele>561.0666504</ele>
        <time>2015-08-30T09:36:55Z</time>
      </trkpt>
      <trkpt lat="43.64367" lon="2.35737">
        <ele>553.8566895</ele>
        <time>2015-08-30T09:36:59Z</time>
      </trkpt>
      <trkpt lat="43.64372" lon="2.35722">
        <ele>546.6468506</ele>
        <time>2015-08-30T09:37:02Z</time>
      </trkpt>
      <trkpt lat="43.64372" lon="2.35704">
        <ele>541.84021</ele>
        <time>2015-08-30T09:37:06Z</time>
      </trkpt>
      <trkpt lat="43.64371" lon="2.35694">
        <ele>542.8015137</ele>
        <time>2015-08-30T09:37:11Z</time>
      </trkpt>
      <trkpt lat="43.64374" lon="2.35677">
        <ele>573.1</ele>
      </trkpt>
      <trkpt lat="43.64363" lon="2.35622">
        <ele>575.1</ele>
      </trkpt>
      <trkpt lat="43.64361" lon="2.35599">
        <ele>576.1</ele>
      </trkpt>
      <trkpt lat="43.64361" lon="2.35594">
        <ele>576.3</ele>
      </trkpt>
      <trkpt lat="43.64358" lon="2.35564">
        <ele>576.7</ele>
      </trkpt>
      <trkpt lat="43.64352" lon="2.35524">
        <ele>576.7</ele>
      </trkpt>
      <trkpt lat="43.64346" lon="2.35507">
        <ele>577.3</ele>
      </trkpt>
      <trkpt lat="43.64334" lon="2.35492">
        <ele>578.9</ele>
      </trkpt>
      <trkpt lat="43.64318" lon="2.35483">
        <ele>580.2</ele>
      </trkpt>
      <trkpt lat="43.64347" lon="2.35427">
        <ele>576.9</ele>
      </trkpt>
      <trkpt lat="43.64368" lon="2.35356">
        <ele>574.5</ele>
      </trkpt>
      <trkpt lat="43.64394" lon="2.35308">
        <ele>571</ele>
      </trkpt>
      <trkpt lat="43.644" lon="2.35277">
        <ele>569.5</ele>
      </trkpt>
      <trkpt lat="43.64399" lon="2.3526">
        <ele>569.2</ele>
      </trkpt>
      <trkpt lat="43.64394" lon="2.35247">
        <ele>569.4</ele>
      </trkpt>
      <trkpt lat="43.64369" lon="2.35232">
        <ele>571.4</ele>
      </trkpt>
      <trkpt lat="43.64338" lon="2.35193">
        <ele>572.2</ele>
      </trkpt>
      <trkpt lat="43.64365" lon="2.35118">
        <ele>567.3</ele>
      </trkpt>
      <trkpt lat="43.64365" lon="2.35094">
        <ele>566.4</ele>
      </trkpt>
      <trkpt lat="43.64391" lon="2.35047">
        <ele>565</ele>
      </trkpt>
      <trkpt lat="43.64414" lon="2.34993">
        <ele>564.6</ele>
      </trkpt>
      <trkpt lat="43.64414" lon="2.3492">
        <ele>559.9</ele>
      </trkpt>
      <trkpt lat="43.64424" lon="2.349">
        <ele>559.1</ele>
      </trkpt>
      <trkpt lat="43.64418" lon="2.34886">
        <ele>558.1834</ele>
        <time>2021-10-18T13:57:23.000Z</time>
      </trkpt>
      <trkpt lat="43.64416" lon="2.34885">
        <ele>558.021215</ele>
        <time>2021-10-18T13:57:24.000Z</time>
      </trkpt>
      <trkpt lat="43.64414" lon="2.34884">
        <ele>557.868679</ele>
        <time>2021-10-18T13:57:25.000Z</time>
      </trkpt>
      <trkpt lat="43.64412" lon="2.34882">
        <ele>557.69097</ele>
        <time>2021-10-18T13:57:26.000Z</time>
      </trkpt>
      <trkpt lat="43.6441" lon="2.3488">
        <ele>557.504288</ele>
        <time>2021-10-18T13:57:27.000Z</time>
      </trkpt>
      <trkpt lat="43.64408" lon="2.34878">
        <ele>557.302327</ele>
        <time>2021-10-18T13:57:28.000Z</time>
      </trkpt>
      <trkpt lat="43.64405" lon="2.34876">
        <ele>557.067917</ele>
        <time>2021-10-18T13:57:29.000Z</time>
      </trkpt>
      <trkpt lat="43.64402" lon="2.34874">
        <ele>556.831262</ele>
        <time>2021-10-18T13:57:30.000Z</time>
      </trkpt>
      <trkpt lat="43.64399" lon="2.34873">
        <ele>556.589157</ele>
        <time>2021-10-18T13:57:31.000Z</time>
      </trkpt>
      <trkpt lat="43.64396" lon="2.34873">
        <ele>556.39194</ele>
        <time>2021-10-18T13:57:32.000Z</time>
      </trkpt>
      <trkpt lat="43.64394" lon="2.34873">
        <ele>556.206664</ele>
        <time>2021-10-18T13:57:33.000Z</time>
      </trkpt>
      <trkpt lat="43.64391" lon="2.34874">
        <ele>556.028578</ele>
        <time>2021-10-18T13:57:34.000Z</time>
      </trkpt>
      <trkpt lat="43.64388" lon="2.34874">
        <ele>555.830795</ele>
        <time>2021-10-18T13:57:35.000Z</time>
      </trkpt>
      <trkpt lat="43.64386" lon="2.34875">
        <ele>555.61674</ele>
        <time>2021-10-18T13:57:36.000Z</time>
      </trkpt>
      <trkpt lat="43.64383" lon="2.34877">
        <ele>555.394128</ele>
        <time>2021-10-18T13:57:37.000Z</time>
      </trkpt>
      <trkpt lat="43.6438" lon="2.34878">
        <ele>555.125356</ele>
        <time>2021-10-18T13:57:38.000Z</time>
      </trkpt>
      <trkpt lat="43.64378" lon="2.34879">
        <ele>554.866559</ele>
        <time>2021-10-18T13:57:39.000Z</time>
      </trkpt>
      <trkpt lat="43.64376" lon="2.3488">
        <ele>554.630187</ele>
        <time>2021-10-18T13:57:40.000Z</time>
      </trkpt>
      <trkpt lat="43.64373" lon="2.3488">
        <ele>554.322892</ele>
        <time>2021-10-18T13:57:41.000Z</time>
      </trkpt>
      <trkpt lat="43.64369" lon="2.3488">
        <ele>553.917961</ele>
        <time>2021-10-18T13:57:42.000Z</time>
      </trkpt>
      <trkpt lat="43.64365" lon="2.3488">
        <ele>553.49093</ele>
        <time>2021-10-18T13:57:43.000Z</time>
      </trkpt>
      <trkpt lat="43.64362" lon="2.3488">
        <ele>553.106654</ele>
        <time>2021-10-18T13:57:44.000Z</time>
      </trkpt>
      <trkpt lat="43.64359" lon="2.34881">
        <ele>552.73052</ele>
        <time>2021-10-18T13:57:45.000Z</time>
      </trkpt>
      <trkpt lat="43.64355" lon="2.34882">
        <ele>552.35016</ele>
        <time>2021-10-18T13:57:46.000Z</time>
      </trkpt>
      <trkpt lat="43.64352" lon="2.34883">
        <ele>552.014036</ele>
        <time>2021-10-18T13:57:47.000Z</time>
      </trkpt>
      <trkpt lat="43.64349" lon="2.34885">
        <ele>551.669348</ele>
        <time>2021-10-18T13:57:48.000Z</time>
      </trkpt>
      <trkpt lat="43.64346" lon="2.34887">
        <ele>551.286683</ele>
        <time>2021-10-18T13:57:49.000Z</time>
      </trkpt>
      <trkpt lat="43.64343" lon="2.34888">
        <ele>550.937597</ele>
        <time>2021-10-18T13:57:50.000Z</time>
      </trkpt>
      <trkpt lat="43.6434" lon="2.3489">
        <ele>550.624744</ele>
        <time>2021-10-18T13:57:51.000Z</time>
      </trkpt>
      <trkpt lat="43.64338" lon="2.3489">
        <ele>550.31019</ele>
        <time>2021-10-18T13:57:52.000Z</time>
      </trkpt>
      <trkpt lat="43.64334" lon="2.34891">
        <ele>549.909884</ele>
        <time>2021-10-18T13:57:53.000Z</time>
      </trkpt>
      <trkpt lat="43.6433" lon="2.34893">
        <ele>549.43714</ele>
        <time>2021-10-18T13:57:54.000Z</time>
      </trkpt>
      <trkpt lat="43.64326" lon="2.34894">
        <ele>548.998164</ele>
        <time>2021-10-18T13:57:55.000Z</time>
      </trkpt>
      <trkpt lat="43.64323" lon="2.34895">
        <ele>548.655651</ele>
        <time>2021-10-18T13:57:56.000Z</time>
      </trkpt>
      <trkpt lat="43.64319" lon="2.34895">
        <ele>548.282278</ele>
        <time>2021-10-18T13:57:57.000Z</time>
      </trkpt>
      <trkpt lat="43.64316" lon="2.34895">
        <ele>547.953637</ele>
        <time>2021-10-18T13:57:58.000Z</time>
      </trkpt>
      <trkpt lat="43.64314" lon="2.34894">
        <ele>547.656111</ele>
        <time>2021-10-18T13:57:59.000Z</time>
      </trkpt>
      <trkpt lat="43.64311" lon="2.34892">
        <ele>547.354473</ele>
        <time>2021-10-18T13:58:00.000Z</time>
      </trkpt>
      <trkpt lat="43.64309" lon="2.34888">
        <ele>546.960064</ele>
        <time>2021-10-18T13:58:01.000Z</time>
      </trkpt>
      <trkpt lat="43.64306" lon="2.34884">
        <ele>546.507886</ele>
        <time>2021-10-18T13:58:02.000Z</time>
      </trkpt>
      <trkpt lat="43.64303" lon="2.34879">
        <ele>545.975089</ele>
        <time>2021-10-18T13:58:03.000Z</time>
      </trkpt>
      <trkpt lat="43.643" lon="2.34873">
        <ele>545.436246</ele>
        <time>2021-10-18T13:58:04.000Z</time>
      </trkpt>
      <trkpt lat="43.64298" lon="2.34868">
        <ele>544.967118</ele>
        <time>2021-10-18T13:58:05.000Z</time>
      </trkpt>
      <trkpt lat="43.64296" lon="2.34863">
        <ele>544.495594</ele>
        <time>2021-10-18T13:58:06.000Z</time>
      </trkpt>
      <trkpt lat="43.64294" lon="2.34857">
        <ele>544.018968</ele>
        <time>2021-10-18T13:58:07.000Z</time>
      </trkpt>
      <trkpt lat="43.64293" lon="2.34852">
        <ele>543.536537</ele>
        <time>2021-10-18T13:58:08.000Z</time>
      </trkpt>
      <trkpt lat="43.64293" lon="2.34845">
        <ele>543.041237</ele>
        <time>2021-10-18T13:58:09.000Z</time>
      </trkpt>
      <trkpt lat="43.64293" lon="2.3484">
        <ele>542.58185</ele>
        <time>2021-10-18T13:58:10.000Z</time>
      </trkpt>
      <trkpt lat="43.64293" lon="2.34835">
        <ele>542.207129</ele>
        <time>2021-10-18T13:58:11.000Z</time>
      </trkpt>
      <trkpt lat="43.64293" lon="2.34831">
        <ele>541.912322</ele>
        <time>2021-10-18T13:58:12.000Z</time>
      </trkpt>
      <trkpt lat="43.64293" lon="2.34828">
        <ele>541.650792</ele>
        <time>2021-10-18T13:58:13.000Z</time>
      </trkpt>
      <trkpt lat="43.64293" lon="2.34824">
        <ele>541.355625</ele>
        <time>2021-10-18T13:58:14.000Z</time>
      </trkpt>
      <trkpt lat="43.64291" lon="2.3482">
        <ele>541.007507</ele>
        <time>2021-10-18T13:58:15.000Z</time>
      </trkpt>
      <trkpt lat="43.64289" lon="2.34816">
        <ele>540.60857</ele>
        <time>2021-10-18T13:58:16.000Z</time>
      </trkpt>
      <trkpt lat="43.64287" lon="2.34812">
        <ele>540.194492</ele>
        <time>2021-10-18T13:58:17.000Z</time>
      </trkpt>
      <trkpt lat="43.64286" lon="2.34807">
        <ele>539.809365</ele>
        <time>2021-10-18T13:58:18.000Z</time>
      </trkpt>
      <trkpt lat="43.64284" lon="2.34803">
        <ele>539.412358</ele>
        <time>2021-10-18T13:58:19.000Z</time>
      </trkpt>
      <trkpt lat="43.64282" lon="2.34798">
        <ele>538.987434</ele>
        <time>2021-10-18T13:58:20.000Z</time>
      </trkpt>
      <trkpt lat="43.6428" lon="2.34794">
        <ele>538.628191</ele>
        <time>2021-10-18T13:58:21.000Z</time>
      </trkpt>
      <trkpt lat="43.64278" lon="2.34792">
        <ele>538.346525</ele>
        <time>2021-10-18T13:58:22.000Z</time>
      </trkpt>
      <trkpt lat="43.64276" lon="2.34791">
        <ele>538.116375</ele>
        <time>2021-10-18T13:58:23.000Z</time>
      </trkpt>
      <trkpt lat="43.64274" lon="2.34791">
        <ele>537.842367</ele>
        <time>2021-10-18T13:58:24.000Z</time>
      </trkpt>
      <trkpt lat="43.64272" lon="2.34792">
        <ele>537.635475</ele>
        <time>2021-10-18T13:58:25.000Z</time>
      </trkpt>
      <trkpt lat="43.6427" lon="2.34792">
        <ele>537.446784</ele>
        <time>2021-10-18T13:58:26.000Z</time>
      </trkpt>
      <trkpt lat="43.64268" lon="2.34792">
        <ele>537.193134</ele>
        <time>2021-10-18T13:58:27.000Z</time>
      </trkpt>
      <trkpt lat="43.64266" lon="2.34791">
        <ele>536.958492</ele>
        <time>2021-10-18T13:58:28.000Z</time>
      </trkpt>
      <trkpt lat="43.64263" lon="2.34791">
        <ele>536.611885</ele>
        <time>2021-10-18T13:58:29.000Z</time>
      </trkpt>
      <trkpt lat="43.6426" lon="2.3479">
        <ele>536.305408</ele>
        <time>2021-10-18T13:58:30.000Z</time>
      </trkpt>
      <trkpt lat="43.64258" lon="2.34791">
        <ele>536.053244</ele>
        <time>2021-10-18T13:58:31.000Z</time>
      </trkpt>
      <trkpt lat="43.64256" lon="2.3479">
        <ele>535.832124</ele>
        <time>2021-10-18T13:58:32.000Z</time>
      </trkpt>
      <trkpt lat="43.64254" lon="2.34789">
        <ele>535.641288</ele>
        <time>2021-10-18T13:58:33.000Z</time>
      </trkpt>
      <trkpt lat="43.64253" lon="2.34788">
        <ele>535.599314</ele>
        <time>2021-10-18T13:58:34.000Z</time>
      </trkpt>
      <trkpt lat="43.64251" lon="2.34786">
        <ele>535.545372</ele>
        <time>2021-10-18T13:58:35.000Z</time>
      </trkpt>
      <trkpt lat="43.64249" lon="2.34784">
        <ele>535.482616</ele>
        <time>2021-10-18T13:58:36.000Z</time>
      </trkpt>
      <trkpt lat="43.64247" lon="2.34782">
        <ele>535.405642</ele>
        <time>2021-10-18T13:58:37.000Z</time>
      </trkpt>
      <trkpt lat="43.64244" lon="2.3478">
        <ele>535.320985</ele>
        <time>2021-10-18T13:58:38.000Z</time>
      </trkpt>
      <trkpt lat="43.64242" lon="2.34777">
        <ele>535.246224</ele>
        <time>2021-10-18T13:58:39.000Z</time>
      </trkpt>
      <trkpt lat="43.64239" lon="2.34776">
        <ele>535.176886</ele>
        <time>2021-10-18T13:58:40.000Z</time>
      </trkpt>
      <trkpt lat="43.64238" lon="2.34774">
        <ele>535.119684</ele>
        <time>2021-10-18T13:58:41.000Z</time>
      </trkpt>
      <trkpt lat="43.64236" lon="2.34772">
        <ele>535.067836</ele>
        <time>2021-10-18T13:58:42.000Z</time>
      </trkpt>
      <trkpt lat="43.64235" lon="2.3477">
        <ele>535.008858</ele>
        <time>2021-10-18T13:58:43.000Z</time>
      </trkpt>
      <trkpt lat="43.64233" lon="2.34767">
        <ele>534.933485</ele>
        <time>2021-10-18T13:58:44.000Z</time>
      </trkpt>
      <trkpt lat="43.64231" lon="2.34764">
        <ele>534.861302</ele>
        <time>2021-10-18T13:58:45.000Z</time>
      </trkpt>
      <trkpt lat="43.64229" lon="2.34761">
        <ele>534.776671</ele>
        <time>2021-10-18T13:58:46.000Z</time>
      </trkpt>
      <trkpt lat="43.64228" lon="2.34757">
        <ele>534.701299</ele>
        <time>2021-10-18T13:58:47.000Z</time>
      </trkpt>
      <trkpt lat="43.64226" lon="2.34754">
        <ele>534.632355</ele>
        <time>2021-10-18T13:58:48.000Z</time>
      </trkpt>
      <trkpt lat="43.64225" lon="2.34752">
        <ele>534.56652</ele>
        <time>2021-10-18T13:58:49.000Z</time>
      </trkpt>
      <trkpt lat="43.64224" lon="2.34749">
        <ele>534.500223</ele>
        <time>2021-10-18T13:58:50.000Z</time>
      </trkpt>
      <trkpt lat="43.64222" lon="2.34746">
        <ele>534.4279</ele>
        <time>2021-10-18T13:58:51.000Z</time>
      </trkpt>
      <trkpt lat="43.64221" lon="2.34742">
        <ele>534.353915</ele>
        <time>2021-10-18T13:58:52.000Z</time>
      </trkpt>
      <trkpt lat="43.64219" lon="2.34739">
        <ele>534.27083</ele>
        <time>2021-10-18T13:58:53.000Z</time>
      </trkpt>
      <trkpt lat="43.64216" lon="2.34736">
        <ele>534.179753</ele>
        <time>2021-10-18T13:58:54.000Z</time>
      </trkpt>
      <trkpt lat="43.64213" lon="2.34732">
        <ele>534.074261</ele>
        <time>2021-10-18T13:58:55.000Z</time>
      </trkpt>
      <trkpt lat="43.64211" lon="2.34729">
        <ele>533.974638</ele>
        <time>2021-10-18T13:58:56.000Z</time>
      </trkpt>
      <trkpt lat="43.64208" lon="2.34726">
        <ele>533.888631</ele>
        <time>2021-10-18T13:58:57.000Z</time>
      </trkpt>
      <trkpt lat="43.64206" lon="2.34724">
        <ele>533.816051</ele>
        <time>2021-10-18T13:58:58.000Z</time>
      </trkpt>
      <trkpt lat="43.64204" lon="2.34722">
        <ele>533.766444</ele>
        <time>2021-10-18T13:58:59.000Z</time>
      </trkpt>
      <trkpt lat="43.64202" lon="2.34721">
        <ele>533.709779</ele>
        <time>2021-10-18T13:59:00.000Z</time>
      </trkpt>
      <trkpt lat="43.64201" lon="2.3472">
        <ele>533.653115</ele>
        <time>2021-10-18T13:59:01.000Z</time>
      </trkpt>
      <trkpt lat="43.64199" lon="2.34718">
        <ele>533.593443</ele>
        <time>2021-10-18T13:59:02.000Z</time>
      </trkpt>
      <trkpt lat="43.64198" lon="2.34716">
        <ele>533.541448</ele>
        <time>2021-10-18T13:59:03.000Z</time>
      </trkpt>
      <trkpt lat="43.64195" lon="2.34713">
        <ele>533.463454</ele>
        <time>2021-10-18T13:59:04.000Z</time>
      </trkpt>
      <trkpt lat="43.64193" lon="2.3471">
        <ele>533.37108</ele>
        <time>2021-10-18T13:59:05.000Z</time>
      </trkpt>
      <trkpt lat="43.6419" lon="2.34707">
        <ele>533.272098</ele>
        <time>2021-10-18T13:59:06.000Z</time>
      </trkpt>
      <trkpt lat="43.64186" lon="2.34705">
        <ele>533.166096</ele>
        <time>2021-10-18T13:59:07.000Z</time>
      </trkpt>
      <trkpt lat="43.64182" lon="2.34703">
        <ele>533.051733</ele>
        <time>2021-10-18T13:59:08.000Z</time>
      </trkpt>
      <trkpt lat="43.64178" lon="2.34701">
        <ele>532.953204</ele>
        <time>2021-10-18T13:59:09.000Z</time>
      </trkpt>
      <trkpt lat="43.64175" lon="2.347">
        <ele>532.862003</ele>
        <time>2021-10-18T13:59:10.000Z</time>
      </trkpt>
      <trkpt lat="43.64172" lon="2.34699">
        <ele>532.774838</ele>
        <time>2021-10-18T13:59:11.000Z</time>
      </trkpt>
      <trkpt lat="43.64169" lon="2.34697">
        <ele>532.68906</ele>
        <time>2021-10-18T13:59:12.000Z</time>
      </trkpt>
      <trkpt lat="43.64167" lon="2.34695">
        <ele>532.60857</ele>
        <time>2021-10-18T13:59:13.000Z</time>
      </trkpt>
      <trkpt lat="43.64164" lon="2.34692">
        <ele>532.536953</ele>
        <time>2021-10-18T13:59:14.000Z</time>
      </trkpt>
      <trkpt lat="43.64163" lon="2.3469">
        <ele>532.474272</ele>
        <time>2021-10-18T13:59:15.000Z</time>
      </trkpt>
      <trkpt lat="43.64162" lon="2.34687">
        <ele>532.419644</ele>
        <time>2021-10-18T13:59:16.000Z</time>
      </trkpt>
      <trkpt lat="43.64162" lon="2.34684">
        <ele>532.36681</ele>
        <time>2021-10-18T13:59:17.000Z</time>
      </trkpt>
      <trkpt lat="43.64162" lon="2.34681">
        <ele>532.308725</ele>
        <time>2021-10-18T13:59:18.000Z</time>
      </trkpt>
      <trkpt lat="43.64163" lon="2.34678">
        <ele>532.242915</ele>
        <time>2021-10-18T13:59:19.000Z</time>
      </trkpt>
      <trkpt lat="43.64164" lon="2.34675">
        <ele>532.172388</ele>
        <time>2021-10-18T13:59:20.000Z</time>
      </trkpt>
      <trkpt lat="43.64166" lon="2.34672">
        <ele>532.100309</ele>
        <time>2021-10-18T13:59:21.000Z</time>
      </trkpt>
      <trkpt lat="43.64168" lon="2.34669">
        <ele>532.026069</ele>
        <time>2021-10-18T13:59:22.000Z</time>
      </trkpt>
      <trkpt lat="43.6417" lon="2.34667">
        <ele>531.957269</ele>
        <time>2021-10-18T13:59:23.000Z</time>
      </trkpt>
      <trkpt lat="43.64171" lon="2.34664">
        <ele>531.894155</ele>
        <time>2021-10-18T13:59:24.000Z</time>
      </trkpt>
      <trkpt lat="43.64173" lon="2.34662">
        <ele>531.825355</ele>
        <time>2021-10-18T13:59:25.000Z</time>
      </trkpt>
      <trkpt lat="43.64175" lon="2.34659">
        <ele>531.752515</ele>
        <time>2021-10-18T13:59:26.000Z</time>
      </trkpt>
      <trkpt lat="43.64177" lon="2.34656">
        <ele>531.673942</ele>
        <time>2021-10-18T13:59:27.000Z</time>
      </trkpt>
      <trkpt lat="43.64179" lon="2.34653">
        <ele>531.587763</ele>
        <time>2021-10-18T13:59:28.000Z</time>
      </trkpt>
      <trkpt lat="43.64181" lon="2.34649">
        <ele>531.49213</ele>
        <time>2021-10-18T13:59:29.000Z</time>
      </trkpt>
      <trkpt lat="43.64183" lon="2.34644">
        <ele>531.39185</ele>
        <time>2021-10-18T13:59:30.000Z</time>
      </trkpt>
      <trkpt lat="43.64185" lon="2.3464">
        <ele>531.295379</ele>
        <time>2021-10-18T13:59:31.000Z</time>
      </trkpt>
      <trkpt lat="43.64186" lon="2.34636">
        <ele>531.205342</ele>
        <time>2021-10-18T13:59:32.000Z</time>
      </trkpt>
      <trkpt lat="43.64187" lon="2.34631">
        <ele>531.111309</ele>
        <time>2021-10-18T13:59:33.000Z</time>
      </trkpt>
      <trkpt lat="43.64188" lon="2.34627">
        <ele>531.027627</ele>
        <time>2021-10-18T13:59:34.000Z</time>
      </trkpt>
      <trkpt lat="43.64189" lon="2.34622">
        <ele>530.941756</ele>
        <time>2021-10-18T13:59:35.000Z</time>
      </trkpt>
      <trkpt lat="43.64189" lon="2.34618">
        <ele>530.8537</ele>
        <time>2021-10-18T13:59:36.000Z</time>
      </trkpt>
      <trkpt lat="43.64189" lon="2.34614">
        <ele>530.587518</ele>
        <time>2021-10-18T13:59:37.000Z</time>
      </trkpt>
      <trkpt lat="43.6419" lon="2.3461">
        <ele>530.308155</ele>
        <time>2021-10-18T13:59:38.000Z</time>
      </trkpt>
      <trkpt lat="43.64192" lon="2.34605">
        <ele>530.001686</ele>
        <time>2021-10-18T13:59:39.000Z</time>
      </trkpt>
      <trkpt lat="43.64194" lon="2.34601">
        <ele>529.67164</ele>
        <time>2021-10-18T13:59:40.000Z</time>
      </trkpt>
      <trkpt lat="43.64196" lon="2.34597">
        <ele>529.32099</ele>
        <time>2021-10-18T13:59:41.000Z</time>
      </trkpt>
      <trkpt lat="43.64198" lon="2.34592">
        <ele>528.980009</ele>
        <time>2021-10-18T13:59:42.000Z</time>
      </trkpt>
      <trkpt lat="43.642" lon="2.34588">
        <ele>528.634275</ele>
        <time>2021-10-18T13:59:43.000Z</time>
      </trkpt>
      <trkpt lat="43.64202" lon="2.34583">
        <ele>528.27211</ele>
        <time>2021-10-18T13:59:44.000Z</time>
      </trkpt>
      <trkpt lat="43.64205" lon="2.34578">
        <ele>527.911095</ele>
        <time>2021-10-18T13:59:45.000Z</time>
      </trkpt>
      <trkpt lat="43.64207" lon="2.34574">
        <ele>527.550081</ele>
        <time>2021-10-18T13:59:46.000Z</time>
      </trkpt>
      <trkpt lat="43.64209" lon="2.34569">
        <ele>527.187916</ele>
        <time>2021-10-18T13:59:47.000Z</time>
      </trkpt>
      <trkpt lat="43.64211" lon="2.34564">
        <ele>526.856243</ele>
        <time>2021-10-18T13:59:48.000Z</time>
      </trkpt>
      <trkpt lat="43.64212" lon="2.3456">
        <ele>526.559605</ele>
        <time>2021-10-18T13:59:49.000Z</time>
      </trkpt>
      <trkpt lat="43.64214" lon="2.34555">
        <ele>526.222014</ele>
        <time>2021-10-18T13:59:50.000Z</time>
      </trkpt>
      <trkpt lat="43.64215" lon="2.3455">
        <ele>525.857169</ele>
        <time>2021-10-18T13:59:51.000Z</time>
      </trkpt>
      <trkpt lat="43.64217" lon="2.34545">
        <ele>525.486799</ele>
        <time>2021-10-18T13:59:52.000Z</time>
      </trkpt>
      <trkpt lat="43.64218" lon="2.34539">
        <ele>525.12458</ele>
        <time>2021-10-18T13:59:53.000Z</time>
      </trkpt>
      <trkpt lat="43.64218" lon="2.34534">
        <ele>524.810062</ele>
        <time>2021-10-18T13:59:54.000Z</time>
      </trkpt>
      <trkpt lat="43.64219" lon="2.3453">
        <ele>524.511845</ele>
        <time>2021-10-18T13:59:55.000Z</time>
      </trkpt>
      <trkpt lat="43.64219" lon="2.34525">
        <ele>524.175971</ele>
        <time>2021-10-18T13:59:56.000Z</time>
      </trkpt>
      <trkpt lat="43.64219" lon="2.34519">
        <ele>523.799778</ele>
        <time>2021-10-18T13:59:57.000Z</time>
      </trkpt>
      <trkpt lat="43.64219" lon="2.34513">
        <ele>523.397866</ele>
        <time>2021-10-18T13:59:58.000Z</time>
      </trkpt>
      <trkpt lat="43.6422" lon="2.34506">
        <ele>522.984244</ele>
        <time>2021-10-18T13:59:59.000Z</time>
      </trkpt>
      <trkpt lat="43.64219" lon="2.345">
        <ele>522.562186</ele>
        <time>2021-10-18T14:00:00.000Z</time>
      </trkpt>
      <trkpt lat="43.64218" lon="2.34492">
        <ele>522.071311</ele>
        <time>2021-10-18T14:00:01.000Z</time>
      </trkpt>
      <trkpt lat="43.64217" lon="2.34485">
        <ele>521.581329</ele>
        <time>2021-10-18T14:00:02.000Z</time>
      </trkpt>
      <trkpt lat="43.64216" lon="2.34478">
        <ele>521.129398</ele>
        <time>2021-10-18T14:00:03.000Z</time>
      </trkpt>
      <trkpt lat="43.64214" lon="2.34472">
        <ele>520.686089</ele>
        <time>2021-10-18T14:00:04.000Z</time>
      </trkpt>
      <trkpt lat="43.64212" lon="2.34465">
        <ele>520.251349</ele>
        <time>2021-10-18T14:00:05.000Z</time>
      </trkpt>
      <trkpt lat="43.6421" lon="2.3446">
        <ele>519.851998</ele>
        <time>2021-10-18T14:00:06.000Z</time>
      </trkpt>
      <trkpt lat="43.64208" lon="2.34454">
        <ele>519.460317</ele>
        <time>2021-10-18T14:00:07.000Z</time>
      </trkpt>
      <trkpt lat="43.64206" lon="2.34449">
        <ele>519.071392</ele>
        <time>2021-10-18T14:00:08.000Z</time>
      </trkpt>
      <trkpt lat="43.64204" lon="2.34444">
        <ele>518.68949</ele>
        <time>2021-10-18T14:00:09.000Z</time>
      </trkpt>
      <trkpt lat="43.64202" lon="2.34439">
        <ele>518.311465</ele>
        <time>2021-10-18T14:00:10.000Z</time>
      </trkpt>
      <trkpt lat="43.64201" lon="2.34433">
        <ele>517.921963</ele>
        <time>2021-10-18T14:00:11.000Z</time>
      </trkpt>
      <trkpt lat="43.642" lon="2.34427">
        <ele>517.508761</ele>
        <time>2021-10-18T14:00:12.000Z</time>
      </trkpt>
      <trkpt lat="43.64199" lon="2.3442">
        <ele>517.073369</ele>
        <time>2021-10-18T14:00:13.000Z</time>
      </trkpt>
      <trkpt lat="43.64198" lon="2.34414">
        <ele>516.651309</ele>
        <time>2021-10-18T14:00:14.000Z</time>
      </trkpt>
      <trkpt lat="43.64197" lon="2.34408">
        <ele>516.270069</ele>
        <time>2021-10-18T14:00:15.000Z</time>
      </trkpt>
      <trkpt lat="43.64196" lon="2.34402">
        <ele>515.870419</ele>
        <time>2021-10-18T14:00:16.000Z</time>
      </trkpt>
      <trkpt lat="43.64195" lon="2.34396">
        <ele>515.46378</ele>
        <time>2021-10-18T14:00:17.000Z</time>
      </trkpt>
      <trkpt lat="43.64195" lon="2.34389">
        <ele>515.036472</ele>
        <time>2021-10-18T14:00:18.000Z</time>
      </trkpt>
      <trkpt lat="43.64193" lon="2.34383">
        <ele>514.483531</ele>
        <time>2021-10-18T14:00:19.000Z</time>
      </trkpt>
      <trkpt lat="43.64193" lon="2.34376">
        <ele>513.829181</ele>
        <time>2021-10-18T14:00:20.000Z</time>
      </trkpt>
      <trkpt lat="43.64194" lon="2.3437">
        <ele>513.212337</ele>
        <time>2021-10-18T14:00:21.000Z</time>
      </trkpt>
      <trkpt lat="43.64195" lon="2.34365">
        <ele>512.632451</ele>
        <time>2021-10-18T14:00:22.000Z</time>
      </trkpt>
      <trkpt lat="43.64195" lon="2.34359">
        <ele>512.067143</ele>
        <time>2021-10-18T14:00:23.000Z</time>
      </trkpt>
      <trkpt lat="43.64196" lon="2.34354">
        <ele>511.520134</ele>
        <time>2021-10-18T14:00:24.000Z</time>
      </trkpt>
      <trkpt lat="43.64198" lon="2.34349">
        <ele>510.895084</ele>
        <time>2021-10-18T14:00:25.000Z</time>
      </trkpt>
      <trkpt lat="43.642" lon="2.34343">
        <ele>510.194071</ele>
        <time>2021-10-18T14:00:26.000Z</time>
      </trkpt>
      <trkpt lat="43.64203" lon="2.34337">
        <ele>509.487432</ele>
        <time>2021-10-18T14:00:27.000Z</time>
      </trkpt>
      <trkpt lat="43.64206" lon="2.34331">
        <ele>508.761232</ele>
        <time>2021-10-18T14:00:28.000Z</time>
      </trkpt>
      <trkpt lat="43.64208" lon="2.34325">
        <ele>508.062782</ele>
        <time>2021-10-18T14:00:29.000Z</time>
      </trkpt>
      <trkpt lat="43.6421" lon="2.34319">
        <ele>507.348411</ele>
        <time>2021-10-18T14:00:30.000Z</time>
      </trkpt>
      <trkpt lat="43.64212" lon="2.34313">
        <ele>506.646965</ele>
        <time>2021-10-18T14:00:31.000Z</time>
      </trkpt>
      <trkpt lat="43.64214" lon="2.34308">
        <ele>506.036634</ele>
        <time>2021-10-18T14:00:32.000Z</time>
      </trkpt>
      <trkpt lat="43.64215" lon="2.34302">
        <ele>505.386838</ele>
        <time>2021-10-18T14:00:33.000Z</time>
      </trkpt>
      <trkpt lat="43.64217" lon="2.34296">
        <ele>504.693154</ele>
        <time>2021-10-18T14:00:34.000Z</time>
      </trkpt>
      <trkpt lat="43.64219" lon="2.3429">
        <ele>504.02916</ele>
        <time>2021-10-18T14:00:35.000Z</time>
      </trkpt>
      <trkpt lat="43.64221" lon="2.34283">
        <ele>503.324288</ele>
        <time>2021-10-18T14:00:36.000Z</time>
      </trkpt>
      <trkpt lat="43.64223" lon="2.34278">
        <ele>502.657374</ele>
        <time>2021-10-18T14:00:37.000Z</time>
      </trkpt>
      <trkpt lat="43.64226" lon="2.34274">
        <ele>502.074016</ele>
        <time>2021-10-18T14:00:38.000Z</time>
      </trkpt>
      <trkpt lat="43.64229" lon="2.3427">
        <ele>501.454853</ele>
        <time>2021-10-18T14:00:39.000Z</time>
      </trkpt>
      <trkpt lat="43.64232" lon="2.34266">
        <ele>500.856143</ele>
        <time>2021-10-18T14:00:40.000Z</time>
      </trkpt>
      <trkpt lat="43.64235" lon="2.34262">
        <ele>500.310511</ele>
        <time>2021-10-18T14:00:41.000Z</time>
      </trkpt>
      <trkpt lat="43.64238" lon="2.34259">
        <ele>499.775654</ele>
        <time>2021-10-18T14:00:42.000Z</time>
      </trkpt>
      <trkpt lat="43.64241" lon="2.34256">
        <ele>499.261998</ele>
        <time>2021-10-18T14:00:43.000Z</time>
      </trkpt>
      <trkpt lat="43.64243" lon="2.34254">
        <ele>498.794596</ele>
        <time>2021-10-18T14:00:44.000Z</time>
      </trkpt>
      <trkpt lat="43.64247" lon="2.34251">
        <ele>498.226658</ele>
        <time>2021-10-18T14:00:45.000Z</time>
      </trkpt>
      <trkpt lat="43.6425" lon="2.34248">
        <ele>497.706846</ele>
        <time>2021-10-18T14:00:46.000Z</time>
      </trkpt>
      <trkpt lat="43.64252" lon="2.34245">
        <ele>497.258277</ele>
        <time>2021-10-18T14:00:47.000Z</time>
      </trkpt>
      <trkpt lat="43.64253" lon="2.34241">
        <ele>496.818217</ele>
        <time>2021-10-18T14:00:48.000Z</time>
      </trkpt>
      <trkpt lat="43.64253" lon="2.34237">
        <ele>496.400636</ele>
        <time>2021-10-18T14:00:49.000Z</time>
      </trkpt>
      <trkpt lat="43.64251" lon="2.34234">
        <ele>496.019571</ele>
        <time>2021-10-18T14:00:50.000Z</time>
      </trkpt>
      <trkpt lat="43.6425" lon="2.34231">
        <ele>495.657197</ele>
        <time>2021-10-18T14:00:51.000Z</time>
      </trkpt>
      <trkpt lat="43.64248" lon="2.34229">
        <ele>495.296766</ele>
        <time>2021-10-18T14:00:52.000Z</time>
      </trkpt>
      <trkpt lat="43.64246" lon="2.34226">
        <ele>494.894569</ele>
        <time>2021-10-18T14:00:53.000Z</time>
      </trkpt>
      <trkpt lat="43.64244" lon="2.34223">
        <ele>494.448198</ele>
        <time>2021-10-18T14:00:54.000Z</time>
      </trkpt>
      <trkpt lat="43.64243" lon="2.34218">
        <ele>493.895596</ele>
        <time>2021-10-18T14:00:55.000Z</time>
      </trkpt>
      <trkpt lat="43.64242" lon="2.34212">
        <ele>493.292682</ele>
        <time>2021-10-18T14:00:56.000Z</time>
      </trkpt>
      <trkpt lat="43.64241" lon="2.34205">
        <ele>492.599516</ele>
        <time>2021-10-18T14:00:57.000Z</time>
      </trkpt>
      <trkpt lat="43.6424" lon="2.34197">
        <ele>491.733528</ele>
        <time>2021-10-18T14:00:58.000Z</time>
      </trkpt>
      <trkpt lat="43.64239" lon="2.34189">
        <ele>490.886453</ele>
        <time>2021-10-18T14:00:59.000Z</time>
      </trkpt>
      <trkpt lat="43.64239" lon="2.34182">
        <ele>490.146962</ele>
        <time>2021-10-18T14:01:00.000Z</time>
      </trkpt>
      <trkpt lat="43.64238" lon="2.34176">
        <ele>489.480997</ele>
        <time>2021-10-18T14:01:01.000Z</time>
      </trkpt>
      <trkpt lat="43.64238" lon="2.3417">
        <ele>488.936039</ele>
        <time>2021-10-18T14:01:02.000Z</time>
      </trkpt>
      <trkpt lat="43.64238" lon="2.34165">
        <ele>488.361691</ele>
        <time>2021-10-18T14:01:03.000Z</time>
      </trkpt>
      <trkpt lat="43.64238" lon="2.34161">
        <ele>487.831113</ele>
        <time>2021-10-18T14:01:04.000Z</time>
      </trkpt>
      <trkpt lat="43.64238" lon="2.34157">
        <ele>487.381035</ele>
        <time>2021-10-18T14:01:05.000Z</time>
      </trkpt>
      <trkpt lat="43.64238" lon="2.34153">
        <ele>486.9847</ele>
        <time>2021-10-18T14:01:06.000Z</time>
      </trkpt>
      <trkpt lat="43.64239" lon="2.3415">
        <ele>486.608438</ele>
        <time>2021-10-18T14:01:07.000Z</time>
      </trkpt>
      <trkpt lat="43.64239" lon="2.34147">
        <ele>486.245583</ele>
        <time>2021-10-18T14:01:08.000Z</time>
      </trkpt>
      <trkpt lat="43.64239" lon="2.34144">
        <ele>485.964452</ele>
        <time>2021-10-18T14:01:09.000Z</time>
      </trkpt>
      <trkpt lat="43.64239" lon="2.34142">
        <ele>485.694119</ele>
        <time>2021-10-18T14:01:10.000Z</time>
      </trkpt>
      <trkpt lat="43.6424" lon="2.34139">
        <ele>485.40245</ele>
        <time>2021-10-18T14:01:11.000Z</time>
      </trkpt>
      <trkpt lat="43.6424" lon="2.34137">
        <ele>485.090495</ele>
        <time>2021-10-18T14:01:12.000Z</time>
      </trkpt>
      <trkpt lat="43.64241" lon="2.34135">
        <ele>484.846301</ele>
        <time>2021-10-18T14:01:13.000Z</time>
      </trkpt>
      <trkpt lat="43.64242" lon="2.34133">
        <ele>484.627186</ele>
        <time>2021-10-18T14:01:14.000Z</time>
      </trkpt>
      <trkpt lat="43.64243" lon="2.34132">
        <ele>484.358646</ele>
        <time>2021-10-18T14:01:15.000Z</time>
      </trkpt>
      <trkpt lat="43.64245" lon="2.3413">
        <ele>483.9815</ele>
        <time>2021-10-18T14:01:16.000Z</time>
      </trkpt>
      <trkpt lat="43.64246" lon="2.34128">
        <ele>483.706285</ele>
        <time>2021-10-18T14:01:17.000Z</time>
      </trkpt>
      <trkpt lat="43.64248" lon="2.34127">
        <ele>483.425009</ele>
        <time>2021-10-18T14:01:18.000Z</time>
      </trkpt>
      <trkpt lat="43.64249" lon="2.34125">
        <ele>483.188064</ele>
        <time>2021-10-18T14:01:19.000Z</time>
      </trkpt>
      <trkpt lat="43.64251" lon="2.34124">
        <ele>482.906788</ele>
        <time>2021-10-18T14:01:20.000Z</time>
      </trkpt>
      <trkpt lat="43.64252" lon="2.34123">
        <ele>482.604867</ele>
        <time>2021-10-18T14:01:21.000Z</time>
      </trkpt>
      <trkpt lat="43.64254" lon="2.34121">
        <ele>482.283896</ele>
        <time>2021-10-18T14:01:22.000Z</time>
      </trkpt>
      <trkpt lat="43.64255" lon="2.34119">
        <ele>481.994287</ele>
        <time>2021-10-18T14:01:23.000Z</time>
      </trkpt>
      <trkpt lat="43.64257" lon="2.34118">
        <ele>481.71616</ele>
        <time>2021-10-18T14:01:24.000Z</time>
      </trkpt>
      <trkpt lat="43.64258" lon="2.34116">
        <ele>481.40745</ele>
        <time>2021-10-18T14:01:25.000Z</time>
      </trkpt>
      <trkpt lat="43.6426" lon="2.34115">
        <ele>481.13891</ele>
        <time>2021-10-18T14:01:26.000Z</time>
      </trkpt>
      <trkpt lat="43.64261" lon="2.34114">
        <ele>480.907708</ele>
        <time>2021-10-18T14:01:27.000Z</time>
      </trkpt>
      <trkpt lat="43.64262" lon="2.34112">
        <ele>480.639169</ele>
        <time>2021-10-18T14:01:28.000Z</time>
      </trkpt>
      <trkpt lat="43.64264" lon="2.34111">
        <ele>480.375994</ele>
        <time>2021-10-18T14:01:29.000Z</time>
      </trkpt>
      <trkpt lat="43.64266" lon="2.34109">
        <ele>480.016883</ele>
        <time>2021-10-18T14:01:30.000Z</time>
      </trkpt>
      <trkpt lat="43.64268" lon="2.34107">
        <ele>479.620561</ele>
        <time>2021-10-18T14:01:31.000Z</time>
      </trkpt>
      <trkpt lat="43.64269" lon="2.34105">
        <ele>479.269818</ele>
        <time>2021-10-18T14:01:32.000Z</time>
      </trkpt>
      <trkpt lat="43.64271" lon="2.34102">
        <ele>478.869807</ele>
        <time>2021-10-18T14:01:33.000Z</time>
      </trkpt>
      <trkpt lat="43.64273" lon="2.341">
        <ele>478.469796</ele>
        <time>2021-10-18T14:01:34.000Z</time>
      </trkpt>
      <trkpt lat="43.64275" lon="2.34098">
        <ele>478.050723</ele>
        <time>2021-10-18T14:01:35.000Z</time>
      </trkpt>
      <trkpt lat="43.64277" lon="2.34095">
        <ele>477.581763</ele>
        <time>2021-10-18T14:01:36.000Z</time>
      </trkpt>
      <trkpt lat="43.6428" lon="2.34092">
        <ele>477.082503</ele>
        <time>2021-10-18T14:01:37.000Z</time>
      </trkpt>
      <trkpt lat="43.64282" lon="2.34089">
        <ele>476.567986</ele>
        <time>2021-10-18T14:01:38.000Z</time>
      </trkpt>
      <trkpt lat="43.64285" lon="2.34086">
        <ele>476.024605</ele>
        <time>2021-10-18T14:01:39.000Z</time>
      </trkpt>
      <trkpt lat="43.64287" lon="2.34083">
        <ele>475.559835</ele>
        <time>2021-10-18T14:01:40.000Z</time>
      </trkpt>
      <trkpt lat="43.64289" lon="2.3408">
        <ele>475.128198</ele>
        <time>2021-10-18T14:01:41.000Z</time>
      </trkpt>
      <trkpt lat="43.64291" lon="2.34078">
        <ele>474.754781</ele>
        <time>2021-10-18T14:01:42.000Z</time>
      </trkpt>
      <trkpt lat="43.64293" lon="2.34076">
        <ele>474.414877</ele>
        <time>2021-10-18T14:01:43.000Z</time>
      </trkpt>
      <trkpt lat="43.64294" lon="2.34074">
        <ele>474.083068</ele>
        <time>2021-10-18T14:01:44.000Z</time>
      </trkpt>
      <trkpt lat="43.64295" lon="2.34072">
        <ele>473.812549</ele>
        <time>2021-10-18T14:01:45.000Z</time>
      </trkpt>
      <trkpt lat="43.64297" lon="2.34071">
        <ele>473.464162</ele>
        <time>2021-10-18T14:01:46.000Z</time>
      </trkpt>
      <trkpt lat="43.64299" lon="2.34069">
        <ele>473.087017</ele>
        <time>2021-10-18T14:01:47.000Z</time>
      </trkpt>
      <trkpt lat="43.643" lon="2.34067">
        <ele>472.812564</ele>
        <time>2021-10-18T14:01:48.000Z</time>
      </trkpt>
      <trkpt lat="43.64301" lon="2.34065">
        <ele>472.548185</ele>
        <time>2021-10-18T14:01:49.000Z</time>
      </trkpt>
      <trkpt lat="43.64302" lon="2.34063">
        <ele>472.263998</ele>
        <time>2021-10-18T14:01:50.000Z</time>
      </trkpt>
      <trkpt lat="43.64302" lon="2.3406">
        <ele>471.98287</ele>
        <time>2021-10-18T14:01:51.000Z</time>
      </trkpt>
      <trkpt lat="43.64302" lon="2.34057">
        <ele>471.644088</ele>
        <time>2021-10-18T14:01:52.000Z</time>
      </trkpt>
      <trkpt lat="43.64303" lon="2.34054">
        <ele>471.231342</ele>
        <time>2021-10-18T14:01:53.000Z</time>
      </trkpt>
      <trkpt lat="43.64304" lon="2.3405">
        <ele>470.798921</ele>
        <time>2021-10-18T14:01:54.000Z</time>
      </trkpt>
      <trkpt lat="43.64305" lon="2.34047">
        <ele>470.416211</ele>
        <time>2021-10-18T14:01:55.000Z</time>
      </trkpt>
      <trkpt lat="43.64307" lon="2.34045">
        <ele>470.077537</ele>
        <time>2021-10-18T14:01:56.000Z</time>
      </trkpt>
      <trkpt lat="43.64308" lon="2.34042">
        <ele>469.749499</ele>
        <time>2021-10-18T14:01:57.000Z</time>
      </trkpt>
      <trkpt lat="43.64309" lon="2.3404">
        <ele>469.438077</ele>
        <time>2021-10-18T14:01:58.000Z</time>
      </trkpt>
      <trkpt lat="43.6431" lon="2.34037">
        <ele>469.109995</ele>
        <time>2021-10-18T14:01:59.000Z</time>
      </trkpt>
      <trkpt lat="43.6431" lon="2.34035">
        <ele>468.781913</ele>
        <time>2021-10-18T14:02:00.000Z</time>
      </trkpt>
      <trkpt lat="43.64311" lon="2.34032">
        <ele>468.443397</ele>
        <time>2021-10-18T14:02:01.000Z</time>
      </trkpt>
      <trkpt lat="43.64312" lon="2.34029">
        <ele>468.077459</ele>
        <time>2021-10-18T14:02:02.000Z</time>
      </trkpt>
      <trkpt lat="43.64313" lon="2.34027">
        <ele>467.757999</ele>
        <time>2021-10-18T14:02:03.000Z</time>
      </trkpt>
      <trkpt lat="43.64315" lon="2.34025">
        <ele>467.455692</ele>
        <time>2021-10-18T14:02:04.000Z</time>
      </trkpt>
      <trkpt lat="43.64316" lon="2.34022">
        <ele>467.078039</ele>
        <time>2021-10-18T14:02:05.000Z</time>
      </trkpt>
      <trkpt lat="43.64318" lon="2.3402">
        <ele>466.750002</ele>
        <time>2021-10-18T14:02:06.000Z</time>
      </trkpt>
      <trkpt lat="43.64319" lon="2.34018">
        <ele>466.449302</ele>
        <time>2021-10-18T14:02:07.000Z</time>
      </trkpt>
      <trkpt lat="43.6432" lon="2.34016">
        <ele>466.166815</ele>
        <time>2021-10-18T14:02:08.000Z</time>
      </trkpt>
      <trkpt lat="43.64321" lon="2.34013">
        <ele>465.889945</ele>
        <time>2021-10-18T14:02:09.000Z</time>
      </trkpt>
      <trkpt lat="43.64321" lon="2.34011">
        <ele>465.598966</ele>
        <time>2021-10-18T14:02:10.000Z</time>
      </trkpt>
      <trkpt lat="43.64322" lon="2.34009">
        <ele>465.307988</ele>
        <time>2021-10-18T14:02:11.000Z</time>
      </trkpt>
      <trkpt lat="43.64323" lon="2.34006">
        <ele>465.016322</ele>
        <time>2021-10-18T14:02:12.000Z</time>
      </trkpt>
      <trkpt lat="43.64323" lon="2.34004">
        <ele>464.725344</ele>
        <time>2021-10-18T14:02:13.000Z</time>
      </trkpt>
      <trkpt lat="43.64324" lon="2.34001">
        <ele>464.386829</ele>
        <time>2021-10-18T14:02:14.000Z</time>
      </trkpt>
      <trkpt lat="43.64325" lon="2.33998">
        <ele>464.03783</ele>
        <time>2021-10-18T14:02:15.000Z</time>
      </trkpt>
      <trkpt lat="43.64326" lon="2.33995">
        <ele>463.678301</ele>
        <time>2021-10-18T14:02:16.000Z</time>
      </trkpt>
      <trkpt lat="43.64327" lon="2.33992">
        <ele>463.262997</ele>
        <time>2021-10-18T14:02:17.000Z</time>
      </trkpt>
      <trkpt lat="43.64328" lon="2.33989">
        <ele>462.834818</ele>
        <time>2021-10-18T14:02:18.000Z</time>
      </trkpt>
      <trkpt lat="43.6433" lon="2.33985">
        <ele>462.333767</ele>
        <time>2021-10-18T14:02:19.000Z</time>
      </trkpt>
      <trkpt lat="43.64332" lon="2.33981">
        <ele>461.85092</ele>
        <time>2021-10-18T14:02:20.000Z</time>
      </trkpt>
      <trkpt lat="43.64332" lon="2.33978">
        <ele>461.44645</ele>
        <time>2021-10-18T14:02:21.000Z</time>
      </trkpt>
      <trkpt lat="43.64332" lon="2.33974">
        <ele>461.041268</ele>
        <time>2021-10-18T14:02:22.000Z</time>
      </trkpt>
      <trkpt lat="43.64333" lon="2.33971">
        <ele>460.564093</ele>
        <time>2021-10-18T14:02:23.000Z</time>
      </trkpt>
      <trkpt lat="43.64334" lon="2.33968">
        <ele>460.047438</ele>
        <time>2021-10-18T14:02:24.000Z</time>
      </trkpt>
      <trkpt lat="43.64334" lon="2.33964">
        <ele>459.475205</ele>
        <time>2021-10-18T14:02:25.000Z</time>
      </trkpt>
      <trkpt lat="43.64335" lon="2.33961">
        <ele>458.923808</ele>
        <time>2021-10-18T14:02:26.000Z</time>
      </trkpt>
      <trkpt lat="43.64336" lon="2.33958">
        <ele>458.524452</ele>
        <time>2021-10-18T14:02:27.000Z</time>
      </trkpt>
      <trkpt lat="43.64335" lon="2.33955">
        <ele>458.120269</ele>
        <time>2021-10-18T14:02:28.000Z</time>
      </trkpt>
      <trkpt lat="43.64336" lon="2.33952">
        <ele>457.635481</ele>
        <time>2021-10-18T14:02:29.000Z</time>
      </trkpt>
      <trkpt lat="43.64336" lon="2.33949">
        <ele>457.108002</ele>
        <time>2021-10-18T14:02:30.000Z</time>
      </trkpt>
      <trkpt lat="43.64337" lon="2.33946">
        <ele>456.613527</ele>
        <time>2021-10-18T14:02:31.000Z</time>
      </trkpt>
      <trkpt lat="43.64337" lon="2.33943">
        <ele>456.18263</ele>
        <time>2021-10-18T14:02:32.000Z</time>
      </trkpt>
      <trkpt lat="43.64338" lon="2.3394">
        <ele>455.680375</ele>
        <time>2021-10-18T14:02:33.000Z</time>
      </trkpt>
      <trkpt lat="43.64338" lon="2.33936">
        <ele>455.103452</ele>
        <time>2021-10-18T14:02:34.000Z</time>
      </trkpt>
      <trkpt lat="43.64339" lon="2.33932">
        <ele>454.511658</ele>
        <time>2021-10-18T14:02:35.000Z</time>
      </trkpt>
      <trkpt lat="43.64339" lon="2.33928">
        <ele>453.95229</ele>
        <time>2021-10-18T14:02:36.000Z</time>
      </trkpt>
      <trkpt lat="43.64339" lon="2.33925">
        <ele>453.469731</ele>
        <time>2021-10-18T14:02:37.000Z</time>
      </trkpt>
      <trkpt lat="43.6434" lon="2.33922">
        <ele>452.896438</ele>
        <time>2021-10-18T14:02:38.000Z</time>
      </trkpt>
      <trkpt lat="43.64341" lon="2.33918">
        <ele>452.350882</ele>
        <time>2021-10-18T14:02:39.000Z</time>
      </trkpt>
      <trkpt lat="43.64341" lon="2.33915">
        <ele>451.851192</ele>
        <time>2021-10-18T14:02:40.000Z</time>
      </trkpt>
      <trkpt lat="43.64341" lon="2.33911">
        <ele>451.324941</ele>
        <time>2021-10-18T14:02:41.000Z</time>
      </trkpt>
      <trkpt lat="43.64341" lon="2.33908">
        <ele>450.792582</ele>
        <time>2021-10-18T14:02:42.000Z</time>
      </trkpt>
      <trkpt lat="43.64341" lon="2.33905">
        <ele>450.393227</ele>
        <time>2021-10-18T14:02:43.000Z</time>
      </trkpt>
      <trkpt lat="43.6434" lon="2.33904">
        <ele>450.138901</ele>
        <time>2021-10-18T14:02:44.000Z</time>
      </trkpt>
      <trkpt lat="43.6434" lon="2.33902">
        <ele>449.948157</ele>
        <time>2021-10-18T14:02:45.000Z</time>
      </trkpt>
      <trkpt lat="43.6434" lon="2.33902">
        <ele>449.948157</ele>
        <time>2021-10-18T14:02:47.000Z</time>
      </trkpt>
      <trkpt lat="43.64341" lon="2.33891">
        <ele>448.222113</ele>
        <time>2021-10-18T14:03:06.000Z</time>
      </trkpt>
      <trkpt lat="43.64342" lon="2.33887">
        <ele>447.6214</ele>
        <time>2021-10-18T14:03:07.000Z</time>
      </trkpt>
      <trkpt lat="43.64343" lon="2.33883">
        <ele>446.967079</ele>
        <time>2021-10-18T14:03:08.000Z</time>
      </trkpt>
      <trkpt lat="43.64343" lon="2.33879">
        <ele>446.290235</ele>
        <time>2021-10-18T14:03:09.000Z</time>
      </trkpt>
      <trkpt lat="43.64344" lon="2.33874">
        <ele>445.574315</ele>
        <time>2021-10-18T14:03:10.000Z</time>
      </trkpt>
      <trkpt lat="43.64345" lon="2.33869">
        <ele>444.794951</ele>
        <time>2021-10-18T14:03:11.000Z</time>
      </trkpt>
      <trkpt lat="43.64346" lon="2.33864">
        <ele>444.0593</ele>
        <time>2021-10-18T14:03:12.000Z</time>
      </trkpt>
      <trkpt lat="43.64346" lon="2.33859">
        <ele>443.30552</ele>
        <time>2021-10-18T14:03:13.000Z</time>
      </trkpt>
      <trkpt lat="43.64346" lon="2.33855">
        <ele>442.67417</ele>
        <time>2021-10-18T14:03:14.000Z</time>
      </trkpt>
      <trkpt lat="43.64346" lon="2.33851">
        <ele>442.114802</ele>
        <time>2021-10-18T14:03:15.000Z</time>
      </trkpt>
      <trkpt lat="43.64346" lon="2.33848">
        <ele>441.612102</ele>
        <time>2021-10-18T14:03:16.000Z</time>
      </trkpt>
      <trkpt lat="43.64344" lon="2.33844">
        <ele>440.918166</ele>
        <time>2021-10-18T14:03:17.000Z</time>
      </trkpt>
      <trkpt lat="43.64342" lon="2.3384">
        <ele>440.135419</ele>
        <time>2021-10-18T14:03:18.000Z</time>
      </trkpt>
      <trkpt lat="43.6434" lon="2.33835">
        <ele>439.386041</ele>
        <time>2021-10-18T14:03:19.000Z</time>
      </trkpt>
      <trkpt lat="43.64339" lon="2.33831">
        <ele>438.767756</ele>
        <time>2021-10-18T14:03:20.000Z</time>
      </trkpt>
      <trkpt lat="43.64338" lon="2.33828">
        <ele>438.195523</ele>
        <time>2021-10-18T14:03:21.000Z</time>
      </trkpt>
      <trkpt lat="43.64337" lon="2.33825">
        <ele>437.66733</ele>
        <time>2021-10-18T14:03:22.000Z</time>
      </trkpt>
      <trkpt lat="43.64336" lon="2.33822">
        <ele>437.131314</ele>
        <time>2021-10-18T14:03:23.000Z</time>
      </trkpt>
      <trkpt lat="43.64334" lon="2.33819">
        <ele>436.561223</ele>
        <time>2021-10-18T14:03:24.000Z</time>
      </trkpt>
      <trkpt lat="43.64331" lon="2.33817">
        <ele>436.022605</ele>
        <time>2021-10-18T14:03:25.000Z</time>
      </trkpt>
      <trkpt lat="43.6433" lon="2.33815">
        <ele>435.456781</ele>
        <time>2021-10-18T14:03:26.000Z</time>
      </trkpt>
      <trkpt lat="43.64328" lon="2.33813">
        <ele>434.986845</ele>
        <time>2021-10-18T14:03:27.000Z</time>
      </trkpt>
      <trkpt lat="43.64326" lon="2.33811">
        <ele>434.507519</ele>
        <time>2021-10-18T14:03:28.000Z</time>
      </trkpt>
      <trkpt lat="43.64324" lon="2.33809">
        <ele>433.968901</ele>
        <time>2021-10-18T14:03:29.000Z</time>
      </trkpt>
      <trkpt lat="43.64322" lon="2.33808">
        <ele>433.659798</ele>
        <time>2021-10-18T14:03:30.000Z</time>
      </trkpt>
      <trkpt lat="43.64321" lon="2.33807">
        <ele>433.399582</ele>
        <time>2021-10-18T14:03:31.000Z</time>
      </trkpt>
      <trkpt lat="43.6432" lon="2.33806">
        <ele>433.053812</ele>
        <time>2021-10-18T14:03:32.000Z</time>
      </trkpt>
      <trkpt lat="43.64318" lon="2.33805">
        <ele>432.720656</ele>
        <time>2021-10-18T14:03:33.000Z</time>
      </trkpt>
      <trkpt lat="43.64317" lon="2.33802">
        <ele>432.171532</ele>
        <time>2021-10-18T14:03:34.000Z</time>
      </trkpt>
      <trkpt lat="43.64316" lon="2.33799">
        <ele>431.647847</ele>
        <time>2021-10-18T14:03:35.000Z</time>
      </trkpt>
      <trkpt lat="43.64316" lon="2.33796">
        <ele>431.180253</ele>
        <time>2021-10-18T14:03:36.000Z</time>
      </trkpt>
      <trkpt lat="43.64316" lon="2.33793">
        <ele>430.658992</ele>
        <time>2021-10-18T14:03:37.000Z</time>
      </trkpt>
      <trkpt lat="43.64317" lon="2.33789">
        <ele>430.113435</ele>
        <time>2021-10-18T14:03:38.000Z</time>
      </trkpt>
      <trkpt lat="43.64317" lon="2.33785">
        <ele>429.451254</ele>
        <time>2021-10-18T14:03:39.000Z</time>
      </trkpt>
      <trkpt lat="43.64318" lon="2.3378">
        <ele>428.767246</ele>
        <time>2021-10-18T14:03:40.000Z</time>
      </trkpt>
      <trkpt lat="43.64319" lon="2.33777">
        <ele>428.221689</ele>
        <time>2021-10-18T14:03:41.000Z</time>
      </trkpt>
      <trkpt lat="43.64319" lon="2.33774">
        <ele>427.796429</ele>
        <time>2021-10-18T14:03:42.000Z</time>
      </trkpt>
      <trkpt lat="43.64319" lon="2.33771">
        <ele>427.323336</ele>
        <time>2021-10-18T14:03:43.000Z</time>
      </trkpt>
      <trkpt lat="43.6432" lon="2.33767">
        <ele>426.761275</ele>
        <time>2021-10-18T14:03:44.000Z</time>
      </trkpt>
      <trkpt lat="43.6432" lon="2.33764">
        <ele>426.2841</ele>
        <time>2021-10-18T14:03:45.000Z</time>
      </trkpt>
      <trkpt lat="43.64321" lon="2.33761">
        <ele>425.803748</ele>
        <time>2021-10-18T14:03:46.000Z</time>
      </trkpt>
      <trkpt lat="43.64322" lon="2.33758">
        <ele>425.32508</ele>
        <time>2021-10-18T14:03:47.000Z</time>
      </trkpt>
      <trkpt lat="43.64323" lon="2.33756">
        <ele>424.922342</ele>
        <time>2021-10-18T14:03:48.000Z</time>
      </trkpt>
      <trkpt lat="43.64323" lon="2.33753">
        <ele>424.497996</ele>
        <time>2021-10-18T14:03:49.000Z</time>
      </trkpt>
      <trkpt lat="43.64323" lon="2.33751">
        <ele>424.122394</ele>
        <time>2021-10-18T14:03:50.000Z</time>
      </trkpt>
      <trkpt lat="43.64323" lon="2.33748">
        <ele>423.744503</ele>
        <time>2021-10-18T14:03:51.000Z</time>
      </trkpt>
      <trkpt lat="43.64323" lon="2.33745">
        <ele>423.152904</ele>
        <time>2021-10-18T14:03:52.000Z</time>
      </trkpt>
      <trkpt lat="43.64323" lon="2.33742">
        <ele>422.619227</ele>
        <time>2021-10-18T14:03:53.000Z</time>
      </trkpt>
      <trkpt lat="43.64322" lon="2.33739">
        <ele>422.094603</ele>
        <time>2021-10-18T14:03:54.000Z</time>
      </trkpt>
      <trkpt lat="43.64322" lon="2.33737">
        <ele>421.592478</ele>
        <time>2021-10-18T14:03:55.000Z</time>
      </trkpt>
      <trkpt lat="43.64322" lon="2.33734">
        <ele>421.059405</ele>
        <time>2021-10-18T14:03:56.000Z</time>
      </trkpt>
      <trkpt lat="43.64322" lon="2.33731">
        <ele>420.489003</ele>
        <time>2021-10-18T14:03:57.000Z</time>
      </trkpt>
      <trkpt lat="43.64322" lon="2.33727">
        <ele>419.895869</ele>
        <time>2021-10-18T14:03:58.000Z</time>
      </trkpt>
      <trkpt lat="43.64321" lon="2.33724">
        <ele>419.307103</ele>
        <time>2021-10-18T14:03:59.000Z</time>
      </trkpt>
      <trkpt lat="43.64321" lon="2.3372">
        <ele>418.54663</ele>
        <time>2021-10-18T14:04:00.000Z</time>
      </trkpt>
      <trkpt lat="43.64321" lon="2.33716">
        <ele>417.734248</ele>
        <time>2021-10-18T14:04:01.000Z</time>
      </trkpt>
      <trkpt lat="43.6432" lon="2.33712">
        <ele>417.028388</ele>
        <time>2021-10-18T14:04:02.000Z</time>
      </trkpt>
      <trkpt lat="43.6432" lon="2.33708">
        <ele>416.398778</ele>
        <time>2021-10-18T14:04:03.000Z</time>
      </trkpt>
      <trkpt lat="43.6432" lon="2.33705">
        <ele>415.828375</ele>
        <time>2021-10-18T14:04:04.000Z</time>
      </trkpt>
      <trkpt lat="43.64319" lon="2.33702">
        <ele>415.280381</ele>
        <time>2021-10-18T14:04:05.000Z</time>
      </trkpt>
      <trkpt lat="43.64319" lon="2.33699">
        <ele>414.640648</ele>
        <time>2021-10-18T14:04:06.000Z</time>
      </trkpt>
      <trkpt lat="43.64318" lon="2.33696">
        <ele>413.931824</ele>
        <time>2021-10-18T14:04:07.000Z</time>
      </trkpt>
      <trkpt lat="43.64317" lon="2.33692">
        <ele>413.312071</ele>
        <time>2021-10-18T14:04:08.000Z</time>
      </trkpt>
      <trkpt lat="43.64316" lon="2.3369">
        <ele>412.758457</ele>
        <time>2021-10-18T14:04:09.000Z</time>
      </trkpt>
      <trkpt lat="43.64315" lon="2.33687">
        <ele>412.255986</ele>
        <time>2021-10-18T14:04:10.000Z</time>
      </trkpt>
      <trkpt lat="43.64315" lon="2.33685">
        <ele>411.864073</ele>
        <time>2021-10-18T14:04:11.000Z</time>
      </trkpt>
      <trkpt lat="43.64314" lon="2.33684">
        <ele>411.491319</ele>
        <time>2021-10-18T14:04:12.000Z</time>
      </trkpt>
      <trkpt lat="43.64313" lon="2.33682">
        <ele>411.160065</ele>
        <time>2021-10-18T14:04:13.000Z</time>
      </trkpt>
      <trkpt lat="43.64313" lon="2.3368">
        <ele>410.754868</ele>
        <time>2021-10-18T14:04:14.000Z</time>
      </trkpt>
      <trkpt lat="43.64314" lon="2.33677">
        <ele>410.230243</ele>
        <time>2021-10-18T14:04:15.000Z</time>
      </trkpt>
      <trkpt lat="43.64314" lon="2.33674">
        <ele>409.753469</ele>
        <time>2021-10-18T14:04:16.000Z</time>
      </trkpt>
      <trkpt lat="43.64315" lon="2.33672">
        <ele>409.284385</ele>
        <time>2021-10-18T14:04:17.000Z</time>
      </trkpt>
      <trkpt lat="43.64316" lon="2.3367">
        <ele>408.822617</ele>
        <time>2021-10-18T14:04:18.000Z</time>
      </trkpt>
      <trkpt lat="43.64317" lon="2.33668">
        <ele>408.37003</ele>
        <time>2021-10-18T14:04:19.000Z</time>
      </trkpt>
      <trkpt lat="43.64318" lon="2.33665">
        <ele>407.812494</ele>
        <time>2021-10-18T14:04:20.000Z</time>
      </trkpt>
      <trkpt lat="43.64318" lon="2.33663">
        <ele>407.305891</ele>
        <time>2021-10-18T14:04:21.000Z</time>
      </trkpt>
      <trkpt lat="43.64318" lon="2.33659">
        <ele>406.660525</ele>
        <time>2021-10-18T14:04:22.000Z</time>
      </trkpt>
      <trkpt lat="43.64318" lon="2.33655">
        <ele>405.945581</ele>
        <time>2021-10-18T14:04:23.000Z</time>
      </trkpt>
      <trkpt lat="43.64317" lon="2.33651">
        <ele>405.132618</ele>
        <time>2021-10-18T14:04:24.000Z</time>
      </trkpt>
      <trkpt lat="43.64315" lon="2.33647">
        <ele>404.365129</ele>
        <time>2021-10-18T14:04:25.000Z</time>
      </trkpt>
      <trkpt lat="43.64314" lon="2.33643">
        <ele>403.517971</ele>
        <time>2021-10-18T14:04:26.000Z</time>
      </trkpt>
      <trkpt lat="43.64313" lon="2.3364">
        <ele>402.817848</ele>
        <time>2021-10-18T14:04:27.000Z</time>
      </trkpt>
      <trkpt lat="43.64313" lon="2.33636">
        <ele>402.173983</ele>
        <time>2021-10-18T14:04:28.000Z</time>
      </trkpt>
      <trkpt lat="43.64314" lon="2.33633">
        <ele>401.608091</ele>
        <time>2021-10-18T14:04:29.000Z</time>
      </trkpt>
      <trkpt lat="43.64315" lon="2.33631">
        <ele>401.09482</ele>
        <time>2021-10-18T14:04:30.000Z</time>
      </trkpt>
      <trkpt lat="43.64316" lon="2.33628">
        <ele>400.525678</ele>
        <time>2021-10-18T14:04:31.000Z</time>
      </trkpt>
      <trkpt lat="43.64318" lon="2.33626">
        <ele>399.939227</ele>
        <time>2021-10-18T14:04:32.000Z</time>
      </trkpt>
      <trkpt lat="43.64319" lon="2.33624">
        <ele>399.440785</ele>
        <time>2021-10-18T14:04:33.000Z</time>
      </trkpt>
      <trkpt lat="43.6432" lon="2.33621">
        <ele>398.859872</ele>
        <time>2021-10-18T14:04:34.000Z</time>
      </trkpt>
      <trkpt lat="43.64322" lon="2.33618">
        <ele>398.115268</ele>
        <time>2021-10-18T14:04:35.000Z</time>
      </trkpt>
      <trkpt lat="43.64324" lon="2.33615">
        <ele>397.342959</ele>
        <time>2021-10-18T14:04:36.000Z</time>
      </trkpt>
      <trkpt lat="43.64327" lon="2.33613">
        <ele>396.599649</ele>
        <time>2021-10-18T14:04:37.000Z</time>
      </trkpt>
      <trkpt lat="43.64329" lon="2.33611">
        <ele>395.981426</ele>
        <time>2021-10-18T14:04:38.000Z</time>
      </trkpt>
      <trkpt lat="43.6433" lon="2.3361">
        <ele>395.518996</ele>
        <time>2021-10-18T14:04:39.000Z</time>
      </trkpt>
      <trkpt lat="43.64332" lon="2.3361">
        <ele>395.083664</ele>
        <time>2021-10-18T14:04:40.000Z</time>
      </trkpt>
      <trkpt lat="43.64333" lon="2.33611">
        <ele>394.729261</ele>
        <time>2021-10-18T14:04:41.000Z</time>
      </trkpt>
      <trkpt lat="43.64335" lon="2.33612">
        <ele>394.22932</ele>
        <time>2021-10-18T14:04:42.000Z</time>
      </trkpt>
      <trkpt lat="43.64337" lon="2.33613">
        <ele>393.775377</ele>
        <time>2021-10-18T14:04:43.000Z</time>
      </trkpt>
      <trkpt lat="43.64338" lon="2.33614">
        <ele>393.366292</ele>
        <time>2021-10-18T14:04:44.000Z</time>
      </trkpt>
      <trkpt lat="43.64339" lon="2.33615">
        <ele>393.017542</ele>
        <time>2021-10-18T14:04:45.000Z</time>
      </trkpt>
      <trkpt lat="43.6434" lon="2.33616">
        <ele>392.717623</ele>
        <time>2021-10-18T14:04:46.000Z</time>
      </trkpt>
      <trkpt lat="43.64341" lon="2.33618">
        <ele>392.375103</ele>
        <time>2021-10-18T14:04:47.000Z</time>
      </trkpt>
      <trkpt lat="43.64342" lon="2.3362">
        <ele>391.926468</ele>
        <time>2021-10-18T14:04:48.000Z</time>
      </trkpt>
      <trkpt lat="43.64343" lon="2.33622">
        <ele>391.322137</ele>
        <time>2021-10-18T14:04:49.000Z</time>
      </trkpt>
      <trkpt lat="43.64346" lon="2.33624">
        <ele>390.631859</ele>
        <time>2021-10-18T14:04:50.000Z</time>
      </trkpt>
      <trkpt lat="43.64348" lon="2.33625">
        <ele>389.989566</ele>
        <time>2021-10-18T14:04:51.000Z</time>
      </trkpt>
      <trkpt lat="43.64351" lon="2.33626">
        <ele>389.299796</ele>
        <time>2021-10-18T14:04:52.000Z</time>
      </trkpt>
      <trkpt lat="43.64353" lon="2.33626">
        <ele>388.639358</ele>
        <time>2021-10-18T14:04:53.000Z</time>
      </trkpt>
      <trkpt lat="43.64356" lon="2.33626">
        <ele>388.080223</ele>
        <time>2021-10-18T14:04:54.000Z</time>
      </trkpt>
      <trkpt lat="43.64358" lon="2.33625">
        <ele>387.468099</ele>
        <time>2021-10-18T14:04:55.000Z</time>
      </trkpt>
      <trkpt lat="43.64361" lon="2.33625">
        <ele>386.806638</ele>
        <time>2021-10-18T14:04:56.000Z</time>
      </trkpt>
      <trkpt lat="43.64363" lon="2.33625">
        <ele>386.194514</ele>
        <time>2021-10-18T14:04:57.000Z</time>
      </trkpt>
      <trkpt lat="43.64366" lon="2.33625">
        <ele>385.533053</ele>
        <time>2021-10-18T14:04:58.000Z</time>
      </trkpt>
      <trkpt lat="43.64368" lon="2.33625">
        <ele>384.843283</ele>
        <time>2021-10-18T14:04:59.000Z</time>
      </trkpt>
      <trkpt lat="43.64371" lon="2.33625">
        <ele>384.204004</ele>
        <time>2021-10-18T14:05:00.000Z</time>
      </trkpt>
      <trkpt lat="43.64373" lon="2.33626">
        <ele>383.746408</ele>
        <time>2021-10-18T14:05:01.000Z</time>
      </trkpt>
      <trkpt lat="43.64375" lon="2.33626">
        <ele>383.104755</ele>
        <time>2021-10-18T14:05:02.000Z</time>
      </trkpt>
      <trkpt lat="43.64377" lon="2.33626">
        <ele>382.520232</ele>
        <time>2021-10-18T14:05:03.000Z</time>
      </trkpt>
      <trkpt lat="43.6438" lon="2.33626">
        <ele>381.91032</ele>
        <time>2021-10-18T14:05:04.000Z</time>
      </trkpt>
      <trkpt lat="43.64382" lon="2.33626">
        <ele>381.249626</ele>
        <time>2021-10-18T14:05:05.000Z</time>
      </trkpt>
      <trkpt lat="43.64385" lon="2.33626">
        <ele>380.607972</ele>
        <time>2021-10-18T14:05:06.000Z</time>
      </trkpt>
      <trkpt lat="43.64387" lon="2.33627">
        <ele>380.088109</ele>
        <time>2021-10-18T14:05:07.000Z</time>
      </trkpt>
      <trkpt lat="43.64389" lon="2.33627">
        <ele>379.478197</ele>
        <time>2021-10-18T14:05:08.000Z</time>
      </trkpt>
      <trkpt lat="43.64392" lon="2.33627">
        <ele>378.817758</ele>
        <time>2021-10-18T14:05:09.000Z</time>
      </trkpt>
      <trkpt lat="43.64395" lon="2.33626">
        <ele>378.094972</ele>
        <time>2021-10-18T14:05:10.000Z</time>
      </trkpt>
      <trkpt lat="43.64396" lon="2.33625">
        <ele>377.826414</ele>
        <time>2021-10-18T14:05:11.000Z</time>
      </trkpt>
      <trkpt lat="43.64396" lon="2.33624">
        <ele>377.614857</ele>
        <time>2021-10-18T14:05:12.000Z</time>
      </trkpt>
      <trkpt lat="43.64396" lon="2.33622">
        <ele>377.422042</ele>
        <time>2021-10-18T14:05:13.000Z</time>
      </trkpt>
      <trkpt lat="43.64396" lon="2.33621">
        <ele>377.271456</ele>
        <time>2021-10-18T14:05:14.000Z</time>
      </trkpt>
      <trkpt lat="43.64395" lon="2.3362">
        <ele>377.116718</ele>
        <time>2021-10-18T14:05:15.000Z</time>
      </trkpt>
      <trkpt lat="43.64395" lon="2.33619">
        <ele>376.954082</ele>
        <time>2021-10-18T14:05:16.000Z</time>
      </trkpt>
      <trkpt lat="43.64395" lon="2.33617">
        <ele>376.754088</ele>
        <time>2021-10-18T14:05:17.000Z</time>
      </trkpt>
      <trkpt lat="43.64394" lon="2.33616">
        <ele>376.514199</ele>
        <time>2021-10-18T14:05:18.000Z</time>
      </trkpt>
      <trkpt lat="43.64393" lon="2.33615">
        <ele>376.29281</ele>
        <time>2021-10-18T14:05:19.000Z</time>
      </trkpt>
      <trkpt lat="43.64392" lon="2.33613">
        <ele>376.092816</ele>
        <time>2021-10-18T14:05:20.000Z</time>
      </trkpt>
      <trkpt lat="43.64391" lon="2.33612">
        <ele>375.833215</ele>
        <time>2021-10-18T14:05:21.000Z</time>
      </trkpt>
      <trkpt lat="43.6439" lon="2.3361">
        <ele>375.581222</ele>
        <time>2021-10-18T14:05:22.000Z</time>
      </trkpt>
      <trkpt lat="43.6439" lon="2.33609">
        <ele>375.352707</ele>
        <time>2021-10-18T14:05:23.000Z</time>
      </trkpt>
      <trkpt lat="43.64389" lon="2.33608">
        <ele>375.152928</ele>
        <time>2021-10-18T14:05:24.000Z</time>
      </trkpt>
      <trkpt lat="43.64388" lon="2.33607">
        <ele>374.926669</ele>
        <time>2021-10-18T14:05:25.000Z</time>
      </trkpt>
      <trkpt lat="43.64387" lon="2.33606">
        <ele>374.760262</ele>
        <time>2021-10-18T14:05:26.000Z</time>
      </trkpt>
      <trkpt lat="43.64386" lon="2.33605">
        <ele>374.570828</ele>
        <time>2021-10-18T14:05:27.000Z</time>
      </trkpt>
      <trkpt lat="43.64386" lon="2.33604">
        <ele>374.404424</ele>
        <time>2021-10-18T14:05:28.000Z</time>
      </trkpt>
      <trkpt lat="43.64385" lon="2.33603">
        <ele>374.213464</ele>
        <time>2021-10-18T14:05:29.000Z</time>
      </trkpt>
      <trkpt lat="43.64384" lon="2.33602">
        <ele>374.022504</ele>
        <time>2021-10-18T14:05:30.000Z</time>
      </trkpt>
      <trkpt lat="43.64383" lon="2.33601">
        <ele>373.760291</ele>
        <time>2021-10-18T14:05:31.000Z</time>
      </trkpt>
      <trkpt lat="43.64382" lon="2.33599">
        <ele>373.437235</ele>
        <time>2021-10-18T14:05:32.000Z</time>
      </trkpt>
      <trkpt lat="43.6438" lon="2.33597">
        <ele>373.089872</ele>
        <time>2021-10-18T14:05:33.000Z</time>
      </trkpt>
      <trkpt lat="43.64379" lon="2.33595">
        <ele>372.766816</ele>
        <time>2021-10-18T14:05:34.000Z</time>
      </trkpt>
      <trkpt lat="43.64378" lon="2.33593">
        <ele>372.476118</ele>
        <time>2021-10-18T14:05:35.000Z</time>
      </trkpt>
      <trkpt lat="43.64377" lon="2.33591">
        <ele>372.172105</ele>
        <time>2021-10-18T14:05:36.000Z</time>
      </trkpt>
      <trkpt lat="43.64377" lon="2.33589">
        <ele>371.840628</ele>
        <time>2021-10-18T14:05:37.000Z</time>
      </trkpt>
      <trkpt lat="43.64376" lon="2.33587">
        <ele>371.578979</ele>
        <time>2021-10-18T14:05:38.000Z</time>
      </trkpt>
      <trkpt lat="43.64376" lon="2.33585">
        <ele>371.412447</ele>
        <time>2021-10-18T14:05:39.000Z</time>
      </trkpt>
      <trkpt lat="43.64376" lon="2.33584">
        <ele>371.245915</ele>
        <time>2021-10-18T14:05:40.000Z</time>
      </trkpt>
      <trkpt lat="43.64376" lon="2.33582">
        <ele>371.037917</ele>
        <time>2021-10-18T14:05:41.000Z</time>
      </trkpt>
      <trkpt lat="43.64375" lon="2.33577">
        <ele>370.306944</ele>
        <time>2021-10-18T14:05:42.000Z</time>
      </trkpt>
      <trkpt lat="43.64374" lon="2.33575">
        <ele>369.987313</ele>
        <time>2021-10-18T14:05:43.000Z</time>
      </trkpt>
      <trkpt lat="43.64374" lon="2.33573">
        <ele>369.694574</ele>
        <time>2021-10-18T14:05:44.000Z</time>
      </trkpt>
      <trkpt lat="43.64373" lon="2.33571">
        <ele>369.475968</ele>
        <time>2021-10-18T14:05:45.000Z</time>
      </trkpt>
      <trkpt lat="43.64372" lon="2.3357">
        <ele>369.306713</ele>
        <time>2021-10-18T14:05:46.000Z</time>
      </trkpt>
      <trkpt lat="43.64372" lon="2.3357">
        <ele>369.149954</ele>
        <time>2021-10-18T14:05:47.000Z</time>
      </trkpt>
      <trkpt lat="43.64372" lon="2.3357">
        <ele>369.149954</ele>
        <time>2021-10-18T14:05:50.000Z</time>
      </trkpt>
      <trkpt lat="43.64372" lon="2.3357">
        <ele>369.149954</ele>
        <time>2021-10-18T14:05:52.000Z</time>
      </trkpt>
      <trkpt lat="43.64371" lon="2.33567">
        <ele>368.803681</ele>
        <time>2021-10-18T14:05:55.000Z</time>
      </trkpt>
      <trkpt lat="43.64367" lon="2.33559">
        <ele>367.548315</ele>
        <time>2021-10-18T14:05:56.000Z</time>
      </trkpt>
      <trkpt lat="43.64367" lon="2.33558">
        <ele>367.443809</ele>
        <time>2021-10-18T14:05:57.000Z</time>
      </trkpt>
      <trkpt lat="43.64366" lon="2.33557">
        <ele>367.308509</ele>
        <time>2021-10-18T14:05:58.000Z</time>
      </trkpt>
      <trkpt lat="43.64366" lon="2.33556">
        <ele>367.145872</ele>
        <time>2021-10-18T14:05:59.000Z</time>
      </trkpt>
      <trkpt lat="43.64366" lon="2.33556">
        <ele>367.145872</ele>
        <time>2021-10-18T14:06:00.000Z</time>
      </trkpt>
      <trkpt lat="43.64361" lon="2.33536">
        <ele>364.458762</ele>
        <time>2021-10-18T14:06:31.000Z</time>
      </trkpt>
      <trkpt lat="43.6436" lon="2.33532">
        <ele>363.969945</ele>
        <time>2021-10-18T14:06:32.000Z</time>
      </trkpt>
      <trkpt lat="43.64359" lon="2.33529">
        <ele>363.43374</ele>
        <time>2021-10-18T14:06:33.000Z</time>
      </trkpt>
      <trkpt lat="43.64358" lon="2.33525">
        <ele>362.926771</ele>
        <time>2021-10-18T14:06:34.000Z</time>
      </trkpt>
      <trkpt lat="43.64357" lon="2.33521">
        <ele>362.442183</ele>
        <time>2021-10-18T14:06:35.000Z</time>
      </trkpt>
      <trkpt lat="43.64356" lon="2.33518">
        <ele>361.969074</ele>
        <time>2021-10-18T14:06:36.000Z</time>
      </trkpt>
      <trkpt lat="43.64355" lon="2.33515">
        <ele>361.507376</ele>
        <time>2021-10-18T14:06:37.000Z</time>
      </trkpt>
      <trkpt lat="43.64353" lon="2.33512">
        <ele>361.060327</ele>
        <time>2021-10-18T14:06:38.000Z</time>
      </trkpt>
      <trkpt lat="43.64351" lon="2.3351">
        <ele>360.6651</ele>
        <time>2021-10-18T14:06:39.000Z</time>
      </trkpt>
      <trkpt lat="43.6435" lon="2.33508">
        <ele>360.339326</ele>
        <time>2021-10-18T14:06:40.000Z</time>
      </trkpt>
      <trkpt lat="43.64348" lon="2.33506">
        <ele>359.938362</ele>
        <time>2021-10-18T14:06:41.000Z</time>
      </trkpt>
      <trkpt lat="43.64347" lon="2.33504">
        <ele>359.543997</ele>
        <time>2021-10-18T14:06:42.000Z</time>
      </trkpt>
      <trkpt lat="43.64345" lon="2.33501">
        <ele>359.079573</ele>
        <time>2021-10-18T14:06:43.000Z</time>
      </trkpt>
      <trkpt lat="43.64343" lon="2.33499">
        <ele>358.610669</ele>
        <time>2021-10-18T14:06:44.000Z</time>
      </trkpt>
      <trkpt lat="43.64341" lon="2.33497">
        <ele>358.173216</ele>
        <time>2021-10-18T14:06:45.000Z</time>
      </trkpt>
      <trkpt lat="43.6434" lon="2.33496">
        <ele>357.85978</ele>
        <time>2021-10-18T14:06:46.000Z</time>
      </trkpt>
      <trkpt lat="43.64338" lon="2.33495">
        <ele>357.548922</ele>
        <time>2021-10-18T14:06:47.000Z</time>
      </trkpt>
      <trkpt lat="43.64336" lon="2.33494">
        <ele>357.18901</ele>
        <time>2021-10-18T14:06:48.000Z</time>
      </trkpt>
      <trkpt lat="43.64334" lon="2.33493">
        <ele>356.816665</ele>
        <time>2021-10-18T14:06:49.000Z</time>
      </trkpt>
      <trkpt lat="43.64332" lon="2.33492">
        <ele>356.515458</ele>
        <time>2021-10-18T14:06:50.000Z</time>
      </trkpt>
      <trkpt lat="43.64332" lon="2.33492">
        <ele>356.343745</ele>
        <time>2021-10-18T14:06:51.000Z</time>
      </trkpt>
      <trkpt lat="43.6433" lon="2.33491">
        <ele>356.121871</ele>
        <time>2021-10-18T14:06:52.000Z</time>
      </trkpt>
      <trkpt lat="43.64329" lon="2.33491">
        <ele>355.80323</ele>
        <time>2021-10-18T14:06:53.000Z</time>
      </trkpt>
      <trkpt lat="43.64326" lon="2.33491">
        <ele>355.324583</ele>
        <time>2021-10-18T14:06:54.000Z</time>
      </trkpt>
      <trkpt lat="43.64323" lon="2.33492">
        <ele>354.877415</ele>
        <time>2021-10-18T14:06:55.000Z</time>
      </trkpt>
      <trkpt lat="43.64321" lon="2.33492">
        <ele>354.484609</ele>
        <time>2021-10-18T14:06:56.000Z</time>
      </trkpt>
      <trkpt lat="43.64319" lon="2.33493">
        <ele>354.142221</ele>
        <time>2021-10-18T14:06:57.000Z</time>
      </trkpt>
      <trkpt lat="43.64317" lon="2.33493">
        <ele>353.797207</ele>
        <time>2021-10-18T14:06:58.000Z</time>
      </trkpt>
      <trkpt lat="43.64316" lon="2.33494">
        <ele>353.495996</ele>
        <time>2021-10-18T14:06:59.000Z</time>
      </trkpt>
      <trkpt lat="43.64313" lon="2.33493">
        <ele>353.105705</ele>
        <time>2021-10-18T14:07:00.000Z</time>
      </trkpt>
      <trkpt lat="43.64312" lon="2.33493">
        <ele>352.757613</ele>
        <time>2021-10-18T14:07:01.000Z</time>
      </trkpt>
      <trkpt lat="43.6431" lon="2.33492">
        <ele>352.430544</ele>
        <time>2021-10-18T14:07:02.000Z</time>
      </trkpt>
      <trkpt lat="43.64309" lon="2.3349">
        <ele>352.16062</ele>
        <time>2021-10-18T14:07:03.000Z</time>
      </trkpt>
      <trkpt lat="43.64307" lon="2.33489">
        <ele>351.830701</ele>
        <time>2021-10-18T14:07:04.000Z</time>
      </trkpt>
      <trkpt lat="43.64306" lon="2.33487">
        <ele>351.581569</ele>
        <time>2021-10-18T14:07:05.000Z</time>
      </trkpt>
      <trkpt lat="43.64305" lon="2.33485">
        <ele>351.289433</ele>
        <time>2021-10-18T14:07:06.000Z</time>
      </trkpt>
      <trkpt lat="43.64304" lon="2.33483">
        <ele>350.954479</ele>
        <time>2021-10-18T14:07:07.000Z</time>
      </trkpt>
      <trkpt lat="43.64304" lon="2.3348">
        <ele>350.557359</ele>
        <time>2021-10-18T14:07:08.000Z</time>
      </trkpt>
      <trkpt lat="43.64305" lon="2.33477">
        <ele>350.133139</ele>
        <time>2021-10-18T14:07:09.000Z</time>
      </trkpt>
      <trkpt lat="43.64306" lon="2.33473">
        <ele>349.671438</ele>
        <time>2021-10-18T14:07:10.000Z</time>
      </trkpt>
      <trkpt lat="43.64307" lon="2.3347">
        <ele>349.240612</ele>
        <time>2021-10-18T14:07:11.000Z</time>
      </trkpt>
      <trkpt lat="43.64308" lon="2.33467">
        <ele>348.805823</ele>
        <time>2021-10-18T14:07:12.000Z</time>
      </trkpt>
      <trkpt lat="43.64308" lon="2.33465">
        <ele>348.445392</ele>
        <time>2021-10-18T14:07:13.000Z</time>
      </trkpt>
      <trkpt lat="43.64307" lon="2.33462">
        <ele>348.083467</ele>
        <time>2021-10-18T14:07:14.000Z</time>
      </trkpt>
      <trkpt lat="43.64305" lon="2.3346">
        <ele>347.638812</ele>
        <time>2021-10-18T14:07:15.000Z</time>
      </trkpt>
      <trkpt lat="43.64303" lon="2.33458">
        <ele>347.149176</ele>
        <time>2021-10-18T14:07:16.000Z</time>
      </trkpt>
      <trkpt lat="43.64301" lon="2.33455">
        <ele>346.606562</ele>
        <time>2021-10-18T14:07:17.000Z</time>
      </trkpt>
      <trkpt lat="43.64296" lon="2.33447">
        <ele>337.1</ele>
      </trkpt>
      <trkpt lat="43.64287" lon="2.3342">
        <ele>333.5</ele>
      </trkpt>
      <trkpt lat="43.64273" lon="2.33348">
        <ele>329.3</ele>
      </trkpt>
      <trkpt lat="43.64256" lon="2.33275">
        <ele>328.1</ele>
      </trkpt>
      <trkpt lat="43.64248" lon="2.33237">
        <ele>335.3</ele>
      </trkpt>
      <trkpt lat="43.64239" lon="2.33219">
        <ele>335.6</ele>
      </trkpt>
      <trkpt lat="43.64228" lon="2.33211">
        <ele>338.4</ele>
      </trkpt>
      <trkpt lat="43.64221" lon="2.33194">
        <ele>337.6</ele>
      </trkpt>
      <trkpt lat="43.64221" lon="2.33182">
        <ele>335.1</ele>
      </trkpt>
      <trkpt lat="43.64214" lon="2.33166">
        <ele>334.3</ele>
      </trkpt>
      <trkpt lat="43.64209" lon="2.33143">
        <ele>331.3</ele>
      </trkpt>
      <trkpt lat="43.64198" lon="2.33124">
        <ele>330.8</ele>
      </trkpt>
      <trkpt lat="43.64168" lon="2.33068">
        <ele>327.3</ele>
      </trkpt>
      <trkpt lat="43.64141" lon="2.33017">
        <ele>328.7</ele>
      </trkpt>
      <trkpt lat="43.64132" lon="2.33004">
        <ele>329.7</ele>
      </trkpt>
      <trkpt lat="43.64113" lon="2.32974">
        <ele>330.6</ele>
      </trkpt>
      <trkpt lat="43.64095" lon="2.3291">
        <ele>323.1</ele>
      </trkpt>
      <trkpt lat="43.64061" lon="2.32897">
        <ele>332.8</ele>
      </trkpt>
      <trkpt lat="43.64044" lon="2.32869">
        <ele>333.1</ele>
      </trkpt>
      <trkpt lat="43.64032" lon="2.32826">
        <ele>327.1</ele>
      </trkpt>
      <trkpt lat="43.63998" lon="2.32794">
        <ele>329</ele>
      </trkpt>
      <trkpt lat="43.63965" lon="2.32794">
        <ele>332.1</ele>
      </trkpt>
      <trkpt lat="43.63931" lon="2.328">
        <ele>337.3</ele>
      </trkpt>
      <trkpt lat="43.63895" lon="2.328">
        <ele>340.7</ele>
      </trkpt>
      <trkpt lat="43.63836" lon="2.32785">
        <ele>343.3</ele>
      </trkpt>
      <trkpt lat="43.63805" lon="2.32742">
        <ele>344.8</ele>
      </trkpt>
      <trkpt lat="43.63794" lon="2.32691">
        <ele>346.2</ele>
      </trkpt>
      <trkpt lat="43.63796" lon="2.32637">
        <ele>347.4</ele>
      </trkpt>
      <trkpt lat="43.63827" lon="2.32579">
        <ele>341.5</ele>
      </trkpt>
      <trkpt lat="43.63872" lon="2.32543">
        <ele>336.1</ele>
      </trkpt>
      <trkpt lat="43.63937" lon="2.32504">
        <ele>327.3</ele>
      </trkpt>
      <trkpt lat="43.63979" lon="2.3247">
        <ele>317.3</ele>
      </trkpt>
      <trkpt lat="43.63995" lon="2.3245">
        <ele>312.9</ele>
      </trkpt>
      <trkpt lat="43.63995" lon="2.32405">
        <ele>313.8</ele>
      </trkpt>
      <trkpt lat="43.64002" lon="2.32365">
        <ele>306.7</ele>
      </trkpt>
      <trkpt lat="43.63996" lon="2.32315">
        <ele>303.5</ele>
      </trkpt>
      <trkpt lat="43.63965" lon="2.32257">
        <ele>300.1</ele>
      </trkpt>
      <trkpt lat="43.63918" lon="2.32206">
        <ele>282.6</ele>
      </trkpt>
      <trkpt lat="43.63906" lon="2.32161">
        <ele>264.6</ele>
      </trkpt>
      <trkpt lat="43.63904" lon="2.32156">
        <ele>262.7</ele>
      </trkpt>
      <trkpt lat="43.63887" lon="2.32122">
        <ele>249.8</ele>
      </trkpt>
      <trkpt lat="43.63839" lon="2.32094">
        <ele>239.7</ele>
      </trkpt>
      <trkpt lat="43.63892" lon="2.32083">
        <ele>233.5</ele>
      </trkpt>
      <trkpt lat="43.63923" lon="2.32058">
        <ele>227.6</ele>
      </trkpt>
      <trkpt lat="43.63886" lon="2.32046">
        <ele>221.1</ele>
      </trkpt>
      <trkpt lat="43.63855" lon="2.32042">
        <ele>219.4</ele>
      </trkpt>
      <trkpt lat="43.63848" lon="2.32017">
        <ele>210</ele>
      </trkpt>
      <trkpt lat="43.63805" lon="2.32026">
        <ele>213</ele>
      </trkpt>
      <trkpt lat="43.63796" lon="2.32002">
        <ele>203.7</ele>
      </trkpt>
      <trkpt lat="43.63667" lon="2.31984">
        <ele>203.6</ele>
      </trkpt>
      <trkpt lat="43.63649" lon="2.31975">
        <ele>192.8</ele>
      </trkpt>
      <trkpt lat="43.6354" lon="2.3191">
        <ele>194.6</ele>
      </trkpt>
      <trkpt lat="43.63531" lon="2.31911">
        <ele>195.4</ele>
      </trkpt>
      <trkpt lat="43.63516" lon="2.31904">
        <ele>195.5</ele>
      </trkpt>
      <trkpt lat="43.63505" lon="2.31898">
        <ele>195.6</ele>
      </trkpt>
      <trkpt lat="43.63498" lon="2.3189">
        <ele>194.4</ele>
      </trkpt>
      <trkpt lat="43.63482" lon="2.31866">
        <ele>192.8</ele>
      </trkpt>
      <trkpt lat="43.63448" lon="2.31837">
        <ele>192.3</ele>
      </trkpt>
      <trkpt lat="43.63369" lon="2.31782">
        <ele>196.4</ele>
      </trkpt>
      <trkpt lat="43.63365" lon="2.31779">
        <ele>197.2</ele>
      </trkpt>
      <trkpt lat="43.63341" lon="2.31714">
        <ele>196.1</ele>
      </trkpt>
      <trkpt lat="43.63297" lon="2.31576">
        <ele>194.3</ele>
      </trkpt>
      <trkpt lat="43.63284" lon="2.31521">
        <ele>193.5</ele>
      </trkpt>
      <trkpt lat="43.63263" lon="2.31414">
        <ele>197.2</ele>
      </trkpt>
      <trkpt lat="43.63233" lon="2.313">
        <ele>197.6</ele>
      </trkpt>
      <trkpt lat="43.63231" lon="2.31293">
        <ele>197.4</ele>
      </trkpt>
      <trkpt lat="43.63218" lon="2.31246">
        <ele>196.5</ele>
      </trkpt>
      <trkpt lat="43.63207" lon="2.31199">
        <ele>197.3</ele>
      </trkpt>
      <trkpt lat="43.63207" lon="2.31161">
        <ele>194.3</ele>
      </trkpt>
      <trkpt lat="43.63213" lon="2.31136">
        <ele>194.5</ele>
      </trkpt>
      <trkpt lat="43.63228" lon="2.31096">
        <ele>193.4</ele>
      </trkpt>
      <trkpt lat="43.63232" lon="2.31066">
        <ele>191.9</ele>
      </trkpt>
      <trkpt lat="43.63228" lon="2.3104">
        <ele>190.6</ele>
      </trkpt>
      <trkpt lat="43.63221" lon="2.31024">
        <ele>190.1</ele>
      </trkpt>
      <trkpt lat="43.63207" lon="2.31002">
        <ele>193.3</ele>
      </trkpt>
      <trkpt lat="43.63194" lon="2.30966">
        <ele>192.9</ele>
      </trkpt>
      <trkpt lat="43.63186" lon="2.30923">
        <ele>196.3</ele>
      </trkpt>
      <trkpt lat="43.63185" lon="2.30854">
        <ele>197.9</ele>
      </trkpt>
      <trkpt lat="43.63192" lon="2.308">
        <ele>192.1</ele>
      </trkpt>
      <trkpt lat="43.632" lon="2.30701">
        <ele>195.4</ele>
      </trkpt>
      <trkpt lat="43.63202" lon="2.3064">
        <ele>202.4</ele>
      </trkpt>
      <trkpt lat="43.63222" lon="2.30547">
        <ele>196.1</ele>
      </trkpt>
      <trkpt lat="43.63235" lon="2.3051">
        <ele>196.3</ele>
      </trkpt>
      <trkpt lat="43.63245" lon="2.30448">
        <ele>193.1</ele>
      </trkpt>
      <trkpt lat="43.63243" lon="2.30374">
        <ele>191</ele>
      </trkpt>
      <trkpt lat="43.63228" lon="2.30324">
        <ele>192.2</ele>
      </trkpt>
      <trkpt lat="43.63198" lon="2.30265">
        <ele>196.3</ele>
      </trkpt>
      <trkpt lat="43.63179" lon="2.30217">
        <ele>194.5</ele>
      </trkpt>
      <trkpt lat="43.63165" lon="2.30169">
        <ele>193.6</ele>
      </trkpt>
      <trkpt lat="43.63162" lon="2.30123">
        <ele>189.8</ele>
      </trkpt>
      <trkpt lat="43.63168" lon="2.30087">
        <ele>189.2</ele>
      </trkpt>
      <trkpt lat="43.6317" lon="2.30045">
        <ele>196</ele>
      </trkpt>
      <trkpt lat="43.63161" lon="2.29989">
        <ele>195.5</ele>
      </trkpt>
      <trkpt lat="43.63142" lon="2.29926">
        <ele>194.1</ele>
      </trkpt>
      <trkpt lat="43.6312" lon="2.2988">
        <ele>198</ele>
      </trkpt>
      <trkpt lat="43.63109" lon="2.29826">
        <ele>203.2</ele>
      </trkpt>
      <trkpt lat="43.6311" lon="2.29706">
        <ele>189.3</ele>
      </trkpt>
      <trkpt lat="43.63107" lon="2.29651">
        <ele>189.5</ele>
      </trkpt>
      <trkpt lat="43.63116" lon="2.29552">
        <ele>194.9</ele>
      </trkpt>
      <trkpt lat="43.63113" lon="2.29482">
        <ele>190</ele>
      </trkpt>
      <trkpt lat="43.63098" lon="2.29412">
        <ele>190.3</ele>
      </trkpt>
      <trkpt lat="43.63079" lon="2.29353">
        <ele>191.1</ele>
      </trkpt>
      <trkpt lat="43.63046" lon="2.29287">
        <ele>192.6</ele>
      </trkpt>
      <trkpt lat="43.63013" lon="2.29232">
        <ele>191.4</ele>
      </trkpt>
      <trkpt lat="43.62996" lon="2.29195">
        <ele>198.9</ele>
      </trkpt>
      <trkpt lat="43.62982" lon="2.29147">
        <ele>200.9</ele>
      </trkpt>
      <trkpt lat="43.62973" lon="2.29078">
        <ele>193.9</ele>
      </trkpt>
      <trkpt lat="43.62977" lon="2.29049">
        <ele>194.3</ele>
      </trkpt>
      <trkpt lat="43.62989" lon="2.29023">
        <ele>192.3</ele>
      </trkpt>
      <trkpt lat="43.63007" lon="2.28951">
        <ele>194.8</ele>
      </trkpt>
      <trkpt lat="43.6302" lon="2.28914">
        <ele>192.7</ele>
      </trkpt>
      <trkpt lat="43.63023" lon="2.28895">
        <ele>192.3</ele>
      </trkpt>
      <trkpt lat="43.63013" lon="2.28853">
        <ele>192.7</ele>
      </trkpt>
      <trkpt lat="43.6301" lon="2.28809">
        <ele>194.6</ele>
      </trkpt>
      <trkpt lat="43.63002" lon="2.28753">
        <ele>193.3</ele>
      </trkpt>
      <trkpt lat="43.62997" lon="2.28707">
        <ele>193.6</ele>
      </trkpt>
      <trkpt lat="43.62999" lon="2.28581">
        <ele>189.8</ele>
      </trkpt>
      <trkpt lat="43.62984" lon="2.285">
        <ele>194.8</ele>
      </trkpt>
      <trkpt lat="43.6299" lon="2.28473">
        <ele>194.1</ele>
      </trkpt>
      <trkpt lat="43.62989" lon="2.28449">
        <ele>193.2</ele>
      </trkpt>
      <trkpt lat="43.62987" lon="2.28418">
        <ele>193.1</ele>
      </trkpt>
      <trkpt lat="43.6299" lon="2.28379">
        <ele>194</ele>
      </trkpt>
      <trkpt lat="43.63009" lon="2.28259">
        <ele>193.2</ele>
      </trkpt>
      <trkpt lat="43.63006" lon="2.28221">
        <ele>194</ele>
      </trkpt>
      <trkpt lat="43.63007" lon="2.28209">
        <ele>193</ele>
      </trkpt>
      <trkpt lat="43.63003" lon="2.28192">
        <ele>192.7</ele>
      </trkpt>
      <trkpt lat="43.63011" lon="2.28124">
        <ele>196.2</ele>
      </trkpt>
      <trkpt lat="43.63013" lon="2.28089">
        <ele>195.3</ele>
      </trkpt>
      <trkpt lat="43.63013" lon="2.2805">
        <ele>195.2</ele>
      </trkpt>
      <trkpt lat="43.63008" lon="2.27998">
        <ele>195.9</ele>
      </trkpt>
      <trkpt lat="43.63002" lon="2.27948">
        <ele>194.8</ele>
      </trkpt>
      <trkpt lat="43.62995" lon="2.27906">
        <ele>194.9</ele>
      </trkpt>
      <trkpt lat="43.62982" lon="2.27869">
        <ele>196</ele>
      </trkpt>
      <trkpt lat="43.62967" lon="2.27819">
        <ele>195.4</ele>
      </trkpt>
      <trkpt lat="43.62963" lon="2.27797">
        <ele>194.9</ele>
      </trkpt>
      <trkpt lat="43.62966" lon="2.27779">
        <ele>193.7</ele>
      </trkpt>
      <trkpt lat="43.62969" lon="2.27767">
        <ele>193</ele>
      </trkpt>
      <trkpt lat="43.62977" lon="2.27752">
        <ele>191.7</ele>
      </trkpt>
      <trkpt lat="43.62981" lon="2.27734">
        <ele>191.4</ele>
      </trkpt>
      <trkpt lat="43.62947" lon="2.27622">
        <ele>191.4</ele>
      </trkpt>
      <trkpt lat="43.6289" lon="2.27444">
        <ele>191</ele>
      </trkpt>
    </trkseg>
  </trk>
</gpx>